<?xml version='1.0' encoding='UTF-8'?><gpx version="1.1" creator="JPX - https://github.com/jenetics/jpx" xmlns="http://www.topografix.com/GPX/1/1"><trk><trkseg><trkpt lat="43.79308504222251" lon="11.488202476780677"><ele>350.0</ele><time>2026-04-28T08:43:48Z</time></trkpt><trkpt lat="43.793135367796964" lon="11.488302530148568"><ele>350.0</ele><time>2026-04-28T08:45:58Z</time></trkpt><trkpt lat="43.79315352554217" lon="11.488389464636745"><ele>350.0</ele><time>2026-04-28T08:45:59Z</time></trkpt><trkpt lat="43.79318261701072" lon="11.488505243392098"><ele>350.0</ele><time>2026-04-28T08:46:00Z</time></trkpt><trkpt lat="43.79323257437075" lon="11.488638449540431"><ele>350.0</ele><time>2026-04-28T08:46:01Z</time></trkpt><trkpt lat="43.793285927175546" lon="11.48878029594924"><ele>350.1666666666667</ele><time>2026-04-28T08:46:02Z</time></trkpt><trkpt lat="43.79331362684789" lon="11.488908652748115"><ele>350.33333333333337</ele><time>2026-04-28T08:46:03Z</time></trkpt><trkpt lat="43.793360274892535" lon="11.488993885488403"><ele>350.5</ele><time>2026-04-28T08:46:04Z</time></trkpt><trkpt lat="43.79338073452198" lon="11.489100560911806"><ele>350.6666666666667</ele><time>2026-04-28T08:46:05Z</time></trkpt><trkpt lat="43.79340865013958" lon="11.489180391587068"><ele>350.8333333333333</ele><time>2026-04-28T08:46:06Z</time></trkpt><trkpt lat="43.79345061053951" lon="11.489247776795287"><ele>351.0</ele><time>2026-04-28T08:46:07Z</time></trkpt><trkpt lat="43.79350531121071" lon="11.489401806019403"><ele>351.0</ele><time>2026-04-28T08:46:09Z</time></trkpt><trkpt lat="43.793544232787674" lon="11.489508079247365"><ele>351.0</ele><time>2026-04-28T08:46:11Z</time></trkpt><trkpt lat="43.793561326281946" lon="11.48959792253173"><ele>351.0</ele><time>2026-04-28T08:46:14Z</time></trkpt><trkpt lat="43.793533501423966" lon="11.489504252311688"><ele>351.0</ele><time>2026-04-28T08:46:47Z</time></trkpt><trkpt lat="43.7934953875011" lon="11.489407613278665"><ele>351.0</ele><time>2026-04-28T08:49:56.999Z</time></trkpt><trkpt lat="43.7934882471721" lon="11.489224753694566"><ele>351.0</ele><time>2026-04-28T08:49:58.999Z</time></trkpt><trkpt lat="43.7935567759958" lon="11.489486068512123"><ele>352.0</ele><time>2026-04-28T08:49:59.999Z</time></trkpt><trkpt lat="43.793578112658565" lon="11.489591007825219"><ele>353.0</ele><time>2026-04-28T08:50:35.999Z</time></trkpt><trkpt lat="43.79364899808125" lon="11.489572558663841"><ele>354.0</ele><time>2026-04-28T08:50:38.999Z</time></trkpt><trkpt lat="43.79368904801993" lon="11.489500100326898"><ele>355.0</ele><time>2026-04-28T08:53:48.999Z</time></trkpt><trkpt lat="43.79377611110445" lon="11.489371874674166"><ele>356.0</ele><time>2026-04-28T08:53:50.999Z</time></trkpt><trkpt lat="43.79385164247427" lon="11.48925572635523"><ele>356.0</ele><time>2026-04-28T08:53:51.999Z</time></trkpt><trkpt lat="43.79392169640053" lon="11.489140776709188"><ele>356.0</ele><time>2026-04-28T08:53:52.999Z</time></trkpt><trkpt lat="43.79397016703219" lon="11.48904485728919"><ele>356.0</ele><time>2026-04-28T08:53:53.999Z</time></trkpt><trkpt lat="43.793998991766166" lon="11.488959855456931"><ele>356.0</ele><time>2026-04-28T08:53:55Z</time></trkpt><trkpt lat="43.794023131824424" lon="11.4888792150089"><ele>356.0</ele><time>2026-04-28T08:53:56Z</time></trkpt><trkpt lat="43.794073341908096" lon="11.488787236180617"><ele>356.0</ele><time>2026-04-28T08:53:59Z</time></trkpt><trkpt lat="43.79405630065973" lon="11.488677655802663"><ele>356.1666666666667</ele><time>2026-04-28T08:54:04Z</time></trkpt><trkpt lat="43.794074989566646" lon="11.488587929116745"><ele>356.33333333333337</ele><time>2026-04-28T08:54:05Z</time></trkpt><trkpt lat="43.79412705474155" lon="11.488522979969785"><ele>356.5</ele><time>2026-04-28T08:54:06Z</time></trkpt><trkpt lat="43.79419662705464" lon="11.488460387690742"><ele>356.6666666666667</ele><time>2026-04-28T08:54:07Z</time></trkpt><trkpt lat="43.794264158322" lon="11.488397089083273"><ele>356.8333333333333</ele><time>2026-04-28T08:54:08Z</time></trkpt><trkpt lat="43.79433053029106" lon="11.488316991067645"><ele>357.0</ele><time>2026-04-28T08:54:09Z</time></trkpt><trkpt lat="43.79440730623345" lon="11.488270072958546"><ele>357.0</ele><time>2026-04-28T08:54:10Z</time></trkpt><trkpt lat="43.79447753111709" lon="11.48820940802021"><ele>357.0</ele><time>2026-04-28T08:54:11Z</time></trkpt><trkpt lat="43.794530293482076" lon="11.488140715762734"><ele>357.0</ele><time>2026-04-28T08:54:12Z</time></trkpt><trkpt lat="43.79456427901084" lon="11.48806059813711"><ele>357.0</ele><time>2026-04-28T08:54:13Z</time></trkpt><trkpt lat="43.79456999728349" lon="11.487945953687943"><ele>357.0</ele><time>2026-04-28T08:54:14Z</time></trkpt><trkpt lat="43.79459176997335" lon="11.48776457527664"><ele>357.0</ele><time>2026-04-28T08:54:15Z</time></trkpt><trkpt lat="43.79462370696339" lon="11.487609907872327"><ele>357.20000000000005</ele><time>2026-04-28T08:54:16Z</time></trkpt><trkpt lat="43.79465921634376" lon="11.487483126795384"><ele>357.4</ele><time>2026-04-28T08:54:17Z</time></trkpt><trkpt lat="43.794692221220636" lon="11.487399481009556"><ele>357.6</ele><time>2026-04-28T08:54:18Z</time></trkpt><trkpt lat="43.79474921092838" lon="11.487252090408669"><ele>357.79999999999995</ele><time>2026-04-28T08:54:19Z</time></trkpt><trkpt lat="43.794797317329646" lon="11.487150676878391"><ele>358.0</ele><time>2026-04-28T08:54:20Z</time></trkpt><trkpt lat="43.794850774053934" lon="11.487025781242137"><ele>358.0</ele><time>2026-04-28T08:54:21Z</time></trkpt><trkpt lat="43.794900051788936" lon="11.486923079479585"><ele>358.0</ele><time>2026-04-28T08:54:22Z</time></trkpt><trkpt lat="43.79492070634005" lon="11.486828509795044"><ele>358.0</ele><time>2026-04-28T08:54:23Z</time></trkpt><trkpt lat="43.795016599048" lon="11.486724915690779"><ele>358.0</ele><time>2026-04-28T08:54:25Z</time></trkpt><trkpt lat="43.79511027169683" lon="11.486770750313932"><ele>358.0</ele><time>2026-04-28T08:54:27Z</time></trkpt><trkpt lat="43.795172749831664" lon="11.486820086339097"><ele>358.4</ele><time>2026-04-28T08:54:28Z</time></trkpt><trkpt lat="43.79525932124658" lon="11.48688348265384"><ele>358.79999999999995</ele><time>2026-04-28T08:54:29Z</time></trkpt><trkpt lat="43.795339734789565" lon="11.486930370623938"><ele>359.2</ele><time>2026-04-28T08:54:30Z</time></trkpt><trkpt lat="43.79540340901588" lon="11.486925239284464"><ele>359.6</ele><time>2026-04-28T08:54:31Z</time></trkpt><trkpt lat="43.79551322003205" lon="11.486835171729787"><ele>360.0</ele><time>2026-04-28T08:54:33Z</time></trkpt><trkpt lat="43.79559208137044" lon="11.486752639184859"><ele>360.0</ele><time>2026-04-28T08:54:34Z</time></trkpt><trkpt lat="43.79565938601525" lon="11.486708613354699"><ele>360.0</ele><time>2026-04-28T08:54:35Z</time></trkpt><trkpt lat="43.79574689855143" lon="11.486658056991116"><ele>360.0</ele><time>2026-04-28T08:54:37Z</time></trkpt><trkpt lat="43.795835894203044" lon="11.48662347634471"><ele>360.0</ele><time>2026-04-28T08:54:44Z</time></trkpt><trkpt lat="43.79591940990965" lon="11.486608378099177"><ele>360.0</ele><time>2026-04-28T08:54:45Z</time></trkpt><trkpt lat="43.79598920453134" lon="11.48659114170756"><ele>360.0</ele><time>2026-04-28T08:54:46Z</time></trkpt><trkpt lat="43.7960891155806" lon="11.486561384761453"><ele>362.4</ele><time>2026-04-28T08:54:47Z</time></trkpt><trkpt lat="43.79615735405817" lon="11.48654148652863"><ele>364.8</ele><time>2026-04-28T08:54:48Z</time></trkpt><trkpt lat="43.796240892429616" lon="11.486501330295905"><ele>367.20000000000005</ele><time>2026-04-28T08:54:50Z</time></trkpt><trkpt lat="43.796302798224616" lon="11.486598856220198"><ele>369.6</ele><time>2026-04-28T08:54:52Z</time></trkpt><trkpt lat="43.79631520027254" lon="11.486736687894117"><ele>372.0</ele><time>2026-04-28T08:54:54Z</time></trkpt><trkpt lat="43.79624447688955" lon="11.486876403916812"><ele>372.0</ele><time>2026-04-28T08:54:56Z</time></trkpt><trkpt lat="43.79612469621687" lon="11.486954573531952"><ele>372.0</ele><time>2026-04-28T08:54:58Z</time></trkpt><trkpt lat="43.796058403179565" lon="11.487007034925007"><ele>372.0</ele><time>2026-04-28T08:54:59Z</time></trkpt><trkpt lat="43.79599213550631" lon="11.487072664802453"><ele>372.0</ele><time>2026-04-28T08:55:00Z</time></trkpt><trkpt lat="43.79594840237848" lon="11.48714089266291"><ele>372.0</ele><time>2026-04-28T08:55:01Z</time></trkpt><trkpt lat="43.795942810702385" lon="11.487324969695793"><ele>370.6666666666667</ele><time>2026-04-28T08:55:03Z</time></trkpt><trkpt lat="43.79599051138014" lon="11.487423730524265"><ele>369.3333333333333</ele><time>2026-04-28T08:55:04Z</time></trkpt><trkpt lat="43.79606209853182" lon="11.487442807627447"><ele>368.0</ele><time>2026-04-28T08:55:05Z</time></trkpt><trkpt lat="43.79614698291845" lon="11.487447591228417"><ele>366.66666666666663</ele><time>2026-04-28T08:55:06Z</time></trkpt><trkpt lat="43.7962185698721" lon="11.487420975340783"><ele>365.3333333333333</ele><time>2026-04-28T08:55:07Z</time></trkpt><trkpt lat="43.796300144087276" lon="11.487371118345196"><ele>364.0</ele><time>2026-04-28T08:55:08Z</time></trkpt><trkpt lat="43.796395229266274" lon="11.487331748982786"><ele>365.3333333333333</ele><time>2026-04-28T08:55:09Z</time></trkpt><trkpt lat="43.79647383494372" lon="11.487298833370682"><ele>366.66666666666663</ele><time>2026-04-28T08:55:10Z</time></trkpt><trkpt lat="43.79655569664738" lon="11.487263133720473"><ele>368.0</ele><time>2026-04-28T08:55:11Z</time></trkpt><trkpt lat="43.79662921491034" lon="11.487200401069018"><ele>369.3333333333333</ele><time>2026-04-28T08:55:12Z</time></trkpt><trkpt lat="43.79669774926599" lon="11.487142684542547"><ele>370.6666666666667</ele><time>2026-04-28T08:55:13Z</time></trkpt><trkpt lat="43.79676085917176" lon="11.487100159907824"><ele>372.0</ele><time>2026-04-28T08:55:14Z</time></trkpt><trkpt lat="43.79683182385279" lon="11.487009657297248"><ele>377.0</ele><time>2026-04-28T08:55:15Z</time></trkpt><trkpt lat="43.796905532964765" lon="11.48689830050689"><ele>382.0</ele><time>2026-04-28T08:55:16Z</time></trkpt><trkpt lat="43.79697903266677" lon="11.48681094669586"><ele>387.0</ele><time>2026-04-28T08:55:17Z</time></trkpt><trkpt lat="43.797051651075904" lon="11.486704741648051"><ele>392.0</ele><time>2026-04-28T08:55:18Z</time></trkpt><trkpt lat="43.797128896871776" lon="11.486592370650147"><ele>397.0</ele><time>2026-04-28T08:55:19Z</time></trkpt><trkpt lat="43.79718928331787" lon="11.48647232599089"><ele>397.0</ele><time>2026-04-28T08:55:20Z</time></trkpt><trkpt lat="43.7972462311447" lon="11.486338813337436"><ele>397.0</ele><time>2026-04-28T08:55:21Z</time></trkpt><trkpt lat="43.79729413565763" lon="11.48622362231265"><ele>397.0</ele><time>2026-04-28T08:55:22Z</time></trkpt><trkpt lat="43.79735619215226" lon="11.486194698850063"><ele>397.0</ele><time>2026-04-28T08:55:23Z</time></trkpt><trkpt lat="43.7973962377189" lon="11.486081953132377"><ele>397.0</ele><time>2026-04-28T08:55:24Z</time></trkpt><trkpt lat="43.7974644022395" lon="11.486008149668706"><ele>395.20000000000005</ele><time>2026-04-28T08:55:25Z</time></trkpt><trkpt lat="43.79753436047712" lon="11.485935520791976"><ele>393.4</ele><time>2026-04-28T08:55:26Z</time></trkpt><trkpt lat="43.797591482039344" lon="11.485858515874918"><ele>391.6</ele><time>2026-04-28T08:55:27Z</time></trkpt><trkpt lat="43.79765163142789" lon="11.485727326831917"><ele>389.79999999999995</ele><time>2026-04-28T08:55:28Z</time></trkpt><trkpt lat="43.79771213371714" lon="11.485625364257725"><ele>388.0</ele><time>2026-04-28T08:55:29Z</time></trkpt><trkpt lat="43.7977559773253" lon="11.48552091526116"><ele>389.2</ele><time>2026-04-28T08:55:30Z</time></trkpt><trkpt lat="43.797795327025106" lon="11.485416870556142"><ele>390.4</ele><time>2026-04-28T08:55:31Z</time></trkpt><trkpt lat="43.797819267000904" lon="11.485307932060852"><ele>391.59999999999997</ele><time>2026-04-28T08:55:32Z</time></trkpt><trkpt lat="43.797830398111046" lon="11.485212006096278"><ele>392.79999999999995</ele><time>2026-04-28T08:55:33Z</time></trkpt><trkpt lat="43.79790887968564" lon="11.48508750637491"><ele>394.0</ele><time>2026-04-28T08:55:35Z</time></trkpt><trkpt lat="43.797989141414156" lon="11.485011854980606"><ele>394.0</ele><time>2026-04-28T08:55:37Z</time></trkpt><trkpt lat="43.79809596990805" lon="11.484982884245579"><ele>394.0</ele><time>2026-04-28T08:55:39Z</time></trkpt><trkpt lat="43.798168157139024" lon="11.484974951638245"><ele>394.0</ele><time>2026-04-28T08:55:40Z</time></trkpt><trkpt lat="43.79824199971613" lon="11.48498602563146"><ele>394.0</ele><time>2026-04-28T08:55:41Z</time></trkpt><trkpt lat="43.79834724770807" lon="11.485079685156965"><ele>394.0</ele><time>2026-04-28T08:55:43Z</time></trkpt><trkpt lat="43.798397886283404" lon="11.485150452727405"><ele>392.4</ele><time>2026-04-28T08:55:45Z</time></trkpt><trkpt lat="43.79851512159789" lon="11.485240239944584"><ele>390.79999999999995</ele><time>2026-04-28T08:55:51Z</time></trkpt><trkpt lat="43.798586825368744" lon="11.485310605529753"><ele>389.20000000000005</ele><time>2026-04-28T08:55:52Z</time></trkpt><trkpt lat="43.79865955121273" lon="11.485379908999608"><ele>387.6</ele><time>2026-04-28T08:55:53Z</time></trkpt><trkpt lat="43.79873634194581" lon="11.485468404783505"><ele>386.0</ele><time>2026-04-28T08:55:54Z</time></trkpt><trkpt lat="43.798809618777256" lon="11.485563468205463"><ele>388.8333333333333</ele><time>2026-04-28T08:55:55Z</time></trkpt><trkpt lat="43.79887456830891" lon="11.485657937369798"><ele>391.66666666666663</ele><time>2026-04-28T08:55:56Z</time></trkpt><trkpt lat="43.798925708209026" lon="11.485733622592763"><ele>394.5</ele><time>2026-04-28T08:55:57Z</time></trkpt><trkpt lat="43.798967956933886" lon="11.485801820743342"><ele>397.33333333333337</ele><time>2026-04-28T08:55:58Z</time></trkpt><trkpt lat="43.79905288574214" lon="11.485932702677012"><ele>400.1666666666667</ele><time>2026-04-28T08:56:00Z</time></trkpt><trkpt lat="43.799098760062556" lon="11.486023326620884"><ele>403.0</ele><time>2026-04-28T08:56:01Z</time></trkpt><trkpt lat="43.79914685922697" lon="11.486124085124587"><ele>403.00000000000006</ele><time>2026-04-28T08:56:02Z</time></trkpt><trkpt lat="43.799198827153056" lon="11.486220707581234"><ele>403.0</ele><time>2026-04-28T08:56:03Z</time></trkpt><trkpt lat="43.799255875525255" lon="11.486305073575357"><ele>403.0</ele><time>2026-04-28T08:56:04Z</time></trkpt><trkpt lat="43.79931768977414" lon="11.486389734906703"><ele>403.0</ele><time>2026-04-28T08:56:05Z</time></trkpt><trkpt lat="43.799372768166485" lon="11.486487711048541"><ele>403.00000000000006</ele><time>2026-04-28T08:56:06Z</time></trkpt><trkpt lat="43.799444133121376" lon="11.486545009799464"><ele>403.0</ele><time>2026-04-28T08:56:07Z</time></trkpt><trkpt lat="43.79952643460171" lon="11.486591623862822"><ele>403.33333333333337</ele><time>2026-04-28T08:56:08Z</time></trkpt><trkpt lat="43.79960575089303" lon="11.48662099734332"><ele>403.6666666666667</ele><time>2026-04-28T08:56:09Z</time></trkpt><trkpt lat="43.79968594784259" lon="11.486638171892002"><ele>404.0</ele><time>2026-04-28T08:56:10Z</time></trkpt><trkpt lat="43.799770102511566" lon="11.486639762412437"><ele>404.33333333333337</ele><time>2026-04-28T08:56:11Z</time></trkpt><trkpt lat="43.799842677856745" lon="11.486648661140322"><ele>404.6666666666667</ele><time>2026-04-28T08:56:12Z</time></trkpt><trkpt lat="43.79992465902669" lon="11.486757830450907"><ele>405.0</ele><time>2026-04-28T08:56:14Z</time></trkpt><trkpt lat="43.79996250883009" lon="11.486868248942514"><ele>405.0</ele><time>2026-04-28T08:56:15Z</time></trkpt><trkpt lat="43.80000347475771" lon="11.486995711375569"><ele>405.0</ele><time>2026-04-28T08:56:16Z</time></trkpt><trkpt lat="43.800036286618926" lon="11.487131089464276"><ele>405.0</ele><time>2026-04-28T08:56:17Z</time></trkpt><trkpt lat="43.80006195622807" lon="11.487255786915593"><ele>405.0</ele><time>2026-04-28T08:56:18Z</time></trkpt><trkpt lat="43.80009303581334" lon="11.487364812476867"><ele>405.0</ele><time>2026-04-28T08:56:19Z</time></trkpt><trkpt lat="43.80013284423944" lon="11.487477112020326"><ele>401.0</ele><time>2026-04-28T08:56:20Z</time></trkpt><trkpt lat="43.80018539782131" lon="11.487604057730543"><ele>397.0</ele><time>2026-04-28T08:56:21Z</time></trkpt><trkpt lat="43.800247645637796" lon="11.487737518286353"><ele>393.0</ele><time>2026-04-28T08:56:22Z</time></trkpt><trkpt lat="43.800301035256474" lon="11.487850437176757"><ele>389.0</ele><time>2026-04-28T08:56:23Z</time></trkpt><trkpt lat="43.800334927780675" lon="11.487938797909678"><ele>385.0</ele><time>2026-04-28T08:56:24Z</time></trkpt><trkpt lat="43.80034806900063" lon="11.488026692880839"><ele>385.00000000000006</ele><time>2026-04-28T08:56:25Z</time></trkpt><trkpt lat="43.80035208395935" lon="11.488127368841484"><ele>385.0</ele><time>2026-04-28T08:56:26Z</time></trkpt><trkpt lat="43.80032800697448" lon="11.488208818542677"><ele>385.0</ele><time>2026-04-28T08:56:27Z</time></trkpt><trkpt lat="43.800274476782235" lon="11.488303018608228"><ele>385.0</ele><time>2026-04-28T08:56:28Z</time></trkpt><trkpt lat="43.8001884992375" lon="11.488390735569157"><ele>385.00000000000006</ele><time>2026-04-28T08:56:29Z</time></trkpt><trkpt lat="43.80010553518784" lon="11.488500130328031"><ele>385.0</ele><time>2026-04-28T08:56:30Z</time></trkpt><trkpt lat="43.800039096879736" lon="11.48863726380364"><ele>391.5</ele><time>2026-04-28T08:56:31Z</time></trkpt><trkpt lat="43.79998199563667" lon="11.4887789976107"><ele>398.0</ele><time>2026-04-28T08:56:32Z</time></trkpt><trkpt lat="43.79993252129104" lon="11.488928791979555"><ele>404.5</ele><time>2026-04-28T08:56:33Z</time></trkpt><trkpt lat="43.79985070295989" lon="11.489085195936045"><ele>411.0</ele><time>2026-04-28T08:56:34Z</time></trkpt><trkpt lat="43.799785959130894" lon="11.48923269833244"><ele>411.0</ele><time>2026-04-28T08:56:35Z</time></trkpt><trkpt lat="43.79974295677258" lon="11.489343045411557"><ele>411.0</ele><time>2026-04-28T08:56:36Z</time></trkpt><trkpt lat="43.799722498692425" lon="11.489461022217396"><ele>411.0</ele><time>2026-04-28T08:56:37Z</time></trkpt><trkpt lat="43.799719106572766" lon="11.489584198149446"><ele>411.0</ele><time>2026-04-28T08:56:38Z</time></trkpt><trkpt lat="43.79972677814827" lon="11.489707687089766"><ele>411.0</ele><time>2026-04-28T08:56:39Z</time></trkpt><trkpt lat="43.799727553839716" lon="11.489813050073254"><ele>411.0</ele><time>2026-04-28T08:56:40Z</time></trkpt><trkpt lat="43.79969899162537" lon="11.489911726704863"><ele>408.6</ele><time>2026-04-28T08:56:41Z</time></trkpt><trkpt lat="43.799620029491365" lon="11.490049032068583"><ele>406.20000000000005</ele><time>2026-04-28T08:56:43Z</time></trkpt><trkpt lat="43.799549942901294" lon="11.490107072516333"><ele>403.79999999999995</ele><time>2026-04-28T08:56:44Z</time></trkpt><trkpt lat="43.799464156301255" lon="11.490169273381245"><ele>401.4</ele><time>2026-04-28T08:56:45Z</time></trkpt><trkpt lat="43.79937882052102" lon="11.490218634302297"><ele>399.0</ele><time>2026-04-28T08:56:46Z</time></trkpt><trkpt lat="43.79930098335289" lon="11.490266364982778"><ele>402.3333333333333</ele><time>2026-04-28T08:56:47Z</time></trkpt><trkpt lat="43.79921417976898" lon="11.490317780980773"><ele>405.66666666666663</ele><time>2026-04-28T08:56:48Z</time></trkpt><trkpt lat="43.79914116939418" lon="11.490379528911705"><ele>409.0</ele><time>2026-04-28T08:56:49Z</time></trkpt><trkpt lat="43.79909733377182" lon="11.490473011223159"><ele>412.3333333333333</ele><time>2026-04-28T08:56:50Z</time></trkpt><trkpt lat="43.79905581987803" lon="11.490574702303332"><ele>415.66666666666663</ele><time>2026-04-28T08:56:51Z</time></trkpt><trkpt lat="43.799012370972946" lon="11.490652859753132"><ele>419.0</ele><time>2026-04-28T08:56:52Z</time></trkpt><trkpt lat="43.79895566273456" lon="11.49073465081573"><ele>418.99999999999994</ele><time>2026-04-28T08:56:53Z</time></trkpt><trkpt lat="43.798896503612134" lon="11.490793068936059"><ele>419.0</ele><time>2026-04-28T08:56:54Z</time></trkpt><trkpt lat="43.79882201790919" lon="11.490833823624802"><ele>419.0</ele><time>2026-04-28T08:56:55Z</time></trkpt><trkpt lat="43.79875579346935" lon="11.49085992795998"><ele>419.0</ele><time>2026-04-28T08:56:56Z</time></trkpt><trkpt lat="43.79867588210947" lon="11.490885501623142"><ele>418.99999999999994</ele><time>2026-04-28T08:56:57Z</time></trkpt><trkpt lat="43.798576201792145" lon="11.490951360567067"><ele>419.0</ele><time>2026-04-28T08:56:59Z</time></trkpt><trkpt lat="43.79852004017094" lon="11.491010348593644"><ele>420.49999999999994</ele><time>2026-04-28T08:57:00Z</time></trkpt><trkpt lat="43.798442654256796" lon="11.49106633503474"><ele>422.0</ele><time>2026-04-28T08:57:01Z</time></trkpt><trkpt lat="43.79836921657243" lon="11.491103590615062"><ele>423.5</ele><time>2026-04-28T08:57:02Z</time></trkpt><trkpt lat="43.798281792555265" lon="11.491145676639663"><ele>425.0</ele><time>2026-04-28T08:57:03Z</time></trkpt><trkpt lat="43.79821206611768" lon="11.491169544281943"><ele>426.49999999999994</ele><time>2026-04-28T08:57:04Z</time></trkpt><trkpt lat="43.79812583281327" lon="11.491206317483632"><ele>428.0</ele><time>2026-04-28T08:57:06Z</time></trkpt><trkpt lat="43.79808735349267" lon="11.491286859074062"><ele>428.0</ele><time>2026-04-28T08:57:09Z</time></trkpt><trkpt lat="43.798048215346306" lon="11.491467475618702"><ele>427.99999999999994</ele><time>2026-04-28T08:57:11Z</time></trkpt><trkpt lat="43.79804037678641" lon="11.49159572730553"><ele>427.99999999999994</ele><time>2026-04-28T08:57:12Z</time></trkpt><trkpt lat="43.79802894215374" lon="11.491732737574027"><ele>428.0</ele><time>2026-04-28T08:57:13Z</time></trkpt><trkpt lat="43.79801444699162" lon="11.491888678089206"><ele>428.0</ele><time>2026-04-28T08:57:14Z</time></trkpt><trkpt lat="43.79800653940306" lon="11.492027239224319"><ele>428.3333333333333</ele><time>2026-04-28T08:57:15Z</time></trkpt><trkpt lat="43.79800751288137" lon="11.492148131200535"><ele>428.66666666666663</ele><time>2026-04-28T08:57:16Z</time></trkpt><trkpt lat="43.79800230345261" lon="11.492279671252806"><ele>429.0</ele><time>2026-04-28T08:57:17Z</time></trkpt><trkpt lat="43.798006293075865" lon="11.492381697292295"><ele>429.33333333333337</ele><time>2026-04-28T08:57:18Z</time></trkpt><trkpt lat="43.79801332592613" lon="11.492474611823251"><ele>429.6666666666667</ele><time>2026-04-28T08:57:19Z</time></trkpt><trkpt lat="43.79803238422847" lon="11.492628261450584"><ele>430.0</ele><time>2026-04-28T08:57:21Z</time></trkpt><trkpt lat="43.79805338799407" lon="11.492774829442872"><ele>430.0</ele><time>2026-04-28T08:57:23Z</time></trkpt><trkpt lat="43.79805804797544" lon="11.492917754220542"><ele>430.0</ele><time>2026-04-28T08:57:24Z</time></trkpt><trkpt lat="43.7980542968063" lon="11.493076847849842"><ele>430.0</ele><time>2026-04-28T08:57:25Z</time></trkpt><trkpt lat="43.79803548138688" lon="11.493212142642403"><ele>430.0</ele><time>2026-04-28T08:57:26Z</time></trkpt><trkpt lat="43.79801080977961" lon="11.493328254314855"><ele>430.0</ele><time>2026-04-28T08:57:27Z</time></trkpt><trkpt lat="43.79800200858727" lon="11.493453220477205"><ele>430.6666666666667</ele><time>2026-04-28T08:57:28Z</time></trkpt><trkpt lat="43.797988834382465" lon="11.493560499570386"><ele>431.33333333333337</ele><time>2026-04-28T08:57:29Z</time></trkpt><trkpt lat="43.79799677917514" lon="11.493658966458714"><ele>432.0</ele><time>2026-04-28T08:57:30Z</time></trkpt><trkpt lat="43.79802200769657" lon="11.493752153134183"><ele>432.66666666666663</ele><time>2026-04-28T08:57:31Z</time></trkpt><trkpt lat="43.79805576849086" lon="11.493865571811668"><ele>433.3333333333333</ele><time>2026-04-28T08:57:32Z</time></trkpt><trkpt lat="43.798094154509236" lon="11.493966171533089"><ele>434.0</ele><time>2026-04-28T08:57:33Z</time></trkpt><trkpt lat="43.79813008776465" lon="11.494053911733566"><ele>435.5</ele><time>2026-04-28T08:57:34Z</time></trkpt><trkpt lat="43.798156822597996" lon="11.4941774544233"><ele>437.0</ele><time>2026-04-28T08:57:35Z</time></trkpt><trkpt lat="43.79818327015262" lon="11.494347648675362"><ele>438.5</ele><time>2026-04-28T08:57:36Z</time></trkpt><trkpt lat="43.79821516401157" lon="11.494517935336399"><ele>440.0</ele><time>2026-04-28T08:57:37Z</time></trkpt><trkpt lat="43.798237462825185" lon="11.494680720020858"><ele>441.2</ele><time>2026-04-28T08:57:38Z</time></trkpt><trkpt lat="43.79824463195389" lon="11.49482147388878"><ele>442.4</ele><time>2026-04-28T08:57:39Z</time></trkpt><trkpt lat="43.79823632455191" lon="11.494942468761062"><ele>443.6</ele><time>2026-04-28T08:57:40Z</time></trkpt><trkpt lat="43.79822664004912" lon="11.495064493139283"><ele>444.8</ele><time>2026-04-28T08:57:41Z</time></trkpt><trkpt lat="43.79821874159418" lon="11.495197384079605"><ele>446.0</ele><time>2026-04-28T08:57:42Z</time></trkpt><trkpt lat="43.7982216269339" lon="11.495340246201343"><ele>447.8333333333333</ele><time>2026-04-28T08:57:43Z</time></trkpt><trkpt lat="43.798208951892654" lon="11.49546671891055"><ele>449.66666666666663</ele><time>2026-04-28T08:57:44Z</time></trkpt><trkpt lat="43.79819077290089" lon="11.495580689503228"><ele>451.5</ele><time>2026-04-28T08:57:45Z</time></trkpt><trkpt lat="43.79816417691913" lon="11.495691117782753"><ele>453.33333333333337</ele><time>2026-04-28T08:57:46Z</time></trkpt><trkpt lat="43.79811174898462" lon="11.49577168798774"><ele>455.1666666666667</ele><time>2026-04-28T08:57:47Z</time></trkpt><trkpt lat="43.798048920303515" lon="11.495819502795316"><ele>457.0</ele><time>2026-04-28T08:57:48Z</time></trkpt><trkpt lat="43.797974894765474" lon="11.495855792732254"><ele>457.00000000000006</ele><time>2026-04-28T08:57:49Z</time></trkpt><trkpt lat="43.79789880209186" lon="11.495917397122893"><ele>457.0</ele><time>2026-04-28T08:57:50Z</time></trkpt><trkpt lat="43.79784810943585" lon="11.495995419877927"><ele>457.0</ele><time>2026-04-28T08:57:51Z</time></trkpt><trkpt lat="43.79780906994733" lon="11.496096690565027"><ele>457.0</ele><time>2026-04-28T08:57:52Z</time></trkpt><trkpt lat="43.79778816531842" lon="11.496187298989174"><ele>457.00000000000006</ele><time>2026-04-28T08:57:53Z</time></trkpt><trkpt lat="43.79777762676721" lon="11.49630031531951"><ele>457.0</ele><time>2026-04-28T08:57:54Z</time></trkpt><trkpt lat="43.79775324572996" lon="11.496459920066021"><ele>457.0</ele><time>2026-04-28T08:57:55Z</time></trkpt><trkpt lat="43.79770143833486" lon="11.496659859877205"><ele>457.0</ele><time>2026-04-28T08:57:56Z</time></trkpt><trkpt lat="43.79765931080402" lon="11.49686225787904"><ele>457.0</ele><time>2026-04-28T08:57:57Z</time></trkpt><trkpt lat="43.797628182728296" lon="11.49700920145574"><ele>457.0</ele><time>2026-04-28T08:57:58Z</time></trkpt><trkpt lat="43.79759594164725" lon="11.497150096553893"><ele>457.00000000000006</ele><time>2026-04-28T08:57:59Z</time></trkpt><trkpt lat="43.797542363625666" lon="11.497251076409853"><ele>457.0</ele><time>2026-04-28T08:58:00Z</time></trkpt><trkpt lat="43.79749710437194" lon="11.497364154749635"><ele>457.0</ele><time>2026-04-28T08:58:01Z</time></trkpt><trkpt lat="43.797447493768914" lon="11.497459721000011"><ele>457.0</ele><time>2026-04-28T08:58:02Z</time></trkpt><trkpt lat="43.797376280226835" lon="11.497524625180892"><ele>457.00000000000006</ele><time>2026-04-28T08:58:03Z</time></trkpt><trkpt lat="43.79731022947838" lon="11.497589396468976"><ele>457.0</ele><time>2026-04-28T08:58:04Z</time></trkpt><trkpt lat="43.797238047219004" lon="11.497624261742917"><ele>457.0</ele><time>2026-04-28T08:58:05Z</time></trkpt><trkpt lat="43.7971018049756" lon="11.497608906622242"><ele>457.0</ele><time>2026-04-28T08:58:07Z</time></trkpt><trkpt lat="43.79699143063057" lon="11.497591335633937"><ele>457.0</ele><time>2026-04-28T08:58:08Z</time></trkpt><trkpt lat="43.796880147862275" lon="11.497574314237415"><ele>457.0</ele><time>2026-04-28T08:58:09Z</time></trkpt><trkpt lat="43.796778618649086" lon="11.49759987563859"><ele>456.20000000000005</ele><time>2026-04-28T08:58:10Z</time></trkpt><trkpt lat="43.7966626174148" lon="11.497588535834764"><ele>455.40000000000003</ele><time>2026-04-28T08:58:11Z</time></trkpt><trkpt lat="43.796575338322654" lon="11.497615980214022"><ele>454.59999999999997</ele><time>2026-04-28T08:58:12Z</time></trkpt><trkpt lat="43.79650472708036" lon="11.497668734802229"><ele>453.79999999999995</ele><time>2026-04-28T08:58:13Z</time></trkpt><trkpt lat="43.796454497838816" lon="11.497731301725349"><ele>453.0</ele><time>2026-04-28T08:58:14Z</time></trkpt><trkpt lat="43.7963664111702" lon="11.4978532448255"><ele>454.8333333333333</ele><time>2026-04-28T08:58:16Z</time></trkpt><trkpt lat="43.79631851727424" lon="11.497955941240658"><ele>456.66666666666663</ele><time>2026-04-28T08:58:17Z</time></trkpt><trkpt lat="43.79628887099367" lon="11.498074139919888"><ele>458.5</ele><time>2026-04-28T08:58:18Z</time></trkpt><trkpt lat="43.79626059160373" lon="11.498180051114193"><ele>460.3333333333333</ele><time>2026-04-28T08:58:19Z</time></trkpt><trkpt lat="43.796241312148965" lon="11.498277200786527"><ele>462.16666666666663</ele><time>2026-04-28T08:58:20Z</time></trkpt><trkpt lat="43.79623722295131" lon="11.498366773528858"><ele>464.0</ele><time>2026-04-28T08:58:21Z</time></trkpt><trkpt lat="43.79624618563895" lon="11.498464186372853"><ele>463.99999999999994</ele><time>2026-04-28T08:58:22Z</time></trkpt><trkpt lat="43.796261571238404" lon="11.49857147410214"><ele>464.0</ele><time>2026-04-28T08:58:23Z</time></trkpt><trkpt lat="43.79626931080887" lon="11.498670091656328"><ele>464.0</ele><time>2026-04-28T08:58:24Z</time></trkpt><trkpt lat="43.79629058464972" lon="11.498784779555015"><ele>464.0</ele><time>2026-04-28T08:58:25Z</time></trkpt><trkpt lat="43.79632444421291" lon="11.498909539469242"><ele>463.99999999999994</ele><time>2026-04-28T08:58:26Z</time></trkpt><trkpt lat="43.796362187928615" lon="11.499050430994638"><ele>464.0</ele><time>2026-04-28T08:58:27Z</time></trkpt><trkpt lat="43.79639930473074" lon="11.4991904126318"><ele>463.2</ele><time>2026-04-28T08:58:28Z</time></trkpt><trkpt lat="43.796426379896495" lon="11.49930830479321"><ele>462.4</ele><time>2026-04-28T08:58:29Z</time></trkpt><trkpt lat="43.79644008505154" lon="11.499433001705613"><ele>461.6</ele><time>2026-04-28T08:58:30Z</time></trkpt><trkpt lat="43.796451968565336" lon="11.499574893075007"><ele>460.8</ele><time>2026-04-28T08:58:31Z</time></trkpt><trkpt lat="43.79646261394653" lon="11.499710887498292"><ele>460.0</ele><time>2026-04-28T08:58:32Z</time></trkpt><trkpt lat="43.79647166638659" lon="11.499841638815381"><ele>459.50000000000006</ele><time>2026-04-28T08:58:33Z</time></trkpt><trkpt lat="43.796479028764246" lon="11.499974688382707"><ele>459.0</ele><time>2026-04-28T08:58:34Z</time></trkpt><trkpt lat="43.796480988376906" lon="11.500113332663776"><ele>458.5</ele><time>2026-04-28T08:58:35Z</time></trkpt><trkpt lat="43.796480050989665" lon="11.500232297449026"><ele>458.0</ele><time>2026-04-28T08:58:36Z</time></trkpt><trkpt lat="43.796486784806234" lon="11.500343885240781"><ele>457.50000000000006</ele><time>2026-04-28T08:58:37Z</time></trkpt><trkpt lat="43.79651624787591" lon="11.500454078955721"><ele>457.0</ele><time>2026-04-28T08:58:38Z</time></trkpt><trkpt lat="43.79655320095398" lon="11.500563655202397"><ele>458.33333333333337</ele><time>2026-04-28T08:58:39Z</time></trkpt><trkpt lat="43.796591863643805" lon="11.500674175646049"><ele>459.6666666666667</ele><time>2026-04-28T08:58:40Z</time></trkpt><trkpt lat="43.79660914501671" lon="11.500779141613851"><ele>461.0</ele><time>2026-04-28T08:58:41Z</time></trkpt><trkpt lat="43.7966110255566" lon="11.50089692440203"><ele>462.33333333333337</ele><time>2026-04-28T08:58:42Z</time></trkpt><trkpt lat="43.796613265510594" lon="11.501020874637865"><ele>463.6666666666667</ele><time>2026-04-28T08:58:43Z</time></trkpt><trkpt lat="43.79659014164349" lon="11.501125394568355"><ele>465.0</ele><time>2026-04-28T08:58:44Z</time></trkpt><trkpt lat="43.79654782786885" lon="11.501234735479837"><ele>465.0</ele><time>2026-04-28T08:58:45Z</time></trkpt><trkpt lat="43.79649059302109" lon="11.501306352757029"><ele>465.0</ele><time>2026-04-28T08:58:47Z</time></trkpt><trkpt lat="43.79640266990186" lon="11.50137485100258"><ele>465.0</ele><time>2026-04-28T08:59:01Z</time></trkpt><trkpt lat="43.79629692777703" lon="11.501496556602623"><ele>465.0</ele><time>2026-04-28T08:59:03Z</time></trkpt><trkpt lat="43.796229871515564" lon="11.50155721852015"><ele>465.0</ele><time>2026-04-28T08:59:04Z</time></trkpt><trkpt lat="43.796139471818464" lon="11.50165211339729"><ele>465.0</ele><time>2026-04-28T08:59:06Z</time></trkpt><trkpt lat="43.79606686823988" lon="11.501736056785987"><ele>465.0</ele><time>2026-04-28T08:59:08Z</time></trkpt><trkpt lat="43.79600678538234" lon="11.501891960347596"><ele>465.0</ele><time>2026-04-28T08:59:10Z</time></trkpt><trkpt lat="43.79597815638154" lon="11.501980237541183"><ele>465.0</ele><time>2026-04-28T08:59:11Z</time></trkpt><trkpt lat="43.79593330236305" lon="11.5021142442998"><ele>465.0</ele><time>2026-04-28T08:59:13Z</time></trkpt><trkpt lat="43.79590675707149" lon="11.502216260413048"><ele>465.6</ele><time>2026-04-28T08:59:14Z</time></trkpt><trkpt lat="43.79586088862963" lon="11.502366725723128"><ele>466.2</ele><time>2026-04-28T08:59:15Z</time></trkpt><trkpt lat="43.79580781295215" lon="11.502527582888908"><ele>466.79999999999995</ele><time>2026-04-28T08:59:16Z</time></trkpt><trkpt lat="43.79576285050552" lon="11.502667279858255"><ele>467.4</ele><time>2026-04-28T08:59:17Z</time></trkpt><trkpt lat="43.795726055812366" lon="11.502783249187717"><ele>468.0</ele><time>2026-04-28T08:59:18Z</time></trkpt><trkpt lat="43.79568884089074" lon="11.50290285181421"><ele>468.6666666666667</ele><time>2026-04-28T08:59:19Z</time></trkpt><trkpt lat="43.79565549516634" lon="11.503013583302739"><ele>469.33333333333337</ele><time>2026-04-28T08:59:20Z</time></trkpt><trkpt lat="43.795618385480736" lon="11.503121143944965"><ele>470.0</ele><time>2026-04-28T08:59:21Z</time></trkpt><trkpt lat="43.79558616829933" lon="11.503226016011864"><ele>470.6666666666667</ele><time>2026-04-28T08:59:22Z</time></trkpt><trkpt lat="43.79554182790748" lon="11.50330901331051"><ele>471.33333333333337</ele><time>2026-04-28T08:59:23Z</time></trkpt><trkpt lat="43.79551602083156" lon="11.503396965839531"><ele>472.0</ele><time>2026-04-28T08:59:24Z</time></trkpt><trkpt lat="43.795506414037035" lon="11.503494268505198"><ele>472.0</ele><time>2026-04-28T08:59:25Z</time></trkpt><trkpt lat="43.79548184932669" lon="11.503653654975288"><ele>472.00000000000006</ele><time>2026-04-28T08:59:27Z</time></trkpt><trkpt lat="43.795468592942065" lon="11.503805400218964"><ele>472.00000000000006</ele><time>2026-04-28T08:59:29Z</time></trkpt><trkpt lat="43.79545676481483" lon="11.50393689115727"><ele>472.0</ele><time>2026-04-28T08:59:31Z</time></trkpt><trkpt lat="43.7955047124529" lon="11.504010409720456"><ele>472.0</ele><time>2026-04-28T08:59:32Z</time></trkpt><trkpt lat="43.79553522677308" lon="11.504136728849865"><ele>472.6</ele><time>2026-04-28T08:59:34Z</time></trkpt><trkpt lat="43.79551893112075" lon="11.504230790509533"><ele>473.20000000000005</ele><time>2026-04-28T08:59:55Z</time></trkpt><trkpt lat="43.79551897524204" lon="11.504389306087406"><ele>473.8</ele><time>2026-04-28T09:00:16Z</time></trkpt><trkpt lat="43.79543878976669" lon="11.50447250918982"><ele>474.4</ele><time>2026-04-28T09:00:17Z</time></trkpt><trkpt lat="43.7954098955736" lon="11.504620633001487"><ele>475.0</ele><time>2026-04-28T09:00:18Z</time></trkpt><trkpt lat="43.79537345104499" lon="11.504758934783226"><ele>475.0</ele><time>2026-04-28T09:00:19Z</time></trkpt><trkpt lat="43.79533254140248" lon="11.50492685607106"><ele>475.0</ele><time>2026-04-28T09:00:20Z</time></trkpt><trkpt lat="43.795369542598635" lon="11.504818334978355"><ele>475.0</ele><time>2026-04-28T09:00:21Z</time></trkpt><trkpt lat="43.79534555019704" lon="11.504923686132699"><ele>475.0</ele><time>2026-04-28T09:00:22Z</time></trkpt><trkpt lat="43.795310324164795" lon="11.505021828247656"><ele>475.0</ele><time>2026-04-28T09:00:23Z</time></trkpt><trkpt lat="43.79530536868179" lon="11.505128794187218"><ele>475.0</ele><time>2026-04-28T09:00:24Z</time></trkpt><trkpt lat="43.79527359679038" lon="11.505290453111321"><ele>475.0</ele><time>2026-04-28T09:00:25Z</time></trkpt><trkpt lat="43.795235205126254" lon="11.505467309764098"><ele>475.0</ele><time>2026-04-28T09:00:26Z</time></trkpt><trkpt lat="43.795196841158614" lon="11.505658332083307"><ele>475.0</ele><time>2026-04-28T09:00:27Z</time></trkpt><trkpt lat="43.79515641111042" lon="11.505833903078512"><ele>477.5</ele><time>2026-04-28T09:00:28Z</time></trkpt><trkpt lat="43.79511714201282" lon="11.506001472057783"><ele>480.0</ele><time>2026-04-28T09:00:29Z</time></trkpt><trkpt lat="43.79508250802013" lon="11.506154512153882"><ele>482.5</ele><time>2026-04-28T09:00:30Z</time></trkpt><trkpt lat="43.79505092999593" lon="11.506293999435776"><ele>485.0</ele><time>2026-04-28T09:00:31Z</time></trkpt><trkpt lat="43.795019383131915" lon="11.506438140582791"><ele>486.49999999999994</ele><time>2026-04-28T09:00:32Z</time></trkpt><trkpt lat="43.79499670138569" lon="11.506551656272311"><ele>488.0</ele><time>2026-04-28T09:00:33Z</time></trkpt><trkpt lat="43.794975327545174" lon="11.506673611705539"><ele>489.5</ele><time>2026-04-28T09:00:34Z</time></trkpt><trkpt lat="43.79495749699345" lon="11.506782093055229"><ele>491.0</ele><time>2026-04-28T09:00:36Z</time></trkpt><trkpt lat="43.79493248504856" lon="11.506862220888435"><ele>492.49999999999994</ele><time>2026-04-28T09:00:38Z</time></trkpt><trkpt lat="43.794904676390416" lon="11.50694433148666"><ele>494.0</ele><time>2026-04-28T09:00:40Z</time></trkpt><trkpt lat="43.79489108174795" lon="11.507051362265718"><ele>495.6</ele><time>2026-04-28T09:00:42Z</time></trkpt><trkpt lat="43.794825047889645" lon="11.507180783231407"><ele>497.2</ele><time>2026-04-28T09:00:44Z</time></trkpt><trkpt lat="43.79484288069212" lon="11.507275965331267"><ele>498.80000000000007</ele><time>2026-04-28T09:00:45Z</time></trkpt><trkpt lat="43.794844949861" lon="11.507364494333046"><ele>500.40000000000003</ele><time>2026-04-28T09:00:46Z</time></trkpt><trkpt lat="43.794864808907626" lon="11.50752431611249"><ele>502.0</ele><time>2026-04-28T09:00:48Z</time></trkpt><trkpt lat="43.79483766382134" lon="11.507712642597332"><ele>502.00000000000006</ele><time>2026-04-28T09:00:50Z</time></trkpt><trkpt lat="43.79482814548707" lon="11.507817621780726"><ele>502.0</ele><time>2026-04-28T09:00:51Z</time></trkpt><trkpt lat="43.794819330433135" lon="11.507905656564121"><ele>502.0</ele><time>2026-04-28T09:00:52Z</time></trkpt><trkpt lat="43.79481543582576" lon="11.508041590043378"><ele>502.0</ele><time>2026-04-28T09:00:54Z</time></trkpt><trkpt lat="43.79480358532068" lon="11.508150121495673"><ele>502.00000000000006</ele><time>2026-04-28T09:00:56Z</time></trkpt><trkpt lat="43.794871367709" lon="11.50823728237291"><ele>502.0</ele><time>2026-04-28T09:00:58Z</time></trkpt><trkpt lat="43.794900476673185" lon="11.508345870570306"><ele>504.1666666666667</ele><time>2026-04-28T09:01:00Z</time></trkpt><trkpt lat="43.79492703708998" lon="11.508484555033059"><ele>506.33333333333337</ele><time>2026-04-28T09:01:02Z</time></trkpt><trkpt lat="43.79497977613765" lon="11.508600712085673"><ele>508.5</ele><time>2026-04-28T09:01:04Z</time></trkpt><trkpt lat="43.79500588789211" lon="11.508692570876661"><ele>510.66666666666663</ele><time>2026-04-28T09:01:08Z</time></trkpt><trkpt lat="43.79499081269965" lon="11.508807534564474"><ele>512.8333333333333</ele><time>2026-04-28T09:01:16Z</time></trkpt><trkpt lat="43.794995657625755" lon="11.50893360691564"><ele>515.0</ele><time>2026-04-28T09:01:18Z</time></trkpt><trkpt lat="43.79499999510558" lon="11.509051110189258"><ele>517.3333333333333</ele><time>2026-04-28T09:01:21Z</time></trkpt><trkpt lat="43.79500390659418" lon="11.509160934691417"><ele>519.6666666666666</ele><time>2026-04-28T09:01:24Z</time></trkpt><trkpt lat="43.7949712327267" lon="11.509252334648485"><ele>522.0</ele><time>2026-04-28T09:01:29Z</time></trkpt><trkpt lat="43.79491549117295" lon="11.509301286919225"><ele>524.3333333333334</ele><time>2026-04-28T09:01:37Z</time></trkpt><trkpt lat="43.79487062229861" lon="11.509370059600707"><ele>526.6666666666667</ele><time>2026-04-28T09:01:47Z</time></trkpt><trkpt lat="43.79482841496238" lon="11.509449025347372"><ele>529.0</ele><time>2026-04-28T09:01:49Z</time></trkpt><trkpt lat="43.7949285904513" lon="11.509345154107844"><ele>529.0</ele><time>2026-04-28T09:01:59Z</time></trkpt><trkpt lat="43.79485478253253" lon="11.509352893101566"><ele>529.0</ele><time>2026-04-28T09:02:21Z</time></trkpt><trkpt lat="43.794841862687115" lon="11.509447580266215"><ele>529.0</ele><time>2026-04-28T09:05:32Z</time></trkpt><trkpt lat="43.794811644052814" lon="11.509533545643109"><ele>529.0</ele><time>2026-04-28T09:06:52.001Z</time></trkpt><trkpt lat="43.79483369618733" lon="11.509637240027851"><ele>529.0</ele><time>2026-04-28T09:06:55.001Z</time></trkpt><trkpt lat="43.79479988804689" lon="11.50972937371798"><ele>529.0</ele><time>2026-04-28T09:06:57.001Z</time></trkpt><trkpt lat="43.79479787628914" lon="11.509878519820994"><ele>530.0</ele><time>2026-04-28T09:06:59.001Z</time></trkpt><trkpt lat="43.794804957005304" lon="11.510054984295792"><ele>531.0</ele><time>2026-04-28T09:07:01Z</time></trkpt><trkpt lat="43.79478714213374" lon="11.510209996594421"><ele>532.0</ele><time>2026-04-28T09:07:03Z</time></trkpt><trkpt lat="43.79477542769731" lon="11.510332636638498"><ele>533.0</ele><time>2026-04-28T09:07:05Z</time></trkpt><trkpt lat="43.79474289512083" lon="11.510438674759564"><ele>534.0</ele><time>2026-04-28T09:07:07Z</time></trkpt><trkpt lat="43.794687778795016" lon="11.510559906519546"><ele>534.8</ele><time>2026-04-28T09:07:09Z</time></trkpt><trkpt lat="43.79467143343987" lon="11.510663985376194"><ele>535.5999999999999</ele><time>2026-04-28T09:07:13Z</time></trkpt><trkpt lat="43.7946568891976" lon="11.510772662427748"><ele>536.4</ele><time>2026-04-28T09:07:16Z</time></trkpt><trkpt lat="43.79464526578945" lon="11.510939791044553"><ele>537.1999999999999</ele><time>2026-04-28T09:07:18Z</time></trkpt><trkpt lat="43.79461701875957" lon="11.511069944363863"><ele>538.0</ele><time>2026-04-28T09:07:20Z</time></trkpt><trkpt lat="43.79458572989497" lon="11.511171159680602"><ele>538.6666666666667</ele><time>2026-04-28T09:07:24Z</time></trkpt><trkpt lat="43.794548604931045" lon="11.511261396342942"><ele>539.3333333333334</ele><time>2026-04-28T09:07:25Z</time></trkpt><trkpt lat="43.79447512701471" lon="11.511360875641119"><ele>540.0</ele><time>2026-04-28T09:07:29Z</time></trkpt><trkpt lat="43.79444800321386" lon="11.511440824776114"><ele>540.6666666666666</ele><time>2026-04-28T09:07:33Z</time></trkpt><trkpt lat="43.794382669209014" lon="11.511496015530875"><ele>541.3333333333333</ele><time>2026-04-28T09:07:42Z</time></trkpt><trkpt lat="43.79431800507782" lon="11.511596663979892"><ele>542.0</ele><time>2026-04-28T09:07:45Z</time></trkpt><trkpt lat="43.794276599766356" lon="11.511692606968317"><ele>544.0</ele><time>2026-04-28T09:07:47Z</time></trkpt><trkpt lat="43.79426637420752" lon="11.5117978093874"><ele>546.0</ele><time>2026-04-28T09:07:49Z</time></trkpt><trkpt lat="43.79423241269826" lon="11.511896661326032"><ele>548.0</ele><time>2026-04-28T09:07:53Z</time></trkpt><trkpt lat="43.7941789749538" lon="11.511988827030237"><ele>550.0</ele><time>2026-04-28T09:07:55Z</time></trkpt><trkpt lat="43.79413518226715" lon="11.51207459667648"><ele>552.0</ele><time>2026-04-28T09:07:58Z</time></trkpt><trkpt lat="43.79408881560789" lon="11.512163853098214"><ele>554.0</ele><time>2026-04-28T09:08:01Z</time></trkpt><trkpt lat="43.794052944358214" lon="11.512241375871461"><ele>555.5</ele><time>2026-04-28T09:08:05Z</time></trkpt><trkpt lat="43.794011152595395" lon="11.512315084085344"><ele>557.0</ele><time>2026-04-28T09:08:15Z</time></trkpt><trkpt lat="43.79394444101433" lon="11.512388287772046"><ele>558.5</ele><time>2026-04-28T09:08:23Z</time></trkpt><trkpt lat="43.79387622657753" lon="11.512406463998037"><ele>560.0</ele><time>2026-04-28T09:09:19Z</time></trkpt><trkpt lat="43.79379929634802" lon="11.512410966584653"><ele>561.5</ele><time>2026-04-28T09:09:22Z</time></trkpt><trkpt lat="43.793728113891824" lon="11.512429615179048"><ele>563.0</ele><time>2026-04-28T09:09:25Z</time></trkpt><trkpt lat="43.79363662133453" lon="11.51242863649729"><ele>563.0</ele><time>2026-04-28T09:09:28Z</time></trkpt><trkpt lat="43.793549616669665" lon="11.512448133565325"><ele>563.0</ele><time>2026-04-28T09:09:30Z</time></trkpt><trkpt lat="43.79345766738467" lon="11.512504370095543"><ele>563.0</ele><time>2026-04-28T09:09:32Z</time></trkpt><trkpt lat="43.79338593230419" lon="11.51256609326003"><ele>563.0</ele><time>2026-04-28T09:09:34Z</time></trkpt><trkpt lat="43.793310522621255" lon="11.512603967630817"><ele>563.0</ele><time>2026-04-28T09:09:38Z</time></trkpt><trkpt lat="43.79324480345026" lon="11.512644986128489"><ele>563.0</ele><time>2026-04-28T09:09:41Z</time></trkpt><trkpt lat="43.79327201684457" lon="11.5127285942557"><ele>563.0</ele><time>2026-04-28T09:09:51Z</time></trkpt><trkpt lat="43.7933681695777" lon="11.51269041024029"><ele>563.0</ele><time>2026-04-28T09:09:53Z</time></trkpt><trkpt lat="43.79343086368563" lon="11.512681451023308"><ele>563.0</ele><time>2026-04-28T09:09:54Z</time></trkpt><trkpt lat="43.7935073045543" lon="11.512716873129987"><ele>563.0</ele><time>2026-04-28T09:09:56Z</time></trkpt><trkpt lat="43.79353579086377" lon="11.512857195741304"><ele>563.0</ele><time>2026-04-28T09:09:58Z</time></trkpt><trkpt lat="43.79348037910443" lon="11.512968485753127"><ele>563.0</ele><time>2026-04-28T09:10:01Z</time></trkpt><trkpt lat="43.793458180470445" lon="11.513118051862783"><ele>565.8333333333333</ele><time>2026-04-28T09:10:03Z</time></trkpt><trkpt lat="43.793421563286216" lon="11.513221570762038"><ele>568.6666666666666</ele><time>2026-04-28T09:10:05Z</time></trkpt><trkpt lat="43.79340272337923" lon="11.513339900288756"><ele>571.5</ele><time>2026-04-28T09:10:07Z</time></trkpt><trkpt lat="43.7934004689561" lon="11.513466234577844"><ele>574.3333333333334</ele><time>2026-04-28T09:10:09Z</time></trkpt><trkpt lat="43.79337219874704" lon="11.513599362549082"><ele>577.1666666666667</ele><time>2026-04-28T09:10:11Z</time></trkpt><trkpt lat="43.7933646543222" lon="11.51371857921656"><ele>580.0</ele><time>2026-04-28T09:10:16.999Z</time></trkpt><trkpt lat="43.7933415104601" lon="11.513851779300104"><ele>579.6</ele><time>2026-04-28T09:10:18.999Z</time></trkpt><trkpt lat="43.79338047359739" lon="11.513973803516912"><ele>579.2</ele><time>2026-04-28T09:10:20.999Z</time></trkpt><trkpt lat="43.79343633955989" lon="11.514075649346152"><ele>578.8</ele><time>2026-04-28T09:10:22.999Z</time></trkpt><trkpt lat="43.79345722737158" lon="11.514216725316965"><ele>578.4</ele><time>2026-04-28T09:10:24.999Z</time></trkpt><trkpt lat="43.793476263354634" lon="11.514336924937375"><ele>578.0</ele><time>2026-04-28T09:10:26.999Z</time></trkpt><trkpt lat="43.79352319476706" lon="11.514438581971328"><ele>582.6666666666666</ele><time>2026-04-28T09:10:28.999Z</time></trkpt><trkpt lat="43.7934643440235" lon="11.514616937730889"><ele>587.3333333333333</ele><time>2026-04-28T09:10:30.999Z</time></trkpt><trkpt lat="43.79343664143774" lon="11.514702872981129"><ele>592.0</ele><time>2026-04-28T09:10:31.999Z</time></trkpt><trkpt lat="43.79339778047461" lon="11.514797565532811"><ele>596.6666666666666</ele><time>2026-04-28T09:10:33.999Z</time></trkpt><trkpt lat="43.79335539918224" lon="11.514885438417647"><ele>601.3333333333334</ele><time>2026-04-28T09:10:35.999Z</time></trkpt><trkpt lat="43.79334940707011" lon="11.514976532852371"><ele>606.0</ele><time>2026-04-28T09:10:36.999Z</time></trkpt><trkpt lat="43.79332063720855" lon="11.5150752542776"><ele>606.0</ele><time>2026-04-28T09:10:39.999Z</time></trkpt><trkpt lat="43.79330092968265" lon="11.515174339092404"><ele>606.0</ele><time>2026-04-28T09:10:42Z</time></trkpt><trkpt lat="43.79333357283749" lon="11.515297035866839"><ele>606.0</ele><time>2026-04-28T09:10:44Z</time></trkpt><trkpt lat="43.79337726977041" lon="11.515409593415429"><ele>606.0</ele><time>2026-04-28T09:10:46Z</time></trkpt><trkpt lat="43.79345654939736" lon="11.515487626494117"><ele>606.0</ele><time>2026-04-28T09:10:48Z</time></trkpt><trkpt lat="43.793539614215426" lon="11.515535234212988"><ele>606.0</ele><time>2026-04-28T09:10:50Z</time></trkpt><trkpt lat="43.79361306451934" lon="11.515553579121288"><ele>605.6</ele><time>2026-04-28T09:10:52Z</time></trkpt><trkpt lat="43.79368441449022" lon="11.515559000788011"><ele>605.2</ele><time>2026-04-28T09:10:54Z</time></trkpt><trkpt lat="43.793746459618056" lon="11.515607141140595"><ele>604.8</ele><time>2026-04-28T09:10:57Z</time></trkpt><trkpt lat="43.79384508304992" lon="11.515717786741465"><ele>604.4</ele><time>2026-04-28T09:10:59Z</time></trkpt><trkpt lat="43.79386914858429" lon="11.515799904331358"><ele>604.0</ele><time>2026-04-28T09:11:00Z</time></trkpt><trkpt lat="43.79390513127655" lon="11.515960087261712"><ele>604.0</ele><time>2026-04-28T09:11:02Z</time></trkpt><trkpt lat="43.79396918742084" lon="11.516071674822292"><ele>604.0</ele><time>2026-04-28T09:11:04Z</time></trkpt><trkpt lat="43.794048524404126" lon="11.51620626452309"><ele>604.0</ele><time>2026-04-28T09:11:06Z</time></trkpt><trkpt lat="43.79410221351452" lon="11.516331793429245"><ele>604.0</ele><time>2026-04-28T09:11:08Z</time></trkpt><trkpt lat="43.79414991960339" lon="11.516433310272863"><ele>604.0</ele><time>2026-04-28T09:11:09Z</time></trkpt><trkpt lat="43.79415835178805" lon="11.516569532819556"><ele>607.0</ele><time>2026-04-28T09:11:11Z</time></trkpt><trkpt lat="43.79418472451228" lon="11.516676577969948"><ele>610.0</ele><time>2026-04-28T09:11:12Z</time></trkpt><trkpt lat="43.79427424875323" lon="11.516765271304225"><ele>613.0</ele><time>2026-04-28T09:11:14Z</time></trkpt><trkpt lat="43.794306725104384" lon="11.51686036332939"><ele>616.0</ele><time>2026-04-28T09:11:16Z</time></trkpt><trkpt lat="43.794290798603356" lon="11.517005242980824"><ele>619.0</ele><time>2026-04-28T09:11:18Z</time></trkpt><trkpt lat="43.7942832020866" lon="11.517136897685656"><ele>620.8333333333334</ele><time>2026-04-28T09:11:20Z</time></trkpt><trkpt lat="43.79432911092549" lon="11.51721898253101"><ele>622.6666666666667</ele><time>2026-04-28T09:11:22Z</time></trkpt><trkpt lat="43.79438987271775" lon="11.517289945010065"><ele>624.5</ele><time>2026-04-28T09:11:33Z</time></trkpt><trkpt lat="43.79434345999669" lon="11.51737371248005"><ele>626.3333333333334</ele><time>2026-04-28T09:12:51Z</time></trkpt><trkpt lat="43.79441432396501" lon="11.517419859356611"><ele>628.1666666666666</ele><time>2026-04-28T09:21:44.999Z</time></trkpt><trkpt lat="43.79444908345991" lon="11.51754244245063"><ele>630.0</ele><time>2026-04-28T09:21:47.999Z</time></trkpt><trkpt lat="43.79445087590607" lon="11.517675053161165"><ele>627.5</ele><time>2026-04-28T09:21:49.999Z</time></trkpt><trkpt lat="43.7944479579234" lon="11.51779520929518"><ele>625.0</ele><time>2026-04-28T09:21:51.999Z</time></trkpt><trkpt lat="43.794508543053155" lon="11.517905171380017"><ele>622.5</ele><time>2026-04-28T09:21:54Z</time></trkpt><trkpt lat="43.794586955646494" lon="11.517942528176883"><ele>620.0</ele><time>2026-04-28T09:21:55Z</time></trkpt><trkpt lat="43.79467104041029" lon="11.517978847420824"><ele>617.5</ele><time>2026-04-28T09:21:56Z</time></trkpt><trkpt lat="43.79473097275409" lon="11.518043082621698"><ele>615.0</ele><time>2026-04-28T09:21:57Z</time></trkpt><trkpt lat="43.79476573417193" lon="11.518129982287899"><ele>615.0</ele><time>2026-04-28T09:21:58Z</time></trkpt><trkpt lat="43.79479733919913" lon="11.51820776849187"><ele>615.0</ele><time>2026-04-28T09:21:59Z</time></trkpt><trkpt lat="43.794798247049116" lon="11.518295214608447"><ele>615.0</ele><time>2026-04-28T09:22:00Z</time></trkpt><trkpt lat="43.79481390022264" lon="11.518396753760813"><ele>615.0</ele><time>2026-04-28T09:22:01Z</time></trkpt><trkpt lat="43.79486164990313" lon="11.518464518605482"><ele>615.0</ele><time>2026-04-28T09:22:03Z</time></trkpt><trkpt lat="43.794916382961475" lon="11.51854968007903"><ele>615.0</ele><time>2026-04-28T09:22:05Z</time></trkpt><trkpt lat="43.79495484590984" lon="11.518630649535016"><ele>615.0</ele><time>2026-04-28T09:22:06Z</time></trkpt><trkpt lat="43.79502252414468" lon="11.518775765755358"><ele>614.8571428571428</ele><time>2026-04-28T09:22:08Z</time></trkpt><trkpt lat="43.79505473766207" lon="11.518858670159556"><ele>614.7142857142858</ele><time>2026-04-28T09:22:11Z</time></trkpt><trkpt lat="43.795101152943104" lon="11.518933012745878"><ele>614.5714285714286</ele><time>2026-04-28T09:22:16Z</time></trkpt><trkpt lat="43.79514826848095" lon="11.519019509779776"><ele>614.4285714285713</ele><time>2026-04-28T09:22:21Z</time></trkpt><trkpt lat="43.79520550363164" lon="11.519082110206085"><ele>614.2857142857142</ele><time>2026-04-28T09:22:25Z</time></trkpt><trkpt lat="43.79524765401447" lon="11.519147296855353"><ele>614.1428571428571</ele><time>2026-04-28T09:22:29Z</time></trkpt><trkpt lat="43.79527232588684" lon="11.519242069241887"><ele>614.0</ele><time>2026-04-28T09:22:33Z</time></trkpt><trkpt lat="43.795299815674205" lon="11.519334858661328"><ele>614.0</ele><time>2026-04-28T09:22:36Z</time></trkpt><trkpt lat="43.79533641217105" lon="11.519426046149723"><ele>614.0</ele><time>2026-04-28T09:22:39Z</time></trkpt><trkpt lat="43.7954040634916" lon="11.519481260499772"><ele>614.0</ele><time>2026-04-28T09:22:42Z</time></trkpt><trkpt lat="43.795530209940694" lon="11.519463884915142"><ele>614.0</ele><time>2026-04-28T09:22:45Z</time></trkpt><trkpt lat="43.79563425856081" lon="11.519481983662233"><ele>614.0</ele><time>2026-04-28T09:22:47Z</time></trkpt><trkpt lat="43.795699493556185" lon="11.519598942163865"><ele>616.5</ele><time>2026-04-28T09:22:49Z</time></trkpt><trkpt lat="43.79576807393679" lon="11.519705852386613"><ele>619.0</ele><time>2026-04-28T09:22:51Z</time></trkpt><trkpt lat="43.7958238206832" lon="11.5197487600759"><ele>621.5</ele><time>2026-04-28T09:22:53Z</time></trkpt><trkpt lat="43.79587653066288" lon="11.519810070897666"><ele>624.0</ele><time>2026-04-28T09:22:55Z</time></trkpt><trkpt lat="43.795951019518164" lon="11.519845913399022"><ele>626.5</ele><time>2026-04-28T09:22:58Z</time></trkpt><trkpt lat="43.79607501904088" lon="11.519840421919955"><ele>629.0</ele><time>2026-04-28T09:23:00Z</time></trkpt><trkpt lat="43.796138436430574" lon="11.519810800665622"><ele>629.0</ele><time>2026-04-28T09:23:01Z</time></trkpt><trkpt lat="43.79623132704423" lon="11.519804306885861"><ele>629.0</ele><time>2026-04-28T09:23:03Z</time></trkpt><trkpt lat="43.796334131013495" lon="11.519790628316814"><ele>629.0</ele><time>2026-04-28T09:23:05Z</time></trkpt><trkpt lat="43.796435111976216" lon="11.519809329023758"><ele>629.0</ele><time>2026-04-28T09:23:07Z</time></trkpt><trkpt lat="43.796523563639326" lon="11.51983952157999"><ele>629.0</ele><time>2026-04-28T09:23:09Z</time></trkpt><trkpt lat="43.79667928625729" lon="11.519942113303621"><ele>629.0</ele><time>2026-04-28T09:23:11Z</time></trkpt><trkpt lat="43.79679819617341" lon="11.520013392969727"><ele>629.0</ele><time>2026-04-28T09:23:13Z</time></trkpt><trkpt lat="43.796830406893015" lon="11.520099495757238"><ele>629.0</ele><time>2026-04-28T09:23:14Z</time></trkpt><trkpt lat="43.79690375438772" lon="11.520160970782156"><ele>629.0</ele><time>2026-04-28T09:23:15Z</time></trkpt><trkpt lat="43.79696654961386" lon="11.520204152044364"><ele>629.0</ele><time>2026-04-28T09:23:16Z</time></trkpt><trkpt lat="43.797028497295365" lon="11.520249252955061"><ele>629.0</ele><time>2026-04-28T09:23:17Z</time></trkpt><trkpt lat="43.79712451983002" lon="11.520289813958259"><ele>630.0</ele><time>2026-04-28T09:23:19.001Z</time></trkpt><trkpt lat="43.79717380033876" lon="11.52043572436308"><ele>631.0</ele><time>2026-04-28T09:23:21.001Z</time></trkpt><trkpt lat="43.7972819298849" lon="11.520585384340912"><ele>632.0</ele><time>2026-04-28T09:23:23.001Z</time></trkpt><trkpt lat="43.797305974680214" lon="11.520677668736424"><ele>633.0</ele><time>2026-04-28T09:23:24.001Z</time></trkpt><trkpt lat="43.79732091619086" lon="11.52086402786387"><ele>633.0</ele><time>2026-04-28T09:23:26.001Z</time></trkpt><trkpt lat="43.797325213635865" lon="11.520969597557567"><ele>633.0</ele><time>2026-04-28T09:23:27.001Z</time></trkpt><trkpt lat="43.79735533075097" lon="11.521118742560363"><ele>633.0</ele><time>2026-04-28T09:23:28.001Z</time></trkpt><trkpt lat="43.79737068269864" lon="11.521226226416895"><ele>633.0</ele><time>2026-04-28T09:23:30.001Z</time></trkpt><trkpt lat="43.79742960538262" lon="11.521317872333194"><ele>633.0</ele><time>2026-04-28T09:23:32.001Z</time></trkpt><trkpt lat="43.79750006815201" lon="11.521386620981621"><ele>633.0</ele><time>2026-04-28T09:23:33.001Z</time></trkpt><trkpt lat="43.79755472969837" lon="11.521460501650257"><ele>634.5999999999999</ele><time>2026-04-28T09:23:34.001Z</time></trkpt><trkpt lat="43.7976214916027" lon="11.521560258509139"><ele>636.1999999999999</ele><time>2026-04-28T09:23:36.001Z</time></trkpt><trkpt lat="43.79768969312881" lon="11.521607116003793"><ele>637.8</ele><time>2026-04-28T09:23:38.001Z</time></trkpt><trkpt lat="43.797798583432034" lon="11.521601649505723"><ele>639.4</ele><time>2026-04-28T09:23:40.001Z</time></trkpt><trkpt lat="43.79786789944165" lon="11.521548959951364"><ele>641.0</ele><time>2026-04-28T09:23:41.001Z</time></trkpt><trkpt lat="43.79797729327416" lon="11.521499566328313"><ele>641.0</ele><time>2026-04-28T09:23:42.001Z</time></trkpt><trkpt lat="43.79807472510758" lon="11.521490447134735"><ele>641.0</ele><time>2026-04-28T09:23:43.001Z</time></trkpt><trkpt lat="43.79817066169897" lon="11.521461805263971"><ele>641.0</ele><time>2026-04-28T09:23:45.001Z</time></trkpt><trkpt lat="43.79829732655812" lon="11.52149473458384"><ele>641.0</ele><time>2026-04-28T09:23:47.001Z</time></trkpt><trkpt lat="43.79837888757287" lon="11.52154151255687"><ele>641.0</ele><time>2026-04-28T09:23:48.001Z</time></trkpt><trkpt lat="43.798452970588954" lon="11.521615711878487"><ele>639.0</ele><time>2026-04-28T09:23:49.001Z</time></trkpt><trkpt lat="43.79850803202511" lon="11.521689404305745"><ele>637.0</ele><time>2026-04-28T09:23:50.001Z</time></trkpt><trkpt lat="43.79856033099125" lon="11.521740019587243"><ele>635.0</ele><time>2026-04-28T09:23:51.001Z</time></trkpt><trkpt lat="43.79862289673394" lon="11.52180750536352"><ele>633.0</ele><time>2026-04-28T09:23:53.001Z</time></trkpt><trkpt lat="43.798673900445046" lon="11.521874617194548"><ele>631.0</ele><time>2026-04-28T09:24:07.001Z</time></trkpt><trkpt lat="43.79877962930015" lon="11.521949796845538"><ele>629.0</ele><time>2026-04-28T09:24:09.001Z</time></trkpt><trkpt lat="43.79885269069247" lon="11.522007511690981"><ele>629.6666666666666</ele><time>2026-04-28T09:24:11.001Z</time></trkpt><trkpt lat="43.7989002912226" lon="11.522150577588997"><ele>630.3333333333333</ele><time>2026-04-28T09:24:13.001Z</time></trkpt><trkpt lat="43.798920180464265" lon="11.52225141105092"><ele>631.0</ele><time>2026-04-28T09:24:14.001Z</time></trkpt><trkpt lat="43.79893317028614" lon="11.522349754578062"><ele>631.6666666666666</ele><time>2026-04-28T09:24:15.001Z</time></trkpt><trkpt lat="43.79895262567855" lon="11.52244574107441"><ele>632.3333333333334</ele><time>2026-04-28T09:24:16.001Z</time></trkpt><trkpt lat="43.79898133776068" lon="11.522529560436556"><ele>633.0</ele><time>2026-04-28T09:24:17.001Z</time></trkpt><trkpt lat="43.79900985828237" lon="11.522619462022504"><ele>633.0</ele><time>2026-04-28T09:24:18.001Z</time></trkpt><trkpt lat="43.79903971588546" lon="11.522706997919078"><ele>633.0</ele><time>2026-04-28T09:24:19.001Z</time></trkpt><trkpt lat="43.79907769230121" lon="11.522828021993357"><ele>633.0</ele><time>2026-04-28T09:24:21.001Z</time></trkpt><trkpt lat="43.799098617173314" lon="11.522939500235646"><ele>633.0</ele><time>2026-04-28T09:24:23.001Z</time></trkpt><trkpt lat="43.799117198197465" lon="11.523081688941495"><ele>633.0</ele><time>2026-04-28T09:24:25.001Z</time></trkpt><trkpt lat="43.799135709854006" lon="11.523180512962004"><ele>633.0</ele><time>2026-04-28T09:24:26.001Z</time></trkpt><trkpt lat="43.79920852334161" lon="11.523316842436707"><ele>633.8</ele><time>2026-04-28T09:24:28.001Z</time></trkpt><trkpt lat="43.799273736058886" lon="11.523436583151096"><ele>634.5999999999999</ele><time>2026-04-28T09:24:30.001Z</time></trkpt><trkpt lat="43.79933563908863" lon="11.52358294904635"><ele>635.4000000000001</ele><time>2026-04-28T09:24:32.001Z</time></trkpt><trkpt lat="43.7994047363876" lon="11.523708835560202"><ele>636.2</ele><time>2026-04-28T09:24:34.001Z</time></trkpt><trkpt lat="43.79943973331111" lon="11.523785563050838"><ele>637.0</ele><time>2026-04-28T09:24:35.001Z</time></trkpt><trkpt lat="43.799489591866056" lon="11.523888367180714"><ele>635.2</ele><time>2026-04-28T09:24:37.001Z</time></trkpt><trkpt lat="43.79953152131475" lon="11.52400279536791"><ele>633.4000000000001</ele><time>2026-04-28T09:24:39.001Z</time></trkpt><trkpt lat="43.79958855969611" lon="11.524106824833064"><ele>631.5999999999999</ele><time>2026-04-28T09:24:41.001Z</time></trkpt><trkpt lat="43.799653846358524" lon="11.524137485610197"><ele>629.8</ele><time>2026-04-28T09:24:43.001Z</time></trkpt><trkpt lat="43.79975881073824" lon="11.52402925179244"><ele>628.0</ele><time>2026-04-28T09:24:45.001Z</time></trkpt><trkpt lat="43.79981564424501" lon="11.523977148618323"><ele>628.0</ele><time>2026-04-28T09:24:46.001Z</time></trkpt><trkpt lat="43.799901654049705" lon="11.523938233948131"><ele>628.0</ele><time>2026-04-28T09:24:48.001Z</time></trkpt><trkpt lat="43.799983067608935" lon="11.523991597340693"><ele>628.0</ele><time>2026-04-28T09:24:51.001Z</time></trkpt><trkpt lat="43.799992871185616" lon="11.524119760014683"><ele>628.0</ele><time>2026-04-28T09:24:54.001Z</time></trkpt><trkpt lat="43.79998849925285" lon="11.524222354009968"><ele>628.0</ele><time>2026-04-28T09:24:56.001Z</time></trkpt><trkpt lat="43.80006386211629" lon="11.524313525175494"><ele>628.0</ele><time>2026-04-28T09:24:58.001Z</time></trkpt><trkpt lat="43.80013578399054" lon="11.524364461956406"><ele>626.3333333333334</ele><time>2026-04-28T09:25:00.001Z</time></trkpt><trkpt lat="43.80020014000529" lon="11.52440678629608"><ele>624.6666666666667</ele><time>2026-04-28T09:25:02.001Z</time></trkpt><trkpt lat="43.80022271331061" lon="11.524541070839712"><ele>623.0</ele><time>2026-04-28T09:25:04.001Z</time></trkpt><trkpt lat="43.80024430534933" lon="11.5246407006783"><ele>621.3333333333334</ele><time>2026-04-28T09:25:05.001Z</time></trkpt><trkpt lat="43.800251712008915" lon="11.524759407203023"><ele>619.6666666666666</ele><time>2026-04-28T09:25:06.001Z</time></trkpt><trkpt lat="43.800252143463425" lon="11.524865478513043"><ele>618.0</ele><time>2026-04-28T09:25:07.001Z</time></trkpt><trkpt lat="43.80023435429748" lon="11.524972125140037"><ele>618.0</ele><time>2026-04-28T09:25:08.001Z</time></trkpt><trkpt lat="43.80022211485074" lon="11.525069890790533"><ele>618.0</ele><time>2026-04-28T09:25:09.001Z</time></trkpt><trkpt lat="43.80021631477247" lon="11.525168581422362"><ele>618.0</ele><time>2026-04-28T09:25:10.001Z</time></trkpt><trkpt lat="43.80021163533418" lon="11.525261927978372"><ele>618.0</ele><time>2026-04-28T09:25:11.001Z</time></trkpt><trkpt lat="43.80019232479657" lon="11.525361754459196"><ele>618.0</ele><time>2026-04-28T09:25:12.001Z</time></trkpt><trkpt lat="43.80019760480496" lon="11.525457821223561"><ele>618.0</ele><time>2026-04-28T09:25:13.001Z</time></trkpt><trkpt lat="43.800251652680636" lon="11.525588911295042"><ele>618.3333333333334</ele><time>2026-04-28T09:25:15.001Z</time></trkpt><trkpt lat="43.80027363403624" lon="11.525684775409077"><ele>618.6666666666666</ele><time>2026-04-28T09:25:16.001Z</time></trkpt><trkpt lat="43.80030397293619" lon="11.525787231960116"><ele>619.0</ele><time>2026-04-28T09:25:17.001Z</time></trkpt><trkpt lat="43.80033307057344" lon="11.52589571051832"><ele>619.3333333333333</ele><time>2026-04-28T09:25:18.001Z</time></trkpt><trkpt lat="43.80035575923125" lon="11.5260138556469"><ele>619.6666666666666</ele><time>2026-04-28T09:25:19.001Z</time></trkpt><trkpt lat="43.80036718085987" lon="11.526112296064952"><ele>620.0</ele><time>2026-04-28T09:25:20.001Z</time></trkpt><trkpt lat="43.800387889781994" lon="11.526209964998914"><ele>620.1666666666666</ele><time>2026-04-28T09:25:21.001Z</time></trkpt><trkpt lat="43.80038772641577" lon="11.526310330979252"><ele>620.3333333333333</ele><time>2026-04-28T09:25:22.001Z</time></trkpt><trkpt lat="43.80037556282137" lon="11.52645672722403"><ele>620.5</ele><time>2026-04-28T09:25:24.002Z</time></trkpt><trkpt lat="43.80036239898031" lon="11.526584163501607"><ele>620.6666666666666</ele><time>2026-04-28T09:25:26.002Z</time></trkpt><trkpt lat="43.80032841459242" lon="11.526661902648017"><ele>620.8333333333334</ele><time>2026-04-28T09:25:28.002Z</time></trkpt><trkpt lat="43.80023900477313" lon="11.52674629120496"><ele>621.0</ele><time>2026-04-28T09:25:41.001Z</time></trkpt><trkpt lat="43.80016104142204" lon="11.526775481213377"><ele>624.2</ele><time>2026-04-28T09:25:42.001Z</time></trkpt><trkpt lat="43.800067298876805" lon="11.526815552747468"><ele>627.4000000000001</ele><time>2026-04-28T09:25:43.001Z</time></trkpt><trkpt lat="43.79995725014491" lon="11.52687530337485"><ele>630.6</ele><time>2026-04-28T09:25:44.001Z</time></trkpt><trkpt lat="43.799853551540664" lon="11.52692962265688"><ele>633.8000000000001</ele><time>2026-04-28T09:25:45.001Z</time></trkpt><trkpt lat="43.799767056972065" lon="11.526968785257736"><ele>637.0</ele><time>2026-04-28T09:25:46.001Z</time></trkpt><trkpt lat="43.79968962789133" lon="11.52701175378665"><ele>637.0</ele><time>2026-04-28T09:25:47.001Z</time></trkpt><trkpt lat="43.799611798764566" lon="11.527031209064706"><ele>637.0</ele><time>2026-04-28T09:25:48.001Z</time></trkpt><trkpt lat="43.799522269784646" lon="11.52705407923951"><ele>637.0</ele><time>2026-04-28T09:25:49.001Z</time></trkpt><trkpt lat="43.79944799189497" lon="11.527083784258322"><ele>637.0</ele><time>2026-04-28T09:25:50.001Z</time></trkpt><trkpt lat="43.799371179899865" lon="11.527135333036547"><ele>637.0</ele><time>2026-04-28T09:25:51.001Z</time></trkpt><trkpt lat="43.79930216923375" lon="11.527218606822364"><ele>637.0</ele><time>2026-04-28T09:25:52.001Z</time></trkpt><trkpt lat="43.79923429502198" lon="11.527344835447192"><ele>636.4</ele><time>2026-04-28T09:25:53.001Z</time></trkpt><trkpt lat="43.79917918299172" lon="11.52746932053325"><ele>635.8000000000001</ele><time>2026-04-28T09:25:54.001Z</time></trkpt><trkpt lat="43.79911764476276" lon="11.527562739150088"><ele>635.2</ele><time>2026-04-28T09:25:55.001Z</time></trkpt><trkpt lat="43.79902514182702" lon="11.527644316966134"><ele>634.6</ele><time>2026-04-28T09:25:56.001Z</time></trkpt><trkpt lat="43.79893075752346" lon="11.527733794466458"><ele>634.0</ele><time>2026-04-28T09:25:57.001Z</time></trkpt><trkpt lat="43.79886171517053" lon="11.527863970425262"><ele>633.0</ele><time>2026-04-28T09:25:58.001Z</time></trkpt><trkpt lat="43.79880800201638" lon="11.528006125920104"><ele>632.0</ele><time>2026-04-28T09:25:59.001Z</time></trkpt><trkpt lat="43.79877693131802" lon="11.528128366430613"><ele>631.0</ele><time>2026-04-28T09:26:00.001Z</time></trkpt><trkpt lat="43.79875556610134" lon="11.528237909370343"><ele>630.0</ele><time>2026-04-28T09:26:01.001Z</time></trkpt><trkpt lat="43.79872810988123" lon="11.528347727655342"><ele>629.0</ele><time>2026-04-28T09:26:02.001Z</time></trkpt><trkpt lat="43.79869251450691" lon="11.528485775026287"><ele>629.0</ele><time>2026-04-28T09:26:03.001Z</time></trkpt><trkpt lat="43.79868082773463" lon="11.52861505617523"><ele>629.0</ele><time>2026-04-28T09:26:04.001Z</time></trkpt><trkpt lat="43.7986921218841" lon="11.528741435086069"><ele>629.0</ele><time>2026-04-28T09:26:05.001Z</time></trkpt><trkpt lat="43.79873121258735" lon="11.528889137936174"><ele>629.0</ele><time>2026-04-28T09:26:06.001Z</time></trkpt><trkpt lat="43.79877871524509" lon="11.529050488646101"><ele>629.0</ele><time>2026-04-28T09:26:07.001Z</time></trkpt><trkpt lat="43.79882172555505" lon="11.529189445847239"><ele>629.0</ele><time>2026-04-28T09:26:08.001Z</time></trkpt><trkpt lat="43.798864415010115" lon="11.529317359395572"><ele>629.0</ele><time>2026-04-28T09:26:09.001Z</time></trkpt><trkpt lat="43.79890166322091" lon="11.529432007178464"><ele>629.0</ele><time>2026-04-28T09:26:10.001Z</time></trkpt><trkpt lat="43.798942102023254" lon="11.529554941779692"><ele>629.0</ele><time>2026-04-28T09:26:11.001Z</time></trkpt><trkpt lat="43.79897163989762" lon="11.529669035761895"><ele>629.0</ele><time>2026-04-28T09:26:12.001Z</time></trkpt><trkpt lat="43.798970621861734" lon="11.52980144995665"><ele>630.0</ele><time>2026-04-28T09:26:13.001Z</time></trkpt><trkpt lat="43.798960550231094" lon="11.529939379459522"><ele>631.0</ele><time>2026-04-28T09:26:14.001Z</time></trkpt><trkpt lat="43.79895675536403" lon="11.530060968100816"><ele>632.0</ele><time>2026-04-28T09:26:15.001Z</time></trkpt><trkpt lat="43.79898265922654" lon="11.53014573495898"><ele>633.0</ele><time>2026-04-28T09:26:16.001Z</time></trkpt><trkpt lat="43.79902080693575" lon="11.530215562402253"><ele>634.0</ele><time>2026-04-28T09:26:17.001Z</time></trkpt><trkpt lat="43.799047601843455" lon="11.53033508099825"><ele>635.0</ele><time>2026-04-28T09:26:19.001Z</time></trkpt><trkpt lat="43.79900976299566" lon="11.53049583158348"><ele>636.6</ele><time>2026-04-28T09:26:22.001Z</time></trkpt><trkpt lat="43.7989951824796" lon="11.53060640296206"><ele>638.2</ele><time>2026-04-28T09:26:23.001Z</time></trkpt><trkpt lat="43.798986171007925" lon="11.530753507371006"><ele>639.8</ele><time>2026-04-28T09:26:24.001Z</time></trkpt><trkpt lat="43.79897047820825" lon="11.530912592452182"><ele>641.4</ele><time>2026-04-28T09:26:25.001Z</time></trkpt><trkpt lat="43.798955546274684" lon="11.531058521534892"><ele>643.0</ele><time>2026-04-28T09:26:26.001Z</time></trkpt><trkpt lat="43.79893294848572" lon="11.531199516003184"><ele>642.8333333333334</ele><time>2026-04-28T09:26:27.001Z</time></trkpt><trkpt lat="43.79890717908755" lon="11.531342329892118"><ele>642.6666666666667</ele><time>2026-04-28T09:26:28.001Z</time></trkpt><trkpt lat="43.79888895315428" lon="11.53146309638221"><ele>642.5</ele><time>2026-04-28T09:26:29.001Z</time></trkpt><trkpt lat="43.79887265248191" lon="11.531580162256706"><ele>642.3333333333334</ele><time>2026-04-28T09:26:30.001Z</time></trkpt><trkpt lat="43.7988317864851" lon="11.531677235150928"><ele>642.1666666666666</ele><time>2026-04-28T09:26:31.001Z</time></trkpt><trkpt lat="43.79879175949631" lon="11.53177149268595"><ele>642.0</ele><time>2026-04-28T09:26:32.001Z</time></trkpt><trkpt lat="43.79874134679965" lon="11.531860399499031"><ele>642.0</ele><time>2026-04-28T09:26:33Z</time></trkpt><trkpt lat="43.798690173534105" lon="11.531929426120644"><ele>642.0</ele><time>2026-04-28T09:26:34Z</time></trkpt><trkpt lat="43.798641441382934" lon="11.531986477732188"><ele>642.0</ele><time>2026-04-28T09:26:35Z</time></trkpt><trkpt lat="43.79857141714726" lon="11.532022345013257"><ele>642.0</ele><time>2026-04-28T09:26:36Z</time></trkpt><trkpt lat="43.798474036324876" lon="11.532040666536439"><ele>642.0</ele><time>2026-04-28T09:26:37Z</time></trkpt><trkpt lat="43.798362951270114" lon="11.532081435083636"><ele>642.0</ele><time>2026-04-28T09:26:38Z</time></trkpt><trkpt lat="43.798275257955595" lon="11.532128995012147"><ele>643.6666666666666</ele><time>2026-04-28T09:26:39Z</time></trkpt><trkpt lat="43.798202116138185" lon="11.532170893582013"><ele>645.3333333333334</ele><time>2026-04-28T09:26:40Z</time></trkpt><trkpt lat="43.79811640138743" lon="11.532192296914396"><ele>647.0</ele><time>2026-04-28T09:26:41Z</time></trkpt><trkpt lat="43.79802415569975" lon="11.532209124595102"><ele>648.6666666666667</ele><time>2026-04-28T09:26:42Z</time></trkpt><trkpt lat="43.79793638430699" lon="11.532239755100742"><ele>650.3333333333334</ele><time>2026-04-28T09:26:43Z</time></trkpt><trkpt lat="43.79785177890331" lon="11.532282752374234"><ele>652.0</ele><time>2026-04-28T09:26:44Z</time></trkpt><trkpt lat="43.79777780090836" lon="11.532329456143378"><ele>652.0</ele><time>2026-04-28T09:26:45Z</time></trkpt><trkpt lat="43.79771130966845" lon="11.532400795512206"><ele>652.0</ele><time>2026-04-28T09:26:46Z</time></trkpt><trkpt lat="43.79765432839909" lon="11.532491431424491"><ele>652.0</ele><time>2026-04-28T09:26:47Z</time></trkpt><trkpt lat="43.79758110080976" lon="11.532590101975881"><ele>652.0</ele><time>2026-04-28T09:26:48Z</time></trkpt><trkpt lat="43.79750334226391" lon="11.532671450735817"><ele>652.0</ele><time>2026-04-28T09:26:49Z</time></trkpt><trkpt lat="43.797412755833534" lon="11.532750702655278"><ele>654.6666666666667</ele><time>2026-04-28T09:26:50Z</time></trkpt><trkpt lat="43.797331428192145" lon="11.532825722018554"><ele>657.3333333333334</ele><time>2026-04-28T09:26:51Z</time></trkpt><trkpt lat="43.79725218902092" lon="11.532874205645102"><ele>660.0</ele><time>2026-04-28T09:26:52Z</time></trkpt><trkpt lat="43.79719139577373" lon="11.532903922371405"><ele>662.6666666666666</ele><time>2026-04-28T09:26:53Z</time></trkpt><trkpt lat="43.79712002109574" lon="11.532955758168388"><ele>665.3333333333333</ele><time>2026-04-28T09:26:54Z</time></trkpt><trkpt lat="43.79704542445856" lon="11.533048807986983"><ele>668.0</ele><time>2026-04-28T09:26:55Z</time></trkpt><trkpt lat="43.79696939974737" lon="11.533158758071648"><ele>668.0</ele><time>2026-04-28T09:26:56Z</time></trkpt><trkpt lat="43.79689702301979" lon="11.533263117705063"><ele>668.0</ele><time>2026-04-28T09:26:57Z</time></trkpt><trkpt lat="43.79684852004118" lon="11.533346930616524"><ele>668.0</ele><time>2026-04-28T09:26:58Z</time></trkpt><trkpt lat="43.79678990559651" lon="11.53343494869299"><ele>668.0</ele><time>2026-04-28T09:26:59Z</time></trkpt><trkpt lat="43.79672491151455" lon="11.533507341346876"><ele>668.0</ele><time>2026-04-28T09:27:00Z</time></trkpt><trkpt lat="43.79668038521371" lon="11.533586967353404"><ele>668.0</ele><time>2026-04-28T09:27:01Z</time></trkpt><trkpt lat="43.796651512592724" lon="11.533693522938202"><ele>673.5999999999999</ele><time>2026-04-28T09:27:02Z</time></trkpt><trkpt lat="43.79664881730175" lon="11.53381859754724"><ele>679.1999999999999</ele><time>2026-04-28T09:27:03Z</time></trkpt><trkpt lat="43.7966297958658" lon="11.533944166815095"><ele>684.8</ele><time>2026-04-28T09:27:04Z</time></trkpt><trkpt lat="43.79659899424805" lon="11.534069904394787"><ele>690.4</ele><time>2026-04-28T09:27:05Z</time></trkpt><trkpt lat="43.79657630224029" lon="11.534185266347974"><ele>696.0</ele><time>2026-04-28T09:27:06Z</time></trkpt><trkpt lat="43.796557956303545" lon="11.534305250228202"><ele>696.0</ele><time>2026-04-28T09:27:07Z</time></trkpt><trkpt lat="43.796548181794265" lon="11.534405635550062"><ele>696.0</ele><time>2026-04-28T09:27:08Z</time></trkpt><trkpt lat="43.79654001362776" lon="11.53453072550743"><ele>696.0</ele><time>2026-04-28T09:27:09Z</time></trkpt><trkpt lat="43.79652135917196" lon="11.53468422115787"><ele>696.0</ele><time>2026-04-28T09:27:10Z</time></trkpt><trkpt lat="43.79649028579366" lon="11.534813905800961"><ele>696.0</ele><time>2026-04-28T09:27:11Z</time></trkpt><trkpt lat="43.79644742482495" lon="11.534935522121756"><ele>696.1999999999999</ele><time>2026-04-28T09:27:12Z</time></trkpt><trkpt lat="43.796400833915996" lon="11.535051174892487"><ele>696.4</ele><time>2026-04-28T09:27:13Z</time></trkpt><trkpt lat="43.79634580970148" lon="11.535171255863375"><ele>696.6</ele><time>2026-04-28T09:27:14Z</time></trkpt><trkpt lat="43.79630135334664" lon="11.53528607810248"><ele>696.8</ele><time>2026-04-28T09:27:15Z</time></trkpt><trkpt lat="43.79625071409495" lon="11.535403535351165"><ele>697.0</ele><time>2026-04-28T09:27:16Z</time></trkpt><trkpt lat="43.79621431599187" lon="11.53552511103435"><ele>697.0</ele><time>2026-04-28T09:27:17Z</time></trkpt><trkpt lat="43.79618230028681" lon="11.53564861044254"><ele>697.0</ele><time>2026-04-28T09:27:18Z</time></trkpt><trkpt lat="43.79616866847961" lon="11.535770269212184"><ele>697.0</ele><time>2026-04-28T09:27:19Z</time></trkpt><trkpt lat="43.79616154516374" lon="11.535892984281322"><ele>697.0</ele><time>2026-04-28T09:27:20Z</time></trkpt><trkpt lat="43.796158425821865" lon="11.535997739249453"><ele>697.0</ele><time>2026-04-28T09:27:21Z</time></trkpt><trkpt lat="43.79614114632012" lon="11.536155666063534"><ele>696.8333333333334</ele><time>2026-04-28T09:27:23Z</time></trkpt><trkpt lat="43.7961067828279" lon="11.536255133376239"><ele>696.6666666666667</ele><time>2026-04-28T09:27:25Z</time></trkpt><trkpt lat="43.79604810238732" lon="11.536333523087926"><ele>696.5</ele><time>2026-04-28T09:27:45.001Z</time></trkpt><trkpt lat="43.79601439551508" lon="11.536417301124324"><ele>696.3333333333334</ele><time>2026-04-28T09:27:46.001Z</time></trkpt><trkpt lat="43.796000651007034" lon="11.53651431576087"><ele>696.1666666666666</ele><time>2026-04-28T09:27:47.001Z</time></trkpt><trkpt lat="43.79599378726198" lon="11.536686274357287"><ele>696.0</ele><time>2026-04-28T09:27:49.001Z</time></trkpt><trkpt lat="43.79598722688805" lon="11.536852155427924"><ele>696.0</ele><time>2026-04-28T09:27:51.001Z</time></trkpt><trkpt lat="43.79597465995938" lon="11.5369765150035"><ele>696.0</ele><time>2026-04-28T09:27:53.001Z</time></trkpt><trkpt lat="43.79599466105092" lon="11.536870933426645"><ele>696.0</ele><time>2026-04-28T09:30:36.999Z</time></trkpt><trkpt lat="43.795993889723334" lon="11.536697287457002"><ele>696.0</ele><time>2026-04-28T09:30:38.999Z</time></trkpt><trkpt lat="43.79599552004828" lon="11.536582537809435"><ele>696.0</ele><time>2026-04-28T09:30:39.999Z</time></trkpt><trkpt lat="43.79600677796373" lon="11.536478727375073"><ele>696.0</ele><time>2026-04-28T09:30:40.999Z</time></trkpt><trkpt lat="43.796015616077746" lon="11.536375306704837"><ele>696.0</ele><time>2026-04-28T09:30:41.999Z</time></trkpt><trkpt lat="43.79601249259898" lon="11.536281765364047"><ele>696.0</ele><time>2026-04-28T09:30:42.999Z</time></trkpt><trkpt lat="43.79599168454098" lon="11.536194319941014"><ele>696.0</ele><time>2026-04-28T09:30:43.999Z</time></trkpt><trkpt lat="43.79594458442932" lon="11.536112457127757"><ele>696.0</ele><time>2026-04-28T09:30:44.999Z</time></trkpt><trkpt lat="43.795881760655" lon="11.536052203168957"><ele>696.0</ele><time>2026-04-28T09:30:45.999Z</time></trkpt><trkpt lat="43.795807972650586" lon="11.536022557118805"><ele>696.0</ele><time>2026-04-28T09:30:46.999Z</time></trkpt><trkpt lat="43.795733318495564" lon="11.53603515315345"><ele>700.1666666666666</ele><time>2026-04-28T09:30:47.999Z</time></trkpt><trkpt lat="43.7956697123561" lon="11.536082857061551"><ele>704.3333333333334</ele><time>2026-04-28T09:30:48.999Z</time></trkpt><trkpt lat="43.795622873167765" lon="11.536169728848517"><ele>708.5</ele><time>2026-04-28T09:30:49.999Z</time></trkpt><trkpt lat="43.79559014474128" lon="11.536285051810715"><ele>712.6666666666667</ele><time>2026-04-28T09:30:50.999Z</time></trkpt><trkpt lat="43.79557900514813" lon="11.53641142187529"><ele>716.8333333333334</ele><time>2026-04-28T09:30:51.999Z</time></trkpt><trkpt lat="43.79557980802812" lon="11.536546989299579"><ele>721.0</ele><time>2026-04-28T09:30:52.999Z</time></trkpt><trkpt lat="43.795576028103724" lon="11.536682517649105"><ele>721.0</ele><time>2026-04-28T09:30:53.999Z</time></trkpt><trkpt lat="43.795564342641505" lon="11.536821308794977"><ele>721.0</ele><time>2026-04-28T09:30:54.999Z</time></trkpt><trkpt lat="43.79555494080666" lon="11.536972597172678"><ele>721.0</ele><time>2026-04-28T09:30:55.999Z</time></trkpt><trkpt lat="43.79554268555765" lon="11.5371339232662"><ele>721.0</ele><time>2026-04-28T09:30:56.999Z</time></trkpt><trkpt lat="43.79553381273973" lon="11.537294526785779"><ele>721.0</ele><time>2026-04-28T09:30:57.999Z</time></trkpt><trkpt lat="43.795519076780224" lon="11.5374532422018"><ele>720.8</ele><time>2026-04-28T09:30:58.999Z</time></trkpt><trkpt lat="43.7955076433891" lon="11.537610537875576"><ele>720.5999999999999</ele><time>2026-04-28T09:30:59.999Z</time></trkpt><trkpt lat="43.79549807734043" lon="11.53776249816464"><ele>720.4</ele><time>2026-04-28T09:31:00.999Z</time></trkpt><trkpt lat="43.79548923996582" lon="11.537908507174732"><ele>720.2</ele><time>2026-04-28T09:31:01.999Z</time></trkpt><trkpt lat="43.79548521577129" lon="11.538055222356657"><ele>720.0</ele><time>2026-04-28T09:31:02.999Z</time></trkpt><trkpt lat="43.79549155300127" lon="11.538197782578008"><ele>719.6</ele><time>2026-04-28T09:31:03.999Z</time></trkpt><trkpt lat="43.79550446026926" lon="11.53834145455562"><ele>719.2</ele><time>2026-04-28T09:31:04.999Z</time></trkpt><trkpt lat="43.795520973175904" lon="11.538477031508465"><ele>718.8</ele><time>2026-04-28T09:31:05.999Z</time></trkpt><trkpt lat="43.7955402221977" lon="11.538610719990457"><ele>718.4</ele><time>2026-04-28T09:31:06.999Z</time></trkpt><trkpt lat="43.795559039292215" lon="11.538737984221516"><ele>718.0</ele><time>2026-04-28T09:31:07.999Z</time></trkpt><trkpt lat="43.79558183280715" lon="11.538861598747294"><ele>719.5999999999999</ele><time>2026-04-28T09:31:08.999Z</time></trkpt><trkpt lat="43.7956048601313" lon="11.538988417810618"><ele>721.1999999999999</ele><time>2026-04-28T09:31:09.999Z</time></trkpt><trkpt lat="43.795631306753876" lon="11.53911271958842"><ele>722.8</ele><time>2026-04-28T09:31:10.999Z</time></trkpt><trkpt lat="43.79565593037288" lon="11.539234800566545"><ele>724.4</ele><time>2026-04-28T09:31:11.999Z</time></trkpt><trkpt lat="43.795677607274754" lon="11.539354646273154"><ele>726.0</ele><time>2026-04-28T09:31:12.999Z</time></trkpt><trkpt lat="43.79569217614032" lon="11.539468236382513"><ele>727.3333333333334</ele><time>2026-04-28T09:31:13.999Z</time></trkpt><trkpt lat="43.79567716544877" lon="11.539582986009867"><ele>728.6666666666666</ele><time>2026-04-28T09:31:14.999Z</time></trkpt><trkpt lat="43.795630501863826" lon="11.539685078491585"><ele>730.0</ele><time>2026-04-28T09:31:15.999Z</time></trkpt><trkpt lat="43.79556229790407" lon="11.53974967395337"><ele>731.3333333333333</ele><time>2026-04-28T09:31:16.999Z</time></trkpt><trkpt lat="43.795499217545" lon="11.539769831819646"><ele>732.6666666666666</ele><time>2026-04-28T09:31:17.999Z</time></trkpt><trkpt lat="43.795410017225116" lon="11.539766465401257"><ele>734.0</ele><time>2026-04-28T09:31:19.999Z</time></trkpt><trkpt lat="43.795344227228576" lon="11.539743919188304"><ele>734.0</ele><time>2026-04-28T09:31:38.999Z</time></trkpt><trkpt lat="43.79530727705818" lon="11.539905824176818"><ele>734.0</ele><time>2026-04-28T09:31:40.999Z</time></trkpt><trkpt lat="43.795320565710554" lon="11.540029543867938"><ele>734.0</ele><time>2026-04-28T09:31:41.999Z</time></trkpt><trkpt lat="43.79532193473647" lon="11.540161654814103"><ele>734.0</ele><time>2026-04-28T09:31:42.999Z</time></trkpt><trkpt lat="43.79531033218428" lon="11.540291662261662"><ele>734.0</ele><time>2026-04-28T09:31:43.999Z</time></trkpt><trkpt lat="43.795292021446365" lon="11.540424231564327"><ele>735.2</ele><time>2026-04-28T09:31:44.999Z</time></trkpt><trkpt lat="43.79527534594834" lon="11.540575591584645"><ele>736.4000000000001</ele><time>2026-04-28T09:31:45.999Z</time></trkpt><trkpt lat="43.795261574025375" lon="11.540722390000749"><ele>737.6</ele><time>2026-04-28T09:31:46.999Z</time></trkpt><trkpt lat="43.795247560536026" lon="11.54088195418519"><ele>738.8</ele><time>2026-04-28T09:31:47.999Z</time></trkpt><trkpt lat="43.79523594268927" lon="11.541034462370018"><ele>740.0</ele><time>2026-04-28T09:31:48.999Z</time></trkpt><trkpt lat="43.79523210222404" lon="11.541186902451543"><ele>741.5</ele><time>2026-04-28T09:31:49.999Z</time></trkpt><trkpt lat="43.79523967258112" lon="11.541345883592495"><ele>743.0</ele><time>2026-04-28T09:31:50.999Z</time></trkpt><trkpt lat="43.79526195587325" lon="11.541507472635095"><ele>744.5</ele><time>2026-04-28T09:31:51.999Z</time></trkpt><trkpt lat="43.79528519369726" lon="11.54166865189956"><ele>746.0</ele><time>2026-04-28T09:31:52.999Z</time></trkpt><trkpt lat="43.79531107386018" lon="11.541831707095081"><ele>746.0</ele><time>2026-04-28T09:31:53.999Z</time></trkpt><trkpt lat="43.79533169954989" lon="11.541992376937126"><ele>746.0</ele><time>2026-04-28T09:31:54.999Z</time></trkpt><trkpt lat="43.795349337269066" lon="11.542147116828096"><ele>746.0</ele><time>2026-04-28T09:31:55.999Z</time></trkpt><trkpt lat="43.79536356560756" lon="11.542307092786995"><ele>746.0</ele><time>2026-04-28T09:31:56.999Z</time></trkpt><trkpt lat="43.795377738127485" lon="11.542472194258844"><ele>746.5</ele><time>2026-04-28T09:31:57.999Z</time></trkpt><trkpt lat="43.795372614718964" lon="11.542635086635409"><ele>747.0</ele><time>2026-04-28T09:31:58.999Z</time></trkpt><trkpt lat="43.79534884060002" lon="11.542795830643959"><ele>747.5</ele><time>2026-04-28T09:31:59.999Z</time></trkpt><trkpt lat="43.79531775937684" lon="11.542945867800348"><ele>748.0</ele><time>2026-04-28T09:32:00.999Z</time></trkpt><trkpt lat="43.79528987896977" lon="11.543103985096801"><ele>747.0</ele><time>2026-04-28T09:32:01.999Z</time></trkpt><trkpt lat="43.79526503646495" lon="11.543257258303122"><ele>746.0</ele><time>2026-04-28T09:32:02.999Z</time></trkpt><trkpt lat="43.79523839692949" lon="11.54340610291521"><ele>745.0</ele><time>2026-04-28T09:32:03.999Z</time></trkpt><trkpt lat="43.79521156726755" lon="11.54355727595671"><ele>744.0</ele><time>2026-04-28T09:32:04.999Z</time></trkpt><trkpt lat="43.79518939122997" lon="11.543686425750582"><ele>743.0</ele><time>2026-04-28T09:32:05.999Z</time></trkpt><trkpt lat="43.79517058918755" lon="11.543806485039779"><ele>748.8</ele><time>2026-04-28T09:32:06.999Z</time></trkpt><trkpt lat="43.79515031392561" lon="11.543941137938702"><ele>754.5999999999999</ele><time>2026-04-28T09:32:07.999Z</time></trkpt><trkpt lat="43.79512619783359" lon="11.544081459175722"><ele>760.4000000000001</ele><time>2026-04-28T09:32:08.999Z</time></trkpt><trkpt lat="43.79509948110546" lon="11.544227383648272"><ele>766.2</ele><time>2026-04-28T09:32:09.999Z</time></trkpt><trkpt lat="43.795077536104365" lon="11.544379273828406"><ele>772.0</ele><time>2026-04-28T09:32:10.999Z</time></trkpt><trkpt lat="43.795061814590404" lon="11.544503985420581"><ele>771.6666666666666</ele><time>2026-04-28T09:32:11.999Z</time></trkpt><trkpt lat="43.79505032840751" lon="11.544617244752821"><ele>771.3333333333333</ele><time>2026-04-28T09:32:12.999Z</time></trkpt><trkpt lat="43.79503278512643" lon="11.544725430371956"><ele>771.0</ele><time>2026-04-28T09:32:13.999Z</time></trkpt><trkpt lat="43.79501091854559" lon="11.544828354426135"><ele>770.6666666666667</ele><time>2026-04-28T09:32:14.999Z</time></trkpt><trkpt lat="43.79497966425169" lon="11.54493248860932"><ele>770.3333333333334</ele><time>2026-04-28T09:32:15.999Z</time></trkpt><trkpt lat="43.79494330709407" lon="11.54503018189661"><ele>770.0</ele><time>2026-04-28T09:32:16.999Z</time></trkpt><trkpt lat="43.79491561257911" lon="11.545150597610595"><ele>770.0</ele><time>2026-04-28T09:32:17.999Z</time></trkpt><trkpt lat="43.794874076078635" lon="11.545263738884538"><ele>770.0</ele><time>2026-04-28T09:32:18.999Z</time></trkpt><trkpt lat="43.79483110586574" lon="11.545382777366882"><ele>770.0</ele><time>2026-04-28T09:32:19.999Z</time></trkpt><trkpt lat="43.79480012662093" lon="11.545502639667086"><ele>770.0</ele><time>2026-04-28T09:32:20.999Z</time></trkpt><trkpt lat="43.79476515384295" lon="11.545632952799279"><ele>770.0</ele><time>2026-04-28T09:32:21.999Z</time></trkpt><trkpt lat="43.79473549825726" lon="11.545760150106698"><ele>769.6</ele><time>2026-04-28T09:32:22.999Z</time></trkpt><trkpt lat="43.79470459942142" lon="11.545896809414424"><ele>769.2</ele><time>2026-04-28T09:32:23.999Z</time></trkpt><trkpt lat="43.794677985516024" lon="11.546036618602256"><ele>768.8</ele><time>2026-04-28T09:32:24.999Z</time></trkpt><trkpt lat="43.79466481324059" lon="11.54618374693405"><ele>768.4</ele><time>2026-04-28T09:32:25.999Z</time></trkpt><trkpt lat="43.794663205875274" lon="11.546319635852281"><ele>768.0</ele><time>2026-04-28T09:32:26.999Z</time></trkpt><trkpt lat="43.794661511116246" lon="11.546462344363292"><ele>768.0</ele><time>2026-04-28T09:32:27.999Z</time></trkpt><trkpt lat="43.79466913060708" lon="11.546612137819434"><ele>768.0</ele><time>2026-04-28T09:32:28.999Z</time></trkpt><trkpt lat="43.79468421728271" lon="11.546753545527775"><ele>768.0</ele><time>2026-04-28T09:32:29.999Z</time></trkpt><trkpt lat="43.79469064280433" lon="11.54689994572565"><ele>768.0</ele><time>2026-04-28T09:32:30.999Z</time></trkpt><trkpt lat="43.79468267195678" lon="11.547032702914182"><ele>768.0</ele><time>2026-04-28T09:32:31.999Z</time></trkpt><trkpt lat="43.7946361243739" lon="11.547165561244622"><ele>767.4</ele><time>2026-04-28T09:32:32.999Z</time></trkpt><trkpt lat="43.79456637515853" lon="11.547260433699718"><ele>766.8</ele><time>2026-04-28T09:32:33.999Z</time></trkpt><trkpt lat="43.7944697006034" lon="11.54732996930404"><ele>766.2</ele><time>2026-04-28T09:32:34.999Z</time></trkpt><trkpt lat="43.794360339218485" lon="11.54736766153983"><ele>765.6</ele><time>2026-04-28T09:32:35.999Z</time></trkpt><trkpt lat="43.79424594008587" lon="11.547369242334023"><ele>765.0</ele><time>2026-04-28T09:32:36.999Z</time></trkpt><trkpt lat="43.794126428302036" lon="11.547366991920113"><ele>768.75</ele><time>2026-04-28T09:32:37.999Z</time></trkpt><trkpt lat="43.79402269680413" lon="11.54736546003355"><ele>772.5</ele><time>2026-04-28T09:32:38.999Z</time></trkpt><trkpt lat="43.79391209226365" lon="11.547362174655294"><ele>776.25</ele><time>2026-04-28T09:32:39.999Z</time></trkpt><trkpt lat="43.79378521622909" lon="11.547371765846243"><ele>780.0</ele><time>2026-04-28T09:32:40.999Z</time></trkpt><trkpt lat="43.793668623014135" lon="11.547377469103086"><ele>780.0</ele><time>2026-04-28T09:32:41.999Z</time></trkpt><trkpt lat="43.793554447707244" lon="11.547394995865009"><ele>780.0</ele><time>2026-04-28T09:32:42.999Z</time></trkpt><trkpt lat="43.79344576136335" lon="11.547438965733262"><ele>780.0</ele><time>2026-04-28T09:32:43.999Z</time></trkpt><trkpt lat="43.793347083235986" lon="11.547487506868382"><ele>780.0</ele><time>2026-04-28T09:32:44.999Z</time></trkpt><trkpt lat="43.793249861229405" lon="11.547563538459844"><ele>780.0</ele><time>2026-04-28T09:32:45.999Z</time></trkpt><trkpt lat="43.79316832798252" lon="11.547659035153822"><ele>779.25</ele><time>2026-04-28T09:32:46.999Z</time></trkpt><trkpt lat="43.79310133429193" lon="11.547779479238157"><ele>778.5</ele><time>2026-04-28T09:32:47.999Z</time></trkpt><trkpt lat="43.793051841987335" lon="11.547917967027585"><ele>777.75</ele><time>2026-04-28T09:32:48.999Z</time></trkpt><trkpt lat="43.79302280154803" lon="11.548068335077511"><ele>777.0</ele><time>2026-04-28T09:32:49.999Z</time></trkpt><trkpt lat="43.792998722238416" lon="11.548233411943075"><ele>777.0</ele><time>2026-04-28T09:32:50.999Z</time></trkpt><trkpt lat="43.79300309908381" lon="11.548396380652633"><ele>777.0</ele><time>2026-04-28T09:32:51.999Z</time></trkpt><trkpt lat="43.79298821356817" lon="11.548560397346964"><ele>777.0</ele><time>2026-04-28T09:32:52.999Z</time></trkpt><trkpt lat="43.79297264723296" lon="11.548719288600568"><ele>777.0</ele><time>2026-04-28T09:32:53.999Z</time></trkpt><trkpt lat="43.79296564485885" lon="11.548873067898302"><ele>777.0</ele><time>2026-04-28T09:32:54.999Z</time></trkpt><trkpt lat="43.79296281631748" lon="11.549029071707"><ele>777.0</ele><time>2026-04-28T09:32:55.999Z</time></trkpt><trkpt lat="43.792960868617385" lon="11.549182779420978"><ele>777.0</ele><time>2026-04-28T09:32:56.999Z</time></trkpt><trkpt lat="43.79295639194644" lon="11.549336697060614"><ele>777.0</ele><time>2026-04-28T09:32:57.999Z</time></trkpt><trkpt lat="43.792945834555475" lon="11.549487725024257"><ele>777.0</ele><time>2026-04-28T09:32:58.999Z</time></trkpt><trkpt lat="43.79293883589819" lon="11.549638198559533"><ele>777.6</ele><time>2026-04-28T09:32:59.999Z</time></trkpt><trkpt lat="43.79292678533452" lon="11.549791389371205"><ele>778.2</ele><time>2026-04-28T09:33:00.999Z</time></trkpt><trkpt lat="43.79291935633767" lon="11.54994536835899"><ele>778.8</ele><time>2026-04-28T09:33:01.999Z</time></trkpt><trkpt lat="43.792915365057155" lon="11.550088201383591"><ele>779.4</ele><time>2026-04-28T09:33:02.999Z</time></trkpt><trkpt lat="43.79290818844146" lon="11.550230751385296"><ele>780.0</ele><time>2026-04-28T09:33:03.999Z</time></trkpt><trkpt lat="43.79289996388298" lon="11.550366431599814"><ele>781.4</ele><time>2026-04-28T09:33:04.999Z</time></trkpt><trkpt lat="43.79289825964966" lon="11.550513355692228"><ele>782.8</ele><time>2026-04-28T09:33:05.999Z</time></trkpt><trkpt lat="43.792906508701165" lon="11.55066319455073"><ele>784.2</ele><time>2026-04-28T09:33:06.999Z</time></trkpt><trkpt lat="43.79291774648061" lon="11.550809705224514"><ele>785.6</ele><time>2026-04-28T09:33:07.999Z</time></trkpt><trkpt lat="43.792930493709065" lon="11.550956280387538"><ele>787.0</ele><time>2026-04-28T09:33:08.999Z</time></trkpt><trkpt lat="43.7929487367867" lon="11.55111086150801"><ele>788.0</ele><time>2026-04-28T09:33:09.999Z</time></trkpt><trkpt lat="43.79296277836268" lon="11.55126670066967"><ele>789.0</ele><time>2026-04-28T09:33:10.999Z</time></trkpt><trkpt lat="43.79297857621168" lon="11.551419286891372"><ele>790.0</ele><time>2026-04-28T09:33:11.999Z</time></trkpt><trkpt lat="43.79299766343336" lon="11.551574638633712"><ele>791.0</ele><time>2026-04-28T09:33:12.999Z</time></trkpt><trkpt lat="43.793015685185" lon="11.551732409083389"><ele>791.0</ele><time>2026-04-28T09:33:13.999Z</time></trkpt><trkpt lat="43.793032193992424" lon="11.551887144753355"><ele>791.0</ele><time>2026-04-28T09:33:14.999Z</time></trkpt><trkpt lat="43.79304531922564" lon="11.55204800698073"><ele>791.0</ele><time>2026-04-28T09:33:15.999Z</time></trkpt><trkpt lat="43.79305651649157" lon="11.55220146060186"><ele>791.0</ele><time>2026-04-28T09:33:16.999Z</time></trkpt><trkpt lat="43.79307258743146" lon="11.552366910837195"><ele>793.25</ele><time>2026-04-28T09:33:17.999Z</time></trkpt><trkpt lat="43.7930878644897" lon="11.552526505991455"><ele>795.5</ele><time>2026-04-28T09:33:18.999Z</time></trkpt><trkpt lat="43.79310020082602" lon="11.552684295464381"><ele>797.75</ele><time>2026-04-28T09:33:19.999Z</time></trkpt><trkpt lat="43.7931043550615" lon="11.55283477772595"><ele>800.0</ele><time>2026-04-28T09:33:20.999Z</time></trkpt><trkpt lat="43.79308253316491" lon="11.55298596807582"><ele>800.4</ele><time>2026-04-28T09:33:21.999Z</time></trkpt><trkpt lat="43.79302766249244" lon="11.553114615275527"><ele>800.8</ele><time>2026-04-28T09:33:22.999Z</time></trkpt><trkpt lat="43.79295286200249" lon="11.553210829723719"><ele>801.2</ele><time>2026-04-28T09:33:23.999Z</time></trkpt><trkpt lat="43.792876284045505" lon="11.55330531942303"><ele>801.6</ele><time>2026-04-28T09:33:24.999Z</time></trkpt><trkpt lat="43.792804967200354" lon="11.553400475251937"><ele>802.0</ele><time>2026-04-28T09:33:25.999Z</time></trkpt><trkpt lat="43.79273901065898" lon="11.553503088087856"><ele>801.9999999999999</ele><time>2026-04-28T09:33:26.999Z</time></trkpt><trkpt lat="43.792679620383396" lon="11.553611394524676"><ele>802.0</ele><time>2026-04-28T09:33:27.999Z</time></trkpt><trkpt lat="43.7926213065275" lon="11.553720202540251"><ele>802.0</ele><time>2026-04-28T09:33:28.999Z</time></trkpt><trkpt lat="43.79255933381405" lon="11.553815637480646"><ele>802.0</ele><time>2026-04-28T09:33:29.999Z</time></trkpt><trkpt lat="43.792508083716" lon="11.553902083775405"><ele>801.9999999999999</ele><time>2026-04-28T09:33:30.999Z</time></trkpt><trkpt lat="43.79246483690225" lon="11.553976981236945"><ele>802.0</ele><time>2026-04-28T09:33:31.999Z</time></trkpt><trkpt lat="43.79239873151002" lon="11.554093267239706"><ele>802.3333333333333</ele><time>2026-04-28T09:33:33.999Z</time></trkpt><trkpt lat="43.792345667771286" lon="11.554173606700518"><ele>802.6666666666666</ele><time>2026-04-28T09:33:35.999Z</time></trkpt><trkpt lat="43.79229227662346" lon="11.554270557947397"><ele>803.0</ele><time>2026-04-28T09:33:37.999Z</time></trkpt><trkpt lat="43.79221302035966" lon="11.554402511601129"><ele>803.3333333333333</ele><time>2026-04-28T09:33:39.999Z</time></trkpt><trkpt lat="43.79215672667631" lon="11.554474300814798"><ele>803.6666666666666</ele><time>2026-04-28T09:33:40.999Z</time></trkpt><trkpt lat="43.79209674317308" lon="11.55454376160626"><ele>804.0</ele><time>2026-04-28T09:33:41.999Z</time></trkpt><trkpt lat="43.79203028859025" lon="11.55461371570122"><ele>804.0</ele><time>2026-04-28T09:33:42.999Z</time></trkpt><trkpt lat="43.79196370237618" lon="11.554689067349436"><ele>804.0</ele><time>2026-04-28T09:33:43.999Z</time></trkpt><trkpt lat="43.791892852303455" lon="11.554748450542249"><ele>804.0</ele><time>2026-04-28T09:33:44.999Z</time></trkpt><trkpt lat="43.791826894376506" lon="11.554804071073194"><ele>804.0</ele><time>2026-04-28T09:33:45.999Z</time></trkpt><trkpt lat="43.79176298154365" lon="11.554870008967995"><ele>804.0</ele><time>2026-04-28T09:33:46.999Z</time></trkpt><trkpt lat="43.791707183619856" lon="11.55495669632704"><ele>804.0</ele><time>2026-04-28T09:33:48Z</time></trkpt><trkpt lat="43.791661864228345" lon="11.555058942077222"><ele>807.6</ele><time>2026-04-28T09:33:49Z</time></trkpt><trkpt lat="43.79162982254483" lon="11.555170729843988"><ele>811.2</ele><time>2026-04-28T09:33:50Z</time></trkpt><trkpt lat="43.79161483506795" lon="11.555295354824622"><ele>814.8000000000001</ele><time>2026-04-28T09:33:51Z</time></trkpt><trkpt lat="43.79162385868932" lon="11.555422095984294"><ele>818.4000000000001</ele><time>2026-04-28T09:33:52Z</time></trkpt><trkpt lat="43.79165775981606" lon="11.555544354047868"><ele>822.0</ele><time>2026-04-28T09:33:53Z</time></trkpt><trkpt lat="43.79171238210106" lon="11.555659664623771"><ele>823.6</ele><time>2026-04-28T09:33:54Z</time></trkpt><trkpt lat="43.79177425819548" lon="11.555771182861326"><ele>825.2</ele><time>2026-04-28T09:33:55Z</time></trkpt><trkpt lat="43.7918471072293" lon="11.555869337426019"><ele>826.8</ele><time>2026-04-28T09:33:56Z</time></trkpt><trkpt lat="43.79192600841674" lon="11.555965025556208"><ele>828.4</ele><time>2026-04-28T09:33:57Z</time></trkpt><trkpt lat="43.79200613763217" lon="11.556037134237773"><ele>830.0</ele><time>2026-04-28T09:33:58Z</time></trkpt><trkpt lat="43.79207654060589" lon="11.556115485279651"><ele>824.6</ele><time>2026-04-28T09:33:59Z</time></trkpt><trkpt lat="43.79212889160304" lon="11.556216329147583"><ele>819.2</ele><time>2026-04-28T09:34:00Z</time></trkpt><trkpt lat="43.79216594187238" lon="11.556322329245262"><ele>813.8</ele><time>2026-04-28T09:34:01Z</time></trkpt><trkpt lat="43.79217825451884" lon="11.556453695354962"><ele>808.4</ele><time>2026-04-28T09:34:02Z</time></trkpt><trkpt lat="43.79217792014691" lon="11.556578178162665"><ele>803.0</ele><time>2026-04-28T09:34:03Z</time></trkpt><trkpt lat="43.79213542149839" lon="11.556692961687377"><ele>803.0</ele><time>2026-04-28T09:34:04Z</time></trkpt><trkpt lat="43.79206165681921" lon="11.556784983466642"><ele>803.0</ele><time>2026-04-28T09:34:05Z</time></trkpt><trkpt lat="43.7919734616771" lon="11.556866832395356"><ele>803.0</ele><time>2026-04-28T09:34:06Z</time></trkpt><trkpt lat="43.79187278335046" lon="11.556929250966782"><ele>803.0</ele><time>2026-04-28T09:34:07Z</time></trkpt><trkpt lat="43.7917823089171" lon="11.557001123326046"><ele>803.0</ele><time>2026-04-28T09:34:08Z</time></trkpt><trkpt lat="43.79170602096983" lon="11.557090978200922"><ele>810.5</ele><time>2026-04-28T09:34:09Z</time></trkpt><trkpt lat="43.791665422682634" lon="11.557215639383022"><ele>818.0</ele><time>2026-04-28T09:34:10Z</time></trkpt><trkpt lat="43.791669421052504" lon="11.557372163122373"><ele>825.5</ele><time>2026-04-28T09:34:11Z</time></trkpt><trkpt lat="43.79170038660691" lon="11.557540958181532"><ele>833.0</ele><time>2026-04-28T09:34:12Z</time></trkpt><trkpt lat="43.79172555947502" lon="11.55770410907767"><ele>833.0</ele><time>2026-04-28T09:34:13Z</time></trkpt><trkpt lat="43.79171517881587" lon="11.55786264873041"><ele>833.0</ele><time>2026-04-28T09:34:14Z</time></trkpt><trkpt lat="43.79165380804785" lon="11.557981056143634"><ele>833.0</ele><time>2026-04-28T09:34:15Z</time></trkpt><trkpt lat="43.791563990320256" lon="11.55804913647604"><ele>833.0</ele><time>2026-04-28T09:34:16Z</time></trkpt><trkpt lat="43.79145832445641" lon="11.558123964555218"><ele>833.0</ele><time>2026-04-28T09:34:17Z</time></trkpt><trkpt lat="43.79134553065041" lon="11.55820435584728"><ele>830.75</ele><time>2026-04-28T09:34:18Z</time></trkpt><trkpt lat="43.79122875097192" lon="11.558299648540531"><ele>828.5</ele><time>2026-04-28T09:34:19Z</time></trkpt><trkpt lat="43.79111479218369" lon="11.558390541254374"><ele>826.25</ele><time>2026-04-28T09:34:20Z</time></trkpt><trkpt lat="43.7910066635487" lon="11.558485481134927"><ele>824.0</ele><time>2026-04-28T09:34:21Z</time></trkpt><trkpt lat="43.79090041388792" lon="11.55858871090063"><ele>826.25</ele><time>2026-04-28T09:34:22Z</time></trkpt><trkpt lat="43.790812225130075" lon="11.55871173261328"><ele>828.5</ele><time>2026-04-28T09:34:23Z</time></trkpt><trkpt lat="43.79073439914681" lon="11.558854957210839"><ele>830.75</ele><time>2026-04-28T09:34:24Z</time></trkpt><trkpt lat="43.7906592092483" lon="11.559005086234496"><ele>833.0</ele><time>2026-04-28T09:34:25Z</time></trkpt><trkpt lat="43.79059713839645" lon="11.5591721179653"><ele>833.0</ele><time>2026-04-28T09:34:26Z</time></trkpt><trkpt lat="43.79055059499797" lon="11.55934470691297"><ele>833.0</ele><time>2026-04-28T09:34:27Z</time></trkpt><trkpt lat="43.790514152572115" lon="11.559522214937555"><ele>833.0</ele><time>2026-04-28T09:34:28Z</time></trkpt><trkpt lat="43.79048498777711" lon="11.559688657690394"><ele>833.0</ele><time>2026-04-28T09:34:29Z</time></trkpt><trkpt lat="43.79046694822488" lon="11.559851418372752"><ele>833.8333333333334</ele><time>2026-04-28T09:34:30Z</time></trkpt><trkpt lat="43.790455558990395" lon="11.559981060657087"><ele>834.6666666666667</ele><time>2026-04-28T09:34:31Z</time></trkpt><trkpt lat="43.790445795344844" lon="11.560096810270739"><ele>835.5</ele><time>2026-04-28T09:34:32Z</time></trkpt><trkpt lat="43.7904299016001" lon="11.560192798899132"><ele>836.3333333333333</ele><time>2026-04-28T09:34:33Z</time></trkpt><trkpt lat="43.79041420291735" lon="11.560336796070125"><ele>837.1666666666666</ele><time>2026-04-28T09:34:35Z</time></trkpt><trkpt lat="43.79046445105241" lon="11.56042344335339"><ele>838.0</ele><time>2026-04-28T09:34:37Z</time></trkpt><trkpt lat="43.790544150292185" lon="11.560456263666087"><ele>838.4999999999999</ele><time>2026-04-28T09:34:39Z</time></trkpt><trkpt lat="43.790646213198436" lon="11.560451509456055"><ele>839.0</ele><time>2026-04-28T09:34:54Z</time></trkpt><trkpt lat="43.79072686191804" lon="11.560440940273843"><ele>839.5</ele><time>2026-04-28T09:34:55Z</time></trkpt><trkpt lat="43.79080393802615" lon="11.560428540773682"><ele>840.0</ele><time>2026-04-28T09:34:56Z</time></trkpt><trkpt lat="43.790876274557895" lon="11.560421640314859"><ele>840.4999999999999</ele><time>2026-04-28T09:34:57Z</time></trkpt><trkpt lat="43.79094389126957" lon="11.560426207303284"><ele>841.0</ele><time>2026-04-28T09:34:58Z</time></trkpt><trkpt lat="43.79103638641558" lon="11.560413018280755"><ele>841.0</ele><time>2026-04-28T09:35:00Z</time></trkpt><trkpt lat="43.79110332312614" lon="11.560452765082362"><ele>841.0</ele><time>2026-04-28T09:35:02Z</time></trkpt><trkpt lat="43.79120410697935" lon="11.560462509585518"><ele>841.0</ele><time>2026-04-28T09:35:04Z</time></trkpt><trkpt lat="43.791282870900915" lon="11.560478126415024"><ele>841.0</ele><time>2026-04-28T09:35:06Z</time></trkpt><trkpt lat="43.79135631590662" lon="11.560578885682853"><ele>841.0</ele><time>2026-04-28T09:35:08Z</time></trkpt><trkpt lat="43.791438852848124" lon="11.5606682425839"><ele>841.0</ele><time>2026-04-28T09:35:10Z</time></trkpt><trkpt lat="43.791533043677376" lon="11.560753347687593"><ele>841.0</ele><time>2026-04-28T09:35:12Z</time></trkpt><trkpt lat="43.79162637888458" lon="11.56084236464837"><ele>841.0</ele><time>2026-04-28T09:35:14Z</time></trkpt><trkpt lat="43.79169071509025" lon="11.560927313201676"><ele>841.0</ele><time>2026-04-28T09:35:16Z</time></trkpt><trkpt lat="43.7917528550328" lon="11.56097402370231"><ele>841.0</ele><time>2026-04-28T09:35:18Z</time></trkpt><trkpt lat="43.79184504179597" lon="11.56100953417408"><ele>838.8</ele><time>2026-04-28T09:35:20Z</time></trkpt><trkpt lat="43.791956217437665" lon="11.561015457210637"><ele>836.5999999999999</ele><time>2026-04-28T09:35:22Z</time></trkpt><trkpt lat="43.792064911023274" lon="11.56106217745242"><ele>834.4</ele><time>2026-04-28T09:35:24Z</time></trkpt><trkpt lat="43.79214119373165" lon="11.561146090563513"><ele>832.2</ele><time>2026-04-28T09:35:26Z</time></trkpt><trkpt lat="43.79218096257272" lon="11.561215178552512"><ele>830.0</ele><time>2026-04-28T09:35:28Z</time></trkpt><trkpt lat="43.79220586923091" lon="11.561315164919305"><ele>830.0</ele><time>2026-04-28T09:35:30Z</time></trkpt><trkpt lat="43.79221067843223" lon="11.561424070740276"><ele>830.0</ele><time>2026-04-28T09:35:32Z</time></trkpt><trkpt lat="43.79221100825266" lon="11.56153024607774"><ele>830.0</ele><time>2026-04-28T09:35:34Z</time></trkpt><trkpt lat="43.79219357169558" lon="11.561675078686322"><ele>830.0</ele><time>2026-04-28T09:35:36Z</time></trkpt><trkpt lat="43.79213861409091" lon="11.561782071386826"><ele>830.0</ele><time>2026-04-28T09:35:38Z</time></trkpt><trkpt lat="43.792139842996" lon="11.561926983080445"><ele>829.4</ele><time>2026-04-28T09:35:40Z</time></trkpt><trkpt lat="43.79216903733313" lon="11.562086726725822"><ele>828.8</ele><time>2026-04-28T09:35:42Z</time></trkpt><trkpt lat="43.79220581015882" lon="11.562224738215432"><ele>828.2</ele><time>2026-04-28T09:35:44Z</time></trkpt><trkpt lat="43.79221684972398" lon="11.562373771892515"><ele>827.6</ele><time>2026-04-28T09:35:46Z</time></trkpt><trkpt lat="43.792220534451516" lon="11.562514825116741"><ele>827.0</ele><time>2026-04-28T09:35:48Z</time></trkpt><trkpt lat="43.7922167858725" lon="11.562657319510217"><ele>827.0</ele><time>2026-04-28T09:35:50Z</time></trkpt><trkpt lat="43.792258179110924" lon="11.562806192006486"><ele>827.0</ele><time>2026-04-28T09:35:52Z</time></trkpt><trkpt lat="43.792297673783075" lon="11.562936226844503"><ele>827.0</ele><time>2026-04-28T09:35:54.001Z</time></trkpt><trkpt lat="43.79234202690236" lon="11.56302296397535"><ele>827.0</ele><time>2026-04-28T09:35:56.001Z</time></trkpt><trkpt lat="43.792351036244426" lon="11.563134828001816"><ele>827.0</ele><time>2026-04-28T09:35:58.001Z</time></trkpt><trkpt lat="43.792322073865414" lon="11.56326432728303"><ele>828.0000000000001</ele><time>2026-04-28T09:36:00.001Z</time></trkpt><trkpt lat="43.79234133907236" lon="11.56337495943859"><ele>829.0</ele><time>2026-04-28T09:36:02.001Z</time></trkpt><trkpt lat="43.79240259016912" lon="11.563505367932057"><ele>830.0</ele><time>2026-04-28T09:36:04.001Z</time></trkpt><trkpt lat="43.79244944195658" lon="11.563598979064164"><ele>831.0</ele><time>2026-04-28T09:36:06.001Z</time></trkpt><trkpt lat="43.7924574885943" lon="11.56372393728928"><ele>832.0000000000001</ele><time>2026-04-28T09:36:15.001Z</time></trkpt><trkpt lat="43.79244815014344" lon="11.563811482180704"><ele>833.0</ele><time>2026-04-28T09:36:18.001Z</time></trkpt><trkpt lat="43.79245125204014" lon="11.563899062688915"><ele>832.8</ele><time>2026-04-28T09:36:27Z</time></trkpt><trkpt lat="43.79244996818712" lon="11.563992794522832"><ele>832.5999999999999</ele><time>2026-04-28T09:36:42Z</time></trkpt><trkpt lat="43.79246101935719" lon="11.564119254486329"><ele>832.4000000000001</ele><time>2026-04-28T09:36:44Z</time></trkpt><trkpt lat="43.79251135998761" lon="11.564240917090952"><ele>832.2</ele><time>2026-04-28T09:36:46Z</time></trkpt><trkpt lat="43.79259421529388" lon="11.56434288438017"><ele>832.0</ele><time>2026-04-28T09:36:48Z</time></trkpt><trkpt lat="43.79268205201068" lon="11.564455427436307"><ele>832.4000000000001</ele><time>2026-04-28T09:36:50Z</time></trkpt><trkpt lat="43.792721895217795" lon="11.56454615176797"><ele>832.8000000000001</ele><time>2026-04-28T09:36:52Z</time></trkpt><trkpt lat="43.79275576666729" lon="11.564693310746849"><ele>833.2</ele><time>2026-04-28T09:36:54Z</time></trkpt><trkpt lat="43.79277560888893" lon="11.564779937311043"><ele>833.6</ele><time>2026-04-28T09:36:55Z</time></trkpt><trkpt lat="43.792824955550806" lon="11.564858172661273"><ele>834.0</ele><time>2026-04-28T09:36:58Z</time></trkpt><trkpt lat="43.792956649188696" lon="11.565066315862175"><ele>834.0</ele><time>2026-04-28T09:36:59Z</time></trkpt><trkpt lat="43.79301316786034" lon="11.565142219262473"><ele>834.0</ele><time>2026-04-28T09:37:00Z</time></trkpt><trkpt lat="43.79304943600919" lon="11.565228460010067"><ele>834.0</ele><time>2026-04-28T09:37:02Z</time></trkpt><trkpt lat="43.79301189849953" lon="11.56530094470766"><ele>834.0</ele><time>2026-04-28T09:37:42Z</time></trkpt><trkpt lat="43.79298141867805" lon="11.565389419798974"><ele>834.0</ele><time>2026-04-28T09:38:18.001Z</time></trkpt><trkpt lat="43.79303629688449" lon="11.565343225366066"><ele>834.0</ele><time>2026-04-28T09:38:30Z</time></trkpt><trkpt lat="43.79306605969669" lon="11.565218266047896"><ele>834.0</ele><time>2026-04-28T09:39:21Z</time></trkpt><trkpt lat="43.79300752702829" lon="11.565145874690423"><ele>834.0</ele><time>2026-04-28T09:40:03.999Z</time></trkpt><trkpt lat="43.79294650926043" lon="11.56505824052914"><ele>834.0</ele><time>2026-04-28T09:40:07.001Z</time></trkpt><trkpt lat="43.79289304479697" lon="11.56497678033694"><ele>834.0</ele><time>2026-04-28T09:40:08.001Z</time></trkpt><trkpt lat="43.79285108993721" lon="11.564902173794954"><ele>834.0</ele><time>2026-04-28T09:40:09.001Z</time></trkpt><trkpt lat="43.79281070655053" lon="11.56482241611026"><ele>834.0</ele><time>2026-04-28T09:40:10.001Z</time></trkpt><trkpt lat="43.792781479674304" lon="11.564711028254536"><ele>834.0</ele><time>2026-04-28T09:40:11.001Z</time></trkpt><trkpt lat="43.79275350098681" lon="11.56459841035018"><ele>833.6</ele><time>2026-04-28T09:40:12.001Z</time></trkpt><trkpt lat="43.792732700180906" lon="11.56449543470676"><ele>833.2</ele><time>2026-04-28T09:40:13.001Z</time></trkpt><trkpt lat="43.79270043522866" lon="11.564419866597646"><ele>832.8000000000001</ele><time>2026-04-28T09:40:15.001Z</time></trkpt><trkpt lat="43.79257611147751" lon="11.564374596756378"><ele>832.4000000000001</ele><time>2026-04-28T09:40:18.001Z</time></trkpt><trkpt lat="43.79251693290113" lon="11.564341620741432"><ele>832.0</ele><time>2026-04-28T09:40:19.001Z</time></trkpt><trkpt lat="43.79238862189366" lon="11.564308416864485"><ele>833.4999999999999</ele><time>2026-04-28T09:40:21.001Z</time></trkpt><trkpt lat="43.792316434275776" lon="11.564304945174316"><ele>835.0</ele><time>2026-04-28T09:40:22Z</time></trkpt><trkpt lat="43.79224886824075" lon="11.564324904837143"><ele>836.5</ele><time>2026-04-28T09:40:23Z</time></trkpt><trkpt lat="43.79217167882529" lon="11.5643458616652"><ele>838.0</ele><time>2026-04-28T09:40:24Z</time></trkpt><trkpt lat="43.79208928362598" lon="11.56435089734686"><ele>839.4999999999999</ele><time>2026-04-28T09:40:25Z</time></trkpt><trkpt lat="43.79199967440762" lon="11.564363184369917"><ele>841.0</ele><time>2026-04-28T09:40:26Z</time></trkpt><trkpt lat="43.79193395313456" lon="11.564367240274361"><ele>840.9999999999999</ele><time>2026-04-28T09:40:27Z</time></trkpt><trkpt lat="43.79186405879346" lon="11.564345540196733"><ele>841.0</ele><time>2026-04-28T09:40:28Z</time></trkpt><trkpt lat="43.7917856085929" lon="11.56435000421588"><ele>841.0</ele><time>2026-04-28T09:40:29Z</time></trkpt><trkpt lat="43.791718892730024" lon="11.56435190306229"><ele>841.0</ele><time>2026-04-28T09:40:30Z</time></trkpt><trkpt lat="43.791641201960374" lon="11.564349655733496"><ele>840.9999999999999</ele><time>2026-04-28T09:40:31Z</time></trkpt><trkpt lat="43.79156665069771" lon="11.564321773581462"><ele>841.0</ele><time>2026-04-28T09:40:32Z</time></trkpt><trkpt lat="43.791496338607644" lon="11.564272867133882"><ele>842.1428571428572</ele><time>2026-04-28T09:40:34Z</time></trkpt><trkpt lat="43.79140704315694" lon="11.564224981680852"><ele>843.2857142857142</ele><time>2026-04-28T09:40:36Z</time></trkpt><trkpt lat="43.79134608409887" lon="11.564192988980002"><ele>844.4285714285714</ele><time>2026-04-28T09:40:37Z</time></trkpt><trkpt lat="43.79128460292581" lon="11.564159249517228"><ele>845.5714285714287</ele><time>2026-04-28T09:40:38Z</time></trkpt><trkpt lat="43.791211888832834" lon="11.564125161876335"><ele>846.7142857142858</ele><time>2026-04-28T09:40:39Z</time></trkpt><trkpt lat="43.79114934837088" lon="11.564093426112922"><ele>847.8571428571429</ele><time>2026-04-28T09:40:40Z</time></trkpt><trkpt lat="43.79108686390268" lon="11.564067333585442"><ele>849.0</ele><time>2026-04-28T09:40:41Z</time></trkpt><trkpt lat="43.790972898603556" lon="11.564034564800794"><ele>849.0</ele><time>2026-04-28T09:40:43Z</time></trkpt><trkpt lat="43.790871292410934" lon="11.563965881075575"><ele>849.0</ele><time>2026-04-28T09:40:45Z</time></trkpt><trkpt lat="43.79078135163687" lon="11.56391381648367"><ele>849.0</ele><time>2026-04-28T09:40:47Z</time></trkpt><trkpt lat="43.790680141632606" lon="11.563860595285368"><ele>849.0</ele><time>2026-04-28T09:40:49Z</time></trkpt><trkpt lat="43.79059155521081" lon="11.563819459906524"><ele>849.0</ele><time>2026-04-28T09:40:51Z</time></trkpt><trkpt lat="43.79052352986061" lon="11.56380584535812"><ele>849.0</ele><time>2026-04-28T09:40:53Z</time></trkpt><trkpt lat="43.790451053327914" lon="11.563745780935397"><ele>849.0</ele><time>2026-04-28T09:40:55Z</time></trkpt><trkpt lat="43.79040508192107" lon="11.563631015776252"><ele>849.0</ele><time>2026-04-28T09:40:57Z</time></trkpt><trkpt lat="43.79035573311447" lon="11.563526231731837"><ele>849.0</ele><time>2026-04-28T09:40:59Z</time></trkpt><trkpt lat="43.790326209800135" lon="11.563438811526707"><ele>849.0</ele><time>2026-04-28T09:41:01Z</time></trkpt><trkpt lat="43.790289620574626" lon="11.563352461483959"><ele>849.0</ele><time>2026-04-28T09:41:03Z</time></trkpt><trkpt lat="43.790248161403255" lon="11.563269428071878"><ele>846.2</ele><time>2026-04-28T09:41:06Z</time></trkpt><trkpt lat="43.790160213256" lon="11.56331772609145"><ele>843.4000000000001</ele><time>2026-04-28T09:41:10Z</time></trkpt><trkpt lat="43.790147125378276" lon="11.563498898746072"><ele>840.6</ele><time>2026-04-28T09:41:12Z</time></trkpt><trkpt lat="43.79013699468499" lon="11.563605887781412"><ele>837.8</ele><time>2026-04-28T09:41:13Z</time></trkpt><trkpt lat="43.79011660315575" lon="11.563724580022358"><ele>835.0</ele><time>2026-04-28T09:41:14Z</time></trkpt><trkpt lat="43.790095372832205" lon="11.563871466003132"><ele>834.9999999999999</ele><time>2026-04-28T09:41:15Z</time></trkpt><trkpt lat="43.79007327889235" lon="11.56400444483497"><ele>835.0</ele><time>2026-04-28T09:41:16Z</time></trkpt><trkpt lat="43.790052970059506" lon="11.564114278083565"><ele>835.0</ele><time>2026-04-28T09:41:17Z</time></trkpt><trkpt lat="43.79003276035053" lon="11.564226712436726"><ele>835.0</ele><time>2026-04-28T09:41:18Z</time></trkpt><trkpt lat="43.790010138854434" lon="11.564338728197255"><ele>834.9999999999999</ele><time>2026-04-28T09:41:19Z</time></trkpt><trkpt lat="43.78996175464843" lon="11.564451411779816"><ele>835.0</ele><time>2026-04-28T09:41:20Z</time></trkpt><trkpt lat="43.78995231197857" lon="11.564575466764994"><ele>836.4999999999999</ele><time>2026-04-28T09:41:21Z</time></trkpt><trkpt lat="43.78992864206119" lon="11.56469641842734"><ele>838.0</ele><time>2026-04-28T09:41:22Z</time></trkpt><trkpt lat="43.78990605358853" lon="11.564812071909806"><ele>839.5</ele><time>2026-04-28T09:41:23Z</time></trkpt><trkpt lat="43.78988705752377" lon="11.564912562359522"><ele>841.0</ele><time>2026-04-28T09:41:23.999Z</time></trkpt><trkpt lat="43.78987067807994" lon="11.564997872052011"><ele>842.4999999999999</ele><time>2026-04-28T09:41:24.999Z</time></trkpt><trkpt lat="43.789838702234896" lon="11.565164186075394"><ele>844.0</ele><time>2026-04-28T09:41:26.999Z</time></trkpt><trkpt lat="43.789805126388195" lon="11.565262207373904"><ele>843.9999999999999</ele><time>2026-04-28T09:41:27.999Z</time></trkpt><trkpt lat="43.78975347047929" lon="11.5653577770533"><ele>844.0</ele><time>2026-04-28T09:41:28.999Z</time></trkpt><trkpt lat="43.789681884267246" lon="11.565436707580394"><ele>844.0</ele><time>2026-04-28T09:41:29.999Z</time></trkpt><trkpt lat="43.78960491663274" lon="11.565515613877267"><ele>844.0</ele><time>2026-04-28T09:41:30.999Z</time></trkpt><trkpt lat="43.789540461535566" lon="11.56558889218685"><ele>843.9999999999999</ele><time>2026-04-28T09:41:31.999Z</time></trkpt><trkpt lat="43.78947567335492" lon="11.565666220595185"><ele>844.0</ele><time>2026-04-28T09:41:32.999Z</time></trkpt><trkpt lat="43.789405076136326" lon="11.565756550539824"><ele>844.2</ele><time>2026-04-28T09:41:33.999Z</time></trkpt><trkpt lat="43.789328321326686" lon="11.56584049981041"><ele>844.4000000000001</ele><time>2026-04-28T09:41:34.999Z</time></trkpt><trkpt lat="43.789254119380196" lon="11.565929884583822"><ele>844.6</ele><time>2026-04-28T09:41:35.999Z</time></trkpt><trkpt lat="43.78917606643835" lon="11.566033897944086"><ele>844.8</ele><time>2026-04-28T09:41:36.999Z</time></trkpt><trkpt lat="43.78911848107783" lon="11.566119996630327"><ele>845.0</ele><time>2026-04-28T09:41:37.999Z</time></trkpt><trkpt lat="43.78907685424985" lon="11.566196261587939"><ele>848.2</ele><time>2026-04-28T09:41:38.999Z</time></trkpt><trkpt lat="43.78900627720599" lon="11.566338810019241"><ele>851.4</ele><time>2026-04-28T09:41:40.999Z</time></trkpt><trkpt lat="43.78896494864805" lon="11.566435305844868"><ele>854.5999999999999</ele><time>2026-04-28T09:41:41.999Z</time></trkpt><trkpt lat="43.78890313023101" lon="11.56656790788298"><ele>857.8</ele><time>2026-04-28T09:41:42.999Z</time></trkpt><trkpt lat="43.78887162021586" lon="11.566704291366028"><ele>861.0</ele><time>2026-04-28T09:41:43.999Z</time></trkpt><trkpt lat="43.78883018407866" lon="11.56683505063406"><ele>861.0</ele><time>2026-04-28T09:41:44.999Z</time></trkpt><trkpt lat="43.78878003556269" lon="11.566972249691299"><ele>860.9999999999999</ele><time>2026-04-28T09:41:45.999Z</time></trkpt><trkpt lat="43.788725288672524" lon="11.567094821973475"><ele>860.9999999999999</ele><time>2026-04-28T09:41:46.999Z</time></trkpt><trkpt lat="43.788660156047776" lon="11.56720844972003"><ele>861.0</ele><time>2026-04-28T09:41:47.999Z</time></trkpt><trkpt lat="43.78859698501089" lon="11.567317323673091"><ele>861.0</ele><time>2026-04-28T09:41:48.999Z</time></trkpt><trkpt lat="43.788520236675396" lon="11.56740209351042"><ele>862.0</ele><time>2026-04-28T09:41:49.999Z</time></trkpt><trkpt lat="43.78844949187836" lon="11.567494688082462"><ele>863.0</ele><time>2026-04-28T09:41:50.999Z</time></trkpt><trkpt lat="43.78838609026463" lon="11.567585082635707"><ele>864.0</ele><time>2026-04-28T09:41:51.999Z</time></trkpt><trkpt lat="43.78833104200355" lon="11.567673914516403"><ele>865.0</ele><time>2026-04-28T09:41:52.999Z</time></trkpt><trkpt lat="43.788275793331614" lon="11.567762362514776"><ele>866.0</ele><time>2026-04-28T09:41:53.999Z</time></trkpt><trkpt lat="43.78823900481653" lon="11.567851423737668"><ele>867.0</ele><time>2026-04-28T09:41:54.999Z</time></trkpt><trkpt lat="43.78820888900033" lon="11.567959918231633"><ele>867.0</ele><time>2026-04-28T09:41:55.999Z</time></trkpt><trkpt lat="43.78821043230557" lon="11.56810688003287"><ele>867.0</ele><time>2026-04-28T09:41:56.999Z</time></trkpt><trkpt lat="43.78822079261208" lon="11.56824669029321"><ele>867.0</ele><time>2026-04-28T09:41:57.999Z</time></trkpt><trkpt lat="43.788228814782485" lon="11.56837893881848"><ele>867.0</ele><time>2026-04-28T09:41:58.999Z</time></trkpt><trkpt lat="43.78823266225472" lon="11.568505552578706"><ele>867.0</ele><time>2026-04-28T09:41:59.999Z</time></trkpt><trkpt lat="43.78823680306915" lon="11.568610770274137"><ele>868.6666666666666</ele><time>2026-04-28T09:42:00.999Z</time></trkpt><trkpt lat="43.7882368352067" lon="11.56872517334924"><ele>870.3333333333333</ele><time>2026-04-28T09:42:01.999Z</time></trkpt><trkpt lat="43.78821270724961" lon="11.56884544312789"><ele>872.0</ele><time>2026-04-28T09:42:02.999Z</time></trkpt><trkpt lat="43.78819443370592" lon="11.568963987115154"><ele>873.6666666666666</ele><time>2026-04-28T09:42:03.999Z</time></trkpt><trkpt lat="43.78816636468727" lon="11.569065329675855"><ele>875.3333333333333</ele><time>2026-04-28T09:42:04.999Z</time></trkpt><trkpt lat="43.788135816540496" lon="11.569168090591432"><ele>877.0</ele><time>2026-04-28T09:42:05.999Z</time></trkpt><trkpt lat="43.788114145176046" lon="11.569287941775661"><ele>877.0</ele><time>2026-04-28T09:42:06.999Z</time></trkpt><trkpt lat="43.788089675447594" lon="11.569438267579319"><ele>877.0</ele><time>2026-04-28T09:42:07.999Z</time></trkpt><trkpt lat="43.788087439779936" lon="11.569607047606205"><ele>877.0</ele><time>2026-04-28T09:42:08.999Z</time></trkpt><trkpt lat="43.78805349469513" lon="11.569755833053588"><ele>877.0</ele><time>2026-04-28T09:42:09.999Z</time></trkpt><trkpt lat="43.78802783857437" lon="11.5698898910931"><ele>877.0</ele><time>2026-04-28T09:42:10.999Z</time></trkpt><trkpt lat="43.78799925843516" lon="11.570024679529094"><ele>876.0</ele><time>2026-04-28T09:42:12Z</time></trkpt><trkpt lat="43.787971590215456" lon="11.570164225904675"><ele>875.0</ele><time>2026-04-28T09:42:13Z</time></trkpt><trkpt lat="43.78790517854775" lon="11.570283112604063"><ele>874.0</ele><time>2026-04-28T09:42:14Z</time></trkpt><trkpt lat="43.787812925576496" lon="11.570378343350136"><ele>873.0</ele><time>2026-04-28T09:42:15Z</time></trkpt><trkpt lat="43.78773037576548" lon="11.570465534607514"><ele>872.0</ele><time>2026-04-28T09:42:16Z</time></trkpt><trkpt lat="43.78765564246742" lon="11.570571793675798"><ele>872.0000000000001</ele><time>2026-04-28T09:42:17Z</time></trkpt><trkpt lat="43.78759810439328" lon="11.570673371436973"><ele>872.0</ele><time>2026-04-28T09:42:18Z</time></trkpt><trkpt lat="43.78754105528853" lon="11.570792511779349"><ele>872.0</ele><time>2026-04-28T09:42:19Z</time></trkpt><trkpt lat="43.78749746893211" lon="11.570896471136452"><ele>872.0</ele><time>2026-04-28T09:42:20Z</time></trkpt><trkpt lat="43.7874602535812" lon="11.570984028989855"><ele>872.0000000000001</ele><time>2026-04-28T09:42:21Z</time></trkpt><trkpt lat="43.78741881706662" lon="11.571063915330049"><ele>872.0</ele><time>2026-04-28T09:42:30Z</time></trkpt><trkpt lat="43.78736537849945" lon="11.571230167637307"><ele>874.2</ele><time>2026-04-28T09:42:32Z</time></trkpt><trkpt lat="43.78734458930459" lon="11.571324916183253"><ele>876.4000000000001</ele><time>2026-04-28T09:42:33Z</time></trkpt><trkpt lat="43.78728620539101" lon="11.571416697201899"><ele>878.5999999999999</ele><time>2026-04-28T09:42:46Z</time></trkpt><trkpt lat="43.78725158391565" lon="11.571511036390607"><ele>880.8</ele><time>2026-04-28T09:42:47Z</time></trkpt><trkpt lat="43.78721901768092" lon="11.57163700830762"><ele>883.0</ele><time>2026-04-28T09:42:48Z</time></trkpt><trkpt lat="43.78715680487864" lon="11.571796682510197"><ele>883.0</ele><time>2026-04-28T09:42:49Z</time></trkpt><trkpt lat="43.78710854320548" lon="11.571948445098412"><ele>883.0</ele><time>2026-04-28T09:42:50Z</time></trkpt><trkpt lat="43.78705645206841" lon="11.57209403799264"><ele>883.0</ele><time>2026-04-28T09:42:51Z</time></trkpt><trkpt lat="43.787012400119835" lon="11.572223737290555"><ele>883.0</ele><time>2026-04-28T09:42:52Z</time></trkpt><trkpt lat="43.78697796490504" lon="11.572337966483422"><ele>883.0</ele><time>2026-04-28T09:42:53Z</time></trkpt><trkpt lat="43.78695648381388" lon="11.572447999769826"><ele>883.9999999999999</ele><time>2026-04-28T09:42:54Z</time></trkpt><trkpt lat="43.78693109948164" lon="11.572543367524743"><ele>885.0</ele><time>2026-04-28T09:42:55Z</time></trkpt><trkpt lat="43.786886029812685" lon="11.572607570207184"><ele>886.0</ele><time>2026-04-28T09:42:56Z</time></trkpt><trkpt lat="43.78678708527043" lon="11.57264158301713"><ele>887.0</ele><time>2026-04-28T09:42:57Z</time></trkpt><trkpt lat="43.78668642072391" lon="11.572660257077809"><ele>887.9999999999999</ele><time>2026-04-28T09:42:58Z</time></trkpt><trkpt lat="43.78658068797389" lon="11.572651634861684"><ele>889.0</ele><time>2026-04-28T09:42:59Z</time></trkpt><trkpt lat="43.786489986311246" lon="11.57267374671999"><ele>889.2</ele><time>2026-04-28T09:43:00Z</time></trkpt><trkpt lat="43.7864007572623" lon="11.572720514000617"><ele>889.4000000000001</ele><time>2026-04-28T09:43:01Z</time></trkpt><trkpt lat="43.78633561126861" lon="11.572793812208076"><ele>889.6</ele><time>2026-04-28T09:43:02Z</time></trkpt><trkpt lat="43.78627246425703" lon="11.572907844825203"><ele>889.8</ele><time>2026-04-28T09:43:03Z</time></trkpt><trkpt lat="43.78622927263212" lon="11.57306069722423"><ele>890.0</ele><time>2026-04-28T09:43:04Z</time></trkpt><trkpt lat="43.7861692111555" lon="11.573202214727322"><ele>890.0</ele><time>2026-04-28T09:43:05Z</time></trkpt><trkpt lat="43.78613656974258" lon="11.573335065944704"><ele>890.0</ele><time>2026-04-28T09:43:06Z</time></trkpt><trkpt lat="43.78608686587224" lon="11.573487932297727"><ele>890.0</ele><time>2026-04-28T09:43:07Z</time></trkpt><trkpt lat="43.78602059501929" lon="11.573602241462137"><ele>890.0</ele><time>2026-04-28T09:43:08Z</time></trkpt><trkpt lat="43.78594015137073" lon="11.573731313384785"><ele>889.75</ele><time>2026-04-28T09:43:09Z</time></trkpt><trkpt lat="43.78584245784307" lon="11.573841377395246"><ele>889.5</ele><time>2026-04-28T09:43:10Z</time></trkpt><trkpt lat="43.78574894630313" lon="11.57395925854165"><ele>889.25</ele><time>2026-04-28T09:43:11Z</time></trkpt><trkpt lat="43.78565843461371" lon="11.574073090164273"><ele>889.0</ele><time>2026-04-28T09:43:12Z</time></trkpt><trkpt lat="43.785586005974224" lon="11.574171849063775"><ele>889.0</ele><time>2026-04-28T09:43:12.999Z</time></trkpt><trkpt lat="43.78548210883566" lon="11.574310599768364"><ele>889.0</ele><time>2026-04-28T09:43:13.999Z</time></trkpt><trkpt lat="43.785375633472334" lon="11.574430178641915"><ele>889.0</ele><time>2026-04-28T09:43:14.999Z</time></trkpt><trkpt lat="43.78530611960984" lon="11.574555735371803"><ele>889.0</ele><time>2026-04-28T09:43:15.999Z</time></trkpt><trkpt lat="43.785218932211244" lon="11.57467837689153"><ele>888.25</ele><time>2026-04-28T09:43:16.999Z</time></trkpt><trkpt lat="43.7851439011371" lon="11.574816650576157"><ele>887.5</ele><time>2026-04-28T09:43:17.999Z</time></trkpt><trkpt lat="43.78502538272318" lon="11.5749438883859"><ele>886.75</ele><time>2026-04-28T09:43:18.999Z</time></trkpt><trkpt lat="43.784931152852536" lon="11.57507349653174"><ele>886.0</ele><time>2026-04-28T09:43:19.999Z</time></trkpt><trkpt lat="43.784846655075825" lon="11.575200574408225"><ele>886.0</ele><time>2026-04-28T09:43:20.999Z</time></trkpt><trkpt lat="43.78474901516968" lon="11.575319506990573"><ele>885.9999999999999</ele><time>2026-04-28T09:43:21.999Z</time></trkpt><trkpt lat="43.784673187865046" lon="11.575414186774813"><ele>885.9999999999999</ele><time>2026-04-28T09:43:22.999Z</time></trkpt><trkpt lat="43.78462599666083" lon="11.57551921147523"><ele>886.0</ele><time>2026-04-28T09:43:23.999Z</time></trkpt><trkpt lat="43.78457608606407" lon="11.575634887930073"><ele>886.0</ele><time>2026-04-28T09:43:24.999Z</time></trkpt><trkpt lat="43.78457248939217" lon="11.575786794430577"><ele>890.0</ele><time>2026-04-28T09:43:25.999Z</time></trkpt><trkpt lat="43.78453255905043" lon="11.575933946656047"><ele>894.0</ele><time>2026-04-28T09:43:26.999Z</time></trkpt><trkpt lat="43.784533445923586" lon="11.576123242575935"><ele>898.0</ele><time>2026-04-28T09:43:27.999Z</time></trkpt><trkpt lat="43.78449951254682" lon="11.576300240517531"><ele>902.0</ele><time>2026-04-28T09:43:28.999Z</time></trkpt><trkpt lat="43.784398401935825" lon="11.576451317186834"><ele>902.2</ele><time>2026-04-28T09:43:29.999Z</time></trkpt><trkpt lat="43.784309225131885" lon="11.576595965704097"><ele>902.4000000000001</ele><time>2026-04-28T09:43:30.999Z</time></trkpt><trkpt lat="43.784252892638754" lon="11.576702901874837"><ele>902.5999999999999</ele><time>2026-04-28T09:43:31.999Z</time></trkpt><trkpt lat="43.78419733980665" lon="11.576816511356363"><ele>902.8</ele><time>2026-04-28T09:43:32.999Z</time></trkpt><trkpt lat="43.78416529224844" lon="11.576932356586239"><ele>903.0</ele><time>2026-04-28T09:43:33.999Z</time></trkpt><trkpt lat="43.78415158768369" lon="11.577072060254881"><ele>903.0</ele><time>2026-04-28T09:43:34.999Z</time></trkpt><trkpt lat="43.78413640262361" lon="11.577211706121357"><ele>903.0</ele><time>2026-04-28T09:43:35.999Z</time></trkpt><trkpt lat="43.78411245247626" lon="11.57732544104683"><ele>903.0</ele><time>2026-04-28T09:43:36.999Z</time></trkpt><trkpt lat="43.78406011108818" lon="11.577427921452704"><ele>903.0</ele><time>2026-04-28T09:43:37.999Z</time></trkpt><trkpt lat="43.783976343899226" lon="11.577533512461425"><ele>903.0</ele><time>2026-04-28T09:43:38.999Z</time></trkpt><trkpt lat="43.78388121560314" lon="11.577639369697385"><ele>903.0</ele><time>2026-04-28T09:43:39.999Z</time></trkpt><trkpt lat="43.78377875793432" lon="11.57771938866977"><ele>903.0</ele><time>2026-04-28T09:43:40.999Z</time></trkpt><trkpt lat="43.78366037891848" lon="11.57776232612264"><ele>903.0</ele><time>2026-04-28T09:43:41.999Z</time></trkpt><trkpt lat="43.78352410230945" lon="11.5777920263497"><ele>903.0</ele><time>2026-04-28T09:43:42.999Z</time></trkpt><trkpt lat="43.78339760870562" lon="11.57781822545034"><ele>904.5999999999999</ele><time>2026-04-28T09:43:43.999Z</time></trkpt><trkpt lat="43.78327222596636" lon="11.577828111741564"><ele>906.1999999999999</ele><time>2026-04-28T09:43:44.999Z</time></trkpt><trkpt lat="43.78316835740884" lon="11.577839607828217"><ele>907.8</ele><time>2026-04-28T09:43:45.999Z</time></trkpt><trkpt lat="43.78309057663106" lon="11.577868211868655"><ele>909.4</ele><time>2026-04-28T09:43:46.999Z</time></trkpt><trkpt lat="43.783018186091745" lon="11.577919738264336"><ele>911.0</ele><time>2026-04-28T09:43:47.999Z</time></trkpt><trkpt lat="43.7829320668445" lon="11.57798632771703"><ele>911.0</ele><time>2026-04-28T09:43:48.999Z</time></trkpt><trkpt lat="43.782836993080764" lon="11.578092562379686"><ele>911.0</ele><time>2026-04-28T09:43:49.999Z</time></trkpt><trkpt lat="43.78273459676199" lon="11.578194475490871"><ele>911.0</ele><time>2026-04-28T09:43:50.999Z</time></trkpt><trkpt lat="43.78260767360457" lon="11.57828485035163"><ele>911.0</ele><time>2026-04-28T09:43:51.999Z</time></trkpt><trkpt lat="43.78248723746758" lon="11.578375234498687"><ele>909.8</ele><time>2026-04-28T09:43:52.999Z</time></trkpt><trkpt lat="43.782368885147314" lon="11.578444121986925"><ele>908.5999999999999</ele><time>2026-04-28T09:43:53.999Z</time></trkpt><trkpt lat="43.78229225462252" lon="11.57851539232028"><ele>907.4</ele><time>2026-04-28T09:43:54.999Z</time></trkpt><trkpt lat="43.782227161559746" lon="11.578571149995819"><ele>906.2</ele><time>2026-04-28T09:43:55.999Z</time></trkpt><trkpt lat="43.782174570381045" lon="11.578660150689434"><ele>905.0</ele><time>2026-04-28T09:43:56.999Z</time></trkpt><trkpt lat="43.78210707694609" lon="11.578759589758693"><ele>906.5</ele><time>2026-04-28T09:43:57.999Z</time></trkpt><trkpt lat="43.78203950419193" lon="11.57886653863777"><ele>908.0</ele><time>2026-04-28T09:43:58.999Z</time></trkpt><trkpt lat="43.78194503973499" lon="11.578942403788126"><ele>909.5</ele><time>2026-04-28T09:43:59.999Z</time></trkpt><trkpt lat="43.7818356256738" lon="11.579022837259666"><ele>911.0</ele><time>2026-04-28T09:44:00.999Z</time></trkpt><trkpt lat="43.78172434445224" lon="11.579060687995907"><ele>911.0</ele><time>2026-04-28T09:44:01.999Z</time></trkpt><trkpt lat="43.781604780891634" lon="11.579135329920375"><ele>911.0</ele><time>2026-04-28T09:44:02.999Z</time></trkpt><trkpt lat="43.78149065996669" lon="11.579229597818939"><ele>911.0</ele><time>2026-04-28T09:44:03.999Z</time></trkpt><trkpt lat="43.7813886238377" lon="11.579328778949467"><ele>911.0</ele><time>2026-04-28T09:44:04.999Z</time></trkpt><trkpt lat="43.78131086429773" lon="11.579417322020717"><ele>911.0</ele><time>2026-04-28T09:44:05.999Z</time></trkpt><trkpt lat="43.781209583117686" lon="11.579487806954061"><ele>910.9999999999999</ele><time>2026-04-28T09:44:06.999Z</time></trkpt><trkpt lat="43.7811188971566" lon="11.579578928826752"><ele>910.9999999999999</ele><time>2026-04-28T09:44:07.999Z</time></trkpt><trkpt lat="43.78101873685492" lon="11.579595553666021"><ele>911.0</ele><time>2026-04-28T09:44:08.999Z</time></trkpt><trkpt lat="43.780912922352215" lon="11.57958522608882"><ele>911.0</ele><time>2026-04-28T09:44:09.999Z</time></trkpt><trkpt lat="43.780823220171015" lon="11.579572252322516"><ele>912.1666666666667</ele><time>2026-04-28T09:44:10.999Z</time></trkpt><trkpt lat="43.78075044032075" lon="11.579642264756433"><ele>913.3333333333334</ele><time>2026-04-28T09:44:11.999Z</time></trkpt><trkpt lat="43.78067248684822" lon="11.579699881482219"><ele>914.5</ele><time>2026-04-28T09:44:12.999Z</time></trkpt><trkpt lat="43.780602301426654" lon="11.579795655298772"><ele>915.6666666666667</ele><time>2026-04-28T09:44:13.999Z</time></trkpt><trkpt lat="43.780548516201335" lon="11.579859771461274"><ele>916.8333333333334</ele><time>2026-04-28T09:44:14.999Z</time></trkpt><trkpt lat="43.780453077876025" lon="11.579837764436613"><ele>918.0</ele><time>2026-04-28T09:44:16.999Z</time></trkpt><trkpt lat="43.780337250863205" lon="11.579815312769064"><ele>918.0</ele><time>2026-04-28T09:44:18Z</time></trkpt><trkpt lat="43.78023689566065" lon="11.57977163276469"><ele>918.0</ele><time>2026-04-28T09:44:19Z</time></trkpt><trkpt lat="43.78012870234979" lon="11.579737195391914"><ele>918.0</ele><time>2026-04-28T09:44:20Z</time></trkpt><trkpt lat="43.78001272574234" lon="11.579702077320796"><ele>918.0</ele><time>2026-04-28T09:44:21Z</time></trkpt><trkpt lat="43.77989858638695" lon="11.579659759660563"><ele>919.2</ele><time>2026-04-28T09:44:22Z</time></trkpt><trkpt lat="43.779787652533294" lon="11.579626789530144"><ele>920.4</ele><time>2026-04-28T09:44:23Z</time></trkpt><trkpt lat="43.779678358214284" lon="11.579577988803265"><ele>921.6000000000001</ele><time>2026-04-28T09:44:24Z</time></trkpt><trkpt lat="43.77958413600906" lon="11.57954401192066"><ele>922.8000000000001</ele><time>2026-04-28T09:44:25Z</time></trkpt><trkpt lat="43.77949313605327" lon="11.579535312480456"><ele>924.0</ele><time>2026-04-28T09:44:26Z</time></trkpt><trkpt lat="43.77940026369976" lon="11.579537352574864"><ele>924.8000000000001</ele><time>2026-04-28T09:44:27Z</time></trkpt><trkpt lat="43.77931647887613" lon="11.579567870236096"><ele>925.6000000000001</ele><time>2026-04-28T09:44:28Z</time></trkpt><trkpt lat="43.779189376212955" lon="11.579620232806318"><ele>926.4</ele><time>2026-04-28T09:44:29Z</time></trkpt><trkpt lat="43.77907437750275" lon="11.579627647979695"><ele>927.2</ele><time>2026-04-28T09:44:30Z</time></trkpt><trkpt lat="43.778987131978276" lon="11.579668349932502"><ele>928.0</ele><time>2026-04-28T09:44:31Z</time></trkpt><trkpt lat="43.778894927397126" lon="11.579675776194513"><ele>927.9999999999999</ele><time>2026-04-28T09:44:32Z</time></trkpt><trkpt lat="43.778784125941385" lon="11.579701190981876"><ele>928.0</ele><time>2026-04-28T09:44:34Z</time></trkpt><trkpt lat="43.778716590823144" lon="11.579647329032866"><ele>928.0</ele><time>2026-04-28T09:44:36Z</time></trkpt><trkpt lat="43.77869687016116" lon="11.579506117396713"><ele>928.0</ele><time>2026-04-28T09:44:39Z</time></trkpt><trkpt lat="43.77873014442339" lon="11.579423398591048"><ele>927.9999999999999</ele><time>2026-04-28T09:44:40Z</time></trkpt><trkpt lat="43.77878739648945" lon="11.579335360612346"><ele>928.0</ele><time>2026-04-28T09:44:41Z</time></trkpt><trkpt lat="43.77883787819755" lon="11.57921840434449"><ele>926.0</ele><time>2026-04-28T09:44:42Z</time></trkpt><trkpt lat="43.778869075488565" lon="11.579067828837111"><ele>924.0</ele><time>2026-04-28T09:44:43Z</time></trkpt><trkpt lat="43.77892550264321" lon="11.578971701880914"><ele>922.0</ele><time>2026-04-28T09:44:44Z</time></trkpt><trkpt lat="43.778953574091354" lon="11.578855926906014"><ele>920.0</ele><time>2026-04-28T09:44:46Z</time></trkpt><trkpt lat="43.77891504338719" lon="11.578696217659049"><ele>918.0</ele><time>2026-04-28T09:44:48Z</time></trkpt><trkpt lat="43.77882712435911" lon="11.578626133583365"><ele>918.0</ele><time>2026-04-28T09:44:49Z</time></trkpt><trkpt lat="43.77875805072915" lon="11.578516643674561"><ele>918.0</ele><time>2026-04-28T09:44:50Z</time></trkpt><trkpt lat="43.778686140560076" lon="11.578397353828718"><ele>918.0</ele><time>2026-04-28T09:44:51Z</time></trkpt><trkpt lat="43.77864310758322" lon="11.578275317562728"><ele>918.0</ele><time>2026-04-28T09:44:52Z</time></trkpt><trkpt lat="43.778597169573985" lon="11.578153821066305"><ele>918.0</ele><time>2026-04-28T09:44:53Z</time></trkpt><trkpt lat="43.778539576628255" lon="11.578000902361294"><ele>919.4</ele><time>2026-04-28T09:44:55Z</time></trkpt><trkpt lat="43.77850714023945" lon="11.577920232497718"><ele>920.8</ele><time>2026-04-28T09:44:56Z</time></trkpt><trkpt lat="43.778465374045076" lon="11.57783436370884"><ele>922.2</ele><time>2026-04-28T09:44:57Z</time></trkpt><trkpt lat="43.778420671624524" lon="11.577743723562472"><ele>923.6</ele><time>2026-04-28T09:44:58Z</time></trkpt><trkpt lat="43.77830113057976" lon="11.57762264890166"><ele>925.0</ele><time>2026-04-28T09:45:00Z</time></trkpt><trkpt lat="43.778191952925695" lon="11.577603035672105"><ele>925.0</ele><time>2026-04-28T09:45:01Z</time></trkpt><trkpt lat="43.77805635717719" lon="11.577616392534837"><ele>925.0</ele><time>2026-04-28T09:45:02Z</time></trkpt><trkpt lat="43.777982224081825" lon="11.577639594778336"><ele>925.0</ele><time>2026-04-28T09:45:03Z</time></trkpt><trkpt lat="43.77789292108636" lon="11.577702457310831"><ele>925.0</ele><time>2026-04-28T09:45:05Z</time></trkpt><trkpt lat="43.777831630501495" lon="11.577677759647205"><ele>925.0</ele><time>2026-04-28T09:45:13.999Z</time></trkpt><trkpt lat="43.77778333399784" lon="11.577815533142918"><ele>925.4999999999999</ele><time>2026-04-28T09:45:24.999Z</time></trkpt><trkpt lat="43.77772447258794" lon="11.57789623588429"><ele>926.0</ele><time>2026-04-28T09:45:25.999Z</time></trkpt><trkpt lat="43.777659734103956" lon="11.57797646145453"><ele>926.5</ele><time>2026-04-28T09:45:26.999Z</time></trkpt><trkpt lat="43.77758806566203" lon="11.578044062641311"><ele>927.0</ele><time>2026-04-28T09:45:27.999Z</time></trkpt><trkpt lat="43.77752722962946" lon="11.578128109794191"><ele>927.4999999999999</ele><time>2026-04-28T09:45:28.999Z</time></trkpt><trkpt lat="43.77746549690969" lon="11.57822151165019"><ele>928.0</ele><time>2026-04-28T09:45:29.999Z</time></trkpt><trkpt lat="43.77735786059699" lon="11.578374193598778"><ele>931.0</ele><time>2026-04-28T09:45:30.999Z</time></trkpt><trkpt lat="43.77731152547255" lon="11.578522243358751"><ele>934.0</ele><time>2026-04-28T09:45:31.999Z</time></trkpt><trkpt lat="43.77727025489849" lon="11.578664296929114"><ele>937.0</ele><time>2026-04-28T09:45:32.999Z</time></trkpt><trkpt lat="43.777299461084496" lon="11.578826084859275"><ele>940.0</ele><time>2026-04-28T09:45:33.999Z</time></trkpt><trkpt lat="43.777294239359094" lon="11.578979186128526"><ele>941.4</ele><time>2026-04-28T09:45:34.999Z</time></trkpt><trkpt lat="43.77729625846261" lon="11.579129020841252"><ele>942.8</ele><time>2026-04-28T09:45:35.999Z</time></trkpt><trkpt lat="43.77731435379308" lon="11.579266101763427"><ele>944.2</ele><time>2026-04-28T09:45:36.999Z</time></trkpt><trkpt lat="43.77733576384037" lon="11.579394231645454"><ele>945.6</ele><time>2026-04-28T09:45:37.999Z</time></trkpt><trkpt lat="43.777339768123326" lon="11.579529230528065"><ele>947.0</ele><time>2026-04-28T09:45:38.999Z</time></trkpt><trkpt lat="43.77737430410786" lon="11.579644396693128"><ele>947.2</ele><time>2026-04-28T09:45:39.999Z</time></trkpt><trkpt lat="43.777366476341705" lon="11.579763940380767"><ele>947.4000000000001</ele><time>2026-04-28T09:45:40.999Z</time></trkpt><trkpt lat="43.777354518726796" lon="11.579866568117716"><ele>947.5999999999999</ele><time>2026-04-28T09:45:41.999Z</time></trkpt><trkpt lat="43.77723867578539" lon="11.57998823976934"><ele>947.8</ele><time>2026-04-28T09:45:43.999Z</time></trkpt><trkpt lat="43.77717416591002" lon="11.57998239237775"><ele>948.0</ele><time>2026-04-28T09:45:44.999Z</time></trkpt><trkpt lat="43.777094616108265" lon="11.57996526484601"><ele>948.0</ele><time>2026-04-28T09:45:45.999Z</time></trkpt><trkpt lat="43.777018100593466" lon="11.579909637486649"><ele>948.0</ele><time>2026-04-28T09:45:46.999Z</time></trkpt><trkpt lat="43.776956395405215" lon="11.579824918841478"><ele>948.0</ele><time>2026-04-28T09:45:47.999Z</time></trkpt><trkpt lat="43.77689110614235" lon="11.579727831503048"><ele>948.0</ele><time>2026-04-28T09:45:48.999Z</time></trkpt><trkpt lat="43.77683322107247" lon="11.57958152361566"><ele>948.0</ele><time>2026-04-28T09:45:49.999Z</time></trkpt><trkpt lat="43.77677611265834" lon="11.57940962277286"><ele>953.25</ele><time>2026-04-28T09:45:50.999Z</time></trkpt><trkpt lat="43.77671092590564" lon="11.579252154916885"><ele>958.5</ele><time>2026-04-28T09:45:51.999Z</time></trkpt><trkpt lat="43.776628851546654" lon="11.579080006467722"><ele>963.75</ele><time>2026-04-28T09:45:52.999Z</time></trkpt><trkpt lat="43.77655011543827" lon="11.578933935391422"><ele>969.0</ele><time>2026-04-28T09:45:53.999Z</time></trkpt><trkpt lat="43.77647888835308" lon="11.578789030061209"><ele>967.0</ele><time>2026-04-28T09:45:54.999Z</time></trkpt><trkpt lat="43.776423893586845" lon="11.578666669572886"><ele>965.0</ele><time>2026-04-28T09:45:55.999Z</time></trkpt><trkpt lat="43.77636115963529" lon="11.578542943212726"><ele>963.0</ele><time>2026-04-28T09:45:56.999Z</time></trkpt><trkpt lat="43.77624274254388" lon="11.57843304137338"><ele>961.0</ele><time>2026-04-28T09:45:57.999Z</time></trkpt><trkpt lat="43.776130896818316" lon="11.578346288272998"><ele>961.0</ele><time>2026-04-28T09:45:58.999Z</time></trkpt><trkpt lat="43.776030979230605" lon="11.578274075218198"><ele>960.9999999999999</ele><time>2026-04-28T09:45:59.999Z</time></trkpt><trkpt lat="43.775939189273146" lon="11.578194251653054"><ele>960.9999999999999</ele><time>2026-04-28T09:46:00.999Z</time></trkpt><trkpt lat="43.775862921044045" lon="11.578094573378007"><ele>961.0</ele><time>2026-04-28T09:46:01.999Z</time></trkpt><trkpt lat="43.77578266181871" lon="11.578070153908495"><ele>961.0</ele><time>2026-04-28T09:46:02.999Z</time></trkpt><trkpt lat="43.77570808458874" lon="11.578041805522004"><ele>962.6666666666666</ele><time>2026-04-28T09:46:04.999Z</time></trkpt><trkpt lat="43.77570128149263" lon="11.5779139953977"><ele>964.3333333333333</ele><time>2026-04-28T09:46:25Z</time></trkpt><trkpt lat="43.77568755895143" lon="11.577826778816455"><ele>966.0</ele><time>2026-04-28T09:46:26Z</time></trkpt><trkpt lat="43.77565258311402" lon="11.577745953961596"><ele>967.6666666666667</ele><time>2026-04-28T09:46:27Z</time></trkpt><trkpt lat="43.77560410211087" lon="11.577655300968487"><ele>969.3333333333334</ele><time>2026-04-28T09:46:28Z</time></trkpt><trkpt lat="43.77555023350988" lon="11.577555435055604"><ele>971.0</ele><time>2026-04-28T09:46:29Z</time></trkpt><trkpt lat="43.77547287817747" lon="11.57749677384298"><ele>971.0</ele><time>2026-04-28T09:46:30Z</time></trkpt><trkpt lat="43.775435306017584" lon="11.577388417271582"><ele>970.9999999999999</ele><time>2026-04-28T09:46:31Z</time></trkpt><trkpt lat="43.775395161035746" lon="11.57726880303621"><ele>970.9999999999999</ele><time>2026-04-28T09:46:32Z</time></trkpt><trkpt lat="43.77534880747143" lon="11.57714001562225"><ele>971.0</ele><time>2026-04-28T09:46:33Z</time></trkpt><trkpt lat="43.77530937415499" lon="11.577030976239262"><ele>971.0</ele><time>2026-04-28T09:46:34Z</time></trkpt><trkpt lat="43.77528979605857" lon="11.576912657534656"><ele>972.4</ele><time>2026-04-28T09:46:35Z</time></trkpt><trkpt lat="43.77526131057946" lon="11.576793560844994"><ele>973.8</ele><time>2026-04-28T09:46:36Z</time></trkpt><trkpt lat="43.775232384341656" lon="11.576662052636706"><ele>975.1999999999999</ele><time>2026-04-28T09:46:37Z</time></trkpt><trkpt lat="43.77520376247414" lon="11.576527126679279"><ele>976.5999999999999</ele><time>2026-04-28T09:46:38Z</time></trkpt><trkpt lat="43.77517527535172" lon="11.576393660030309"><ele>978.0</ele><time>2026-04-28T09:46:39Z</time></trkpt><trkpt lat="43.77514979310238" lon="11.576278317706594"><ele>978.0</ele><time>2026-04-28T09:46:40Z</time></trkpt><trkpt lat="43.77509414522729" lon="11.57616779838103"><ele>978.0</ele><time>2026-04-28T09:46:41Z</time></trkpt><trkpt lat="43.77505916180336" lon="11.576037979712762"><ele>978.0</ele><time>2026-04-28T09:46:42Z</time></trkpt><trkpt lat="43.7750070667669" lon="11.575897117357387"><ele>978.0</ele><time>2026-04-28T09:46:43Z</time></trkpt><trkpt lat="43.774944916622076" lon="11.575747434946942"><ele>978.0</ele><time>2026-04-28T09:46:44Z</time></trkpt><trkpt lat="43.77488603278056" lon="11.575596818938314"><ele>978.0</ele><time>2026-04-28T09:46:45Z</time></trkpt><trkpt lat="43.77482901513418" lon="11.575456084966351"><ele>978.0</ele><time>2026-04-28T09:46:46Z</time></trkpt><trkpt lat="43.774764974371195" lon="11.575339444394686"><ele>978.0</ele><time>2026-04-28T09:46:47Z</time></trkpt><trkpt lat="43.77470579987104" lon="11.57521124660484"><ele>978.0</ele><time>2026-04-28T09:46:48Z</time></trkpt><trkpt lat="43.774650863380806" lon="11.575088359780608"><ele>978.0</ele><time>2026-04-28T09:46:49Z</time></trkpt><trkpt lat="43.774599557642496" lon="11.574958407326193"><ele>977.5999999999999</ele><time>2026-04-28T09:46:50Z</time></trkpt><trkpt lat="43.774562430012914" lon="11.574830585470076"><ele>977.1999999999999</ele><time>2026-04-28T09:46:51Z</time></trkpt><trkpt lat="43.774524458623006" lon="11.574703972619126"><ele>976.8</ele><time>2026-04-28T09:46:52Z</time></trkpt><trkpt lat="43.77449810702934" lon="11.574588528177053"><ele>976.4</ele><time>2026-04-28T09:46:53Z</time></trkpt><trkpt lat="43.77447592049657" lon="11.574472219084454"><ele>976.0</ele><time>2026-04-28T09:46:54Z</time></trkpt><trkpt lat="43.774471166976184" lon="11.574343980626683"><ele>975.8</ele><time>2026-04-28T09:46:55Z</time></trkpt><trkpt lat="43.77445481748418" lon="11.574200422741441"><ele>975.5999999999999</ele><time>2026-04-28T09:46:56Z</time></trkpt><trkpt lat="43.774444179466485" lon="11.574073706611793"><ele>975.4</ele><time>2026-04-28T09:46:57Z</time></trkpt><trkpt lat="43.774435350823616" lon="11.573973988337686"><ele>975.2</ele><time>2026-04-28T09:46:58Z</time></trkpt><trkpt lat="43.77442950823019" lon="11.573803952158498"><ele>975.0</ele><time>2026-04-28T09:47:00Z</time></trkpt><trkpt lat="43.7744118406315" lon="11.573643726566708"><ele>974.5</ele><time>2026-04-28T09:47:02Z</time></trkpt><trkpt lat="43.7743696455891" lon="11.573556924879703"><ele>974.0</ele><time>2026-04-28T09:47:03Z</time></trkpt><trkpt lat="43.774336294300916" lon="11.573450346320088"><ele>973.5</ele><time>2026-04-28T09:47:04Z</time></trkpt><trkpt lat="43.774295553038584" lon="11.573353692770375"><ele>973.0</ele><time>2026-04-28T09:47:05Z</time></trkpt><trkpt lat="43.774251565183825" lon="11.573273207812852"><ele>972.5</ele><time>2026-04-28T09:47:06Z</time></trkpt><trkpt lat="43.77418786914398" lon="11.573199559709023"><ele>972.0</ele><time>2026-04-28T09:47:06.999Z</time></trkpt><trkpt lat="43.77412049827986" lon="11.57313330752911"><ele>972.0</ele><time>2026-04-28T09:47:07.999Z</time></trkpt><trkpt lat="43.77404640812425" lon="11.57307605065562"><ele>972.0</ele><time>2026-04-28T09:47:08.999Z</time></trkpt><trkpt lat="43.773996635510976" lon="11.572998866128454"><ele>972.0</ele><time>2026-04-28T09:47:09.999Z</time></trkpt><trkpt lat="43.77394311678121" lon="11.57292704852475"><ele>972.0</ele><time>2026-04-28T09:47:10.999Z</time></trkpt><trkpt lat="43.773889516501676" lon="11.572864799721513"><ele>972.0</ele><time>2026-04-28T09:47:11.999Z</time></trkpt><trkpt lat="43.77382896929318" lon="11.572810729134014"><ele>972.0</ele><time>2026-04-28T09:47:12.999Z</time></trkpt><trkpt lat="43.77372711012422" lon="11.572731884338902"><ele>970.0</ele><time>2026-04-28T09:47:14.999Z</time></trkpt><trkpt lat="43.77363334868439" lon="11.572667632695072"><ele>968.0</ele><time>2026-04-28T09:47:16.999Z</time></trkpt><trkpt lat="43.77353514970511" lon="11.572607958728494"><ele>966.0</ele><time>2026-04-28T09:47:18.999Z</time></trkpt><trkpt lat="43.77344913254903" lon="11.572533288652139"><ele>964.0</ele><time>2026-04-28T09:47:20.999Z</time></trkpt><trkpt lat="43.773375733799625" lon="11.572437143574875"><ele>962.0</ele><time>2026-04-28T09:47:22.999Z</time></trkpt><trkpt lat="43.773336935387114" lon="11.57235039963405"><ele>961.6666666666667</ele><time>2026-04-28T09:47:23.999Z</time></trkpt><trkpt lat="43.77331662779644" lon="11.572241148464828"><ele>961.3333333333334</ele><time>2026-04-28T09:47:24.999Z</time></trkpt><trkpt lat="43.773285970307654" lon="11.572113802252623"><ele>961.0</ele><time>2026-04-28T09:47:25.999Z</time></trkpt><trkpt lat="43.77327650313217" lon="11.572007557036725"><ele>960.6666666666667</ele><time>2026-04-28T09:47:26.999Z</time></trkpt><trkpt lat="43.773253642082715" lon="11.5719112628661"><ele>960.3333333333334</ele><time>2026-04-28T09:47:27.999Z</time></trkpt><trkpt lat="43.77322391564737" lon="11.571788843968585"><ele>960.0</ele><time>2026-04-28T09:47:28.999Z</time></trkpt><trkpt lat="43.77320296303042" lon="11.571670948547808"><ele>960.0</ele><time>2026-04-28T09:47:29.999Z</time></trkpt><trkpt lat="43.77319322847481" lon="11.571546970466493"><ele>960.0</ele><time>2026-04-28T09:47:30.999Z</time></trkpt><trkpt lat="43.773154067830895" lon="11.571408036889954"><ele>960.0</ele><time>2026-04-28T09:47:31.999Z</time></trkpt><trkpt lat="43.77309756624238" lon="11.571334230999254"><ele>960.0</ele><time>2026-04-28T09:47:32.999Z</time></trkpt><trkpt lat="43.77308021392717" lon="11.571236296304361"><ele>960.0</ele><time>2026-04-28T09:47:33.999Z</time></trkpt><trkpt lat="43.77305019175791" lon="11.571129644144305"><ele>960.0</ele><time>2026-04-28T09:47:34.999Z</time></trkpt><trkpt lat="43.77301433000939" lon="11.570967858880469"><ele>960.0</ele><time>2026-04-28T09:47:36.999Z</time></trkpt><trkpt lat="43.772988653271746" lon="11.570884520418852"><ele>960.0</ele><time>2026-04-28T09:47:37.999Z</time></trkpt><trkpt lat="43.772977530394705" lon="11.570785155979289"><ele>960.0</ele><time>2026-04-28T09:47:38.999Z</time></trkpt><trkpt lat="43.77294722095721" lon="11.570696591568943"><ele>960.0</ele><time>2026-04-28T09:47:39.999Z</time></trkpt><trkpt lat="43.77292732101653" lon="11.570586562086454"><ele>960.0</ele><time>2026-04-28T09:47:40.999Z</time></trkpt><trkpt lat="43.77291827415347" lon="11.57046384573044"><ele>960.0</ele><time>2026-04-28T09:47:41.999Z</time></trkpt><trkpt lat="43.77285158025287" lon="11.57033115349318"><ele>960.6</ele><time>2026-04-28T09:47:42.999Z</time></trkpt><trkpt lat="43.772800870537" lon="11.570202611714937"><ele>961.2</ele><time>2026-04-28T09:47:43.999Z</time></trkpt><trkpt lat="43.772764278480416" lon="11.570113211419507"><ele>961.8</ele><time>2026-04-28T09:47:44.999Z</time></trkpt><trkpt lat="43.77276196641662" lon="11.56990799005624"><ele>962.4</ele><time>2026-04-28T09:47:46.999Z</time></trkpt><trkpt lat="43.77275734777924" lon="11.569806310071261"><ele>963.0</ele><time>2026-04-28T09:47:47.999Z</time></trkpt><trkpt lat="43.77271567140574" lon="11.569719496031851"><ele>963.3333333333334</ele><time>2026-04-28T09:47:48.999Z</time></trkpt><trkpt lat="43.772662137145055" lon="11.569671325736115"><ele>963.6666666666667</ele><time>2026-04-28T09:47:49.999Z</time></trkpt><trkpt lat="43.77260680064272" lon="11.56962210317307"><ele>964.0</ele><time>2026-04-28T09:47:50.999Z</time></trkpt><trkpt lat="43.77254658521091" lon="11.569587118707082"><ele>964.3333333333334</ele><time>2026-04-28T09:47:51.999Z</time></trkpt><trkpt lat="43.77247213496364" lon="11.569564438622283"><ele>964.6666666666667</ele><time>2026-04-28T09:47:52.999Z</time></trkpt><trkpt lat="43.77240663963155" lon="11.56953766957359"><ele>965.0</ele><time>2026-04-28T09:47:53.999Z</time></trkpt><trkpt lat="43.77229594926395" lon="11.569484497553432"><ele>967.6</ele><time>2026-04-28T09:47:55.999Z</time></trkpt><trkpt lat="43.77224111170008" lon="11.569437675070459"><ele>970.2</ele><time>2026-04-28T09:47:56.999Z</time></trkpt><trkpt lat="43.772168007253576" lon="11.569371891799339"><ele>972.8</ele><time>2026-04-28T09:47:57.999Z</time></trkpt><trkpt lat="43.77205743913307" lon="11.569275536072027"><ele>975.4</ele><time>2026-04-28T09:47:59.999Z</time></trkpt><trkpt lat="43.7719570075774" lon="11.569195570247317"><ele>978.0</ele><time>2026-04-28T09:48:01.999Z</time></trkpt><trkpt lat="43.77190666783265" lon="11.569135346579518"><ele>978.8333333333334</ele><time>2026-04-28T09:48:02.999Z</time></trkpt><trkpt lat="43.771855752578865" lon="11.56907425175149"><ele>979.6666666666667</ele><time>2026-04-28T09:48:03.999Z</time></trkpt><trkpt lat="43.771798668527445" lon="11.569014320499258"><ele>980.5</ele><time>2026-04-28T09:48:04.999Z</time></trkpt><trkpt lat="43.771736108858654" lon="11.568949478133229"><ele>981.3333333333334</ele><time>2026-04-28T09:48:05.999Z</time></trkpt><trkpt lat="43.77168760582331" lon="11.568883902131601"><ele>982.1666666666667</ele><time>2026-04-28T09:48:06.999Z</time></trkpt><trkpt lat="43.771603648289656" lon="11.568789623349947"><ele>983.0</ele><time>2026-04-28T09:48:08.999Z</time></trkpt><trkpt lat="43.77153898205617" lon="11.568692289373232"><ele>986.0</ele><time>2026-04-28T09:48:10.999Z</time></trkpt><trkpt lat="43.77146777569745" lon="11.568609136627051"><ele>989.0</ele><time>2026-04-28T09:48:12.999Z</time></trkpt><trkpt lat="43.77144132064002" lon="11.568513894375343"><ele>992.0</ele><time>2026-04-28T09:48:14.999Z</time></trkpt><trkpt lat="43.77151319109851" lon="11.568236345862827"><ele>995.0</ele><time>2026-04-28T09:48:16.999Z</time></trkpt><trkpt lat="43.77146717647488" lon="11.568112618816201"><ele>995.0000000000001</ele><time>2026-04-28T09:48:18.999Z</time></trkpt><trkpt lat="43.77144334223822" lon="11.568029918239555"><ele>995.0</ele><time>2026-04-28T09:48:19.999Z</time></trkpt><trkpt lat="43.77141426342397" lon="11.567925445590266"><ele>995.0</ele><time>2026-04-28T09:48:20.999Z</time></trkpt><trkpt lat="43.77137609773496" lon="11.567831388009687"><ele>995.0</ele><time>2026-04-28T09:48:21.999Z</time></trkpt><trkpt lat="43.77133550928542" lon="11.567708161635183"><ele>995.0000000000001</ele><time>2026-04-28T09:48:22.999Z</time></trkpt><trkpt lat="43.77129198126521" lon="11.567633456441198"><ele>995.0</ele><time>2026-04-28T09:48:23.998Z</time></trkpt><trkpt lat="43.771233467646745" lon="11.56748442665674"><ele>996.6666666666667</ele><time>2026-04-28T09:48:25.998Z</time></trkpt><trkpt lat="43.771204257100045" lon="11.567402011208243"><ele>998.3333333333334</ele><time>2026-04-28T09:48:26.998Z</time></trkpt><trkpt lat="43.77116870031541" lon="11.567306449287969"><ele>1000.0</ele><time>2026-04-28T09:48:27.998Z</time></trkpt><trkpt lat="43.77112152223289" lon="11.567204601025303"><ele>1001.6666666666667</ele><time>2026-04-28T09:48:28.998Z</time></trkpt><trkpt lat="43.77107622861787" lon="11.567091739048095"><ele>1003.3333333333334</ele><time>2026-04-28T09:48:30Z</time></trkpt><trkpt lat="43.77103404078273" lon="11.567010382240978"><ele>1005.0</ele><time>2026-04-28T09:48:31Z</time></trkpt><trkpt lat="43.77100171658826" lon="11.566919462128702"><ele>1007.0</ele><time>2026-04-28T09:48:32Z</time></trkpt><trkpt lat="43.77095793630515" lon="11.566845484688729"><ele>1009.0</ele><time>2026-04-28T09:48:33Z</time></trkpt><trkpt lat="43.77088535489387" lon="11.566716849764523"><ele>1011.0</ele><time>2026-04-28T09:48:35Z</time></trkpt><trkpt lat="43.7708517891284" lon="11.566637258425084"><ele>1013.0</ele><time>2026-04-28T09:48:36Z</time></trkpt><trkpt lat="43.7708290683019" lon="11.566551490692186"><ele>1015.0</ele><time>2026-04-28T09:48:37Z</time></trkpt><trkpt lat="43.770802586987706" lon="11.566471950469806"><ele>1017.0</ele><time>2026-04-28T09:48:38Z</time></trkpt><trkpt lat="43.77071848299678" lon="11.566319433960606"><ele>1017.0</ele><time>2026-04-28T09:48:40Z</time></trkpt><trkpt lat="43.77068280212966" lon="11.566236270339191"><ele>1017.0</ele><time>2026-04-28T09:48:41Z</time></trkpt><trkpt lat="43.77065707456794" lon="11.566147562977239"><ele>1017.0</ele><time>2026-04-28T09:48:42Z</time></trkpt><trkpt lat="43.770619440990345" lon="11.566070937705305"><ele>1017.0</ele><time>2026-04-28T09:48:43Z</time></trkpt><trkpt lat="43.770590980002325" lon="11.56593508582018"><ele>1017.0</ele><time>2026-04-28T09:48:45Z</time></trkpt><trkpt lat="43.77054022819715" lon="11.565834692743422"><ele>1017.0</ele><time>2026-04-28T09:48:46Z</time></trkpt><trkpt lat="43.77048388701868" lon="11.565737655851688"><ele>1019.4000000000001</ele><time>2026-04-28T09:48:47Z</time></trkpt><trkpt lat="43.77038852163433" lon="11.565629997358231"><ele>1021.8000000000001</ele><time>2026-04-28T09:48:49Z</time></trkpt><trkpt lat="43.770336619944814" lon="11.56558008715727"><ele>1024.2</ele><time>2026-04-28T09:48:50Z</time></trkpt><trkpt lat="43.770272672281486" lon="11.565482728299171"><ele>1026.6000000000001</ele><time>2026-04-28T09:48:52Z</time></trkpt><trkpt lat="43.7702180389268" lon="11.565374839162132"><ele>1029.0</ele><time>2026-04-28T09:48:54Z</time></trkpt><trkpt lat="43.77017027680692" lon="11.565200862911457"><ele>1031.8</ele><time>2026-04-28T09:48:56Z</time></trkpt><trkpt lat="43.77015604700319" lon="11.565091654474248"><ele>1034.6000000000001</ele><time>2026-04-28T09:48:57Z</time></trkpt><trkpt lat="43.77014458713653" lon="11.564999397288002"><ele>1037.4</ele><time>2026-04-28T09:48:58Z</time></trkpt><trkpt lat="43.770109112726765" lon="11.564851021460585"><ele>1040.2</ele><time>2026-04-28T09:49:00Z</time></trkpt><trkpt lat="43.77010867754033" lon="11.56471323510155"><ele>1043.0</ele><time>2026-04-28T09:49:02Z</time></trkpt><trkpt lat="43.77009541774327" lon="11.564560022599306"><ele>1043.4</ele><time>2026-04-28T09:49:04Z</time></trkpt><trkpt lat="43.770083352440835" lon="11.564395697902484"><ele>1043.8</ele><time>2026-04-28T09:49:06Z</time></trkpt><trkpt lat="43.77005030119871" lon="11.564252637613247"><ele>1044.2</ele><time>2026-04-28T09:49:08Z</time></trkpt><trkpt lat="43.770028107164855" lon="11.564122993507125"><ele>1044.6</ele><time>2026-04-28T09:49:10Z</time></trkpt><trkpt lat="43.77000493022663" lon="11.56403243576824"><ele>1045.0</ele><time>2026-04-28T09:49:15Z</time></trkpt><trkpt lat="43.76995450205131" lon="11.563927356785557"><ele>1045.0</ele><time>2026-04-28T09:50:55Z</time></trkpt><trkpt lat="43.76987841938534" lon="11.563884796556723"><ele>1045.0</ele><time>2026-04-28T09:50:57Z</time></trkpt><trkpt lat="43.76978947524575" lon="11.56385963569468"><ele>1045.0</ele><time>2026-04-28T09:51:00Z</time></trkpt><trkpt lat="43.76972069144405" lon="11.563863972846542"><ele>1045.0</ele><time>2026-04-28T09:51:02Z</time></trkpt><trkpt lat="43.7696536781439" lon="11.563851848755611"><ele>1045.0</ele><time>2026-04-28T09:51:10Z</time></trkpt><trkpt lat="43.76960241180903" lon="11.563781888395573"><ele>1045.0</ele><time>2026-04-28T09:53:52.999Z</time></trkpt><trkpt lat="43.769659414816445" lon="11.56382720349138"><ele>1045.0</ele><time>2026-04-28T09:55:05.998Z</time></trkpt><trkpt lat="43.76960009050575" lon="11.563769135286643"><ele>1045.0</ele><time>2026-04-28T09:59:20.999Z</time></trkpt><trkpt lat="43.76953707101994" lon="11.563716325868171"><ele>1045.0</ele><time>2026-04-28T09:59:26.999Z</time></trkpt><trkpt lat="43.76959369300504" lon="11.563765978156583"><ele>1045.0</ele><time>2026-04-28T09:59:46.999Z</time></trkpt><trkpt lat="43.769645246994806" lon="11.563825796587686"><ele>1045.0</ele><time>2026-04-28T09:59:53.999Z</time></trkpt><trkpt lat="43.769615034772734" lon="11.563907180109661"><ele>1045.0</ele><time>2026-04-28T10:06:16.001Z</time></trkpt><trkpt lat="43.769665788900376" lon="11.563847875245948"><ele>1045.0</ele><time>2026-04-28T10:07:01.001Z</time></trkpt><trkpt lat="43.76972929348863" lon="11.56386904563722"><ele>1045.0</ele><time>2026-04-28T10:07:42.001Z</time></trkpt><trkpt lat="43.76965473605649" lon="11.563885545703695"><ele>1045.0</ele><time>2026-04-28T10:09:15Z</time></trkpt><trkpt lat="43.76975285936253" lon="11.563912101870224"><ele>1045.0</ele><time>2026-04-28T10:12:27Z</time></trkpt><trkpt lat="43.76981766037757" lon="11.563923007505405"><ele>1045.0</ele><time>2026-04-28T10:12:28Z</time></trkpt><trkpt lat="43.76988949596767" lon="11.563920375844775"><ele>1045.0</ele><time>2026-04-28T10:12:31Z</time></trkpt><trkpt lat="43.76994208215244" lon="11.563971559008925"><ele>1045.0</ele><time>2026-04-28T10:13:06Z</time></trkpt><trkpt lat="43.76997356310193" lon="11.564112132345983"><ele>1045.0</ele><time>2026-04-28T10:13:08Z</time></trkpt><trkpt lat="43.76997561853157" lon="11.564203560986064"><ele>1045.0</ele><time>2026-04-28T10:13:09Z</time></trkpt><trkpt lat="43.7699867021348" lon="11.564344702529848"><ele>1045.0</ele><time>2026-04-28T10:13:11Z</time></trkpt><trkpt lat="43.770018411169836" lon="11.564447633562759"><ele>1045.0</ele><time>2026-04-28T10:13:13Z</time></trkpt><trkpt lat="43.77004923697948" lon="11.564623262318811"><ele>1045.0</ele><time>2026-04-28T10:13:15Z</time></trkpt><trkpt lat="43.77007732208701" lon="11.56472391516824"><ele>1045.0</ele><time>2026-04-28T10:13:17Z</time></trkpt><trkpt lat="43.770097612621555" lon="11.564814765353121"><ele>1044.6666666666665</ele><time>2026-04-28T10:13:18Z</time></trkpt><trkpt lat="43.77012559162671" lon="11.5649295653417"><ele>1044.3333333333333</ele><time>2026-04-28T10:13:20Z</time></trkpt><trkpt lat="43.77016187180427" lon="11.565004589544325"><ele>1044.0</ele><time>2026-04-28T10:13:22Z</time></trkpt><trkpt lat="43.77019894560268" lon="11.565116259344352"><ele>1043.6666666666667</ele><time>2026-04-28T10:13:34Z</time></trkpt><trkpt lat="43.77022886617865" lon="11.565234062834941"><ele>1043.3333333333335</ele><time>2026-04-28T10:13:37Z</time></trkpt><trkpt lat="43.77028218836819" lon="11.565342789503282"><ele>1043.0</ele><time>2026-04-28T10:13:40Z</time></trkpt><trkpt lat="43.770317845309364" lon="11.565452695417134"><ele>1040.6666666666667</ele><time>2026-04-28T10:13:42.001Z</time></trkpt><trkpt lat="43.77036018427319" lon="11.56552189876158"><ele>1038.3333333333335</ele><time>2026-04-28T10:13:44.001Z</time></trkpt><trkpt lat="43.77042770455605" lon="11.565594487415403"><ele>1036.0</ele><time>2026-04-28T10:13:46.001Z</time></trkpt><trkpt lat="43.77049592905327" lon="11.56568696327086"><ele>1033.6666666666667</ele><time>2026-04-28T10:13:48.001Z</time></trkpt><trkpt lat="43.770550766544595" lon="11.565791623687218"><ele>1031.3333333333333</ele><time>2026-04-28T10:13:50.001Z</time></trkpt><trkpt lat="43.77059574393454" lon="11.565924502985892"><ele>1029.0</ele><time>2026-04-28T10:13:52.001Z</time></trkpt><trkpt lat="43.770645821968266" lon="11.566034162417935"><ele>1029.0</ele><time>2026-04-28T10:13:54.001Z</time></trkpt><trkpt lat="43.770681180578315" lon="11.566112245442866"><ele>1029.0</ele><time>2026-04-28T10:13:56.001Z</time></trkpt><trkpt lat="43.77072435802995" lon="11.566269155199228"><ele>1029.0</ele><time>2026-04-28T10:13:58.001Z</time></trkpt><trkpt lat="43.770768205460534" lon="11.566402493691653"><ele>1029.0</ele><time>2026-04-28T10:14:00.001Z</time></trkpt><trkpt lat="43.770821105079264" lon="11.566513729163894"><ele>1029.0</ele><time>2026-04-28T10:14:02.001Z</time></trkpt><trkpt lat="43.77087608008563" lon="11.56662136891256"><ele>1027.0</ele><time>2026-04-28T10:14:04.001Z</time></trkpt><trkpt lat="43.77093335267465" lon="11.566730030330799"><ele>1025.0</ele><time>2026-04-28T10:14:06.001Z</time></trkpt><trkpt lat="43.77098130787745" lon="11.566846282114373"><ele>1023.0</ele><time>2026-04-28T10:14:08Z</time></trkpt><trkpt lat="43.7710283286291" lon="11.566940598066028"><ele>1021.0</ele><time>2026-04-28T10:14:10Z</time></trkpt><trkpt lat="43.77107854440442" lon="11.56705844301474"><ele>1019.0</ele><time>2026-04-28T10:14:12Z</time></trkpt><trkpt lat="43.77111567489531" lon="11.567134996817792"><ele>1017.0</ele><time>2026-04-28T10:14:13Z</time></trkpt><trkpt lat="43.771171195525945" lon="11.567277259935588"><ele>1014.6</ele><time>2026-04-28T10:14:15Z</time></trkpt><trkpt lat="43.77123262795637" lon="11.567415420909319"><ele>1012.2</ele><time>2026-04-28T10:14:17Z</time></trkpt><trkpt lat="43.77125271543716" lon="11.567509122939317"><ele>1009.8</ele><time>2026-04-28T10:14:18Z</time></trkpt><trkpt lat="43.77131993366247" lon="11.567632270055677"><ele>1007.4</ele><time>2026-04-28T10:14:20Z</time></trkpt><trkpt lat="43.77136781684353" lon="11.567768830736961"><ele>1005.0</ele><time>2026-04-28T10:14:22Z</time></trkpt><trkpt lat="43.771389187830486" lon="11.567853551940155"><ele>1003.3333333333334</ele><time>2026-04-28T10:14:23Z</time></trkpt><trkpt lat="43.77141847892639" lon="11.56793957898342"><ele>1001.6666666666667</ele><time>2026-04-28T10:14:24Z</time></trkpt><trkpt lat="43.77145852298892" lon="11.568059797984175"><ele>1000.0</ele><time>2026-04-28T10:14:26Z</time></trkpt><trkpt lat="43.77150560698676" lon="11.568187533043945"><ele>998.3333333333334</ele><time>2026-04-28T10:14:28Z</time></trkpt><trkpt lat="43.77154811312501" lon="11.568289365340565"><ele>996.6666666666667</ele><time>2026-04-28T10:14:30Z</time></trkpt><trkpt lat="43.771558581933874" lon="11.56841850411345"><ele>995.0</ele><time>2026-04-28T10:14:32Z</time></trkpt><trkpt lat="43.77159248361251" lon="11.568561744473277"><ele>995.0000000000001</ele><time>2026-04-28T10:14:34Z</time></trkpt><trkpt lat="43.771604536831624" lon="11.56865181363795"><ele>995.0</ele><time>2026-04-28T10:14:35Z</time></trkpt><trkpt lat="43.771661542710554" lon="11.5687879468501"><ele>995.0</ele><time>2026-04-28T10:14:37Z</time></trkpt><trkpt lat="43.77170134151642" lon="11.568862219792464"><ele>995.0</ele><time>2026-04-28T10:14:38Z</time></trkpt><trkpt lat="43.77176381078408" lon="11.568903798230183"><ele>995.0000000000001</ele><time>2026-04-28T10:14:39Z</time></trkpt><trkpt lat="43.77181899096389" lon="11.568978085863181"><ele>995.0</ele><time>2026-04-28T10:14:40Z</time></trkpt><trkpt lat="43.771907580120235" lon="11.56908209668633"><ele>991.6</ele><time>2026-04-28T10:14:42Z</time></trkpt><trkpt lat="43.77199847041637" lon="11.569184021215793"><ele>988.2</ele><time>2026-04-28T10:14:44Z</time></trkpt><trkpt lat="43.772084325606535" lon="11.569277045146023"><ele>984.8</ele><time>2026-04-28T10:14:46Z</time></trkpt><trkpt lat="43.772186817134454" lon="11.569358070354687"><ele>981.4</ele><time>2026-04-28T10:14:48Z</time></trkpt><trkpt lat="43.77225058887442" lon="11.569419021647654"><ele>978.0</ele><time>2026-04-28T10:14:49Z</time></trkpt><trkpt lat="43.77230979554399" lon="11.569458719261897"><ele>975.4</ele><time>2026-04-28T10:14:50Z</time></trkpt><trkpt lat="43.772407145011925" lon="11.569525657945412"><ele>972.8</ele><time>2026-04-28T10:14:52Z</time></trkpt><trkpt lat="43.772468760298416" lon="11.56956097159006"><ele>970.2</ele><time>2026-04-28T10:14:53Z</time></trkpt><trkpt lat="43.77253238120208" lon="11.569586642595047"><ele>967.6</ele><time>2026-04-28T10:14:54Z</time></trkpt><trkpt lat="43.7726386586826" lon="11.56965010167175"><ele>965.0</ele><time>2026-04-28T10:14:56Z</time></trkpt><trkpt lat="43.77271207969873" lon="11.56975146967947"><ele>964.6666666666667</ele><time>2026-04-28T10:14:58Z</time></trkpt><trkpt lat="43.77276582781218" lon="11.569919211382455"><ele>964.3333333333334</ele><time>2026-04-28T10:15:00Z</time></trkpt><trkpt lat="43.772772155330074" lon="11.570032318554045"><ele>964.0</ele><time>2026-04-28T10:15:01Z</time></trkpt><trkpt lat="43.77276829251439" lon="11.570151481973474"><ele>963.6666666666667</ele><time>2026-04-28T10:15:02Z</time></trkpt><trkpt lat="43.7727844748092" lon="11.570250826295137"><ele>963.3333333333334</ele><time>2026-04-28T10:15:03Z</time></trkpt><trkpt lat="43.77281670467256" lon="11.570338424844682"><ele>963.0</ele><time>2026-04-28T10:15:04Z</time></trkpt><trkpt lat="43.772857366796956" lon="11.570431339765685"><ele>962.5</ele><time>2026-04-28T10:15:05Z</time></trkpt><trkpt lat="43.772904903194" lon="11.570529880851378"><ele>962.0</ele><time>2026-04-28T10:15:06Z</time></trkpt><trkpt lat="43.77292977052422" lon="11.5706201612818"><ele>961.5</ele><time>2026-04-28T10:15:07Z</time></trkpt><trkpt lat="43.77297216533002" lon="11.570706929886617"><ele>961.0</ele><time>2026-04-28T10:15:08Z</time></trkpt><trkpt lat="43.77298262550504" lon="11.570807949692432"><ele>960.5</ele><time>2026-04-28T10:15:09Z</time></trkpt><trkpt lat="43.77299906869759" lon="11.570946933355858"><ele>960.0</ele><time>2026-04-28T10:15:11Z</time></trkpt><trkpt lat="43.77301386546731" lon="11.571036923220836"><ele>960.0</ele><time>2026-04-28T10:15:12Z</time></trkpt><trkpt lat="43.77304769613867" lon="11.571128292507588"><ele>960.0</ele><time>2026-04-28T10:15:13Z</time></trkpt><trkpt lat="43.773089270358255" lon="11.571231055674666"><ele>960.0</ele><time>2026-04-28T10:15:14Z</time></trkpt><trkpt lat="43.77313837672564" lon="11.571357087081735"><ele>960.0</ele><time>2026-04-28T10:15:15Z</time></trkpt><trkpt lat="43.77318571137183" lon="11.571478856446234"><ele>960.0</ele><time>2026-04-28T10:15:16Z</time></trkpt><trkpt lat="43.773213745210384" lon="11.571560552401754"><ele>960.0</ele><time>2026-04-28T10:15:17Z</time></trkpt><trkpt lat="43.77323196695197" lon="11.571658089826062"><ele>960.0</ele><time>2026-04-28T10:15:18Z</time></trkpt><trkpt lat="43.77325089163461" lon="11.571788103444586"><ele>960.0</ele><time>2026-04-28T10:15:19Z</time></trkpt><trkpt lat="43.77327316364458" lon="11.571921426971992"><ele>960.0</ele><time>2026-04-28T10:15:20Z</time></trkpt><trkpt lat="43.77328852285803" lon="11.572050302149238"><ele>960.0</ele><time>2026-04-28T10:15:21Z</time></trkpt><trkpt lat="43.77331491946052" lon="11.572183163000005"><ele>960.0</ele><time>2026-04-28T10:15:22Z</time></trkpt><trkpt lat="43.773340333735405" lon="11.572316910602364"><ele>960.0</ele><time>2026-04-28T10:15:23Z</time></trkpt><trkpt lat="43.77339354098597" lon="11.572418467527323"><ele>960.0</ele><time>2026-04-28T10:15:24Z</time></trkpt><trkpt lat="43.77346113356186" lon="11.572489544321439"><ele>960.0</ele><time>2026-04-28T10:15:25Z</time></trkpt><trkpt lat="43.77357618336959" lon="11.572538364639012"><ele>960.0</ele><time>2026-04-28T10:15:27Z</time></trkpt><trkpt lat="43.77361603793541" lon="11.572605993656163"><ele>960.0</ele><time>2026-04-28T10:15:28Z</time></trkpt><trkpt lat="43.77369942422713" lon="11.572660177026467"><ele>960.4</ele><time>2026-04-28T10:15:29Z</time></trkpt><trkpt lat="43.77378572866419" lon="11.572717183191816"><ele>960.8</ele><time>2026-04-28T10:15:30Z</time></trkpt><trkpt lat="43.77386197300111" lon="11.572766622324396"><ele>961.2</ele><time>2026-04-28T10:15:31Z</time></trkpt><trkpt lat="43.77393191845383" lon="11.572838703803345"><ele>961.6</ele><time>2026-04-28T10:15:31.999Z</time></trkpt><trkpt lat="43.774016978875004" lon="11.572924843535066"><ele>962.0</ele><time>2026-04-28T10:15:32.999Z</time></trkpt><trkpt lat="43.77409483904793" lon="11.573030835012483"><ele>963.3333333333334</ele><time>2026-04-28T10:15:33.999Z</time></trkpt><trkpt lat="43.77416255067216" lon="11.573132939156768"><ele>964.6666666666667</ele><time>2026-04-28T10:15:34.999Z</time></trkpt><trkpt lat="43.77422023900283" lon="11.573216850693571"><ele>966.0</ele><time>2026-04-28T10:15:35.999Z</time></trkpt><trkpt lat="43.77429095137593" lon="11.573297765321284"><ele>967.3333333333333</ele><time>2026-04-28T10:15:36.999Z</time></trkpt><trkpt lat="43.774340450214005" lon="11.573395266909538"><ele>968.6666666666666</ele><time>2026-04-28T10:15:37.999Z</time></trkpt><trkpt lat="43.774380943691064" lon="11.573499728500568"><ele>970.0</ele><time>2026-04-28T10:15:38.999Z</time></trkpt><trkpt lat="43.774420963501264" lon="11.573609216227307"><ele>970.8333333333333</ele><time>2026-04-28T10:15:39.999Z</time></trkpt><trkpt lat="43.774444142046114" lon="11.573724641073712"><ele>971.6666666666666</ele><time>2026-04-28T10:15:40.999Z</time></trkpt><trkpt lat="43.774455504586804" lon="11.57384458661197"><ele>972.5</ele><time>2026-04-28T10:15:41.999Z</time></trkpt><trkpt lat="43.7744568960309" lon="11.573949193634776"><ele>973.3333333333333</ele><time>2026-04-28T10:15:42.999Z</time></trkpt><trkpt lat="43.77446104260624" lon="11.57404645553973"><ele>974.1666666666666</ele><time>2026-04-28T10:15:43.999Z</time></trkpt><trkpt lat="43.774479597128554" lon="11.574147168560106"><ele>975.0</ele><time>2026-04-28T10:15:44.999Z</time></trkpt><trkpt lat="43.77449011505533" lon="11.574260464269956"><ele>975.0</ele><time>2026-04-28T10:15:45.999Z</time></trkpt><trkpt lat="43.77449917677338" lon="11.574380493080596"><ele>975.0</ele><time>2026-04-28T10:15:46.999Z</time></trkpt><trkpt lat="43.7745188840017" lon="11.57450688402291"><ele>975.0</ele><time>2026-04-28T10:15:48.001Z</time></trkpt><trkpt lat="43.774544293305155" lon="11.574654438085956"><ele>975.0</ele><time>2026-04-28T10:15:49.001Z</time></trkpt><trkpt lat="43.774583959406236" lon="11.574784304834111"><ele>975.0</ele><time>2026-04-28T10:15:50.001Z</time></trkpt><trkpt lat="43.77461877990283" lon="11.57490317398147"><ele>975.2</ele><time>2026-04-28T10:15:51.001Z</time></trkpt><trkpt lat="43.7746546146631" lon="11.575015216800246"><ele>975.4</ele><time>2026-04-28T10:15:52.001Z</time></trkpt><trkpt lat="43.774705185022356" lon="11.575130000935891"><ele>975.5999999999999</ele><time>2026-04-28T10:15:53.001Z</time></trkpt><trkpt lat="43.77475862739463" lon="11.575267821189758"><ele>975.8</ele><time>2026-04-28T10:15:54.001Z</time></trkpt><trkpt lat="43.77482619865908" lon="11.575402261302287"><ele>976.0</ele><time>2026-04-28T10:15:55.001Z</time></trkpt><trkpt lat="43.77488614615" lon="11.575537699949924"><ele>976.5</ele><time>2026-04-28T10:15:56.001Z</time></trkpt><trkpt lat="43.77495116529774" lon="11.575664244611966"><ele>977.0</ele><time>2026-04-28T10:15:57.001Z</time></trkpt><trkpt lat="43.77500587809182" lon="11.575813811797172"><ele>977.5</ele><time>2026-04-28T10:15:58.001Z</time></trkpt><trkpt lat="43.775026663226924" lon="11.57597303659931"><ele>978.0</ele><time>2026-04-28T10:15:59.001Z</time></trkpt><trkpt lat="43.77506911981989" lon="11.576107125491587"><ele>978.0</ele><time>2026-04-28T10:16:00.001Z</time></trkpt><trkpt lat="43.775103177934035" lon="11.576233028856226"><ele>978.0</ele><time>2026-04-28T10:16:01.001Z</time></trkpt><trkpt lat="43.77516793803019" lon="11.576357982607746"><ele>978.0</ele><time>2026-04-28T10:16:02.001Z</time></trkpt><trkpt lat="43.7751960804245" lon="11.576477493367204"><ele>978.0</ele><time>2026-04-28T10:16:03.001Z</time></trkpt><trkpt lat="43.77518284398554" lon="11.57659206269682"><ele>978.0</ele><time>2026-04-28T10:16:04.001Z</time></trkpt><trkpt lat="43.77520471723078" lon="11.576695175260129"><ele>978.3333333333334</ele><time>2026-04-28T10:16:05.001Z</time></trkpt><trkpt lat="43.77522908305974" lon="11.576805381880291"><ele>978.6666666666667</ele><time>2026-04-28T10:16:06Z</time></trkpt><trkpt lat="43.77525362586695" lon="11.576909659053207"><ele>979.0</ele><time>2026-04-28T10:16:07Z</time></trkpt><trkpt lat="43.77530981187372" lon="11.576999764183448"><ele>979.3333333333334</ele><time>2026-04-28T10:16:08Z</time></trkpt><trkpt lat="43.775337647087234" lon="11.577100634994148"><ele>979.6666666666667</ele><time>2026-04-28T10:16:09Z</time></trkpt><trkpt lat="43.7753731585913" lon="11.57718718631603"><ele>980.0</ele><time>2026-04-28T10:16:10Z</time></trkpt><trkpt lat="43.77541329427488" lon="11.57727202349562"><ele>978.6666666666667</ele><time>2026-04-28T10:16:11Z</time></trkpt><trkpt lat="43.775448124841276" lon="11.577351542782274"><ele>977.3333333333334</ele><time>2026-04-28T10:16:12Z</time></trkpt><trkpt lat="43.77547692369755" lon="11.577432499596474"><ele>976.0</ele><time>2026-04-28T10:16:13Z</time></trkpt><trkpt lat="43.77544834653816" lon="11.577532478155351"><ele>974.6666666666667</ele><time>2026-04-28T10:16:14Z</time></trkpt><trkpt lat="43.77552377014654" lon="11.577557913739572"><ele>973.3333333333334</ele><time>2026-04-28T10:16:15Z</time></trkpt><trkpt lat="43.775523143296" lon="11.577747548042476"><ele>972.0</ele><time>2026-04-28T10:16:17Z</time></trkpt><trkpt lat="43.775567233613785" lon="11.577871736971234"><ele>972.0</ele><time>2026-04-28T10:16:19Z</time></trkpt><trkpt lat="43.77560229558663" lon="11.577970496069883"><ele>972.0</ele><time>2026-04-28T10:16:21Z</time></trkpt><trkpt lat="43.77567869657869" lon="11.57796861415422"><ele>972.0</ele><time>2026-04-28T10:16:22Z</time></trkpt><trkpt lat="43.775632577969034" lon="11.578107012319201"><ele>972.0</ele><time>2026-04-28T10:16:24Z</time></trkpt><trkpt lat="43.77558225078228" lon="11.578227029499457"><ele>972.0</ele><time>2026-04-28T10:16:25Z</time></trkpt><trkpt lat="43.775527533904594" lon="11.57835325269036"><ele>972.0</ele><time>2026-04-28T10:16:26Z</time></trkpt><trkpt lat="43.775492844633746" lon="11.578480114739792"><ele>972.0</ele><time>2026-04-28T10:16:27Z</time></trkpt><trkpt lat="43.77546521487588" lon="11.5786114786909"><ele>972.0</ele><time>2026-04-28T10:16:28Z</time></trkpt><trkpt lat="43.77542761701442" lon="11.578723299831559"><ele>972.0</ele><time>2026-04-28T10:16:29Z</time></trkpt><trkpt lat="43.77533638078221" lon="11.578836120444377"><ele>972.0</ele><time>2026-04-28T10:16:31Z</time></trkpt><trkpt lat="43.77524567222539" lon="11.57887678808554"><ele>974.8</ele><time>2026-04-28T10:16:32Z</time></trkpt><trkpt lat="43.77516585128848" lon="11.57889477080768"><ele>977.6</ele><time>2026-04-28T10:16:33Z</time></trkpt><trkpt lat="43.775074693843415" lon="11.579057840221044"><ele>980.3999999999999</ele><time>2026-04-28T10:16:35Z</time></trkpt><trkpt lat="43.77506036475716" lon="11.579184236009892"><ele>983.1999999999999</ele><time>2026-04-28T10:16:36Z</time></trkpt><trkpt lat="43.775042964724825" lon="11.579348543139805"><ele>986.0</ele><time>2026-04-28T10:16:37Z</time></trkpt><trkpt lat="43.775013965880945" lon="11.579495800145287"><ele>987.0000000000001</ele><time>2026-04-28T10:16:38Z</time></trkpt><trkpt lat="43.77497985752391" lon="11.579607078531144"><ele>988.0</ele><time>2026-04-28T10:16:39Z</time></trkpt><trkpt lat="43.774977156095964" lon="11.579711571696274"><ele>989.0</ele><time>2026-04-28T10:16:40Z</time></trkpt><trkpt lat="43.77495939710579" lon="11.5798162387114"><ele>990.0</ele><time>2026-04-28T10:16:41Z</time></trkpt><trkpt lat="43.77497975056546" lon="11.57992904806252"><ele>991.0000000000001</ele><time>2026-04-28T10:16:42Z</time></trkpt><trkpt lat="43.774943667646575" lon="11.58000862358788"><ele>992.0</ele><time>2026-04-28T10:16:43Z</time></trkpt><trkpt lat="43.77487931331331" lon="11.580101371570999"><ele>992.0</ele><time>2026-04-28T10:16:44Z</time></trkpt><trkpt lat="43.77479029786974" lon="11.580187454556254"><ele>992.0</ele><time>2026-04-28T10:16:45Z</time></trkpt><trkpt lat="43.77468257870991" lon="11.58026895228362"><ele>992.0</ele><time>2026-04-28T10:16:46Z</time></trkpt><trkpt lat="43.77459043010781" lon="11.580342718711217"><ele>992.0</ele><time>2026-04-28T10:16:47Z</time></trkpt><trkpt lat="43.77452817210656" lon="11.580412670239891"><ele>992.0</ele><time>2026-04-28T10:16:48Z</time></trkpt><trkpt lat="43.77447899706221" lon="11.580508120326487"><ele>993.1666666666667</ele><time>2026-04-28T10:16:49Z</time></trkpt><trkpt lat="43.77441976104869" lon="11.580608801492792"><ele>994.3333333333334</ele><time>2026-04-28T10:16:50Z</time></trkpt><trkpt lat="43.77436870001818" lon="11.580739538332642"><ele>995.5</ele><time>2026-04-28T10:16:51Z</time></trkpt><trkpt lat="43.77435111148489" lon="11.580865508467738"><ele>996.6666666666667</ele><time>2026-04-28T10:16:52Z</time></trkpt><trkpt lat="43.77433849452243" lon="11.580963726854701"><ele>997.8333333333334</ele><time>2026-04-28T10:16:53Z</time></trkpt><trkpt lat="43.77431465654073" lon="11.581049148754134"><ele>999.0</ele><time>2026-04-28T10:16:54Z</time></trkpt><trkpt lat="43.77423305610729" lon="11.581152081657944"><ele>999.8000000000001</ele><time>2026-04-28T10:16:56Z</time></trkpt><trkpt lat="43.774167691258526" lon="11.581179634027635"><ele>1000.6000000000001</ele><time>2026-04-28T10:16:57Z</time></trkpt><trkpt lat="43.77406933581712" lon="11.581259294375057"><ele>1001.4</ele><time>2026-04-28T10:16:58Z</time></trkpt><trkpt lat="43.773955315255" lon="11.581282790435466"><ele>1002.2</ele><time>2026-04-28T10:16:59Z</time></trkpt><trkpt lat="43.77388178670106" lon="11.581292535041202"><ele>1003.0</ele><time>2026-04-28T10:17:00Z</time></trkpt><trkpt lat="43.77380526564573" lon="11.581359795817669"><ele>1003.5999999999999</ele><time>2026-04-28T10:17:02Z</time></trkpt><trkpt lat="43.77384179802781" lon="11.58148939753618"><ele>1004.1999999999999</ele><time>2026-04-28T10:17:04Z</time></trkpt><trkpt lat="43.773869995402904" lon="11.581570359170636"><ele>1004.8</ele><time>2026-04-28T10:17:05Z</time></trkpt><trkpt lat="43.7739250508299" lon="11.581689138781586"><ele>1005.4</ele><time>2026-04-28T10:17:07Z</time></trkpt><trkpt lat="43.77391080769567" lon="11.581869499587608"><ele>1006.0</ele><time>2026-04-28T10:17:09Z</time></trkpt><trkpt lat="43.77387895610034" lon="11.582004900588487"><ele>1007.4999999999999</ele><time>2026-04-28T10:17:10Z</time></trkpt><trkpt lat="43.77383398208687" lon="11.582094114439224"><ele>1009.0</ele><time>2026-04-28T10:17:10.999Z</time></trkpt><trkpt lat="43.773790267452725" lon="11.582158312577658"><ele>1010.5</ele><time>2026-04-28T10:17:11.999Z</time></trkpt><trkpt lat="43.77373712178043" lon="11.582252829663336"><ele>1012.0</ele><time>2026-04-28T10:17:12.999Z</time></trkpt><trkpt lat="43.773678365672716" lon="11.582344810722367"><ele>1013.4999999999999</ele><time>2026-04-28T10:17:13.999Z</time></trkpt><trkpt lat="43.7736693381179" lon="11.582441683382328"><ele>1015.0</ele><time>2026-04-28T10:17:14.999Z</time></trkpt><trkpt lat="43.77366026870146" lon="11.582554360987583"><ele>1014.9999999999999</ele><time>2026-04-28T10:17:15.999Z</time></trkpt><trkpt lat="43.77369529689438" lon="11.582698280023655"><ele>1015.0</ele><time>2026-04-28T10:17:16.999Z</time></trkpt><trkpt lat="43.77369275116745" lon="11.582809571317332"><ele>1015.0</ele><time>2026-04-28T10:17:17.999Z</time></trkpt><trkpt lat="43.773657379679356" lon="11.582887867932806"><ele>1015.0</ele><time>2026-04-28T10:17:18.999Z</time></trkpt><trkpt lat="43.773637048262415" lon="11.58297806135369"><ele>1014.9999999999999</ele><time>2026-04-28T10:17:19.999Z</time></trkpt><trkpt lat="43.77358702302289" lon="11.583044413783112"><ele>1015.0</ele><time>2026-04-28T10:17:20.999Z</time></trkpt><trkpt lat="43.77355975517254" lon="11.583134872533808"><ele>1017.0</ele><time>2026-04-28T10:17:21.999Z</time></trkpt><trkpt lat="43.77350200172957" lon="11.58330343938273"><ele>1019.0</ele><time>2026-04-28T10:17:22.999Z</time></trkpt><trkpt lat="43.77347435677543" lon="11.583460881150385"><ele>1021.0</ele><time>2026-04-28T10:17:23.999Z</time></trkpt><trkpt lat="43.773463928638144" lon="11.583595497473597"><ele>1023.0</ele><time>2026-04-28T10:17:24.999Z</time></trkpt><trkpt lat="43.77343716424722" lon="11.583725737516435"><ele>1025.0</ele><time>2026-04-28T10:17:26.999Z</time></trkpt><trkpt lat="43.77346453529661" lon="11.583888346705807"><ele>1026.8333333333335</ele><time>2026-04-28T10:17:28.999Z</time></trkpt><trkpt lat="43.773543551589604" lon="11.583935454723886"><ele>1028.6666666666667</ele><time>2026-04-28T10:17:30.999Z</time></trkpt><trkpt lat="43.77359608832415" lon="11.5838774165961"><ele>1030.5</ele><time>2026-04-28T10:17:31.999Z</time></trkpt><trkpt lat="43.77367490458178" lon="11.583787761028981"><ele>1032.3333333333333</ele><time>2026-04-28T10:17:32.999Z</time></trkpt><trkpt lat="43.77375931304616" lon="11.583722435682683"><ele>1034.1666666666665</ele><time>2026-04-28T10:17:33.999Z</time></trkpt><trkpt lat="43.77382976928351" lon="11.583718495093908"><ele>1036.0</ele><time>2026-04-28T10:17:34.999Z</time></trkpt><trkpt lat="43.773905978119764" lon="11.583687718923183"><ele>1033.8</ele><time>2026-04-28T10:17:35.999Z</time></trkpt><trkpt lat="43.77396623464472" lon="11.58361980726172"><ele>1031.6</ele><time>2026-04-28T10:17:36.999Z</time></trkpt><trkpt lat="43.7740728336413" lon="11.58356500702993"><ele>1029.4</ele><time>2026-04-28T10:17:37.999Z</time></trkpt><trkpt lat="43.77415012724347" lon="11.583494814531132"><ele>1027.2</ele><time>2026-04-28T10:17:38.999Z</time></trkpt><trkpt lat="43.774215853392086" lon="11.583416590689778"><ele>1025.0</ele><time>2026-04-28T10:17:39.999Z</time></trkpt><trkpt lat="43.77430980627926" lon="11.583388092756298"><ele>1025.5</ele><time>2026-04-28T10:17:40.999Z</time></trkpt><trkpt lat="43.774394013908406" lon="11.583354840448282"><ele>1026.0</ele><time>2026-04-28T10:17:41.999Z</time></trkpt><trkpt lat="43.77448402059769" lon="11.58334488974344"><ele>1026.5</ele><time>2026-04-28T10:17:42.999Z</time></trkpt><trkpt lat="43.77457291192309" lon="11.583329466007873"><ele>1027.0</ele><time>2026-04-28T10:17:43.999Z</time></trkpt><trkpt lat="43.77464301043374" lon="11.583349762324309"><ele>1027.5</ele><time>2026-04-28T10:17:44.999Z</time></trkpt><trkpt lat="43.7747246435903" lon="11.583385053869971"><ele>1028.0</ele><time>2026-04-28T10:17:45.999Z</time></trkpt><trkpt lat="43.77479122753002" lon="11.583438707876677"><ele>1028.0</ele><time>2026-04-28T10:17:46.999Z</time></trkpt><trkpt lat="43.774829892484185" lon="11.583514679145603"><ele>1028.0</ele><time>2026-04-28T10:17:47.999Z</time></trkpt><trkpt lat="43.77485250260324" lon="11.583621316311099"><ele>1028.0</ele><time>2026-04-28T10:17:48.999Z</time></trkpt><trkpt lat="43.77484745351724" lon="11.583736981547583"><ele>1028.0</ele><time>2026-04-28T10:17:49.999Z</time></trkpt><trkpt lat="43.77482354160463" lon="11.583862463711366"><ele>1028.0</ele><time>2026-04-28T10:17:50.999Z</time></trkpt><trkpt lat="43.77479862018687" lon="11.58399172381996"><ele>1028.0</ele><time>2026-04-28T10:17:51.999Z</time></trkpt><trkpt lat="43.77477168985648" lon="11.584115906919818"><ele>1029.4</ele><time>2026-04-28T10:17:52.999Z</time></trkpt><trkpt lat="43.774745759704295" lon="11.584235673730113"><ele>1030.8</ele><time>2026-04-28T10:17:54Z</time></trkpt><trkpt lat="43.77472632943837" lon="11.584360926596315"><ele>1032.2</ele><time>2026-04-28T10:17:55Z</time></trkpt><trkpt lat="43.77472459999387" lon="11.584488197282518"><ele>1033.6</ele><time>2026-04-28T10:17:56Z</time></trkpt><trkpt lat="43.77473698275866" lon="11.584611322660441"><ele>1035.0</ele><time>2026-04-28T10:17:57Z</time></trkpt><trkpt lat="43.7747703222243" lon="11.584723498637773"><ele>1036.5</ele><time>2026-04-28T10:17:58Z</time></trkpt><trkpt lat="43.774821843984434" lon="11.584844149431184"><ele>1038.0</ele><time>2026-04-28T10:17:59Z</time></trkpt><trkpt lat="43.77487662231996" lon="11.584925759010451"><ele>1039.5</ele><time>2026-04-28T10:18:00Z</time></trkpt><trkpt lat="43.77495739280413" lon="11.58495328439223"><ele>1041.0</ele><time>2026-04-28T10:18:02Z</time></trkpt><trkpt lat="43.77497792786064" lon="11.585057076749367"><ele>1042.5</ele><time>2026-04-28T10:18:04Z</time></trkpt><trkpt lat="43.77489321805411" lon="11.58511270647295"><ele>1044.0</ele><time>2026-04-28T10:18:06Z</time></trkpt><trkpt lat="43.774829903081375" lon="11.585089822113215"><ele>1044.0</ele><time>2026-04-28T10:18:07Z</time></trkpt><trkpt lat="43.77476353812934" lon="11.58503512961905"><ele>1044.0</ele><time>2026-04-28T10:18:08Z</time></trkpt><trkpt lat="43.77464479969303" lon="11.585057240915779"><ele>1044.0</ele><time>2026-04-28T10:18:10Z</time></trkpt><trkpt lat="43.774577064717114" lon="11.5851250010189"><ele>1044.0</ele><time>2026-04-28T10:18:12Z</time></trkpt><trkpt lat="43.774508922383" lon="11.585160954799223"><ele>1044.0</ele><time>2026-04-28T10:18:13Z</time></trkpt><trkpt lat="43.77442721943416" lon="11.58522647130514"><ele>1044.0</ele><time>2026-04-28T10:18:14Z</time></trkpt><trkpt lat="43.77435514969102" lon="11.585326678800824"><ele>1047.4</ele><time>2026-04-28T10:18:16Z</time></trkpt><trkpt lat="43.774285729680315" lon="11.58537137935977"><ele>1050.8000000000002</ele><time>2026-04-28T10:18:17Z</time></trkpt><trkpt lat="43.77419488396932" lon="11.585462400914423"><ele>1054.1999999999998</ele><time>2026-04-28T10:18:18Z</time></trkpt><trkpt lat="43.77409371661253" lon="11.585548669115127"><ele>1057.6</ele><time>2026-04-28T10:18:19Z</time></trkpt><trkpt lat="43.77402482175698" lon="11.58561534350514"><ele>1061.0</ele><time>2026-04-28T10:18:20Z</time></trkpt><trkpt lat="43.773953531857" lon="11.585678176395746"><ele>1061.0</ele><time>2026-04-28T10:18:21Z</time></trkpt><trkpt lat="43.773894379345755" lon="11.585762383087099"><ele>1061.0</ele><time>2026-04-28T10:18:22Z</time></trkpt><trkpt lat="43.773848174021865" lon="11.585886813757702"><ele>1061.0</ele><time>2026-04-28T10:18:23Z</time></trkpt><trkpt lat="43.77373684597298" lon="11.585992538885899"><ele>1061.0</ele><time>2026-04-28T10:18:24Z</time></trkpt><trkpt lat="43.773624494475484" lon="11.586109504321627"><ele>1062.3999999999999</ele><time>2026-04-28T10:18:25Z</time></trkpt><trkpt lat="43.77352362504287" lon="11.5862071577781"><ele>1063.8</ele><time>2026-04-28T10:18:26Z</time></trkpt><trkpt lat="43.77344091874091" lon="11.586313529210083"><ele>1065.1999999999998</ele><time>2026-04-28T10:18:27Z</time></trkpt><trkpt lat="43.77338653473177" lon="11.58642217050626"><ele>1066.6</ele><time>2026-04-28T10:18:28Z</time></trkpt><trkpt lat="43.773337270224104" lon="11.586510525486785"><ele>1068.0</ele><time>2026-04-28T10:18:29Z</time></trkpt><trkpt lat="43.77329611543575" lon="11.58661130296501"><ele>1068.0</ele><time>2026-04-28T10:18:30Z</time></trkpt><trkpt lat="43.77325401146397" lon="11.586722161340026"><ele>1068.0</ele><time>2026-04-28T10:18:31Z</time></trkpt><trkpt lat="43.77321296594427" lon="11.586870805792461"><ele>1068.0</ele><time>2026-04-28T10:18:32Z</time></trkpt><trkpt lat="43.773201834369665" lon="11.586980742249125"><ele>1068.0</ele><time>2026-04-28T10:18:33Z</time></trkpt><trkpt lat="43.7731498766506" lon="11.58711721565101"><ele>1068.0</ele><time>2026-04-28T10:18:34Z</time></trkpt><trkpt lat="43.773105073900545" lon="11.587280825618162"><ele>1069.2</ele><time>2026-04-28T10:18:35Z</time></trkpt><trkpt lat="43.7730579221915" lon="11.58740897542248"><ele>1070.4</ele><time>2026-04-28T10:18:36Z</time></trkpt><trkpt lat="43.77302004802806" lon="11.587520846354096"><ele>1071.6000000000001</ele><time>2026-04-28T10:18:37Z</time></trkpt><trkpt lat="43.77297414294504" lon="11.58762244402283"><ele>1072.8</ele><time>2026-04-28T10:18:38Z</time></trkpt><trkpt lat="43.77288716566279" lon="11.587715035393872"><ele>1074.0</ele><time>2026-04-28T10:18:39Z</time></trkpt><trkpt lat="43.772818087176894" lon="11.58778575743624"><ele>1074.0</ele><time>2026-04-28T10:18:40Z</time></trkpt><trkpt lat="43.772725306176376" lon="11.587839278418754"><ele>1074.0</ele><time>2026-04-28T10:18:41Z</time></trkpt><trkpt lat="43.77262525402902" lon="11.587868927367058"><ele>1074.0</ele><time>2026-04-28T10:18:42Z</time></trkpt><trkpt lat="43.772519704914366" lon="11.587897332660601"><ele>1074.0</ele><time>2026-04-28T10:18:43Z</time></trkpt><trkpt lat="43.77241201494748" lon="11.587931389872788"><ele>1074.0</ele><time>2026-04-28T10:18:44Z</time></trkpt><trkpt lat="43.77230164613374" lon="11.587972631186043"><ele>1076.6000000000001</ele><time>2026-04-28T10:18:45Z</time></trkpt><trkpt lat="43.772194712999855" lon="11.588004249074228"><ele>1079.2</ele><time>2026-04-28T10:18:46Z</time></trkpt><trkpt lat="43.77209898568705" lon="11.588046800792362"><ele>1081.8000000000002</ele><time>2026-04-28T10:18:47Z</time></trkpt><trkpt lat="43.772001828253295" lon="11.58807264914283"><ele>1084.4</ele><time>2026-04-28T10:18:48Z</time></trkpt><trkpt lat="43.771897541993724" lon="11.588118512587524"><ele>1087.0</ele><time>2026-04-28T10:18:49Z</time></trkpt><trkpt lat="43.77180995486787" lon="11.58813357506172"><ele>1087.3333333333333</ele><time>2026-04-28T10:18:50Z</time></trkpt><trkpt lat="43.77174912389368" lon="11.588103015651345"><ele>1087.6666666666665</ele><time>2026-04-28T10:18:51Z</time></trkpt><trkpt lat="43.77165346497417" lon="11.588068773394486"><ele>1088.0</ele><time>2026-04-28T10:18:52Z</time></trkpt><trkpt lat="43.771556708491346" lon="11.588013194995513"><ele>1088.3333333333333</ele><time>2026-04-28T10:18:53Z</time></trkpt><trkpt lat="43.77149246264908" lon="11.58794884855641"><ele>1088.6666666666667</ele><time>2026-04-28T10:18:54Z</time></trkpt><trkpt lat="43.77143169549547" lon="11.58791539044322"><ele>1089.0</ele><time>2026-04-28T10:18:55Z</time></trkpt><trkpt lat="43.77136050604758" lon="11.587842425920206"><ele>1089.0</ele><time>2026-04-28T10:18:57.999Z</time></trkpt><trkpt lat="43.77133800559172" lon="11.587708243020922"><ele>1089.0</ele><time>2026-04-28T10:18:59.999Z</time></trkpt><trkpt lat="43.77134851123669" lon="11.587599465441174"><ele>1089.0</ele><time>2026-04-28T10:19:00.999Z</time></trkpt><trkpt lat="43.77138739850586" lon="11.587461845906933"><ele>1089.0</ele><time>2026-04-28T10:19:01.999Z</time></trkpt><trkpt lat="43.771410838681646" lon="11.587371143062104"><ele>1089.0</ele><time>2026-04-28T10:19:02.999Z</time></trkpt><trkpt lat="43.771372724493595" lon="11.587272200107263"><ele>1089.0</ele><time>2026-04-28T10:19:03.999Z</time></trkpt><trkpt lat="43.77133794923299" lon="11.587122644441518"><ele>1088.4</ele><time>2026-04-28T10:19:04.999Z</time></trkpt><trkpt lat="43.771307793216025" lon="11.586995382300545"><ele>1087.8000000000002</ele><time>2026-04-28T10:19:05.999Z</time></trkpt><trkpt lat="43.77129438650728" lon="11.586860521376849"><ele>1087.1999999999998</ele><time>2026-04-28T10:19:06.999Z</time></trkpt><trkpt lat="43.771271360170594" lon="11.5867451576472"><ele>1086.6</ele><time>2026-04-28T10:19:07.999Z</time></trkpt><trkpt lat="43.77120837929556" lon="11.58665075940604"><ele>1086.0</ele><time>2026-04-28T10:19:08.999Z</time></trkpt><trkpt lat="43.771132506166445" lon="11.586523355450808"><ele>1086.0</ele><time>2026-04-28T10:19:09.999Z</time></trkpt><trkpt lat="43.77102881553523" lon="11.586410019134536"><ele>1086.0</ele><time>2026-04-28T10:19:10.999Z</time></trkpt><trkpt lat="43.77095284402806" lon="11.58625474872068"><ele>1086.0</ele><time>2026-04-28T10:19:11.999Z</time></trkpt><trkpt lat="43.77087086106997" lon="11.586129618392293"><ele>1086.0</ele><time>2026-04-28T10:19:12.999Z</time></trkpt><trkpt lat="43.77078822908156" lon="11.586027485683886"><ele>1089.3333333333333</ele><time>2026-04-28T10:19:13.999Z</time></trkpt><trkpt lat="43.77070141288171" lon="11.585954448851378"><ele>1092.6666666666667</ele><time>2026-04-28T10:19:14.999Z</time></trkpt><trkpt lat="43.77064078513239" lon="11.58586929745845"><ele>1096.0</ele><time>2026-04-28T10:19:15.999Z</time></trkpt><trkpt lat="43.7705836707069" lon="11.585813846504742"><ele>1099.3333333333335</ele><time>2026-04-28T10:19:16.999Z</time></trkpt><trkpt lat="43.77055860921551" lon="11.585700339791654"><ele>1102.6666666666667</ele><time>2026-04-28T10:19:17.999Z</time></trkpt><trkpt lat="43.770518894974025" lon="11.585593001736543"><ele>1106.0</ele><time>2026-04-28T10:19:18.999Z</time></trkpt><trkpt lat="43.77049902012359" lon="11.585410117043342"><ele>1104.8</ele><time>2026-04-28T10:19:19.999Z</time></trkpt><trkpt lat="43.77049710075391" lon="11.585208615545794"><ele>1103.6</ele><time>2026-04-28T10:19:20.999Z</time></trkpt><trkpt lat="43.77048347698389" lon="11.58506662140013"><ele>1102.4</ele><time>2026-04-28T10:19:21.999Z</time></trkpt><trkpt lat="43.770465993880805" lon="11.584955678675525"><ele>1101.2</ele><time>2026-04-28T10:19:22.999Z</time></trkpt><trkpt lat="43.77043012565809" lon="11.584868998255313"><ele>1100.0</ele><time>2026-04-28T10:19:23.999Z</time></trkpt><trkpt lat="43.77037612332723" lon="11.584754265861813"><ele>1100.0</ele><time>2026-04-28T10:19:24.999Z</time></trkpt><trkpt lat="43.77029967646249" lon="11.584650214728626"><ele>1100.0</ele><time>2026-04-28T10:19:25.999Z</time></trkpt><trkpt lat="43.770229590257124" lon="11.584588914745101"><ele>1100.0</ele><time>2026-04-28T10:19:26.999Z</time></trkpt><trkpt lat="43.770134505171455" lon="11.58454826849065"><ele>1100.0</ele><time>2026-04-28T10:19:27.999Z</time></trkpt><trkpt lat="43.77003955745594" lon="11.584402931186233"><ele>1100.0</ele><time>2026-04-28T10:19:28.999Z</time></trkpt><trkpt lat="43.76995086498072" lon="11.584309574915485"><ele>1101.6666666666667</ele><time>2026-04-28T10:19:29.999Z</time></trkpt><trkpt lat="43.769862417868616" lon="11.58423026305013"><ele>1103.3333333333335</ele><time>2026-04-28T10:19:30.999Z</time></trkpt><trkpt lat="43.7698030635093" lon="11.584153849542385"><ele>1105.0</ele><time>2026-04-28T10:19:31.999Z</time></trkpt><trkpt lat="43.76973496431235" lon="11.584073165487014"><ele>1106.6666666666667</ele><time>2026-04-28T10:19:32.999Z</time></trkpt><trkpt lat="43.76969563281487" lon="11.58399047611764"><ele>1108.3333333333333</ele><time>2026-04-28T10:19:33.999Z</time></trkpt><trkpt lat="43.76965171809559" lon="11.583910792390508"><ele>1110.0</ele><time>2026-04-28T10:19:34.999Z</time></trkpt><trkpt lat="43.76961452147461" lon="11.583826727922666"><ele>1110.0</ele><time>2026-04-28T10:19:35.999Z</time></trkpt><trkpt lat="43.769540177689954" lon="11.58376796389946"><ele>1110.0</ele><time>2026-04-28T10:19:36.999Z</time></trkpt><trkpt lat="43.769475471454555" lon="11.583707701921064"><ele>1110.0</ele><time>2026-04-28T10:19:37.999Z</time></trkpt><trkpt lat="43.76941863224579" lon="11.583660115120255"><ele>1110.0</ele><time>2026-04-28T10:19:38.999Z</time></trkpt><trkpt lat="43.76935493569637" lon="11.583614483765203"><ele>1110.0</ele><time>2026-04-28T10:19:39.999Z</time></trkpt><trkpt lat="43.7692422472237" lon="11.5835428954163"><ele>1110.0</ele><time>2026-04-28T10:19:40.999Z</time></trkpt><trkpt lat="43.76915364652277" lon="11.583458106695778"><ele>1110.2</ele><time>2026-04-28T10:19:41.999Z</time></trkpt><trkpt lat="43.76907208801445" lon="11.583409297033567"><ele>1110.4</ele><time>2026-04-28T10:19:42.999Z</time></trkpt><trkpt lat="43.76897293657826" lon="11.583336795040083"><ele>1110.6</ele><time>2026-04-28T10:19:43.999Z</time></trkpt><trkpt lat="43.768878436935275" lon="11.583271558638918"><ele>1110.8</ele><time>2026-04-28T10:19:44.999Z</time></trkpt><trkpt lat="43.768786366116124" lon="11.583204785005739"><ele>1111.0</ele><time>2026-04-28T10:19:45.999Z</time></trkpt><trkpt lat="43.768723294035105" lon="11.583151338711621"><ele>1111.0</ele><time>2026-04-28T10:19:46.999Z</time></trkpt><trkpt lat="43.76866050774072" lon="11.583130728509289"><ele>1111.0</ele><time>2026-04-28T10:19:47.999Z</time></trkpt><trkpt lat="43.768564806406694" lon="11.583090486410171"><ele>1111.0</ele><time>2026-04-28T10:19:49.999Z</time></trkpt><trkpt lat="43.76849734450529" lon="11.583061358734493"><ele>1111.0</ele><time>2026-04-28T10:19:50.999Z</time></trkpt><trkpt lat="43.76843477208311" lon="11.583047447851182"><ele>1111.0</ele><time>2026-04-28T10:19:51.999Z</time></trkpt><trkpt lat="43.768362720401036" lon="11.583052427621178"><ele>1111.0</ele><time>2026-04-28T10:19:53.999Z</time></trkpt><trkpt lat="43.76824973921697" lon="11.583029071497727"><ele>1110.0</ele><time>2026-04-28T10:20:13Z</time></trkpt><trkpt lat="43.7681862899955" lon="11.583040781289066"><ele>1109.0</ele><time>2026-04-28T10:20:14Z</time></trkpt><trkpt lat="43.768114332940286" lon="11.583082048746418"><ele>1108.0</ele><time>2026-04-28T10:20:15Z</time></trkpt><trkpt lat="43.76804874687151" lon="11.583127740640847"><ele>1107.0</ele><time>2026-04-28T10:20:16Z</time></trkpt><trkpt lat="43.76798583711233" lon="11.5831660946722"><ele>1106.0</ele><time>2026-04-28T10:20:17Z</time></trkpt><trkpt lat="43.76789635387952" lon="11.583237701665988"><ele>1105.0</ele><time>2026-04-28T10:20:19Z</time></trkpt><trkpt lat="43.767824496038585" lon="11.583286348780856"><ele>1105.0</ele><time>2026-04-28T10:20:20Z</time></trkpt><trkpt lat="43.76774801267372" lon="11.583332993377898"><ele>1105.0</ele><time>2026-04-28T10:20:21Z</time></trkpt><trkpt lat="43.76769389663925" lon="11.583396891030771"><ele>1105.0</ele><time>2026-04-28T10:20:22Z</time></trkpt><trkpt lat="43.76763355736949" lon="11.583454098299413"><ele>1105.0</ele><time>2026-04-28T10:20:23Z</time></trkpt><trkpt lat="43.76755176732506" lon="11.583498500196802"><ele>1105.0</ele><time>2026-04-28T10:20:24Z</time></trkpt><trkpt lat="43.767480527286985" lon="11.583509576444925"><ele>1105.0</ele><time>2026-04-28T10:20:25Z</time></trkpt><trkpt lat="43.76741566069595" lon="11.583505775493126"><ele>1104.1666666666665</ele><time>2026-04-28T10:20:26Z</time></trkpt><trkpt lat="43.767333762718614" lon="11.583476672249478"><ele>1103.3333333333333</ele><time>2026-04-28T10:20:27Z</time></trkpt><trkpt lat="43.76726853610427" lon="11.583407429833958"><ele>1102.5</ele><time>2026-04-28T10:20:28Z</time></trkpt><trkpt lat="43.767215179910465" lon="11.583324729324806"><ele>1101.6666666666667</ele><time>2026-04-28T10:20:29Z</time></trkpt><trkpt lat="43.76715317463677" lon="11.583265085589563"><ele>1100.8333333333335</ele><time>2026-04-28T10:20:30Z</time></trkpt><trkpt lat="43.76708206385063" lon="11.583272522621236"><ele>1100.0</ele><time>2026-04-28T10:20:31Z</time></trkpt><trkpt lat="43.76699145246261" lon="11.583266137928641"><ele>1100.0</ele><time>2026-04-28T10:20:32Z</time></trkpt><trkpt lat="43.766900105893164" lon="11.583249832423098"><ele>1100.0</ele><time>2026-04-28T10:20:33Z</time></trkpt><trkpt lat="43.7668155345112" lon="11.583230008883433"><ele>1100.0</ele><time>2026-04-28T10:20:34Z</time></trkpt><trkpt lat="43.76675608347591" lon="11.583260636461418"><ele>1100.0</ele><time>2026-04-28T10:20:35Z</time></trkpt><trkpt lat="43.766677864518975" lon="11.583276190519587"><ele>1100.0</ele><time>2026-04-28T10:20:36Z</time></trkpt><trkpt lat="43.76660035533251" lon="11.58329356919356"><ele>1100.0</ele><time>2026-04-28T10:20:37Z</time></trkpt><trkpt lat="43.76648671268524" lon="11.583247118000422"><ele>1100.0</ele><time>2026-04-28T10:20:39Z</time></trkpt><trkpt lat="43.76644154514092" lon="11.583165040897905"><ele>1100.0</ele><time>2026-04-28T10:20:40Z</time></trkpt><trkpt lat="43.76637869818186" lon="11.583067662930715"><ele>1100.0</ele><time>2026-04-28T10:20:41Z</time></trkpt><trkpt lat="43.76634583634317" lon="11.582974745165465"><ele>1100.0</ele><time>2026-04-28T10:20:42Z</time></trkpt><trkpt lat="43.76631148863713" lon="11.582859269411932"><ele>1100.0</ele><time>2026-04-28T10:20:43Z</time></trkpt><trkpt lat="43.76629066215109" lon="11.582736026775033"><ele>1100.0</ele><time>2026-04-28T10:20:44Z</time></trkpt><trkpt lat="43.766284992919715" lon="11.582616823977895"><ele>1100.0</ele><time>2026-04-28T10:20:45Z</time></trkpt><trkpt lat="43.76625907196584" lon="11.582518371927481"><ele>1100.0</ele><time>2026-04-28T10:20:46Z</time></trkpt><trkpt lat="43.76622738704882" lon="11.582387631682478"><ele>1100.0</ele><time>2026-04-28T10:20:47Z</time></trkpt><trkpt lat="43.76618976487802" lon="11.582271406588571"><ele>1100.0</ele><time>2026-04-28T10:20:48Z</time></trkpt><trkpt lat="43.766138970826404" lon="11.58216569852048"><ele>1100.0</ele><time>2026-04-28T10:20:49Z</time></trkpt><trkpt lat="43.76608404842447" lon="11.58208459779946"><ele>1100.0</ele><time>2026-04-28T10:20:50Z</time></trkpt><trkpt lat="43.766016916457744" lon="11.582029222114153"><ele>1097.0</ele><time>2026-04-28T10:20:51Z</time></trkpt><trkpt lat="43.76593895764132" lon="11.581967476338303"><ele>1094.0</ele><time>2026-04-28T10:20:52Z</time></trkpt><trkpt lat="43.765847757720145" lon="11.58192866372126"><ele>1091.0</ele><time>2026-04-28T10:20:53Z</time></trkpt><trkpt lat="43.76572604763225" lon="11.581915592628865"><ele>1088.0</ele><time>2026-04-28T10:20:53.999Z</time></trkpt><trkpt lat="43.765585207211466" lon="11.581918158167996"><ele>1085.0</ele><time>2026-04-28T10:20:54.999Z</time></trkpt><trkpt lat="43.7654655074053" lon="11.581934400879462"><ele>1085.0</ele><time>2026-04-28T10:20:55.999Z</time></trkpt><trkpt lat="43.76535275912583" lon="11.581962623594004"><ele>1085.0</ele><time>2026-04-28T10:20:56.999Z</time></trkpt><trkpt lat="43.7652319366722" lon="11.581991515339158"><ele>1085.0</ele><time>2026-04-28T10:20:57.999Z</time></trkpt><trkpt lat="43.765091928871676" lon="11.582035569304233"><ele>1085.0</ele><time>2026-04-28T10:20:58.999Z</time></trkpt><trkpt lat="43.76498433366684" lon="11.582070662271184"><ele>1084.8333333333335</ele><time>2026-04-28T10:20:59.999Z</time></trkpt><trkpt lat="43.76489539724075" lon="11.582096012593045"><ele>1084.6666666666667</ele><time>2026-04-28T10:21:00.999Z</time></trkpt><trkpt lat="43.7648095974599" lon="11.582104428978397"><ele>1084.5</ele><time>2026-04-28T10:21:01.999Z</time></trkpt><trkpt lat="43.76472451942499" lon="11.582097884408169"><ele>1084.3333333333333</ele><time>2026-04-28T10:21:02.999Z</time></trkpt><trkpt lat="43.76463792404966" lon="11.582090842796836"><ele>1084.1666666666665</ele><time>2026-04-28T10:21:03.999Z</time></trkpt><trkpt lat="43.76455411981553" lon="11.582108682958152"><ele>1084.0</ele><time>2026-04-28T10:21:04.999Z</time></trkpt><trkpt lat="43.76445960550202" lon="11.582154304498534"><ele>1084.0</ele><time>2026-04-28T10:21:05.999Z</time></trkpt><trkpt lat="43.76436785248892" lon="11.582206713388494"><ele>1084.0</ele><time>2026-04-28T10:21:06.999Z</time></trkpt><trkpt lat="43.764288565768624" lon="11.582238996417294"><ele>1084.0</ele><time>2026-04-28T10:21:07.999Z</time></trkpt><trkpt lat="43.76420419445918" lon="11.58226723635222"><ele>1084.0</ele><time>2026-04-28T10:21:08.999Z</time></trkpt><trkpt lat="43.76412364928162" lon="11.5822900367669"><ele>1084.0</ele><time>2026-04-28T10:21:09.999Z</time></trkpt><trkpt lat="43.76402396311255" lon="11.582310893080942"><ele>1086.2</ele><time>2026-04-28T10:21:10.999Z</time></trkpt><trkpt lat="43.763926652168145" lon="11.582329901760586"><ele>1088.4</ele><time>2026-04-28T10:21:11.999Z</time></trkpt><trkpt lat="43.76383588370124" lon="11.582355882501924"><ele>1090.6</ele><time>2026-04-28T10:21:12.999Z</time></trkpt><trkpt lat="43.76373975470557" lon="11.582369247676752"><ele>1092.8</ele><time>2026-04-28T10:21:13.999Z</time></trkpt><trkpt lat="43.76364111800988" lon="11.582375976360897"><ele>1095.0</ele><time>2026-04-28T10:21:14.999Z</time></trkpt><trkpt lat="43.76354788630999" lon="11.582390996869558"><ele>1096.3333333333333</ele><time>2026-04-28T10:21:15.999Z</time></trkpt><trkpt lat="43.76347098579446" lon="11.582439857785827"><ele>1097.6666666666667</ele><time>2026-04-28T10:21:16.999Z</time></trkpt><trkpt lat="43.763405550933136" lon="11.58248341583617"><ele>1099.0</ele><time>2026-04-28T10:21:17.999Z</time></trkpt><trkpt lat="43.76333796713449" lon="11.5825213114879"><ele>1100.3333333333335</ele><time>2026-04-28T10:21:18.999Z</time></trkpt><trkpt lat="43.76324302630261" lon="11.582544042756354"><ele>1101.6666666666667</ele><time>2026-04-28T10:21:19.999Z</time></trkpt><trkpt lat="43.76316479547351" lon="11.582555786890785"><ele>1103.0</ele><time>2026-04-28T10:21:20.999Z</time></trkpt><trkpt lat="43.76306503984857" lon="11.582569665224801"><ele>1103.0</ele><time>2026-04-28T10:21:21.999Z</time></trkpt><trkpt lat="43.762984343724305" lon="11.582578867543454"><ele>1103.0</ele><time>2026-04-28T10:21:22.999Z</time></trkpt><trkpt lat="43.762898135646374" lon="11.582641880794313"><ele>1103.0</ele><time>2026-04-28T10:21:24.999Z</time></trkpt><trkpt lat="43.762820218591486" lon="11.582668949654018"><ele>1103.0</ele><time>2026-04-28T10:21:25.999Z</time></trkpt><trkpt lat="43.76273329631296" lon="11.582694832504604"><ele>1103.0</ele><time>2026-04-28T10:21:26.999Z</time></trkpt><trkpt lat="43.76262649572848" lon="11.582752892468289"><ele>1102.8333333333335</ele><time>2026-04-28T10:21:27.999Z</time></trkpt><trkpt lat="43.762549480846666" lon="11.582827356484229"><ele>1102.6666666666667</ele><time>2026-04-28T10:21:28.999Z</time></trkpt><trkpt lat="43.76246728031386" lon="11.582893582886639"><ele>1102.5</ele><time>2026-04-28T10:21:29.999Z</time></trkpt><trkpt lat="43.762411369500256" lon="11.582938564544566"><ele>1102.3333333333333</ele><time>2026-04-28T10:21:30.999Z</time></trkpt><trkpt lat="43.7623474334325" lon="11.582963633934924"><ele>1102.1666666666665</ele><time>2026-04-28T10:21:31.999Z</time></trkpt><trkpt lat="43.7622694423379" lon="11.582959692371906"><ele>1102.0</ele><time>2026-04-28T10:21:32.999Z</time></trkpt><trkpt lat="43.762178577987044" lon="11.582948860588704"><ele>1102.0</ele><time>2026-04-28T10:21:33.999Z</time></trkpt><trkpt lat="43.76204136815036" lon="11.582930434863894"><ele>1102.0</ele><time>2026-04-28T10:21:34.999Z</time></trkpt><trkpt lat="43.761937344105824" lon="11.582909284436262"><ele>1102.0</ele><time>2026-04-28T10:21:35.999Z</time></trkpt><trkpt lat="43.76184205501522" lon="11.582900574972355"><ele>1102.0</ele><time>2026-04-28T10:21:36.999Z</time></trkpt><trkpt lat="43.76175169875214" lon="11.582885518266023"><ele>1102.0</ele><time>2026-04-28T10:21:37.999Z</time></trkpt><trkpt lat="43.76167162108668" lon="11.582853337701387"><ele>1104.1666666666665</ele><time>2026-04-28T10:21:38.999Z</time></trkpt><trkpt lat="43.761593839426254" lon="11.582826721751987"><ele>1106.3333333333333</ele><time>2026-04-28T10:21:39.999Z</time></trkpt><trkpt lat="43.761515597264136" lon="11.582782037572255"><ele>1108.5</ele><time>2026-04-28T10:21:40.999Z</time></trkpt><trkpt lat="43.76143747097942" lon="11.582749409464745"><ele>1110.6666666666667</ele><time>2026-04-28T10:21:41.999Z</time></trkpt><trkpt lat="43.76136383742273" lon="11.582735420972925"><ele>1112.8333333333335</ele><time>2026-04-28T10:21:42.999Z</time></trkpt><trkpt lat="43.76128727422009" lon="11.582691427681073"><ele>1115.0</ele><time>2026-04-28T10:21:43.999Z</time></trkpt><trkpt lat="43.7612051954027" lon="11.582655169564584"><ele>1115.0</ele><time>2026-04-28T10:21:44.999Z</time></trkpt><trkpt lat="43.7611309878125" lon="11.582611680627588"><ele>1115.0</ele><time>2026-04-28T10:21:45.999Z</time></trkpt><trkpt lat="43.76105403899249" lon="11.58256590360416"><ele>1115.0</ele><time>2026-04-28T10:21:46.999Z</time></trkpt><trkpt lat="43.76098594186237" lon="11.582518974473016"><ele>1115.0</ele><time>2026-04-28T10:21:47.999Z</time></trkpt><trkpt lat="43.76091649392825" lon="11.582479598103088"><ele>1115.0</ele><time>2026-04-28T10:21:48.999Z</time></trkpt><trkpt lat="43.760858203725746" lon="11.582446315306207"><ele>1115.0</ele><time>2026-04-28T10:21:49.999Z</time></trkpt><trkpt lat="43.76079687667649" lon="11.582425997377728"><ele>1115.0</ele><time>2026-04-28T10:21:50.999Z</time></trkpt><trkpt lat="43.760682321981534" lon="11.582452989968656"><ele>1114.4</ele><time>2026-04-28T10:21:52.999Z</time></trkpt><trkpt lat="43.76061128820807" lon="11.582503395207379"><ele>1113.8</ele><time>2026-04-28T10:21:53.999Z</time></trkpt><trkpt lat="43.76052232215698" lon="11.582564459274929"><ele>1113.2</ele><time>2026-04-28T10:21:54.999Z</time></trkpt><trkpt lat="43.760414899953204" lon="11.582649052115599"><ele>1112.6</ele><time>2026-04-28T10:21:55.999Z</time></trkpt><trkpt lat="43.76031250708113" lon="11.582731255570152"><ele>1112.0</ele><time>2026-04-28T10:21:56.999Z</time></trkpt><trkpt lat="43.76023672815921" lon="11.58280628925089"><ele>1110.8</ele><time>2026-04-28T10:21:57.999Z</time></trkpt><trkpt lat="43.76017260478698" lon="11.582886738891396"><ele>1109.6</ele><time>2026-04-28T10:21:58.999Z</time></trkpt><trkpt lat="43.76010158352428" lon="11.582971593349713"><ele>1108.3999999999999</ele><time>2026-04-28T10:21:59.999Z</time></trkpt><trkpt lat="43.76002258061674" lon="11.583051972016275"><ele>1107.2</ele><time>2026-04-28T10:22:00.999Z</time></trkpt><trkpt lat="43.75994179210326" lon="11.583131519655218"><ele>1106.0</ele><time>2026-04-28T10:22:01.999Z</time></trkpt><trkpt lat="43.75986875993525" lon="11.583205837000188"><ele>1106.0</ele><time>2026-04-28T10:22:02.999Z</time></trkpt><trkpt lat="43.75980628317928" lon="11.58326522338149"><ele>1106.0</ele><time>2026-04-28T10:22:03.999Z</time></trkpt><trkpt lat="43.759731445879574" lon="11.583306770591376"><ele>1106.0</ele><time>2026-04-28T10:22:06Z</time></trkpt><trkpt lat="43.75965815045281" lon="11.583336348592153"><ele>1106.0</ele><time>2026-04-28T10:22:08Z</time></trkpt><trkpt lat="43.75958800806752" lon="11.583400489260551"><ele>1106.0</ele><time>2026-04-28T10:22:12Z</time></trkpt><trkpt lat="43.759533620129126" lon="11.583460680290745"><ele>1106.0</ele><time>2026-04-28T10:22:14Z</time></trkpt><trkpt lat="43.759458183079886" lon="11.583519282104902"><ele>1105.8</ele><time>2026-04-28T10:22:15Z</time></trkpt><trkpt lat="43.75936187392308" lon="11.583609846266864"><ele>1105.6</ele><time>2026-04-28T10:22:16Z</time></trkpt><trkpt lat="43.75927460937238" lon="11.583693614754367"><ele>1105.4</ele><time>2026-04-28T10:22:17Z</time></trkpt><trkpt lat="43.75918534087674" lon="11.583757780014293"><ele>1105.2</ele><time>2026-04-28T10:22:18Z</time></trkpt><trkpt lat="43.75911088304242" lon="11.583819155535279"><ele>1105.0</ele><time>2026-04-28T10:22:19Z</time></trkpt><trkpt lat="43.759059500760976" lon="11.583869623560458"><ele>1105.8333333333333</ele><time>2026-04-28T10:22:20Z</time></trkpt><trkpt lat="43.759012557636474" lon="11.583937127352378"><ele>1106.6666666666665</ele><time>2026-04-28T10:22:21Z</time></trkpt><trkpt lat="43.75894231394471" lon="11.58402709580291"><ele>1107.5</ele><time>2026-04-28T10:22:23Z</time></trkpt><trkpt lat="43.75891670234813" lon="11.584159759667504"><ele>1108.3333333333333</ele><time>2026-04-28T10:22:25Z</time></trkpt><trkpt lat="43.75892225417111" lon="11.584250449669954"><ele>1109.1666666666667</ele><time>2026-04-28T10:22:26Z</time></trkpt><trkpt lat="43.7589311275614" lon="11.584351431171596"><ele>1110.0</ele><time>2026-04-28T10:22:27Z</time></trkpt><trkpt lat="43.75896091283388" lon="11.584438896015504"><ele>1110.4</ele><time>2026-04-28T10:22:28Z</time></trkpt><trkpt lat="43.75899217205649" lon="11.584532702355057"><ele>1110.8</ele><time>2026-04-28T10:22:29Z</time></trkpt><trkpt lat="43.75901738589179" lon="11.584655937879457"><ele>1111.2</ele><time>2026-04-28T10:22:30Z</time></trkpt><trkpt lat="43.75904269808714" lon="11.584798617616668"><ele>1111.6</ele><time>2026-04-28T10:22:31Z</time></trkpt><trkpt lat="43.75905145173631" lon="11.584933656319805"><ele>1112.0</ele><time>2026-04-28T10:22:32Z</time></trkpt><trkpt lat="43.759046579903256" lon="11.58504213433874"><ele>1112.0</ele><time>2026-04-28T10:22:33Z</time></trkpt><trkpt lat="43.759064109493075" lon="11.585142989653743"><ele>1112.0</ele><time>2026-04-28T10:22:34Z</time></trkpt><trkpt lat="43.75909125284659" lon="11.585281411452158"><ele>1112.0</ele><time>2026-04-28T10:22:35Z</time></trkpt><trkpt lat="43.75911726085844" lon="11.585411901950602"><ele>1112.0</ele><time>2026-04-28T10:22:36Z</time></trkpt><trkpt lat="43.759119416069055" lon="11.585522109290789"><ele>1112.0</ele><time>2026-04-28T10:22:37Z</time></trkpt><trkpt lat="43.75910332542943" lon="11.585620594024283"><ele>1112.0</ele><time>2026-04-28T10:22:38Z</time></trkpt><trkpt lat="43.75907388528407" lon="11.58572021776683"><ele>1113.1666666666667</ele><time>2026-04-28T10:22:39Z</time></trkpt><trkpt lat="43.75903530812085" lon="11.58583316774409"><ele>1114.3333333333335</ele><time>2026-04-28T10:22:40Z</time></trkpt><trkpt lat="43.75899416015357" lon="11.58595476161399"><ele>1115.5</ele><time>2026-04-28T10:22:41Z</time></trkpt><trkpt lat="43.75896883308612" lon="11.586037058107584"><ele>1116.6666666666667</ele><time>2026-04-28T10:22:42Z</time></trkpt><trkpt lat="43.75896319206335" lon="11.58616300423211"><ele>1117.8333333333333</ele><time>2026-04-28T10:22:44Z</time></trkpt><trkpt lat="43.75903545409654" lon="11.586210500576682"><ele>1119.0</ele><time>2026-04-28T10:22:46Z</time></trkpt><trkpt lat="43.75913536337116" lon="11.586259747819545"><ele>1120.0</ele><time>2026-04-28T10:22:48Z</time></trkpt><trkpt lat="43.75922348179883" lon="11.586226710369006"><ele>1121.0</ele><time>2026-04-28T10:22:49Z</time></trkpt><trkpt lat="43.759302774018536" lon="11.586257301301684"><ele>1122.0</ele><time>2026-04-28T10:22:50Z</time></trkpt><trkpt lat="43.759390899380904" lon="11.586281409011233"><ele>1123.0</ele><time>2026-04-28T10:22:51Z</time></trkpt><trkpt lat="43.75946899022263" lon="11.586301128545339"><ele>1124.0</ele><time>2026-04-28T10:22:52Z</time></trkpt><trkpt lat="43.759537417617544" lon="11.586321236194761"><ele>1125.0</ele><time>2026-04-28T10:22:53Z</time></trkpt><trkpt lat="43.75959031522346" lon="11.586373927381313"><ele>1125.0</ele><time>2026-04-28T10:22:54Z</time></trkpt><trkpt lat="43.75962737703728" lon="11.586445582419083"><ele>1125.0</ele><time>2026-04-28T10:22:55Z</time></trkpt><trkpt lat="43.759702248551925" lon="11.586538125999931"><ele>1125.0</ele><time>2026-04-28T10:22:56Z</time></trkpt><trkpt lat="43.75972444144408" lon="11.586628753756122"><ele>1125.0</ele><time>2026-04-28T10:22:56.999Z</time></trkpt><trkpt lat="43.75970095557508" lon="11.586790539818882"><ele>1125.0</ele><time>2026-04-28T10:22:58.999Z</time></trkpt><trkpt lat="43.75964199462557" lon="11.586886939053983"><ele>1125.0</ele><time>2026-04-28T10:22:59.999Z</time></trkpt><trkpt lat="43.75958639521536" lon="11.586991175330143"><ele>1124.8</ele><time>2026-04-28T10:23:00.999Z</time></trkpt><trkpt lat="43.759534362489916" lon="11.587112922603316"><ele>1124.6</ele><time>2026-04-28T10:23:01.999Z</time></trkpt><trkpt lat="43.759475897070004" lon="11.5872407177104"><ele>1124.4</ele><time>2026-04-28T10:23:02.999Z</time></trkpt><trkpt lat="43.75942447977435" lon="11.587353489259783"><ele>1124.2</ele><time>2026-04-28T10:23:03.999Z</time></trkpt><trkpt lat="43.75937582061942" lon="11.587448577092426"><ele>1124.0</ele><time>2026-04-28T10:23:04.999Z</time></trkpt><trkpt lat="43.759323182603" lon="11.587510691396727"><ele>1125.3333333333335</ele><time>2026-04-28T10:23:05.999Z</time></trkpt><trkpt lat="43.75925190900497" lon="11.587554085661642"><ele>1126.6666666666667</ele><time>2026-04-28T10:23:06.999Z</time></trkpt><trkpt lat="43.7591657340089" lon="11.587594004445858"><ele>1128.0</ele><time>2026-04-28T10:23:07.999Z</time></trkpt><trkpt lat="43.75909292382883" lon="11.587604216093574"><ele>1129.3333333333333</ele><time>2026-04-28T10:23:08.999Z</time></trkpt><trkpt lat="43.75899951031663" lon="11.587631678122966"><ele>1130.6666666666665</ele><time>2026-04-28T10:23:10.999Z</time></trkpt><trkpt lat="43.7588969083121" lon="11.5876754164233"><ele>1132.0</ele><time>2026-04-28T10:23:13.999Z</time></trkpt><trkpt lat="43.758820873439" lon="11.587671642772044"><ele>1132.0</ele><time>2026-04-28T10:23:14.999Z</time></trkpt><trkpt lat="43.75874194456735" lon="11.587661234887804"><ele>1132.0</ele><time>2026-04-28T10:23:15.999Z</time></trkpt><trkpt lat="43.758644903270415" lon="11.587586604335574"><ele>1132.0</ele><time>2026-04-28T10:23:17.999Z</time></trkpt><trkpt lat="43.75856362731992" lon="11.587488835582107"><ele>1132.0</ele><time>2026-04-28T10:23:19.999Z</time></trkpt><trkpt lat="43.758505581346604" lon="11.58742626001916"><ele>1132.0</ele><time>2026-04-28T10:23:20.999Z</time></trkpt><trkpt lat="43.7584132062475" lon="11.587391715148401"><ele>1133.8</ele><time>2026-04-28T10:23:21.999Z</time></trkpt><trkpt lat="43.7583185780281" lon="11.587371592806718"><ele>1135.6</ele><time>2026-04-28T10:23:22.999Z</time></trkpt><trkpt lat="43.75823641360738" lon="11.587355802354615"><ele>1137.3999999999999</ele><time>2026-04-28T10:23:23.999Z</time></trkpt><trkpt lat="43.75812860684124" lon="11.587395693871496"><ele>1139.2</ele><time>2026-04-28T10:23:25.999Z</time></trkpt><trkpt lat="43.75808741443776" lon="11.587493255896801"><ele>1141.0</ele><time>2026-04-28T10:23:26.999Z</time></trkpt><trkpt lat="43.75805903017811" lon="11.587594815427883"><ele>1141.0</ele><time>2026-04-28T10:23:27.999Z</time></trkpt><trkpt lat="43.75802706059204" lon="11.587678156673459"><ele>1141.0</ele><time>2026-04-28T10:23:28.999Z</time></trkpt><trkpt lat="43.75794885574419" lon="11.587761199413437"><ele>1141.0</ele><time>2026-04-28T10:23:30.999Z</time></trkpt><trkpt lat="43.75786851751707" lon="11.587796754642373"><ele>1141.0</ele><time>2026-04-28T10:23:31.999Z</time></trkpt><trkpt lat="43.757779353126836" lon="11.587809298875433"><ele>1141.0</ele><time>2026-04-28T10:23:32.999Z</time></trkpt><trkpt lat="43.75766030424297" lon="11.587783124605048"><ele>1143.3999999999999</ele><time>2026-04-28T10:23:34.999Z</time></trkpt><trkpt lat="43.757544492560214" lon="11.587720023763765"><ele>1145.8</ele><time>2026-04-28T10:23:36.999Z</time></trkpt><trkpt lat="43.75748151703964" lon="11.587686552267131"><ele>1148.1999999999998</ele><time>2026-04-28T10:23:37.999Z</time></trkpt><trkpt lat="43.757421927999005" lon="11.587627337195816"><ele>1150.6</ele><time>2026-04-28T10:23:39.999Z</time></trkpt><trkpt lat="43.75745411465359" lon="11.587491945911404"><ele>1153.0</ele><time>2026-04-28T10:23:41.999Z</time></trkpt><trkpt lat="43.757561587043725" lon="11.587429188736998"><ele>1153.0</ele><time>2026-04-28T10:23:43.999Z</time></trkpt><trkpt lat="43.75761112823906" lon="11.587334126473404"><ele>1153.0</ele><time>2026-04-28T10:23:45.999Z</time></trkpt><trkpt lat="43.7575211168552" lon="11.587305395365325"><ele>1153.0</ele><time>2026-04-28T10:23:47.999Z</time></trkpt><trkpt lat="43.757334056235806" lon="11.587348381157131"><ele>1153.0</ele><time>2026-04-28T10:23:49.999Z</time></trkpt><trkpt lat="43.757202205445175" lon="11.587426367330593"><ele>1153.0</ele><time>2026-04-28T10:23:50.999Z</time></trkpt><trkpt lat="43.757064995477094" lon="11.58748651622638"><ele>1153.0</ele><time>2026-04-28T10:23:51.999Z</time></trkpt><trkpt lat="43.757010716411244" lon="11.58757129641891"><ele>1153.0</ele><time>2026-04-28T10:23:52.999Z</time></trkpt><trkpt lat="43.756944570144846" lon="11.587615525281945"><ele>1153.0</ele><time>2026-04-28T10:23:53.999Z</time></trkpt><trkpt lat="43.7568594050259" lon="11.587669653080903"><ele>1153.0</ele><time>2026-04-28T10:23:55.999Z</time></trkpt><trkpt lat="43.75679367416543" lon="11.587696879764692"><ele>1155.0</ele><time>2026-04-28T10:23:56.999Z</time></trkpt><trkpt lat="43.756723721770044" lon="11.587722507764472"><ele>1157.0</ele><time>2026-04-28T10:23:57.999Z</time></trkpt><trkpt lat="43.756640598567834" lon="11.587724878505659"><ele>1159.0</ele><time>2026-04-28T10:23:58.999Z</time></trkpt><trkpt lat="43.75656405357901" lon="11.587719414150405"><ele>1161.0</ele><time>2026-04-28T10:23:59.999Z</time></trkpt><trkpt lat="43.756452951991434" lon="11.587612732847939"><ele>1163.0</ele><time>2026-04-28T10:24:01.999Z</time></trkpt><trkpt lat="43.75639604435027" lon="11.58755307340505"><ele>1165.0</ele><time>2026-04-28T10:24:02.999Z</time></trkpt><trkpt lat="43.75632436646899" lon="11.587525703986518"><ele>1165.0</ele><time>2026-04-28T10:24:03.999Z</time></trkpt><trkpt lat="43.75624574384583" lon="11.5874998888821"><ele>1165.0</ele><time>2026-04-28T10:24:04.999Z</time></trkpt><trkpt lat="43.75613056003536" lon="11.587428412874234"><ele>1165.0</ele><time>2026-04-28T10:24:06.999Z</time></trkpt><trkpt lat="43.75606794181037" lon="11.587338941157862"><ele>1165.0</ele><time>2026-04-28T10:24:08.998Z</time></trkpt><trkpt lat="43.75602870915568" lon="11.587264052987328"><ele>1165.0</ele><time>2026-04-28T10:24:09.998Z</time></trkpt><trkpt lat="43.75602949207683" lon="11.587169475844874"><ele>1165.0</ele><time>2026-04-28T10:24:10.998Z</time></trkpt><trkpt lat="43.75608139802422" lon="11.587042493116929"><ele>1166.4</ele><time>2026-04-28T10:24:12Z</time></trkpt><trkpt lat="43.75613658319783" lon="11.58691504845884"><ele>1167.8</ele><time>2026-04-28T10:24:14Z</time></trkpt><trkpt lat="43.75606284599033" lon="11.586769772321166"><ele>1169.2</ele><time>2026-04-28T10:24:16Z</time></trkpt><trkpt lat="43.756017816065686" lon="11.586663377021244"><ele>1170.6</ele><time>2026-04-28T10:24:17Z</time></trkpt><trkpt lat="43.75598337971304" lon="11.586541520648478"><ele>1172.0</ele><time>2026-04-28T10:24:18Z</time></trkpt><trkpt lat="43.75594310380951" lon="11.586426482760212"><ele>1173.5</ele><time>2026-04-28T10:24:19Z</time></trkpt><trkpt lat="43.75588231470594" lon="11.586348906555754"><ele>1175.0</ele><time>2026-04-28T10:24:20Z</time></trkpt><trkpt lat="43.75582887648663" lon="11.586291486329273"><ele>1176.5</ele><time>2026-04-28T10:24:21Z</time></trkpt><trkpt lat="43.75572545117674" lon="11.586260491699674"><ele>1178.0</ele><time>2026-04-28T10:24:23Z</time></trkpt><trkpt lat="43.75565451441184" lon="11.586261814673854"><ele>1179.5</ele><time>2026-04-28T10:24:24Z</time></trkpt><trkpt lat="43.75558002268124" lon="11.586246656979354"><ele>1181.0</ele><time>2026-04-28T10:24:25Z</time></trkpt><trkpt lat="43.75550897934654" lon="11.586183596183025"><ele>1182.0</ele><time>2026-04-28T10:24:26Z</time></trkpt><trkpt lat="43.75541566006638" lon="11.586144850889678"><ele>1183.0</ele><time>2026-04-28T10:24:27Z</time></trkpt><trkpt lat="43.75533214376005" lon="11.586112758632893"><ele>1184.0</ele><time>2026-04-28T10:24:28Z</time></trkpt><trkpt lat="43.755279877822574" lon="11.586061590273985"><ele>1185.0</ele><time>2026-04-28T10:24:29Z</time></trkpt><trkpt lat="43.755194066355656" lon="11.586003487665545"><ele>1186.0</ele><time>2026-04-28T10:24:31Z</time></trkpt><trkpt lat="43.755026526188054" lon="11.585984863364118"><ele>1187.6</ele><time>2026-04-28T10:24:33Z</time></trkpt><trkpt lat="43.75494133742737" lon="11.585982500468162"><ele>1189.1999999999998</ele><time>2026-04-28T10:24:34Z</time></trkpt><trkpt lat="43.75487751330344" lon="11.585992496265135"><ele>1190.8000000000002</ele><time>2026-04-28T10:24:35Z</time></trkpt><trkpt lat="43.75478039045842" lon="11.586019540349774"><ele>1192.4</ele><time>2026-04-28T10:24:37Z</time></trkpt><trkpt lat="43.75469033246974" lon="11.586028299755764"><ele>1194.0</ele><time>2026-04-28T10:24:39Z</time></trkpt><trkpt lat="43.754577654774806" lon="11.586014352842758"><ele>1194.0</ele><time>2026-04-28T10:24:41Z</time></trkpt><trkpt lat="43.754494082289064" lon="11.586045997157187"><ele>1194.0</ele><time>2026-04-28T10:24:43Z</time></trkpt><trkpt lat="43.75442807516954" lon="11.586039727645733"><ele>1194.0</ele><time>2026-04-28T10:24:44Z</time></trkpt><trkpt lat="43.75435951794127" lon="11.586025831945998"><ele>1194.0</ele><time>2026-04-28T10:24:45Z</time></trkpt><trkpt lat="43.75428503690686" lon="11.585978830411712"><ele>1194.0</ele><time>2026-04-28T10:24:46Z</time></trkpt><trkpt lat="43.75420891779838" lon="11.585957915706095"><ele>1194.0</ele><time>2026-04-28T10:24:47Z</time></trkpt><trkpt lat="43.75410538921024" lon="11.585916231917109"><ele>1195.0</ele><time>2026-04-28T10:24:48Z</time></trkpt><trkpt lat="43.75399877559644" lon="11.58580215417312"><ele>1196.0</ele><time>2026-04-28T10:24:49Z</time></trkpt><trkpt lat="43.75391372539043" lon="11.585733097234105"><ele>1197.0</ele><time>2026-04-28T10:24:50Z</time></trkpt><trkpt lat="43.75381450766903" lon="11.585663072639873"><ele>1198.0</ele><time>2026-04-28T10:24:51Z</time></trkpt><trkpt lat="43.75373129812165" lon="11.58559923359942"><ele>1199.0</ele><time>2026-04-28T10:24:52Z</time></trkpt><trkpt lat="43.75364565772258" lon="11.585530352494258"><ele>1199.0</ele><time>2026-04-28T10:24:53Z</time></trkpt><trkpt lat="43.75355623640929" lon="11.585445713766449"><ele>1199.0</ele><time>2026-04-28T10:24:54Z</time></trkpt><trkpt lat="43.7534911688521" lon="11.585391771906716"><ele>1199.0</ele><time>2026-04-28T10:24:55Z</time></trkpt><trkpt lat="43.75335875284314" lon="11.585318989605392"><ele>1199.0</ele><time>2026-04-28T10:24:57Z</time></trkpt><trkpt lat="43.75330868954468" lon="11.585193579574442"><ele>1199.0</ele><time>2026-04-28T10:24:58.999Z</time></trkpt><trkpt lat="43.75324799144385" lon="11.585141509896436"><ele>1200.0</ele><time>2026-04-28T10:24:59.999Z</time></trkpt><trkpt lat="43.75316099919934" lon="11.58508218965881"><ele>1201.0</ele><time>2026-04-28T10:25:00.999Z</time></trkpt><trkpt lat="43.753080273767814" lon="11.585025254767658"><ele>1202.0</ele><time>2026-04-28T10:25:01.999Z</time></trkpt><trkpt lat="43.75300671143466" lon="11.584997068373825"><ele>1203.0</ele><time>2026-04-28T10:25:02.999Z</time></trkpt><trkpt lat="43.75293485337449" lon="11.584992590552313"><ele>1204.0</ele><time>2026-04-28T10:25:03.999Z</time></trkpt><trkpt lat="43.752846002249505" lon="11.585014525411149"><ele>1205.0</ele><time>2026-04-28T10:25:04.999Z</time></trkpt><trkpt lat="43.75278069604353" lon="11.585034340233669"><ele>1206.2</ele><time>2026-04-28T10:25:05.999Z</time></trkpt><trkpt lat="43.75267935736608" lon="11.58505361153139"><ele>1207.4</ele><time>2026-04-28T10:25:07.999Z</time></trkpt><trkpt lat="43.75258182367726" lon="11.58496773342191"><ele>1208.6</ele><time>2026-04-28T10:25:09.999Z</time></trkpt><trkpt lat="43.75250412276064" lon="11.584902436623217"><ele>1209.8</ele><time>2026-04-28T10:25:10.999Z</time></trkpt><trkpt lat="43.75243697518505" lon="11.584873000333575"><ele>1211.0</ele><time>2026-04-28T10:25:11.999Z</time></trkpt><trkpt lat="43.75233648218655" lon="11.584865080294383"><ele>1211.0</ele><time>2026-04-28T10:25:12.999Z</time></trkpt><trkpt lat="43.75219272159678" lon="11.584864967251976"><ele>1211.0</ele><time>2026-04-28T10:25:13.999Z</time></trkpt><trkpt lat="43.7520759739699" lon="11.58482895133661"><ele>1211.0</ele><time>2026-04-28T10:25:14.999Z</time></trkpt><trkpt lat="43.75197280618137" lon="11.58478595583364"><ele>1211.0</ele><time>2026-04-28T10:25:15.999Z</time></trkpt><trkpt lat="43.75184200705075" lon="11.584727922409314"><ele>1210.3999999999999</ele><time>2026-04-28T10:25:16.999Z</time></trkpt><trkpt lat="43.751730547705726" lon="11.584675978706786"><ele>1209.8</ele><time>2026-04-28T10:25:17.999Z</time></trkpt><trkpt lat="43.75163824446792" lon="11.584619433730575"><ele>1209.1999999999998</ele><time>2026-04-28T10:25:18.999Z</time></trkpt><trkpt lat="43.75156421595651" lon="11.584541437746362"><ele>1208.6</ele><time>2026-04-28T10:25:19.999Z</time></trkpt><trkpt lat="43.75150274369745" lon="11.584433344609986"><ele>1208.0</ele><time>2026-04-28T10:25:20.999Z</time></trkpt><trkpt lat="43.75142743854096" lon="11.584341055294361"><ele>1208.0</ele><time>2026-04-28T10:25:21.999Z</time></trkpt><trkpt lat="43.751357025456855" lon="11.58424688563977"><ele>1208.0</ele><time>2026-04-28T10:25:22.999Z</time></trkpt><trkpt lat="43.75129655257946" lon="11.584146437070796"><ele>1208.0</ele><time>2026-04-28T10:25:23.999Z</time></trkpt><trkpt lat="43.7512189157655" lon="11.584058499422557"><ele>1208.0</ele><time>2026-04-28T10:25:24.999Z</time></trkpt><trkpt lat="43.751148134767455" lon="11.58397107117172"><ele>1208.0</ele><time>2026-04-28T10:25:25.999Z</time></trkpt><trkpt lat="43.751080812080595" lon="11.5839023727822"><ele>1211.6</ele><time>2026-04-28T10:25:26.999Z</time></trkpt><trkpt lat="43.751012687497706" lon="11.583837107448927"><ele>1215.1999999999998</ele><time>2026-04-28T10:25:27.999Z</time></trkpt><trkpt lat="43.75090344110673" lon="11.58377575624587"><ele>1218.8</ele><time>2026-04-28T10:25:29.999Z</time></trkpt><trkpt lat="43.75080656445916" lon="11.583745733047486"><ele>1222.3999999999999</ele><time>2026-04-28T10:25:31.999Z</time></trkpt><trkpt lat="43.7507049951566" lon="11.58377846505097"><ele>1226.0</ele><time>2026-04-28T10:25:33.999Z</time></trkpt><trkpt lat="43.75063434132892" lon="11.583887440550706"><ele>1226.0</ele><time>2026-04-28T10:25:36.999Z</time></trkpt><trkpt lat="43.750570068980174" lon="11.583977742901293"><ele>1226.0</ele><time>2026-04-28T10:25:38.999Z</time></trkpt><trkpt lat="43.750531287207565" lon="11.584143734096452"><ele>1226.0</ele><time>2026-04-28T10:25:40.999Z</time></trkpt><trkpt lat="43.75052090268206" lon="11.584292200510136"><ele>1226.0</ele><time>2026-04-28T10:25:42.999Z</time></trkpt><trkpt lat="43.75051040815582" lon="11.584450706947592"><ele>1226.0</ele><time>2026-04-28T10:25:44.999Z</time></trkpt><trkpt lat="43.75051123061847" lon="11.58457195312257"><ele>1227.5</ele><time>2026-04-28T10:25:45.999Z</time></trkpt><trkpt lat="43.75051013373264" lon="11.584674916823422"><ele>1229.0</ele><time>2026-04-28T10:25:46.999Z</time></trkpt><trkpt lat="43.75052230853456" lon="11.58480386316388"><ele>1230.5</ele><time>2026-04-28T10:25:47.999Z</time></trkpt><trkpt lat="43.750521508904164" lon="11.584896359140203"><ele>1232.0</ele><time>2026-04-28T10:25:48.999Z</time></trkpt><trkpt lat="43.75052454772307" lon="11.584985313876524"><ele>1233.5</ele><time>2026-04-28T10:25:49.999Z</time></trkpt><trkpt lat="43.750525514185284" lon="11.58513064553047"><ele>1235.0</ele><time>2026-04-28T10:25:51.999Z</time></trkpt><trkpt lat="43.75053654612442" lon="11.585223649440154"><ele>1235.0</ele><time>2026-04-28T10:25:52.999Z</time></trkpt><trkpt lat="43.7505339545046" lon="11.585349984221535"><ele>1235.0</ele><time>2026-04-28T10:25:53.999Z</time></trkpt><trkpt lat="43.75053225115506" lon="11.58545156806818"><ele>1235.0</ele><time>2026-04-28T10:25:54.999Z</time></trkpt><trkpt lat="43.75055292886846" lon="11.585560637166699"><ele>1235.0</ele><time>2026-04-28T10:25:55.999Z</time></trkpt><trkpt lat="43.75059520526524" lon="11.585655909333433"><ele>1235.0</ele><time>2026-04-28T10:25:56.999Z</time></trkpt><trkpt lat="43.75060505092944" lon="11.585742847855967"><ele>1235.0</ele><time>2026-04-28T10:25:57.999Z</time></trkpt><trkpt lat="43.75061780140316" lon="11.585834782968314"><ele>1235.0</ele><time>2026-04-28T10:25:58.999Z</time></trkpt><trkpt lat="43.750640648853235" lon="11.586003746558392"><ele>1235.0</ele><time>2026-04-28T10:26:00.999Z</time></trkpt><trkpt lat="43.75060999392338" lon="11.58615615312592"><ele>1235.0</ele><time>2026-04-28T10:26:02.999Z</time></trkpt><trkpt lat="43.750594063141044" lon="11.5862410884688"><ele>1235.0</ele><time>2026-04-28T10:26:03.999Z</time></trkpt><trkpt lat="43.750531762294806" lon="11.58628603126078"><ele>1235.0</ele><time>2026-04-28T10:26:50Z</time></trkpt><trkpt lat="43.75047456148724" lon="11.586420196079906"><ele>1233.8</ele><time>2026-04-28T10:26:53Z</time></trkpt><trkpt lat="43.75041749475552" lon="11.586509503500098"><ele>1232.6</ele><time>2026-04-28T10:26:54Z</time></trkpt><trkpt lat="43.750334470462505" lon="11.586617817132886"><ele>1231.4</ele><time>2026-04-28T10:26:55Z</time></trkpt><trkpt lat="43.750245304052974" lon="11.586720742451863"><ele>1230.2</ele><time>2026-04-28T10:26:56Z</time></trkpt><trkpt lat="43.75020239707134" lon="11.586806425542067"><ele>1229.0</ele><time>2026-04-28T10:26:57Z</time></trkpt><trkpt lat="43.75012926510585" lon="11.586912769680652"><ele>1229.0</ele><time>2026-04-28T10:26:58Z</time></trkpt><trkpt lat="43.75007763270152" lon="11.586996869332813"><ele>1229.0</ele><time>2026-04-28T10:26:59Z</time></trkpt><trkpt lat="43.75001009445719" lon="11.587059767851445"><ele>1229.0</ele><time>2026-04-28T10:27:00Z</time></trkpt><trkpt lat="43.74995250400605" lon="11.587133028323775"><ele>1229.0</ele><time>2026-04-28T10:27:01Z</time></trkpt><trkpt lat="43.749881946585944" lon="11.587201510062513"><ele>1229.0</ele><time>2026-04-28T10:27:02Z</time></trkpt><trkpt lat="43.74981636286375" lon="11.58724621042286"><ele>1229.0</ele><time>2026-04-28T10:27:03Z</time></trkpt><trkpt lat="43.749753257772866" lon="11.587303812888623"><ele>1229.0</ele><time>2026-04-28T10:27:04Z</time></trkpt><trkpt lat="43.74966599891196" lon="11.587362493995334"><ele>1229.0</ele><time>2026-04-28T10:27:05Z</time></trkpt><trkpt lat="43.74959688066341" lon="11.587414172934261"><ele>1229.0</ele><time>2026-04-28T10:27:05.999Z</time></trkpt><trkpt lat="43.74951956852644" lon="11.587478085047136"><ele>1229.0</ele><time>2026-04-28T10:27:06.999Z</time></trkpt><trkpt lat="43.74945261839417" lon="11.587541900587711"><ele>1229.0</ele><time>2026-04-28T10:27:07.999Z</time></trkpt><trkpt lat="43.74940065652433" lon="11.587615548388007"><ele>1229.0</ele><time>2026-04-28T10:27:08.999Z</time></trkpt><trkpt lat="43.74935129051068" lon="11.587679116446775"><ele>1229.6000000000001</ele><time>2026-04-28T10:27:09.999Z</time></trkpt><trkpt lat="43.74929577000758" lon="11.587741804673385"><ele>1230.2</ele><time>2026-04-28T10:27:10.999Z</time></trkpt><trkpt lat="43.74921588427127" lon="11.587807040185739"><ele>1230.8000000000002</ele><time>2026-04-28T10:27:11.999Z</time></trkpt><trkpt lat="43.749120253016116" lon="11.587869418664079"><ele>1231.4</ele><time>2026-04-28T10:27:12.999Z</time></trkpt><trkpt lat="43.74901943888915" lon="11.587926689812338"><ele>1232.0</ele><time>2026-04-28T10:27:13.999Z</time></trkpt><trkpt lat="43.74894307451936" lon="11.58798108482943"><ele>1232.0</ele><time>2026-04-28T10:27:14.999Z</time></trkpt><trkpt lat="43.74887292219607" lon="11.588051212293594"><ele>1232.0</ele><time>2026-04-28T10:27:15.999Z</time></trkpt><trkpt lat="43.74880408977987" lon="11.588185665176654"><ele>1232.0</ele><time>2026-04-28T10:27:17.999Z</time></trkpt><trkpt lat="43.74875631471591" lon="11.588267080697843"><ele>1232.0</ele><time>2026-04-28T10:27:18.999Z</time></trkpt><trkpt lat="43.74865758282949" lon="11.588410132755874"><ele>1232.0</ele><time>2026-04-28T10:27:20.999Z</time></trkpt><trkpt lat="43.74857845106456" lon="11.588540615595905"><ele>1233.4</ele><time>2026-04-28T10:27:21.999Z</time></trkpt><trkpt lat="43.74850103836618" lon="11.588659286644493"><ele>1234.8000000000002</ele><time>2026-04-28T10:27:22.999Z</time></trkpt><trkpt lat="43.74843789538547" lon="11.588789470275422"><ele>1236.2</ele><time>2026-04-28T10:27:23.999Z</time></trkpt><trkpt lat="43.748402294428004" lon="11.58891383881015"><ele>1237.6000000000001</ele><time>2026-04-28T10:27:24.999Z</time></trkpt><trkpt lat="43.74835173994582" lon="11.58904187624823"><ele>1239.0</ele><time>2026-04-28T10:27:25.999Z</time></trkpt><trkpt lat="43.74829503845017" lon="11.589163468833954"><ele>1239.8333333333333</ele><time>2026-04-28T10:27:26.999Z</time></trkpt><trkpt lat="43.74824630384031" lon="11.589264887253892"><ele>1240.6666666666667</ele><time>2026-04-28T10:27:27.999Z</time></trkpt><trkpt lat="43.748166013148754" lon="11.589320858105763"><ele>1241.5</ele><time>2026-04-28T10:27:28.999Z</time></trkpt><trkpt lat="43.748098211473554" lon="11.589364771435818"><ele>1242.3333333333335</ele><time>2026-04-28T10:27:29.999Z</time></trkpt><trkpt lat="43.748018431809506" lon="11.589382377283712"><ele>1243.1666666666667</ele><time>2026-04-28T10:27:30.999Z</time></trkpt><trkpt lat="43.74792819986604" lon="11.589408342279945"><ele>1244.0</ele><time>2026-04-28T10:27:31.999Z</time></trkpt><trkpt lat="43.747855664939536" lon="11.58945975585654"><ele>1246.2</ele><time>2026-04-28T10:27:32.999Z</time></trkpt><trkpt lat="43.747785086863026" lon="11.58954949395098"><ele>1248.4</ele><time>2026-04-28T10:27:33.999Z</time></trkpt><trkpt lat="43.747733602924704" lon="11.589614538686469"><ele>1250.6</ele><time>2026-04-28T10:27:34.999Z</time></trkpt><trkpt lat="43.747635575175835" lon="11.589711646726254"><ele>1252.8</ele><time>2026-04-28T10:27:36.999Z</time></trkpt><trkpt lat="43.747577585616646" lon="11.58976262469818"><ele>1255.0</ele><time>2026-04-28T10:27:37.999Z</time></trkpt><trkpt lat="43.747485390817104" lon="11.589848300692838"><ele>1255.2</ele><time>2026-04-28T10:27:39.999Z</time></trkpt><trkpt lat="43.74735323668318" lon="11.589901187490545"><ele>1255.4</ele><time>2026-04-28T10:27:41.999Z</time></trkpt><trkpt lat="43.747280679068844" lon="11.589921286114619"><ele>1255.6</ele><time>2026-04-28T10:27:42.999Z</time></trkpt><trkpt lat="43.747193560330324" lon="11.589909362462876"><ele>1255.8</ele><time>2026-04-28T10:27:43.999Z</time></trkpt><trkpt lat="43.74709326871235" lon="11.589870342603596"><ele>1256.0</ele><time>2026-04-28T10:27:44.999Z</time></trkpt><trkpt lat="43.74701064417374" lon="11.58982338974148"><ele>1256.0</ele><time>2026-04-28T10:27:45.999Z</time></trkpt><trkpt lat="43.74693744272481" lon="11.589778198879403"><ele>1256.0</ele><time>2026-04-28T10:27:46.999Z</time></trkpt><trkpt lat="43.7468718181319" lon="11.589719406129914"><ele>1256.0</ele><time>2026-04-28T10:27:47.999Z</time></trkpt><trkpt lat="43.74678827723285" lon="11.589638159241414"><ele>1256.0</ele><time>2026-04-28T10:27:48.999Z</time></trkpt><trkpt lat="43.74670417152938" lon="11.589564381205946"><ele>1256.0</ele><time>2026-04-28T10:27:49.999Z</time></trkpt><trkpt lat="43.746639018689955" lon="11.589487851727315"><ele>1256.0</ele><time>2026-04-28T10:27:50.999Z</time></trkpt><trkpt lat="43.746585989586585" lon="11.589434508537451"><ele>1255.0</ele><time>2026-04-28T10:27:51.999Z</time></trkpt><trkpt lat="43.74648211263621" lon="11.589315859230705"><ele>1254.0</ele><time>2026-04-28T10:27:53.999Z</time></trkpt><trkpt lat="43.74637810057155" lon="11.58925511890402"><ele>1253.0</ele><time>2026-04-28T10:27:55.999Z</time></trkpt><trkpt lat="43.74627288509082" lon="11.589195338503616"><ele>1252.0</ele><time>2026-04-28T10:27:57.999Z</time></trkpt><trkpt lat="43.74620138535718" lon="11.589159612180268"><ele>1251.0</ele><time>2026-04-28T10:27:58.999Z</time></trkpt><trkpt lat="43.74613265363355" lon="11.58913139138712"><ele>1251.0</ele><time>2026-04-28T10:27:59.999Z</time></trkpt><trkpt lat="43.74606954390734" lon="11.589097759067794"><ele>1251.0</ele><time>2026-04-28T10:28:00.999Z</time></trkpt><trkpt lat="43.74597614841364" lon="11.589030855563667"><ele>1251.0</ele><time>2026-04-28T10:28:02.999Z</time></trkpt><trkpt lat="43.74593415644944" lon="11.588946942475589"><ele>1251.0</ele><time>2026-04-28T10:28:04.999Z</time></trkpt><trkpt lat="43.745902109036905" lon="11.58884704348695"><ele>1251.0</ele><time>2026-04-28T10:28:06.999Z</time></trkpt><trkpt lat="43.74586695793428" lon="11.58876282591934"><ele>1251.0</ele><time>2026-04-28T10:28:07.999Z</time></trkpt><trkpt lat="43.7457985311486" lon="11.5886319010842"><ele>1251.3333333333333</ele><time>2026-04-28T10:28:09.999Z</time></trkpt><trkpt lat="43.74576088972673" lon="11.588543466435903"><ele>1251.6666666666667</ele><time>2026-04-28T10:28:10.999Z</time></trkpt><trkpt lat="43.74570222386218" lon="11.588470896060645"><ele>1252.0</ele><time>2026-04-28T10:28:11.999Z</time></trkpt><trkpt lat="43.745644542846044" lon="11.58839563234249"><ele>1252.3333333333335</ele><time>2026-04-28T10:28:12.999Z</time></trkpt><trkpt lat="43.745605699020516" lon="11.588302757006236"><ele>1252.6666666666667</ele><time>2026-04-28T10:28:13.999Z</time></trkpt><trkpt lat="43.745523381873625" lon="11.588147579649704"><ele>1253.0</ele><time>2026-04-28T10:28:15.999Z</time></trkpt><trkpt lat="43.74548465380301" lon="11.588049605806734"><ele>1253.0</ele><time>2026-04-28T10:28:16.999Z</time></trkpt><trkpt lat="43.74543367757177" lon="11.587956648647822"><ele>1253.0</ele><time>2026-04-28T10:28:17.998Z</time></trkpt><trkpt lat="43.745376190292596" lon="11.587812211089009"><ele>1253.0</ele><time>2026-04-28T10:28:19.998Z</time></trkpt><trkpt lat="43.74531896689651" lon="11.587714386744457"><ele>1253.0</ele><time>2026-04-28T10:28:21.998Z</time></trkpt><trkpt lat="43.74528204343883" lon="11.587576565007641"><ele>1253.0</ele><time>2026-04-28T10:28:24Z</time></trkpt><trkpt lat="43.74525698264837" lon="11.58736225123458"><ele>1251.4</ele><time>2026-04-28T10:28:26Z</time></trkpt><trkpt lat="43.74526949239172" lon="11.587203787026214"><ele>1249.8</ele><time>2026-04-28T10:28:28Z</time></trkpt><trkpt lat="43.7452618998267" lon="11.587088219303126"><ele>1248.2</ele><time>2026-04-28T10:28:29Z</time></trkpt><trkpt lat="43.74524906062877" lon="11.586982663605257"><ele>1246.6</ele><time>2026-04-28T10:28:30Z</time></trkpt><trkpt lat="43.74522594246691" lon="11.586894054855122"><ele>1245.0</ele><time>2026-04-28T10:28:31Z</time></trkpt><trkpt lat="43.7451001594646" lon="11.586773941281105"><ele>1244.0</ele><time>2026-04-28T10:28:33Z</time></trkpt><trkpt lat="43.74500549982729" lon="11.58667302697073"><ele>1243.0</ele><time>2026-04-28T10:28:36Z</time></trkpt><trkpt lat="43.7449397043917" lon="11.586653298357618"><ele>1242.0</ele><time>2026-04-28T10:28:37Z</time></trkpt><trkpt lat="43.74488370769483" lon="11.586599611467078"><ele>1241.0</ele><time>2026-04-28T10:28:38Z</time></trkpt><trkpt lat="43.74479480853381" lon="11.586503082949882"><ele>1240.0</ele><time>2026-04-28T10:28:40Z</time></trkpt><trkpt lat="43.74469070441001" lon="11.586389466131084"><ele>1240.0</ele><time>2026-04-28T10:28:42Z</time></trkpt><trkpt lat="43.7445999521421" lon="11.58630878040156"><ele>1240.0</ele><time>2026-04-28T10:28:44Z</time></trkpt><trkpt lat="43.7445038534854" lon="11.5862103156356"><ele>1240.0</ele><time>2026-04-28T10:28:46Z</time></trkpt><trkpt lat="43.74445095443726" lon="11.58615256821868"><ele>1240.0</ele><time>2026-04-28T10:28:47Z</time></trkpt><trkpt lat="43.744370050877656" lon="11.586086586874055"><ele>1240.0</ele><time>2026-04-28T10:28:49Z</time></trkpt><trkpt lat="43.74432722746022" lon="11.586001009744002"><ele>1236.3333333333333</ele><time>2026-04-28T10:28:50Z</time></trkpt><trkpt lat="43.74428672510717" lon="11.585917270935829"><ele>1232.6666666666665</ele><time>2026-04-28T10:28:51Z</time></trkpt><trkpt lat="43.744246914182995" lon="11.585841010366932"><ele>1229.0</ele><time>2026-04-28T10:28:52Z</time></trkpt><trkpt lat="43.7442053270032" lon="11.585754811642932"><ele>1225.3333333333333</ele><time>2026-04-28T10:28:53Z</time></trkpt><trkpt lat="43.744173157410394" lon="11.585676729456226"><ele>1221.6666666666667</ele><time>2026-04-28T10:28:54Z</time></trkpt><trkpt lat="43.74414380925495" lon="11.585531773277781"><ele>1218.0</ele><time>2026-04-28T10:28:56Z</time></trkpt><trkpt lat="43.74410852074736" lon="11.585428217737716"><ele>1217.2</ele><time>2026-04-28T10:28:57Z</time></trkpt><trkpt lat="43.744101564394995" lon="11.585338767692216"><ele>1216.4</ele><time>2026-04-28T10:28:58Z</time></trkpt><trkpt lat="43.74408597936456" lon="11.585166724038876"><ele>1215.6000000000001</ele><time>2026-04-28T10:29:00Z</time></trkpt><trkpt lat="43.74411442274215" lon="11.585020049972716"><ele>1214.8</ele><time>2026-04-28T10:29:02Z</time></trkpt><trkpt lat="43.74409708405921" lon="11.584885111183581"><ele>1214.0</ele><time>2026-04-28T10:29:04Z</time></trkpt><trkpt lat="43.74401609355817" lon="11.584742203892798"><ele>1214.0</ele><time>2026-04-28T10:29:06Z</time></trkpt><trkpt lat="43.743975728803335" lon="11.5846707789806"><ele>1214.0</ele><time>2026-04-28T10:29:07Z</time></trkpt><trkpt lat="43.743947605569495" lon="11.584587507972518"><ele>1214.0</ele><time>2026-04-28T10:29:08Z</time></trkpt><trkpt lat="43.74392003122656" lon="11.58450191460455"><ele>1214.0</ele><time>2026-04-28T10:29:09Z</time></trkpt><trkpt lat="43.74387154735991" lon="11.584363400872137"><ele>1214.0</ele><time>2026-04-28T10:29:10.999Z</time></trkpt><trkpt lat="43.743822485693336" lon="11.584240693029122"><ele>1214.0</ele><time>2026-04-28T10:29:12.999Z</time></trkpt><trkpt lat="43.74379135721701" lon="11.584078642163204"><ele>1213.4</ele><time>2026-04-28T10:29:14.999Z</time></trkpt><trkpt lat="43.74377264297672" lon="11.58394672454625"><ele>1212.8000000000002</ele><time>2026-04-28T10:29:16.999Z</time></trkpt><trkpt lat="43.74371702892724" lon="11.58385611572007"><ele>1212.1999999999998</ele><time>2026-04-28T10:29:18.999Z</time></trkpt><trkpt lat="43.74367490053419" lon="11.583771707112447"><ele>1211.6</ele><time>2026-04-28T10:29:31.999Z</time></trkpt><trkpt lat="43.74367170108675" lon="11.583626663689943"><ele>1211.0</ele><time>2026-04-28T10:29:33.999Z</time></trkpt><trkpt lat="43.74367172752082" lon="11.58345665587481"><ele>1211.0</ele><time>2026-04-28T10:29:35.999Z</time></trkpt><trkpt lat="43.74368362857209" lon="11.583368590880307"><ele>1211.0</ele><time>2026-04-28T10:29:36.999Z</time></trkpt><trkpt lat="43.74370876116879" lon="11.583232861363285"><ele>1211.0</ele><time>2026-04-28T10:29:37.999Z</time></trkpt><trkpt lat="43.74372557287668" lon="11.58310028546156"><ele>1211.0</ele><time>2026-04-28T10:29:38.999Z</time></trkpt><trkpt lat="43.74374138953773" lon="11.58298262659101"><ele>1211.0</ele><time>2026-04-28T10:29:39.999Z</time></trkpt><trkpt lat="43.743741002269736" lon="11.582873099201418"><ele>1211.0</ele><time>2026-04-28T10:29:40.999Z</time></trkpt><trkpt lat="43.74372676730137" lon="11.582732487847526"><ele>1213.2</ele><time>2026-04-28T10:29:42.999Z</time></trkpt><trkpt lat="43.74371178034515" lon="11.582570966323892"><ele>1215.3999999999999</ele><time>2026-04-28T10:29:44.999Z</time></trkpt><trkpt lat="43.74370650240966" lon="11.58241055150021"><ele>1217.6</ele><time>2026-04-28T10:29:46.999Z</time></trkpt><trkpt lat="43.74373473458343" lon="11.582327327608724"><ele>1219.8</ele><time>2026-04-28T10:29:47.999Z</time></trkpt><trkpt lat="43.743734201985475" lon="11.582210254321732"><ele>1222.0</ele><time>2026-04-28T10:29:49.999Z</time></trkpt><trkpt lat="43.74369736908699" lon="11.58212841474922"><ele>1222.0</ele><time>2026-04-28T10:29:50.999Z</time></trkpt><trkpt lat="43.743675099929376" lon="11.582037188047796"><ele>1222.0</ele><time>2026-04-28T10:29:51.999Z</time></trkpt><trkpt lat="43.74364189185421" lon="11.581946485198108"><ele>1222.0</ele><time>2026-04-28T10:29:52.999Z</time></trkpt><trkpt lat="43.74361607495472" lon="11.581840658795175"><ele>1222.0</ele><time>2026-04-28T10:29:53.999Z</time></trkpt><trkpt lat="43.74352471007821" lon="11.581699686877874"><ele>1222.0</ele><time>2026-04-28T10:29:55.999Z</time></trkpt><trkpt lat="43.743464476932616" lon="11.58163124088116"><ele>1222.0</ele><time>2026-04-28T10:29:56.999Z</time></trkpt><trkpt lat="43.743408708370076" lon="11.581550650502267"><ele>1223.8333333333333</ele><time>2026-04-28T10:29:57.999Z</time></trkpt><trkpt lat="43.74335098999235" lon="11.581452188553833"><ele>1225.6666666666665</ele><time>2026-04-28T10:29:58.999Z</time></trkpt><trkpt lat="43.74329941593806" lon="11.58133984724166"><ele>1227.5</ele><time>2026-04-28T10:29:59.999Z</time></trkpt><trkpt lat="43.74324873602662" lon="11.581237662463707"><ele>1229.3333333333333</ele><time>2026-04-28T10:30:00.999Z</time></trkpt><trkpt lat="43.74318796972508" lon="11.581180004268377"><ele>1231.1666666666667</ele><time>2026-04-28T10:30:01.999Z</time></trkpt><trkpt lat="43.74313490896406" lon="11.581095760949513"><ele>1233.0</ele><time>2026-04-28T10:30:02.999Z</time></trkpt><trkpt lat="43.74307671318632" lon="11.581003115028375"><ele>1234.0</ele><time>2026-04-28T10:30:03.999Z</time></trkpt><trkpt lat="43.74303261191171" lon="11.580917827203642"><ele>1235.0</ele><time>2026-04-28T10:30:04.999Z</time></trkpt><trkpt lat="43.74299181969517" lon="11.580838523532794"><ele>1236.0</ele><time>2026-04-28T10:30:05.999Z</time></trkpt><trkpt lat="43.74291596028403" lon="11.580727108600293"><ele>1237.0</ele><time>2026-04-28T10:30:07.999Z</time></trkpt><trkpt lat="43.742858723040314" lon="11.58068114505631"><ele>1238.0</ele><time>2026-04-28T10:30:08.999Z</time></trkpt><trkpt lat="43.74278172513918" lon="11.580625236129666"><ele>1239.0</ele><time>2026-04-28T10:30:09.999Z</time></trkpt><trkpt lat="43.74270336352866" lon="11.580562873106448"><ele>1239.0</ele><time>2026-04-28T10:30:10.999Z</time></trkpt><trkpt lat="43.74264517701841" lon="11.580478303933427"><ele>1239.0</ele><time>2026-04-28T10:30:11.999Z</time></trkpt><trkpt lat="43.74260009353731" lon="11.580409920520813"><ele>1239.0</ele><time>2026-04-28T10:30:12.999Z</time></trkpt><trkpt lat="43.74254219612003" lon="11.58034222916832"><ele>1239.0</ele><time>2026-04-28T10:30:13.999Z</time></trkpt><trkpt lat="43.7424805962941" lon="11.580305615688378"><ele>1239.0</ele><time>2026-04-28T10:30:14.999Z</time></trkpt><trkpt lat="43.74240711571968" lon="11.580244190966837"><ele>1239.0</ele><time>2026-04-28T10:30:15.999Z</time></trkpt><trkpt lat="43.74235683971577" lon="11.580164142867538"><ele>1241.3333333333333</ele><time>2026-04-28T10:30:16.999Z</time></trkpt><trkpt lat="43.742319789548915" lon="11.580090163685258"><ele>1243.6666666666667</ele><time>2026-04-28T10:30:17.999Z</time></trkpt><trkpt lat="43.7422597049286" lon="11.58001318639202"><ele>1246.0</ele><time>2026-04-28T10:30:18.999Z</time></trkpt><trkpt lat="43.74217507927615" lon="11.579919944691015"><ele>1248.3333333333335</ele><time>2026-04-28T10:30:19.999Z</time></trkpt><trkpt lat="43.742095626298685" lon="11.579846702335747"><ele>1250.6666666666667</ele><time>2026-04-28T10:30:20.999Z</time></trkpt><trkpt lat="43.74201368601304" lon="11.57978303002667"><ele>1253.0</ele><time>2026-04-28T10:30:21.999Z</time></trkpt><trkpt lat="43.74193242735349" lon="11.579744997380809"><ele>1254.2</ele><time>2026-04-28T10:30:22.999Z</time></trkpt><trkpt lat="43.7418564416261" lon="11.57969917019931"><ele>1255.4</ele><time>2026-04-28T10:30:23.998Z</time></trkpt><trkpt lat="43.74179207511386" lon="11.579635598398452"><ele>1256.6000000000001</ele><time>2026-04-28T10:30:24.998Z</time></trkpt><trkpt lat="43.74170580431768" lon="11.579530483232581"><ele>1257.8</ele><time>2026-04-28T10:30:26.998Z</time></trkpt><trkpt lat="43.741663636038204" lon="11.579374288217375"><ele>1259.0</ele><time>2026-04-28T10:30:28.998Z</time></trkpt><trkpt lat="43.741571965512456" lon="11.579290671494828"><ele>1259.0</ele><time>2026-04-28T10:30:31Z</time></trkpt><trkpt lat="43.74149378381001" lon="11.579198864683077"><ele>1259.0</ele><time>2026-04-28T10:30:32Z</time></trkpt><trkpt lat="43.74141783759682" lon="11.579114857269683"><ele>1259.0</ele><time>2026-04-28T10:30:33Z</time></trkpt><trkpt lat="43.74137199903512" lon="11.579028374401002"><ele>1259.0</ele><time>2026-04-28T10:30:34Z</time></trkpt><trkpt lat="43.74134510437226" lon="11.578932779598626"><ele>1259.0</ele><time>2026-04-28T10:30:35Z</time></trkpt><trkpt lat="43.74130833221558" lon="11.578853079416497"><ele>1259.0</ele><time>2026-04-28T10:30:36Z</time></trkpt><trkpt lat="43.74121000091856" lon="11.57879407516086"><ele>1259.0</ele><time>2026-04-28T10:30:38Z</time></trkpt><trkpt lat="43.74116797100158" lon="11.578696922341294"><ele>1259.0</ele><time>2026-04-28T10:30:40Z</time></trkpt><trkpt lat="43.74117063164968" lon="11.578594165406326"><ele>1259.0</ele><time>2026-04-28T10:30:41Z</time></trkpt><trkpt lat="43.74114189688998" lon="11.57847975525951"><ele>1259.0</ele><time>2026-04-28T10:30:43Z</time></trkpt><trkpt lat="43.741084018347465" lon="11.57842582765667"><ele>1259.0</ele><time>2026-04-28T10:30:44Z</time></trkpt><trkpt lat="43.741025063453435" lon="11.578341274415171"><ele>1259.0</ele><time>2026-04-28T10:30:45Z</time></trkpt><trkpt lat="43.74096417859436" lon="11.57827148335175"><ele>1262.0</ele><time>2026-04-28T10:30:46Z</time></trkpt><trkpt lat="43.74087861709991" lon="11.57814022518408"><ele>1265.0</ele><time>2026-04-28T10:30:48Z</time></trkpt><trkpt lat="43.74082308683705" lon="11.578072469658716"><ele>1268.0</ele><time>2026-04-28T10:30:49Z</time></trkpt><trkpt lat="43.74073961079083" lon="11.577960327251688"><ele>1271.0</ele><time>2026-04-28T10:30:51Z</time></trkpt><trkpt lat="43.740679396390895" lon="11.577926738948936"><ele>1274.0</ele><time>2026-04-28T10:30:52Z</time></trkpt><trkpt lat="43.74062039951883" lon="11.577877401116476"><ele>1277.4</ele><time>2026-04-28T10:30:53Z</time></trkpt><trkpt lat="43.740567101534054" lon="11.577828074060648"><ele>1280.8000000000002</ele><time>2026-04-28T10:30:54Z</time></trkpt><trkpt lat="43.74050981907783" lon="11.577704249312703"><ele>1284.1999999999998</ele><time>2026-04-28T10:30:56Z</time></trkpt><trkpt lat="43.74043126662287" lon="11.57761026130158"><ele>1287.6</ele><time>2026-04-28T10:30:58Z</time></trkpt><trkpt lat="43.740348140975314" lon="11.577506772486135"><ele>1291.0</ele><time>2026-04-28T10:31:00Z</time></trkpt><trkpt lat="43.74028769079046" lon="11.577445352491054"><ele>1291.0</ele><time>2026-04-28T10:31:01Z</time></trkpt><trkpt lat="43.74021996736663" lon="11.577400267867464"><ele>1291.0</ele><time>2026-04-28T10:31:02Z</time></trkpt><trkpt lat="43.74016016771519" lon="11.577371577350362"><ele>1291.0</ele><time>2026-04-28T10:31:03Z</time></trkpt><trkpt lat="43.740092128452595" lon="11.57733581139834"><ele>1291.0</ele><time>2026-04-28T10:31:04Z</time></trkpt><trkpt lat="43.73998190021071" lon="11.577265648727398"><ele>1291.0</ele><time>2026-04-28T10:31:06Z</time></trkpt><trkpt lat="43.739882779955984" lon="11.577187290979097"><ele>1291.0</ele><time>2026-04-28T10:31:08Z</time></trkpt><trkpt lat="43.73981581585013" lon="11.577137284824008"><ele>1293.3333333333333</ele><time>2026-04-28T10:31:09Z</time></trkpt><trkpt lat="43.73975433103297" lon="11.577098954494808"><ele>1295.6666666666665</ele><time>2026-04-28T10:31:10Z</time></trkpt><trkpt lat="43.739660151153224" lon="11.577044108959173"><ele>1298.0</ele><time>2026-04-28T10:31:12Z</time></trkpt><trkpt lat="43.73955510386468" lon="11.577029756513916"><ele>1300.3333333333333</ele><time>2026-04-28T10:31:14Z</time></trkpt><trkpt lat="43.73946993932612" lon="11.577043159591303"><ele>1302.6666666666667</ele><time>2026-04-28T10:31:15Z</time></trkpt><trkpt lat="43.73940603283366" lon="11.577057753215795"><ele>1305.0</ele><time>2026-04-28T10:31:16Z</time></trkpt><trkpt lat="43.73930670855269" lon="11.577069079575406"><ele>1310.4</ele><time>2026-04-28T10:31:18Z</time></trkpt><trkpt lat="43.739209889694166" lon="11.57698800288224"><ele>1315.8</ele><time>2026-04-28T10:31:19.999Z</time></trkpt><trkpt lat="43.73911606730864" lon="11.576907705651406"><ele>1321.1999999999998</ele><time>2026-04-28T10:31:21.999Z</time></trkpt><trkpt lat="43.739061468269135" lon="11.576839572082404"><ele>1326.6</ele><time>2026-04-28T10:31:22.999Z</time></trkpt><trkpt lat="43.738970477368575" lon="11.576821915458094"><ele>1332.0</ele><time>2026-04-28T10:31:24.999Z</time></trkpt><trkpt lat="43.73890656786501" lon="11.576827960420236"><ele>1332.0</ele><time>2026-04-28T10:31:26.999Z</time></trkpt><trkpt lat="43.73886625601921" lon="11.576755161653903"><ele>1332.0</ele><time>2026-04-28T10:31:28.999Z</time></trkpt><trkpt lat="43.73876152893808" lon="11.576726046033867"><ele>1332.0</ele><time>2026-04-28T10:31:31.999Z</time></trkpt><trkpt lat="43.738694346418725" lon="11.57669174201839"><ele>1332.0</ele><time>2026-04-28T10:31:34.999Z</time></trkpt><trkpt lat="43.73864445132931" lon="11.576755281654785"><ele>1332.0</ele><time>2026-04-28T10:31:37.999Z</time></trkpt><trkpt lat="43.73855255169219" lon="11.57672735463175"><ele>1332.0</ele><time>2026-04-28T10:31:40.999Z</time></trkpt><trkpt lat="43.73847478846542" lon="11.576696003614062"><ele>1334.6</ele><time>2026-04-28T10:31:43.999Z</time></trkpt><trkpt lat="43.73838148911174" lon="11.576646270941758"><ele>1337.1999999999998</ele><time>2026-04-28T10:31:45.999Z</time></trkpt><trkpt lat="43.738288793300946" lon="11.57663270260916"><ele>1339.8</ele><time>2026-04-28T10:31:47.999Z</time></trkpt><trkpt lat="43.73820976362915" lon="11.576609732705888"><ele>1342.4</ele><time>2026-04-28T10:31:49.999Z</time></trkpt><trkpt lat="43.738121374862075" lon="11.576649634999864"><ele>1345.0</ele><time>2026-04-28T10:31:52.999Z</time></trkpt><trkpt lat="43.73803415030531" lon="11.576641965270658"><ele>1345.0</ele><time>2026-04-28T10:31:54.999Z</time></trkpt><trkpt lat="43.73795054503878" lon="11.576618284883715"><ele>1345.0</ele><time>2026-04-28T10:31:56.999Z</time></trkpt><trkpt lat="43.737854094844614" lon="11.576600032335943"><ele>1345.0</ele><time>2026-04-28T10:32:01.999Z</time></trkpt><trkpt lat="43.737770715783455" lon="11.576630536230239"><ele>1345.0</ele><time>2026-04-28T10:32:03.999Z</time></trkpt><trkpt lat="43.73784252849151" lon="11.576634648614386"><ele>1345.0</ele><time>2026-04-28T10:32:08.999Z</time></trkpt><trkpt lat="43.73777519520712" lon="11.5766436376468"><ele>1345.0</ele><time>2026-04-28T10:32:19.999Z</time></trkpt><trkpt lat="43.737708307880396" lon="11.576634075554573"><ele>1346.0</ele><time>2026-04-28T10:32:53Z</time></trkpt><trkpt lat="43.7376261079928" lon="11.576592930180917"><ele>1347.0</ele><time>2026-04-28T10:32:55Z</time></trkpt><trkpt lat="43.73754263978374" lon="11.576508008982197"><ele>1348.0</ele><time>2026-04-28T10:32:57Z</time></trkpt><trkpt lat="43.737462021705504" lon="11.576405540579108"><ele>1349.0</ele><time>2026-04-28T10:32:59Z</time></trkpt><trkpt lat="43.737456658545426" lon="11.576317734660126"><ele>1350.0</ele><time>2026-04-28T10:33:00Z</time></trkpt><trkpt lat="43.737360538470696" lon="11.576302922055925"><ele>1350.0</ele><time>2026-04-28T10:33:01Z</time></trkpt><trkpt lat="43.73729964062496" lon="11.576268815765578"><ele>1350.0</ele><time>2026-04-28T10:33:02Z</time></trkpt><trkpt lat="43.737250331843704" lon="11.576212778424615"><ele>1350.0</ele><time>2026-04-28T10:33:03Z</time></trkpt><trkpt lat="43.737212876562694" lon="11.5761407505048"><ele>1350.0</ele><time>2026-04-28T10:33:04Z</time></trkpt><trkpt lat="43.73716702763837" lon="11.576060175567955"><ele>1350.0</ele><time>2026-04-28T10:33:05Z</time></trkpt><trkpt lat="43.73712778086183" lon="11.57597623461614"><ele>1350.0</ele><time>2026-04-28T10:33:06Z</time></trkpt><trkpt lat="43.73708678887251" lon="11.575882291697756"><ele>1350.0</ele><time>2026-04-28T10:33:07Z</time></trkpt><trkpt lat="43.737042156718836" lon="11.57577681742186"><ele>1351.3333333333333</ele><time>2026-04-28T10:33:08Z</time></trkpt><trkpt lat="43.73698571106903" lon="11.575656740247396"><ele>1352.6666666666667</ele><time>2026-04-28T10:33:09Z</time></trkpt><trkpt lat="43.73694010350946" lon="11.57555423473112"><ele>1354.0</ele><time>2026-04-28T10:33:10Z</time></trkpt><trkpt lat="43.73691996519493" lon="11.575466131194858"><ele>1355.3333333333335</ele><time>2026-04-28T10:33:11Z</time></trkpt><trkpt lat="43.73690981026118" lon="11.575360845493051"><ele>1356.6666666666667</ele><time>2026-04-28T10:33:12Z</time></trkpt><trkpt lat="43.73688174348602" lon="11.575222509330539"><ele>1358.0</ele><time>2026-04-28T10:33:14Z</time></trkpt><trkpt lat="43.73684535149026" lon="11.575110186568823"><ele>1358.0</ele><time>2026-04-28T10:33:16Z</time></trkpt><trkpt lat="43.736787657048474" lon="11.575186444239499"><ele>1358.0</ele><time>2026-04-28T10:33:20Z</time></trkpt><trkpt lat="43.73680828485222" lon="11.575279435494192"><ele>1358.0</ele><time>2026-04-28T10:33:21Z</time></trkpt><trkpt lat="43.736798372628364" lon="11.575382635766555"><ele>1358.0</ele><time>2026-04-28T10:33:22Z</time></trkpt><trkpt lat="43.73673616980037" lon="11.575416126513158"><ele>1358.0</ele><time>2026-04-28T10:33:23.999Z</time></trkpt><trkpt lat="43.73666922656822" lon="11.575338190585741"><ele>1358.0</ele><time>2026-04-28T10:33:25.999Z</time></trkpt><trkpt lat="43.736620457006545" lon="11.575279621574072"><ele>1358.0</ele><time>2026-04-28T10:33:26.999Z</time></trkpt><trkpt lat="43.736567873202624" lon="11.575193152677498"><ele>1359.5714285714287</ele><time>2026-04-28T10:33:27.999Z</time></trkpt><trkpt lat="43.73651210087425" lon="11.575099833158784"><ele>1361.142857142857</ele><time>2026-04-28T10:33:28.999Z</time></trkpt><trkpt lat="43.73647420537126" lon="11.575022504346052"><ele>1362.7142857142858</ele><time>2026-04-28T10:33:29.999Z</time></trkpt><trkpt lat="43.73643827079096" lon="11.57493144651624"><ele>1364.2857142857142</ele><time>2026-04-28T10:33:30.999Z</time></trkpt><trkpt lat="43.73639443241853" lon="11.574857073492026"><ele>1365.857142857143</ele><time>2026-04-28T10:33:31.999Z</time></trkpt><trkpt lat="43.73634140061295" lon="11.574804403055087"><ele>1367.4285714285716</ele><time>2026-04-28T10:33:32.999Z</time></trkpt><trkpt lat="43.736276462863835" lon="11.574749135502127"><ele>1369.0</ele><time>2026-04-28T10:33:33.999Z</time></trkpt><trkpt lat="43.73621858193561" lon="11.574672808070845"><ele>1369.0</ele><time>2026-04-28T10:33:34.999Z</time></trkpt><trkpt lat="43.73616575998539" lon="11.574613640745525"><ele>1369.0</ele><time>2026-04-28T10:33:35.999Z</time></trkpt><trkpt lat="43.7361073886652" lon="11.574548900477446"><ele>1369.0</ele><time>2026-04-28T10:33:36.999Z</time></trkpt><trkpt lat="43.73605062979603" lon="11.57450023119588"><ele>1369.0</ele><time>2026-04-28T10:33:37.999Z</time></trkpt><trkpt lat="43.73595332026361" lon="11.574379129809357"><ele>1369.0</ele><time>2026-04-28T10:33:39.999Z</time></trkpt><trkpt lat="43.73589865302041" lon="11.574302448285739"><ele>1369.0</ele><time>2026-04-28T10:33:40.999Z</time></trkpt><trkpt lat="43.7358508109216" lon="11.574237341621668"><ele>1372.3333333333333</ele><time>2026-04-28T10:33:41.999Z</time></trkpt><trkpt lat="43.735794614663796" lon="11.574197440658258"><ele>1375.6666666666665</ele><time>2026-04-28T10:33:42.999Z</time></trkpt><trkpt lat="43.735732496089426" lon="11.574050393373918"><ele>1379.0</ele><time>2026-04-28T10:33:44.999Z</time></trkpt><trkpt lat="43.73568545120877" lon="11.573984692059396"><ele>1382.3333333333333</ele><time>2026-04-28T10:33:45.999Z</time></trkpt><trkpt lat="43.735640310195066" lon="11.573892790467925"><ele>1385.6666666666667</ele><time>2026-04-28T10:33:46.999Z</time></trkpt><trkpt lat="43.73559280199773" lon="11.573807198823896"><ele>1389.0</ele><time>2026-04-28T10:33:47.999Z</time></trkpt><trkpt lat="43.7355390363158" lon="11.573727790359632"><ele>1392.2</ele><time>2026-04-28T10:33:48.999Z</time></trkpt><trkpt lat="43.7354760627845" lon="11.573635913074575"><ele>1395.4</ele><time>2026-04-28T10:33:49.999Z</time></trkpt><trkpt lat="43.73541601932098" lon="11.573542062242538"><ele>1398.6</ele><time>2026-04-28T10:33:50.999Z</time></trkpt><trkpt lat="43.73535217765908" lon="11.573434934234358"><ele>1401.8</ele><time>2026-04-28T10:33:51.999Z</time></trkpt><trkpt lat="43.73530849775848" lon="11.573331636289643"><ele>1405.0</ele><time>2026-04-28T10:33:52.999Z</time></trkpt><trkpt lat="43.7352429583794" lon="11.573263399519337"><ele>1406.0</ele><time>2026-04-28T10:33:53.999Z</time></trkpt><trkpt lat="43.73516187186627" lon="11.573150957106163"><ele>1407.0</ele><time>2026-04-28T10:33:55.999Z</time></trkpt><trkpt lat="43.73511944110724" lon="11.573074914053448"><ele>1408.0</ele><time>2026-04-28T10:33:56.999Z</time></trkpt><trkpt lat="43.73506323169413" lon="11.57300641922195"><ele>1409.0</ele><time>2026-04-28T10:33:57.999Z</time></trkpt><trkpt lat="43.734992752272966" lon="11.5729337635679"><ele>1410.0</ele><time>2026-04-28T10:33:58.999Z</time></trkpt><trkpt lat="43.73492637348556" lon="11.572878129525941"><ele>1411.0</ele><time>2026-04-28T10:33:59.999Z</time></trkpt><trkpt lat="43.73486190706972" lon="11.572833568539128"><ele>1413.1999999999998</ele><time>2026-04-28T10:34:00.999Z</time></trkpt><trkpt lat="43.73479047793139" lon="11.57278227023409"><ele>1415.3999999999999</ele><time>2026-04-28T10:34:01.999Z</time></trkpt><trkpt lat="43.73471978997749" lon="11.572738853642779"><ele>1417.6</ele><time>2026-04-28T10:34:02.999Z</time></trkpt><trkpt lat="43.73461072416775" lon="11.57268109643501"><ele>1419.8</ele><time>2026-04-28T10:34:04.999Z</time></trkpt><trkpt lat="43.734528319383884" lon="11.572672580252668"><ele>1422.0</ele><time>2026-04-28T10:34:06.999Z</time></trkpt><trkpt lat="43.73446087058725" lon="11.572807461677554"><ele>1420.6</ele><time>2026-04-28T10:34:19.999Z</time></trkpt><trkpt lat="43.73438358228058" lon="11.572945489840484"><ele>1419.1999999999998</ele><time>2026-04-28T10:34:21.999Z</time></trkpt><trkpt lat="43.73431175735324" lon="11.572996604442157"><ele>1417.8</ele><time>2026-04-28T10:34:22.999Z</time></trkpt><trkpt lat="43.7342337650989" lon="11.573044197526208"><ele>1416.4</ele><time>2026-04-28T10:34:23.999Z</time></trkpt><trkpt lat="43.734125143124146" lon="11.573119564624651"><ele>1415.0</ele><time>2026-04-28T10:34:24.999Z</time></trkpt><trkpt lat="43.7339982072003" lon="11.57320311099012"><ele>1415.0</ele><time>2026-04-28T10:34:25.999Z</time></trkpt><trkpt lat="43.73386387935317" lon="11.573296720477034"><ele>1415.0</ele><time>2026-04-28T10:34:26.999Z</time></trkpt><trkpt lat="43.73373961768871" lon="11.573375200605412"><ele>1415.0</ele><time>2026-04-28T10:34:27.999Z</time></trkpt><trkpt lat="43.7336451254914" lon="11.573445761787694"><ele>1415.0</ele><time>2026-04-28T10:34:28.999Z</time></trkpt><trkpt lat="43.73352980854741" lon="11.573516182903031"><ele>1416.2</ele><time>2026-04-28T10:34:29.999Z</time></trkpt><trkpt lat="43.73342257236436" lon="11.573603069849398"><ele>1417.4</ele><time>2026-04-28T10:34:30.999Z</time></trkpt><trkpt lat="43.73333510505195" lon="11.573692344049125"><ele>1418.6</ele><time>2026-04-28T10:34:31.999Z</time></trkpt><trkpt lat="43.733254887955084" lon="11.573781288945677"><ele>1419.8</ele><time>2026-04-28T10:34:32.999Z</time></trkpt><trkpt lat="43.73318724674174" lon="11.573868785246821"><ele>1421.0</ele><time>2026-04-28T10:34:33.999Z</time></trkpt><trkpt lat="43.73310963164387" lon="11.573934280324485"><ele>1420.4</ele><time>2026-04-28T10:34:34.999Z</time></trkpt><trkpt lat="43.7330318198322" lon="11.573994165430069"><ele>1419.8</ele><time>2026-04-28T10:34:35.999Z</time></trkpt><trkpt lat="43.732938861519195" lon="11.574052949806571"><ele>1419.2</ele><time>2026-04-28T10:34:36.998Z</time></trkpt><trkpt lat="43.73284469933469" lon="11.574109030749648"><ele>1418.6000000000001</ele><time>2026-04-28T10:34:37.998Z</time></trkpt><trkpt lat="43.732757209020086" lon="11.5741811500417"><ele>1418.0</ele><time>2026-04-28T10:34:38.998Z</time></trkpt><trkpt lat="43.73267893997451" lon="11.574275118815523"><ele>1418.0</ele><time>2026-04-28T10:34:39.998Z</time></trkpt><trkpt lat="43.73261194041261" lon="11.57439947954687"><ele>1418.0</ele><time>2026-04-28T10:34:40.998Z</time></trkpt><trkpt lat="43.73253003331517" lon="11.574594034346575"><ele>1418.0</ele><time>2026-04-28T10:34:42Z</time></trkpt><trkpt lat="43.732429932196005" lon="11.574806383939583"><ele>1415.25</ele><time>2026-04-28T10:34:43Z</time></trkpt><trkpt lat="43.732315458248024" lon="11.574939827656651"><ele>1412.5</ele><time>2026-04-28T10:34:45Z</time></trkpt><trkpt lat="43.7322701615912" lon="11.575033751577365"><ele>1409.75</ele><time>2026-04-28T10:34:46Z</time></trkpt><trkpt lat="43.73220907898027" lon="11.575177692645084"><ele>1407.0</ele><time>2026-04-28T10:34:48Z</time></trkpt><trkpt lat="43.73215222785323" lon="11.575292653960627"><ele>1406.75</ele><time>2026-04-28T10:34:49Z</time></trkpt><trkpt lat="43.732075481937564" lon="11.57537415762698"><ele>1406.5</ele><time>2026-04-28T10:34:50Z</time></trkpt><trkpt lat="43.73197009181383" lon="11.575434368242608"><ele>1406.25</ele><time>2026-04-28T10:34:51Z</time></trkpt><trkpt lat="43.73184813481473" lon="11.575489633354358"><ele>1406.0</ele><time>2026-04-28T10:34:52Z</time></trkpt><trkpt lat="43.73171936253309" lon="11.575553149968647"><ele>1406.0</ele><time>2026-04-28T10:34:53Z</time></trkpt><trkpt lat="43.731591776193355" lon="11.575614871362106"><ele>1406.0</ele><time>2026-04-28T10:34:54Z</time></trkpt><trkpt lat="43.73146224866846" lon="11.575676873511906"><ele>1406.0</ele><time>2026-04-28T10:34:55Z</time></trkpt><trkpt lat="43.73133568649503" lon="11.575727804678156"><ele>1406.0</ele><time>2026-04-28T10:34:56Z</time></trkpt><trkpt lat="43.73120638871337" lon="11.575733580967869"><ele>1406.0</ele><time>2026-04-28T10:34:57Z</time></trkpt><trkpt lat="43.73108493257846" lon="11.57571156225787"><ele>1406.0</ele><time>2026-04-28T10:34:58Z</time></trkpt><trkpt lat="43.730984437030855" lon="11.575683933115258"><ele>1406.0</ele><time>2026-04-28T10:34:59Z</time></trkpt><trkpt lat="43.73086466173939" lon="11.57565387748742"><ele>1406.0</ele><time>2026-04-28T10:35:00Z</time></trkpt><trkpt lat="43.7307372465422" lon="11.575602944266818"><ele>1407.5</ele><time>2026-04-28T10:35:01Z</time></trkpt><trkpt lat="43.73061951302397" lon="11.575502972794139"><ele>1409.0</ele><time>2026-04-28T10:35:02Z</time></trkpt><trkpt lat="43.73051260709296" lon="11.575368968751416"><ele>1410.5</ele><time>2026-04-28T10:35:03Z</time></trkpt><trkpt lat="43.730400268005624" lon="11.575249243705727"><ele>1412.0</ele><time>2026-04-28T10:35:04Z</time></trkpt><trkpt lat="43.73028235565879" lon="11.575150669166668"><ele>1413.25</ele><time>2026-04-28T10:35:05Z</time></trkpt><trkpt lat="43.73016288357491" lon="11.575065960819128"><ele>1414.5</ele><time>2026-04-28T10:35:06Z</time></trkpt><trkpt lat="43.73004544374807" lon="11.574996788435055"><ele>1415.75</ele><time>2026-04-28T10:35:07Z</time></trkpt><trkpt lat="43.72992991220913" lon="11.574933697856746"><ele>1417.0</ele><time>2026-04-28T10:35:08Z</time></trkpt><trkpt lat="43.729816828117194" lon="11.574873854238268"><ele>1417.0</ele><time>2026-04-28T10:35:09Z</time></trkpt><trkpt lat="43.72970693658191" lon="11.574830634677737"><ele>1417.0</ele><time>2026-04-28T10:35:10Z</time></trkpt><trkpt lat="43.729602564454886" lon="11.57480833661955"><ele>1417.0</ele><time>2026-04-28T10:35:11Z</time></trkpt><trkpt lat="43.729499777935956" lon="11.574802904085752"><ele>1417.0</ele><time>2026-04-28T10:35:12Z</time></trkpt><trkpt lat="43.729413188088515" lon="11.574801359445905"><ele>1417.0</ele><time>2026-04-28T10:35:13Z</time></trkpt><trkpt lat="43.72933573088219" lon="11.574803513538647"><ele>1416.8333333333333</ele><time>2026-04-28T10:35:14Z</time></trkpt><trkpt lat="43.72927114163592" lon="11.574818681309043"><ele>1416.6666666666665</ele><time>2026-04-28T10:35:15Z</time></trkpt><trkpt lat="43.72916849677825" lon="11.574887038173065"><ele>1416.5</ele><time>2026-04-28T10:35:17Z</time></trkpt><trkpt lat="43.72911266785345" lon="11.574938511327282"><ele>1416.3333333333333</ele><time>2026-04-28T10:35:41.999Z</time></trkpt><trkpt lat="43.729024582558935" lon="11.574948897773815"><ele>1416.1666666666667</ele><time>2026-04-28T10:35:43.999Z</time></trkpt><trkpt lat="43.728937601173854" lon="11.574953703284432"><ele>1416.0</ele><time>2026-04-28T10:35:44.999Z</time></trkpt><trkpt lat="43.72883212729569" lon="11.574968721716603"><ele>1416.0</ele><time>2026-04-28T10:35:45.999Z</time></trkpt><trkpt lat="43.728716012633384" lon="11.574989902256778"><ele>1416.0</ele><time>2026-04-28T10:35:46.999Z</time></trkpt><trkpt lat="43.728597926548694" lon="11.575015922018961"><ele>1416.0</ele><time>2026-04-28T10:35:47.999Z</time></trkpt><trkpt lat="43.7284853129132" lon="11.575047046666132"><ele>1416.0</ele><time>2026-04-28T10:35:48.999Z</time></trkpt><trkpt lat="43.72838907490328" lon="11.575062352015339"><ele>1416.0</ele><time>2026-04-28T10:35:49.999Z</time></trkpt><trkpt lat="43.7282882743735" lon="11.575051430845436"><ele>1416.4</ele><time>2026-04-28T10:35:50.999Z</time></trkpt><trkpt lat="43.728186039530456" lon="11.575031545524658"><ele>1416.8</ele><time>2026-04-28T10:35:51.999Z</time></trkpt><trkpt lat="43.72808109884159" lon="11.575015403065162"><ele>1417.2</ele><time>2026-04-28T10:35:52.999Z</time></trkpt><trkpt lat="43.727965554119926" lon="11.575009857942888"><ele>1417.6000000000001</ele><time>2026-04-28T10:35:53.999Z</time></trkpt><trkpt lat="43.727863663885074" lon="11.575013784812764"><ele>1418.0</ele><time>2026-04-28T10:35:54.999Z</time></trkpt><trkpt lat="43.7277796229546" lon="11.575025990875913"><ele>1418.8000000000002</ele><time>2026-04-28T10:35:55.999Z</time></trkpt><trkpt lat="43.72770716811755" lon="11.575056666577048"><ele>1419.6</ele><time>2026-04-28T10:35:56.999Z</time></trkpt><trkpt lat="43.72764701622499" lon="11.575082622086043"><ele>1420.4</ele><time>2026-04-28T10:35:57.999Z</time></trkpt><trkpt lat="43.727540771980856" lon="11.575093548997954"><ele>1421.1999999999998</ele><time>2026-04-28T10:35:59.999Z</time></trkpt><trkpt lat="43.72744125558774" lon="11.575092922506311"><ele>1422.0</ele><time>2026-04-28T10:36:01.999Z</time></trkpt><trkpt lat="43.72738020627995" lon="11.57529955968931"><ele>1422.5</ele><time>2026-04-28T10:36:37.999Z</time></trkpt><trkpt lat="43.727363056320975" lon="11.575390253869266"><ele>1423.0</ele><time>2026-04-28T10:36:39.999Z</time></trkpt><trkpt lat="43.72732696901144" lon="11.575496480405805"><ele>1423.5</ele><time>2026-04-28T10:36:43.998Z</time></trkpt><trkpt lat="43.727373482653505" lon="11.575598611097165"><ele>1424.0</ele><time>2026-04-28T10:36:52Z</time></trkpt><trkpt lat="43.72736559900135" lon="11.575728147365709"><ele>1424.5</ele><time>2026-04-28T10:36:54Z</time></trkpt><trkpt lat="43.7273911095379" lon="11.575863161525335"><ele>1425.0</ele><time>2026-04-28T10:36:56Z</time></trkpt><trkpt lat="43.72732735227398" lon="11.5760094773393"><ele>1425.0</ele><time>2026-04-28T10:36:58Z</time></trkpt><trkpt lat="43.7272676911236" lon="11.576085262158989"><ele>1425.0</ele><time>2026-04-28T10:36:59Z</time></trkpt><trkpt lat="43.727195434362294" lon="11.576160840685462"><ele>1425.0</ele><time>2026-04-28T10:37:00Z</time></trkpt><trkpt lat="43.72702267318728" lon="11.57627533533601"><ele>1425.0</ele><time>2026-04-28T10:37:01Z</time></trkpt><trkpt lat="43.72692334686248" lon="11.576382642326013"><ele>1425.5</ele><time>2026-04-28T10:37:02Z</time></trkpt><trkpt lat="43.72683743298418" lon="11.576492604907752"><ele>1426.0</ele><time>2026-04-28T10:37:03Z</time></trkpt><trkpt lat="43.726745867203576" lon="11.576608291069538"><ele>1426.5</ele><time>2026-04-28T10:37:04Z</time></trkpt><trkpt lat="43.72663740535712" lon="11.576718512925062"><ele>1427.0</ele><time>2026-04-28T10:37:05Z</time></trkpt><trkpt lat="43.72655801063892" lon="11.57681501883773"><ele>1427.0</ele><time>2026-04-28T10:37:06Z</time></trkpt><trkpt lat="43.72647635804808" lon="11.576903428449484"><ele>1427.0</ele><time>2026-04-28T10:37:07Z</time></trkpt><trkpt lat="43.72640573519087" lon="11.57700728304086"><ele>1427.0</ele><time>2026-04-28T10:37:08Z</time></trkpt><trkpt lat="43.72633743696465" lon="11.577101928376425"><ele>1427.0</ele><time>2026-04-28T10:37:09Z</time></trkpt><trkpt lat="43.726262864637654" lon="11.577169788576139"><ele>1427.0</ele><time>2026-04-28T10:37:10Z</time></trkpt><trkpt lat="43.72619103191043" lon="11.577271863567983"><ele>1426.0</ele><time>2026-04-28T10:37:11Z</time></trkpt><trkpt lat="43.72610605204354" lon="11.577383665924533"><ele>1425.0</ele><time>2026-04-28T10:37:12Z</time></trkpt><trkpt lat="43.72603658277133" lon="11.577475290005138"><ele>1424.0</ele><time>2026-04-28T10:37:13Z</time></trkpt><trkpt lat="43.725963223562474" lon="11.577566762993026"><ele>1423.0</ele><time>2026-04-28T10:37:14Z</time></trkpt><trkpt lat="43.72589449371554" lon="11.57763872882454"><ele>1422.0</ele><time>2026-04-28T10:37:15Z</time></trkpt><trkpt lat="43.72581985633462" lon="11.577700579812646"><ele>1422.0</ele><time>2026-04-28T10:37:16Z</time></trkpt><trkpt lat="43.72575675467079" lon="11.57775725990431"><ele>1422.0</ele><time>2026-04-28T10:37:17Z</time></trkpt><trkpt lat="43.725698080333515" lon="11.577802573884744"><ele>1422.0</ele><time>2026-04-28T10:37:18Z</time></trkpt><trkpt lat="43.72562336448771" lon="11.577842189011621"><ele>1422.0</ele><time>2026-04-28T10:37:20Z</time></trkpt><trkpt lat="43.72556086898384" lon="11.5779629064475"><ele>1422.0</ele><time>2026-04-28T10:37:53.999Z</time></trkpt><trkpt lat="43.725497804347555" lon="11.578010958866964"><ele>1422.0</ele><time>2026-04-28T10:37:54.999Z</time></trkpt><trkpt lat="43.72539983787455" lon="11.578072906343325"><ele>1421.25</ele><time>2026-04-28T10:37:55.999Z</time></trkpt><trkpt lat="43.725297265789685" lon="11.578147705616809"><ele>1420.5</ele><time>2026-04-28T10:37:56.999Z</time></trkpt><trkpt lat="43.72518830849932" lon="11.578232414693167"><ele>1419.75</ele><time>2026-04-28T10:37:57.999Z</time></trkpt><trkpt lat="43.725077471080716" lon="11.57831289406806"><ele>1419.0</ele><time>2026-04-28T10:37:58.999Z</time></trkpt><trkpt lat="43.72496662133085" lon="11.578366414688151"><ele>1420.8000000000002</ele><time>2026-04-28T10:37:59.999Z</time></trkpt><trkpt lat="43.72485883815626" lon="11.578378424526097"><ele>1422.6000000000001</ele><time>2026-04-28T10:38:00.999Z</time></trkpt><trkpt lat="43.72474996045663" lon="11.578351236930823"><ele>1424.4</ele><time>2026-04-28T10:38:01.999Z</time></trkpt><trkpt lat="43.72463993329565" lon="11.57829945394526"><ele>1426.2</ele><time>2026-04-28T10:38:02.999Z</time></trkpt><trkpt lat="43.72453728240247" lon="11.578257212477961"><ele>1428.0</ele><time>2026-04-28T10:38:03.999Z</time></trkpt><trkpt lat="43.724452781274785" lon="11.57822532513471"><ele>1427.8000000000002</ele><time>2026-04-28T10:38:04.999Z</time></trkpt><trkpt lat="43.72438166484371" lon="11.578197908698053"><ele>1427.6</ele><time>2026-04-28T10:38:05.999Z</time></trkpt><trkpt lat="43.72431542985661" lon="11.578172743315529"><ele>1427.4</ele><time>2026-04-28T10:38:06.999Z</time></trkpt><trkpt lat="43.72421229021329" lon="11.578136728867296"><ele>1427.1999999999998</ele><time>2026-04-28T10:38:08.999Z</time></trkpt><trkpt lat="43.72407738411614" lon="11.578112568485441"><ele>1427.0</ele><time>2026-04-28T10:38:10.999Z</time></trkpt><trkpt lat="43.723990174241585" lon="11.578105203151352"><ele>1427.0</ele><time>2026-04-28T10:38:11.999Z</time></trkpt><trkpt lat="43.72389348582359" lon="11.57810105164504"><ele>1427.0</ele><time>2026-04-28T10:38:12.999Z</time></trkpt><trkpt lat="43.7237766512601" lon="11.578116704765872"><ele>1427.0</ele><time>2026-04-28T10:38:13.999Z</time></trkpt><trkpt lat="43.723643988110844" lon="11.578150454892887"><ele>1427.0</ele><time>2026-04-28T10:38:14.999Z</time></trkpt><trkpt lat="43.72350161671115" lon="11.578197187780358"><ele>1427.0</ele><time>2026-04-28T10:38:15.999Z</time></trkpt><trkpt lat="43.72337341343258" lon="11.578230178036732"><ele>1427.0</ele><time>2026-04-28T10:38:16.999Z</time></trkpt><trkpt lat="43.723264225937015" lon="11.578239631943063"><ele>1427.0</ele><time>2026-04-28T10:38:17.999Z</time></trkpt><trkpt lat="43.72314577726982" lon="11.578227730280291"><ele>1427.0</ele><time>2026-04-28T10:38:18.999Z</time></trkpt><trkpt lat="43.72301766960039" lon="11.578191476739642"><ele>1427.0</ele><time>2026-04-28T10:38:19.999Z</time></trkpt><trkpt lat="43.72289123958672" lon="11.578144413601876"><ele>1427.0</ele><time>2026-04-28T10:38:20.999Z</time></trkpt><trkpt lat="43.72277860975328" lon="11.578099311759741"><ele>1427.0</ele><time>2026-04-28T10:38:21.999Z</time></trkpt><trkpt lat="43.722663309316744" lon="11.578060715698564"><ele>1427.0</ele><time>2026-04-28T10:38:22.999Z</time></trkpt><trkpt lat="43.72254264911249" lon="11.578034657131537"><ele>1427.0</ele><time>2026-04-28T10:38:23.999Z</time></trkpt><trkpt lat="43.722417724824915" lon="11.578029797549812"><ele>1427.0</ele><time>2026-04-28T10:38:24.999Z</time></trkpt><trkpt lat="43.72229808374184" lon="11.578057350716707"><ele>1427.0</ele><time>2026-04-28T10:38:25.999Z</time></trkpt><trkpt lat="43.72217052863611" lon="11.57810909671144"><ele>1427.0</ele><time>2026-04-28T10:38:26.999Z</time></trkpt><trkpt lat="43.72204131288392" lon="11.578180335251313"><ele>1427.0</ele><time>2026-04-28T10:38:27.999Z</time></trkpt><trkpt lat="43.72191172693561" lon="11.578252774612901"><ele>1427.0</ele><time>2026-04-28T10:38:28.999Z</time></trkpt><trkpt lat="43.72178637614077" lon="11.578324227847524"><ele>1427.0</ele><time>2026-04-28T10:38:29.999Z</time></trkpt><trkpt lat="43.72167084027479" lon="11.578414864495146"><ele>1427.0</ele><time>2026-04-28T10:38:30.999Z</time></trkpt><trkpt lat="43.72155580752532" lon="11.578537447570827"><ele>1426.3333333333335</ele><time>2026-04-28T10:38:31.999Z</time></trkpt><trkpt lat="43.721450806017344" lon="11.578696671428798"><ele>1425.6666666666667</ele><time>2026-04-28T10:38:32.999Z</time></trkpt><trkpt lat="43.72134963142207" lon="11.57887789166409"><ele>1425.0</ele><time>2026-04-28T10:38:33.999Z</time></trkpt><trkpt lat="43.72126269555739" lon="11.579060472030504"><ele>1425.0</ele><time>2026-04-28T10:38:34.999Z</time></trkpt><trkpt lat="43.72118170755203" lon="11.579239384614517"><ele>1425.0</ele><time>2026-04-28T10:38:35.999Z</time></trkpt><trkpt lat="43.721089110915635" lon="11.579410893229815"><ele>1425.0</ele><time>2026-04-28T10:38:36.999Z</time></trkpt><trkpt lat="43.72098605152125" lon="11.57958113512709"><ele>1428.0</ele><time>2026-04-28T10:38:37.999Z</time></trkpt><trkpt lat="43.720872890567776" lon="11.579733869576286"><ele>1431.0</ele><time>2026-04-28T10:38:38.999Z</time></trkpt><trkpt lat="43.7207481600634" lon="11.579851794545638"><ele>1434.0</ele><time>2026-04-28T10:38:39.999Z</time></trkpt><trkpt lat="43.72061059845972" lon="11.579945451414877"><ele>1434.0</ele><time>2026-04-28T10:38:40.999Z</time></trkpt><trkpt lat="43.72047221607251" lon="11.58003456457948"><ele>1434.0</ele><time>2026-04-28T10:38:41.999Z</time></trkpt><trkpt lat="43.720342832575376" lon="11.580120561149412"><ele>1434.0</ele><time>2026-04-28T10:38:42.999Z</time></trkpt><trkpt lat="43.7202100332216" lon="11.580186240933172"><ele>1434.0</ele><time>2026-04-28T10:38:43.999Z</time></trkpt><trkpt lat="43.72007835143528" lon="11.58027857666971"><ele>1434.25</ele><time>2026-04-28T10:38:44.999Z</time></trkpt><trkpt lat="43.719949614743044" lon="11.580394524905268"><ele>1434.5</ele><time>2026-04-28T10:38:45.999Z</time></trkpt><trkpt lat="43.71981910175322" lon="11.580483876812346"><ele>1434.75</ele><time>2026-04-28T10:38:46.999Z</time></trkpt><trkpt lat="43.71969547693754" lon="11.580573688712956"><ele>1435.0</ele><time>2026-04-28T10:38:47.998Z</time></trkpt><trkpt lat="43.71954400235311" lon="11.58067080791427"><ele>1438.0</ele><time>2026-04-28T10:38:48.998Z</time></trkpt><trkpt lat="43.71938161077262" lon="11.580775006727668"><ele>1441.0</ele><time>2026-04-28T10:38:49.998Z</time></trkpt><trkpt lat="43.71921519079086" lon="11.5808652873158"><ele>1444.0</ele><time>2026-04-28T10:38:50.998Z</time></trkpt><trkpt lat="43.71905496060427" lon="11.580897947424276"><ele>1444.0</ele><time>2026-04-28T10:38:51.998Z</time></trkpt><trkpt lat="43.71890617995762" lon="11.58094930694595"><ele>1444.0</ele><time>2026-04-28T10:38:52.998Z</time></trkpt><trkpt lat="43.71876445927274" lon="11.58101413671467"><ele>1444.0</ele><time>2026-04-28T10:38:54Z</time></trkpt><trkpt lat="43.71862739260958" lon="11.58105956750998"><ele>1444.0</ele><time>2026-04-28T10:38:55Z</time></trkpt><trkpt lat="43.718516087751055" lon="11.581134113964467"><ele>1443.0</ele><time>2026-04-28T10:38:56Z</time></trkpt><trkpt lat="43.718416595731156" lon="11.581217547932686"><ele>1442.0</ele><time>2026-04-28T10:38:57Z</time></trkpt><trkpt lat="43.7183414916444" lon="11.581307255257471"><ele>1441.0</ele><time>2026-04-28T10:38:58Z</time></trkpt><trkpt lat="43.718285508928645" lon="11.58140135056601"><ele>1440.0</ele><time>2026-04-28T10:38:59Z</time></trkpt><trkpt lat="43.71823592305368" lon="11.581494629797195"><ele>1439.0</ele><time>2026-04-28T10:39:00Z</time></trkpt><trkpt lat="43.71818690979813" lon="11.581592836211618"><ele>1439.0</ele><time>2026-04-28T10:39:01Z</time></trkpt><trkpt lat="43.71815636906988" lon="11.581708257397128"><ele>1439.0</ele><time>2026-04-28T10:39:02Z</time></trkpt><trkpt lat="43.71814963146489" lon="11.581842117893663"><ele>1439.0</ele><time>2026-04-28T10:39:03Z</time></trkpt><trkpt lat="43.7181718941599" lon="11.581976178599511"><ele>1439.0</ele><time>2026-04-28T10:39:04Z</time></trkpt><trkpt lat="43.71821847047817" lon="11.582088038757075"><ele>1439.0</ele><time>2026-04-28T10:39:05Z</time></trkpt><trkpt lat="43.7182792986254" lon="11.582171973645481"><ele>1439.25</ele><time>2026-04-28T10:39:06Z</time></trkpt><trkpt lat="43.718367510808505" lon="11.58224508532217"><ele>1439.5</ele><time>2026-04-28T10:39:07Z</time></trkpt><trkpt lat="43.71846731432714" lon="11.582314569501985"><ele>1439.75</ele><time>2026-04-28T10:39:08Z</time></trkpt><trkpt lat="43.71859682976044" lon="11.582390269141454"><ele>1440.0</ele><time>2026-04-28T10:39:09Z</time></trkpt><trkpt lat="43.71874455118409" lon="11.58248191067227"><ele>1440.0</ele><time>2026-04-28T10:39:10Z</time></trkpt><trkpt lat="43.718899811454676" lon="11.582592334296447"><ele>1440.0</ele><time>2026-04-28T10:39:11Z</time></trkpt><trkpt lat="43.719056504225584" lon="11.582702691784492"><ele>1440.0</ele><time>2026-04-28T10:39:12Z</time></trkpt><trkpt lat="43.71919361692242" lon="11.582792396431074"><ele>1444.0</ele><time>2026-04-28T10:39:13Z</time></trkpt><trkpt lat="43.719321972200376" lon="11.582855601498839"><ele>1448.0</ele><time>2026-04-28T10:39:14Z</time></trkpt><trkpt lat="43.71945554179813" lon="11.582908269604776"><ele>1452.0</ele><time>2026-04-28T10:39:15Z</time></trkpt><trkpt lat="43.71961139767932" lon="11.582939616746483"><ele>1456.0</ele><time>2026-04-28T10:39:16Z</time></trkpt><trkpt lat="43.719781534106275" lon="11.58296166715233"><ele>1456.0</ele><time>2026-04-28T10:39:17Z</time></trkpt><trkpt lat="43.719953885898214" lon="11.582978631494802"><ele>1456.0</ele><time>2026-04-28T10:39:18Z</time></trkpt><trkpt lat="43.7201090035856" lon="11.582996308895993"><ele>1456.0</ele><time>2026-04-28T10:39:19Z</time></trkpt><trkpt lat="43.720266094905725" lon="11.583013200454864"><ele>1454.0</ele><time>2026-04-28T10:39:20Z</time></trkpt><trkpt lat="43.72041199693837" lon="11.583026977629153"><ele>1452.0</ele><time>2026-04-28T10:39:21Z</time></trkpt><trkpt lat="43.72053668863604" lon="11.583046955130062"><ele>1450.0</ele><time>2026-04-28T10:39:22Z</time></trkpt><trkpt lat="43.720640158453335" lon="11.58307921307215"><ele>1448.0</ele><time>2026-04-28T10:39:23Z</time></trkpt><trkpt lat="43.7207221389048" lon="11.583128041969257"><ele>1448.0</ele><time>2026-04-28T10:39:24Z</time></trkpt><trkpt lat="43.72078625469539" lon="11.583208069966037"><ele>1448.0</ele><time>2026-04-28T10:39:25Z</time></trkpt><trkpt lat="43.72082350236587" lon="11.583312984928849"><ele>1448.0</ele><time>2026-04-28T10:39:26Z</time></trkpt><trkpt lat="43.7208501973961" lon="11.583426192996328"><ele>1448.0</ele><time>2026-04-28T10:39:27Z</time></trkpt><trkpt lat="43.720853484882795" lon="11.58355136313072"><ele>1448.0</ele><time>2026-04-28T10:39:28Z</time></trkpt><trkpt lat="43.720829022742954" lon="11.58367911596943"><ele>1448.0</ele><time>2026-04-28T10:39:29Z</time></trkpt><trkpt lat="43.72078038974772" lon="11.583787806977613"><ele>1447.8000000000002</ele><time>2026-04-28T10:39:30Z</time></trkpt><trkpt lat="43.72072358714205" lon="11.583879343590835"><ele>1447.6</ele><time>2026-04-28T10:39:31Z</time></trkpt><trkpt lat="43.7206546047069" lon="11.583961746059439"><ele>1447.4</ele><time>2026-04-28T10:39:32Z</time></trkpt><trkpt lat="43.72057737168679" lon="11.584032243305886"><ele>1447.1999999999998</ele><time>2026-04-28T10:39:33Z</time></trkpt><trkpt lat="43.72049742510595" lon="11.58413113707251"><ele>1447.0</ele><time>2026-04-28T10:39:34Z</time></trkpt><trkpt lat="43.72040816936791" lon="11.584222582348115"><ele>1447.0</ele><time>2026-04-28T10:39:35Z</time></trkpt><trkpt lat="43.72033879207522" lon="11.584323353007154"><ele>1447.0</ele><time>2026-04-28T10:39:36Z</time></trkpt><trkpt lat="43.720302178470355" lon="11.584443242699649"><ele>1447.0</ele><time>2026-04-28T10:39:37Z</time></trkpt><trkpt lat="43.720283053324984" lon="11.58457970537392"><ele>1447.0</ele><time>2026-04-28T10:39:38Z</time></trkpt><trkpt lat="43.72027519896085" lon="11.584714105855303"><ele>1447.0</ele><time>2026-04-28T10:39:39Z</time></trkpt><trkpt lat="43.72028252626274" lon="11.584837807906137"><ele>1445.6</ele><time>2026-04-28T10:39:40Z</time></trkpt><trkpt lat="43.7202901315839" lon="11.584994104948537"><ele>1444.1999999999998</ele><time>2026-04-28T10:39:40.999Z</time></trkpt><trkpt lat="43.72029631954369" lon="11.585160126767244"><ele>1442.8</ele><time>2026-04-28T10:39:41.999Z</time></trkpt><trkpt lat="43.72028583925427" lon="11.585291022670825"><ele>1441.4</ele><time>2026-04-28T10:39:42.999Z</time></trkpt><trkpt lat="43.72024944925024" lon="11.585384094056126"><ele>1440.0</ele><time>2026-04-28T10:39:43.999Z</time></trkpt><trkpt lat="43.720209298692694" lon="11.585458498385403"><ele>1440.0</ele><time>2026-04-28T10:39:44.999Z</time></trkpt><trkpt lat="43.72015645817217" lon="11.585535172584603"><ele>1440.0</ele><time>2026-04-28T10:39:45.999Z</time></trkpt><trkpt lat="43.72008671791505" lon="11.58558358814741"><ele>1440.0</ele><time>2026-04-28T10:39:46.999Z</time></trkpt><trkpt lat="43.720000357861764" lon="11.585607520701096"><ele>1440.0</ele><time>2026-04-28T10:39:47.999Z</time></trkpt><trkpt lat="43.71989532251256" lon="11.585621309832135"><ele>1440.0</ele><time>2026-04-28T10:39:48.999Z</time></trkpt><trkpt lat="43.7197816239766" lon="11.58564401612172"><ele>1440.0</ele><time>2026-04-28T10:39:49.999Z</time></trkpt><trkpt lat="43.71967868807259" lon="11.585695547040734"><ele>1440.0</ele><time>2026-04-28T10:39:50.999Z</time></trkpt><trkpt lat="43.71957042443553" lon="11.585704831399587"><ele>1440.0</ele><time>2026-04-28T10:39:51.999Z</time></trkpt><trkpt lat="43.719457425683785" lon="11.585756630332604"><ele>1440.0</ele><time>2026-04-28T10:39:52.999Z</time></trkpt><trkpt lat="43.71935439632309" lon="11.585824053192074"><ele>1440.6</ele><time>2026-04-28T10:39:53.999Z</time></trkpt><trkpt lat="43.71926444894329" lon="11.585890667565925"><ele>1441.2</ele><time>2026-04-28T10:39:54.999Z</time></trkpt><trkpt lat="43.71917676927501" lon="11.585942066000284"><ele>1441.8000000000002</ele><time>2026-04-28T10:39:55.999Z</time></trkpt><trkpt lat="43.71907991728161" lon="11.585999078193737"><ele>1442.4</ele><time>2026-04-28T10:39:56.999Z</time></trkpt><trkpt lat="43.71899233902395" lon="11.586070535820085"><ele>1443.0</ele><time>2026-04-28T10:39:57.999Z</time></trkpt><trkpt lat="43.718914444455145" lon="11.586146937985657"><ele>1440.0</ele><time>2026-04-28T10:39:58.999Z</time></trkpt><trkpt lat="43.71884615884523" lon="11.586231585761492"><ele>1437.0</ele><time>2026-04-28T10:39:59.999Z</time></trkpt><trkpt lat="43.71879045399336" lon="11.586327990047396"><ele>1434.0</ele><time>2026-04-28T10:40:00.999Z</time></trkpt><trkpt lat="43.71875284300741" lon="11.586437493666338"><ele>1431.0</ele><time>2026-04-28T10:40:01.999Z</time></trkpt><trkpt lat="43.71872849195121" lon="11.586573393366455"><ele>1428.0</ele><time>2026-04-28T10:40:02.999Z</time></trkpt><trkpt lat="43.71873325359677" lon="11.586717153020649"><ele>1428.0</ele><time>2026-04-28T10:40:03.999Z</time></trkpt><trkpt lat="43.718761202593456" lon="11.58686175720281"><ele>1428.0</ele><time>2026-04-28T10:40:04.999Z</time></trkpt><trkpt lat="43.71880016742027" lon="11.587008996911182"><ele>1428.0</ele><time>2026-04-28T10:40:05.999Z</time></trkpt><trkpt lat="43.7188472405469" lon="11.587164139203027"><ele>1428.0</ele><time>2026-04-28T10:40:06.999Z</time></trkpt><trkpt lat="43.718898380908385" lon="11.587313413565397"><ele>1426.8333333333333</ele><time>2026-04-28T10:40:07.999Z</time></trkpt><trkpt lat="43.71893847202887" lon="11.587447830374963"><ele>1425.6666666666667</ele><time>2026-04-28T10:40:08.999Z</time></trkpt><trkpt lat="43.71897512874805" lon="11.587560269547652"><ele>1424.5</ele><time>2026-04-28T10:40:09.999Z</time></trkpt><trkpt lat="43.71900908481261" lon="11.587666465414838"><ele>1423.3333333333335</ele><time>2026-04-28T10:40:10.999Z</time></trkpt><trkpt lat="43.719039460612485" lon="11.587768427294103"><ele>1422.1666666666667</ele><time>2026-04-28T10:40:11.999Z</time></trkpt><trkpt lat="43.71904526189658" lon="11.587884093065846"><ele>1421.0</ele><time>2026-04-28T10:40:12.999Z</time></trkpt><trkpt lat="43.71903922491706" lon="11.588009484525964"><ele>1420.0</ele><time>2026-04-28T10:40:13.999Z</time></trkpt><trkpt lat="43.71901149022856" lon="11.588119697190429"><ele>1419.0</ele><time>2026-04-28T10:40:14.999Z</time></trkpt><trkpt lat="43.718971659089085" lon="11.588218216356044"><ele>1418.0</ele><time>2026-04-28T10:40:15.999Z</time></trkpt><trkpt lat="43.71892183754875" lon="11.588308747421511"><ele>1417.0</ele><time>2026-04-28T10:40:16.999Z</time></trkpt><trkpt lat="43.71883499718652" lon="11.58850121999329"><ele>1416.0</ele><time>2026-04-28T10:40:18.999Z</time></trkpt><trkpt lat="43.71879583588261" lon="11.588603340020025"><ele>1414.8</ele><time>2026-04-28T10:40:19.999Z</time></trkpt><trkpt lat="43.71877699182979" lon="11.58870284220942"><ele>1413.6</ele><time>2026-04-28T10:40:20.999Z</time></trkpt><trkpt lat="43.71879131780784" lon="11.588820229205732"><ele>1412.4</ele><time>2026-04-28T10:40:21.999Z</time></trkpt><trkpt lat="43.71882199246495" lon="11.588947403302793"><ele>1411.2</ele><time>2026-04-28T10:40:22.999Z</time></trkpt><trkpt lat="43.718875950011295" lon="11.589075489753506"><ele>1410.0</ele><time>2026-04-28T10:40:23.999Z</time></trkpt><trkpt lat="43.71894720635021" lon="11.58922842500876"><ele>1410.0</ele><time>2026-04-28T10:40:24.999Z</time></trkpt><trkpt lat="43.71901865179171" lon="11.589382175271592"><ele>1410.0</ele><time>2026-04-28T10:40:25.999Z</time></trkpt><trkpt lat="43.71907988487682" lon="11.58951433733331"><ele>1410.0</ele><time>2026-04-28T10:40:26.999Z</time></trkpt><trkpt lat="43.71913996415455" lon="11.589636110073922"><ele>1410.0</ele><time>2026-04-28T10:40:27.999Z</time></trkpt><trkpt lat="43.719189311039294" lon="11.589764586718081"><ele>1410.4</ele><time>2026-04-28T10:40:28.999Z</time></trkpt><trkpt lat="43.71923835521123" lon="11.589891538188734"><ele>1410.8</ele><time>2026-04-28T10:40:29.999Z</time></trkpt><trkpt lat="43.71928159082353" lon="11.590019502683703"><ele>1411.1999999999998</ele><time>2026-04-28T10:40:30.999Z</time></trkpt><trkpt lat="43.719316132587714" lon="11.590150417980528"><ele>1411.6</ele><time>2026-04-28T10:40:31.999Z</time></trkpt><trkpt lat="43.71934154666765" lon="11.590284726510815"><ele>1412.0</ele><time>2026-04-28T10:40:32.999Z</time></trkpt><trkpt lat="43.71935802436798" lon="11.590424214191605"><ele>1412.0</ele><time>2026-04-28T10:40:33.999Z</time></trkpt><trkpt lat="43.71937571443826" lon="11.59055364483295"><ele>1412.0</ele><time>2026-04-28T10:40:34.999Z</time></trkpt><trkpt lat="43.7193979648784" lon="11.590689895521791"><ele>1412.0</ele><time>2026-04-28T10:40:35.999Z</time></trkpt><trkpt lat="43.71942472684998" lon="11.590806000728454"><ele>1412.0</ele><time>2026-04-28T10:40:36.999Z</time></trkpt><trkpt lat="43.71944485916317" lon="11.590958722340064"><ele>1412.0</ele><time>2026-04-28T10:40:37.999Z</time></trkpt><trkpt lat="43.71948152159705" lon="11.59108021426807"><ele>1406.6</ele><time>2026-04-28T10:40:38.999Z</time></trkpt><trkpt lat="43.71950993692324" lon="11.591199003169919"><ele>1401.1999999999998</ele><time>2026-04-28T10:40:39.999Z</time></trkpt><trkpt lat="43.7195276855853" lon="11.591325612514463"><ele>1395.8</ele><time>2026-04-28T10:40:40.999Z</time></trkpt><trkpt lat="43.71953865123106" lon="11.591470995762196"><ele>1390.4</ele><time>2026-04-28T10:40:41.999Z</time></trkpt><trkpt lat="43.719550327387466" lon="11.591617092741725"><ele>1385.0</ele><time>2026-04-28T10:40:42.999Z</time></trkpt><trkpt lat="43.71956966574636" lon="11.591754683661646"><ele>1385.0</ele><time>2026-04-28T10:40:43.999Z</time></trkpt><trkpt lat="43.719592202123316" lon="11.591872623884159"><ele>1385.0</ele><time>2026-04-28T10:40:44.999Z</time></trkpt><trkpt lat="43.719605797951964" lon="11.591975145404124"><ele>1385.0</ele><time>2026-04-28T10:40:45.999Z</time></trkpt><trkpt lat="43.71962400023431" lon="11.592143551606965"><ele>1385.0</ele><time>2026-04-28T10:40:47.999Z</time></trkpt><trkpt lat="43.719611309980095" lon="11.592240925695188"><ele>1385.0</ele><time>2026-04-28T10:40:48.999Z</time></trkpt><trkpt lat="43.719573842673356" lon="11.592328160589572"><ele>1385.0</ele><time>2026-04-28T10:40:49.999Z</time></trkpt><trkpt lat="43.71951144863992" lon="11.592407276665693"><ele>1385.4</ele><time>2026-04-28T10:40:50.998Z</time></trkpt><trkpt lat="43.71943390787377" lon="11.592466275362938"><ele>1385.8</ele><time>2026-04-28T10:40:51.998Z</time></trkpt><trkpt lat="43.71933869825081" lon="11.59250466459193"><ele>1386.1999999999998</ele><time>2026-04-28T10:40:52.998Z</time></trkpt><trkpt lat="43.7192265077658" lon="11.592521514076678"><ele>1386.6</ele><time>2026-04-28T10:40:53.998Z</time></trkpt><trkpt lat="43.71911361341482" lon="11.592520060888418"><ele>1387.0</ele><time>2026-04-28T10:40:54.998Z</time></trkpt><trkpt lat="43.719005389335656" lon="11.592514395939883"><ele>1387.6</ele><time>2026-04-28T10:40:55.998Z</time></trkpt><trkpt lat="43.71889579241487" lon="11.59252163209484"><ele>1388.1999999999998</ele><time>2026-04-28T10:40:56.998Z</time></trkpt><trkpt lat="43.71878617489227" lon="11.592554535417404"><ele>1388.8</ele><time>2026-04-28T10:40:57.998Z</time></trkpt><trkpt lat="43.71868380737749" lon="11.59257010024374"><ele>1389.4</ele><time>2026-04-28T10:40:58.998Z</time></trkpt><trkpt lat="43.71859911586998" lon="11.592584942382828"><ele>1390.0</ele><time>2026-04-28T10:41:01Z</time></trkpt><trkpt lat="43.71853593628602" lon="11.592591191590243"><ele>1390.2</ele><time>2026-04-28T10:41:03Z</time></trkpt><trkpt lat="43.71844633523769" lon="11.592598011751521"><ele>1390.4</ele><time>2026-04-28T10:41:04Z</time></trkpt><trkpt lat="43.71833154054268" lon="11.592622072980475"><ele>1390.6</ele><time>2026-04-28T10:41:05Z</time></trkpt><trkpt lat="43.71822341126731" lon="11.59268410961339"><ele>1390.8</ele><time>2026-04-28T10:41:06Z</time></trkpt><trkpt lat="43.718130939376586" lon="11.592762113790373"><ele>1391.0</ele><time>2026-04-28T10:41:07Z</time></trkpt><trkpt lat="43.718047674086996" lon="11.592861067733415"><ele>1388.1999999999998</ele><time>2026-04-28T10:41:08Z</time></trkpt><trkpt lat="43.717957700991825" lon="11.592977922571418"><ele>1385.3999999999999</ele><time>2026-04-28T10:41:09Z</time></trkpt><trkpt lat="43.71790051741148" lon="11.593078702145784"><ele>1382.6</ele><time>2026-04-28T10:41:10Z</time></trkpt><trkpt lat="43.71781500592495" lon="11.593185520321805"><ele>1379.8</ele><time>2026-04-28T10:41:11Z</time></trkpt><trkpt lat="43.71773937081285" lon="11.593284884287044"><ele>1377.0</ele><time>2026-04-28T10:41:12Z</time></trkpt><trkpt lat="43.717659633349214" lon="11.593371089487187"><ele>1377.0</ele><time>2026-04-28T10:41:13Z</time></trkpt><trkpt lat="43.71758701323536" lon="11.593445739138609"><ele>1377.0</ele><time>2026-04-28T10:41:14Z</time></trkpt><trkpt lat="43.71750565533495" lon="11.593513027198702"><ele>1377.0</ele><time>2026-04-28T10:41:15Z</time></trkpt><trkpt lat="43.71741417174626" lon="11.593580351746342"><ele>1377.0</ele><time>2026-04-28T10:41:16Z</time></trkpt><trkpt lat="43.71731013807173" lon="11.593629802547222"><ele>1377.0</ele><time>2026-04-28T10:41:17Z</time></trkpt><trkpt lat="43.7172046682062" lon="11.593658615268122"><ele>1373.3999999999999</ele><time>2026-04-28T10:41:18Z</time></trkpt><trkpt lat="43.71710345444961" lon="11.593677283935282"><ele>1369.8</ele><time>2026-04-28T10:41:19Z</time></trkpt><trkpt lat="43.71699301676959" lon="11.593704918141063"><ele>1366.2</ele><time>2026-04-28T10:41:20Z</time></trkpt><trkpt lat="43.71692061915545" lon="11.593758689775424"><ele>1362.6</ele><time>2026-04-28T10:41:21Z</time></trkpt><trkpt lat="43.716801605975355" lon="11.59378672518247"><ele>1359.0</ele><time>2026-04-28T10:41:22Z</time></trkpt><trkpt lat="43.71670754839199" lon="11.593855728362106"><ele>1359.0</ele><time>2026-04-28T10:41:23Z</time></trkpt><trkpt lat="43.716622910097136" lon="11.593921749546887"><ele>1359.0</ele><time>2026-04-28T10:41:24Z</time></trkpt><trkpt lat="43.71652473014422" lon="11.593982562832423"><ele>1359.0</ele><time>2026-04-28T10:41:25Z</time></trkpt><trkpt lat="43.7164076814215" lon="11.594038004157662"><ele>1359.0</ele><time>2026-04-28T10:41:26Z</time></trkpt><trkpt lat="43.716301581557445" lon="11.594085888761288"><ele>1359.0</ele><time>2026-04-28T10:41:27Z</time></trkpt><trkpt lat="43.716208221833895" lon="11.594153085974376"><ele>1359.0</ele><time>2026-04-28T10:41:28Z</time></trkpt><trkpt lat="43.716122493779146" lon="11.594221089901264"><ele>1359.0</ele><time>2026-04-28T10:41:29Z</time></trkpt><trkpt lat="43.71603490555897" lon="11.594281083758753"><ele>1359.0</ele><time>2026-04-28T10:41:30Z</time></trkpt><trkpt lat="43.715949329466945" lon="11.594332404772597"><ele>1359.0</ele><time>2026-04-28T10:41:31Z</time></trkpt><trkpt lat="43.71586569149477" lon="11.594359887968368"><ele>1359.0</ele><time>2026-04-28T10:41:32Z</time></trkpt><trkpt lat="43.7157817908787" lon="11.594368300526193"><ele>1359.0</ele><time>2026-04-28T10:41:33Z</time></trkpt><trkpt lat="43.71569816708367" lon="11.594361000067392"><ele>1359.0</ele><time>2026-04-28T10:41:34Z</time></trkpt><trkpt lat="43.71560064597828" lon="11.594364959528054"><ele>1359.0</ele><time>2026-04-28T10:41:35Z</time></trkpt><trkpt lat="43.71548552434844" lon="11.594352216919766"><ele>1359.0</ele><time>2026-04-28T10:41:36Z</time></trkpt><trkpt lat="43.715381921387134" lon="11.594331073235407"><ele>1359.0</ele><time>2026-04-28T10:41:37Z</time></trkpt><trkpt lat="43.715283188644385" lon="11.594313257621087"><ele>1357.2</ele><time>2026-04-28T10:41:38Z</time></trkpt><trkpt lat="43.71517543150302" lon="11.594302418747098"><ele>1355.4</ele><time>2026-04-28T10:41:39Z</time></trkpt><trkpt lat="43.7150707166132" lon="11.594287930638027"><ele>1353.6</ele><time>2026-04-28T10:41:40Z</time></trkpt><trkpt lat="43.71497669762641" lon="11.594279826276397"><ele>1351.8</ele><time>2026-04-28T10:41:41Z</time></trkpt><trkpt lat="43.71488045157926" lon="11.59425365470625"><ele>1350.0</ele><time>2026-04-28T10:41:42Z</time></trkpt><trkpt lat="43.71479138368031" lon="11.594227641436499"><ele>1350.0</ele><time>2026-04-28T10:41:43Z</time></trkpt><trkpt lat="43.714699223702375" lon="11.594221041342916"><ele>1350.0</ele><time>2026-04-28T10:41:44Z</time></trkpt><trkpt lat="43.714606216708894" lon="11.594239626922075"><ele>1350.0</ele><time>2026-04-28T10:41:45Z</time></trkpt><trkpt lat="43.714525465977324" lon="11.594273112605848"><ele>1350.0</ele><time>2026-04-28T10:41:46Z</time></trkpt><trkpt lat="43.71444909708879" lon="11.594334330867634"><ele>1350.0</ele><time>2026-04-28T10:41:47Z</time></trkpt><trkpt lat="43.71438065746064" lon="11.594385393350755"><ele>1350.0</ele><time>2026-04-28T10:41:48Z</time></trkpt><trkpt lat="43.71431600427991" lon="11.59440010706647"><ele>1348.7142857142858</ele><time>2026-04-28T10:41:50Z</time></trkpt><trkpt lat="43.714277875758285" lon="11.594313280824801"><ele>1347.4285714285716</ele><time>2026-04-28T10:41:51.999Z</time></trkpt><trkpt lat="43.71426714761213" lon="11.594227237908493"><ele>1346.1428571428573</ele><time>2026-04-28T10:41:52.999Z</time></trkpt><trkpt lat="43.714241797412285" lon="11.594146598070877"><ele>1344.857142857143</ele><time>2026-04-28T10:41:53.999Z</time></trkpt><trkpt lat="43.71419406352123" lon="11.594072214016851"><ele>1343.5714285714287</ele><time>2026-04-28T10:41:55.999Z</time></trkpt><trkpt lat="43.714124641142504" lon="11.594072304116072"><ele>1342.2857142857144</ele><time>2026-04-28T10:42:16.999Z</time></trkpt><trkpt lat="43.71418848583385" lon="11.59409321220115"><ele>1341.0</ele><time>2026-04-28T10:42:56.999Z</time></trkpt><trkpt lat="43.71411369646317" lon="11.59407602295353"><ele>1341.0000000000002</ele><time>2026-04-28T10:43:09Z</time></trkpt><trkpt lat="43.7140460146741" lon="11.594059718761306"><ele>1341.0</ele><time>2026-04-28T10:43:53.999Z</time></trkpt><trkpt lat="43.714137545675065" lon="11.594056716352023"><ele>1341.0</ele><time>2026-04-28T10:46:22.999Z</time></trkpt><trkpt lat="43.71417877846997" lon="11.594141360928656"><ele>1341.0</ele><time>2026-04-28T10:46:55.999Z</time></trkpt><trkpt lat="43.714128294504" lon="11.594231576387923"><ele>1341.0</ele><time>2026-04-28T10:47:30.997Z</time></trkpt><trkpt lat="43.71409207973648" lon="11.594152760191498"><ele>1341.0000000000002</ele><time>2026-04-28T10:48:52.998Z</time></trkpt><trkpt lat="43.71410870381436" lon="11.594067667563381"><ele>1341.0</ele><time>2026-04-28T10:48:59.998Z</time></trkpt><trkpt lat="43.71402953827805" lon="11.594219767358341"><ele>1341.0</ele><time>2026-04-28T10:51:09.998Z</time></trkpt><trkpt lat="43.713994905981494" lon="11.594329620067509"><ele>1341.0</ele><time>2026-04-28T10:51:10.998Z</time></trkpt><trkpt lat="43.71394545343204" lon="11.594423072132997"><ele>1341.0</ele><time>2026-04-28T10:51:11.998Z</time></trkpt><trkpt lat="43.71389225605035" lon="11.594494550068255"><ele>1341.0</ele><time>2026-04-28T10:51:12.998Z</time></trkpt><trkpt lat="43.71385022914031" lon="11.59456181203459"><ele>1341.0</ele><time>2026-04-28T10:51:13.998Z</time></trkpt><trkpt lat="43.71377635389518" lon="11.594670531693188"><ele>1341.0</ele><time>2026-04-28T10:51:15.998Z</time></trkpt><trkpt lat="43.71373181198298" lon="11.594742491660385"><ele>1341.8</ele><time>2026-04-28T10:51:16.998Z</time></trkpt><trkpt lat="43.713690423220235" lon="11.594819769663486"><ele>1342.6</ele><time>2026-04-28T10:51:17.998Z</time></trkpt><trkpt lat="43.71361508059797" lon="11.594912450535444"><ele>1343.4</ele><time>2026-04-28T10:51:19.998Z</time></trkpt><trkpt lat="43.71351952389254" lon="11.594979277582796"><ele>1344.2</ele><time>2026-04-28T10:51:21.998Z</time></trkpt><trkpt lat="43.71346374438798" lon="11.595024133313306"><ele>1345.0</ele><time>2026-04-28T10:51:22.998Z</time></trkpt><trkpt lat="43.713393582276474" lon="11.595154659428777"><ele>1347.0</ele><time>2026-04-28T10:51:24.998Z</time></trkpt><trkpt lat="43.71331999937835" lon="11.595239982049831"><ele>1349.0</ele><time>2026-04-28T10:51:26.998Z</time></trkpt><trkpt lat="43.71322069575319" lon="11.59532639195334"><ele>1351.0</ele><time>2026-04-28T10:51:28.999Z</time></trkpt><trkpt lat="43.713172254259085" lon="11.595392032583637"><ele>1353.0</ele><time>2026-04-28T10:51:29.998Z</time></trkpt><trkpt lat="43.71312156771041" lon="11.59544562410454"><ele>1355.0</ele><time>2026-04-28T10:51:30.998Z</time></trkpt><trkpt lat="43.71301680715415" lon="11.595518663970234"><ele>1356.5</ele><time>2026-04-28T10:51:32.998Z</time></trkpt><trkpt lat="43.7129589094714" lon="11.59555583660151"><ele>1358.0</ele><time>2026-04-28T10:51:33.998Z</time></trkpt><trkpt lat="43.71284651908357" lon="11.595629494205859"><ele>1359.5</ele><time>2026-04-28T10:51:35.998Z</time></trkpt><trkpt lat="43.71277646472317" lon="11.595674776607796"><ele>1361.0</ele><time>2026-04-28T10:51:36.998Z</time></trkpt><trkpt lat="43.71270792439119" lon="11.59571374924328"><ele>1362.5</ele><time>2026-04-28T10:51:37.998Z</time></trkpt><trkpt lat="43.712636844413254" lon="11.5957524298136"><ele>1364.0</ele><time>2026-04-28T10:51:38.999Z</time></trkpt><trkpt lat="43.71256829969588" lon="11.595797983370144"><ele>1366.6666666666667</ele><time>2026-04-28T10:51:39.999Z</time></trkpt><trkpt lat="43.71250769649713" lon="11.59585287427208"><ele>1369.3333333333335</ele><time>2026-04-28T10:51:40.999Z</time></trkpt><trkpt lat="43.712453000857685" lon="11.595900637114836"><ele>1372.0</ele><time>2026-04-28T10:51:41.999Z</time></trkpt><trkpt lat="43.71240766528632" lon="11.59597160952919"><ele>1374.6666666666667</ele><time>2026-04-28T10:51:42.999Z</time></trkpt><trkpt lat="43.712355801150615" lon="11.596107174605576"><ele>1377.3333333333333</ele><time>2026-04-28T10:51:44.999Z</time></trkpt><trkpt lat="43.712324245816674" lon="11.59622924926964"><ele>1380.0</ele><time>2026-04-28T10:51:46.999Z</time></trkpt><trkpt lat="43.71223322751349" lon="11.596256996549974"><ele>1381.0</ele><time>2026-04-28T10:51:48.999Z</time></trkpt><trkpt lat="43.71215656389398" lon="11.596264807254062"><ele>1382.0</ele><time>2026-04-28T10:51:49.999Z</time></trkpt><trkpt lat="43.71207962691377" lon="11.596283243722782"><ele>1383.0</ele><time>2026-04-28T10:51:50.999Z</time></trkpt><trkpt lat="43.71196743523905" lon="11.59632151479882"><ele>1384.0</ele><time>2026-04-28T10:51:52.999Z</time></trkpt><trkpt lat="43.71184310420103" lon="11.59637310905791"><ele>1385.0</ele><time>2026-04-28T10:51:54.999Z</time></trkpt><trkpt lat="43.71177269282252" lon="11.596410328256626"><ele>1387.8</ele><time>2026-04-28T10:51:55.999Z</time></trkpt><trkpt lat="43.71168712242853" lon="11.596447724331323"><ele>1390.6</ele><time>2026-04-28T10:51:56.999Z</time></trkpt><trkpt lat="43.71159730976733" lon="11.596485911001707"><ele>1393.4</ele><time>2026-04-28T10:51:57.999Z</time></trkpt><trkpt lat="43.71150085503327" lon="11.596528532218604"><ele>1396.2</ele><time>2026-04-28T10:51:59Z</time></trkpt><trkpt lat="43.71141874871592" lon="11.59658473845931"><ele>1399.0</ele><time>2026-04-28T10:52:00Z</time></trkpt><trkpt lat="43.711344067867245" lon="11.596643458875429"><ele>1399.0</ele><time>2026-04-28T10:52:01Z</time></trkpt><trkpt lat="43.71127383733948" lon="11.596688392614281"><ele>1399.0</ele><time>2026-04-28T10:52:02Z</time></trkpt><trkpt lat="43.711171482671475" lon="11.596732355886758"><ele>1399.0</ele><time>2026-04-28T10:52:03Z</time></trkpt><trkpt lat="43.71104561257426" lon="11.596763752655237"><ele>1399.0</ele><time>2026-04-28T10:52:04Z</time></trkpt><trkpt lat="43.71094083839521" lon="11.59679114112207"><ele>1399.0</ele><time>2026-04-28T10:52:05Z</time></trkpt><trkpt lat="43.71086258339474" lon="11.596799022196818"><ele>1399.8000000000002</ele><time>2026-04-28T10:52:06Z</time></trkpt><trkpt lat="43.71077473863691" lon="11.596810059824232"><ele>1400.6000000000001</ele><time>2026-04-28T10:52:07Z</time></trkpt><trkpt lat="43.710661157963536" lon="11.59683668951298"><ele>1401.4</ele><time>2026-04-28T10:52:08Z</time></trkpt><trkpt lat="43.71054633352258" lon="11.596843291702463"><ele>1402.2</ele><time>2026-04-28T10:52:09Z</time></trkpt><trkpt lat="43.710449915209026" lon="11.596855003111855"><ele>1403.0</ele><time>2026-04-28T10:52:10Z</time></trkpt><trkpt lat="43.710383207787906" lon="11.59684233884023"><ele>1403.0</ele><time>2026-04-28T10:52:11Z</time></trkpt><trkpt lat="43.71030294257096" lon="11.596825432451446"><ele>1403.0</ele><time>2026-04-28T10:52:13Z</time></trkpt><trkpt lat="43.71023939752283" lon="11.596782504870527"><ele>1403.0</ele><time>2026-04-28T10:52:57.001Z</time></trkpt><trkpt lat="43.71016159762975" lon="11.59673555008294"><ele>1403.0</ele><time>2026-04-28T10:52:58.001Z</time></trkpt><trkpt lat="43.710061996420926" lon="11.596668779771264"><ele>1403.0</ele><time>2026-04-28T10:52:59.001Z</time></trkpt><trkpt lat="43.709963792569745" lon="11.596605042402652"><ele>1405.0</ele><time>2026-04-28T10:53:00.001Z</time></trkpt><trkpt lat="43.709872479124975" lon="11.596547698252984"><ele>1407.0</ele><time>2026-04-28T10:53:01.001Z</time></trkpt><trkpt lat="43.70978871283794" lon="11.596500033702862"><ele>1409.0</ele><time>2026-04-28T10:53:02.001Z</time></trkpt><trkpt lat="43.709720477562676" lon="11.59646335926266"><ele>1411.0</ele><time>2026-04-28T10:53:03.001Z</time></trkpt><trkpt lat="43.70962477047384" lon="11.596404175709411"><ele>1413.0</ele><time>2026-04-28T10:53:05.001Z</time></trkpt><trkpt lat="43.70956093379964" lon="11.596382831356504"><ele>1415.0</ele><time>2026-04-28T10:53:07.001Z</time></trkpt><trkpt lat="43.70948795687339" lon="11.596488217928936"><ele>1417.4</ele><time>2026-04-28T10:53:24.001Z</time></trkpt><trkpt lat="43.70939577941193" lon="11.596575497662515"><ele>1419.8</ele><time>2026-04-28T10:53:26.001Z</time></trkpt><trkpt lat="43.70932601985813" lon="11.596658041524162"><ele>1422.1999999999998</ele><time>2026-04-28T10:53:28.001Z</time></trkpt><trkpt lat="43.709254783871096" lon="11.596736829910158"><ele>1424.6</ele><time>2026-04-28T10:53:30.001Z</time></trkpt><trkpt lat="43.70917254759164" lon="11.59680692585284"><ele>1427.0</ele><time>2026-04-28T10:53:32.001Z</time></trkpt><trkpt lat="43.709075882948646" lon="11.596866319405398"><ele>1427.0</ele><time>2026-04-28T10:53:34.002Z</time></trkpt><trkpt lat="43.70897294470725" lon="11.596939853242372"><ele>1427.0</ele><time>2026-04-28T10:53:36.003Z</time></trkpt><trkpt lat="43.70885324937869" lon="11.59699624985969"><ele>1427.0</ele><time>2026-04-28T10:53:38.003Z</time></trkpt><trkpt lat="43.70878867564158" lon="11.59700673215162"><ele>1427.0</ele><time>2026-04-28T10:53:39.003Z</time></trkpt><trkpt lat="43.70872626665036" lon="11.597020123485382"><ele>1427.0</ele><time>2026-04-28T10:53:40.003Z</time></trkpt><trkpt lat="43.70861585021152" lon="11.597055666114457"><ele>1425.8</ele><time>2026-04-28T10:53:42.002Z</time></trkpt><trkpt lat="43.70851388381646" lon="11.597082536941928"><ele>1424.6</ele><time>2026-04-28T10:53:44.002Z</time></trkpt><trkpt lat="43.70838907143647" lon="11.597104249851736"><ele>1423.3999999999999</ele><time>2026-04-28T10:53:46.002Z</time></trkpt><trkpt lat="43.7082997646297" lon="11.59713244864107"><ele>1422.1999999999998</ele><time>2026-04-28T10:53:48.002Z</time></trkpt><trkpt lat="43.70821999817207" lon="11.597225672533291"><ele>1421.0</ele><time>2026-04-28T10:53:50.002Z</time></trkpt><trkpt lat="43.70817887604008" lon="11.597299256769473"><ele>1421.0</ele><time>2026-04-28T10:53:51.002Z</time></trkpt><trkpt lat="43.70813746995568" lon="11.597373981974279"><ele>1421.0</ele><time>2026-04-28T10:53:52.002Z</time></trkpt><trkpt lat="43.70809169022211" lon="11.597442542699268"><ele>1421.0</ele><time>2026-04-28T10:53:53.002Z</time></trkpt><trkpt lat="43.70803851974633" lon="11.597512835317065"><ele>1421.0</ele><time>2026-04-28T10:53:54.002Z</time></trkpt><trkpt lat="43.70798244623483" lon="11.59756269889951"><ele>1421.0</ele><time>2026-04-28T10:53:55.002Z</time></trkpt><trkpt lat="43.70792724951295" lon="11.597605864293627"><ele>1421.0</ele><time>2026-04-28T10:53:56.002Z</time></trkpt><trkpt lat="43.70784397117568" lon="11.597669501977686"><ele>1421.0</ele><time>2026-04-28T10:53:58.002Z</time></trkpt><trkpt lat="43.707771240762625" lon="11.597737756386957"><ele>1418.1666666666667</ele><time>2026-04-28T10:54:32.002Z</time></trkpt><trkpt lat="43.70770010739426" lon="11.597797723099246"><ele>1415.3333333333335</ele><time>2026-04-28T10:54:35.002Z</time></trkpt><trkpt lat="43.70766505214232" lon="11.59787830466648"><ele>1412.5</ele><time>2026-04-28T10:54:37.002Z</time></trkpt><trkpt lat="43.70761743968205" lon="11.597944892517036"><ele>1409.6666666666667</ele><time>2026-04-28T10:54:39.002Z</time></trkpt><trkpt lat="43.707567257115485" lon="11.598025632178247"><ele>1406.8333333333333</ele><time>2026-04-28T10:54:42.002Z</time></trkpt><trkpt lat="43.707521995639695" lon="11.598135287449105"><ele>1404.0</ele><time>2026-04-28T10:54:45.002Z</time></trkpt><trkpt lat="43.70749698142761" lon="11.598239489346762"><ele>1403.5</ele><time>2026-04-28T10:54:47.002Z</time></trkpt><trkpt lat="43.707451166253875" lon="11.59835711695571"><ele>1403.0</ele><time>2026-04-28T10:54:49.002Z</time></trkpt><trkpt lat="43.70738125072343" lon="11.598445700077473"><ele>1402.5</ele><time>2026-04-28T10:54:51.002Z</time></trkpt><trkpt lat="43.70733054250088" lon="11.598527614299423"><ele>1402.0</ele><time>2026-04-28T10:54:58.002Z</time></trkpt><trkpt lat="43.70727663339904" lon="11.598594425262819"><ele>1401.5</ele><time>2026-04-28T10:54:59.002Z</time></trkpt><trkpt lat="43.707219611023774" lon="11.59866258875124"><ele>1401.0</ele><time>2026-04-28T10:55:00.002Z</time></trkpt><trkpt lat="43.70717703346456" lon="11.598727559801638"><ele>1398.8</ele><time>2026-04-28T10:55:01.002Z</time></trkpt><trkpt lat="43.70710808165725" lon="11.598837699804822"><ele>1396.6</ele><time>2026-04-28T10:55:03.002Z</time></trkpt><trkpt lat="43.70703605613199" lon="11.59894906624943"><ele>1394.4</ele><time>2026-04-28T10:55:05.002Z</time></trkpt><trkpt lat="43.70693133980928" lon="11.59900117732325"><ele>1392.2</ele><time>2026-04-28T10:55:07.002Z</time></trkpt><trkpt lat="43.706830778784436" lon="11.599051989444352"><ele>1390.0</ele><time>2026-04-28T10:55:09.002Z</time></trkpt><trkpt lat="43.70678195251535" lon="11.599153392472843"><ele>1390.0</ele><time>2026-04-28T10:55:11.002Z</time></trkpt><trkpt lat="43.70671681191135" lon="11.599281141267237"><ele>1390.0</ele><time>2026-04-28T10:55:13.002Z</time></trkpt><trkpt lat="43.70664120793382" lon="11.599372673409386"><ele>1390.0</ele><time>2026-04-28T10:55:15.002Z</time></trkpt><trkpt lat="43.706586173301346" lon="11.599478736533326"><ele>1390.0</ele><time>2026-04-28T10:55:17.002Z</time></trkpt><trkpt lat="43.70653768245413" lon="11.599569810006328"><ele>1390.0</ele><time>2026-04-28T10:55:19.002Z</time></trkpt><trkpt lat="43.70648335018092" lon="11.599643469545915"><ele>1388.4</ele><time>2026-04-28T10:55:21.002Z</time></trkpt><trkpt lat="43.7064314847741" lon="11.599736592105895"><ele>1386.8</ele><time>2026-04-28T10:55:23.002Z</time></trkpt><trkpt lat="43.706381304187474" lon="11.599857703821133"><ele>1385.1999999999998</ele><time>2026-04-28T10:55:25.002Z</time></trkpt><trkpt lat="43.70631953225193" lon="11.600016138826312"><ele>1383.6</ele><time>2026-04-28T10:55:27.002Z</time></trkpt><trkpt lat="43.706288540058495" lon="11.60015046792057"><ele>1382.0</ele><time>2026-04-28T10:55:28.002Z</time></trkpt><trkpt lat="43.7061795766606" lon="11.600271217109185"><ele>1382.1999999999998</ele><time>2026-04-28T10:55:30.002Z</time></trkpt><trkpt lat="43.7060996203444" lon="11.600345742191502"><ele>1382.4</ele><time>2026-04-28T10:55:31.002Z</time></trkpt><trkpt lat="43.706019683416585" lon="11.600434808661598"><ele>1382.6</ele><time>2026-04-28T10:55:32.002Z</time></trkpt><trkpt lat="43.70593004664895" lon="11.600545660278904"><ele>1382.8000000000002</ele><time>2026-04-28T10:55:33.002Z</time></trkpt><trkpt lat="43.70584416774081" lon="11.600642486784448"><ele>1383.0</ele><time>2026-04-28T10:55:34.002Z</time></trkpt><trkpt lat="43.70577761745908" lon="11.600699294657234"><ele>1383.0</ele><time>2026-04-28T10:55:35.002Z</time></trkpt><trkpt lat="43.70566741105883" lon="11.600717571444097"><ele>1383.0</ele><time>2026-04-28T10:55:37.002Z</time></trkpt><trkpt lat="43.70558673464558" lon="11.600705575973809"><ele>1383.0</ele><time>2026-04-28T10:55:38.002Z</time></trkpt><trkpt lat="43.70549694757466" lon="11.600685222316642"><ele>1383.0</ele><time>2026-04-28T10:55:39.002Z</time></trkpt><trkpt lat="43.705410805314216" lon="11.600660179327981"><ele>1383.0</ele><time>2026-04-28T10:55:40.002Z</time></trkpt><trkpt lat="43.70533611701654" lon="11.60065126952465"><ele>1383.0</ele><time>2026-04-28T10:55:41.002Z</time></trkpt><trkpt lat="43.70525568156359" lon="11.600653989067556"><ele>1383.3333333333333</ele><time>2026-04-28T10:55:42.004Z</time></trkpt><trkpt lat="43.70517713806238" lon="11.600662587038984"><ele>1383.6666666666667</ele><time>2026-04-28T10:55:43.004Z</time></trkpt><trkpt lat="43.70509367155331" lon="11.600673057381158"><ele>1384.0</ele><time>2026-04-28T10:55:44.004Z</time></trkpt><trkpt lat="43.70501612377735" lon="11.600683583387719"><ele>1384.3333333333335</ele><time>2026-04-28T10:55:45.004Z</time></trkpt><trkpt lat="43.70492652113645" lon="11.600719468682314"><ele>1384.6666666666667</ele><time>2026-04-28T10:55:46.003Z</time></trkpt><trkpt lat="43.704837971945224" lon="11.600792299794703"><ele>1385.0</ele><time>2026-04-28T10:55:47.003Z</time></trkpt><trkpt lat="43.704781389374496" lon="11.600858627363223"><ele>1385.0</ele><time>2026-04-28T10:55:48.003Z</time></trkpt><trkpt lat="43.70467886029409" lon="11.6008745915412"><ele>1385.0</ele><time>2026-04-28T10:55:49.003Z</time></trkpt><trkpt lat="43.70459657020493" lon="11.600860202730557"><ele>1385.0</ele><time>2026-04-28T10:55:50.003Z</time></trkpt><trkpt lat="43.704509921531766" lon="11.60081301022339"><ele>1385.0</ele><time>2026-04-28T10:55:51.003Z</time></trkpt><trkpt lat="43.70439664199732" lon="11.600742395953901"><ele>1385.0</ele><time>2026-04-28T10:55:52.003Z</time></trkpt><trkpt lat="43.70427246639295" lon="11.600670237214532"><ele>1385.2</ele><time>2026-04-28T10:55:53.003Z</time></trkpt><trkpt lat="43.704151794469794" lon="11.60061619416352"><ele>1385.4</ele><time>2026-04-28T10:55:54.003Z</time></trkpt><trkpt lat="43.70407995944621" lon="11.600594362309062"><ele>1385.6</ele><time>2026-04-28T10:55:55.003Z</time></trkpt><trkpt lat="43.70394871316863" lon="11.600565043560929"><ele>1385.8</ele><time>2026-04-28T10:55:56.003Z</time></trkpt><trkpt lat="43.70386127796309" lon="11.600556144768271"><ele>1386.0</ele><time>2026-04-28T10:55:57.003Z</time></trkpt><trkpt lat="43.703780389964095" lon="11.600552047735965"><ele>1386.0</ele><time>2026-04-28T10:55:58.003Z</time></trkpt><trkpt lat="43.703687019781505" lon="11.600510034276832"><ele>1386.0</ele><time>2026-04-28T10:55:59.003Z</time></trkpt><trkpt lat="43.70360205410733" lon="11.600558319875773"><ele>1386.0</ele><time>2026-04-28T10:56:00.002Z</time></trkpt><trkpt lat="43.70352977286512" lon="11.600598327673312"><ele>1386.0</ele><time>2026-04-28T10:56:01.002Z</time></trkpt><trkpt lat="43.70346915176666" lon="11.600647469517487"><ele>1386.0</ele><time>2026-04-28T10:56:02.002Z</time></trkpt><trkpt lat="43.70337554320168" lon="11.600767115333646"><ele>1385.6666666666667</ele><time>2026-04-28T10:56:04.002Z</time></trkpt><trkpt lat="43.70332596071392" lon="11.600857496651795"><ele>1385.3333333333333</ele><time>2026-04-28T10:56:05.002Z</time></trkpt><trkpt lat="43.70327239052505" lon="11.60094126919351"><ele>1385.0</ele><time>2026-04-28T10:56:06.002Z</time></trkpt><trkpt lat="43.703202081218734" lon="11.601033764887028"><ele>1384.6666666666665</ele><time>2026-04-28T10:56:07.002Z</time></trkpt><trkpt lat="43.70313895384536" lon="11.601109706713846"><ele>1384.3333333333333</ele><time>2026-04-28T10:56:08.002Z</time></trkpt><trkpt lat="43.70308839206163" lon="11.601187943943295"><ele>1384.0</ele><time>2026-04-28T10:56:09.002Z</time></trkpt><trkpt lat="43.70304063602076" lon="11.601254154419575"><ele>1382.6666666666665</ele><time>2026-04-28T10:56:10.002Z</time></trkpt><trkpt lat="43.702987902963926" lon="11.601306371497623"><ele>1381.3333333333333</ele><time>2026-04-28T10:56:11.002Z</time></trkpt><trkpt lat="43.70293505713241" lon="11.601360385731061"><ele>1380.0</ele><time>2026-04-28T10:56:12.002Z</time></trkpt><trkpt lat="43.70288143902799" lon="11.601413607685046"><ele>1378.6666666666667</ele><time>2026-04-28T10:56:13.002Z</time></trkpt><trkpt lat="43.70279991344341" lon="11.601528636024133"><ele>1377.3333333333335</ele><time>2026-04-28T10:56:15.002Z</time></trkpt><trkpt lat="43.70271223760893" lon="11.601621007422704"><ele>1376.0</ele><time>2026-04-28T10:56:17.002Z</time></trkpt><trkpt lat="43.70262418139197" lon="11.601714170791046"><ele>1375.8333333333335</ele><time>2026-04-28T10:56:19.002Z</time></trkpt><trkpt lat="43.70254850980939" lon="11.601785893665946"><ele>1375.6666666666667</ele><time>2026-04-28T10:56:21.002Z</time></trkpt><trkpt lat="43.70247495036021" lon="11.60186579781251"><ele>1375.5</ele><time>2026-04-28T10:56:23.002Z</time></trkpt><trkpt lat="43.702389562101395" lon="11.601952847045796"><ele>1375.3333333333333</ele><time>2026-04-28T10:56:25.002Z</time></trkpt><trkpt lat="43.70234010417858" lon="11.602010849062433"><ele>1375.1666666666665</ele><time>2026-04-28T10:56:26.002Z</time></trkpt><trkpt lat="43.70228853881236" lon="11.602071418211054"><ele>1375.0</ele><time>2026-04-28T10:56:27.002Z</time></trkpt><trkpt lat="43.7022453760572" lon="11.60213648548638"><ele>1373.142857142857</ele><time>2026-04-28T10:56:28.002Z</time></trkpt><trkpt lat="43.702209885983756" lon="11.602210891582523"><ele>1371.2857142857142</ele><time>2026-04-28T10:56:29.002Z</time></trkpt><trkpt lat="43.702179561344956" lon="11.60230782592049"><ele>1369.4285714285716</ele><time>2026-04-28T10:56:30.002Z</time></trkpt><trkpt lat="43.702161705629294" lon="11.602406721418456"><ele>1367.5714285714284</ele><time>2026-04-28T10:56:31.002Z</time></trkpt><trkpt lat="43.70215046657441" lon="11.602496878773884"><ele>1365.7142857142858</ele><time>2026-04-28T10:56:32.002Z</time></trkpt><trkpt lat="43.7021251211336" lon="11.602594667696584"><ele>1363.857142857143</ele><time>2026-04-28T10:56:33.002Z</time></trkpt><trkpt lat="43.70208924534863" lon="11.60268407514001"><ele>1362.0</ele><time>2026-04-28T10:56:34.002Z</time></trkpt><trkpt lat="43.70205538470677" lon="11.602783667023665"><ele>1359.7142857142858</ele><time>2026-04-28T10:56:35.002Z</time></trkpt><trkpt lat="43.70202502215343" lon="11.60287810407692"><ele>1357.4285714285716</ele><time>2026-04-28T10:56:36.002Z</time></trkpt><trkpt lat="43.701987589180334" lon="11.602962805430327"><ele>1355.1428571428573</ele><time>2026-04-28T10:56:37.002Z</time></trkpt><trkpt lat="43.70194243812716" lon="11.60303584221319"><ele>1352.857142857143</ele><time>2026-04-28T10:56:38.002Z</time></trkpt><trkpt lat="43.70190011157677" lon="11.60310685971012"><ele>1350.5714285714284</ele><time>2026-04-28T10:56:39.002Z</time></trkpt><trkpt lat="43.70185447027004" lon="11.603187871169252"><ele>1348.2857142857144</ele><time>2026-04-28T10:56:40.002Z</time></trkpt><trkpt lat="43.70180749577421" lon="11.6032656595553"><ele>1346.0</ele><time>2026-04-28T10:56:41.002Z</time></trkpt><trkpt lat="43.70176052188099" lon="11.603324747665097"><ele>1345.4</ele><time>2026-04-28T10:56:42.002Z</time></trkpt><trkpt lat="43.7016682886769" lon="11.60342880213487"><ele>1344.8</ele><time>2026-04-28T10:56:44.002Z</time></trkpt><trkpt lat="43.701601460981585" lon="11.603541059799378"><ele>1344.2</ele><time>2026-04-28T10:56:46.002Z</time></trkpt><trkpt lat="43.701566511630425" lon="11.603644846444165"><ele>1343.6000000000001</ele><time>2026-04-28T10:56:47.002Z</time></trkpt><trkpt lat="43.701519887500645" lon="11.603762713873271"><ele>1343.0</ele><time>2026-04-28T10:56:48.002Z</time></trkpt><trkpt lat="43.70147476233293" lon="11.603845471610258"><ele>1342.6666666666667</ele><time>2026-04-28T10:56:49.002Z</time></trkpt><trkpt lat="43.70141058402699" lon="11.603857388456143"><ele>1342.3333333333335</ele><time>2026-04-28T10:56:51.002Z</time></trkpt><trkpt lat="43.70133942757733" lon="11.603767887154598"><ele>1342.0</ele><time>2026-04-28T10:56:53.002Z</time></trkpt><trkpt lat="43.70137995209959" lon="11.603689711440271"><ele>1341.6666666666667</ele><time>2026-04-28T10:57:08.002Z</time></trkpt><trkpt lat="43.70141961042885" lon="11.603759621727669"><ele>1341.3333333333333</ele><time>2026-04-28T10:57:10.002Z</time></trkpt><trkpt lat="43.701390181031506" lon="11.60387900251666"><ele>1341.0</ele><time>2026-04-28T10:57:12.002Z</time></trkpt><trkpt lat="43.70136785335941" lon="11.604003501258397"><ele>1341.0</ele><time>2026-04-28T10:57:14.002Z</time></trkpt><trkpt lat="43.701313347188496" lon="11.604077973271611"><ele>1341.0</ele><time>2026-04-28T10:57:16.002Z</time></trkpt><trkpt lat="43.70121230385584" lon="11.604177314122085"><ele>1341.0</ele><time>2026-04-28T10:57:18.002Z</time></trkpt><trkpt lat="43.70113416747407" lon="11.604288533693921"><ele>1341.0</ele><time>2026-04-28T10:57:19.002Z</time></trkpt><trkpt lat="43.701068430446995" lon="11.604412201978556"><ele>1341.0</ele><time>2026-04-28T10:57:20.002Z</time></trkpt><trkpt lat="43.70100511165367" lon="11.6045261986414"><ele>1341.1999999999998</ele><time>2026-04-28T10:57:21.002Z</time></trkpt><trkpt lat="43.70094394871371" lon="11.604629606205755"><ele>1341.3999999999999</ele><time>2026-04-28T10:57:22.002Z</time></trkpt><trkpt lat="43.70088061954545" lon="11.604740635708529"><ele>1341.6</ele><time>2026-04-28T10:57:23.002Z</time></trkpt><trkpt lat="43.70082693730828" lon="11.604845665561735"><ele>1341.8</ele><time>2026-04-28T10:57:24.002Z</time></trkpt><trkpt lat="43.70078490086669" lon="11.604953944903297"><ele>1342.0</ele><time>2026-04-28T10:57:25.002Z</time></trkpt><trkpt lat="43.70073818316471" lon="11.60506800672366"><ele>1342.0</ele><time>2026-04-28T10:57:26.002Z</time></trkpt><trkpt lat="43.700699372950154" lon="11.605154727743049"><ele>1342.0</ele><time>2026-04-28T10:57:27.002Z</time></trkpt><trkpt lat="43.7006467511991" lon="11.605249060787928"><ele>1342.0</ele><time>2026-04-28T10:57:29.002Z</time></trkpt><trkpt lat="43.70060721361915" lon="11.605331794194301"><ele>1342.0</ele><time>2026-04-28T10:57:30.002Z</time></trkpt><trkpt lat="43.70057277319751" lon="11.605419977250802"><ele>1342.0</ele><time>2026-04-28T10:57:31.002Z</time></trkpt><trkpt lat="43.70050992275852" lon="11.605548644316292"><ele>1342.0</ele><time>2026-04-28T10:57:33.002Z</time></trkpt><trkpt lat="43.700442996573365" lon="11.605665692592382"><ele>1341.3999999999999</ele><time>2026-04-28T10:57:35.002Z</time></trkpt><trkpt lat="43.70036304583097" lon="11.605792622681722"><ele>1340.8</ele><time>2026-04-28T10:57:37.002Z</time></trkpt><trkpt lat="43.70027501404204" lon="11.605899267621284"><ele>1340.2</ele><time>2026-04-28T10:57:39.002Z</time></trkpt><trkpt lat="43.700231769191035" lon="11.605971726989603"><ele>1339.6</ele><time>2026-04-28T10:57:40.002Z</time></trkpt><trkpt lat="43.70018185483826" lon="11.606058304866616"><ele>1339.0</ele><time>2026-04-28T10:57:41.002Z</time></trkpt><trkpt lat="43.700132163050185" lon="11.60615240542041"><ele>1339.2</ele><time>2026-04-28T10:57:42.002Z</time></trkpt><trkpt lat="43.700081407357324" lon="11.606260253695597"><ele>1339.4</ele><time>2026-04-28T10:57:43.002Z</time></trkpt><trkpt lat="43.70003286813415" lon="11.606370530865942"><ele>1339.6</ele><time>2026-04-28T10:57:44.002Z</time></trkpt><trkpt lat="43.69998357872059" lon="11.606481460885618"><ele>1339.8</ele><time>2026-04-28T10:57:45.002Z</time></trkpt><trkpt lat="43.69992278919963" lon="11.60659505954343"><ele>1340.0</ele><time>2026-04-28T10:57:46.002Z</time></trkpt><trkpt lat="43.69986764750769" lon="11.606682280861301"><ele>1340.0</ele><time>2026-04-28T10:57:47.002Z</time></trkpt><trkpt lat="43.699822091111265" lon="11.606749908736285"><ele>1340.0</ele><time>2026-04-28T10:57:48.003Z</time></trkpt><trkpt lat="43.69973688096278" lon="11.606852027526097"><ele>1340.0</ele><time>2026-04-28T10:57:50.003Z</time></trkpt><trkpt lat="43.69966795462417" lon="11.606994686720492"><ele>1340.0</ele><time>2026-04-28T10:57:52.003Z</time></trkpt><trkpt lat="43.69960916662673" lon="11.60707938066885"><ele>1340.0</ele><time>2026-04-28T10:57:54.003Z</time></trkpt><trkpt lat="43.69954471375283" lon="11.607145989913198"><ele>1340.8</ele><time>2026-04-28T10:57:56.003Z</time></trkpt><trkpt lat="43.69949860067748" lon="11.607295995931894"><ele>1341.6</ele><time>2026-04-28T10:58:01.002Z</time></trkpt><trkpt lat="43.6994385458294" lon="11.607392962011117"><ele>1342.4</ele><time>2026-04-28T10:58:02.002Z</time></trkpt><trkpt lat="43.699376891447386" lon="11.607492873010788"><ele>1343.2</ele><time>2026-04-28T10:58:03.002Z</time></trkpt><trkpt lat="43.69931141871067" lon="11.607598489003676"><ele>1344.0</ele><time>2026-04-28T10:58:04.002Z</time></trkpt><trkpt lat="43.69923610577217" lon="11.607708690608346"><ele>1346.6</ele><time>2026-04-28T10:58:05.002Z</time></trkpt><trkpt lat="43.69916178528676" lon="11.607815996624646"><ele>1349.2</ele><time>2026-04-28T10:58:06.002Z</time></trkpt><trkpt lat="43.69908842250051" lon="11.607922841953041"><ele>1351.8</ele><time>2026-04-28T10:58:07.002Z</time></trkpt><trkpt lat="43.69901829642034" lon="11.608035591698574"><ele>1354.3999999999999</ele><time>2026-04-28T10:58:08.002Z</time></trkpt><trkpt lat="43.69894625035511" lon="11.608142899409954"><ele>1357.0</ele><time>2026-04-28T10:58:09.002Z</time></trkpt><trkpt lat="43.6988774379039" lon="11.608242060255895"><ele>1357.0</ele><time>2026-04-28T10:58:10.002Z</time></trkpt><trkpt lat="43.69882860161019" lon="11.608314281842702"><ele>1357.0</ele><time>2026-04-28T10:58:11.002Z</time></trkpt><trkpt lat="43.69877334882395" lon="11.608370523579703"><ele>1357.0</ele><time>2026-04-28T10:58:12.002Z</time></trkpt><trkpt lat="43.69870356121622" lon="11.608406681166183"><ele>1357.0</ele><time>2026-04-28T10:58:13.002Z</time></trkpt><trkpt lat="43.698616830448934" lon="11.608431381709133"><ele>1357.0</ele><time>2026-04-28T10:58:14.002Z</time></trkpt><trkpt lat="43.698523075248595" lon="11.608435637405602"><ele>1357.0</ele><time>2026-04-28T10:58:15.001Z</time></trkpt><trkpt lat="43.698422890601115" lon="11.608433591912188"><ele>1361.3999999999999</ele><time>2026-04-28T10:58:16.001Z</time></trkpt><trkpt lat="43.698318025815844" lon="11.608431524341121"><ele>1365.8</ele><time>2026-04-28T10:58:17.001Z</time></trkpt><trkpt lat="43.698215490460186" lon="11.608427275747793"><ele>1370.2</ele><time>2026-04-28T10:58:18.001Z</time></trkpt><trkpt lat="43.69809768632384" lon="11.608428550468373"><ele>1374.6</ele><time>2026-04-28T10:58:19.001Z</time></trkpt><trkpt lat="43.697976498918074" lon="11.608413966082217"><ele>1379.0</ele><time>2026-04-28T10:58:20.001Z</time></trkpt><trkpt lat="43.697857870303494" lon="11.608388363261115"><ele>1382.0</ele><time>2026-04-28T10:58:21.001Z</time></trkpt><trkpt lat="43.697742999171375" lon="11.608377427940589"><ele>1385.0</ele><time>2026-04-28T10:58:22.001Z</time></trkpt><trkpt lat="43.69762951058009" lon="11.608372131424877"><ele>1388.0</ele><time>2026-04-28T10:58:23.001Z</time></trkpt><trkpt lat="43.69752263218488" lon="11.608379101226399"><ele>1391.0</ele><time>2026-04-28T10:58:24.001Z</time></trkpt><trkpt lat="43.697425283251384" lon="11.608406083007988"><ele>1394.0</ele><time>2026-04-28T10:58:25.001Z</time></trkpt><trkpt lat="43.69733379819247" lon="11.608455860543735"><ele>1394.0</ele><time>2026-04-28T10:58:26.001Z</time></trkpt><trkpt lat="43.69726373732115" lon="11.608518950212195"><ele>1394.0</ele><time>2026-04-28T10:58:27.001Z</time></trkpt><trkpt lat="43.69720808470409" lon="11.608604836300977"><ele>1394.0</ele><time>2026-04-28T10:58:28.001Z</time></trkpt><trkpt lat="43.69716205218307" lon="11.608710332499976"><ele>1394.0</ele><time>2026-04-28T10:58:29.001Z</time></trkpt><trkpt lat="43.69711278102512" lon="11.608833229163496"><ele>1394.0</ele><time>2026-04-28T10:58:30.001Z</time></trkpt><trkpt lat="43.69706079975441" lon="11.608959708143665"><ele>1393.3333333333335</ele><time>2026-04-28T10:58:31.001Z</time></trkpt><trkpt lat="43.69700485157418" lon="11.60907888570035"><ele>1392.6666666666667</ele><time>2026-04-28T10:58:32.001Z</time></trkpt><trkpt lat="43.696952588360205" lon="11.609180365080377"><ele>1392.0</ele><time>2026-04-28T10:58:33.001Z</time></trkpt><trkpt lat="43.696905816482484" lon="11.609265574345846"><ele>1391.3333333333333</ele><time>2026-04-28T10:58:34.001Z</time></trkpt><trkpt lat="43.69685112197539" lon="11.609350015034865"><ele>1390.6666666666665</ele><time>2026-04-28T10:58:35.001Z</time></trkpt><trkpt lat="43.6967911215208" lon="11.609427195416593"><ele>1390.0</ele><time>2026-04-28T10:58:36.001Z</time></trkpt><trkpt lat="43.696721299939156" lon="11.60950198520434"><ele>1392.5</ele><time>2026-04-28T10:58:37.001Z</time></trkpt><trkpt lat="43.69663878768742" lon="11.609575083479648"><ele>1395.0</ele><time>2026-04-28T10:58:38.001Z</time></trkpt><trkpt lat="43.696554183506" lon="11.609644014427806"><ele>1397.5</ele><time>2026-04-28T10:58:39.001Z</time></trkpt><trkpt lat="43.69647949866662" lon="11.609685393955399"><ele>1400.0</ele><time>2026-04-28T10:58:40.001Z</time></trkpt><trkpt lat="43.696407168581025" lon="11.609725669209404"><ele>1402.5</ele><time>2026-04-28T10:58:41.001Z</time></trkpt><trkpt lat="43.696322900592406" lon="11.6097521087574"><ele>1405.0</ele><time>2026-04-28T10:58:42.001Z</time></trkpt><trkpt lat="43.69622524591658" lon="11.609758681732819"><ele>1405.0</ele><time>2026-04-28T10:58:43.001Z</time></trkpt><trkpt lat="43.69611462089541" lon="11.609761882589295"><ele>1405.0</ele><time>2026-04-28T10:58:44.001Z</time></trkpt><trkpt lat="43.69600315649687" lon="11.60978013543463"><ele>1405.0</ele><time>2026-04-28T10:58:45.001Z</time></trkpt><trkpt lat="43.69589293366935" lon="11.60980549423363"><ele>1405.0</ele><time>2026-04-28T10:58:46.001Z</time></trkpt><trkpt lat="43.69578644707004" lon="11.609833925014186"><ele>1405.0</ele><time>2026-04-28T10:58:47.001Z</time></trkpt><trkpt lat="43.69568423553437" lon="11.609877995846958"><ele>1408.75</ele><time>2026-04-28T10:58:48.001Z</time></trkpt><trkpt lat="43.695575240999695" lon="11.609948460902286"><ele>1412.5</ele><time>2026-04-28T10:58:49.001Z</time></trkpt><trkpt lat="43.695474032074614" lon="11.61002849239502"><ele>1416.25</ele><time>2026-04-28T10:58:50.001Z</time></trkpt><trkpt lat="43.69537763503854" lon="11.610123424405117"><ele>1420.0</ele><time>2026-04-28T10:58:51.001Z</time></trkpt><trkpt lat="43.69527968877058" lon="11.610230820267828"><ele>1420.6</ele><time>2026-04-28T10:58:52.001Z</time></trkpt><trkpt lat="43.69519050045359" lon="11.610322041076587"><ele>1421.2</ele><time>2026-04-28T10:58:53.001Z</time></trkpt><trkpt lat="43.69512339636374" lon="11.61039315100368"><ele>1421.8000000000002</ele><time>2026-04-28T10:58:54.001Z</time></trkpt><trkpt lat="43.695075060846996" lon="11.610459953319745"><ele>1422.4</ele><time>2026-04-28T10:58:55.001Z</time></trkpt><trkpt lat="43.69505100314985" lon="11.61062209456214"><ele>1423.0</ele><time>2026-04-28T10:58:57.001Z</time></trkpt><trkpt lat="43.69506783666316" lon="11.610713154409629"><ele>1425.142857142857</ele><time>2026-04-28T10:58:58.001Z</time></trkpt><trkpt lat="43.69509317513037" lon="11.610803405821507"><ele>1427.2857142857142</ele><time>2026-04-28T10:58:59.001Z</time></trkpt><trkpt lat="43.69513141755207" lon="11.610907220547386"><ele>1429.4285714285713</ele><time>2026-04-28T10:59:00.001Z</time></trkpt><trkpt lat="43.69513718491911" lon="11.61100964811542"><ele>1431.5714285714284</ele><time>2026-04-28T10:59:01.001Z</time></trkpt><trkpt lat="43.69511255920459" lon="11.611099268880137"><ele>1433.7142857142858</ele><time>2026-04-28T10:59:02.001Z</time></trkpt><trkpt lat="43.695075606598365" lon="11.61118048463977"><ele>1435.8571428571427</ele><time>2026-04-28T10:59:03.001Z</time></trkpt><trkpt lat="43.69504512018662" lon="11.61126467644348"><ele>1438.0</ele><time>2026-04-28T10:59:11.001Z</time></trkpt><trkpt lat="43.694925565478876" lon="11.611229312020043"><ele>1438.0</ele><time>2026-04-28T10:59:13.001Z</time></trkpt><trkpt lat="43.6948212331752" lon="11.611182591148793"><ele>1438.0</ele><time>2026-04-28T10:59:14.001Z</time></trkpt><trkpt lat="43.694701784711334" lon="11.611137223945398"><ele>1438.0</ele><time>2026-04-28T10:59:15.001Z</time></trkpt><trkpt lat="43.69456239681932" lon="11.611107264267176"><ele>1438.0</ele><time>2026-04-28T10:59:16.001Z</time></trkpt><trkpt lat="43.69442205023862" lon="11.611067966413335"><ele>1440.2</ele><time>2026-04-28T10:59:17.001Z</time></trkpt><trkpt lat="43.69431116752221" lon="11.611014445672614"><ele>1442.4</ele><time>2026-04-28T10:59:18.001Z</time></trkpt><trkpt lat="43.69422707520415" lon="11.610961427678607"><ele>1444.6000000000001</ele><time>2026-04-28T10:59:19.001Z</time></trkpt><trkpt lat="43.69414189383166" lon="11.61092893214166"><ele>1446.8000000000002</ele><time>2026-04-28T10:59:20.001Z</time></trkpt><trkpt lat="43.69404600617681" lon="11.610917876990946"><ele>1449.0</ele><time>2026-04-28T10:59:21.001Z</time></trkpt><trkpt lat="43.693954012291165" lon="11.610923134601713"><ele>1449.0</ele><time>2026-04-28T10:59:22.001Z</time></trkpt><trkpt lat="43.69387094588966" lon="11.610896138872615"><ele>1449.0</ele><time>2026-04-28T10:59:23.001Z</time></trkpt><trkpt lat="43.69378532737201" lon="11.610880469797296"><ele>1449.0</ele><time>2026-04-28T10:59:24.001Z</time></trkpt><trkpt lat="43.69370045668065" lon="11.61085447629761"><ele>1449.0</ele><time>2026-04-28T10:59:25.001Z</time></trkpt><trkpt lat="43.69362106810976" lon="11.610822476009327"><ele>1449.0</ele><time>2026-04-28T10:59:26.001Z</time></trkpt><trkpt lat="43.69353764235999" lon="11.610800646911178"><ele>1449.0</ele><time>2026-04-28T10:59:27.001Z</time></trkpt><trkpt lat="43.69345887645531" lon="11.610797148617955"><ele>1451.6</ele><time>2026-04-28T10:59:29.001Z</time></trkpt><trkpt lat="43.6933199848137" lon="11.610840108484021"><ele>1454.2</ele><time>2026-04-28T10:59:31.001Z</time></trkpt><trkpt lat="43.69322708137658" lon="11.610880054417384"><ele>1456.8</ele><time>2026-04-28T10:59:32.001Z</time></trkpt><trkpt lat="43.69314494777089" lon="11.610905454050643"><ele>1459.3999999999999</ele><time>2026-04-28T10:59:33.001Z</time></trkpt><trkpt lat="43.69307536760596" lon="11.610924332372846"><ele>1462.0</ele><time>2026-04-28T10:59:34.001Z</time></trkpt><trkpt lat="43.69301129944094" lon="11.610947280063948"><ele>1462.0</ele><time>2026-04-28T10:59:35.001Z</time></trkpt><trkpt lat="43.692942053414484" lon="11.61097136029937"><ele>1462.0</ele><time>2026-04-28T10:59:36.001Z</time></trkpt><trkpt lat="43.69280295578978" lon="11.611005291325736"><ele>1462.0</ele><time>2026-04-28T10:59:38.001Z</time></trkpt><trkpt lat="43.69271178471875" lon="11.611048304497412"><ele>1462.0</ele><time>2026-04-28T10:59:39.001Z</time></trkpt><trkpt lat="43.69262307511309" lon="11.611115122225158"><ele>1462.0</ele><time>2026-04-28T10:59:40.001Z</time></trkpt><trkpt lat="43.69254096293178" lon="11.611199608760941"><ele>1460.75</ele><time>2026-04-28T10:59:41.001Z</time></trkpt><trkpt lat="43.69245799375624" lon="11.611288290021703"><ele>1459.5</ele><time>2026-04-28T10:59:42.001Z</time></trkpt><trkpt lat="43.69236799218996" lon="11.611361720101211"><ele>1458.25</ele><time>2026-04-28T10:59:43.001Z</time></trkpt><trkpt lat="43.69225692409938" lon="11.611418567085494"><ele>1457.0</ele><time>2026-04-28T10:59:44.001Z</time></trkpt><trkpt lat="43.6921412614013" lon="11.611485310259198"><ele>1457.0</ele><time>2026-04-28T10:59:45.001Z</time></trkpt><trkpt lat="43.692030114516136" lon="11.611553959357858"><ele>1457.0</ele><time>2026-04-28T10:59:46.001Z</time></trkpt><trkpt lat="43.691920836920964" lon="11.611618448030917"><ele>1457.0</ele><time>2026-04-28T10:59:47.001Z</time></trkpt><trkpt lat="43.691810277106924" lon="11.611667879955071"><ele>1457.0</ele><time>2026-04-28T10:59:48.001Z</time></trkpt><trkpt lat="43.691698976040406" lon="11.611723896278695"><ele>1456.5</ele><time>2026-04-28T10:59:49.001Z</time></trkpt><trkpt lat="43.69158668738233" lon="11.61178092415517"><ele>1456.0</ele><time>2026-04-28T10:59:50.001Z</time></trkpt><trkpt lat="43.691475659876055" lon="11.611830759604121"><ele>1455.5</ele><time>2026-04-28T10:59:51.001Z</time></trkpt><trkpt lat="43.691356027802776" lon="11.61186908352929"><ele>1455.0</ele><time>2026-04-28T10:59:52.001Z</time></trkpt><trkpt lat="43.69123050389954" lon="11.611906308553078"><ele>1455.0</ele><time>2026-04-28T10:59:53.001Z</time></trkpt><trkpt lat="43.691102370061465" lon="11.611945831174546"><ele>1455.0</ele><time>2026-04-28T10:59:54.002Z</time></trkpt><trkpt lat="43.69097833823633" lon="11.611977822403457"><ele>1455.0</ele><time>2026-04-28T10:59:55.002Z</time></trkpt><trkpt lat="43.69085659102261" lon="11.61199704969194"><ele>1455.0</ele><time>2026-04-28T10:59:56.002Z</time></trkpt><trkpt lat="43.69073771317641" lon="11.611995463127409"><ele>1453.5</ele><time>2026-04-28T10:59:57.002Z</time></trkpt><trkpt lat="43.69062691733042" lon="11.611973599671101"><ele>1452.0</ele><time>2026-04-28T10:59:58.002Z</time></trkpt><trkpt lat="43.69051325791162" lon="11.611939946752374"><ele>1450.5</ele><time>2026-04-28T10:59:59.002Z</time></trkpt><trkpt lat="43.69039964048185" lon="11.611882288357027"><ele>1449.0</ele><time>2026-04-28T11:00:00.002Z</time></trkpt><trkpt lat="43.690289050350245" lon="11.611797695565997"><ele>1450.25</ele><time>2026-04-28T11:00:01.002Z</time></trkpt><trkpt lat="43.69019241598546" lon="11.611685332573913"><ele>1451.5</ele><time>2026-04-28T11:00:02.002Z</time></trkpt><trkpt lat="43.69010656768527" lon="11.611584892957532"><ele>1452.75</ele><time>2026-04-28T11:00:03.001Z</time></trkpt><trkpt lat="43.69002262956656" lon="11.611488282568345"><ele>1454.0</ele><time>2026-04-28T11:00:04.001Z</time></trkpt><trkpt lat="43.68993628781543" lon="11.61140228649083"><ele>1454.0</ele><time>2026-04-28T11:00:05.001Z</time></trkpt><trkpt lat="43.689830286660616" lon="11.611302233307082"><ele>1454.0</ele><time>2026-04-28T11:00:06.001Z</time></trkpt><trkpt lat="43.68971405849904" lon="11.611292947054395"><ele>1454.0</ele><time>2026-04-28T11:00:07.001Z</time></trkpt><trkpt lat="43.68957792774923" lon="11.6112601318137"><ele>1454.0</ele><time>2026-04-28T11:00:08.001Z</time></trkpt><trkpt lat="43.68942020080342" lon="11.611234590635489"><ele>1456.3333333333335</ele><time>2026-04-28T11:00:09.001Z</time></trkpt><trkpt lat="43.6892705908349" lon="11.6111520182039"><ele>1458.6666666666667</ele><time>2026-04-28T11:00:10.001Z</time></trkpt><trkpt lat="43.68912959788244" lon="11.61108926354367"><ele>1461.0</ele><time>2026-04-28T11:00:11.001Z</time></trkpt><trkpt lat="43.68897971540017" lon="11.611026849355014"><ele>1461.0</ele><time>2026-04-28T11:00:12.001Z</time></trkpt><trkpt lat="43.68884451741353" lon="11.610979314280302"><ele>1461.0</ele><time>2026-04-28T11:00:13.001Z</time></trkpt><trkpt lat="43.688726541071205" lon="11.610952245053943"><ele>1461.0</ele><time>2026-04-28T11:00:14.001Z</time></trkpt><trkpt lat="43.688599911333526" lon="11.61094417395633"><ele>1461.0</ele><time>2026-04-28T11:00:15.001Z</time></trkpt><trkpt lat="43.68847244996266" lon="11.610939032774956"><ele>1463.6</ele><time>2026-04-28T11:00:16.001Z</time></trkpt><trkpt lat="43.68835699732095" lon="11.610912301032942"><ele>1466.1999999999998</ele><time>2026-04-28T11:00:17.001Z</time></trkpt><trkpt lat="43.68826335252299" lon="11.610870106219553"><ele>1468.8000000000002</ele><time>2026-04-28T11:00:18.001Z</time></trkpt><trkpt lat="43.68819500262405" lon="11.610829153008309"><ele>1471.4</ele><time>2026-04-28T11:00:19.001Z</time></trkpt><trkpt lat="43.68807535611115" lon="11.610779533453742"><ele>1474.0</ele><time>2026-04-28T11:00:21.001Z</time></trkpt><trkpt lat="43.687984088537576" lon="11.610752542867731"><ele>1474.0</ele><time>2026-04-28T11:00:22.001Z</time></trkpt><trkpt lat="43.6878746950349" lon="11.610716150544551"><ele>1474.0</ele><time>2026-04-28T11:00:23.001Z</time></trkpt><trkpt lat="43.68777789476664" lon="11.61067522282208"><ele>1474.0</ele><time>2026-04-28T11:00:24.001Z</time></trkpt><trkpt lat="43.68768632764414" lon="11.610630124142359"><ele>1474.0</ele><time>2026-04-28T11:00:25.001Z</time></trkpt><trkpt lat="43.68759543946528" lon="11.610587847692717"><ele>1474.0</ele><time>2026-04-28T11:00:26.001Z</time></trkpt><trkpt lat="43.68749488391199" lon="11.610544029772942"><ele>1475.2</ele><time>2026-04-28T11:00:27.001Z</time></trkpt><trkpt lat="43.68739734069064" lon="11.610505767160562"><ele>1476.4</ele><time>2026-04-28T11:00:28.001Z</time></trkpt><trkpt lat="43.687313542148495" lon="11.610467063597493"><ele>1477.6</ele><time>2026-04-28T11:00:29.001Z</time></trkpt><trkpt lat="43.68721771226401" lon="11.610412822317045"><ele>1478.8</ele><time>2026-04-28T11:00:30.001Z</time></trkpt><trkpt lat="43.6871176663079" lon="11.610326937930635"><ele>1480.0</ele><time>2026-04-28T11:00:31.001Z</time></trkpt><trkpt lat="43.68701565609819" lon="11.610247587190068"><ele>1482.5</ele><time>2026-04-28T11:00:32.001Z</time></trkpt><trkpt lat="43.68692179577097" lon="11.610157901468389"><ele>1485.0</ele><time>2026-04-28T11:00:33.001Z</time></trkpt><trkpt lat="43.686827774321685" lon="11.610075369606816"><ele>1487.5</ele><time>2026-04-28T11:00:34.001Z</time></trkpt><trkpt lat="43.68672628769961" lon="11.609988295942594"><ele>1490.0</ele><time>2026-04-28T11:00:35.001Z</time></trkpt><trkpt lat="43.68661902651936" lon="11.609888365913282"><ele>1490.0</ele><time>2026-04-28T11:00:36Z</time></trkpt><trkpt lat="43.68651784622212" lon="11.609793051800937"><ele>1490.0</ele><time>2026-04-28T11:00:37Z</time></trkpt><trkpt lat="43.68642223359378" lon="11.609703832071592"><ele>1490.0</ele><time>2026-04-28T11:00:38Z</time></trkpt><trkpt lat="43.686321199102906" lon="11.609614632371805"><ele>1490.0</ele><time>2026-04-28T11:00:39Z</time></trkpt><trkpt lat="43.68623399105493" lon="11.609539601602666"><ele>1489.8</ele><time>2026-04-28T11:00:40Z</time></trkpt><trkpt lat="43.686149666485505" lon="11.609480269435213"><ele>1489.6</ele><time>2026-04-28T11:00:41Z</time></trkpt><trkpt lat="43.686054757351236" lon="11.60941804702522"><ele>1489.4</ele><time>2026-04-28T11:00:42Z</time></trkpt><trkpt lat="43.685949637215636" lon="11.609345791664165"><ele>1489.2</ele><time>2026-04-28T11:00:43Z</time></trkpt><trkpt lat="43.6858540961191" lon="11.609268407500931"><ele>1489.0</ele><time>2026-04-28T11:00:44Z</time></trkpt><trkpt lat="43.68576689639453" lon="11.609181279765936"><ele>1493.6</ele><time>2026-04-28T11:00:45Z</time></trkpt><trkpt lat="43.68568178033362" lon="11.609103748970384"><ele>1498.2</ele><time>2026-04-28T11:00:46Z</time></trkpt><trkpt lat="43.68559549722912" lon="11.609038085733081"><ele>1502.8</ele><time>2026-04-28T11:00:47Z</time></trkpt><trkpt lat="43.685506509604686" lon="11.608963534582633"><ele>1507.3999999999999</ele><time>2026-04-28T11:00:48Z</time></trkpt><trkpt lat="43.68541898596056" lon="11.608884596903517"><ele>1512.0</ele><time>2026-04-28T11:00:49Z</time></trkpt><trkpt lat="43.685337154663294" lon="11.608814249323995"><ele>1512.0</ele><time>2026-04-28T11:00:50Z</time></trkpt><trkpt lat="43.68527039025412" lon="11.608761825641336"><ele>1512.0</ele><time>2026-04-28T11:00:51Z</time></trkpt><trkpt lat="43.685191579680485" lon="11.608715213455692"><ele>1512.0</ele><time>2026-04-28T11:00:53Z</time></trkpt><trkpt lat="43.68512208844972" lon="11.608673099558112"><ele>1512.0</ele><time>2026-04-28T11:02:15Z</time></trkpt><trkpt lat="43.68518770270586" lon="11.60863194349892"><ele>1512.0</ele><time>2026-04-28T11:02:54Z</time></trkpt><trkpt lat="43.68516388285165" lon="11.608713428655157"><ele>1512.0</ele><time>2026-04-28T11:03:06Z</time></trkpt><trkpt lat="43.685141215846166" lon="11.608621974547578"><ele>1512.0</ele><time>2026-04-28T11:06:41.998Z</time></trkpt><trkpt lat="43.6851419057252" lon="11.608725760699443"><ele>1513.6666666666667</ele><time>2026-04-28T11:17:05.001Z</time></trkpt><trkpt lat="43.68506354873796" lon="11.608781879068886"><ele>1515.3333333333333</ele><time>2026-04-28T11:18:41Z</time></trkpt><trkpt lat="43.6850433339845" lon="11.608883568341769"><ele>1517.0</ele><time>2026-04-28T11:18:44Z</time></trkpt><trkpt lat="43.685018870780794" lon="11.608969346359492"><ele>1518.6666666666665</ele><time>2026-04-28T11:18:46Z</time></trkpt><trkpt lat="43.68494969063419" lon="11.609044172009336"><ele>1520.3333333333333</ele><time>2026-04-28T11:18:48.001Z</time></trkpt><trkpt lat="43.684865142764814" lon="11.609098331092548"><ele>1522.0</ele><time>2026-04-28T11:18:50.001Z</time></trkpt><trkpt lat="43.68480369687243" lon="11.609136361032174"><ele>1522.0</ele><time>2026-04-28T11:18:51.001Z</time></trkpt><trkpt lat="43.68475183596511" lon="11.60925417024847"><ele>1522.0</ele><time>2026-04-28T11:18:53.001Z</time></trkpt><trkpt lat="43.68466308169827" lon="11.60936241328141"><ele>1522.0</ele><time>2026-04-28T11:18:55.001Z</time></trkpt><trkpt lat="43.6845445956267" lon="11.609477118849604"><ele>1522.0</ele><time>2026-04-28T11:18:57.001Z</time></trkpt><trkpt lat="43.68445730695216" lon="11.609566476423348"><ele>1521.142857142857</ele><time>2026-04-28T11:18:58.001Z</time></trkpt><trkpt lat="43.684386127821" lon="11.609626809344032"><ele>1520.2857142857142</ele><time>2026-04-28T11:18:59.001Z</time></trkpt><trkpt lat="43.684316375227276" lon="11.609687040708362"><ele>1519.4285714285716</ele><time>2026-04-28T11:19:00.001Z</time></trkpt><trkpt lat="43.68425700160341" lon="11.609749614258147"><ele>1518.5714285714284</ele><time>2026-04-28T11:19:01.001Z</time></trkpt><trkpt lat="43.68420564209009" lon="11.609809999838047"><ele>1517.7142857142858</ele><time>2026-04-28T11:19:02.001Z</time></trkpt><trkpt lat="43.684152266908086" lon="11.609868310948203"><ele>1516.857142857143</ele><time>2026-04-28T11:19:03.001Z</time></trkpt><trkpt lat="43.684102786098144" lon="11.60993734032248"><ele>1516.0</ele><time>2026-04-28T11:19:04.001Z</time></trkpt><trkpt lat="43.684057338824914" lon="11.61000769549659"><ele>1516.0</ele><time>2026-04-28T11:19:05.001Z</time></trkpt><trkpt lat="43.68401606048626" lon="11.610086603675814"><ele>1516.0</ele><time>2026-04-28T11:19:06.001Z</time></trkpt><trkpt lat="43.68397897067966" lon="11.61016062815231"><ele>1516.0</ele><time>2026-04-28T11:19:07.001Z</time></trkpt><trkpt lat="43.68392210632298" lon="11.610292607096724"><ele>1516.0</ele><time>2026-04-28T11:19:09.001Z</time></trkpt><trkpt lat="43.68387835538891" lon="11.610409965526717"><ele>1516.0</ele><time>2026-04-28T11:19:11.001Z</time></trkpt><trkpt lat="43.68383956722815" lon="11.6105359141797"><ele>1516.0</ele><time>2026-04-28T11:19:13Z</time></trkpt><trkpt lat="43.68380367870828" lon="11.610642599335154"><ele>1514.5</ele><time>2026-04-28T11:19:15Z</time></trkpt><trkpt lat="43.683767071949475" lon="11.610729506772962"><ele>1513.0</ele><time>2026-04-28T11:19:17Z</time></trkpt><trkpt lat="43.68371035121122" lon="11.610791180873614"><ele>1511.5</ele><time>2026-04-28T11:19:20Z</time></trkpt><trkpt lat="43.68364759461" lon="11.61083974021331"><ele>1510.0</ele><time>2026-04-28T11:19:22Z</time></trkpt><trkpt lat="43.68355573942402" lon="11.610906524658741"><ele>1508.5</ele><time>2026-04-28T11:19:24Z</time></trkpt><trkpt lat="43.683480547638865" lon="11.610949503350902"><ele>1507.0</ele><time>2026-04-28T11:19:25Z</time></trkpt><trkpt lat="43.68338843021329" lon="11.611010563957839"><ele>1505.75</ele><time>2026-04-28T11:19:26Z</time></trkpt><trkpt lat="43.68328403191832" lon="11.611078139586636"><ele>1504.5</ele><time>2026-04-28T11:19:27Z</time></trkpt><trkpt lat="43.683170239448984" lon="11.611150576421329"><ele>1503.25</ele><time>2026-04-28T11:19:28Z</time></trkpt><trkpt lat="43.68306269336654" lon="11.611216876760283"><ele>1502.0</ele><time>2026-04-28T11:19:29Z</time></trkpt><trkpt lat="43.682949980519474" lon="11.611277273199777"><ele>1499.25</ele><time>2026-04-28T11:19:30Z</time></trkpt><trkpt lat="43.682824441240506" lon="11.611328683252536"><ele>1496.5</ele><time>2026-04-28T11:19:31Z</time></trkpt><trkpt lat="43.68270036584273" lon="11.611376244001855"><ele>1493.75</ele><time>2026-04-28T11:19:32Z</time></trkpt><trkpt lat="43.682573153350106" lon="11.611423912483104"><ele>1491.0</ele><time>2026-04-28T11:19:33Z</time></trkpt><trkpt lat="43.68245811780539" lon="11.61146145872095"><ele>1490.0</ele><time>2026-04-28T11:19:34Z</time></trkpt><trkpt lat="43.68235802905533" lon="11.611497154817556"><ele>1489.0</ele><time>2026-04-28T11:19:35Z</time></trkpt><trkpt lat="43.68227033653958" lon="11.611529276261795"><ele>1488.0</ele><time>2026-04-28T11:19:36Z</time></trkpt><trkpt lat="43.68219326012656" lon="11.61155518968376"><ele>1487.0</ele><time>2026-04-28T11:19:37Z</time></trkpt><trkpt lat="43.68212705396813" lon="11.61157466564571"><ele>1486.0</ele><time>2026-04-28T11:19:38Z</time></trkpt><trkpt lat="43.682040371190425" lon="11.611636796193629"><ele>1485.0</ele><time>2026-04-28T11:19:40Z</time></trkpt><trkpt lat="43.68195601641488" lon="11.611726223350127"><ele>1484.5</ele><time>2026-04-28T11:19:42Z</time></trkpt><trkpt lat="43.68188846583649" lon="11.61176673519544"><ele>1484.0</ele><time>2026-04-28T11:19:44Z</time></trkpt><trkpt lat="43.68181730264211" lon="11.611790832897226"><ele>1483.5</ele><time>2026-04-28T11:20:45.999Z</time></trkpt><trkpt lat="43.68175219129543" lon="11.61177222933518"><ele>1483.0</ele><time>2026-04-28T11:20:48.999Z</time></trkpt><trkpt lat="43.68167696862175" lon="11.611789094353007"><ele>1482.5</ele><time>2026-04-28T11:20:51.999Z</time></trkpt><trkpt lat="43.681579489966715" lon="11.611874672390469"><ele>1482.0</ele><time>2026-04-28T11:20:54.001Z</time></trkpt><trkpt lat="43.68144192942113" lon="11.611928690354926"><ele>1482.0</ele><time>2026-04-28T11:20:56.001Z</time></trkpt><trkpt lat="43.68137381297517" lon="11.61195410612249"><ele>1482.0</ele><time>2026-04-28T11:20:57.001Z</time></trkpt><trkpt lat="43.68131547336277" lon="11.612000927800151"><ele>1482.0</ele><time>2026-04-28T11:20:59.001Z</time></trkpt><trkpt lat="43.681229784320436" lon="11.612017867065612"><ele>1482.0</ele><time>2026-04-28T11:21:04Z</time></trkpt><trkpt lat="43.681157681152925" lon="11.61203394911177"><ele>1482.0</ele><time>2026-04-28T11:21:05Z</time></trkpt><trkpt lat="43.681068242649246" lon="11.612065411147935"><ele>1482.0</ele><time>2026-04-28T11:21:07Z</time></trkpt><trkpt lat="43.681006794579034" lon="11.612127529223166"><ele>1480.1666666666667</ele><time>2026-04-28T11:21:08Z</time></trkpt><trkpt lat="43.680950616591936" lon="11.612201056183258"><ele>1478.3333333333333</ele><time>2026-04-28T11:21:09Z</time></trkpt><trkpt lat="43.68089224300621" lon="11.612284950464158"><ele>1476.5</ele><time>2026-04-28T11:21:10Z</time></trkpt><trkpt lat="43.680829310656726" lon="11.612355879104458"><ele>1474.6666666666665</ele><time>2026-04-28T11:21:11Z</time></trkpt><trkpt lat="43.680764396380866" lon="11.612418744317619"><ele>1472.8333333333333</ele><time>2026-04-28T11:21:12Z</time></trkpt><trkpt lat="43.680706077284825" lon="11.612478798703451"><ele>1471.0</ele><time>2026-04-28T11:21:13Z</time></trkpt><trkpt lat="43.680653214596504" lon="11.612557613252253"><ele>1471.0</ele><time>2026-04-28T11:21:14Z</time></trkpt><trkpt lat="43.68061075605249" lon="11.612649324861952"><ele>1471.0</ele><time>2026-04-28T11:21:15Z</time></trkpt><trkpt lat="43.68056031987355" lon="11.612737368220987"><ele>1471.0</ele><time>2026-04-28T11:21:16Z</time></trkpt><trkpt lat="43.680496173229386" lon="11.612802572684606"><ele>1471.0</ele><time>2026-04-28T11:21:17Z</time></trkpt><trkpt lat="43.68042443211338" lon="11.61285527210471"><ele>1471.0</ele><time>2026-04-28T11:21:18Z</time></trkpt><trkpt lat="43.68035051430131" lon="11.612892904970453"><ele>1471.0</ele><time>2026-04-28T11:21:19Z</time></trkpt><trkpt lat="43.680267718542105" lon="11.612910188352107"><ele>1467.4</ele><time>2026-04-28T11:21:20Z</time></trkpt><trkpt lat="43.68017427121549" lon="11.612927774657342"><ele>1463.8</ele><time>2026-04-28T11:21:21Z</time></trkpt><trkpt lat="43.680072708803316" lon="11.612955342308812"><ele>1460.2</ele><time>2026-04-28T11:21:22Z</time></trkpt><trkpt lat="43.67997175736857" lon="11.612980527972933"><ele>1456.6000000000001</ele><time>2026-04-28T11:21:23Z</time></trkpt><trkpt lat="43.67986664249098" lon="11.612992891373557"><ele>1453.0</ele><time>2026-04-28T11:21:24Z</time></trkpt><trkpt lat="43.679763689345585" lon="11.613015765436577"><ele>1453.0</ele><time>2026-04-28T11:21:25Z</time></trkpt><trkpt lat="43.67966004774423" lon="11.613036550009266"><ele>1453.0</ele><time>2026-04-28T11:21:26Z</time></trkpt><trkpt lat="43.67955801387788" lon="11.613052523452254"><ele>1453.0</ele><time>2026-04-28T11:21:27Z</time></trkpt><trkpt lat="43.679449528317" lon="11.613071874007945"><ele>1453.0</ele><time>2026-04-28T11:21:28Z</time></trkpt><trkpt lat="43.679346176735415" lon="11.613097877411706"><ele>1453.0</ele><time>2026-04-28T11:21:29Z</time></trkpt><trkpt lat="43.67922900959458" lon="11.613148065357985"><ele>1452.3333333333333</ele><time>2026-04-28T11:21:30Z</time></trkpt><trkpt lat="43.679152791432564" lon="11.61317437838429"><ele>1451.6666666666665</ele><time>2026-04-28T11:21:31Z</time></trkpt><trkpt lat="43.67906670259922" lon="11.613204957315721"><ele>1451.0</ele><time>2026-04-28T11:21:32Z</time></trkpt><trkpt lat="43.678981468903615" lon="11.613232208108958"><ele>1450.3333333333333</ele><time>2026-04-28T11:21:33Z</time></trkpt><trkpt lat="43.67891251254921" lon="11.613250604199854"><ele>1449.6666666666667</ele><time>2026-04-28T11:21:34Z</time></trkpt><trkpt lat="43.67884798449878" lon="11.613264602042277"><ele>1449.0</ele><time>2026-04-28T11:21:35Z</time></trkpt><trkpt lat="43.678776229939565" lon="11.61328737938506"><ele>1449.0</ele><time>2026-04-28T11:21:36Z</time></trkpt><trkpt lat="43.67870531966783" lon="11.613307651050977"><ele>1449.0</ele><time>2026-04-28T11:21:37Z</time></trkpt><trkpt lat="43.67859743952106" lon="11.613344544288507"><ele>1449.0</ele><time>2026-04-28T11:21:39Z</time></trkpt><trkpt lat="43.67849340609783" lon="11.613431452711584"><ele>1449.0</ele><time>2026-04-28T11:21:41Z</time></trkpt><trkpt lat="43.678444187844114" lon="11.6134942135953"><ele>1449.0</ele><time>2026-04-28T11:21:42Z</time></trkpt><trkpt lat="43.67838180141876" lon="11.613572216450015"><ele>1448.5</ele><time>2026-04-28T11:21:43Z</time></trkpt><trkpt lat="43.67832242401765" lon="11.61363965990138"><ele>1448.0</ele><time>2026-04-28T11:21:44Z</time></trkpt><trkpt lat="43.678265004404395" lon="11.613714514946057"><ele>1447.5</ele><time>2026-04-28T11:21:45Z</time></trkpt><trkpt lat="43.67821258110894" lon="11.613798249515298"><ele>1447.0</ele><time>2026-04-28T11:21:46Z</time></trkpt><trkpt lat="43.678162624241054" lon="11.613877940145738"><ele>1446.5</ele><time>2026-04-28T11:21:47Z</time></trkpt><trkpt lat="43.678114706730085" lon="11.613954135953273"><ele>1446.0</ele><time>2026-04-28T11:21:48Z</time></trkpt><trkpt lat="43.67805818558288" lon="11.614029470651479"><ele>1444.0</ele><time>2026-04-28T11:21:49Z</time></trkpt><trkpt lat="43.67796897982971" lon="11.614105989059507"><ele>1442.0</ele><time>2026-04-28T11:21:50Z</time></trkpt><trkpt lat="43.67788927649451" lon="11.614230684318485"><ele>1440.0</ele><time>2026-04-28T11:21:52Z</time></trkpt><trkpt lat="43.677839472125335" lon="11.614297684125916"><ele>1438.0</ele><time>2026-04-28T11:21:53Z</time></trkpt><trkpt lat="43.67774469966948" lon="11.614396611447253"><ele>1436.0</ele><time>2026-04-28T11:21:55Z</time></trkpt><trkpt lat="43.677661270598726" lon="11.614458883458374"><ele>1433.0</ele><time>2026-04-28T11:21:57Z</time></trkpt><trkpt lat="43.677602133359876" lon="11.61451392684833"><ele>1430.0</ele><time>2026-04-28T11:21:58Z</time></trkpt><trkpt lat="43.6775111398484" lon="11.614586613439403"><ele>1427.0</ele><time>2026-04-28T11:22:00Z</time></trkpt><trkpt lat="43.67745033578499" lon="11.614636825218396"><ele>1424.0</ele><time>2026-04-28T11:22:01Z</time></trkpt><trkpt lat="43.67737544520796" lon="11.614706958463447"><ele>1421.0</ele><time>2026-04-28T11:22:02Z</time></trkpt><trkpt lat="43.67731215196709" lon="11.61477315712793"><ele>1418.0</ele><time>2026-04-28T11:22:03Z</time></trkpt><trkpt lat="43.677255085222896" lon="11.61484389314195"><ele>1418.0</ele><time>2026-04-28T11:22:04Z</time></trkpt><trkpt lat="43.677187747928635" lon="11.614912855254405"><ele>1418.0</ele><time>2026-04-28T11:22:05Z</time></trkpt><trkpt lat="43.677121353321674" lon="11.614992869197325"><ele>1418.0</ele><time>2026-04-28T11:22:06Z</time></trkpt><trkpt lat="43.677055251577976" lon="11.615073751575308"><ele>1418.0</ele><time>2026-04-28T11:22:07Z</time></trkpt><trkpt lat="43.676978669370044" lon="11.615196662066705"><ele>1418.0</ele><time>2026-04-28T11:22:08Z</time></trkpt><trkpt lat="43.676907527709325" lon="11.615229801958222"><ele>1414.6666666666667</ele><time>2026-04-28T11:22:09Z</time></trkpt><trkpt lat="43.67683919320166" lon="11.615296343269511"><ele>1411.3333333333335</ele><time>2026-04-28T11:22:10Z</time></trkpt><trkpt lat="43.67677384647485" lon="11.615360353294124"><ele>1408.0</ele><time>2026-04-28T11:22:11Z</time></trkpt><trkpt lat="43.67672022287499" lon="11.615421151422236"><ele>1404.6666666666667</ele><time>2026-04-28T11:22:12Z</time></trkpt><trkpt lat="43.676672367717956" lon="11.615484366453726"><ele>1401.3333333333333</ele><time>2026-04-28T11:22:13Z</time></trkpt><trkpt lat="43.67662707744199" lon="11.615550309849002"><ele>1398.0</ele><time>2026-04-28T11:22:14Z</time></trkpt><trkpt lat="43.67654506701432" lon="11.61567955585983"><ele>1398.0</ele><time>2026-04-28T11:22:15.999Z</time></trkpt><trkpt lat="43.6764997823962" lon="11.61575292793149"><ele>1398.0</ele><time>2026-04-28T11:22:16.999Z</time></trkpt><trkpt lat="43.67645623870669" lon="11.615847329265918"><ele>1398.0</ele><time>2026-04-28T11:22:17.999Z</time></trkpt><trkpt lat="43.67642984574722" lon="11.61594135735368"><ele>1398.0</ele><time>2026-04-28T11:22:18.999Z</time></trkpt><trkpt lat="43.676399265364964" lon="11.61605958879859"><ele>1398.0</ele><time>2026-04-28T11:22:19.999Z</time></trkpt><trkpt lat="43.676378742394526" lon="11.616180051601708"><ele>1398.0</ele><time>2026-04-28T11:22:20.999Z</time></trkpt><trkpt lat="43.67633977397895" lon="11.616308142784382"><ele>1395.5</ele><time>2026-04-28T11:22:21.999Z</time></trkpt><trkpt lat="43.67630404798714" lon="11.61642909990707"><ele>1393.0</ele><time>2026-04-28T11:22:22.999Z</time></trkpt><trkpt lat="43.676276548455114" lon="11.616529813669946"><ele>1390.5</ele><time>2026-04-28T11:22:23.999Z</time></trkpt><trkpt lat="43.6762197058488" lon="11.616626068275734"><ele>1388.0</ele><time>2026-04-28T11:22:24.999Z</time></trkpt><trkpt lat="43.67617773014925" lon="11.61673566127842"><ele>1385.5</ele><time>2026-04-28T11:22:25.999Z</time></trkpt><trkpt lat="43.67614285432843" lon="11.616829138899778"><ele>1383.0</ele><time>2026-04-28T11:22:26.999Z</time></trkpt><trkpt lat="43.676090168998364" lon="11.616945368673095"><ele>1384.0</ele><time>2026-04-28T11:22:27.999Z</time></trkpt><trkpt lat="43.67604085125251" lon="11.617067889208624"><ele>1385.0</ele><time>2026-04-28T11:22:28.999Z</time></trkpt><trkpt lat="43.675983331472" lon="11.617204896499834"><ele>1386.0</ele><time>2026-04-28T11:22:29.999Z</time></trkpt><trkpt lat="43.67592671711613" lon="11.617344283426391"><ele>1387.0</ele><time>2026-04-28T11:22:30.999Z</time></trkpt><trkpt lat="43.67587540300032" lon="11.617473365859844"><ele>1388.0</ele><time>2026-04-28T11:22:31.999Z</time></trkpt><trkpt lat="43.675827714430696" lon="11.617595077378997"><ele>1388.0</ele><time>2026-04-28T11:22:32.999Z</time></trkpt><trkpt lat="43.67579743887455" lon="11.617704640130697"><ele>1388.0</ele><time>2026-04-28T11:22:33.999Z</time></trkpt><trkpt lat="43.67577822839222" lon="11.617801614888034"><ele>1388.0</ele><time>2026-04-28T11:22:34.999Z</time></trkpt><trkpt lat="43.67576703475947" lon="11.617889648837163"><ele>1388.0</ele><time>2026-04-28T11:22:35.999Z</time></trkpt><trkpt lat="43.675744944251576" lon="11.618054201791477"><ele>1388.0</ele><time>2026-04-28T11:22:37.999Z</time></trkpt><trkpt lat="43.67573564541531" lon="11.61817315469301"><ele>1388.0</ele><time>2026-04-28T11:22:38.999Z</time></trkpt><trkpt lat="43.675726193232926" lon="11.618292787668338"><ele>1391.8000000000002</ele><time>2026-04-28T11:22:39.999Z</time></trkpt><trkpt lat="43.675711124265966" lon="11.618403927974077"><ele>1395.6</ele><time>2026-04-28T11:22:40.999Z</time></trkpt><trkpt lat="43.675686118676005" lon="11.618510791925935"><ele>1399.4</ele><time>2026-04-28T11:22:41.999Z</time></trkpt><trkpt lat="43.67565639815132" lon="11.61863246410716"><ele>1403.1999999999998</ele><time>2026-04-28T11:22:42.999Z</time></trkpt><trkpt lat="43.67562197528819" lon="11.618770612358396"><ele>1407.0</ele><time>2026-04-28T11:22:43.999Z</time></trkpt><trkpt lat="43.67559376970294" lon="11.618913108853663"><ele>1407.3999999999999</ele><time>2026-04-28T11:22:44.999Z</time></trkpt><trkpt lat="43.675571649087" lon="11.619066182088106"><ele>1407.8</ele><time>2026-04-28T11:22:45.999Z</time></trkpt><trkpt lat="43.675561807899044" lon="11.619174096635314"><ele>1408.2</ele><time>2026-04-28T11:22:46.999Z</time></trkpt><trkpt lat="43.67553532698484" lon="11.61927556303704"><ele>1408.6</ele><time>2026-04-28T11:22:47.999Z</time></trkpt><trkpt lat="43.67548882853604" lon="11.619439957752224"><ele>1409.0</ele><time>2026-04-28T11:22:49.999Z</time></trkpt><trkpt lat="43.67544643571028" lon="11.619560398140074"><ele>1409.0</ele><time>2026-04-28T11:22:50.999Z</time></trkpt><trkpt lat="43.67539358474467" lon="11.619693460498214"><ele>1409.0</ele><time>2026-04-28T11:22:51.999Z</time></trkpt><trkpt lat="43.67532341874922" lon="11.619814026784955"><ele>1409.0</ele><time>2026-04-28T11:22:52.999Z</time></trkpt><trkpt lat="43.6752547569388" lon="11.61993734200164"><ele>1409.0</ele><time>2026-04-28T11:22:53.999Z</time></trkpt><trkpt lat="43.67518273854776" lon="11.620051292557973"><ele>1409.0</ele><time>2026-04-28T11:22:54.999Z</time></trkpt><trkpt lat="43.67511290469236" lon="11.620157322272433"><ele>1410.6</ele><time>2026-04-28T11:22:55.999Z</time></trkpt><trkpt lat="43.67504165375065" lon="11.620259196825437"><ele>1412.2</ele><time>2026-04-28T11:22:56.999Z</time></trkpt><trkpt lat="43.6749720693916" lon="11.620354539690888"><ele>1413.8</ele><time>2026-04-28T11:22:57.999Z</time></trkpt><trkpt lat="43.67490178777961" lon="11.620425723497538"><ele>1415.3999999999999</ele><time>2026-04-28T11:22:58.999Z</time></trkpt><trkpt lat="43.67479386309977" lon="11.620504000482164"><ele>1417.0</ele><time>2026-04-28T11:23:00Z</time></trkpt><trkpt lat="43.67470135659579" lon="11.620572928579412"><ele>1417.8333333333333</ele><time>2026-04-28T11:23:01Z</time></trkpt><trkpt lat="43.67460356176328" lon="11.620638017803532"><ele>1418.6666666666665</ele><time>2026-04-28T11:23:02Z</time></trkpt><trkpt lat="43.674511502631525" lon="11.620666230615807"><ele>1419.5</ele><time>2026-04-28T11:23:03Z</time></trkpt><trkpt lat="43.67443293008745" lon="11.620702139120466"><ele>1420.3333333333333</ele><time>2026-04-28T11:23:04Z</time></trkpt><trkpt lat="43.67437310385798" lon="11.620735350339634"><ele>1421.1666666666667</ele><time>2026-04-28T11:23:05Z</time></trkpt><trkpt lat="43.67431012367431" lon="11.620771827217322"><ele>1422.0</ele><time>2026-04-28T11:23:06Z</time></trkpt><trkpt lat="43.67423117985934" lon="11.620797242291143"><ele>1425.1999999999998</ele><time>2026-04-28T11:23:07Z</time></trkpt><trkpt lat="43.67416011679346" lon="11.620816616023586"><ele>1428.4</ele><time>2026-04-28T11:23:08Z</time></trkpt><trkpt lat="43.674068643425436" lon="11.620866352588557"><ele>1431.6</ele><time>2026-04-28T11:23:09Z</time></trkpt><trkpt lat="43.67396753244436" lon="11.62092818957398"><ele>1434.8000000000002</ele><time>2026-04-28T11:23:10Z</time></trkpt><trkpt lat="43.67388293159212" lon="11.6209834199573"><ele>1438.0</ele><time>2026-04-28T11:23:11Z</time></trkpt><trkpt lat="43.67380768480016" lon="11.621023552739684"><ele>1438.0</ele><time>2026-04-28T11:23:12Z</time></trkpt><trkpt lat="43.673716651202206" lon="11.62107506284487"><ele>1438.0</ele><time>2026-04-28T11:23:13Z</time></trkpt><trkpt lat="43.67362447399845" lon="11.621114284646422"><ele>1438.0</ele><time>2026-04-28T11:23:14Z</time></trkpt><trkpt lat="43.673525623296364" lon="11.62117668069064"><ele>1438.0</ele><time>2026-04-28T11:23:15Z</time></trkpt><trkpt lat="43.673421743995554" lon="11.621246818999673"><ele>1438.0</ele><time>2026-04-28T11:23:16Z</time></trkpt><trkpt lat="43.67333043468351" lon="11.621319094183107"><ele>1438.2</ele><time>2026-04-28T11:23:17Z</time></trkpt><trkpt lat="43.67324496652154" lon="11.621376186485486"><ele>1438.4</ele><time>2026-04-28T11:23:18Z</time></trkpt><trkpt lat="43.673158283098495" lon="11.621431204416306"><ele>1438.6000000000001</ele><time>2026-04-28T11:23:19Z</time></trkpt><trkpt lat="43.67307467710201" lon="11.621487788008293"><ele>1438.8000000000002</ele><time>2026-04-28T11:23:20Z</time></trkpt><trkpt lat="43.672982699151476" lon="11.621532869775582"><ele>1439.0</ele><time>2026-04-28T11:23:21Z</time></trkpt><trkpt lat="43.67289052917643" lon="11.621589545705394"><ele>1439.0</ele><time>2026-04-28T11:23:22Z</time></trkpt><trkpt lat="43.67279503151281" lon="11.62163986324296"><ele>1439.0</ele><time>2026-04-28T11:23:23Z</time></trkpt><trkpt lat="43.67268810262969" lon="11.62168892432542"><ele>1439.0</ele><time>2026-04-28T11:23:24Z</time></trkpt><trkpt lat="43.67258733158367" lon="11.621743117772832"><ele>1439.0</ele><time>2026-04-28T11:23:25Z</time></trkpt><trkpt lat="43.67249822707632" lon="11.621809488137547"><ele>1439.0</ele><time>2026-04-28T11:23:26Z</time></trkpt><trkpt lat="43.67242457821255" lon="11.621899511110273"><ele>1440.6</ele><time>2026-04-28T11:23:27Z</time></trkpt><trkpt lat="43.67235690579998" lon="11.622012274242314"><ele>1442.2</ele><time>2026-04-28T11:23:28Z</time></trkpt><trkpt lat="43.67229235401061" lon="11.622130466412651"><ele>1443.8</ele><time>2026-04-28T11:23:29Z</time></trkpt><trkpt lat="43.672241810341845" lon="11.622254855021534"><ele>1445.3999999999999</ele><time>2026-04-28T11:23:30Z</time></trkpt><trkpt lat="43.67218998716827" lon="11.622372066552813"><ele>1447.0</ele><time>2026-04-28T11:23:31Z</time></trkpt><trkpt lat="43.67214609006383" lon="11.622465608252332"><ele>1447.0</ele><time>2026-04-28T11:23:32Z</time></trkpt><trkpt lat="43.67208846156339" lon="11.622550373711508"><ele>1447.0</ele><time>2026-04-28T11:23:33Z</time></trkpt><trkpt lat="43.672036128248855" lon="11.622627817045721"><ele>1447.0</ele><time>2026-04-28T11:23:34Z</time></trkpt><trkpt lat="43.671990182858494" lon="11.622693942437175"><ele>1447.0</ele><time>2026-04-28T11:23:35Z</time></trkpt><trkpt lat="43.67189485902087" lon="11.622782002181513"><ele>1447.0</ele><time>2026-04-28T11:23:37Z</time></trkpt><trkpt lat="43.67179891165736" lon="11.62284028529224"><ele>1447.0</ele><time>2026-04-28T11:23:39Z</time></trkpt><trkpt lat="43.67171665211017" lon="11.622902349906086"><ele>1447.6</ele><time>2026-04-28T11:23:41Z</time></trkpt><trkpt lat="43.67160882673854" lon="11.622962814773734"><ele>1448.1999999999998</ele><time>2026-04-28T11:23:43Z</time></trkpt><trkpt lat="43.67154555609988" lon="11.62298756022448"><ele>1448.8</ele><time>2026-04-28T11:23:44Z</time></trkpt><trkpt lat="43.671471994509226" lon="11.623023824484342"><ele>1449.4</ele><time>2026-04-28T11:23:45Z</time></trkpt><trkpt lat="43.6713838604538" lon="11.623071078658691"><ele>1450.0</ele><time>2026-04-28T11:23:46Z</time></trkpt><trkpt lat="43.671285929782655" lon="11.623107801775031"><ele>1450.0</ele><time>2026-04-28T11:23:47Z</time></trkpt><trkpt lat="43.671210902702" lon="11.623163052091494"><ele>1450.0</ele><time>2026-04-28T11:23:48Z</time></trkpt><trkpt lat="43.67112733157454" lon="11.623207215931602"><ele>1450.0</ele><time>2026-04-28T11:23:49Z</time></trkpt><trkpt lat="43.67104068036968" lon="11.623243590831567"><ele>1450.0</ele><time>2026-04-28T11:23:50Z</time></trkpt><trkpt lat="43.67095482088719" lon="11.623280394035053"><ele>1450.0</ele><time>2026-04-28T11:23:51Z</time></trkpt><trkpt lat="43.67086875324916" lon="11.623325017343598"><ele>1450.0</ele><time>2026-04-28T11:23:52Z</time></trkpt><trkpt lat="43.67078462458382" lon="11.623368228415089"><ele>1449.75</ele><time>2026-04-28T11:23:53Z</time></trkpt><trkpt lat="43.6706890901917" lon="11.623405418213569"><ele>1449.5</ele><time>2026-04-28T11:23:54Z</time></trkpt><trkpt lat="43.67056947991214" lon="11.623435759422708"><ele>1449.25</ele><time>2026-04-28T11:23:55Z</time></trkpt><trkpt lat="43.67043479560064" lon="11.623459823727089"><ele>1449.0</ele><time>2026-04-28T11:23:55.999Z</time></trkpt><trkpt lat="43.67031138009269" lon="11.623482717589877"><ele>1449.0</ele><time>2026-04-28T11:23:56.999Z</time></trkpt><trkpt lat="43.670196441283004" lon="11.6235004033532"><ele>1449.0</ele><time>2026-04-28T11:23:57.999Z</time></trkpt><trkpt lat="43.67006661883761" lon="11.623518451253007"><ele>1449.0</ele><time>2026-04-28T11:23:58.999Z</time></trkpt><trkpt lat="43.66993210783762" lon="11.623536541453191"><ele>1449.0</ele><time>2026-04-28T11:23:59.999Z</time></trkpt><trkpt lat="43.66980043353846" lon="11.623540298874275"><ele>1449.0</ele><time>2026-04-28T11:24:00.999Z</time></trkpt><trkpt lat="43.66967217038739" lon="11.623542469835309"><ele>1449.0</ele><time>2026-04-28T11:24:01.999Z</time></trkpt><trkpt lat="43.66954830901859" lon="11.623539560589496"><ele>1449.0</ele><time>2026-04-28T11:24:02.999Z</time></trkpt><trkpt lat="43.66943398991127" lon="11.623529107615646"><ele>1449.0</ele><time>2026-04-28T11:24:03.999Z</time></trkpt><trkpt lat="43.66932476950829" lon="11.623535743924927"><ele>1451.6</ele><time>2026-04-28T11:24:04.999Z</time></trkpt><trkpt lat="43.6692276301647" lon="11.623539822467174"><ele>1454.2</ele><time>2026-04-28T11:24:05.999Z</time></trkpt><trkpt lat="43.66913420183349" lon="11.62355859499092"><ele>1456.8</ele><time>2026-04-28T11:24:06.999Z</time></trkpt><trkpt lat="43.66904822416285" lon="11.623580411055125"><ele>1459.3999999999999</ele><time>2026-04-28T11:24:07.999Z</time></trkpt><trkpt lat="43.66896250873759" lon="11.623594519314128"><ele>1462.0</ele><time>2026-04-28T11:24:08.999Z</time></trkpt><trkpt lat="43.66887184182337" lon="11.623609708346628"><ele>1462.0</ele><time>2026-04-28T11:24:09.999Z</time></trkpt><trkpt lat="43.66877092646323" lon="11.623627037664503"><ele>1462.0</ele><time>2026-04-28T11:24:10.999Z</time></trkpt><trkpt lat="43.668680814331104" lon="11.62364336470235"><ele>1462.0</ele><time>2026-04-28T11:24:11.999Z</time></trkpt><trkpt lat="43.6685994007337" lon="11.623664459571174"><ele>1462.0</ele><time>2026-04-28T11:24:12.999Z</time></trkpt><trkpt lat="43.6685201516879" lon="11.623676827738601"><ele>1462.0</ele><time>2026-04-28T11:24:13.999Z</time></trkpt><trkpt lat="43.66843938885299" lon="11.623671791883003"><ele>1462.0</ele><time>2026-04-28T11:24:14.999Z</time></trkpt><trkpt lat="43.6683654504242" lon="11.62366669651366"><ele>1467.6</ele><time>2026-04-28T11:24:15.999Z</time></trkpt><trkpt lat="43.66828951824409" lon="11.623659027831696"><ele>1473.1999999999998</ele><time>2026-04-28T11:24:16.999Z</time></trkpt><trkpt lat="43.66820687970102" lon="11.62365209685956"><ele>1478.8</ele><time>2026-04-28T11:24:17.999Z</time></trkpt><trkpt lat="43.66811504589642" lon="11.623663574776453"><ele>1484.4</ele><time>2026-04-28T11:24:18.999Z</time></trkpt><trkpt lat="43.6680106573064" lon="11.623690155317043"><ele>1490.0</ele><time>2026-04-28T11:24:19.999Z</time></trkpt><trkpt lat="43.66789234666098" lon="11.623724706644834"><ele>1490.0</ele><time>2026-04-28T11:24:20.999Z</time></trkpt><trkpt lat="43.66780470320172" lon="11.623746550380524"><ele>1490.0</ele><time>2026-04-28T11:24:21.999Z</time></trkpt><trkpt lat="43.66772436712984" lon="11.623778941281405"><ele>1490.0</ele><time>2026-04-28T11:24:22.999Z</time></trkpt><trkpt lat="43.667637706444445" lon="11.623785191947276"><ele>1490.0</ele><time>2026-04-28T11:24:23.999Z</time></trkpt><trkpt lat="43.66748718593664" lon="11.623793612109695"><ele>1490.0</ele><time>2026-04-28T11:24:25.999Z</time></trkpt><trkpt lat="43.66741114632777" lon="11.62380882403059"><ele>1491.8333333333335</ele><time>2026-04-28T11:24:26.999Z</time></trkpt><trkpt lat="43.66733135032782" lon="11.623827081087777"><ele>1493.6666666666667</ele><time>2026-04-28T11:24:28.999Z</time></trkpt><trkpt lat="43.66740125163387" lon="11.6238534168208"><ele>1495.5</ele><time>2026-04-28T11:25:00.999Z</time></trkpt><trkpt lat="43.66746534539985" lon="11.623842017249107"><ele>1497.3333333333333</ele><time>2026-04-28T11:25:02.999Z</time></trkpt><trkpt lat="43.66754925760363" lon="11.623793718874587"><ele>1499.1666666666665</ele><time>2026-04-28T11:25:04.999Z</time></trkpt><trkpt lat="43.667641076877686" lon="11.623784939135774"><ele>1501.0</ele><time>2026-04-28T11:25:07Z</time></trkpt><trkpt lat="43.66773190338644" lon="11.62378436696467"><ele>1498.8</ele><time>2026-04-28T11:25:09Z</time></trkpt><trkpt lat="43.66782404178346" lon="11.623772702222372"><ele>1496.6</ele><time>2026-04-28T11:25:11Z</time></trkpt><trkpt lat="43.667913234018386" lon="11.6237370423367"><ele>1494.4</ele><time>2026-04-28T11:25:13Z</time></trkpt><trkpt lat="43.6680280412128" lon="11.623698851240208"><ele>1492.2</ele><time>2026-04-28T11:25:15Z</time></trkpt><trkpt lat="43.668126049755614" lon="11.62367835775672"><ele>1490.0</ele><time>2026-04-28T11:25:17Z</time></trkpt><trkpt lat="43.66823101140471" lon="11.623662389790347"><ele>1490.0</ele><time>2026-04-28T11:25:19Z</time></trkpt><trkpt lat="43.66833448884021" lon="11.623658214896635"><ele>1490.0</ele><time>2026-04-28T11:25:21Z</time></trkpt><trkpt lat="43.66842752562802" lon="11.623669077777203"><ele>1490.0</ele><time>2026-04-28T11:25:23Z</time></trkpt><trkpt lat="43.66852761958442" lon="11.623686972781709"><ele>1490.0</ele><time>2026-04-28T11:25:25Z</time></trkpt><trkpt lat="43.66864299104758" lon="11.623668069701854"><ele>1490.0</ele><time>2026-04-28T11:25:27Z</time></trkpt><trkpt lat="43.668705811825404" lon="11.623651776003278"><ele>1486.0</ele><time>2026-04-28T11:25:28Z</time></trkpt><trkpt lat="43.66877275703938" lon="11.62363699726678"><ele>1482.0</ele><time>2026-04-28T11:25:29Z</time></trkpt><trkpt lat="43.66884152491787" lon="11.623616319348896"><ele>1478.0</ele><time>2026-04-28T11:25:30Z</time></trkpt><trkpt lat="43.668914605616074" lon="11.623601031522814"><ele>1474.0</ele><time>2026-04-28T11:25:31Z</time></trkpt><trkpt lat="43.66898478989201" lon="11.623590128326155"><ele>1470.0</ele><time>2026-04-28T11:25:32Z</time></trkpt><trkpt lat="43.66905568890659" lon="11.62357656282724"><ele>1466.0</ele><time>2026-04-28T11:25:33Z</time></trkpt><trkpt lat="43.66912528936786" lon="11.623567627845116"><ele>1462.0</ele><time>2026-04-28T11:25:34Z</time></trkpt><trkpt lat="43.66918814546511" lon="11.623557479921093"><ele>1462.0</ele><time>2026-04-28T11:25:35Z</time></trkpt><trkpt lat="43.669255591047644" lon="11.623550104249091"><ele>1462.0</ele><time>2026-04-28T11:25:36Z</time></trkpt><trkpt lat="43.66938105475535" lon="11.623531342041954"><ele>1462.0</ele><time>2026-04-28T11:25:38Z</time></trkpt><trkpt lat="43.66949988682835" lon="11.623533161352482"><ele>1462.0</ele><time>2026-04-28T11:25:40Z</time></trkpt><trkpt lat="43.66963148319496" lon="11.623536242296732"><ele>1462.0</ele><time>2026-04-28T11:25:42Z</time></trkpt><trkpt lat="43.66971638763874" lon="11.623536138588515"><ele>1459.3999999999999</ele><time>2026-04-28T11:25:43Z</time></trkpt><trkpt lat="43.66981376177992" lon="11.623538478046736"><ele>1456.8</ele><time>2026-04-28T11:25:44Z</time></trkpt><trkpt lat="43.66992011427904" lon="11.623534274906813"><ele>1454.2</ele><time>2026-04-28T11:25:45Z</time></trkpt><trkpt lat="43.67001773137052" lon="11.623521337297822"><ele>1451.6</ele><time>2026-04-28T11:25:46Z</time></trkpt><trkpt lat="43.67010850775912" lon="11.62350988595955"><ele>1449.0</ele><time>2026-04-28T11:25:47Z</time></trkpt><trkpt lat="43.67020726862252" lon="11.623500809329723"><ele>1449.0</ele><time>2026-04-28T11:25:48Z</time></trkpt><trkpt lat="43.67030258933489" lon="11.623489960002582"><ele>1449.0</ele><time>2026-04-28T11:25:49Z</time></trkpt><trkpt lat="43.67039701467742" lon="11.623467643436204"><ele>1449.0</ele><time>2026-04-28T11:25:50Z</time></trkpt><trkpt lat="43.67049003727855" lon="11.623441290921807"><ele>1449.0</ele><time>2026-04-28T11:25:51Z</time></trkpt><trkpt lat="43.670583377720185" lon="11.62341873189276"><ele>1449.0</ele><time>2026-04-28T11:25:52Z</time></trkpt><trkpt lat="43.67067521689353" lon="11.623394839982524"><ele>1449.0</ele><time>2026-04-28T11:25:53Z</time></trkpt><trkpt lat="43.67075715704242" lon="11.623373610531031"><ele>1449.0</ele><time>2026-04-28T11:25:54Z</time></trkpt><trkpt lat="43.6708316762507" lon="11.623346206748035"><ele>1449.0</ele><time>2026-04-28T11:25:55Z</time></trkpt><trkpt lat="43.67090323170779" lon="11.623317372214812"><ele>1449.0</ele><time>2026-04-28T11:25:56Z</time></trkpt><trkpt lat="43.67096588074169" lon="11.623279855817547"><ele>1449.0</ele><time>2026-04-28T11:25:57Z</time></trkpt><trkpt lat="43.67102670796522" lon="11.623249060039239"><ele>1449.0</ele><time>2026-04-28T11:25:58Z</time></trkpt><trkpt lat="43.671124529468884" lon="11.623185086654079"><ele>1449.1666666666667</ele><time>2026-04-28T11:26:00Z</time></trkpt><trkpt lat="43.67117311905167" lon="11.623124239892075"><ele>1449.3333333333333</ele><time>2026-04-28T11:26:01.999Z</time></trkpt><trkpt lat="43.67123994689435" lon="11.623085218998943"><ele>1449.5</ele><time>2026-04-28T11:26:29.999Z</time></trkpt><trkpt lat="43.6713069050785" lon="11.623083828578528"><ele>1449.6666666666665</ele><time>2026-04-28T11:26:30.999Z</time></trkpt><trkpt lat="43.67139755163775" lon="11.623069662031048"><ele>1449.8333333333333</ele><time>2026-04-28T11:26:31.999Z</time></trkpt><trkpt lat="43.67149284781713" lon="11.623028063964961"><ele>1450.0</ele><time>2026-04-28T11:26:32.999Z</time></trkpt><trkpt lat="43.671560786176386" lon="11.622984164888175"><ele>1450.0</ele><time>2026-04-28T11:26:33.999Z</time></trkpt><trkpt lat="43.67163514982994" lon="11.622935684001082"><ele>1450.0</ele><time>2026-04-28T11:26:35.999Z</time></trkpt><trkpt lat="43.67169984147729" lon="11.622996453254393"><ele>1450.0</ele><time>2026-04-28T11:26:38.999Z</time></trkpt><trkpt lat="43.67170429021749" lon="11.623096808858055"><ele>1450.0</ele><time>2026-04-28T11:26:41.999Z</time></trkpt><trkpt lat="43.6716693328034" lon="11.62317423316543"><ele>1450.0</ele><time>2026-04-28T11:26:44.999Z</time></trkpt><trkpt lat="43.67158985303243" lon="11.623243323107971"><ele>1450.0</ele><time>2026-04-28T11:26:47.999Z</time></trkpt><trkpt lat="43.671488258335735" lon="11.623271565113964"><ele>1450.0</ele><time>2026-04-28T11:26:49.999Z</time></trkpt><trkpt lat="43.67142497861172" lon="11.623282646642902"><ele>1450.0</ele><time>2026-04-28T11:26:50.999Z</time></trkpt><trkpt lat="43.67135369597948" lon="11.623264154388453"><ele>1450.0</ele><time>2026-04-28T11:26:51.999Z</time></trkpt><trkpt lat="43.67128362423853" lon="11.623287892076572"><ele>1450.0</ele><time>2026-04-28T11:26:52.999Z</time></trkpt><trkpt lat="43.671198539540576" lon="11.623297437730917"><ele>1450.0</ele><time>2026-04-28T11:26:53.999Z</time></trkpt><trkpt lat="43.67113362582069" lon="11.623328827078643"><ele>1450.0</ele><time>2026-04-28T11:26:54.999Z</time></trkpt><trkpt lat="43.671063879848035" lon="11.623384960054608"><ele>1450.0</ele><time>2026-04-28T11:26:55.999Z</time></trkpt><trkpt lat="43.67099191984115" lon="11.623440289291029"><ele>1449.8</ele><time>2026-04-28T11:26:56.999Z</time></trkpt><trkpt lat="43.67090751464343" lon="11.62347797023711"><ele>1449.6</ele><time>2026-04-28T11:26:57.999Z</time></trkpt><trkpt lat="43.67080111528186" lon="11.623509960444633"><ele>1449.4</ele><time>2026-04-28T11:26:58.999Z</time></trkpt><trkpt lat="43.67073136006596" lon="11.623564294997463"><ele>1449.2</ele><time>2026-04-28T11:26:59.999Z</time></trkpt><trkpt lat="43.670624435785655" lon="11.623592910887938"><ele>1449.0</ele><time>2026-04-28T11:27:00.999Z</time></trkpt><trkpt lat="43.67053979293425" lon="11.623638968921272"><ele>1449.2</ele><time>2026-04-28T11:27:01.999Z</time></trkpt><trkpt lat="43.67046721133579" lon="11.623657398025506"><ele>1449.4</ele><time>2026-04-28T11:27:02.999Z</time></trkpt><trkpt lat="43.67038254759136" lon="11.623660045664307"><ele>1449.6</ele><time>2026-04-28T11:27:03.999Z</time></trkpt><trkpt lat="43.67027649336227" lon="11.623660074190541"><ele>1449.8</ele><time>2026-04-28T11:27:04.999Z</time></trkpt><trkpt lat="43.67014904162799" lon="11.623671581387786"><ele>1450.0</ele><time>2026-04-28T11:27:05.999Z</time></trkpt><trkpt lat="43.67001391653887" lon="11.623695040332521"><ele>1450.0</ele><time>2026-04-28T11:27:06.999Z</time></trkpt><trkpt lat="43.669902006781925" lon="11.623716432039496"><ele>1450.0</ele><time>2026-04-28T11:27:07.999Z</time></trkpt><trkpt lat="43.669810333142685" lon="11.623695376629948"><ele>1450.0</ele><time>2026-04-28T11:27:08.999Z</time></trkpt><trkpt lat="43.66974936040045" lon="11.6237388647281"><ele>1450.0</ele><time>2026-04-28T11:27:09.999Z</time></trkpt><trkpt lat="43.66966543770112" lon="11.6237675535336"><ele>1450.0</ele><time>2026-04-28T11:27:10.999Z</time></trkpt><trkpt lat="43.66957665073734" lon="11.62380013805433"><ele>1450.0</ele><time>2026-04-28T11:27:12Z</time></trkpt><trkpt lat="43.66949299781142" lon="11.623831675102677"><ele>1450.0</ele><time>2026-04-28T11:27:13Z</time></trkpt><trkpt lat="43.66940802538641" lon="11.623868313097955"><ele>1450.0</ele><time>2026-04-28T11:27:14Z</time></trkpt><trkpt lat="43.669335891931375" lon="11.62391839217773"><ele>1450.0</ele><time>2026-04-28T11:27:15Z</time></trkpt><trkpt lat="43.669279019352885" lon="11.623980371049138"><ele>1450.0</ele><time>2026-04-28T11:27:16Z</time></trkpt><trkpt lat="43.66922800055288" lon="11.624036058276635"><ele>1450.0</ele><time>2026-04-28T11:27:17Z</time></trkpt><trkpt lat="43.66916070054851" lon="11.624066784500142"><ele>1453.8</ele><time>2026-04-28T11:27:19Z</time></trkpt><trkpt lat="43.669065446497115" lon="11.62413501932837"><ele>1457.6</ele><time>2026-04-28T11:27:21Z</time></trkpt><trkpt lat="43.66902957850572" lon="11.62427192829306"><ele>1461.4</ele><time>2026-04-28T11:27:23Z</time></trkpt><trkpt lat="43.66900585909612" lon="11.624359481348048"><ele>1465.2</ele><time>2026-04-28T11:27:24Z</time></trkpt><trkpt lat="43.66900128785647" lon="11.624534661712502"><ele>1469.0</ele><time>2026-04-28T11:27:26Z</time></trkpt><trkpt lat="43.66902865968404" lon="11.624650485720661"><ele>1469.0</ele><time>2026-04-28T11:27:27Z</time></trkpt><trkpt lat="43.669042401154314" lon="11.624761594908936"><ele>1469.0</ele><time>2026-04-28T11:27:29Z</time></trkpt><trkpt lat="43.669002395560995" lon="11.624838953248405"><ele>1469.0</ele><time>2026-04-28T11:27:30Z</time></trkpt><trkpt lat="43.668941355138365" lon="11.624911044267265"><ele>1469.0</ele><time>2026-04-28T11:27:32Z</time></trkpt><trkpt lat="43.66887241887609" lon="11.625034569166141"><ele>1469.0</ele><time>2026-04-28T11:27:33Z</time></trkpt><trkpt lat="43.668808776662544" lon="11.625104846589522"><ele>1469.0</ele><time>2026-04-28T11:27:34Z</time></trkpt><trkpt lat="43.66874659056116" lon="11.625168758994873"><ele>1469.0</ele><time>2026-04-28T11:27:35Z</time></trkpt><trkpt lat="43.66868005105378" lon="11.625249682460113"><ele>1469.0</ele><time>2026-04-28T11:27:36Z</time></trkpt><trkpt lat="43.6686230764644" lon="11.625317269432216"><ele>1469.0</ele><time>2026-04-28T11:27:37Z</time></trkpt><trkpt lat="43.66857210021175" lon="11.625373809206687"><ele>1469.0</ele><time>2026-04-28T11:27:38Z</time></trkpt><trkpt lat="43.66850602047703" lon="11.625420024362406"><ele>1469.0</ele><time>2026-04-28T11:27:39Z</time></trkpt><trkpt lat="43.66843692095657" lon="11.62545135280027"><ele>1469.0</ele><time>2026-04-28T11:27:40Z</time></trkpt><trkpt lat="43.668373178395235" lon="11.625484509891166"><ele>1469.0</ele><time>2026-04-28T11:27:41Z</time></trkpt><trkpt lat="43.66829935042268" lon="11.62551697205415"><ele>1467.6666666666667</ele><time>2026-04-28T11:27:42Z</time></trkpt><trkpt lat="43.6682179132895" lon="11.625559675665919"><ele>1466.3333333333335</ele><time>2026-04-28T11:27:43Z</time></trkpt><trkpt lat="43.66813238693087" lon="11.625621543889581"><ele>1465.0</ele><time>2026-04-28T11:27:44Z</time></trkpt><trkpt lat="43.66804651255749" lon="11.625703591343413"><ele>1463.6666666666667</ele><time>2026-04-28T11:27:45Z</time></trkpt><trkpt lat="43.66797854184388" lon="11.625774909910378"><ele>1462.3333333333333</ele><time>2026-04-28T11:27:46Z</time></trkpt><trkpt lat="43.66792371389024" lon="11.625846061171627"><ele>1461.0</ele><time>2026-04-28T11:27:47Z</time></trkpt><trkpt lat="43.66787649355174" lon="11.625964603606942"><ele>1461.0</ele><time>2026-04-28T11:27:49Z</time></trkpt><trkpt lat="43.66784322656847" lon="11.626047702703946"><ele>1461.0</ele><time>2026-04-28T11:27:51Z</time></trkpt><trkpt lat="43.667779123130586" lon="11.62616072953757"><ele>1461.0</ele><time>2026-04-28T11:27:53Z</time></trkpt><trkpt lat="43.66771000537138" lon="11.626238497945725"><ele>1461.0</ele><time>2026-04-28T11:27:55Z</time></trkpt><trkpt lat="43.667644191255036" lon="11.626294880709137"><ele>1461.0</ele><time>2026-04-28T11:27:56Z</time></trkpt><trkpt lat="43.667584426623975" lon="11.626350511615163"><ele>1461.0</ele><time>2026-04-28T11:27:57Z</time></trkpt><trkpt lat="43.66752134383965" lon="11.626398189714546"><ele>1460.0</ele><time>2026-04-28T11:27:58Z</time></trkpt><trkpt lat="43.66743237108486" lon="11.62647413039725"><ele>1459.0</ele><time>2026-04-28T11:28:00Z</time></trkpt><trkpt lat="43.66738157088671" lon="11.626554541081704"><ele>1458.0</ele><time>2026-04-28T11:28:02Z</time></trkpt><trkpt lat="43.66734527031772" lon="11.626632800025183"><ele>1457.0</ele><time>2026-04-28T11:28:06Z</time></trkpt><trkpt lat="43.667295577643124" lon="11.626720294155835"><ele>1456.0</ele><time>2026-04-28T11:28:10Z</time></trkpt><trkpt lat="43.66724751341359" lon="11.626777247665332"><ele>1455.0</ele><time>2026-04-28T11:28:11.999Z</time></trkpt><trkpt lat="43.66719376704324" lon="11.626828456442674"><ele>1455.0</ele><time>2026-04-28T11:28:13.999Z</time></trkpt><trkpt lat="43.667029547129246" lon="11.626875895404334"><ele>1455.0</ele><time>2026-04-28T11:28:16.999Z</time></trkpt><trkpt lat="43.66694768365422" lon="11.626899179511758"><ele>1455.0</ele><time>2026-04-28T11:28:17.999Z</time></trkpt><trkpt lat="43.666870488774435" lon="11.626942111425027"><ele>1455.0</ele><time>2026-04-28T11:28:18.999Z</time></trkpt><trkpt lat="43.66682340119129" lon="11.627005954238845"><ele>1455.0</ele><time>2026-04-28T11:28:19.999Z</time></trkpt><trkpt lat="43.66677550821553" lon="11.62706344326688"><ele>1453.0</ele><time>2026-04-28T11:28:20.999Z</time></trkpt><trkpt lat="43.666688619609815" lon="11.627120172637108"><ele>1451.0</ele><time>2026-04-28T11:28:22.999Z</time></trkpt><trkpt lat="43.66661151082077" lon="11.627181264481788"><ele>1449.0</ele><time>2026-04-28T11:28:23.999Z</time></trkpt><trkpt lat="43.666500159036175" lon="11.62725151236635"><ele>1447.0</ele><time>2026-04-28T11:28:25.999Z</time></trkpt><trkpt lat="43.666442166109725" lon="11.627313430493826"><ele>1445.0</ele><time>2026-04-28T11:28:26.999Z</time></trkpt><trkpt lat="43.66636436927332" lon="11.627421903363919"><ele>1445.0</ele><time>2026-04-28T11:28:28.999Z</time></trkpt><trkpt lat="43.66626483617772" lon="11.627513256901915"><ele>1445.0</ele><time>2026-04-28T11:28:30.999Z</time></trkpt><trkpt lat="43.6661667450107" lon="11.627616420416556"><ele>1445.0</ele><time>2026-04-28T11:28:32.999Z</time></trkpt><trkpt lat="43.66607566563447" lon="11.627692145169826"><ele>1445.0</ele><time>2026-04-28T11:28:34.999Z</time></trkpt><trkpt lat="43.66603894374192" lon="11.627776827464398"><ele>1445.0</ele><time>2026-04-28T11:28:45.999Z</time></trkpt><trkpt lat="43.66599603669296" lon="11.627869507167228"><ele>1444.6</ele><time>2026-04-28T11:28:46.999Z</time></trkpt><trkpt lat="43.665976332081804" lon="11.628035860026609"><ele>1444.2</ele><time>2026-04-28T11:28:48.999Z</time></trkpt><trkpt lat="43.66597197692804" lon="11.628127965201568"><ele>1443.8000000000002</ele><time>2026-04-28T11:28:49.999Z</time></trkpt><trkpt lat="43.66593008573008" lon="11.628285229396495"><ele>1443.4</ele><time>2026-04-28T11:28:51.999Z</time></trkpt><trkpt lat="43.665896724899106" lon="11.628470404641398"><ele>1443.0</ele><time>2026-04-28T11:28:53.999Z</time></trkpt><trkpt lat="43.66590432512166" lon="11.628580642868895"><ele>1444.4</ele><time>2026-04-28T11:28:55.999Z</time></trkpt><trkpt lat="43.66587066419965" lon="11.628684443307838"><ele>1445.8000000000002</ele><time>2026-04-28T11:28:57.999Z</time></trkpt><trkpt lat="43.665833857358585" lon="11.628833729851955"><ele>1447.2</ele><time>2026-04-28T11:28:59.999Z</time></trkpt><trkpt lat="43.66582869635288" lon="11.628961064227331"><ele>1448.6</ele><time>2026-04-28T11:29:01.999Z</time></trkpt><trkpt lat="43.66580013135425" lon="11.629091817107367"><ele>1450.0</ele><time>2026-04-28T11:29:03.999Z</time></trkpt><trkpt lat="43.66578096695473" lon="11.629280655760404"><ele>1450.0</ele><time>2026-04-28T11:29:05.999Z</time></trkpt><trkpt lat="43.665796896555435" lon="11.629389184474404"><ele>1450.0</ele><time>2026-04-28T11:29:06.999Z</time></trkpt><trkpt lat="43.66581240880294" lon="11.629530939501322"><ele>1450.0</ele><time>2026-04-28T11:29:08.999Z</time></trkpt><trkpt lat="43.66578565664516" lon="11.629674033535471"><ele>1450.0</ele><time>2026-04-28T11:29:10.999Z</time></trkpt><trkpt lat="43.66577514838846" lon="11.629824273721963"><ele>1450.0</ele><time>2026-04-28T11:29:12.999Z</time></trkpt><trkpt lat="43.665785695656226" lon="11.629963471872168"><ele>1450.8333333333333</ele><time>2026-04-28T11:29:15.999Z</time></trkpt><trkpt lat="43.66578515933284" lon="11.630073405261935"><ele>1451.6666666666665</ele><time>2026-04-28T11:29:16.999Z</time></trkpt><trkpt lat="43.66576264876588" lon="11.630195455488192"><ele>1452.5</ele><time>2026-04-28T11:29:19Z</time></trkpt><trkpt lat="43.6657947412224" lon="11.630342684694083"><ele>1453.3333333333333</ele><time>2026-04-28T11:29:21Z</time></trkpt><trkpt lat="43.665782998510984" lon="11.630453213021998"><ele>1454.1666666666667</ele><time>2026-04-28T11:29:23Z</time></trkpt><trkpt lat="43.66573922028757" lon="11.630534535726081"><ele>1455.0</ele><time>2026-04-28T11:29:25Z</time></trkpt><trkpt lat="43.66569653421351" lon="11.63066123442454"><ele>1455.6</ele><time>2026-04-28T11:29:27Z</time></trkpt><trkpt lat="43.66565407819674" lon="11.630779752336213"><ele>1456.2</ele><time>2026-04-28T11:29:29Z</time></trkpt><trkpt lat="43.66561725891097" lon="11.63087922790328"><ele>1456.8000000000002</ele><time>2026-04-28T11:29:31Z</time></trkpt><trkpt lat="43.66560175717641" lon="11.630996371648475"><ele>1457.4</ele><time>2026-04-28T11:29:40Z</time></trkpt><trkpt lat="43.66558360522443" lon="11.631169755039181"><ele>1458.0</ele><time>2026-04-28T11:29:42Z</time></trkpt><trkpt lat="43.665613815142414" lon="11.63129371215045"><ele>1459.3333333333333</ele><time>2026-04-28T11:29:44Z</time></trkpt><trkpt lat="43.66564648771597" lon="11.631410141894548"><ele>1460.6666666666667</ele><time>2026-04-28T11:29:46Z</time></trkpt><trkpt lat="43.66569207104542" lon="11.631524072961048"><ele>1462.0</ele><time>2026-04-28T11:29:48Z</time></trkpt><trkpt lat="43.665726478190216" lon="11.63162051014875"><ele>1463.3333333333335</ele><time>2026-04-28T11:29:50Z</time></trkpt><trkpt lat="43.665779198701266" lon="11.631736687441576"><ele>1464.6666666666667</ele><time>2026-04-28T11:29:52Z</time></trkpt><trkpt lat="43.66584204606655" lon="11.631809215267467"><ele>1466.0</ele><time>2026-04-28T11:29:54Z</time></trkpt><trkpt lat="43.665907221609" lon="11.63186244239614"><ele>1466.0</ele><time>2026-04-28T11:30:12.999Z</time></trkpt><trkpt lat="43.66584196665481" lon="11.631910039128384"><ele>1466.0</ele><time>2026-04-28T11:30:17.999Z</time></trkpt><trkpt lat="43.66584573820874" lon="11.632006948991872"><ele>1466.0</ele><time>2026-04-28T11:30:52.999Z</time></trkpt><trkpt lat="43.665913519985736" lon="11.632041171604296"><ele>1466.0</ele><time>2026-04-28T11:31:43Z</time></trkpt><trkpt lat="43.66594951517328" lon="11.6321176705227"><ele>1466.0</ele><time>2026-04-28T11:32:08Z</time></trkpt><trkpt lat="43.66600362012104" lon="11.632275549855834"><ele>1466.0</ele><time>2026-04-28T11:34:06Z</time></trkpt><trkpt lat="43.66605070121956" lon="11.63233416545763"><ele>1467.5</ele><time>2026-04-28T11:34:18Z</time></trkpt><trkpt lat="43.66608816751955" lon="11.632426955781948"><ele>1469.0</ele><time>2026-04-28T11:34:22Z</time></trkpt><trkpt lat="43.66613503183055" lon="11.632522459381724"><ele>1470.5</ele><time>2026-04-28T11:34:24.999Z</time></trkpt><trkpt lat="43.66614339099681" lon="11.632619973383017"><ele>1472.0</ele><time>2026-04-28T11:34:26.999Z</time></trkpt><trkpt lat="43.66615614365907" lon="11.63276176326755"><ele>1473.5</ele><time>2026-04-28T11:34:30.999Z</time></trkpt><trkpt lat="43.66615246542122" lon="11.632872758570517"><ele>1475.0</ele><time>2026-04-28T11:34:34.999Z</time></trkpt><trkpt lat="43.66614116320289" lon="11.633001735864612"><ele>1474.8333333333335</ele><time>2026-04-28T11:34:37.999Z</time></trkpt><trkpt lat="43.66613696308137" lon="11.633102586278532"><ele>1474.6666666666667</ele><time>2026-04-28T11:34:38.999Z</time></trkpt><trkpt lat="43.66612874254043" lon="11.633204836719356"><ele>1474.5</ele><time>2026-04-28T11:34:41.999Z</time></trkpt><trkpt lat="43.66612735924587" lon="11.633329967797764"><ele>1474.3333333333333</ele><time>2026-04-28T11:34:44.999Z</time></trkpt><trkpt lat="43.666112852048684" lon="11.633458762142594"><ele>1474.1666666666665</ele><time>2026-04-28T11:34:47.999Z</time></trkpt><trkpt lat="43.666100057598925" lon="11.633551464517014"><ele>1474.0</ele><time>2026-04-28T11:34:48.999Z</time></trkpt><trkpt lat="43.6660886922326" lon="11.633644159706773"><ele>1473.0000000000002</ele><time>2026-04-28T11:34:50.999Z</time></trkpt><trkpt lat="43.6660754160156" lon="11.633744614393356"><ele>1472.0</ele><time>2026-04-28T11:34:52.999Z</time></trkpt><trkpt lat="43.6660565875108" lon="11.633840406837257"><ele>1471.0</ele><time>2026-04-28T11:35:00.999Z</time></trkpt><trkpt lat="43.666032465750625" lon="11.633929280450634"><ele>1470.0</ele><time>2026-04-28T11:35:02.999Z</time></trkpt><trkpt lat="43.66602466453716" lon="11.634028312546162"><ele>1469.0</ele><time>2026-04-28T11:35:04.999Z</time></trkpt><trkpt lat="43.66602642265849" lon="11.634136676437544"><ele>1468.0000000000002</ele><time>2026-04-28T11:35:11.999Z</time></trkpt><trkpt lat="43.66602149815053" lon="11.634245286311875"><ele>1467.0</ele><time>2026-04-28T11:35:14.999Z</time></trkpt><trkpt lat="43.66602142970893" lon="11.634347911575862"><ele>1467.0</ele><time>2026-04-28T11:35:20.999Z</time></trkpt><trkpt lat="43.6660357924633" lon="11.63444836115394"><ele>1467.0</ele><time>2026-04-28T11:35:28.999Z</time></trkpt><trkpt lat="43.666063613814345" lon="11.634557379538084"><ele>1467.0</ele><time>2026-04-28T11:35:30.999Z</time></trkpt><trkpt lat="43.666099323789695" lon="11.634694340089231"><ele>1467.0</ele><time>2026-04-28T11:35:33.999Z</time></trkpt><trkpt lat="43.66612452566083" lon="11.634787009055506"><ele>1467.0</ele><time>2026-04-28T11:35:37Z</time></trkpt><trkpt lat="43.66612013468973" lon="11.634913311513516"><ele>1467.0</ele><time>2026-04-28T11:35:40Z</time></trkpt><trkpt lat="43.66613515870918" lon="11.635001093595012"><ele>1466.8333333333333</ele><time>2026-04-28T11:35:43Z</time></trkpt><trkpt lat="43.666159193023425" lon="11.635123916231622"><ele>1466.6666666666667</ele><time>2026-04-28T11:35:47Z</time></trkpt><trkpt lat="43.66618437317235" lon="11.635219806285074"><ele>1466.5</ele><time>2026-04-28T11:35:48Z</time></trkpt><trkpt lat="43.66617599254593" lon="11.635379410842352"><ele>1466.3333333333335</ele><time>2026-04-28T11:35:50Z</time></trkpt><trkpt lat="43.66615733486337" lon="11.635492036683099"><ele>1466.1666666666667</ele><time>2026-04-28T11:35:52Z</time></trkpt><trkpt lat="43.66613216540247" lon="11.635582807553174"><ele>1466.0</ele><time>2026-04-28T11:35:54Z</time></trkpt><trkpt lat="43.66609734437911" lon="11.635659253850264"><ele>1465.9999999999998</ele><time>2026-04-28T11:35:55Z</time></trkpt><trkpt lat="43.66605450663655" lon="11.635747629886659"><ele>1466.0</ele><time>2026-04-28T11:35:56Z</time></trkpt><trkpt lat="43.66604138042257" lon="11.63584837940934"><ele>1466.0</ele><time>2026-04-28T11:35:58Z</time></trkpt><trkpt lat="43.6660399205373" lon="11.63593779397048"><ele>1466.0</ele><time>2026-04-28T11:36:00Z</time></trkpt><trkpt lat="43.666001348577" lon="11.636059917894363"><ele>1466.0</ele><time>2026-04-28T11:36:02Z</time></trkpt><trkpt lat="43.666006793492365" lon="11.636153921844292"><ele>1465.9999999999998</ele><time>2026-04-28T11:36:03Z</time></trkpt><trkpt lat="43.66602236290391" lon="11.636239908838524"><ele>1466.0</ele><time>2026-04-28T11:36:04Z</time></trkpt><trkpt lat="43.666045103812934" lon="11.63638421734298"><ele>1467.4</ele><time>2026-04-28T11:36:06Z</time></trkpt><trkpt lat="43.66606243258645" lon="11.636604609882536"><ele>1468.8</ele><time>2026-04-28T11:36:09Z</time></trkpt><trkpt lat="43.66606878663026" lon="11.63672139668008"><ele>1470.2</ele><time>2026-04-28T11:36:11Z</time></trkpt><trkpt lat="43.66605386226497" lon="11.636858382966286"><ele>1471.6000000000001</ele><time>2026-04-28T11:36:13Z</time></trkpt><trkpt lat="43.66605861457023" lon="11.63698193051906"><ele>1473.0</ele><time>2026-04-28T11:36:15Z</time></trkpt><trkpt lat="43.66605902696427" lon="11.637102225165256"><ele>1474.1666666666667</ele><time>2026-04-28T11:36:16Z</time></trkpt><trkpt lat="43.66605227880059" lon="11.637235066054114"><ele>1475.3333333333333</ele><time>2026-04-28T11:36:18Z</time></trkpt><trkpt lat="43.666028100436165" lon="11.637323498413506"><ele>1476.5</ele><time>2026-04-28T11:36:20Z</time></trkpt><trkpt lat="43.66602257798777" lon="11.637424713449162"><ele>1477.6666666666665</ele><time>2026-04-28T11:36:22Z</time></trkpt><trkpt lat="43.66605404309162" lon="11.637544363739705"><ele>1478.8333333333333</ele><time>2026-04-28T11:36:24Z</time></trkpt><trkpt lat="43.66607721407381" lon="11.637682368281183"><ele>1480.0</ele><time>2026-04-28T11:36:26Z</time></trkpt><trkpt lat="43.66608158862196" lon="11.63779722244736"><ele>1480.0</ele><time>2026-04-28T11:36:28Z</time></trkpt><trkpt lat="43.66607576961394" lon="11.637898364360654"><ele>1480.0</ele><time>2026-04-28T11:36:29.999Z</time></trkpt><trkpt lat="43.66608333310576" lon="11.638010676072478"><ele>1480.0</ele><time>2026-04-28T11:36:32.999Z</time></trkpt><trkpt lat="43.666106753403255" lon="11.638108705834446"><ele>1480.0</ele><time>2026-04-28T11:36:34.999Z</time></trkpt><trkpt lat="43.66612112449432" lon="11.638214728482504"><ele>1480.0</ele><time>2026-04-28T11:36:37.999Z</time></trkpt><trkpt lat="43.666121493924095" lon="11.638374487154207"><ele>1480.0</ele><time>2026-04-28T11:36:39.999Z</time></trkpt><trkpt lat="43.6660959225124" lon="11.638480656774135"><ele>1480.0</ele><time>2026-04-28T11:36:43.999Z</time></trkpt><trkpt lat="43.66606993259616" lon="11.638591298757069"><ele>1480.0</ele><time>2026-04-28T11:36:45.999Z</time></trkpt><trkpt lat="43.66600804701431" lon="11.638647534245939"><ele>1480.0</ele><time>2026-04-28T11:36:47.999Z</time></trkpt><trkpt lat="43.66592320999741" lon="11.638705369927461"><ele>1480.0</ele><time>2026-04-28T11:36:50.999Z</time></trkpt><trkpt lat="43.66583857439938" lon="11.638739136375875"><ele>1480.0</ele><time>2026-04-28T11:37:45Z</time></trkpt><trkpt lat="43.66574501233817" lon="11.638737703892712"><ele>1480.0</ele><time>2026-04-28T11:37:47Z</time></trkpt><trkpt lat="43.665645954669095" lon="11.63875087016322"><ele>1478.5</ele><time>2026-04-28T11:37:49Z</time></trkpt><trkpt lat="43.66554782862259" lon="11.638791363101959"><ele>1477.0</ele><time>2026-04-28T11:37:51Z</time></trkpt><trkpt lat="43.66546229542075" lon="11.638817254106174"><ele>1475.5</ele><time>2026-04-28T11:37:53Z</time></trkpt><trkpt lat="43.66537942683443" lon="11.638795453801267"><ele>1474.0</ele><time>2026-04-28T11:37:55Z</time></trkpt><trkpt lat="43.66529883037169" lon="11.638777161862647"><ele>1472.5</ele><time>2026-04-28T11:37:57Z</time></trkpt><trkpt lat="43.66522935859043" lon="11.638756864948382"><ele>1471.0</ele><time>2026-04-28T11:37:59Z</time></trkpt><trkpt lat="43.66516081736573" lon="11.638771970771264"><ele>1471.0</ele><time>2026-04-28T11:38:01Z</time></trkpt><trkpt lat="43.665082140337105" lon="11.63881074188314"><ele>1471.0</ele><time>2026-04-28T11:38:04Z</time></trkpt><trkpt lat="43.66498431378779" lon="11.638845267123019"><ele>1471.0</ele><time>2026-04-28T11:38:06Z</time></trkpt><trkpt lat="43.664915934795104" lon="11.638871122303595"><ele>1471.0</ele><time>2026-04-28T11:38:07Z</time></trkpt><trkpt lat="43.66480863195379" lon="11.638907856442676"><ele>1471.0</ele><time>2026-04-28T11:38:09Z</time></trkpt><trkpt lat="43.664723707955275" lon="11.63895506586703"><ele>1471.0</ele><time>2026-04-28T11:38:11Z</time></trkpt><trkpt lat="43.66463839351118" lon="11.639027931241298"><ele>1471.0</ele><time>2026-04-28T11:38:13Z</time></trkpt><trkpt lat="43.66456406958193" lon="11.639093248901219"><ele>1471.0</ele><time>2026-04-28T11:38:15Z</time></trkpt><trkpt lat="43.664486545343784" lon="11.639206325916476"><ele>1471.0</ele><time>2026-04-28T11:38:17Z</time></trkpt><trkpt lat="43.66443762426107" lon="11.639316597577395"><ele>1471.0</ele><time>2026-04-28T11:38:19Z</time></trkpt><trkpt lat="43.66438576163324" lon="11.639402517446248"><ele>1470.1666666666665</ele><time>2026-04-28T11:38:21Z</time></trkpt><trkpt lat="43.664345271571214" lon="11.639500990713444"><ele>1469.3333333333333</ele><time>2026-04-28T11:38:23Z</time></trkpt><trkpt lat="43.66430264463444" lon="11.639636073190031"><ele>1468.5</ele><time>2026-04-28T11:38:25Z</time></trkpt><trkpt lat="43.664279672008405" lon="11.639736144414384"><ele>1467.6666666666667</ele><time>2026-04-28T11:38:27Z</time></trkpt><trkpt lat="43.66425828924253" lon="11.639829112603636"><ele>1466.8333333333335</ele><time>2026-04-28T11:38:29Z</time></trkpt><trkpt lat="43.66423098825316" lon="11.63993201439686"><ele>1466.0</ele><time>2026-04-28T11:38:31Z</time></trkpt><trkpt lat="43.664203345789524" lon="11.64003380350524"><ele>1466.0</ele><time>2026-04-28T11:38:33Z</time></trkpt><trkpt lat="43.66415984633838" lon="11.640150224593983"><ele>1466.0</ele><time>2026-04-28T11:38:35.999Z</time></trkpt><trkpt lat="43.66413207167627" lon="11.640245611645124"><ele>1466.0</ele><time>2026-04-28T11:38:37.999Z</time></trkpt><trkpt lat="43.664107045951994" lon="11.640413601816553"><ele>1466.0</ele><time>2026-04-28T11:38:39.999Z</time></trkpt><trkpt lat="43.66411949655607" lon="11.640529745300745"><ele>1466.0</ele><time>2026-04-28T11:38:41.999Z</time></trkpt><trkpt lat="43.66411082110484" lon="11.640673304811951"><ele>1462.4</ele><time>2026-04-28T11:38:43.999Z</time></trkpt><trkpt lat="43.66404987613801" lon="11.64085009457936"><ele>1458.8</ele><time>2026-04-28T11:38:45.999Z</time></trkpt><trkpt lat="43.664009292992596" lon="11.640985107134018"><ele>1455.2</ele><time>2026-04-28T11:38:46.999Z</time></trkpt><trkpt lat="43.66398248413439" lon="11.641112816184204"><ele>1451.6000000000001</ele><time>2026-04-28T11:38:47.999Z</time></trkpt><trkpt lat="43.66395884195059" lon="11.64123887746644"><ele>1448.0</ele><time>2026-04-28T11:38:48.999Z</time></trkpt><trkpt lat="43.663920508377714" lon="11.641351470283775"><ele>1447.8000000000002</ele><time>2026-04-28T11:38:49.999Z</time></trkpt><trkpt lat="43.663879571651016" lon="11.641468638568373"><ele>1447.6</ele><time>2026-04-28T11:38:50.999Z</time></trkpt><trkpt lat="43.66382482426941" lon="11.641600268311791"><ele>1447.4</ele><time>2026-04-28T11:38:51.999Z</time></trkpt><trkpt lat="43.66376685797028" lon="11.641723647245474"><ele>1447.1999999999998</ele><time>2026-04-28T11:38:52.999Z</time></trkpt><trkpt lat="43.66371858153941" lon="11.64182715272059"><ele>1447.0</ele><time>2026-04-28T11:38:53.999Z</time></trkpt><trkpt lat="43.66367802839207" lon="11.641917162208099"><ele>1447.6666666666665</ele><time>2026-04-28T11:38:54.999Z</time></trkpt><trkpt lat="43.66364307901309" lon="11.641989768973557"><ele>1448.3333333333333</ele><time>2026-04-28T11:38:55.999Z</time></trkpt><trkpt lat="43.66356862133904" lon="11.642102220582018"><ele>1449.0</ele><time>2026-04-28T11:38:57.999Z</time></trkpt><trkpt lat="43.6635189412996" lon="11.64216126367105"><ele>1449.6666666666667</ele><time>2026-04-28T11:38:59.999Z</time></trkpt><trkpt lat="43.663459132548006" lon="11.642285708528997"><ele>1450.3333333333335</ele><time>2026-04-28T11:39:08.999Z</time></trkpt><trkpt lat="43.663410786833154" lon="11.642389547522015"><ele>1451.0</ele><time>2026-04-28T11:39:09.999Z</time></trkpt><trkpt lat="43.66335641186453" lon="11.642515863439439"><ele>1451.0</ele><time>2026-04-28T11:39:10.999Z</time></trkpt><trkpt lat="43.663294011532116" lon="11.642659606539699"><ele>1451.0</ele><time>2026-04-28T11:39:11.999Z</time></trkpt><trkpt lat="43.6632355413516" lon="11.642824883049807"><ele>1451.0</ele><time>2026-04-28T11:39:12.999Z</time></trkpt><trkpt lat="43.663186076689165" lon="11.642988640227985"><ele>1451.0</ele><time>2026-04-28T11:39:13.999Z</time></trkpt><trkpt lat="43.66314807806375" lon="11.643127171450303"><ele>1452.6</ele><time>2026-04-28T11:39:14.999Z</time></trkpt><trkpt lat="43.66311669865251" lon="11.643246605539108"><ele>1454.1999999999998</ele><time>2026-04-28T11:39:15.999Z</time></trkpt><trkpt lat="43.663084632496755" lon="11.643366758948208"><ele>1455.8000000000002</ele><time>2026-04-28T11:39:16.999Z</time></trkpt><trkpt lat="43.663041040080145" lon="11.643460189997963"><ele>1457.4</ele><time>2026-04-28T11:39:17.999Z</time></trkpt><trkpt lat="43.663010917576045" lon="11.643647925794257"><ele>1459.0</ele><time>2026-04-28T11:39:19.999Z</time></trkpt><trkpt lat="43.66293092221086" lon="11.643794322633125"><ele>1460.3333333333333</ele><time>2026-04-28T11:39:21.999Z</time></trkpt><trkpt lat="43.66288199951654" lon="11.643883326285456"><ele>1461.6666666666665</ele><time>2026-04-28T11:39:22.999Z</time></trkpt><trkpt lat="43.662850118595415" lon="11.643964710681031"><ele>1463.0</ele><time>2026-04-28T11:39:23.999Z</time></trkpt><trkpt lat="43.662801217914605" lon="11.644105154421906"><ele>1464.3333333333333</ele><time>2026-04-28T11:39:25.999Z</time></trkpt><trkpt lat="43.662765739204076" lon="11.644183411156847"><ele>1465.6666666666667</ele><time>2026-04-28T11:39:26.999Z</time></trkpt><trkpt lat="43.662720466290345" lon="11.644251422541219"><ele>1467.0</ele><time>2026-04-28T11:39:27.999Z</time></trkpt><trkpt lat="43.66266469845726" lon="11.644306931523124"><ele>1471.0</ele><time>2026-04-28T11:39:28.999Z</time></trkpt><trkpt lat="43.66260803003101" lon="11.644346898519306"><ele>1475.0</ele><time>2026-04-28T11:39:29.999Z</time></trkpt><trkpt lat="43.66250586042241" lon="11.644359263159119"><ele>1479.0</ele><time>2026-04-28T11:39:31.999Z</time></trkpt><trkpt lat="43.66243951835401" lon="11.64433817663565"><ele>1483.0</ele><time>2026-04-28T11:39:32.999Z</time></trkpt><trkpt lat="43.662374040638824" lon="11.644318760329144"><ele>1487.0</ele><time>2026-04-28T11:39:33.999Z</time></trkpt><trkpt lat="43.662284071108765" lon="11.64437668509612"><ele>1491.0</ele><time>2026-04-28T11:39:35.999Z</time></trkpt><trkpt lat="43.66227096287107" lon="11.644465865863546"><ele>1492.6</ele><time>2026-04-28T11:39:37.999Z</time></trkpt><trkpt lat="43.6623340130062" lon="11.644600517900745"><ele>1494.1999999999998</ele><time>2026-04-28T11:39:39.999Z</time></trkpt><trkpt lat="43.66229531654738" lon="11.644691368861494"><ele>1495.8000000000002</ele><time>2026-04-28T11:39:40.999Z</time></trkpt><trkpt lat="43.662289317486895" lon="11.644825760049642"><ele>1497.4</ele><time>2026-04-28T11:39:42.999Z</time></trkpt><trkpt lat="43.66224902025482" lon="11.64495097139737"><ele>1499.0</ele><time>2026-04-28T11:39:44.999Z</time></trkpt><trkpt lat="43.66220188573317" lon="11.645046465380718"><ele>1499.0</ele><time>2026-04-28T11:39:46.999Z</time></trkpt><trkpt lat="43.662190397414385" lon="11.645157355948102"><ele>1499.0</ele><time>2026-04-28T11:39:51Z</time></trkpt><trkpt lat="43.66212309456995" lon="11.645179382490317"><ele>1499.0</ele><time>2026-04-28T11:39:53Z</time></trkpt><trkpt lat="43.66213614346975" lon="11.645265939047986"><ele>1499.0</ele><time>2026-04-28T11:39:57Z</time></trkpt><trkpt lat="43.66206971000345" lon="11.645336046246044"><ele>1499.0</ele><time>2026-04-28T11:40:03Z</time></trkpt><trkpt lat="43.66207237060716" lon="11.645428874225116"><ele>1499.0</ele><time>2026-04-28T11:40:04Z</time></trkpt><trkpt lat="43.662055706698155" lon="11.645566233536881"><ele>1500.0</ele><time>2026-04-28T11:40:06Z</time></trkpt><trkpt lat="43.66200908592138" lon="11.645627848550891"><ele>1501.0</ele><time>2026-04-28T11:40:09Z</time></trkpt><trkpt lat="43.66200778186556" lon="11.64573785497351"><ele>1502.0</ele><time>2026-04-28T11:41:10.999Z</time></trkpt><trkpt lat="43.66201578997195" lon="11.645850218391466"><ele>1503.0</ele><time>2026-04-28T11:41:12.999Z</time></trkpt><trkpt lat="43.66199917555479" lon="11.645999020858222"><ele>1504.0</ele><time>2026-04-28T11:41:14.999Z</time></trkpt><trkpt lat="43.661991168560206" lon="11.646098080399002"><ele>1505.0</ele><time>2026-04-28T11:41:15.999Z</time></trkpt><trkpt lat="43.661823334836264" lon="11.646275176048508"><ele>1510.0</ele><time>2026-04-28T11:41:17.999Z</time></trkpt><trkpt lat="43.66192825876735" lon="11.646344042560685"><ele>1515.0</ele><time>2026-04-28T11:41:45.999Z</time></trkpt><trkpt lat="43.661861155669726" lon="11.64630993478737"><ele>1520.0</ele><time>2026-04-28T11:41:48.999Z</time></trkpt><trkpt lat="43.661818778087174" lon="11.646200779497198"><ele>1525.0</ele><time>2026-04-28T11:41:51.999Z</time></trkpt><trkpt lat="43.661775439119786" lon="11.646108667974914"><ele>1530.0</ele><time>2026-04-28T11:41:54Z</time></trkpt><trkpt lat="43.661734631000904" lon="11.64602801624559"><ele>1535.0</ele><time>2026-04-28T11:41:56Z</time></trkpt><trkpt lat="43.661694197680625" lon="11.64594388786062"><ele>1536.0</ele><time>2026-04-28T11:41:58Z</time></trkpt><trkpt lat="43.66164928851736" lon="11.645858501413183"><ele>1537.0</ele><time>2026-04-28T11:42:00Z</time></trkpt><trkpt lat="43.66158584634792" lon="11.645778080353816"><ele>1538.0</ele><time>2026-04-28T11:42:02Z</time></trkpt><trkpt lat="43.661521972692" lon="11.645706325754318"><ele>1539.0</ele><time>2026-04-28T11:42:04Z</time></trkpt><trkpt lat="43.66144635321336" lon="11.64565773606648"><ele>1539.9999999999998</ele><time>2026-04-28T11:42:06Z</time></trkpt><trkpt lat="43.6613454329096" lon="11.645645032187298"><ele>1541.0</ele><time>2026-04-28T11:42:08Z</time></trkpt><trkpt lat="43.66127944638734" lon="11.645655100747597"><ele>1541.0</ele><time>2026-04-28T11:42:09Z</time></trkpt><trkpt lat="43.66121559074895" lon="11.645667014516084"><ele>1541.0</ele><time>2026-04-28T11:42:10Z</time></trkpt><trkpt lat="43.66109494352874" lon="11.645660157297238"><ele>1541.0</ele><time>2026-04-28T11:42:12Z</time></trkpt><trkpt lat="43.66096422680946" lon="11.645637559767081"><ele>1541.0</ele><time>2026-04-28T11:42:14Z</time></trkpt><trkpt lat="43.66088987386317" lon="11.645623667618727"><ele>1541.0</ele><time>2026-04-28T11:42:15Z</time></trkpt><trkpt lat="43.66082072729485" lon="11.645606452099834"><ele>1542.4285714285716</ele><time>2026-04-28T11:42:16Z</time></trkpt><trkpt lat="43.660757579227756" lon="11.645593547513359"><ele>1543.857142857143</ele><time>2026-04-28T11:42:17Z</time></trkpt><trkpt lat="43.66068981946394" lon="11.645579683344922"><ele>1545.2857142857142</ele><time>2026-04-28T11:42:18Z</time></trkpt><trkpt lat="43.66062657409881" lon="11.645588230099225"><ele>1546.7142857142858</ele><time>2026-04-28T11:42:19Z</time></trkpt><trkpt lat="43.66055283192957" lon="11.645603369546372"><ele>1548.142857142857</ele><time>2026-04-28T11:42:20Z</time></trkpt><trkpt lat="43.66048379484509" lon="11.64561027221091"><ele>1549.5714285714287</ele><time>2026-04-28T11:42:21Z</time></trkpt><trkpt lat="43.66041566067657" lon="11.645608008025956"><ele>1551.0</ele><time>2026-04-28T11:42:22Z</time></trkpt><trkpt lat="43.66033241548217" lon="11.645598255711109"><ele>1553.1666666666667</ele><time>2026-04-28T11:42:23Z</time></trkpt><trkpt lat="43.66024960845458" lon="11.645584049764029"><ele>1555.3333333333335</ele><time>2026-04-28T11:42:24Z</time></trkpt><trkpt lat="43.66017503994203" lon="11.645573206017735"><ele>1557.5</ele><time>2026-04-28T11:42:25Z</time></trkpt><trkpt lat="43.66009523601471" lon="11.645555486439148"><ele>1559.6666666666667</ele><time>2026-04-28T11:42:26Z</time></trkpt><trkpt lat="43.66002214670377" lon="11.645539242578495"><ele>1561.8333333333335</ele><time>2026-04-28T11:42:27Z</time></trkpt><trkpt lat="43.659941909647245" lon="11.645525578852167"><ele>1564.0</ele><time>2026-04-28T11:42:28Z</time></trkpt><trkpt lat="43.65986429974153" lon="11.64551550663162"><ele>1564.0000000000002</ele><time>2026-04-28T11:42:29Z</time></trkpt><trkpt lat="43.65978620013313" lon="11.645511527443325"><ele>1564.0</ele><time>2026-04-28T11:42:30Z</time></trkpt><trkpt lat="43.65971862793098" lon="11.645511523421774"><ele>1564.0</ele><time>2026-04-28T11:42:31Z</time></trkpt><trkpt lat="43.65962983016633" lon="11.645504938234815"><ele>1564.0</ele><time>2026-04-28T11:42:32Z</time></trkpt><trkpt lat="43.6595445853685" lon="11.64548902717239"><ele>1564.0000000000002</ele><time>2026-04-28T11:42:33Z</time></trkpt><trkpt lat="43.65947549401646" lon="11.645496235577594"><ele>1564.0</ele><time>2026-04-28T11:42:34Z</time></trkpt><trkpt lat="43.659404478254295" lon="11.645459922333618"><ele>1565.1666666666667</ele><time>2026-04-28T11:42:35Z</time></trkpt><trkpt lat="43.65931270521517" lon="11.645456533695961"><ele>1566.3333333333335</ele><time>2026-04-28T11:42:36Z</time></trkpt><trkpt lat="43.65923503273937" lon="11.645453869326648"><ele>1567.5</ele><time>2026-04-28T11:42:37Z</time></trkpt><trkpt lat="43.65913758244656" lon="11.645459048563694"><ele>1568.6666666666665</ele><time>2026-04-28T11:42:38Z</time></trkpt><trkpt lat="43.659049179072795" lon="11.645465183442477"><ele>1569.8333333333333</ele><time>2026-04-28T11:42:39Z</time></trkpt><trkpt lat="43.65897494522545" lon="11.645465617187794"><ele>1571.0</ele><time>2026-04-28T11:42:40Z</time></trkpt><trkpt lat="43.65889638393403" lon="11.645456388996685"><ele>1570.9999999999998</ele><time>2026-04-28T11:42:41Z</time></trkpt><trkpt lat="43.65880834299947" lon="11.645471644798983"><ele>1571.0</ele><time>2026-04-28T11:42:42Z</time></trkpt><trkpt lat="43.658726842152035" lon="11.645496829828332"><ele>1571.0</ele><time>2026-04-28T11:42:43Z</time></trkpt><trkpt lat="43.658661137461806" lon="11.645521000768072"><ele>1571.0</ele><time>2026-04-28T11:42:44Z</time></trkpt><trkpt lat="43.658579689589274" lon="11.645525174254905"><ele>1570.9999999999998</ele><time>2026-04-28T11:42:45Z</time></trkpt><trkpt lat="43.658496693080785" lon="11.645582267529047"><ele>1571.0</ele><time>2026-04-28T11:42:46Z</time></trkpt><trkpt lat="43.65841252803559" lon="11.645597581566845"><ele>1572.8</ele><time>2026-04-28T11:42:47Z</time></trkpt><trkpt lat="43.65831727845421" lon="11.645610721830616"><ele>1574.6</ele><time>2026-04-28T11:42:47.999Z</time></trkpt><trkpt lat="43.65820935407566" lon="11.64560737845102"><ele>1576.4</ele><time>2026-04-28T11:42:48.999Z</time></trkpt><trkpt lat="43.65811107980472" lon="11.645610623574582"><ele>1578.2</ele><time>2026-04-28T11:42:49.999Z</time></trkpt><trkpt lat="43.658023367238314" lon="11.64561672781364"><ele>1580.0</ele><time>2026-04-28T11:42:50.999Z</time></trkpt><trkpt lat="43.65794994461117" lon="11.645627264099529"><ele>1579.9999999999998</ele><time>2026-04-28T11:42:51.999Z</time></trkpt><trkpt lat="43.657885471048" lon="11.645654676926515"><ele>1580.0</ele><time>2026-04-28T11:42:52.999Z</time></trkpt><trkpt lat="43.65781679995799" lon="11.645693193243535"><ele>1580.0</ele><time>2026-04-28T11:42:53.999Z</time></trkpt><trkpt lat="43.65774267420814" lon="11.645735837462682"><ele>1580.0</ele><time>2026-04-28T11:42:54.999Z</time></trkpt><trkpt lat="43.6576634838982" lon="11.645776656616787"><ele>1579.9999999999998</ele><time>2026-04-28T11:42:55.999Z</time></trkpt><trkpt lat="43.65758061440486" lon="11.645820811313735"><ele>1580.0</ele><time>2026-04-28T11:42:56.999Z</time></trkpt><trkpt lat="43.65750981104125" lon="11.64586505261746"><ele>1580.5714285714284</ele><time>2026-04-28T11:42:57.999Z</time></trkpt><trkpt lat="43.65744465911618" lon="11.645911912379928"><ele>1581.1428571428573</ele><time>2026-04-28T11:42:58.999Z</time></trkpt><trkpt lat="43.65737551163491" lon="11.645963640643576"><ele>1581.7142857142858</ele><time>2026-04-28T11:42:59.999Z</time></trkpt><trkpt lat="43.65731221469704" lon="11.646006844186267"><ele>1582.2857142857142</ele><time>2026-04-28T11:43:00.999Z</time></trkpt><trkpt lat="43.657250379982855" lon="11.64605171426196"><ele>1582.8571428571427</ele><time>2026-04-28T11:43:01.999Z</time></trkpt><trkpt lat="43.65718663637266" lon="11.646103105663098"><ele>1583.4285714285716</ele><time>2026-04-28T11:43:02.999Z</time></trkpt><trkpt lat="43.65711607930972" lon="11.646160631050357"><ele>1584.0</ele><time>2026-04-28T11:43:03.999Z</time></trkpt><trkpt lat="43.657049276240826" lon="11.646204042177672"><ele>1582.2</ele><time>2026-04-28T11:43:04.999Z</time></trkpt><trkpt lat="43.65698469619314" lon="11.646253951554447"><ele>1580.4</ele><time>2026-04-28T11:43:05.999Z</time></trkpt><trkpt lat="43.65692056690675" lon="11.64629600638699"><ele>1578.6</ele><time>2026-04-28T11:43:06.999Z</time></trkpt><trkpt lat="43.65680829498589" lon="11.646332541973516"><ele>1576.8</ele><time>2026-04-28T11:43:08.999Z</time></trkpt><trkpt lat="43.65668311065192" lon="11.64631236486318"><ele>1575.0</ele><time>2026-04-28T11:43:10.999Z</time></trkpt><trkpt lat="43.65657125060044" lon="11.646328793535952"><ele>1575.0</ele><time>2026-04-28T11:43:12.999Z</time></trkpt><trkpt lat="43.65646531290277" lon="11.646373806630516"><ele>1575.0</ele><time>2026-04-28T11:43:14.999Z</time></trkpt><trkpt lat="43.65635913475016" lon="11.646426560792705"><ele>1575.0</ele><time>2026-04-28T11:43:16.999Z</time></trkpt><trkpt lat="43.65624729425366" lon="11.646474756262519"><ele>1575.0</ele><time>2026-04-28T11:43:18.999Z</time></trkpt><trkpt lat="43.65619238565882" lon="11.646517815232237"><ele>1575.0</ele><time>2026-04-28T11:43:19.999Z</time></trkpt><trkpt lat="43.65613467321819" lon="11.646560317583953"><ele>1573.8333333333333</ele><time>2026-04-28T11:43:20.999Z</time></trkpt><trkpt lat="43.656071852874824" lon="11.646613021765098"><ele>1572.6666666666665</ele><time>2026-04-28T11:43:21.999Z</time></trkpt><trkpt lat="43.65600971239927" lon="11.6466687528327"><ele>1571.5</ele><time>2026-04-28T11:43:22.999Z</time></trkpt><trkpt lat="43.655950599882814" lon="11.646722614976692"><ele>1570.3333333333333</ele><time>2026-04-28T11:43:23.999Z</time></trkpt><trkpt lat="43.655884132700066" lon="11.646785318330448"><ele>1569.1666666666665</ele><time>2026-04-28T11:43:24.999Z</time></trkpt><trkpt lat="43.65581209016249" lon="11.64684647363871"><ele>1568.0</ele><time>2026-04-28T11:43:25.999Z</time></trkpt><trkpt lat="43.65572400550934" lon="11.646901151305867"><ele>1568.0</ele><time>2026-04-28T11:43:26.999Z</time></trkpt><trkpt lat="43.65563546464178" lon="11.64694745797512"><ele>1568.0</ele><time>2026-04-28T11:43:27.999Z</time></trkpt><trkpt lat="43.65555694204952" lon="11.64697564179636"><ele>1568.0</ele><time>2026-04-28T11:43:28.999Z</time></trkpt><trkpt lat="43.65542212125801" lon="11.64697811392103"><ele>1568.0</ele><time>2026-04-28T11:43:30.999Z</time></trkpt><trkpt lat="43.65534701737117" lon="11.646965029929946"><ele>1568.0</ele><time>2026-04-28T11:43:31.999Z</time></trkpt><trkpt lat="43.65525384367251" lon="11.646926602686952"><ele>1569.5714285714287</ele><time>2026-04-28T11:43:33.999Z</time></trkpt><trkpt lat="43.65518708970842" lon="11.64691701969545"><ele>1571.142857142857</ele><time>2026-04-28T11:43:35.999Z</time></trkpt><trkpt lat="43.65512857517187" lon="11.64686972274096"><ele>1572.7142857142858</ele><time>2026-04-28T11:43:37.999Z</time></trkpt><trkpt lat="43.655066528342154" lon="11.646851398702609"><ele>1574.2857142857142</ele><time>2026-04-28T11:43:39.999Z</time></trkpt><trkpt lat="43.655044000234014" lon="11.646762611505771"><ele>1575.857142857143</ele><time>2026-04-28T11:45:22.999Z</time></trkpt><trkpt lat="43.65499912392244" lon="11.646699563297567"><ele>1577.4285714285716</ele><time>2026-04-28T11:45:28.999Z</time></trkpt><trkpt lat="43.654912819263636" lon="11.646670821876501"><ele>1579.0</ele><time>2026-04-28T11:46:15Z</time></trkpt><trkpt lat="43.65483951481244" lon="11.646703872491619"><ele>1579.0000000000002</ele><time>2026-04-28T11:47:18.999Z</time></trkpt><trkpt lat="43.65488541334625" lon="11.646792589729557"><ele>1579.0</ele><time>2026-04-28T11:47:44.999Z</time></trkpt><trkpt lat="43.65494471618944" lon="11.646849768680054"><ele>1579.0</ele><time>2026-04-28T11:48:36Z</time></trkpt><trkpt lat="43.65500523291919" lon="11.646811282081405"><ele>1579.0</ele><time>2026-04-28T11:50:50Z</time></trkpt><trkpt lat="43.65501346273191" lon="11.646721326260781"><ele>1579.0</ele><time>2026-04-28T11:51:05.999Z</time></trkpt><trkpt lat="43.65505573410005" lon="11.646795820898248"><ele>1579.0000000000002</ele><time>2026-04-28T11:52:16.998Z</time></trkpt><trkpt lat="43.655077706090395" lon="11.646886685948923"><ele>1579.0</ele><time>2026-04-28T11:53:59.998Z</time></trkpt><trkpt lat="43.65503281333922" lon="11.646956894994538"><ele>1578.0</ele><time>2026-04-28T11:57:35.999Z</time></trkpt><trkpt lat="43.655008315852285" lon="11.647054972659879"><ele>1577.0</ele><time>2026-04-28T11:57:37.999Z</time></trkpt><trkpt lat="43.6549730410123" lon="11.647187241742506"><ele>1576.0</ele><time>2026-04-28T11:57:39.999Z</time></trkpt><trkpt lat="43.65499999003533" lon="11.647356193790321"><ele>1575.0</ele><time>2026-04-28T11:57:41.999Z</time></trkpt><trkpt lat="43.655030176552565" lon="11.647457183466212"><ele>1574.0</ele><time>2026-04-28T11:57:42.999Z</time></trkpt><trkpt lat="43.6550662080072" lon="11.647563691420096"><ele>1574.0</ele><time>2026-04-28T11:57:43.999Z</time></trkpt><trkpt lat="43.655095194342096" lon="11.647650696104387"><ele>1574.0</ele><time>2026-04-28T11:57:44.999Z</time></trkpt><trkpt lat="43.65516536801279" lon="11.64773973770953"><ele>1574.0</ele><time>2026-04-28T11:57:46.999Z</time></trkpt><trkpt lat="43.65523401645577" lon="11.647719444674392"><ele>1574.0</ele><time>2026-04-28T11:57:49Z</time></trkpt><trkpt lat="43.65533741082286" lon="11.64762434979029"><ele>1574.0</ele><time>2026-04-28T11:57:51Z</time></trkpt><trkpt lat="43.655407881670314" lon="11.647516204739256"><ele>1572.9999999999998</ele><time>2026-04-28T11:57:53Z</time></trkpt><trkpt lat="43.65545830558222" lon="11.647447113755202"><ele>1572.0</ele><time>2026-04-28T11:57:55Z</time></trkpt><trkpt lat="43.65551972719303" lon="11.647380190314552"><ele>1571.0</ele><time>2026-04-28T11:57:57Z</time></trkpt><trkpt lat="43.65556965182553" lon="11.647322689508739"><ele>1570.0</ele><time>2026-04-28T11:57:58Z</time></trkpt><trkpt lat="43.65565379559237" lon="11.647216751647472"><ele>1568.9999999999998</ele><time>2026-04-28T11:58:00Z</time></trkpt><trkpt lat="43.65572014268149" lon="11.647133926640064"><ele>1568.0</ele><time>2026-04-28T11:58:02Z</time></trkpt><trkpt lat="43.65581265244975" lon="11.646997416228748"><ele>1567.9999999999998</ele><time>2026-04-28T11:58:04Z</time></trkpt><trkpt lat="43.655889768189944" lon="11.646901915611512"><ele>1568.0</ele><time>2026-04-28T11:58:05Z</time></trkpt><trkpt lat="43.65593509009647" lon="11.646825763697677"><ele>1568.0</ele><time>2026-04-28T11:58:06Z</time></trkpt><trkpt lat="43.65597069960557" lon="11.646752684223282"><ele>1568.0</ele><time>2026-04-28T11:58:07Z</time></trkpt><trkpt lat="43.656053338968945" lon="11.646614138676526"><ele>1567.9999999999998</ele><time>2026-04-28T11:58:09Z</time></trkpt><trkpt lat="43.656102120741465" lon="11.646554600950074"><ele>1568.0</ele><time>2026-04-28T11:58:10Z</time></trkpt><trkpt lat="43.656157470884736" lon="11.646505187970792"><ele>1569.1666666666665</ele><time>2026-04-28T11:58:11Z</time></trkpt><trkpt lat="43.656254682518146" lon="11.646463185328031"><ele>1570.3333333333333</ele><time>2026-04-28T11:58:13Z</time></trkpt><trkpt lat="43.656335514209275" lon="11.646428385425757"><ele>1571.5</ele><time>2026-04-28T11:58:14Z</time></trkpt><trkpt lat="43.65639445111591" lon="11.646397666010298"><ele>1572.6666666666665</ele><time>2026-04-28T11:58:15Z</time></trkpt><trkpt lat="43.65649995828649" lon="11.6463455056006"><ele>1573.8333333333333</ele><time>2026-04-28T11:58:17Z</time></trkpt><trkpt lat="43.65656116484837" lon="11.646322984756491"><ele>1575.0</ele><time>2026-04-28T11:58:18Z</time></trkpt><trkpt lat="43.65662589199581" lon="11.646304942570401"><ele>1575.0</ele><time>2026-04-28T11:58:19Z</time></trkpt><trkpt lat="43.65669278485732" lon="11.646302303578578"><ele>1575.0</ele><time>2026-04-28T11:58:20Z</time></trkpt><trkpt lat="43.656759387953414" lon="11.64630349844078"><ele>1575.0</ele><time>2026-04-28T11:58:21Z</time></trkpt><trkpt lat="43.65682312911066" lon="11.646302748682443"><ele>1575.0</ele><time>2026-04-28T11:58:22Z</time></trkpt><trkpt lat="43.65689093609208" lon="11.646278867131905"><ele>1575.0</ele><time>2026-04-28T11:58:23Z</time></trkpt><trkpt lat="43.65696630418005" lon="11.646249671835148"><ele>1575.0</ele><time>2026-04-28T11:58:25Z</time></trkpt><trkpt lat="43.657027566664816" lon="11.646192015803775"><ele>1575.0</ele><time>2026-04-28T11:58:28.001Z</time></trkpt><trkpt lat="43.657100177221146" lon="11.646140488284674"><ele>1576.8</ele><time>2026-04-28T11:58:30.001Z</time></trkpt><trkpt lat="43.65717093978594" lon="11.646086184277596"><ele>1578.6</ele><time>2026-04-28T11:58:32.001Z</time></trkpt><trkpt lat="43.65726587026582" lon="11.646020725443526"><ele>1580.4</ele><time>2026-04-28T11:58:34.001Z</time></trkpt><trkpt lat="43.657355063854794" lon="11.645949995009131"><ele>1582.2</ele><time>2026-04-28T11:58:36.001Z</time></trkpt><trkpt lat="43.65744261565594" lon="11.645883562812461"><ele>1584.0</ele><time>2026-04-28T11:58:38.001Z</time></trkpt><trkpt lat="43.65750976211864" lon="11.645850303570565"><ele>1584.0</ele><time>2026-04-28T11:58:43.001Z</time></trkpt><trkpt lat="43.65761570700823" lon="11.6457930391312"><ele>1584.0</ele><time>2026-04-28T11:58:45.001Z</time></trkpt><trkpt lat="43.65767681406886" lon="11.645754989106031"><ele>1584.0</ele><time>2026-04-28T11:58:46.001Z</time></trkpt><trkpt lat="43.6577458933161" lon="11.645721260181842"><ele>1584.0</ele><time>2026-04-28T11:58:47.001Z</time></trkpt><trkpt lat="43.657808905885474" lon="11.645688396137315"><ele>1584.0</ele><time>2026-04-28T11:58:48.001Z</time></trkpt><trkpt lat="43.6579083213237" lon="11.645634474333647"><ele>1584.0</ele><time>2026-04-28T11:58:50.001Z</time></trkpt><trkpt lat="43.657990366438156" lon="11.645598121735592"><ele>1583.3333333333333</ele><time>2026-04-28T11:58:52.001Z</time></trkpt><trkpt lat="43.65806771328797" lon="11.645617352780453"><ele>1582.6666666666665</ele><time>2026-04-28T11:59:07.001Z</time></trkpt><trkpt lat="43.65813171215808" lon="11.645619704110539"><ele>1582.0</ele><time>2026-04-28T11:59:08.001Z</time></trkpt><trkpt lat="43.658197221751706" lon="11.64560786282117"><ele>1581.3333333333333</ele><time>2026-04-28T11:59:09.001Z</time></trkpt><trkpt lat="43.658261942415834" lon="11.645598286044123"><ele>1580.6666666666665</ele><time>2026-04-28T11:59:10.001Z</time></trkpt><trkpt lat="43.65832656026037" lon="11.645596983429249"><ele>1580.0</ele><time>2026-04-28T11:59:11.001Z</time></trkpt><trkpt lat="43.65845412454514" lon="11.645585877810623"><ele>1580.0</ele><time>2026-04-28T11:59:13.001Z</time></trkpt><trkpt lat="43.65856190965398" lon="11.645558414895426"><ele>1580.0</ele><time>2026-04-28T11:59:15.001Z</time></trkpt><trkpt lat="43.65863388943754" lon="11.645530559495992"><ele>1580.0</ele><time>2026-04-28T11:59:16.001Z</time></trkpt><trkpt lat="43.65874421564165" lon="11.645488981252894"><ele>1580.0</ele><time>2026-04-28T11:59:18.001Z</time></trkpt><trkpt lat="43.658838849837444" lon="11.645451209786486"><ele>1580.0</ele><time>2026-04-28T11:59:20.001Z</time></trkpt><trkpt lat="43.65892834299298" lon="11.645456780994495"><ele>1578.2</ele><time>2026-04-28T11:59:22.001Z</time></trkpt><trkpt lat="43.65904100565292" lon="11.645447995755092"><ele>1576.4</ele><time>2026-04-28T11:59:24.001Z</time></trkpt><trkpt lat="43.6591424310202" lon="11.645454259055045"><ele>1574.6</ele><time>2026-04-28T11:59:26.001Z</time></trkpt><trkpt lat="43.659249694929244" lon="11.64544857489272"><ele>1572.8</ele><time>2026-04-28T11:59:28.001Z</time></trkpt><trkpt lat="43.65935608047191" lon="11.645449422112177"><ele>1571.0</ele><time>2026-04-28T11:59:30.002Z</time></trkpt><trkpt lat="43.65942466571888" lon="11.645460712182773"><ele>1569.6</ele><time>2026-04-28T11:59:31.002Z</time></trkpt><trkpt lat="43.65952691189202" lon="11.645482676220102"><ele>1568.1999999999998</ele><time>2026-04-28T11:59:33.002Z</time></trkpt><trkpt lat="43.65966109462992" lon="11.645499686740429"><ele>1566.8000000000002</ele><time>2026-04-28T11:59:35.002Z</time></trkpt><trkpt lat="43.65973098000843" lon="11.645517006299043"><ele>1565.4</ele><time>2026-04-28T11:59:36.002Z</time></trkpt><trkpt lat="43.65980010817004" lon="11.645523553036075"><ele>1564.0</ele><time>2026-04-28T11:59:37.002Z</time></trkpt><trkpt lat="43.65987478143959" lon="11.64551838443435"><ele>1564.0000000000002</ele><time>2026-04-28T11:59:38.002Z</time></trkpt><trkpt lat="43.65997255866633" lon="11.645531811209056"><ele>1564.0</ele><time>2026-04-28T11:59:40.002Z</time></trkpt><trkpt lat="43.66007944429558" lon="11.645555915803323"><ele>1564.0</ele><time>2026-04-28T11:59:42.002Z</time></trkpt><trkpt lat="43.660143059829814" lon="11.645572077099992"><ele>1564.0</ele><time>2026-04-28T11:59:43.002Z</time></trkpt><trkpt lat="43.66021158727007" lon="11.645585409193147"><ele>1564.0000000000002</ele><time>2026-04-28T11:59:44.002Z</time></trkpt><trkpt lat="43.660279854342406" lon="11.645599912002126"><ele>1564.0</ele><time>2026-04-28T11:59:45.002Z</time></trkpt><trkpt lat="43.660391883525136" lon="11.645610339428867"><ele>1561.4</ele><time>2026-04-28T11:59:47.002Z</time></trkpt><trkpt lat="43.66049449402086" lon="11.645615297066458"><ele>1558.8000000000002</ele><time>2026-04-28T11:59:49.002Z</time></trkpt><trkpt lat="43.66059388298762" lon="11.64561584511544"><ele>1556.1999999999998</ele><time>2026-04-28T11:59:51.002Z</time></trkpt><trkpt lat="43.6606898409702" lon="11.645613445696918"><ele>1553.6</ele><time>2026-04-28T11:59:53.002Z</time></trkpt><trkpt lat="43.66077863707714" lon="11.645604849688866"><ele>1551.0</ele><time>2026-04-28T11:59:55.002Z</time></trkpt><trkpt lat="43.660885487772106" lon="11.645618457416633"><ele>1551.0</ele><time>2026-04-28T11:59:57.002Z</time></trkpt><trkpt lat="43.66100963235708" lon="11.645654044635624"><ele>1551.0</ele><time>2026-04-28T11:59:59.002Z</time></trkpt><trkpt lat="43.661084355031505" lon="11.64565616682981"><ele>1551.0</ele><time>2026-04-28T12:00:00.002Z</time></trkpt><trkpt lat="43.661198856656036" lon="11.64569339560474"><ele>1551.0</ele><time>2026-04-28T12:00:02.002Z</time></trkpt><trkpt lat="43.661266664783795" lon="11.645691547923004"><ele>1551.0</ele><time>2026-04-28T12:00:03.002Z</time></trkpt><trkpt lat="43.661389530467275" lon="11.645679675367047"><ele>1549.3333333333333</ele><time>2026-04-28T12:00:05.002Z</time></trkpt><trkpt lat="43.66147996110484" lon="11.64567324500286"><ele>1547.6666666666665</ele><time>2026-04-28T12:00:07.002Z</time></trkpt><trkpt lat="43.66155547222024" lon="11.645705823480602"><ele>1546.0</ele><time>2026-04-28T12:00:09.002Z</time></trkpt><trkpt lat="43.66161738538552" lon="11.645779982547483"><ele>1544.3333333333333</ele><time>2026-04-28T12:00:11.002Z</time></trkpt><trkpt lat="43.66169219524838" lon="11.645901136036802"><ele>1542.6666666666665</ele><time>2026-04-28T12:00:13.002Z</time></trkpt><trkpt lat="43.661735429906926" lon="11.645971629528493"><ele>1541.0</ele><time>2026-04-28T12:00:14.002Z</time></trkpt><trkpt lat="43.66177950161551" lon="11.646136094766433"><ele>1539.9999999999998</ele><time>2026-04-28T12:00:16.002Z</time></trkpt><trkpt lat="43.661826887006804" lon="11.646260712352811"><ele>1539.0</ele><time>2026-04-28T12:00:18.002Z</time></trkpt><trkpt lat="43.66183384758959" lon="11.646366564323"><ele>1538.0</ele><time>2026-04-28T12:00:20.002Z</time></trkpt><trkpt lat="43.66183874265051" lon="11.646468554177792"><ele>1537.0</ele><time>2026-04-28T12:00:22.003Z</time></trkpt><trkpt lat="43.661847679676896" lon="11.646600869909136"><ele>1536.0</ele><time>2026-04-28T12:00:24.003Z</time></trkpt><trkpt lat="43.661862085277214" lon="11.646721502373982"><ele>1535.0</ele><time>2026-04-28T12:00:26.003Z</time></trkpt><trkpt lat="43.66187145303296" lon="11.646817177351702"><ele>1535.0</ele><time>2026-04-28T12:00:28.003Z</time></trkpt><trkpt lat="43.66187297812373" lon="11.646943871801327"><ele>1535.0</ele><time>2026-04-28T12:00:30.003Z</time></trkpt><trkpt lat="43.661862141624205" lon="11.647040861073478"><ele>1535.0</ele><time>2026-04-28T12:00:32.003Z</time></trkpt><trkpt lat="43.66184514967348" lon="11.647153642235498"><ele>1535.0</ele><time>2026-04-28T12:00:34.003Z</time></trkpt><trkpt lat="43.66182417517387" lon="11.647269706949789"><ele>1535.0</ele><time>2026-04-28T12:00:36.003Z</time></trkpt><trkpt lat="43.661858511199576" lon="11.6473630027323"><ele>1535.0</ele><time>2026-04-28T12:00:37.003Z</time></trkpt><trkpt lat="43.66182603946237" lon="11.647480403679058"><ele>1531.5</ele><time>2026-04-28T12:00:39.003Z</time></trkpt><trkpt lat="43.66178348451652" lon="11.647620635857153"><ele>1528.0</ele><time>2026-04-28T12:00:41.003Z</time></trkpt><trkpt lat="43.66174897611087" lon="11.647774085008464"><ele>1524.5</ele><time>2026-04-28T12:00:43.003Z</time></trkpt><trkpt lat="43.66173864382736" lon="11.64792546458272"><ele>1521.0</ele><time>2026-04-28T12:00:45.003Z</time></trkpt><trkpt lat="43.66171712901398" lon="11.648082524712574"><ele>1517.8333333333333</ele><time>2026-04-28T12:00:47.003Z</time></trkpt><trkpt lat="43.661694502000614" lon="11.64818080311857"><ele>1514.6666666666667</ele><time>2026-04-28T12:00:48.004Z</time></trkpt><trkpt lat="43.66166053365761" lon="11.64826345636881"><ele>1511.5</ele><time>2026-04-28T12:00:49.004Z</time></trkpt><trkpt lat="43.661640434137794" lon="11.648346207850306"><ele>1508.3333333333335</ele><time>2026-04-28T12:00:50.004Z</time></trkpt><trkpt lat="43.66162320568881" lon="11.64850644384375"><ele>1505.1666666666667</ele><time>2026-04-28T12:00:52.004Z</time></trkpt><trkpt lat="43.66161822550043" lon="11.648679095610627"><ele>1502.0</ele><time>2026-04-28T12:00:54.004Z</time></trkpt><trkpt lat="43.661609985706654" lon="11.648830576807525"><ele>1500.0</ele><time>2026-04-28T12:00:56.004Z</time></trkpt><trkpt lat="43.66155695307448" lon="11.648896075576586"><ele>1498.0</ele><time>2026-04-28T12:00:57.004Z</time></trkpt><trkpt lat="43.66157406321833" lon="11.64906888095998"><ele>1496.0</ele><time>2026-04-28T12:00:59.004Z</time></trkpt><trkpt lat="43.66159264713563" lon="11.649163985220836"><ele>1494.0</ele><time>2026-04-28T12:01:00.003Z</time></trkpt><trkpt lat="43.66161745139055" lon="11.64925149820528"><ele>1492.0</ele><time>2026-04-28T12:01:01.003Z</time></trkpt><trkpt lat="43.66163245023593" lon="11.649339946087084"><ele>1490.0</ele><time>2026-04-28T12:01:02.003Z</time></trkpt><trkpt lat="43.66164972308207" lon="11.649496512320413"><ele>1487.6</ele><time>2026-04-28T12:01:04.003Z</time></trkpt><trkpt lat="43.661666821548195" lon="11.649650879547849"><ele>1485.2</ele><time>2026-04-28T12:01:06.003Z</time></trkpt><trkpt lat="43.661690090064916" lon="11.649836572424137"><ele>1482.8000000000002</ele><time>2026-04-28T12:01:08.003Z</time></trkpt><trkpt lat="43.661706664480604" lon="11.64995194568098"><ele>1480.4</ele><time>2026-04-28T12:01:09.003Z</time></trkpt><trkpt lat="43.66172222407516" lon="11.650057206313736"><ele>1478.0</ele><time>2026-04-28T12:01:10.003Z</time></trkpt><trkpt lat="43.66174020765717" lon="11.650156802340593"><ele>1475.4</ele><time>2026-04-28T12:01:11.003Z</time></trkpt><trkpt lat="43.66177982734708" lon="11.65030624278118"><ele>1472.8000000000002</ele><time>2026-04-28T12:01:13.003Z</time></trkpt><trkpt lat="43.661837142408416" lon="11.650450921623575"><ele>1470.2</ele><time>2026-04-28T12:01:15.002Z</time></trkpt><trkpt lat="43.66190048274464" lon="11.650593228253127"><ele>1467.6</ele><time>2026-04-28T12:01:17.002Z</time></trkpt><trkpt lat="43.66195221415034" lon="11.650647851533172"><ele>1465.0</ele><time>2026-04-28T12:01:18.002Z</time></trkpt><trkpt lat="43.662005917110044" lon="11.650769332023934"><ele>1464.8333333333333</ele><time>2026-04-28T12:01:20.002Z</time></trkpt><trkpt lat="43.662057770506564" lon="11.650824921962407"><ele>1464.6666666666665</ele><time>2026-04-28T12:01:22.002Z</time></trkpt><trkpt lat="43.66213140276317" lon="11.650870055220977"><ele>1464.5</ele><time>2026-04-28T12:01:24.002Z</time></trkpt><trkpt lat="43.66218312238027" lon="11.650926912378143"><ele>1464.3333333333333</ele><time>2026-04-28T12:01:28.002Z</time></trkpt><trkpt lat="43.66228378635763" lon="11.650942586764423"><ele>1464.1666666666667</ele><time>2026-04-28T12:01:38.002Z</time></trkpt><trkpt lat="43.662340601303434" lon="11.650886248560603"><ele>1464.0</ele><time>2026-04-28T12:01:41.002Z</time></trkpt><trkpt lat="43.66227622344898" lon="11.650859647792684"><ele>1464.0</ele><time>2026-04-28T12:01:44.002Z</time></trkpt><trkpt lat="43.66225515904018" lon="11.65095636501957"><ele>1464.0</ele><time>2026-04-28T12:01:46.002Z</time></trkpt><trkpt lat="43.662251656814554" lon="11.651051853709344"><ele>1464.0</ele><time>2026-04-28T12:01:49.002Z</time></trkpt><trkpt lat="43.66230547685052" lon="11.65110162323808"><ele>1464.0</ele><time>2026-04-28T12:01:52.002Z</time></trkpt><trkpt lat="43.66233424614582" lon="11.651205015457908"><ele>1464.0</ele><time>2026-04-28T12:02:05.002Z</time></trkpt><trkpt lat="43.66240668595676" lon="11.65127690265697"><ele>1464.0</ele><time>2026-04-28T12:02:07.002Z</time></trkpt><trkpt lat="43.662475170086516" lon="11.651310968208797"><ele>1464.0</ele><time>2026-04-28T12:02:08.002Z</time></trkpt><trkpt lat="43.662548481887185" lon="11.651342158943466"><ele>1462.857142857143</ele><time>2026-04-28T12:02:10.002Z</time></trkpt><trkpt lat="43.66261080265007" lon="11.651325837655186"><ele>1461.7142857142858</ele><time>2026-04-28T12:02:12.002Z</time></trkpt><trkpt lat="43.66264471440092" lon="11.651401028887088"><ele>1460.5714285714284</ele><time>2026-04-28T12:03:39.002Z</time></trkpt><trkpt lat="43.662638279040834" lon="11.651494847529062"><ele>1459.4285714285716</ele><time>2026-04-28T12:03:46.002Z</time></trkpt><trkpt lat="43.662651287925975" lon="11.651405402678074"><ele>1458.2857142857142</ele><time>2026-04-28T12:20:58Z</time></trkpt><trkpt lat="43.662631809154306" lon="11.651318000190475"><ele>1457.142857142857</ele><time>2026-04-28T12:21:07.999Z</time></trkpt><trkpt lat="43.662624697019524" lon="11.651219157044146"><ele>1456.0</ele><time>2026-04-28T12:35:39.999Z</time></trkpt><trkpt lat="43.66254514797504" lon="11.651189019682864"><ele>1456.0</ele><time>2026-04-28T12:35:49.999Z</time></trkpt><trkpt lat="43.66247530645241" lon="11.651258979759236"><ele>1456.0</ele><time>2026-04-28T12:35:51.999Z</time></trkpt><trkpt lat="43.66241287178793" lon="11.651278606475763"><ele>1456.0</ele><time>2026-04-28T12:35:54.999Z</time></trkpt><trkpt lat="43.66236301189619" lon="11.651216926638394"><ele>1456.0</ele><time>2026-04-28T12:35:58.999Z</time></trkpt><trkpt lat="43.66234811765423" lon="11.651102002117199"><ele>1456.0</ele><time>2026-04-28T12:36:01.999Z</time></trkpt><trkpt lat="43.66228340502484" lon="11.65107008974197"><ele>1456.0</ele><time>2026-04-28T12:36:08.999Z</time></trkpt><trkpt lat="43.66225515482771" lon="11.650947128280938"><ele>1457.3333333333333</ele><time>2026-04-28T12:36:12.999Z</time></trkpt><trkpt lat="43.66220867283217" lon="11.650840255670298"><ele>1458.6666666666665</ele><time>2026-04-28T12:36:15.999Z</time></trkpt><trkpt lat="43.662116372435314" lon="11.650840924753195"><ele>1460.0</ele><time>2026-04-28T12:36:17.999Z</time></trkpt><trkpt lat="43.66204320078329" lon="11.650794481534982"><ele>1461.3333333333333</ele><time>2026-04-28T12:36:21.999Z</time></trkpt><trkpt lat="43.66198340141177" lon="11.650705772302423"><ele>1462.6666666666667</ele><time>2026-04-28T12:36:23.999Z</time></trkpt><trkpt lat="43.661942149146405" lon="11.650618950632845"><ele>1464.0</ele><time>2026-04-28T12:36:33Z</time></trkpt><trkpt lat="43.661890821938805" lon="11.650497318798404"><ele>1464.2</ele><time>2026-04-28T12:36:35Z</time></trkpt><trkpt lat="43.661819365306485" lon="11.65035251087442"><ele>1464.4</ele><time>2026-04-28T12:36:37Z</time></trkpt><trkpt lat="43.66176253730666" lon="11.650195692225676"><ele>1464.6</ele><time>2026-04-28T12:36:39Z</time></trkpt><trkpt lat="43.6617387932064" lon="11.650099982456059"><ele>1464.8</ele><time>2026-04-28T12:36:40Z</time></trkpt><trkpt lat="43.66173147651057" lon="11.649999519125885"><ele>1465.0</ele><time>2026-04-28T12:36:41Z</time></trkpt><trkpt lat="43.66172315986994" lon="11.649895513537293"><ele>1467.6</ele><time>2026-04-28T12:36:42Z</time></trkpt><trkpt lat="43.66171363367671" lon="11.649778016888817"><ele>1470.2</ele><time>2026-04-28T12:36:43Z</time></trkpt><trkpt lat="43.66169706656491" lon="11.649646029951347"><ele>1472.8000000000002</ele><time>2026-04-28T12:36:44Z</time></trkpt><trkpt lat="43.661680507578126" lon="11.649505612126546"><ele>1475.4</ele><time>2026-04-28T12:36:45Z</time></trkpt><trkpt lat="43.661660455521336" lon="11.649384531159203"><ele>1478.0</ele><time>2026-04-28T12:36:46Z</time></trkpt><trkpt lat="43.66164096529353" lon="11.649275587483702"><ele>1479.7142857142858</ele><time>2026-04-28T12:36:47Z</time></trkpt><trkpt lat="43.661616459728386" lon="11.649171597809008"><ele>1481.4285714285716</ele><time>2026-04-28T12:36:48Z</time></trkpt><trkpt lat="43.66159236563052" lon="11.649071852402496"><ele>1483.142857142857</ele><time>2026-04-28T12:36:49Z</time></trkpt><trkpt lat="43.66157293050557" lon="11.648973171455246"><ele>1484.857142857143</ele><time>2026-04-28T12:36:50Z</time></trkpt><trkpt lat="43.66156905809794" lon="11.648882414626039"><ele>1486.5714285714284</ele><time>2026-04-28T12:36:51Z</time></trkpt><trkpt lat="43.66157589011883" lon="11.648790477605141"><ele>1488.2857142857142</ele><time>2026-04-28T12:36:52Z</time></trkpt><trkpt lat="43.66158908860079" lon="11.648695255284643"><ele>1490.0</ele><time>2026-04-28T12:36:53Z</time></trkpt><trkpt lat="43.66159910819134" lon="11.64859060375689"><ele>1492.0</ele><time>2026-04-28T12:36:54Z</time></trkpt><trkpt lat="43.661608070687116" lon="11.648495329965193"><ele>1494.0</ele><time>2026-04-28T12:36:55Z</time></trkpt><trkpt lat="43.661617139118" lon="11.648372308498322"><ele>1496.0</ele><time>2026-04-28T12:36:57Z</time></trkpt><trkpt lat="43.66164489000889" lon="11.648213095745753"><ele>1498.0</ele><time>2026-04-28T12:36:59Z</time></trkpt><trkpt lat="43.661667658608074" lon="11.648131632471031"><ele>1500.0</ele><time>2026-04-28T12:37:00Z</time></trkpt><trkpt lat="43.661693776316255" lon="11.64805023829924"><ele>1502.0</ele><time>2026-04-28T12:37:01Z</time></trkpt><trkpt lat="43.66172857774512" lon="11.647889464627877"><ele>1505.8</ele><time>2026-04-28T12:37:03Z</time></trkpt><trkpt lat="43.661738421962525" lon="11.647730240820124"><ele>1509.6</ele><time>2026-04-28T12:37:05Z</time></trkpt><trkpt lat="43.66176601394765" lon="11.647588532874598"><ele>1513.3999999999999</ele><time>2026-04-28T12:37:07Z</time></trkpt><trkpt lat="43.661817353172225" lon="11.647469778667528"><ele>1517.1999999999998</ele><time>2026-04-28T12:37:09Z</time></trkpt><trkpt lat="43.66186810799828" lon="11.647320216916716"><ele>1521.0</ele><time>2026-04-28T12:37:11Z</time></trkpt><trkpt lat="43.66189876421204" lon="11.647233683049016"><ele>1521.0</ele><time>2026-04-28T12:37:12Z</time></trkpt><trkpt lat="43.66192825978358" lon="11.647095497187614"><ele>1521.0</ele><time>2026-04-28T12:37:14Z</time></trkpt><trkpt lat="43.661949043571056" lon="11.646947902995231"><ele>1521.0</ele><time>2026-04-28T12:37:17Z</time></trkpt><trkpt lat="43.66198964387481" lon="11.646803513189449"><ele>1521.0</ele><time>2026-04-28T12:37:19Z</time></trkpt><trkpt lat="43.66205550764724" lon="11.646682676630679"><ele>1521.0</ele><time>2026-04-28T12:37:21Z</time></trkpt><trkpt lat="43.66212147523942" lon="11.646673776302912"><ele>1520.1999999999998</ele><time>2026-04-28T12:37:28.999Z</time></trkpt><trkpt lat="43.66212681414649" lon="11.646542782297773"><ele>1519.3999999999999</ele><time>2026-04-28T12:37:43.999Z</time></trkpt><trkpt lat="43.662076929024565" lon="11.646440317547956"><ele>1518.6</ele><time>2026-04-28T12:37:45.999Z</time></trkpt><trkpt lat="43.661992865962695" lon="11.646358807162784"><ele>1517.8</ele><time>2026-04-28T12:37:47.999Z</time></trkpt><trkpt lat="43.66199002745652" lon="11.646218362620623"><ele>1517.0</ele><time>2026-04-28T12:37:51.999Z</time></trkpt><trkpt lat="43.66200512267899" lon="11.646095914421243"><ele>1515.0</ele><time>2026-04-28T12:37:53.999Z</time></trkpt><trkpt lat="43.66200550534107" lon="11.645975388512058"><ele>1513.0</ele><time>2026-04-28T12:37:55.999Z</time></trkpt><trkpt lat="43.66201485069321" lon="11.645861519368095"><ele>1511.0</ele><time>2026-04-28T12:37:57.999Z</time></trkpt><trkpt lat="43.66201913926758" lon="11.645754182968693"><ele>1509.0</ele><time>2026-04-28T12:37:59.999Z</time></trkpt><trkpt lat="43.66201814757746" lon="11.645654854248326"><ele>1507.0</ele><time>2026-04-28T12:38:01.999Z</time></trkpt><trkpt lat="43.662034531808594" lon="11.645542675782936"><ele>1505.0</ele><time>2026-04-28T12:38:03.999Z</time></trkpt><trkpt lat="43.66207861827913" lon="11.645429030870456"><ele>1505.0</ele><time>2026-04-28T12:38:05.999Z</time></trkpt><trkpt lat="43.66210216577472" lon="11.645329069261381"><ele>1505.0</ele><time>2026-04-28T12:38:07.999Z</time></trkpt><trkpt lat="43.66212384261136" lon="11.645222617725896"><ele>1505.0</ele><time>2026-04-28T12:38:09.999Z</time></trkpt><trkpt lat="43.66215172388276" lon="11.64512656813257"><ele>1505.0</ele><time>2026-04-28T12:38:11.999Z</time></trkpt><trkpt lat="43.6622200810188" lon="11.644996535413075"><ele>1505.0</ele><time>2026-04-28T12:38:14.999Z</time></trkpt><trkpt lat="43.662280127221386" lon="11.644856117691404"><ele>1503.8</ele><time>2026-04-28T12:38:16.999Z</time></trkpt><trkpt lat="43.66229692079968" lon="11.644703688393406"><ele>1502.6</ele><time>2026-04-28T12:38:18.999Z</time></trkpt><trkpt lat="43.66231103908059" lon="11.644573318958821"><ele>1501.4</ele><time>2026-04-28T12:38:20.999Z</time></trkpt><trkpt lat="43.66231009460075" lon="11.644441787884855"><ele>1500.2</ele><time>2026-04-28T12:38:22.999Z</time></trkpt><trkpt lat="43.66235990841471" lon="11.644326396005198"><ele>1499.0</ele><time>2026-04-28T12:38:25.999Z</time></trkpt><trkpt lat="43.66242616118397" lon="11.64434279528692"><ele>1497.4</ele><time>2026-04-28T12:38:26.999Z</time></trkpt><trkpt lat="43.66254330546087" lon="11.644357230379633"><ele>1495.8000000000002</ele><time>2026-04-28T12:38:28.999Z</time></trkpt><trkpt lat="43.66264460124779" lon="11.644357861990052"><ele>1494.1999999999998</ele><time>2026-04-28T12:38:30.999Z</time></trkpt><trkpt lat="43.662727198657436" lon="11.64424602311468"><ele>1492.6</ele><time>2026-04-28T12:38:32.999Z</time></trkpt><trkpt lat="43.6628116636247" lon="11.644156314042062"><ele>1491.0</ele><time>2026-04-28T12:38:35Z</time></trkpt><trkpt lat="43.66287462952656" lon="11.644084986378285"><ele>1486.1999999999998</ele><time>2026-04-28T12:38:37Z</time></trkpt><trkpt lat="43.66289413554497" lon="11.643975307674935"><ele>1481.3999999999999</ele><time>2026-04-28T12:38:39Z</time></trkpt><trkpt lat="43.66293885998727" lon="11.643840431726419"><ele>1476.6</ele><time>2026-04-28T12:38:41Z</time></trkpt><trkpt lat="43.66302467483419" lon="11.643646967642244"><ele>1471.8</ele><time>2026-04-28T12:38:43Z</time></trkpt><trkpt lat="43.66306474082395" lon="11.643564741019771"><ele>1467.0</ele><time>2026-04-28T12:38:44Z</time></trkpt><trkpt lat="43.66308389214308" lon="11.64345577294233"><ele>1465.0</ele><time>2026-04-28T12:38:45Z</time></trkpt><trkpt lat="43.66311948202011" lon="11.643255082964963"><ele>1463.0</ele><time>2026-04-28T12:38:47Z</time></trkpt><trkpt lat="43.66315477422152" lon="11.643112062659293"><ele>1461.0</ele><time>2026-04-28T12:38:48Z</time></trkpt><trkpt lat="43.663197685387345" lon="11.642984860648728"><ele>1459.0</ele><time>2026-04-28T12:38:49Z</time></trkpt><trkpt lat="43.66323752170941" lon="11.642863086516321"><ele>1457.6666666666665</ele><time>2026-04-28T12:38:50Z</time></trkpt><trkpt lat="43.663273964728916" lon="11.642755246415721"><ele>1456.3333333333333</ele><time>2026-04-28T12:38:51Z</time></trkpt><trkpt lat="43.663306325463815" lon="11.642658983617986"><ele>1455.0</ele><time>2026-04-28T12:38:52Z</time></trkpt><trkpt lat="43.66334414924961" lon="11.64256442496128"><ele>1453.6666666666667</ele><time>2026-04-28T12:38:53Z</time></trkpt><trkpt lat="43.66337778546135" lon="11.642478487718714"><ele>1452.3333333333335</ele><time>2026-04-28T12:38:54Z</time></trkpt><trkpt lat="43.66341688946614" lon="11.642399418850893"><ele>1451.0</ele><time>2026-04-28T12:38:55Z</time></trkpt><trkpt lat="43.663466236816895" lon="11.642307862949213"><ele>1451.0</ele><time>2026-04-28T12:38:56Z</time></trkpt><trkpt lat="43.66353332635948" lon="11.642188787939139"><ele>1451.0</ele><time>2026-04-28T12:38:57Z</time></trkpt><trkpt lat="43.66361369080636" lon="11.64204656006256"><ele>1451.0</ele><time>2026-04-28T12:38:58Z</time></trkpt><trkpt lat="43.663671969537724" lon="11.641904705169452"><ele>1451.0</ele><time>2026-04-28T12:38:59Z</time></trkpt><trkpt lat="43.66373918437733" lon="11.641830402563219"><ele>1451.0</ele><time>2026-04-28T12:39:00Z</time></trkpt><trkpt lat="43.66379253056596" lon="11.641708628312795"><ele>1450.25</ele><time>2026-04-28T12:39:01Z</time></trkpt><trkpt lat="43.66385459593523" lon="11.641551069574865"><ele>1449.5</ele><time>2026-04-28T12:39:02Z</time></trkpt><trkpt lat="43.66391813504092" lon="11.641399153381602"><ele>1448.75</ele><time>2026-04-28T12:39:03Z</time></trkpt><trkpt lat="43.66396978510631" lon="11.641258880361868"><ele>1448.0</ele><time>2026-04-28T12:39:04Z</time></trkpt><trkpt lat="43.66400440145574" lon="11.641119277220339"><ele>1448.0</ele><time>2026-04-28T12:39:05Z</time></trkpt><trkpt lat="43.66403728291771" lon="11.640954167838999"><ele>1448.0</ele><time>2026-04-28T12:39:06Z</time></trkpt><trkpt lat="43.66405508196019" lon="11.640773497763991"><ele>1448.0</ele><time>2026-04-28T12:39:07Z</time></trkpt><trkpt lat="43.66406150013195" lon="11.640616520550358"><ele>1448.0</ele><time>2026-04-28T12:39:08Z</time></trkpt><trkpt lat="43.664068753340025" lon="11.640490209835725"><ele>1448.0</ele><time>2026-04-28T12:39:09Z</time></trkpt><trkpt lat="43.66407389461375" lon="11.640381312413234"><ele>1448.0</ele><time>2026-04-28T12:39:10Z</time></trkpt><trkpt lat="43.66408083658119" lon="11.640260264161803"><ele>1448.0</ele><time>2026-04-28T12:39:11Z</time></trkpt><trkpt lat="43.6640905633783" lon="11.640120110520137"><ele>1448.0</ele><time>2026-04-28T12:39:12Z</time></trkpt><trkpt lat="43.664104691169264" lon="11.639983462233475"><ele>1448.0</ele><time>2026-04-28T12:39:13Z</time></trkpt><trkpt lat="43.664112642873654" lon="11.6398346443993"><ele>1451.6000000000001</ele><time>2026-04-28T12:39:14Z</time></trkpt><trkpt lat="43.66411459486349" lon="11.63969229797851"><ele>1455.2</ele><time>2026-04-28T12:39:15Z</time></trkpt><trkpt lat="43.66411831395213" lon="11.639552512481046"><ele>1458.8</ele><time>2026-04-28T12:39:16Z</time></trkpt><trkpt lat="43.66413138258807" lon="11.639429467661868"><ele>1462.4</ele><time>2026-04-28T12:39:17Z</time></trkpt><trkpt lat="43.664151309112015" lon="11.639312670264161"><ele>1466.0</ele><time>2026-04-28T12:39:18Z</time></trkpt><trkpt lat="43.66416329597833" lon="11.639202498294786"><ele>1467.6666666666667</ele><time>2026-04-28T12:39:19Z</time></trkpt><trkpt lat="43.66417283688518" lon="11.639092355758136"><ele>1469.3333333333335</ele><time>2026-04-28T12:39:20Z</time></trkpt><trkpt lat="43.66420003438132" lon="11.638970836131703"><ele>1471.0</ele><time>2026-04-28T12:39:21Z</time></trkpt><trkpt lat="43.66423284280298" lon="11.638868607253523"><ele>1472.6666666666667</ele><time>2026-04-28T12:39:22Z</time></trkpt><trkpt lat="43.66426637082552" lon="11.638769742914386"><ele>1474.3333333333333</ele><time>2026-04-28T12:39:23Z</time></trkpt><trkpt lat="43.664301447009834" lon="11.638678649998921"><ele>1476.0</ele><time>2026-04-28T12:39:23.999Z</time></trkpt><trkpt lat="43.66434695324203" lon="11.638574627931671"><ele>1477.0</ele><time>2026-04-28T12:39:24.999Z</time></trkpt><trkpt lat="43.66438605279131" lon="11.63847667600282"><ele>1478.0</ele><time>2026-04-28T12:39:25.999Z</time></trkpt><trkpt lat="43.66443621456193" lon="11.638368524689213"><ele>1479.0</ele><time>2026-04-28T12:39:26.999Z</time></trkpt><trkpt lat="43.66448818146166" lon="11.638247351459631"><ele>1480.0</ele><time>2026-04-28T12:39:27.999Z</time></trkpt><trkpt lat="43.66453211698301" lon="11.638124621807647"><ele>1481.0</ele><time>2026-04-28T12:39:28.999Z</time></trkpt><trkpt lat="43.6645702373533" lon="11.63800967818957"><ele>1482.1666666666667</ele><time>2026-04-28T12:39:29.999Z</time></trkpt><trkpt lat="43.66460858673592" lon="11.63790700546331"><ele>1483.3333333333335</ele><time>2026-04-28T12:39:30.999Z</time></trkpt><trkpt lat="43.66463139749617" lon="11.637822562902862"><ele>1484.5</ele><time>2026-04-28T12:39:31.999Z</time></trkpt><trkpt lat="43.66468136675623" lon="11.637661585122025"><ele>1485.6666666666667</ele><time>2026-04-28T12:39:33.999Z</time></trkpt><trkpt lat="43.66472656849686" lon="11.637581367499534"><ele>1486.8333333333333</ele><time>2026-04-28T12:39:34.999Z</time></trkpt><trkpt lat="43.66477342275756" lon="11.637490551620166"><ele>1488.0</ele><time>2026-04-28T12:39:35.999Z</time></trkpt><trkpt lat="43.6648129621618" lon="11.637404440094603"><ele>1488.6666666666667</ele><time>2026-04-28T12:39:36.999Z</time></trkpt><trkpt lat="43.66485790834156" lon="11.637295823878768"><ele>1489.3333333333333</ele><time>2026-04-28T12:39:38.999Z</time></trkpt><trkpt lat="43.664880542540644" lon="11.637201158484153"><ele>1490.0</ele><time>2026-04-28T12:39:51.999Z</time></trkpt><trkpt lat="43.66489284796954" lon="11.637096374591726"><ele>1490.6666666666665</ele><time>2026-04-28T12:39:52.999Z</time></trkpt><trkpt lat="43.664887965461936" lon="11.636978202678453"><ele>1491.3333333333333</ele><time>2026-04-28T12:39:53.999Z</time></trkpt><trkpt lat="43.664884258237166" lon="11.636860522504968"><ele>1492.0</ele><time>2026-04-28T12:39:54.999Z</time></trkpt><trkpt lat="43.66487474132197" lon="11.636734992973537"><ele>1492.0</ele><time>2026-04-28T12:39:55.999Z</time></trkpt><trkpt lat="43.66486860403234" lon="11.636600586314495"><ele>1492.0</ele><time>2026-04-28T12:39:56.999Z</time></trkpt><trkpt lat="43.66486329382622" lon="11.636461778195157"><ele>1492.0</ele><time>2026-04-28T12:39:57.999Z</time></trkpt><trkpt lat="43.664857637461814" lon="11.6363365468172"><ele>1492.0</ele><time>2026-04-28T12:39:58.999Z</time></trkpt><trkpt lat="43.664857490589355" lon="11.636220594794931"><ele>1492.0</ele><time>2026-04-28T12:39:59.999Z</time></trkpt><trkpt lat="43.66486154042235" lon="11.636093559633517"><ele>1491.8</ele><time>2026-04-28T12:40:00.999Z</time></trkpt><trkpt lat="43.66486330817434" lon="11.635957539303002"><ele>1491.6</ele><time>2026-04-28T12:40:01.999Z</time></trkpt><trkpt lat="43.66485749628338" lon="11.635812307842588"><ele>1491.3999999999999</ele><time>2026-04-28T12:40:02.999Z</time></trkpt><trkpt lat="43.66485546571182" lon="11.635650426499758"><ele>1491.1999999999998</ele><time>2026-04-28T12:40:03.999Z</time></trkpt><trkpt lat="43.664863893732075" lon="11.635497449961404"><ele>1491.0</ele><time>2026-04-28T12:40:04.999Z</time></trkpt><trkpt lat="43.664881807590625" lon="11.63535937753974"><ele>1492.0</ele><time>2026-04-28T12:40:05.999Z</time></trkpt><trkpt lat="43.66490637872818" lon="11.6352179211032"><ele>1493.0</ele><time>2026-04-28T12:40:06.999Z</time></trkpt><trkpt lat="43.66493627545869" lon="11.635069359575944"><ele>1494.0</ele><time>2026-04-28T12:40:07.999Z</time></trkpt><trkpt lat="43.66496972206609" lon="11.6349285071877"><ele>1495.0</ele><time>2026-04-28T12:40:08.999Z</time></trkpt><trkpt lat="43.664996700054225" lon="11.634792131522195"><ele>1496.0</ele><time>2026-04-28T12:40:09.999Z</time></trkpt><trkpt lat="43.66501208329957" lon="11.634655022553451"><ele>1496.0</ele><time>2026-04-28T12:40:10.999Z</time></trkpt><trkpt lat="43.66501024192264" lon="11.634545353164809"><ele>1496.0</ele><time>2026-04-28T12:40:11.999Z</time></trkpt><trkpt lat="43.66500671991977" lon="11.634422905619207"><ele>1496.0</ele><time>2026-04-28T12:40:12.999Z</time></trkpt><trkpt lat="43.66500221282372" lon="11.634285025748413"><ele>1496.0</ele><time>2026-04-28T12:40:13.999Z</time></trkpt><trkpt lat="43.66499272185525" lon="11.634139759846608"><ele>1496.0</ele><time>2026-04-28T12:40:14.999Z</time></trkpt><trkpt lat="43.66498669728336" lon="11.634013061579052"><ele>1495.8</ele><time>2026-04-28T12:40:15.999Z</time></trkpt><trkpt lat="43.664979723102206" lon="11.633875639165192"><ele>1495.6</ele><time>2026-04-28T12:40:16.999Z</time></trkpt><trkpt lat="43.66498245489305" lon="11.63375229745618"><ele>1495.4</ele><time>2026-04-28T12:40:17.999Z</time></trkpt><trkpt lat="43.66499882348693" lon="11.633660965306435"><ele>1495.2</ele><time>2026-04-28T12:40:18.999Z</time></trkpt><trkpt lat="43.66502905814394" lon="11.633479818618795"><ele>1495.0</ele><time>2026-04-28T12:40:20.999Z</time></trkpt><trkpt lat="43.66506644497295" lon="11.633365065221883"><ele>1494.2</ele><time>2026-04-28T12:40:21.999Z</time></trkpt><trkpt lat="43.66511914591633" lon="11.633263399541345"><ele>1493.4</ele><time>2026-04-28T12:40:22.999Z</time></trkpt><trkpt lat="43.66516910111828" lon="11.633170180363626"><ele>1492.6</ele><time>2026-04-28T12:40:23.999Z</time></trkpt><trkpt lat="43.66520833836164" lon="11.633090297877079"><ele>1491.8</ele><time>2026-04-28T12:40:24.999Z</time></trkpt><trkpt lat="43.665272024403286" lon="11.63294878227981"><ele>1491.0</ele><time>2026-04-28T12:40:26.999Z</time></trkpt><trkpt lat="43.66532085361673" lon="11.63281672370244"><ele>1487.8</ele><time>2026-04-28T12:40:28.999Z</time></trkpt><trkpt lat="43.66536397799356" lon="11.6327246412291"><ele>1484.6</ele><time>2026-04-28T12:40:30.999Z</time></trkpt><trkpt lat="43.66540710368072" lon="11.63261295671094"><ele>1481.4</ele><time>2026-04-28T12:40:32.999Z</time></trkpt><trkpt lat="43.66544649109301" lon="11.632502393807052"><ele>1478.2</ele><time>2026-04-28T12:40:34.999Z</time></trkpt><trkpt lat="43.66548480587762" lon="11.632375419844214"><ele>1475.0</ele><time>2026-04-28T12:40:36.999Z</time></trkpt><trkpt lat="43.665509591004195" lon="11.632237096955874"><ele>1475.0</ele><time>2026-04-28T12:40:38.999Z</time></trkpt><trkpt lat="43.66551774618057" lon="11.632121117218803"><ele>1475.0</ele><time>2026-04-28T12:40:41Z</time></trkpt><trkpt lat="43.66549964144344" lon="11.631996278844394"><ele>1475.0</ele><time>2026-04-28T12:40:43Z</time></trkpt><trkpt lat="43.665479757404896" lon="11.63188509049797"><ele>1475.0</ele><time>2026-04-28T12:40:45Z</time></trkpt><trkpt lat="43.66546571395955" lon="11.63178854570584"><ele>1475.0</ele><time>2026-04-28T12:40:48Z</time></trkpt><trkpt lat="43.66546512832027" lon="11.631682347548532"><ele>1475.0</ele><time>2026-04-28T12:40:51Z</time></trkpt><trkpt lat="43.665483913423664" lon="11.631569560058683"><ele>1473.2</ele><time>2026-04-28T12:40:54Z</time></trkpt><trkpt lat="43.665497849439355" lon="11.631449467030553"><ele>1471.4</ele><time>2026-04-28T12:40:56Z</time></trkpt><trkpt lat="43.6655008972534" lon="11.631338447677287"><ele>1469.6</ele><time>2026-04-28T12:40:58Z</time></trkpt><trkpt lat="43.66550504573795" lon="11.631212171297008"><ele>1467.8</ele><time>2026-04-28T12:41:00Z</time></trkpt><trkpt lat="43.665551284691794" lon="11.63107387501531"><ele>1466.0</ele><time>2026-04-28T12:41:02Z</time></trkpt><trkpt lat="43.66561248597374" lon="11.630972023562874"><ele>1464.6666666666667</ele><time>2026-04-28T12:41:04Z</time></trkpt><trkpt lat="43.66565602981434" lon="11.630862900950788"><ele>1463.3333333333335</ele><time>2026-04-28T12:41:06Z</time></trkpt><trkpt lat="43.66571231720787" lon="11.630697069287821"><ele>1462.0</ele><time>2026-04-28T12:41:14Z</time></trkpt><trkpt lat="43.66573963171082" lon="11.630611270884936"><ele>1460.6666666666667</ele><time>2026-04-28T12:41:15Z</time></trkpt><trkpt lat="43.66577811669926" lon="11.63050963606616"><ele>1459.3333333333333</ele><time>2026-04-28T12:41:18Z</time></trkpt><trkpt lat="43.66579998296279" lon="11.630417249080912"><ele>1458.0</ele><time>2026-04-28T12:41:21Z</time></trkpt><trkpt lat="43.66581006224937" lon="11.630289707960177"><ele>1457.4</ele><time>2026-04-28T12:41:24Z</time></trkpt><trkpt lat="43.66579763668755" lon="11.630184814368189"><ele>1456.8000000000002</ele><time>2026-04-28T12:41:27Z</time></trkpt><trkpt lat="43.66580691475726" lon="11.630063573948147"><ele>1456.2</ele><time>2026-04-28T12:41:29Z</time></trkpt><trkpt lat="43.66579785091586" lon="11.629913932599472"><ele>1455.6</ele><time>2026-04-28T12:41:32Z</time></trkpt><trkpt lat="43.665783795094015" lon="11.629779796291809"><ele>1455.0</ele><time>2026-04-28T12:41:34.999Z</time></trkpt><trkpt lat="43.66579106049448" lon="11.62958854634745"><ele>1455.0</ele><time>2026-04-28T12:41:36.999Z</time></trkpt><trkpt lat="43.6657670346783" lon="11.629500285392817"><ele>1455.0</ele><time>2026-04-28T12:41:37.999Z</time></trkpt><trkpt lat="43.66577394393677" lon="11.62935572356578"><ele>1455.0</ele><time>2026-04-28T12:41:39.999Z</time></trkpt><trkpt lat="43.66577452271635" lon="11.629242688005624"><ele>1455.0</ele><time>2026-04-28T12:41:41.999Z</time></trkpt><trkpt lat="43.6658522089614" lon="11.629187867292655"><ele>1455.0</ele><time>2026-04-28T12:41:43.999Z</time></trkpt><trkpt lat="43.665875066334394" lon="11.629028069818625"><ele>1454.0</ele><time>2026-04-28T12:41:45.999Z</time></trkpt><trkpt lat="43.66587657254095" lon="11.628890474959066"><ele>1453.0</ele><time>2026-04-28T12:41:47.999Z</time></trkpt><trkpt lat="43.66589422823751" lon="11.62875561001908"><ele>1452.0</ele><time>2026-04-28T12:41:49.999Z</time></trkpt><trkpt lat="43.66592535174801" lon="11.628652723442936"><ele>1451.0</ele><time>2026-04-28T12:41:50.999Z</time></trkpt><trkpt lat="43.665936039656195" lon="11.628512478962872"><ele>1450.0</ele><time>2026-04-28T12:41:52.999Z</time></trkpt><trkpt lat="43.66593676400667" lon="11.62838293520187"><ele>1448.8333333333333</ele><time>2026-04-28T12:41:54.999Z</time></trkpt><trkpt lat="43.66595121260386" lon="11.628244666924637"><ele>1447.6666666666665</ele><time>2026-04-28T12:41:56.999Z</time></trkpt><trkpt lat="43.665967754301796" lon="11.628136613039954"><ele>1446.5</ele><time>2026-04-28T12:41:58.999Z</time></trkpt><trkpt lat="43.66598027772621" lon="11.628022315530217"><ele>1445.3333333333333</ele><time>2026-04-28T12:42:00.999Z</time></trkpt><trkpt lat="43.66599250804021" lon="11.627934720776938"><ele>1444.1666666666667</ele><time>2026-04-28T12:42:04.999Z</time></trkpt><trkpt lat="43.66601115629087" lon="11.627835695976039"><ele>1443.0</ele><time>2026-04-28T12:44:00.999Z</time></trkpt><trkpt lat="43.66605498113773" lon="11.627737362327965"><ele>1443.4</ele><time>2026-04-28T12:44:02.999Z</time></trkpt><trkpt lat="43.66610571812568" lon="11.627680887676723"><ele>1443.8000000000002</ele><time>2026-04-28T12:44:04.999Z</time></trkpt><trkpt lat="43.66616200942299" lon="11.627630458467097"><ele>1444.2</ele><time>2026-04-28T12:44:06.999Z</time></trkpt><trkpt lat="43.666263464219206" lon="11.627587841883358"><ele>1444.6</ele><time>2026-04-28T12:44:08.999Z</time></trkpt><trkpt lat="43.666369771471444" lon="11.627526390782684"><ele>1445.0</ele><time>2026-04-28T12:44:10.999Z</time></trkpt><trkpt lat="43.66647538232566" lon="11.62743542015842"><ele>1445.0</ele><time>2026-04-28T12:44:12.999Z</time></trkpt><trkpt lat="43.66656947019397" lon="11.627348196388699"><ele>1445.0</ele><time>2026-04-28T12:44:14.999Z</time></trkpt><trkpt lat="43.66667016350026" lon="11.627261923866891"><ele>1445.0</ele><time>2026-04-28T12:44:16.999Z</time></trkpt><trkpt lat="43.66672619151203" lon="11.627218497733383"><ele>1445.0</ele><time>2026-04-28T12:44:17.999Z</time></trkpt><trkpt lat="43.666789766215196" lon="11.627170249016801"><ele>1445.0</ele><time>2026-04-28T12:44:18.999Z</time></trkpt><trkpt lat="43.66684549746568" lon="11.627122174584777"><ele>1445.0</ele><time>2026-04-28T12:44:19.999Z</time></trkpt><trkpt lat="43.66692522168234" lon="11.62703045041042"><ele>1447.0</ele><time>2026-04-28T12:44:21.999Z</time></trkpt><trkpt lat="43.66700508623015" lon="11.626949251715246"><ele>1449.0</ele><time>2026-04-28T12:44:23.999Z</time></trkpt><trkpt lat="43.667098049120874" lon="11.626898787885454"><ele>1451.0</ele><time>2026-04-28T12:44:25.999Z</time></trkpt><trkpt lat="43.667181970203615" lon="11.62682544847275"><ele>1453.0</ele><time>2026-04-28T12:44:27.999Z</time></trkpt><trkpt lat="43.66725358056255" lon="11.626782193675318"><ele>1455.0</ele><time>2026-04-28T12:44:29.999Z</time></trkpt><trkpt lat="43.66730701347101" lon="11.626710896996414"><ele>1455.0</ele><time>2026-04-28T12:44:31.999Z</time></trkpt><trkpt lat="43.66735899811032" lon="11.626625223567537"><ele>1455.0</ele><time>2026-04-28T12:44:33.999Z</time></trkpt><trkpt lat="43.66741196412625" lon="11.626526017788771"><ele>1455.0</ele><time>2026-04-28T12:44:35.999Z</time></trkpt><trkpt lat="43.66750120198266" lon="11.626437568043329"><ele>1455.0</ele><time>2026-04-28T12:44:37.999Z</time></trkpt><trkpt lat="43.66758758503619" lon="11.62637262190818"><ele>1455.0</ele><time>2026-04-28T12:44:39.999Z</time></trkpt><trkpt lat="43.667650444592944" lon="11.626316373133085"><ele>1455.0</ele><time>2026-04-28T12:44:40.999Z</time></trkpt><trkpt lat="43.66771158556817" lon="11.626254855184976"><ele>1455.0</ele><time>2026-04-28T12:44:41.999Z</time></trkpt><trkpt lat="43.667765722006436" lon="11.626192007562906"><ele>1455.0</ele><time>2026-04-28T12:44:42.999Z</time></trkpt><trkpt lat="43.66784741858154" lon="11.62611626717867"><ele>1455.0</ele><time>2026-04-28T12:44:44.999Z</time></trkpt><trkpt lat="43.667879740956224" lon="11.62598317302004"><ele>1455.0</ele><time>2026-04-28T12:44:47.999Z</time></trkpt><trkpt lat="43.667949945009376" lon="11.625895272554168"><ele>1455.0</ele><time>2026-04-28T12:44:50.999Z</time></trkpt><trkpt lat="43.66801643891668" lon="11.625843057074547"><ele>1456.2</ele><time>2026-04-28T12:44:52Z</time></trkpt><trkpt lat="43.6680816750151" lon="11.625737344151778"><ele>1457.4</ele><time>2026-04-28T12:44:53Z</time></trkpt><trkpt lat="43.668200238937686" lon="11.625642342630092"><ele>1458.6</ele><time>2026-04-28T12:44:55Z</time></trkpt><trkpt lat="43.66826733495678" lon="11.625590144209763"><ele>1459.8</ele><time>2026-04-28T12:44:56Z</time></trkpt><trkpt lat="43.66834259783857" lon="11.62553917033579"><ele>1461.0</ele><time>2026-04-28T12:44:57Z</time></trkpt><trkpt lat="43.668412781443834" lon="11.62549441350858"><ele>1461.0</ele><time>2026-04-28T12:44:58Z</time></trkpt><trkpt lat="43.66853502972912" lon="11.625413862670552"><ele>1461.0</ele><time>2026-04-28T12:45:00Z</time></trkpt><trkpt lat="43.668602823464155" lon="11.625372925249748"><ele>1461.0</ele><time>2026-04-28T12:45:01Z</time></trkpt><trkpt lat="43.66866071646272" lon="11.625329895120279"><ele>1461.0</ele><time>2026-04-28T12:45:02Z</time></trkpt><trkpt lat="43.66871551642705" lon="11.625261775011678"><ele>1461.0</ele><time>2026-04-28T12:45:03Z</time></trkpt><trkpt lat="43.668770212861624" lon="11.625183034941665"><ele>1461.0</ele><time>2026-04-28T12:45:04Z</time></trkpt><trkpt lat="43.668816796849704" lon="11.625098415444349"><ele>1462.3333333333333</ele><time>2026-04-28T12:45:05Z</time></trkpt><trkpt lat="43.66889498334144" lon="11.625014548005634"><ele>1463.6666666666667</ele><time>2026-04-28T12:45:07Z</time></trkpt><trkpt lat="43.668958562605376" lon="11.624923839425373"><ele>1465.0</ele><time>2026-04-28T12:45:09Z</time></trkpt><trkpt lat="43.66902246860462" lon="11.624811337178615"><ele>1466.3333333333335</ele><time>2026-04-28T12:45:12Z</time></trkpt><trkpt lat="43.66903693907822" lon="11.624695366208387"><ele>1467.6666666666667</ele><time>2026-04-28T12:45:13Z</time></trkpt><trkpt lat="43.66901642902697" lon="11.6246130145486"><ele>1469.0</ele><time>2026-04-28T12:45:14Z</time></trkpt><trkpt lat="43.668987370234824" lon="11.624528419834897"><ele>1469.1666666666667</ele><time>2026-04-28T12:45:15Z</time></trkpt><trkpt lat="43.66898850527466" lon="11.624417708269297"><ele>1469.3333333333335</ele><time>2026-04-28T12:45:17Z</time></trkpt><trkpt lat="43.669037320127885" lon="11.624316703453536"><ele>1469.5</ele><time>2026-04-28T12:45:18Z</time></trkpt><trkpt lat="43.6690699023401" lon="11.624196580811981"><ele>1469.6666666666667</ele><time>2026-04-28T12:45:20Z</time></trkpt><trkpt lat="43.66913617824401" lon="11.624153152785087"><ele>1469.8333333333333</ele><time>2026-04-28T12:45:22Z</time></trkpt><trkpt lat="43.669206610826194" lon="11.624148534617396"><ele>1470.0</ele><time>2026-04-28T12:45:23Z</time></trkpt><trkpt lat="43.66931360831564" lon="11.624056565537689"><ele>1470.0</ele><time>2026-04-28T12:45:25Z</time></trkpt><trkpt lat="43.669421127555985" lon="11.623966695116163"><ele>1470.0</ele><time>2026-04-28T12:45:26Z</time></trkpt><trkpt lat="43.669554559098536" lon="11.623874207771625"><ele>1470.0</ele><time>2026-04-28T12:45:27Z</time></trkpt><trkpt lat="43.66964809469148" lon="11.623843115756236"><ele>1470.0</ele><time>2026-04-28T12:45:28Z</time></trkpt><trkpt lat="43.66972933694308" lon="11.623811879305991"><ele>1466.6666666666667</ele><time>2026-04-28T12:45:29Z</time></trkpt><trkpt lat="43.66981157924401" lon="11.623778497841315"><ele>1463.3333333333333</ele><time>2026-04-28T12:45:30Z</time></trkpt><trkpt lat="43.66989800602914" lon="11.62375258020547"><ele>1460.0</ele><time>2026-04-28T12:45:31Z</time></trkpt><trkpt lat="43.66998009086775" lon="11.623732131846587"><ele>1456.6666666666665</ele><time>2026-04-28T12:45:32Z</time></trkpt><trkpt lat="43.6700670187981" lon="11.623708830353305"><ele>1453.3333333333333</ele><time>2026-04-28T12:45:33Z</time></trkpt><trkpt lat="43.67014802445211" lon="11.623689913203325"><ele>1450.0</ele><time>2026-04-28T12:45:34Z</time></trkpt><trkpt lat="43.67023885271785" lon="11.623682830851417"><ele>1449.8</ele><time>2026-04-28T12:45:35Z</time></trkpt><trkpt lat="43.67032670903233" lon="11.62369377279487"><ele>1449.6</ele><time>2026-04-28T12:45:36Z</time></trkpt><trkpt lat="43.67041917070901" lon="11.623671839598464"><ele>1449.4</ele><time>2026-04-28T12:45:37Z</time></trkpt><trkpt lat="43.67051245464341" lon="11.623656831923642"><ele>1449.2</ele><time>2026-04-28T12:45:38Z</time></trkpt><trkpt lat="43.67059018818003" lon="11.623644465487775"><ele>1449.0</ele><time>2026-04-28T12:45:39Z</time></trkpt><trkpt lat="43.67070516477329" lon="11.623596423693211"><ele>1449.0</ele><time>2026-04-28T12:45:41Z</time></trkpt><trkpt lat="43.67076660038885" lon="11.62354446604328"><ele>1449.0</ele><time>2026-04-28T12:45:42Z</time></trkpt><trkpt lat="43.670840053291954" lon="11.62350231980185"><ele>1449.0</ele><time>2026-04-28T12:45:42.999Z</time></trkpt><trkpt lat="43.67092147966463" lon="11.623470647056825"><ele>1449.0</ele><time>2026-04-28T12:45:43.999Z</time></trkpt><trkpt lat="43.671007581960026" lon="11.623454682628298"><ele>1449.0</ele><time>2026-04-28T12:45:44.999Z</time></trkpt><trkpt lat="43.67111141186599" lon="11.623410799468473"><ele>1449.0</ele><time>2026-04-28T12:45:45.999Z</time></trkpt><trkpt lat="43.671209847618805" lon="11.62335003642545"><ele>1449.1666666666667</ele><time>2026-04-28T12:45:46.999Z</time></trkpt><trkpt lat="43.67128334748556" lon="11.62329358191151"><ele>1449.3333333333333</ele><time>2026-04-28T12:45:47.999Z</time></trkpt><trkpt lat="43.67135071119206" lon="11.623241006435787"><ele>1449.5</ele><time>2026-04-28T12:45:48.999Z</time></trkpt><trkpt lat="43.671431673002246" lon="11.623194780716366"><ele>1449.6666666666665</ele><time>2026-04-28T12:45:49.999Z</time></trkpt><trkpt lat="43.67152106741556" lon="11.623148251582336"><ele>1449.8333333333333</ele><time>2026-04-28T12:45:50.999Z</time></trkpt><trkpt lat="43.671584640884426" lon="11.62311135915964"><ele>1450.0</ele><time>2026-04-28T12:45:51.999Z</time></trkpt><trkpt lat="43.67167669938252" lon="11.623047341609551"><ele>1450.0</ele><time>2026-04-28T12:45:53.999Z</time></trkpt><trkpt lat="43.67170094525047" lon="11.622960913627992"><ele>1450.0</ele><time>2026-04-28T12:45:57.999Z</time></trkpt><trkpt lat="43.67173749641097" lon="11.622855949996884"><ele>1450.0</ele><time>2026-04-28T12:46:00.999Z</time></trkpt><trkpt lat="43.671871813368504" lon="11.62279849138003"><ele>1450.0</ele><time>2026-04-28T12:46:02.999Z</time></trkpt><trkpt lat="43.671971515790695" lon="11.622746821539454"><ele>1450.0</ele><time>2026-04-28T12:46:03.999Z</time></trkpt><trkpt lat="43.67204525454649" lon="11.622674869247481"><ele>1449.5714285714287</ele><time>2026-04-28T12:46:04.999Z</time></trkpt><trkpt lat="43.672091596243874" lon="11.622587003253527"><ele>1449.1428571428573</ele><time>2026-04-28T12:46:05.999Z</time></trkpt><trkpt lat="43.67213610720671" lon="11.62250022414738"><ele>1448.7142857142858</ele><time>2026-04-28T12:46:06.999Z</time></trkpt><trkpt lat="43.672182066197024" lon="11.622424163605102"><ele>1448.2857142857142</ele><time>2026-04-28T12:46:07.999Z</time></trkpt><trkpt lat="43.672227329617236" lon="11.622355484317293"><ele>1447.857142857143</ele><time>2026-04-28T12:46:08.999Z</time></trkpt><trkpt lat="43.67226624883409" lon="11.622271970820698"><ele>1447.4285714285713</ele><time>2026-04-28T12:46:09.999Z</time></trkpt><trkpt lat="43.672306105096496" lon="11.622183452065359"><ele>1447.0</ele><time>2026-04-28T12:46:10.999Z</time></trkpt><trkpt lat="43.67238292955088" lon="11.622035795118277"><ele>1446.6666666666665</ele><time>2026-04-28T12:46:12.999Z</time></trkpt><trkpt lat="43.67242334291453" lon="11.62195237498486"><ele>1446.3333333333333</ele><time>2026-04-28T12:46:13.999Z</time></trkpt><trkpt lat="43.672481397365" lon="11.621862078346062"><ele>1446.0</ele><time>2026-04-28T12:46:14.999Z</time></trkpt><trkpt lat="43.67256048224754" lon="11.62178497804079"><ele>1445.6666666666667</ele><time>2026-04-28T12:46:15.999Z</time></trkpt><trkpt lat="43.67263960606928" lon="11.621720483615114"><ele>1445.3333333333335</ele><time>2026-04-28T12:46:16.999Z</time></trkpt><trkpt lat="43.67272238682868" lon="11.621681288697427"><ele>1445.0</ele><time>2026-04-28T12:46:17.999Z</time></trkpt><trkpt lat="43.672817256171896" lon="11.621638194372366"><ele>1444.142857142857</ele><time>2026-04-28T12:46:18.999Z</time></trkpt><trkpt lat="43.672893986527384" lon="11.621598979724176"><ele>1443.2857142857142</ele><time>2026-04-28T12:46:19.999Z</time></trkpt><trkpt lat="43.67295889370193" lon="11.62156923161095"><ele>1442.4285714285716</ele><time>2026-04-28T12:46:20.999Z</time></trkpt><trkpt lat="43.673017822994304" lon="11.621537458141713"><ele>1441.5714285714284</ele><time>2026-04-28T12:46:21.999Z</time></trkpt><trkpt lat="43.67307648987645" lon="11.621495504821336"><ele>1440.7142857142858</ele><time>2026-04-28T12:46:22.999Z</time></trkpt><trkpt lat="43.67314116949006" lon="11.621454403676536"><ele>1439.857142857143</ele><time>2026-04-28T12:46:23.999Z</time></trkpt><trkpt lat="43.673213079523194" lon="11.621401194387706"><ele>1439.0</ele><time>2026-04-28T12:46:24.999Z</time></trkpt><trkpt lat="43.67329259467832" lon="11.621349643088621"><ele>1439.0</ele><time>2026-04-28T12:46:25.999Z</time></trkpt><trkpt lat="43.673389198282266" lon="11.621281307684926"><ele>1439.0</ele><time>2026-04-28T12:46:26.999Z</time></trkpt><trkpt lat="43.67349961134533" lon="11.621213657307033"><ele>1439.0</ele><time>2026-04-28T12:46:27.999Z</time></trkpt><trkpt lat="43.67359657698003" lon="11.621134846836668"><ele>1439.0</ele><time>2026-04-28T12:46:28.999Z</time></trkpt><trkpt lat="43.6736851235323" lon="11.621060814187514"><ele>1439.0</ele><time>2026-04-28T12:46:29.999Z</time></trkpt><trkpt lat="43.673759644023946" lon="11.62102574735687"><ele>1438.8333333333335</ele><time>2026-04-28T12:46:30.999Z</time></trkpt><trkpt lat="43.673828293052395" lon="11.620995591520442"><ele>1438.6666666666667</ele><time>2026-04-28T12:46:31.999Z</time></trkpt><trkpt lat="43.6739016552862" lon="11.620966960992567"><ele>1438.5</ele><time>2026-04-28T12:46:32.999Z</time></trkpt><trkpt lat="43.673988900856656" lon="11.62093370186185"><ele>1438.3333333333333</ele><time>2026-04-28T12:46:33.999Z</time></trkpt><trkpt lat="43.67406414494764" lon="11.62089584540522"><ele>1438.1666666666665</ele><time>2026-04-28T12:46:34.999Z</time></trkpt><trkpt lat="43.67413381586671" lon="11.620856147849185"><ele>1438.0</ele><time>2026-04-28T12:46:35.999Z</time></trkpt><trkpt lat="43.67419407995893" lon="11.620820201792055"><ele>1438.0</ele><time>2026-04-28T12:46:36.999Z</time></trkpt><trkpt lat="43.67426933908107" lon="11.620772010435973"><ele>1438.0</ele><time>2026-04-28T12:46:38.999Z</time></trkpt><trkpt lat="43.67433914451759" lon="11.620764027159494"><ele>1438.0</ele><time>2026-04-28T12:46:42.999Z</time></trkpt><trkpt lat="43.674433287678944" lon="11.620716398882523"><ele>1438.0</ele><time>2026-04-28T12:46:44.999Z</time></trkpt><trkpt lat="43.67453954710183" lon="11.620658566832901"><ele>1438.0</ele><time>2026-04-28T12:46:46.999Z</time></trkpt><trkpt lat="43.674616933524376" lon="11.620620086272993"><ele>1434.8000000000002</ele><time>2026-04-28T12:46:47.999Z</time></trkpt><trkpt lat="43.674707307073426" lon="11.620576711890665"><ele>1431.6</ele><time>2026-04-28T12:46:48.999Z</time></trkpt><trkpt lat="43.67479663329214" lon="11.620520574590856"><ele>1428.4</ele><time>2026-04-28T12:46:49.999Z</time></trkpt><trkpt lat="43.674888721115835" lon="11.620449680132019"><ele>1425.1999999999998</ele><time>2026-04-28T12:46:50.999Z</time></trkpt><trkpt lat="43.67498401317094" lon="11.62035482082834"><ele>1422.0</ele><time>2026-04-28T12:46:51.999Z</time></trkpt><trkpt lat="43.67506952796231" lon="11.620259277181182"><ele>1421.1666666666667</ele><time>2026-04-28T12:46:52.999Z</time></trkpt><trkpt lat="43.67513853807244" lon="11.620164525117588"><ele>1420.3333333333333</ele><time>2026-04-28T12:46:53.999Z</time></trkpt><trkpt lat="43.67519568353548" lon="11.620066328112369"><ele>1419.5</ele><time>2026-04-28T12:46:54.999Z</time></trkpt><trkpt lat="43.67525627337613" lon="11.61996110233083"><ele>1418.6666666666665</ele><time>2026-04-28T12:46:55.999Z</time></trkpt><trkpt lat="43.675310668554886" lon="11.619869357315483"><ele>1417.8333333333333</ele><time>2026-04-28T12:46:56.999Z</time></trkpt><trkpt lat="43.67535840777317" lon="11.619784275877382"><ele>1417.0</ele><time>2026-04-28T12:46:58Z</time></trkpt><trkpt lat="43.67539996886446" lon="11.61970033637709"><ele>1415.6</ele><time>2026-04-28T12:46:59Z</time></trkpt><trkpt lat="43.67546731509139" lon="11.619562393120065"><ele>1414.1999999999998</ele><time>2026-04-28T12:47:01Z</time></trkpt><trkpt lat="43.67552289432932" lon="11.619428415545972"><ele>1412.8</ele><time>2026-04-28T12:47:03Z</time></trkpt><trkpt lat="43.67556180296294" lon="11.619277705716307"><ele>1411.4</ele><time>2026-04-28T12:47:05Z</time></trkpt><trkpt lat="43.67557513440649" lon="11.619192338553141"><ele>1410.0</ele><time>2026-04-28T12:47:06Z</time></trkpt><trkpt lat="43.67559152353598" lon="11.619092809397745"><ele>1410.0</ele><time>2026-04-28T12:47:07Z</time></trkpt><trkpt lat="43.675611249677104" lon="11.61898175026086"><ele>1410.0</ele><time>2026-04-28T12:47:08Z</time></trkpt><trkpt lat="43.675628278390235" lon="11.618864663820354"><ele>1410.0</ele><time>2026-04-28T12:47:09Z</time></trkpt><trkpt lat="43.67564580558868" lon="11.618725373917673"><ele>1410.0</ele><time>2026-04-28T12:47:10Z</time></trkpt><trkpt lat="43.67567407104013" lon="11.61858610089061"><ele>1410.0</ele><time>2026-04-28T12:47:11Z</time></trkpt><trkpt lat="43.67570360410677" lon="11.61848542675912"><ele>1409.4</ele><time>2026-04-28T12:47:12Z</time></trkpt><trkpt lat="43.675727360416175" lon="11.618358487543256"><ele>1408.8</ele><time>2026-04-28T12:47:14Z</time></trkpt><trkpt lat="43.67575131718829" lon="11.618200028408124"><ele>1408.1999999999998</ele><time>2026-04-28T12:47:16Z</time></trkpt><trkpt lat="43.67577085018793" lon="11.618074694258281"><ele>1407.6</ele><time>2026-04-28T12:47:18Z</time></trkpt><trkpt lat="43.675788169999585" lon="11.61791838155405"><ele>1407.0</ele><time>2026-04-28T12:47:20Z</time></trkpt><trkpt lat="43.675801391350085" lon="11.617818671849669"><ele>1403.8333333333333</ele><time>2026-04-28T12:47:21Z</time></trkpt><trkpt lat="43.67582029627997" lon="11.617723972535403"><ele>1400.6666666666667</ele><time>2026-04-28T12:47:22Z</time></trkpt><trkpt lat="43.675839285621734" lon="11.617623915435747"><ele>1397.5</ele><time>2026-04-28T12:47:23Z</time></trkpt><trkpt lat="43.67586330291722" lon="11.617518223344947"><ele>1394.3333333333335</ele><time>2026-04-28T12:47:24Z</time></trkpt><trkpt lat="43.67590655916133" lon="11.61741098782386"><ele>1391.1666666666667</ele><time>2026-04-28T12:47:25Z</time></trkpt><trkpt lat="43.6759598093773" lon="11.617288582867335"><ele>1388.0</ele><time>2026-04-28T12:47:26Z</time></trkpt><trkpt lat="43.67603261908352" lon="11.617131666435801"><ele>1386.75</ele><time>2026-04-28T12:47:27Z</time></trkpt><trkpt lat="43.67609915043257" lon="11.61696451705558"><ele>1385.5</ele><time>2026-04-28T12:47:28Z</time></trkpt><trkpt lat="43.676166411001425" lon="11.616798147758216"><ele>1384.25</ele><time>2026-04-28T12:47:29Z</time></trkpt><trkpt lat="43.67624040643716" lon="11.616623120794644"><ele>1383.0</ele><time>2026-04-28T12:47:30Z</time></trkpt><trkpt lat="43.6763134540695" lon="11.616458213570475"><ele>1383.0</ele><time>2026-04-28T12:47:31Z</time></trkpt><trkpt lat="43.67637521466206" lon="11.616301000603784"><ele>1383.0</ele><time>2026-04-28T12:47:32Z</time></trkpt><trkpt lat="43.67642062766059" lon="11.616140339260804"><ele>1383.0</ele><time>2026-04-28T12:47:33Z</time></trkpt><trkpt lat="43.67645722391365" lon="11.615978090624054"><ele>1383.0</ele><time>2026-04-28T12:47:34Z</time></trkpt><trkpt lat="43.6764834458491" lon="11.615847068053615"><ele>1386.0</ele><time>2026-04-28T12:47:35Z</time></trkpt><trkpt lat="43.676505409325024" lon="11.615752970727051"><ele>1389.0</ele><time>2026-04-28T12:47:36Z</time></trkpt><trkpt lat="43.67659288488745" lon="11.615630329127244"><ele>1392.0</ele><time>2026-04-28T12:47:38Z</time></trkpt><trkpt lat="43.676650290383265" lon="11.615551198077213"><ele>1395.0</ele><time>2026-04-28T12:47:39Z</time></trkpt><trkpt lat="43.67671164003501" lon="11.615453061594986"><ele>1398.0</ele><time>2026-04-28T12:47:40Z</time></trkpt><trkpt lat="43.676790454259994" lon="11.615350534772983"><ele>1398.0</ele><time>2026-04-28T12:47:41Z</time></trkpt><trkpt lat="43.67687446352501" lon="11.615255025086933"><ele>1398.0</ele><time>2026-04-28T12:47:42Z</time></trkpt><trkpt lat="43.676972120505546" lon="11.615163502848873"><ele>1398.0</ele><time>2026-04-28T12:47:43Z</time></trkpt><trkpt lat="43.677076094628546" lon="11.615063725247913"><ele>1398.0</ele><time>2026-04-28T12:47:44Z</time></trkpt><trkpt lat="43.67718159398781" lon="11.614950964218401"><ele>1402.0</ele><time>2026-04-28T12:47:45Z</time></trkpt><trkpt lat="43.677275261641654" lon="11.614837520577996"><ele>1406.0</ele><time>2026-04-28T12:47:45.999Z</time></trkpt><trkpt lat="43.67735495449492" lon="11.614743358373481"><ele>1410.0</ele><time>2026-04-28T12:47:46.999Z</time></trkpt><trkpt lat="43.677426290769226" lon="11.614672445553522"><ele>1414.0</ele><time>2026-04-28T12:47:47.999Z</time></trkpt><trkpt lat="43.67751116340645" lon="11.614594208408072"><ele>1418.0</ele><time>2026-04-28T12:47:48.999Z</time></trkpt><trkpt lat="43.677607676084506" lon="11.614517880791851"><ele>1419.0</ele><time>2026-04-28T12:47:49.999Z</time></trkpt><trkpt lat="43.677705581350374" lon="11.614441429571018"><ele>1420.0</ele><time>2026-04-28T12:47:50.999Z</time></trkpt><trkpt lat="43.677808809913905" lon="11.614347803729668"><ele>1421.0</ele><time>2026-04-28T12:47:51.999Z</time></trkpt><trkpt lat="43.677904570164166" lon="11.614253053882678"><ele>1422.0</ele><time>2026-04-28T12:47:52.999Z</time></trkpt><trkpt lat="43.67800707157749" lon="11.614126881423594"><ele>1425.5</ele><time>2026-04-28T12:47:53.999Z</time></trkpt><trkpt lat="43.67810522427516" lon="11.613995264568347"><ele>1429.0</ele><time>2026-04-28T12:47:54.999Z</time></trkpt><trkpt lat="43.67820823045178" lon="11.613854819098874"><ele>1432.5</ele><time>2026-04-28T12:47:55.999Z</time></trkpt><trkpt lat="43.67830514467139" lon="11.613708752086113"><ele>1436.0</ele><time>2026-04-28T12:47:56.999Z</time></trkpt><trkpt lat="43.678391139727715" lon="11.613579959554016"><ele>1438.0</ele><time>2026-04-28T12:47:57.999Z</time></trkpt><trkpt lat="43.67847684659219" lon="11.613475759911537"><ele>1440.0</ele><time>2026-04-28T12:47:58.999Z</time></trkpt><trkpt lat="43.678551193298794" lon="11.613402286640582"><ele>1442.0</ele><time>2026-04-28T12:47:59.999Z</time></trkpt><trkpt lat="43.678657639225" lon="11.61332601031777"><ele>1444.0</ele><time>2026-04-28T12:48:01.999Z</time></trkpt><trkpt lat="43.67872292190269" lon="11.613302761897646"><ele>1446.0</ele><time>2026-04-28T12:48:02.999Z</time></trkpt><trkpt lat="43.6788048710127" lon="11.613282657560637"><ele>1446.75</ele><time>2026-04-28T12:48:03.999Z</time></trkpt><trkpt lat="43.67890779720495" lon="11.613252378650685"><ele>1447.5</ele><time>2026-04-28T12:48:04.999Z</time></trkpt><trkpt lat="43.67903399547412" lon="11.61321054905806"><ele>1448.25</ele><time>2026-04-28T12:48:05.999Z</time></trkpt><trkpt lat="43.679168016093946" lon="11.613172003762445"><ele>1449.0</ele><time>2026-04-28T12:48:06.999Z</time></trkpt><trkpt lat="43.67930012526409" lon="11.61313075720424"><ele>1449.0</ele><time>2026-04-28T12:48:07.999Z</time></trkpt><trkpt lat="43.67942486471921" lon="11.61308646637587"><ele>1449.0</ele><time>2026-04-28T12:48:08.999Z</time></trkpt><trkpt lat="43.67954879183433" lon="11.613046079222146"><ele>1449.0</ele><time>2026-04-28T12:48:09.999Z</time></trkpt><trkpt lat="43.679678196996505" lon="11.613012290765546"><ele>1449.0</ele><time>2026-04-28T12:48:10.999Z</time></trkpt><trkpt lat="43.67980207527286" lon="11.612986449323547"><ele>1449.8000000000002</ele><time>2026-04-28T12:48:11.999Z</time></trkpt><trkpt lat="43.679907520328214" lon="11.612978948311028"><ele>1450.6000000000001</ele><time>2026-04-28T12:48:12.999Z</time></trkpt><trkpt lat="43.680021221095714" lon="11.61296924677517"><ele>1451.4</ele><time>2026-04-28T12:48:13.999Z</time></trkpt><trkpt lat="43.68012683683285" lon="11.612948150678443"><ele>1452.2</ele><time>2026-04-28T12:48:14.999Z</time></trkpt><trkpt lat="43.680229907551684" lon="11.612918449529246"><ele>1453.0</ele><time>2026-04-28T12:48:15.999Z</time></trkpt><trkpt lat="43.68033222457151" lon="11.61288579868837"><ele>1453.6000000000001</ele><time>2026-04-28T12:48:16.999Z</time></trkpt><trkpt lat="43.680427464584454" lon="11.612853780918744"><ele>1454.2</ele><time>2026-04-28T12:48:17.999Z</time></trkpt><trkpt lat="43.68051652496886" lon="11.612809535989708"><ele>1454.8</ele><time>2026-04-28T12:48:18.999Z</time></trkpt><trkpt lat="43.680591994267154" lon="11.612741564107353"><ele>1455.4</ele><time>2026-04-28T12:48:19.999Z</time></trkpt><trkpt lat="43.680655220409626" lon="11.612638587116743"><ele>1456.0</ele><time>2026-04-28T12:48:20.999Z</time></trkpt><trkpt lat="43.6807116113504" lon="11.612508683774488"><ele>1459.0</ele><time>2026-04-28T12:48:21.999Z</time></trkpt><trkpt lat="43.68073824432493" lon="11.612399753705871"><ele>1462.0</ele><time>2026-04-28T12:48:22.999Z</time></trkpt><trkpt lat="43.680822215838695" lon="11.61232640442807"><ele>1465.0</ele><time>2026-04-28T12:48:23.999Z</time></trkpt><trkpt lat="43.68090000254446" lon="11.612242190002492"><ele>1468.0</ele><time>2026-04-28T12:48:24.999Z</time></trkpt><trkpt lat="43.6809919197458" lon="11.612148494636932"><ele>1471.0</ele><time>2026-04-28T12:48:25.999Z</time></trkpt><trkpt lat="43.68108724611569" lon="11.612063254536798"><ele>1471.3333333333333</ele><time>2026-04-28T12:48:26.999Z</time></trkpt><trkpt lat="43.681171139977636" lon="11.612000185955893"><ele>1471.6666666666665</ele><time>2026-04-28T12:48:27.999Z</time></trkpt><trkpt lat="43.68127064296923" lon="11.611981980900945"><ele>1472.0</ele><time>2026-04-28T12:48:29.999Z</time></trkpt><trkpt lat="43.68134892367871" lon="11.611973642072808"><ele>1472.3333333333333</ele><time>2026-04-28T12:48:30.999Z</time></trkpt><trkpt lat="43.681425430561504" lon="11.611969090840015"><ele>1472.6666666666667</ele><time>2026-04-28T12:48:31.999Z</time></trkpt><trkpt lat="43.68150423056804" lon="11.611910637241337"><ele>1473.0</ele><time>2026-04-28T12:48:32.999Z</time></trkpt><trkpt lat="43.68158545275761" lon="11.611870841848786"><ele>1474.5</ele><time>2026-04-28T12:48:33.999Z</time></trkpt><trkpt lat="43.68166272264922" lon="11.611849629995856"><ele>1476.0</ele><time>2026-04-28T12:48:34.999Z</time></trkpt><trkpt lat="43.68173140246315" lon="11.611819532601887"><ele>1477.5</ele><time>2026-04-28T12:48:35.999Z</time></trkpt><trkpt lat="43.681836690428796" lon="11.6117692754099"><ele>1479.0</ele><time>2026-04-28T12:48:37.999Z</time></trkpt><trkpt lat="43.6819228735002" lon="11.611782823387596"><ele>1480.5</ele><time>2026-04-28T12:48:39.999Z</time></trkpt><trkpt lat="43.6820110810148" lon="11.611717218973203"><ele>1482.0</ele><time>2026-04-28T12:48:42.999Z</time></trkpt><trkpt lat="43.68209681711129" lon="11.611623772746901"><ele>1482.6</ele><time>2026-04-28T12:48:44.999Z</time></trkpt><trkpt lat="43.682162515245516" lon="11.611574780366613"><ele>1483.1999999999998</ele><time>2026-04-28T12:48:45.999Z</time></trkpt><trkpt lat="43.6822461797078" lon="11.611533834032839"><ele>1483.8</ele><time>2026-04-28T12:48:46.999Z</time></trkpt><trkpt lat="43.68234459698341" lon="11.61151081921429"><ele>1484.4</ele><time>2026-04-28T12:48:47.999Z</time></trkpt><trkpt lat="43.682452822691396" lon="11.611481042090057"><ele>1485.0</ele><time>2026-04-28T12:48:48.999Z</time></trkpt><trkpt lat="43.68257047933631" lon="11.611435991472439"><ele>1485.0</ele><time>2026-04-28T12:48:49.999Z</time></trkpt><trkpt lat="43.68269214022629" lon="11.611392989278194"><ele>1485.0</ele><time>2026-04-28T12:48:50.999Z</time></trkpt><trkpt lat="43.68280867745901" lon="11.611349784991958"><ele>1485.0</ele><time>2026-04-28T12:48:51.999Z</time></trkpt><trkpt lat="43.68292588473753" lon="11.611299959803027"><ele>1485.0</ele><time>2026-04-28T12:48:52.999Z</time></trkpt><trkpt lat="43.683049932144264" lon="11.611243091803818"><ele>1486.5</ele><time>2026-04-28T12:48:53.999Z</time></trkpt><trkpt lat="43.68317534243559" lon="11.611181039946967"><ele>1488.0</ele><time>2026-04-28T12:48:54.999Z</time></trkpt><trkpt lat="43.683302652880506" lon="11.611100520515793"><ele>1489.5</ele><time>2026-04-28T12:48:55.999Z</time></trkpt><trkpt lat="43.68343050272008" lon="11.61100993958349"><ele>1491.0</ele><time>2026-04-28T12:48:56.999Z</time></trkpt><trkpt lat="43.683553634906815" lon="11.610929963668555"><ele>1493.6666666666667</ele><time>2026-04-28T12:48:57.999Z</time></trkpt><trkpt lat="43.68364522617033" lon="11.610858584285957"><ele>1496.3333333333333</ele><time>2026-04-28T12:48:58.999Z</time></trkpt><trkpt lat="43.683707837670454" lon="11.610810088950979"><ele>1499.0</ele><time>2026-04-28T12:48:59.999Z</time></trkpt><trkpt lat="43.683768003387385" lon="11.61077126506356"><ele>1501.6666666666665</ele><time>2026-04-28T12:49:01.998Z</time></trkpt><trkpt lat="43.68382149159732" lon="11.610634041714178"><ele>1504.3333333333333</ele><time>2026-04-28T12:49:05Z</time></trkpt><trkpt lat="43.68385901557269" lon="11.610524165869853"><ele>1507.0</ele><time>2026-04-28T12:49:06Z</time></trkpt><trkpt lat="43.68391655780496" lon="11.610373843644785"><ele>1509.25</ele><time>2026-04-28T12:49:07Z</time></trkpt><trkpt lat="43.68397904232058" lon="11.61021758666991"><ele>1511.5</ele><time>2026-04-28T12:49:08Z</time></trkpt><trkpt lat="43.68404027129367" lon="11.610070452539548"><ele>1513.75</ele><time>2026-04-28T12:49:09Z</time></trkpt><trkpt lat="43.684122927942234" lon="11.609922644152157"><ele>1516.0</ele><time>2026-04-28T12:49:10Z</time></trkpt><trkpt lat="43.68422601601974" lon="11.609802788595742"><ele>1516.0</ele><time>2026-04-28T12:49:11Z</time></trkpt><trkpt lat="43.684340236337604" lon="11.609699792660317"><ele>1516.0</ele><time>2026-04-28T12:49:12Z</time></trkpt><trkpt lat="43.684458728962895" lon="11.609598084957165"><ele>1516.0</ele><time>2026-04-28T12:49:13Z</time></trkpt><trkpt lat="43.684573409334014" lon="11.60949854343055"><ele>1516.0</ele><time>2026-04-28T12:49:14Z</time></trkpt><trkpt lat="43.68468621837556" lon="11.609394128746926"><ele>1517.5</ele><time>2026-04-28T12:49:15Z</time></trkpt><trkpt lat="43.684787317075475" lon="11.609285462584358"><ele>1519.0</ele><time>2026-04-28T12:49:16Z</time></trkpt><trkpt lat="43.68488589792506" lon="11.609168421775372"><ele>1520.5</ele><time>2026-04-28T12:49:17Z</time></trkpt><trkpt lat="43.68498476958521" lon="11.609042934067524"><ele>1522.0</ele><time>2026-04-28T12:49:18Z</time></trkpt><trkpt lat="43.6850583657921" lon="11.608937232343616"><ele>1522.0</ele><time>2026-04-28T12:49:19Z</time></trkpt><trkpt lat="43.68510820503394" lon="11.608864761675596"><ele>1522.0</ele><time>2026-04-28T12:49:20Z</time></trkpt><trkpt lat="43.685161097074534" lon="11.608792775388602"><ele>1522.0</ele><time>2026-04-28T12:49:21Z</time></trkpt><trkpt lat="43.685224043758794" lon="11.60874126675801"><ele>1522.0</ele><time>2026-04-28T12:49:23Z</time></trkpt><trkpt lat="43.68529569794508" lon="11.60880337319795"><ele>1522.0</ele><time>2026-04-28T12:50:31.999Z</time></trkpt><trkpt lat="43.68535908427509" lon="11.608821233361141"><ele>1522.0</ele><time>2026-04-28T12:50:32.999Z</time></trkpt><trkpt lat="43.68545105146496" lon="11.608932233589124"><ele>1520.5714285714284</ele><time>2026-04-28T12:50:34.999Z</time></trkpt><trkpt lat="43.68550930095546" lon="11.608977642346842"><ele>1519.142857142857</ele><time>2026-04-28T12:50:35.999Z</time></trkpt><trkpt lat="43.68556844722938" lon="11.60902736669431"><ele>1517.7142857142858</ele><time>2026-04-28T12:50:36.999Z</time></trkpt><trkpt lat="43.68562563583019" lon="11.609077546599762"><ele>1516.2857142857142</ele><time>2026-04-28T12:50:37.999Z</time></trkpt><trkpt lat="43.68568274828624" lon="11.609125614129344"><ele>1514.857142857143</ele><time>2026-04-28T12:50:38.999Z</time></trkpt><trkpt lat="43.6857475252046" lon="11.609176538726674"><ele>1513.4285714285713</ele><time>2026-04-28T12:50:39.999Z</time></trkpt><trkpt lat="43.685814515237766" lon="11.609233336546273"><ele>1512.0</ele><time>2026-04-28T12:50:40.999Z</time></trkpt><trkpt lat="43.68588457879414" lon="11.609296830440961"><ele>1512.0</ele><time>2026-04-28T12:50:41.999Z</time></trkpt><trkpt lat="43.6859581556082" lon="11.609361249086751"><ele>1512.0</ele><time>2026-04-28T12:50:42.999Z</time></trkpt><trkpt lat="43.6860320368306" lon="11.609424676999245"><ele>1512.0</ele><time>2026-04-28T12:50:43.999Z</time></trkpt><trkpt lat="43.68610511540567" lon="11.609473650847487"><ele>1512.0</ele><time>2026-04-28T12:50:44.999Z</time></trkpt><trkpt lat="43.68618380815601" lon="11.609514001520873"><ele>1512.0</ele><time>2026-04-28T12:50:45.999Z</time></trkpt><trkpt lat="43.686264230350076" lon="11.609558368586724"><ele>1512.0</ele><time>2026-04-28T12:50:46.999Z</time></trkpt><trkpt lat="43.68634780071971" lon="11.609618098991573"><ele>1507.6</ele><time>2026-04-28T12:50:47.999Z</time></trkpt><trkpt lat="43.686417926161695" lon="11.60970576210489"><ele>1503.1999999999998</ele><time>2026-04-28T12:50:48.999Z</time></trkpt><trkpt lat="43.686490778845446" lon="11.609775779124883"><ele>1498.8</ele><time>2026-04-28T12:50:49.999Z</time></trkpt><trkpt lat="43.68656814424121" lon="11.609847621896217"><ele>1494.4</ele><time>2026-04-28T12:50:50.999Z</time></trkpt><trkpt lat="43.6866497761697" lon="11.609915100452191"><ele>1490.0</ele><time>2026-04-28T12:50:51.999Z</time></trkpt><trkpt lat="43.686730990127344" lon="11.609983563076309"><ele>1490.0</ele><time>2026-04-28T12:50:52.999Z</time></trkpt><trkpt lat="43.68681379525745" lon="11.610058098305565"><ele>1490.0</ele><time>2026-04-28T12:50:53.999Z</time></trkpt><trkpt lat="43.686887960469505" lon="11.610123136057021"><ele>1490.0</ele><time>2026-04-28T12:50:54.999Z</time></trkpt><trkpt lat="43.686961406658135" lon="11.610179450979663"><ele>1490.0</ele><time>2026-04-28T12:50:55.999Z</time></trkpt><trkpt lat="43.68701643817758" lon="11.610224322915645"><ele>1490.0</ele><time>2026-04-28T12:50:56.999Z</time></trkpt><trkpt lat="43.68707111394344" lon="11.610272674490698"><ele>1490.0</ele><time>2026-04-28T12:50:58.999Z</time></trkpt><trkpt lat="43.687123294456036" lon="11.610328861783493"><ele>1488.0</ele><time>2026-04-28T12:51:12Z</time></trkpt><trkpt lat="43.687203823327984" lon="11.610391999126676"><ele>1486.0</ele><time>2026-04-28T12:51:14Z</time></trkpt><trkpt lat="43.68727564048203" lon="11.610434119217464"><ele>1484.0</ele><time>2026-04-28T12:51:15Z</time></trkpt><trkpt lat="43.6873665839458" lon="11.610491363779746"><ele>1482.0</ele><time>2026-04-28T12:51:16Z</time></trkpt><trkpt lat="43.68747003259991" lon="11.61054649131018"><ele>1480.0</ele><time>2026-04-28T12:51:17Z</time></trkpt><trkpt lat="43.68758210570842" lon="11.610594640975737"><ele>1480.0</ele><time>2026-04-28T12:51:18Z</time></trkpt><trkpt lat="43.687686740798135" lon="11.61062959172039"><ele>1480.0</ele><time>2026-04-28T12:51:19Z</time></trkpt><trkpt lat="43.68778758700255" lon="11.610660143019388"><ele>1480.0</ele><time>2026-04-28T12:51:20Z</time></trkpt><trkpt lat="43.687871474798996" lon="11.610700308723148"><ele>1480.0</ele><time>2026-04-28T12:51:21Z</time></trkpt><trkpt lat="43.68794099929434" lon="11.610742515863"><ele>1480.0</ele><time>2026-04-28T12:51:22Z</time></trkpt><trkpt lat="43.68804793464579" lon="11.610800095601139"><ele>1478.8</ele><time>2026-04-28T12:51:24Z</time></trkpt><trkpt lat="43.688159157075034" lon="11.610831551704758"><ele>1477.6</ele><time>2026-04-28T12:51:26Z</time></trkpt><trkpt lat="43.68826093175252" lon="11.610869839349707"><ele>1476.4</ele><time>2026-04-28T12:51:28Z</time></trkpt><trkpt lat="43.688351056966006" lon="11.61090623090289"><ele>1475.2</ele><time>2026-04-28T12:51:29Z</time></trkpt><trkpt lat="43.68844740443153" lon="11.610943275864216"><ele>1474.0</ele><time>2026-04-28T12:51:30Z</time></trkpt><trkpt lat="43.68853038587586" lon="11.610972336730395"><ele>1471.4</ele><time>2026-04-28T12:51:31Z</time></trkpt><trkpt lat="43.688604628815526" lon="11.610987965510052"><ele>1468.8000000000002</ele><time>2026-04-28T12:51:32Z</time></trkpt><trkpt lat="43.68869273016386" lon="11.610997023345261"><ele>1466.1999999999998</ele><time>2026-04-28T12:51:33Z</time></trkpt><trkpt lat="43.688801268270865" lon="11.611001606585672"><ele>1463.6</ele><time>2026-04-28T12:51:34Z</time></trkpt><trkpt lat="43.688914422283226" lon="11.611019829185372"><ele>1461.0</ele><time>2026-04-28T12:51:35Z</time></trkpt><trkpt lat="43.689031865794604" lon="11.611058987993594"><ele>1461.0</ele><time>2026-04-28T12:51:36Z</time></trkpt><trkpt lat="43.68915461751569" lon="11.611110786278521"><ele>1461.0</ele><time>2026-04-28T12:51:37Z</time></trkpt><trkpt lat="43.68927843796741" lon="11.61116364746317"><ele>1461.0</ele><time>2026-04-28T12:51:38Z</time></trkpt><trkpt lat="43.68940655751962" lon="11.611224788186917"><ele>1461.0</ele><time>2026-04-28T12:51:39Z</time></trkpt><trkpt lat="43.689535104755116" lon="11.611283705165818"><ele>1459.6</ele><time>2026-04-28T12:51:40Z</time></trkpt><trkpt lat="43.68964297550288" lon="11.611318392234889"><ele>1458.1999999999998</ele><time>2026-04-28T12:51:41Z</time></trkpt><trkpt lat="43.68973281878778" lon="11.611341996818823"><ele>1456.8000000000002</ele><time>2026-04-28T12:51:42Z</time></trkpt><trkpt lat="43.68980613831687" lon="11.611366224150103"><ele>1455.4</ele><time>2026-04-28T12:51:43Z</time></trkpt><trkpt lat="43.68989040491085" lon="11.611400712877806"><ele>1454.0</ele><time>2026-04-28T12:51:44Z</time></trkpt><trkpt lat="43.68998543979704" lon="11.611452232074946"><ele>1454.0</ele><time>2026-04-28T12:51:45Z</time></trkpt><trkpt lat="43.690065500755885" lon="11.611521725891775"><ele>1454.0</ele><time>2026-04-28T12:51:46Z</time></trkpt><trkpt lat="43.69014146596931" lon="11.611609932613812"><ele>1454.0</ele><time>2026-04-28T12:51:47Z</time></trkpt><trkpt lat="43.69020915126272" lon="11.61169096982264"><ele>1454.0</ele><time>2026-04-28T12:51:48Z</time></trkpt><trkpt lat="43.69027372768703" lon="11.611764843343433"><ele>1454.0</ele><time>2026-04-28T12:51:49Z</time></trkpt><trkpt lat="43.69034528510988" lon="11.611835948138758"><ele>1453.0</ele><time>2026-04-28T12:51:50Z</time></trkpt><trkpt lat="43.69042179876086" lon="11.611892775127108"><ele>1452.0</ele><time>2026-04-28T12:51:51Z</time></trkpt><trkpt lat="43.690509153808165" lon="11.611938569283197"><ele>1451.0</ele><time>2026-04-28T12:51:52Z</time></trkpt><trkpt lat="43.69058692186224" lon="11.611970971498685"><ele>1450.0</ele><time>2026-04-28T12:51:53Z</time></trkpt><trkpt lat="43.69067658555157" lon="11.611981220462146"><ele>1449.0</ele><time>2026-04-28T12:51:54Z</time></trkpt><trkpt lat="43.69077888622887" lon="11.61199434106339"><ele>1449.0</ele><time>2026-04-28T12:51:55Z</time></trkpt><trkpt lat="43.69087396183502" lon="11.612008755767116"><ele>1449.0</ele><time>2026-04-28T12:51:56Z</time></trkpt><trkpt lat="43.6909640056142" lon="11.612006865617953"><ele>1449.0</ele><time>2026-04-28T12:51:57Z</time></trkpt><trkpt lat="43.69105312896075" lon="11.611983075673356"><ele>1449.0</ele><time>2026-04-28T12:51:58Z</time></trkpt><trkpt lat="43.69115633353986" lon="11.611947254431358"><ele>1449.0</ele><time>2026-04-28T12:51:59Z</time></trkpt><trkpt lat="43.69126432567585" lon="11.61190622203652"><ele>1450.5</ele><time>2026-04-28T12:52:00Z</time></trkpt><trkpt lat="43.69138144275257" lon="11.611863302123929"><ele>1452.0</ele><time>2026-04-28T12:52:00.999Z</time></trkpt><trkpt lat="43.691498435925745" lon="11.611827197717936"><ele>1453.5</ele><time>2026-04-28T12:52:01.999Z</time></trkpt><trkpt lat="43.69161297365983" lon="11.611782893488261"><ele>1455.0</ele><time>2026-04-28T12:52:02.999Z</time></trkpt><trkpt lat="43.691732479897006" lon="11.611721774498669"><ele>1455.0</ele><time>2026-04-28T12:52:03.999Z</time></trkpt><trkpt lat="43.69185273740229" lon="11.611655030481732"><ele>1455.0</ele><time>2026-04-28T12:52:04.999Z</time></trkpt><trkpt lat="43.69197198631096" lon="11.611587370992323"><ele>1455.0</ele><time>2026-04-28T12:52:05.999Z</time></trkpt><trkpt lat="43.69208682558899" lon="11.6115291707261"><ele>1455.0</ele><time>2026-04-28T12:52:06.999Z</time></trkpt><trkpt lat="43.69219944001491" lon="11.611469316613922"><ele>1455.2</ele><time>2026-04-28T12:52:07.999Z</time></trkpt><trkpt lat="43.69231463741067" lon="11.611396669951997"><ele>1455.4</ele><time>2026-04-28T12:52:08.999Z</time></trkpt><trkpt lat="43.69241274294494" lon="11.611325791914638"><ele>1455.6</ele><time>2026-04-28T12:52:09.999Z</time></trkpt><trkpt lat="43.69250360460993" lon="11.611265494619984"><ele>1455.8</ele><time>2026-04-28T12:52:10.999Z</time></trkpt><trkpt lat="43.69258473245896" lon="11.61120212906703"><ele>1456.0</ele><time>2026-04-28T12:52:11.999Z</time></trkpt><trkpt lat="43.69265695496089" lon="11.611117894771764"><ele>1456.0</ele><time>2026-04-28T12:52:12.999Z</time></trkpt><trkpt lat="43.6927343741875" lon="11.611042535420996"><ele>1456.0</ele><time>2026-04-28T12:52:13.999Z</time></trkpt><trkpt lat="43.69281776192609" lon="11.610993577713572"><ele>1456.0</ele><time>2026-04-28T12:52:14.999Z</time></trkpt><trkpt lat="43.69290993805484" lon="11.610963502617471"><ele>1456.0</ele><time>2026-04-28T12:52:15.999Z</time></trkpt><trkpt lat="43.69302165589487" lon="11.610939615410478"><ele>1456.0</ele><time>2026-04-28T12:52:16.999Z</time></trkpt><trkpt lat="43.69313680835851" lon="11.610910598580737"><ele>1457.1999999999998</ele><time>2026-04-28T12:52:17.999Z</time></trkpt><trkpt lat="43.69323554357967" lon="11.610879308818365"><ele>1458.3999999999999</ele><time>2026-04-28T12:52:18.999Z</time></trkpt><trkpt lat="43.693323500851704" lon="11.61084914590095"><ele>1459.6</ele><time>2026-04-28T12:52:19.999Z</time></trkpt><trkpt lat="43.69339322732567" lon="11.610828741038128"><ele>1460.8</ele><time>2026-04-28T12:52:20.999Z</time></trkpt><trkpt lat="43.69350318208573" lon="11.61079890565605"><ele>1462.0</ele><time>2026-04-28T12:52:22.999Z</time></trkpt><trkpt lat="43.6936351566736" lon="11.6107973609575"><ele>1459.8333333333333</ele><time>2026-04-28T12:52:24.999Z</time></trkpt><trkpt lat="43.693716689003566" lon="11.610827283268442"><ele>1457.6666666666665</ele><time>2026-04-28T12:52:25.999Z</time></trkpt><trkpt lat="43.693792163605494" lon="11.61086674765004"><ele>1455.5</ele><time>2026-04-28T12:52:26.999Z</time></trkpt><trkpt lat="43.69387272891025" lon="11.610893684743901"><ele>1453.3333333333333</ele><time>2026-04-28T12:52:27.999Z</time></trkpt><trkpt lat="43.69395671488997" lon="11.610909920601722"><ele>1451.1666666666667</ele><time>2026-04-28T12:52:28.999Z</time></trkpt><trkpt lat="43.69404600416207" lon="11.610921044217077"><ele>1449.0</ele><time>2026-04-28T12:52:29.999Z</time></trkpt><trkpt lat="43.69414010058719" lon="11.610940459447377"><ele>1449.0</ele><time>2026-04-28T12:52:30.999Z</time></trkpt><trkpt lat="43.694232960687806" lon="11.61096237628565"><ele>1449.0</ele><time>2026-04-28T12:52:31.999Z</time></trkpt><trkpt lat="43.69433134213971" lon="11.610981064840134"><ele>1449.0</ele><time>2026-04-28T12:52:32.999Z</time></trkpt><trkpt lat="43.694426195984825" lon="11.611036019699224"><ele>1449.0</ele><time>2026-04-28T12:52:33.999Z</time></trkpt><trkpt lat="43.69452514137897" lon="11.611096903697593"><ele>1449.0</ele><time>2026-04-28T12:52:34.999Z</time></trkpt><trkpt lat="43.6946309580463" lon="11.611137318404033"><ele>1446.8000000000002</ele><time>2026-04-28T12:52:35.999Z</time></trkpt><trkpt lat="43.694736563721364" lon="11.611151047080778"><ele>1444.6000000000001</ele><time>2026-04-28T12:52:36.999Z</time></trkpt><trkpt lat="43.69482321170415" lon="11.611166980713737"><ele>1442.4</ele><time>2026-04-28T12:52:37.999Z</time></trkpt><trkpt lat="43.69489889478577" lon="11.611195664636634"><ele>1440.2</ele><time>2026-04-28T12:52:38.999Z</time></trkpt><trkpt lat="43.69500187290212" lon="11.61126004154079"><ele>1438.0</ele><time>2026-04-28T12:52:40.999Z</time></trkpt><trkpt lat="43.695068785538844" lon="11.611245753223393"><ele>1438.0</ele><time>2026-04-28T12:52:42.999Z</time></trkpt><trkpt lat="43.695116457582856" lon="11.61115185611417"><ele>1438.0</ele><time>2026-04-28T12:52:45.999Z</time></trkpt><trkpt lat="43.6951265082809" lon="11.611037056520319"><ele>1438.0</ele><time>2026-04-28T12:52:47.999Z</time></trkpt><trkpt lat="43.69514142487715" lon="11.610880367464544"><ele>1438.0</ele><time>2026-04-28T12:52:49.999Z</time></trkpt><trkpt lat="43.69513298464257" lon="11.610780525000258"><ele>1438.0</ele><time>2026-04-28T12:52:50.999Z</time></trkpt><trkpt lat="43.69510565072469" lon="11.610676613256695"><ele>1438.0</ele><time>2026-04-28T12:52:51.999Z</time></trkpt><trkpt lat="43.695077767279244" lon="11.61057322949546"><ele>1437.9999999999998</ele><time>2026-04-28T12:52:52.999Z</time></trkpt><trkpt lat="43.69507388797969" lon="11.610479085883338"><ele>1438.0</ele><time>2026-04-28T12:52:53.999Z</time></trkpt><trkpt lat="43.69510154047614" lon="11.610388373653771"><ele>1438.0</ele><time>2026-04-28T12:52:54.999Z</time></trkpt><trkpt lat="43.695154333600314" lon="11.610332899791032"><ele>1438.0</ele><time>2026-04-28T12:52:55.999Z</time></trkpt><trkpt lat="43.69521733450114" lon="11.610277662282147"><ele>1438.0</ele><time>2026-04-28T12:52:56.999Z</time></trkpt><trkpt lat="43.695285027016254" lon="11.61022991187894"><ele>1437.9999999999998</ele><time>2026-04-28T12:52:57.999Z</time></trkpt><trkpt lat="43.6953535404851" lon="11.61017609411634"><ele>1438.0</ele><time>2026-04-28T12:52:58.999Z</time></trkpt><trkpt lat="43.695411419794574" lon="11.610117410177864"><ele>1435.4285714285713</ele><time>2026-04-28T12:52:59.999Z</time></trkpt><trkpt lat="43.6954669741752" lon="11.610063880478174"><ele>1432.857142857143</ele><time>2026-04-28T12:53:00.999Z</time></trkpt><trkpt lat="43.69553133662692" lon="11.610009413179542"><ele>1430.2857142857142</ele><time>2026-04-28T12:53:01.999Z</time></trkpt><trkpt lat="43.69559093563243" lon="11.609955696565516"><ele>1427.7142857142858</ele><time>2026-04-28T12:53:02.999Z</time></trkpt><trkpt lat="43.69565540168409" lon="11.609899042811753"><ele>1425.142857142857</ele><time>2026-04-28T12:53:03.999Z</time></trkpt><trkpt lat="43.69572674003863" lon="11.609860537739385"><ele>1422.5714285714284</ele><time>2026-04-28T12:53:04.999Z</time></trkpt><trkpt lat="43.695801281128425" lon="11.609834485189388"><ele>1420.0</ele><time>2026-04-28T12:53:05.999Z</time></trkpt><trkpt lat="43.69587494690232" lon="11.609811798313293"><ele>1420.0</ele><time>2026-04-28T12:53:06.999Z</time></trkpt><trkpt lat="43.69594635122297" lon="11.609800862160258"><ele>1420.0</ele><time>2026-04-28T12:53:07.999Z</time></trkpt><trkpt lat="43.69601333628907" lon="11.609795680513301"><ele>1420.0</ele><time>2026-04-28T12:53:08.999Z</time></trkpt><trkpt lat="43.69608303540155" lon="11.609790145549471"><ele>1420.0</ele><time>2026-04-28T12:53:09.999Z</time></trkpt><trkpt lat="43.69622651781014" lon="11.609757240594568"><ele>1420.0</ele><time>2026-04-28T12:53:11.999Z</time></trkpt><trkpt lat="43.69630294640744" lon="11.609744916694172"><ele>1420.0</ele><time>2026-04-28T12:53:12.999Z</time></trkpt><trkpt lat="43.696383303466064" lon="11.60972877943485"><ele>1418.8333333333333</ele><time>2026-04-28T12:53:13.999Z</time></trkpt><trkpt lat="43.69646438715886" lon="11.609704305941857"><ele>1417.6666666666665</ele><time>2026-04-28T12:53:14.999Z</time></trkpt><trkpt lat="43.69654398681062" lon="11.609666351929002"><ele>1416.5</ele><time>2026-04-28T12:53:16Z</time></trkpt><trkpt lat="43.69662165607614" lon="11.609612090951233"><ele>1415.3333333333333</ele><time>2026-04-28T12:53:17Z</time></trkpt><trkpt lat="43.69669079510262" lon="11.609548191879087"><ele>1414.1666666666667</ele><time>2026-04-28T12:53:18Z</time></trkpt><trkpt lat="43.69675041404133" lon="11.60948217476981"><ele>1413.0</ele><time>2026-04-28T12:53:19Z</time></trkpt><trkpt lat="43.696804403189795" lon="11.609417787505938"><ele>1413.0</ele><time>2026-04-28T12:53:20Z</time></trkpt><trkpt lat="43.69685925155535" lon="11.609344442743032"><ele>1413.0</ele><time>2026-04-28T12:53:21Z</time></trkpt><trkpt lat="43.69690780003779" lon="11.609262025579714"><ele>1413.0</ele><time>2026-04-28T12:53:22Z</time></trkpt><trkpt lat="43.69695244605931" lon="11.609175214777386"><ele>1413.0</ele><time>2026-04-28T12:53:23Z</time></trkpt><trkpt lat="43.69699978169719" lon="11.609088247567927"><ele>1413.0</ele><time>2026-04-28T12:53:24Z</time></trkpt><trkpt lat="43.69704738116623" lon="11.608994301869101"><ele>1413.0</ele><time>2026-04-28T12:53:25Z</time></trkpt><trkpt lat="43.69709539334423" lon="11.60889558729628"><ele>1409.8333333333333</ele><time>2026-04-28T12:53:26Z</time></trkpt><trkpt lat="43.697138290294134" lon="11.608795431343843"><ele>1406.6666666666667</ele><time>2026-04-28T12:53:27Z</time></trkpt><trkpt lat="43.69718360393486" lon="11.608698009009725"><ele>1403.5</ele><time>2026-04-28T12:53:28Z</time></trkpt><trkpt lat="43.697226964160215" lon="11.60860699375055"><ele>1400.3333333333335</ele><time>2026-04-28T12:53:29Z</time></trkpt><trkpt lat="43.69727468247884" lon="11.608528098448842"><ele>1397.1666666666667</ele><time>2026-04-28T12:53:30Z</time></trkpt><trkpt lat="43.69732987095935" lon="11.608455864973548"><ele>1394.0</ele><time>2026-04-28T12:53:31Z</time></trkpt><trkpt lat="43.697399006094486" lon="11.608419145700612"><ele>1394.0</ele><time>2026-04-28T12:53:32Z</time></trkpt><trkpt lat="43.697473296254906" lon="11.608392075411759"><ele>1394.0</ele><time>2026-04-28T12:53:33Z</time></trkpt><trkpt lat="43.69754362690135" lon="11.608352973330472"><ele>1394.0</ele><time>2026-04-28T12:53:34Z</time></trkpt><trkpt lat="43.69762814928188" lon="11.608367226653428"><ele>1394.0</ele><time>2026-04-28T12:53:35Z</time></trkpt><trkpt lat="43.697708028552086" lon="11.608360917989442"><ele>1394.0</ele><time>2026-04-28T12:53:36Z</time></trkpt><trkpt lat="43.69778554817085" lon="11.60837037914152"><ele>1394.0</ele><time>2026-04-28T12:53:37Z</time></trkpt><trkpt lat="43.697865327976885" lon="11.608390222283436"><ele>1391.5</ele><time>2026-04-28T12:53:38Z</time></trkpt><trkpt lat="43.697950211605864" lon="11.608411218222187"><ele>1389.0</ele><time>2026-04-28T12:53:39Z</time></trkpt><trkpt lat="43.69803967674226" lon="11.60842818010151"><ele>1386.5</ele><time>2026-04-28T12:53:40Z</time></trkpt><trkpt lat="43.698124415300484" lon="11.608437783503819"><ele>1384.0</ele><time>2026-04-28T12:53:41Z</time></trkpt><trkpt lat="43.69821732633075" lon="11.608439936570916"><ele>1381.5</ele><time>2026-04-28T12:53:42Z</time></trkpt><trkpt lat="43.69830454370788" lon="11.608442879633643"><ele>1379.0</ele><time>2026-04-28T12:53:43Z</time></trkpt><trkpt lat="43.698391667496466" lon="11.60843921289468"><ele>1379.0</ele><time>2026-04-28T12:53:44Z</time></trkpt><trkpt lat="43.698476191368485" lon="11.608433620232386"><ele>1379.0</ele><time>2026-04-28T12:53:45Z</time></trkpt><trkpt lat="43.69856595102718" lon="11.608428668404889"><ele>1379.0</ele><time>2026-04-28T12:53:46Z</time></trkpt><trkpt lat="43.698642861050274" lon="11.608417620309783"><ele>1379.0</ele><time>2026-04-28T12:53:47Z</time></trkpt><trkpt lat="43.69871910766818" lon="11.608396868212676"><ele>1379.0</ele><time>2026-04-28T12:53:48Z</time></trkpt><trkpt lat="43.69878707410808" lon="11.6083583705952"><ele>1379.0</ele><time>2026-04-28T12:53:49Z</time></trkpt><trkpt lat="43.69885806784814" lon="11.60829823415058"><ele>1374.8000000000002</ele><time>2026-04-28T12:53:50Z</time></trkpt><trkpt lat="43.69892536535161" lon="11.608205382867645"><ele>1370.6000000000001</ele><time>2026-04-28T12:53:51Z</time></trkpt><trkpt lat="43.69899109598052" lon="11.608094615112796"><ele>1366.4</ele><time>2026-04-28T12:53:52Z</time></trkpt><trkpt lat="43.69905395017906" lon="11.607991229744917"><ele>1362.2</ele><time>2026-04-28T12:53:53Z</time></trkpt><trkpt lat="43.699119417786775" lon="11.607888746906943"><ele>1358.0</ele><time>2026-04-28T12:53:54Z</time></trkpt><trkpt lat="43.699182331955576" lon="11.607790145567082"><ele>1358.0</ele><time>2026-04-28T12:53:55Z</time></trkpt><trkpt lat="43.69924616730803" lon="11.607694359389203"><ele>1358.0</ele><time>2026-04-28T12:53:56Z</time></trkpt><trkpt lat="43.69930706553305" lon="11.60760167598229"><ele>1358.0</ele><time>2026-04-28T12:53:57Z</time></trkpt><trkpt lat="43.699361926278165" lon="11.607515528060677"><ele>1358.0</ele><time>2026-04-28T12:53:58Z</time></trkpt><trkpt lat="43.699411207372215" lon="11.607439561067007"><ele>1358.0</ele><time>2026-04-28T12:53:59Z</time></trkpt><trkpt lat="43.699485870087834" lon="11.60732540341439"><ele>1355.6666666666667</ele><time>2026-04-28T12:54:01Z</time></trkpt><trkpt lat="43.69952551958797" lon="11.607247204309875"><ele>1353.3333333333335</ele><time>2026-04-28T12:54:03Z</time></trkpt><trkpt lat="43.699547608291674" lon="11.607161517929567"><ele>1351.0</ele><time>2026-04-28T12:54:12.999Z</time></trkpt><trkpt lat="43.699595123265524" lon="11.607090710298003"><ele>1348.6666666666667</ele><time>2026-04-28T12:54:19.999Z</time></trkpt><trkpt lat="43.699677594228326" lon="11.606993394502382"><ele>1346.3333333333333</ele><time>2026-04-28T12:54:21.999Z</time></trkpt><trkpt lat="43.69973013810287" lon="11.606915769701192"><ele>1344.0</ele><time>2026-04-28T12:54:27.999Z</time></trkpt><trkpt lat="43.69978594099319" lon="11.606840560104768"><ele>1343.2</ele><time>2026-04-28T12:54:29.999Z</time></trkpt><trkpt lat="43.699819265171236" lon="11.606764640807079"><ele>1342.4</ele><time>2026-04-28T12:54:30.999Z</time></trkpt><trkpt lat="43.6999003389489" lon="11.606644581394958"><ele>1341.6</ele><time>2026-04-28T12:54:32.999Z</time></trkpt><trkpt lat="43.699961553356864" lon="11.606556051737254"><ele>1340.8</ele><time>2026-04-28T12:54:33.999Z</time></trkpt><trkpt lat="43.70002447278551" lon="11.606429064451897"><ele>1340.0</ele><time>2026-04-28T12:54:34.999Z</time></trkpt><trkpt lat="43.70009126327883" lon="11.606284867230789"><ele>1339.75</ele><time>2026-04-28T12:54:35.999Z</time></trkpt><trkpt lat="43.700160238308904" lon="11.60613277800248"><ele>1339.5</ele><time>2026-04-28T12:54:36.999Z</time></trkpt><trkpt lat="43.70022897200056" lon="11.60599483780136"><ele>1339.25</ele><time>2026-04-28T12:54:37.999Z</time></trkpt><trkpt lat="43.70029789398663" lon="11.605884020564343"><ele>1339.0</ele><time>2026-04-28T12:54:38.999Z</time></trkpt><trkpt lat="43.70036728608411" lon="11.605786405707546"><ele>1339.0</ele><time>2026-04-28T12:54:39.999Z</time></trkpt><trkpt lat="43.70043263176662" lon="11.605701534182366"><ele>1339.0</ele><time>2026-04-28T12:54:40.999Z</time></trkpt><trkpt lat="43.7004939442263" lon="11.605611902633889"><ele>1339.0</ele><time>2026-04-28T12:54:41.999Z</time></trkpt><trkpt lat="43.70054242821907" lon="11.60551410140316"><ele>1339.0</ele><time>2026-04-28T12:54:42.999Z</time></trkpt><trkpt lat="43.700585935486025" lon="11.605413550182247"><ele>1339.0</ele><time>2026-04-28T12:54:43.999Z</time></trkpt><trkpt lat="43.70062600032025" lon="11.60533074656091"><ele>1339.0</ele><time>2026-04-28T12:54:44.999Z</time></trkpt><trkpt lat="43.70066324297774" lon="11.605254321587287"><ele>1339.6</ele><time>2026-04-28T12:54:45.999Z</time></trkpt><trkpt lat="43.700730678404604" lon="11.60511373422026"><ele>1340.2</ele><time>2026-04-28T12:54:47.999Z</time></trkpt><trkpt lat="43.70077523927876" lon="11.605025028631772"><ele>1340.8</ele><time>2026-04-28T12:54:48.999Z</time></trkpt><trkpt lat="43.700822515564944" lon="11.60491846559801"><ele>1341.3999999999999</ele><time>2026-04-28T12:54:49.999Z</time></trkpt><trkpt lat="43.70087495563036" lon="11.604794798071412"><ele>1342.0</ele><time>2026-04-28T12:54:50.999Z</time></trkpt><trkpt lat="43.70093757502596" lon="11.604655667487407"><ele>1342.0</ele><time>2026-04-28T12:54:51.999Z</time></trkpt><trkpt lat="43.70100857069263" lon="11.604533470716069"><ele>1342.0</ele><time>2026-04-28T12:54:52.999Z</time></trkpt><trkpt lat="43.70108322620687" lon="11.604420127475215"><ele>1342.0</ele><time>2026-04-28T12:54:53.999Z</time></trkpt><trkpt lat="43.70115145471826" lon="11.60431122201893"><ele>1342.0</ele><time>2026-04-28T12:54:54.999Z</time></trkpt><trkpt lat="43.70121567395421" lon="11.604206611750719"><ele>1342.0</ele><time>2026-04-28T12:54:55.999Z</time></trkpt><trkpt lat="43.70127120250484" lon="11.60413241378416"><ele>1341.8</ele><time>2026-04-28T12:54:56.999Z</time></trkpt><trkpt lat="43.70132131868506" lon="11.6040715095472"><ele>1341.6</ele><time>2026-04-28T12:54:57.999Z</time></trkpt><trkpt lat="43.70140026876004" lon="11.603982019988258"><ele>1341.3999999999999</ele><time>2026-04-28T12:54:59.999Z</time></trkpt><trkpt lat="43.70144572114312" lon="11.603899712316485"><ele>1341.1999999999998</ele><time>2026-04-28T12:55:00.999Z</time></trkpt><trkpt lat="43.70150206326719" lon="11.60376819727577"><ele>1341.0</ele><time>2026-04-28T12:55:01.999Z</time></trkpt><trkpt lat="43.701561200142194" lon="11.603642997380225"><ele>1341.4</ele><time>2026-04-28T12:55:02.999Z</time></trkpt><trkpt lat="43.701620344870584" lon="11.603531510246052"><ele>1341.8</ele><time>2026-04-28T12:55:03.999Z</time></trkpt><trkpt lat="43.701674312685896" lon="11.60343467441893"><ele>1342.2</ele><time>2026-04-28T12:55:04.999Z</time></trkpt><trkpt lat="43.701727443995146" lon="11.603350878471915"><ele>1342.6000000000001</ele><time>2026-04-28T12:55:05.999Z</time></trkpt><trkpt lat="43.7017938117831" lon="11.60326763469311"><ele>1343.0</ele><time>2026-04-28T12:55:06.999Z</time></trkpt><trkpt lat="43.701872881679584" lon="11.603180340262988"><ele>1343.6000000000001</ele><time>2026-04-28T12:55:07.999Z</time></trkpt><trkpt lat="43.70193799032388" lon="11.603074272435562"><ele>1344.2</ele><time>2026-04-28T12:55:08.999Z</time></trkpt><trkpt lat="43.7019880481718" lon="11.602969023656962"><ele>1344.8</ele><time>2026-04-28T12:55:09.999Z</time></trkpt><trkpt lat="43.702040251352756" lon="11.602863877728089"><ele>1345.4</ele><time>2026-04-28T12:55:10.999Z</time></trkpt><trkpt lat="43.702084272825104" lon="11.602765599076017"><ele>1346.0</ele><time>2026-04-28T12:55:11.999Z</time></trkpt><trkpt lat="43.70211646168386" lon="11.602656673738032"><ele>1348.6666666666667</ele><time>2026-04-28T12:55:12.999Z</time></trkpt><trkpt lat="43.70215400688469" lon="11.602522723188105"><ele>1351.3333333333335</ele><time>2026-04-28T12:55:13.999Z</time></trkpt><trkpt lat="43.70219269364909" lon="11.60239636578113"><ele>1354.0</ele><time>2026-04-28T12:55:14.999Z</time></trkpt><trkpt lat="43.70221677061069" lon="11.602285222748222"><ele>1356.6666666666667</ele><time>2026-04-28T12:55:15.999Z</time></trkpt><trkpt lat="43.70223506060917" lon="11.602185878246582"><ele>1359.3333333333333</ele><time>2026-04-28T12:55:16.999Z</time></trkpt><trkpt lat="43.702266965485606" lon="11.602099284370082"><ele>1362.0</ele><time>2026-04-28T12:55:17.999Z</time></trkpt><trkpt lat="43.70231392591204" lon="11.602033736725293"><ele>1364.6</ele><time>2026-04-28T12:55:18.999Z</time></trkpt><trkpt lat="43.70241616423471" lon="11.601936679920563"><ele>1367.1999999999998</ele><time>2026-04-28T12:55:20.999Z</time></trkpt><trkpt lat="43.70250714049173" lon="11.601823361268972"><ele>1369.8</ele><time>2026-04-28T12:55:23Z</time></trkpt><trkpt lat="43.70258116832711" lon="11.601742487241179"><ele>1372.4</ele><time>2026-04-28T12:55:25Z</time></trkpt><trkpt lat="43.7026653823917" lon="11.601654569209327"><ele>1375.0</ele><time>2026-04-28T12:55:27Z</time></trkpt><trkpt lat="43.702729659151764" lon="11.60160315160693"><ele>1375.1666666666665</ele><time>2026-04-28T12:55:28Z</time></trkpt><trkpt lat="43.70280409471208" lon="11.601528786380655"><ele>1375.3333333333333</ele><time>2026-04-28T12:55:29Z</time></trkpt><trkpt lat="43.70287678923397" lon="11.60143801698245"><ele>1375.5</ele><time>2026-04-28T12:55:30Z</time></trkpt><trkpt lat="43.7029447738022" lon="11.601348908474039"><ele>1375.6666666666667</ele><time>2026-04-28T12:55:31Z</time></trkpt><trkpt lat="43.703004718500715" lon="11.601275098021949"><ele>1375.8333333333335</ele><time>2026-04-28T12:55:32Z</time></trkpt><trkpt lat="43.7030712532108" lon="11.601207987826635"><ele>1376.0</ele><time>2026-04-28T12:55:33Z</time></trkpt><trkpt lat="43.70313167532988" lon="11.601127668880212"><ele>1377.6</ele><time>2026-04-28T12:55:34Z</time></trkpt><trkpt lat="43.70319969637709" lon="11.601028046591779"><ele>1379.1999999999998</ele><time>2026-04-28T12:55:35Z</time></trkpt><trkpt lat="43.70327536877168" lon="11.60092322242959"><ele>1380.8000000000002</ele><time>2026-04-28T12:55:36Z</time></trkpt><trkpt lat="43.703340451879114" lon="11.60084303624404"><ele>1382.4</ele><time>2026-04-28T12:55:37Z</time></trkpt><trkpt lat="43.70341217339387" lon="11.60075678239424"><ele>1384.0</ele><time>2026-04-28T12:55:38Z</time></trkpt><trkpt lat="43.70348304705671" lon="11.60068285670944"><ele>1384.0</ele><time>2026-04-28T12:55:39Z</time></trkpt><trkpt lat="43.7035439549608" lon="11.600638956117796"><ele>1384.0</ele><time>2026-04-28T12:55:40Z</time></trkpt><trkpt lat="43.703605364847554" lon="11.6006081785651"><ele>1384.0</ele><time>2026-04-28T12:55:41Z</time></trkpt><trkpt lat="43.70367001385148" lon="11.600584104775946"><ele>1384.0</ele><time>2026-04-28T12:55:42Z</time></trkpt><trkpt lat="43.70381232902493" lon="11.600568511378903"><ele>1384.0</ele><time>2026-04-28T12:55:44Z</time></trkpt><trkpt lat="43.70388926244041" lon="11.600548887558581"><ele>1384.0</ele><time>2026-04-28T12:55:45Z</time></trkpt><trkpt lat="43.703980507095864" lon="11.600555456917911"><ele>1384.1666666666665</ele><time>2026-04-28T12:55:46Z</time></trkpt><trkpt lat="43.70407626884451" lon="11.600572580978596"><ele>1384.3333333333333</ele><time>2026-04-28T12:55:47Z</time></trkpt><trkpt lat="43.704169742761884" lon="11.600593469274324"><ele>1384.5</ele><time>2026-04-28T12:55:48Z</time></trkpt><trkpt lat="43.70425079686856" lon="11.60064833906258"><ele>1384.6666666666667</ele><time>2026-04-28T12:55:49Z</time></trkpt><trkpt lat="43.70433354013329" lon="11.60067194663615"><ele>1384.8333333333335</ele><time>2026-04-28T12:55:50Z</time></trkpt><trkpt lat="43.704411193466015" lon="11.60070434115975"><ele>1385.0</ele><time>2026-04-28T12:55:51Z</time></trkpt><trkpt lat="43.70449405698311" lon="11.60074656450959"><ele>1385.0</ele><time>2026-04-28T12:55:52Z</time></trkpt><trkpt lat="43.70457937968354" lon="11.600795441563758"><ele>1385.0</ele><time>2026-04-28T12:55:53Z</time></trkpt><trkpt lat="43.7046496880218" lon="11.600831627023002"><ele>1385.0</ele><time>2026-04-28T12:55:54Z</time></trkpt><trkpt lat="43.70471388031075" lon="11.600849690664523"><ele>1385.0</ele><time>2026-04-28T12:55:55Z</time></trkpt><trkpt lat="43.7047867769807" lon="11.600841332773168"><ele>1385.0</ele><time>2026-04-28T12:55:56Z</time></trkpt><trkpt lat="43.70487445623449" lon="11.60080853610898"><ele>1385.0</ele><time>2026-04-28T12:55:57Z</time></trkpt><trkpt lat="43.70497483394834" lon="11.600740171906706"><ele>1385.0</ele><time>2026-04-28T12:55:58Z</time></trkpt><trkpt lat="43.70505786509931" lon="11.600675596622175"><ele>1385.0</ele><time>2026-04-28T12:55:59Z</time></trkpt><trkpt lat="43.70513591124456" lon="11.600641576008307"><ele>1385.0</ele><time>2026-04-28T12:56:00Z</time></trkpt><trkpt lat="43.705222743522235" lon="11.60063785891185"><ele>1385.0</ele><time>2026-04-28T12:56:01Z</time></trkpt><trkpt lat="43.705311814048066" lon="11.600645829115331"><ele>1385.0</ele><time>2026-04-28T12:56:02Z</time></trkpt><trkpt lat="43.70539314002365" lon="11.600650635862795"><ele>1385.0</ele><time>2026-04-28T12:56:03Z</time></trkpt><trkpt lat="43.705463889134435" lon="11.600654894903872"><ele>1384.6666666666667</ele><time>2026-04-28T12:56:04Z</time></trkpt><trkpt lat="43.705537854609524" lon="11.60067210693336"><ele>1384.3333333333335</ele><time>2026-04-28T12:56:05Z</time></trkpt><trkpt lat="43.70560029618841" lon="11.600694194888897"><ele>1384.0</ele><time>2026-04-28T12:56:06Z</time></trkpt><trkpt lat="43.705710629150516" lon="11.600717952358872"><ele>1383.6666666666667</ele><time>2026-04-28T12:56:08Z</time></trkpt><trkpt lat="43.70578718532902" lon="11.600711585414507"><ele>1383.3333333333333</ele><time>2026-04-28T12:56:10.999Z</time></trkpt><trkpt lat="43.70586723075191" lon="11.60065528818816"><ele>1383.0</ele><time>2026-04-28T12:56:12.999Z</time></trkpt><trkpt lat="43.705951957405496" lon="11.60055109251737"><ele>1383.0</ele><time>2026-04-28T12:56:14.999Z</time></trkpt><trkpt lat="43.70604899135533" lon="11.600419489692868"><ele>1383.0</ele><time>2026-04-28T12:56:16.999Z</time></trkpt><trkpt lat="43.70610233487693" lon="11.600349117757439"><ele>1383.0</ele><time>2026-04-28T12:56:17.999Z</time></trkpt><trkpt lat="43.70616131604546" lon="11.600283745881892"><ele>1383.0</ele><time>2026-04-28T12:56:18.999Z</time></trkpt><trkpt lat="43.70622610618093" lon="11.600215224785181"><ele>1383.0</ele><time>2026-04-28T12:56:19.999Z</time></trkpt><trkpt lat="43.70628168683666" lon="11.60014999414672"><ele>1383.0</ele><time>2026-04-28T12:56:20.999Z</time></trkpt><trkpt lat="43.706324682909006" lon="11.60007915873704"><ele>1382.8333333333333</ele><time>2026-04-28T12:56:21.999Z</time></trkpt><trkpt lat="43.706358817704235" lon="11.599990015373216"><ele>1382.6666666666667</ele><time>2026-04-28T12:56:22.999Z</time></trkpt><trkpt lat="43.70638145835005" lon="11.599892473186138"><ele>1382.5</ele><time>2026-04-28T12:56:23.999Z</time></trkpt><trkpt lat="43.70640769252171" lon="11.599800293862799"><ele>1382.3333333333335</ele><time>2026-04-28T12:56:24.999Z</time></trkpt><trkpt lat="43.706448105711644" lon="11.59972016485808"><ele>1382.1666666666667</ele><time>2026-04-28T12:56:25.999Z</time></trkpt><trkpt lat="43.7065222470961" lon="11.599610307313368"><ele>1382.0</ele><time>2026-04-28T12:56:27.999Z</time></trkpt><trkpt lat="43.70656965947907" lon="11.599544334366165"><ele>1382.1666666666667</ele><time>2026-04-28T12:56:28.999Z</time></trkpt><trkpt lat="43.70661538521052" lon="11.599462927269004"><ele>1382.3333333333335</ele><time>2026-04-28T12:56:29.999Z</time></trkpt><trkpt lat="43.70667333075556" lon="11.599333266128975"><ele>1382.5</ele><time>2026-04-28T12:56:31.999Z</time></trkpt><trkpt lat="43.70675207027308" lon="11.599239269682275"><ele>1382.6666666666667</ele><time>2026-04-28T12:56:33.999Z</time></trkpt><trkpt lat="43.706804534311246" lon="11.599175205990965"><ele>1382.8333333333333</ele><time>2026-04-28T12:56:34.999Z</time></trkpt><trkpt lat="43.7068445223776" lon="11.599095566270218"><ele>1383.0</ele><time>2026-04-28T12:56:35.999Z</time></trkpt><trkpt lat="43.706918612298836" lon="11.5989814013765"><ele>1383.0</ele><time>2026-04-28T12:56:37.999Z</time></trkpt><trkpt lat="43.707028835833185" lon="11.598922454042299"><ele>1383.0</ele><time>2026-04-28T12:56:39.999Z</time></trkpt><trkpt lat="43.70709372046635" lon="11.598871674996987"><ele>1383.0</ele><time>2026-04-28T12:56:40.999Z</time></trkpt><trkpt lat="43.707145444135264" lon="11.598811552616858"><ele>1383.0</ele><time>2026-04-28T12:56:41.999Z</time></trkpt><trkpt lat="43.70719640334943" lon="11.598740351755675"><ele>1383.0</ele><time>2026-04-28T12:56:42.999Z</time></trkpt><trkpt lat="43.7072415275416" lon="11.598672198215842"><ele>1383.0</ele><time>2026-04-28T12:56:43.999Z</time></trkpt><trkpt lat="43.70729149572922" lon="11.598596282438798"><ele>1386.0</ele><time>2026-04-28T12:56:44.999Z</time></trkpt><trkpt lat="43.70734658943989" lon="11.598514370893238"><ele>1389.0</ele><time>2026-04-28T12:56:45.999Z</time></trkpt><trkpt lat="43.70740481595132" lon="11.598433333226232"><ele>1392.0</ele><time>2026-04-28T12:56:46.999Z</time></trkpt><trkpt lat="43.70745538114934" lon="11.598357450706494"><ele>1395.0</ele><time>2026-04-28T12:56:47.999Z</time></trkpt><trkpt lat="43.70749490570306" lon="11.598282329864888"><ele>1398.0</ele><time>2026-04-28T12:56:48.999Z</time></trkpt><trkpt lat="43.7075240315372" lon="11.598198254386668"><ele>1401.0</ele><time>2026-04-28T12:56:49.999Z</time></trkpt><trkpt lat="43.707568002914456" lon="11.598041998113438"><ele>1401.0</ele><time>2026-04-28T12:56:51.999Z</time></trkpt><trkpt lat="43.707645160719515" lon="11.597924565419573"><ele>1401.0</ele><time>2026-04-28T12:56:53.999Z</time></trkpt><trkpt lat="43.70771716960635" lon="11.597811746174772"><ele>1401.0</ele><time>2026-04-28T12:56:55.999Z</time></trkpt><trkpt lat="43.707789700897926" lon="11.597719632183997"><ele>1401.0</ele><time>2026-04-28T12:56:57.999Z</time></trkpt><trkpt lat="43.70785202925847" lon="11.597681705965922"><ele>1401.0</ele><time>2026-04-28T12:56:58.999Z</time></trkpt><trkpt lat="43.70793211040875" lon="11.597612986238818"><ele>1405.0</ele><time>2026-04-28T12:56:59.999Z</time></trkpt><trkpt lat="43.70802533697635" lon="11.597528078343705"><ele>1409.0</ele><time>2026-04-28T12:57:00.999Z</time></trkpt><trkpt lat="43.70810923738529" lon="11.597441985905002"><ele>1413.0</ele><time>2026-04-28T12:57:01.999Z</time></trkpt><trkpt lat="43.708171702164535" lon="11.597349693521291"><ele>1417.0</ele><time>2026-04-28T12:57:02.999Z</time></trkpt><trkpt lat="43.70822306277774" lon="11.597261422618185"><ele>1421.0</ele><time>2026-04-28T12:57:03.999Z</time></trkpt><trkpt lat="43.708272816016525" lon="11.597187421366536"><ele>1421.0</ele><time>2026-04-28T12:57:04.999Z</time></trkpt><trkpt lat="43.7083787433453" lon="11.597105061687829"><ele>1421.0</ele><time>2026-04-28T12:57:06.999Z</time></trkpt><trkpt lat="43.7084534551355" lon="11.597083228696949"><ele>1421.0</ele><time>2026-04-28T12:57:07.999Z</time></trkpt><trkpt lat="43.708548864836985" lon="11.597059131029074"><ele>1421.0</ele><time>2026-04-28T12:57:08.999Z</time></trkpt><trkpt lat="43.70864716127445" lon="11.597031161547852"><ele>1421.0</ele><time>2026-04-28T12:57:09.999Z</time></trkpt><trkpt lat="43.708738837855" lon="11.59698859653166"><ele>1422.1999999999998</ele><time>2026-04-28T12:57:10.999Z</time></trkpt><trkpt lat="43.708832043776475" lon="11.596983787513546"><ele>1423.3999999999999</ele><time>2026-04-28T12:57:11.999Z</time></trkpt><trkpt lat="43.70893026064928" lon="11.596970316318469"><ele>1424.6</ele><time>2026-04-28T12:57:12.999Z</time></trkpt><trkpt lat="43.709019987005526" lon="11.596946417391113"><ele>1425.8</ele><time>2026-04-28T12:57:13.999Z</time></trkpt><trkpt lat="43.70910205716347" lon="11.59689352705755"><ele>1427.0</ele><time>2026-04-28T12:57:14.999Z</time></trkpt><trkpt lat="43.709182207449025" lon="11.596817376675077"><ele>1427.0</ele><time>2026-04-28T12:57:15.999Z</time></trkpt><trkpt lat="43.70926020064063" lon="11.596752068863282"><ele>1427.0</ele><time>2026-04-28T12:57:16.999Z</time></trkpt><trkpt lat="43.70932305741546" lon="11.596704697755731"><ele>1427.0</ele><time>2026-04-28T12:57:17.999Z</time></trkpt><trkpt lat="43.7093943805813" lon="11.596634127017886"><ele>1427.0</ele><time>2026-04-28T12:57:18.999Z</time></trkpt><trkpt lat="43.70946352176213" lon="11.596554220894385"><ele>1427.0</ele><time>2026-04-28T12:57:19.999Z</time></trkpt><trkpt lat="43.70952312109564" lon="11.596480764299821"><ele>1427.0</ele><time>2026-04-28T12:57:20.999Z</time></trkpt><trkpt lat="43.709580508914364" lon="11.596395111159664"><ele>1424.6</ele><time>2026-04-28T12:57:22.999Z</time></trkpt><trkpt lat="43.70964297646335" lon="11.596418089630815"><ele>1422.1999999999998</ele><time>2026-04-28T13:02:29Z</time></trkpt><trkpt lat="43.70971435584142" lon="11.59646464779077"><ele>1419.8</ele><time>2026-04-28T13:02:31Z</time></trkpt><trkpt lat="43.70981831079266" lon="11.596518079432528"><ele>1417.4</ele><time>2026-04-28T13:02:33Z</time></trkpt><trkpt lat="43.70994188613682" lon="11.596593491523407"><ele>1415.0</ele><time>2026-04-28T13:02:35Z</time></trkpt><trkpt lat="43.71003098010847" lon="11.596640113182904"><ele>1415.0</ele><time>2026-04-28T13:02:35.999Z</time></trkpt><trkpt lat="43.71012176268603" lon="11.596695427716563"><ele>1415.0</ele><time>2026-04-28T13:02:36.999Z</time></trkpt><trkpt lat="43.71020176490418" lon="11.596750879906214"><ele>1415.0</ele><time>2026-04-28T13:02:37.999Z</time></trkpt><trkpt lat="43.71025803232163" lon="11.59679159306618"><ele>1415.0</ele><time>2026-04-28T13:02:38.999Z</time></trkpt><trkpt lat="43.71034802830198" lon="11.596821462903032"><ele>1415.0</ele><time>2026-04-28T13:02:40.999Z</time></trkpt><trkpt lat="43.71048887209844" lon="11.596841277931729"><ele>1412.6</ele><time>2026-04-28T13:02:42.999Z</time></trkpt><trkpt lat="43.710584076441506" lon="11.596852569458553"><ele>1410.2</ele><time>2026-04-28T13:02:43.999Z</time></trkpt><trkpt lat="43.71067770655712" lon="11.596841578375074"><ele>1407.8000000000002</ele><time>2026-04-28T13:02:44.999Z</time></trkpt><trkpt lat="43.71075631279536" lon="11.596821932686275"><ele>1405.4</ele><time>2026-04-28T13:02:45.999Z</time></trkpt><trkpt lat="43.71067504381794" lon="11.596849126997"><ele>1403.0</ele><time>2026-04-28T13:03:09.999Z</time></trkpt><trkpt lat="43.71057678606783" lon="11.59684499568664"><ele>1403.0</ele><time>2026-04-28T13:03:18.999Z</time></trkpt><trkpt lat="43.71049691728845" lon="11.596849513216426"><ele>1403.0</ele><time>2026-04-28T13:03:19.999Z</time></trkpt><trkpt lat="43.7104077996199" lon="11.596834577365408"><ele>1403.0</ele><time>2026-04-28T13:03:20.999Z</time></trkpt><trkpt lat="43.71032566517052" lon="11.596802839637554"><ele>1403.0</ele><time>2026-04-28T13:03:21.999Z</time></trkpt><trkpt lat="43.71025052372683" lon="11.596772314997233"><ele>1403.0</ele><time>2026-04-28T13:03:22.999Z</time></trkpt><trkpt lat="43.71017276847937" lon="11.596736185941046"><ele>1403.0</ele><time>2026-04-28T13:03:23.999Z</time></trkpt><trkpt lat="43.710088134549224" lon="11.59668561773538"><ele>1405.0</ele><time>2026-04-28T13:03:24.999Z</time></trkpt><trkpt lat="43.71000598415575" lon="11.596629855410985"><ele>1407.0</ele><time>2026-04-28T13:03:25.999Z</time></trkpt><trkpt lat="43.7099233727839" lon="11.596576440980535"><ele>1409.0</ele><time>2026-04-28T13:03:26.999Z</time></trkpt><trkpt lat="43.70984875652326" lon="11.596531445779014"><ele>1411.0</ele><time>2026-04-28T13:03:27.999Z</time></trkpt><trkpt lat="43.70977479402229" lon="11.596492120665228"><ele>1413.0</ele><time>2026-04-28T13:03:28.999Z</time></trkpt><trkpt lat="43.70970853133487" lon="11.596458566749126"><ele>1415.0</ele><time>2026-04-28T13:03:29.999Z</time></trkpt><trkpt lat="43.70961843513064" lon="11.596407338921033"><ele>1415.0</ele><time>2026-04-28T13:03:31.999Z</time></trkpt><trkpt lat="43.70954648638506" lon="11.596386475951617"><ele>1415.0</ele><time>2026-04-28T13:03:34.999Z</time></trkpt><trkpt lat="43.709612207318294" lon="11.59642690392333"><ele>1415.0</ele><time>2026-04-28T13:05:45.999Z</time></trkpt><trkpt lat="43.709679000291" lon="11.596448114723994"><ele>1415.0</ele><time>2026-04-28T13:06:12Z</time></trkpt><trkpt lat="43.70974064462235" lon="11.596479081674188"><ele>1415.0</ele><time>2026-04-28T13:06:41.999Z</time></trkpt><trkpt lat="43.70981634206147" lon="11.596518614790973"><ele>1415.0</ele><time>2026-04-28T13:06:43.999Z</time></trkpt><trkpt lat="43.70989517054951" lon="11.596570055647518"><ele>1415.0</ele><time>2026-04-28T13:06:45.999Z</time></trkpt><trkpt lat="43.71003648057987" lon="11.59665045009345"><ele>1415.0</ele><time>2026-04-28T13:06:47.999Z</time></trkpt><trkpt lat="43.71010321009622" lon="11.596701508719697"><ele>1415.0</ele><time>2026-04-28T13:06:48.999Z</time></trkpt><trkpt lat="43.7101753988235" lon="11.596767132569955"><ele>1415.0</ele><time>2026-04-28T13:06:49.999Z</time></trkpt><trkpt lat="43.71028235184631" lon="11.59682523252921"><ele>1415.0</ele><time>2026-04-28T13:06:51.999Z</time></trkpt><trkpt lat="43.71036199603729" lon="11.596818280663483"><ele>1415.0</ele><time>2026-04-28T13:06:53.999Z</time></trkpt><trkpt lat="43.710425130878484" lon="11.596831768591622"><ele>1415.0</ele><time>2026-04-28T13:07:00.999Z</time></trkpt><trkpt lat="43.71052511411985" lon="11.596852297632324"><ele>1412.6</ele><time>2026-04-28T13:07:01.999Z</time></trkpt><trkpt lat="43.710598487517345" lon="11.596842305953704"><ele>1410.2</ele><time>2026-04-28T13:07:02.999Z</time></trkpt><trkpt lat="43.71071876520741" lon="11.596825228838414"><ele>1407.8000000000002</ele><time>2026-04-28T13:07:03.999Z</time></trkpt><trkpt lat="43.7108178413085" lon="11.596804366080853"><ele>1405.4</ele><time>2026-04-28T13:07:04.999Z</time></trkpt><trkpt lat="43.71088931606329" lon="11.596786619868485"><ele>1403.0</ele><time>2026-04-28T13:07:05.999Z</time></trkpt><trkpt lat="43.71099532563993" lon="11.596765436243578"><ele>1402.2</ele><time>2026-04-28T13:07:06.999Z</time></trkpt><trkpt lat="43.71108446750575" lon="11.59674820503352"><ele>1401.4</ele><time>2026-04-28T13:07:07.999Z</time></trkpt><trkpt lat="43.711171827249515" lon="11.596725132739063"><ele>1400.6000000000001</ele><time>2026-04-28T13:07:08.999Z</time></trkpt><trkpt lat="43.71125213351005" lon="11.596679882466853"><ele>1399.8000000000002</ele><time>2026-04-28T13:07:09.999Z</time></trkpt><trkpt lat="43.71135378702416" lon="11.596622090414577"><ele>1399.0</ele><time>2026-04-28T13:07:10.999Z</time></trkpt><trkpt lat="43.7114547807207" lon="11.596563273298251"><ele>1399.0</ele><time>2026-04-28T13:07:11.999Z</time></trkpt><trkpt lat="43.71154064534384" lon="11.596518849054062"><ele>1399.0</ele><time>2026-04-28T13:07:12.999Z</time></trkpt><trkpt lat="43.71162166220661" lon="11.596472080312138"><ele>1399.0</ele><time>2026-04-28T13:07:13.999Z</time></trkpt><trkpt lat="43.7116933370687" lon="11.596436423916353"><ele>1399.0</ele><time>2026-04-28T13:07:14.999Z</time></trkpt><trkpt lat="43.71177165073628" lon="11.596416112176083"><ele>1399.0</ele><time>2026-04-28T13:07:15.999Z</time></trkpt><trkpt lat="43.71185373336231" lon="11.596388625639209"><ele>1399.0</ele><time>2026-04-28T13:07:16.999Z</time></trkpt><trkpt lat="43.71193180023548" lon="11.596343389423774"><ele>1396.6666666666665</ele><time>2026-04-28T13:07:17.999Z</time></trkpt><trkpt lat="43.7119971128952" lon="11.596314102159578"><ele>1394.3333333333333</ele><time>2026-04-28T13:07:18.999Z</time></trkpt><trkpt lat="43.712069134271175" lon="11.59628899464293"><ele>1392.0</ele><time>2026-04-28T13:07:19.999Z</time></trkpt><trkpt lat="43.712144909580665" lon="11.5962863682225"><ele>1389.6666666666667</ele><time>2026-04-28T13:07:20.999Z</time></trkpt><trkpt lat="43.712210875823025" lon="11.596268906353838"><ele>1387.3333333333335</ele><time>2026-04-28T13:07:21.999Z</time></trkpt><trkpt lat="43.71230136115314" lon="11.596232000414991"><ele>1385.0</ele><time>2026-04-28T13:07:23.999Z</time></trkpt><trkpt lat="43.712376632932646" lon="11.59616213471237"><ele>1384.1666666666667</ele><time>2026-04-28T13:07:25.999Z</time></trkpt><trkpt lat="43.71243438817205" lon="11.596007208515777"><ele>1383.3333333333335</ele><time>2026-04-28T13:07:27.999Z</time></trkpt><trkpt lat="43.71246454655827" lon="11.59592214704782"><ele>1382.5</ele><time>2026-04-28T13:07:28.999Z</time></trkpt><trkpt lat="43.71250687176922" lon="11.595853243943163"><ele>1381.6666666666667</ele><time>2026-04-28T13:07:29.999Z</time></trkpt><trkpt lat="43.71256120803797" lon="11.595792202108466"><ele>1380.8333333333333</ele><time>2026-04-28T13:07:30.999Z</time></trkpt><trkpt lat="43.712628263508215" lon="11.595743054126988"><ele>1380.0</ele><time>2026-04-28T13:07:31.999Z</time></trkpt><trkpt lat="43.712700878484384" lon="11.595708043986281"><ele>1376.8</ele><time>2026-04-28T13:07:32.999Z</time></trkpt><trkpt lat="43.71277593914197" lon="11.595672487227537"><ele>1373.6</ele><time>2026-04-28T13:07:33.999Z</time></trkpt><trkpt lat="43.71284427747991" lon="11.595637979801939"><ele>1370.4</ele><time>2026-04-28T13:07:34.999Z</time></trkpt><trkpt lat="43.71290732155622" lon="11.595597283118028"><ele>1367.2</ele><time>2026-04-28T13:07:35.999Z</time></trkpt><trkpt lat="43.71300792597819" lon="11.595512581562916"><ele>1364.0</ele><time>2026-04-28T13:07:37.999Z</time></trkpt><trkpt lat="43.71311777527657" lon="11.595435828071942"><ele>1364.0</ele><time>2026-04-28T13:07:39.999Z</time></trkpt><trkpt lat="43.71321401870959" lon="11.595343694570616"><ele>1364.0</ele><time>2026-04-28T13:07:41.999Z</time></trkpt><trkpt lat="43.71330970645091" lon="11.59527134749513"><ele>1364.0</ele><time>2026-04-28T13:07:43.999Z</time></trkpt><trkpt lat="43.71338727679363" lon="11.595203168697507"><ele>1364.0</ele><time>2026-04-28T13:07:45.999Z</time></trkpt><trkpt lat="43.71345217858392" lon="11.595086807366142"><ele>1364.0</ele><time>2026-04-28T13:07:47.999Z</time></trkpt><trkpt lat="43.71353410513062" lon="11.594934199223678"><ele>1360.8333333333335</ele><time>2026-04-28T13:07:49.999Z</time></trkpt><trkpt lat="43.713593686531084" lon="11.59488202888366"><ele>1357.6666666666667</ele><time>2026-04-28T13:07:50.999Z</time></trkpt><trkpt lat="43.7136516766337" lon="11.594844843659931"><ele>1354.5</ele><time>2026-04-28T13:07:51.999Z</time></trkpt><trkpt lat="43.713751612284184" lon="11.594744392331616"><ele>1351.3333333333333</ele><time>2026-04-28T13:07:53.999Z</time></trkpt><trkpt lat="43.713799820655105" lon="11.5946614545683"><ele>1348.1666666666665</ele><time>2026-04-28T13:07:54.999Z</time></trkpt><trkpt lat="43.71384618567833" lon="11.594576302230557"><ele>1345.0</ele><time>2026-04-28T13:07:55.999Z</time></trkpt><trkpt lat="43.71389068932741" lon="11.594496133148478"><ele>1344.3333333333333</ele><time>2026-04-28T13:07:56.998Z</time></trkpt><trkpt lat="43.71393579162612" lon="11.594429382552843"><ele>1343.6666666666665</ele><time>2026-04-28T13:07:58Z</time></trkpt><trkpt lat="43.713977513122465" lon="11.594359147426534"><ele>1343.0</ele><time>2026-04-28T13:07:59Z</time></trkpt><trkpt lat="43.71401898536479" lon="11.594292857958848"><ele>1342.3333333333333</ele><time>2026-04-28T13:08:00Z</time></trkpt><trkpt lat="43.71410683878562" lon="11.594210014256088"><ele>1341.6666666666667</ele><time>2026-04-28T13:08:02Z</time></trkpt><trkpt lat="43.714168357860515" lon="11.59415516768232"><ele>1341.0</ele><time>2026-04-28T13:08:04Z</time></trkpt><trkpt lat="43.714245742466055" lon="11.59410855831417"><ele>1341.0</ele><time>2026-04-28T13:08:06Z</time></trkpt><trkpt lat="43.71432292459533" lon="11.594070630688822"><ele>1341.0</ele><time>2026-04-28T13:08:08Z</time></trkpt><trkpt lat="43.71445160854831" lon="11.59400949789576"><ele>1341.0</ele><time>2026-04-28T13:08:10Z</time></trkpt><trkpt lat="43.71452419431266" lon="11.593949320461528"><ele>1341.0</ele><time>2026-04-28T13:08:11Z</time></trkpt><trkpt lat="43.7145876082857" lon="11.593883947070502"><ele>1341.0</ele><time>2026-04-28T13:08:12Z</time></trkpt><trkpt lat="43.71311777527657" lon="11.595435828071942"><ele>1343.8</ele><time>2026-04-28T13:07:39.999Z</time></trkpt><trkpt lat="43.71321401870959" lon="11.595343694570616"><ele>1346.6</ele><time>2026-04-28T13:07:41.999Z</time></trkpt><trkpt lat="43.71330970645091" lon="11.59527134749513"><ele>1349.4</ele><time>2026-04-28T13:07:43.999Z</time></trkpt><trkpt lat="43.71338727679363" lon="11.595203168697507"><ele>1352.2</ele><time>2026-04-28T13:07:45.999Z</time></trkpt><trkpt lat="43.71345217858392" lon="11.595086807366142"><ele>1355.0</ele><time>2026-04-28T13:07:47.999Z</time></trkpt><trkpt lat="43.71353410513062" lon="11.594934199223678"><ele>1353.3333333333335</ele><time>2026-04-28T13:07:49.999Z</time></trkpt><trkpt lat="43.713593686531084" lon="11.59488202888366"><ele>1351.6666666666667</ele><time>2026-04-28T13:07:50.999Z</time></trkpt><trkpt lat="43.7136516766337" lon="11.594844843659931"><ele>1350.0</ele><time>2026-04-28T13:07:51.999Z</time></trkpt><trkpt lat="43.713751612284184" lon="11.594744392331616"><ele>1348.3333333333333</ele><time>2026-04-28T13:07:53.999Z</time></trkpt><trkpt lat="43.713799820655105" lon="11.5946614545683"><ele>1346.6666666666665</ele><time>2026-04-28T13:07:54.999Z</time></trkpt><trkpt lat="43.71384618567833" lon="11.594576302230557"><ele>1345.0</ele><time>2026-04-28T13:07:55.999Z</time></trkpt><trkpt lat="43.71389068932741" lon="11.594496133148478"><ele>1344.3333333333333</ele><time>2026-04-28T13:07:56.998Z</time></trkpt><trkpt lat="43.71393579162612" lon="11.594429382552843"><ele>1343.6666666666665</ele><time>2026-04-28T13:07:58Z</time></trkpt><trkpt lat="43.713977513122465" lon="11.594359147426534"><ele>1343.0</ele><time>2026-04-28T13:07:59Z</time></trkpt><trkpt lat="43.71401898536479" lon="11.594292857958848"><ele>1342.3333333333333</ele><time>2026-04-28T13:08:00Z</time></trkpt><trkpt lat="43.71410683878562" lon="11.594210014256088"><ele>1341.6666666666667</ele><time>2026-04-28T13:08:02Z</time></trkpt><trkpt lat="43.714168357860515" lon="11.59415516768232"><ele>1341.0</ele><time>2026-04-28T13:08:04Z</time></trkpt><trkpt lat="43.714245742466055" lon="11.59410855831417"><ele>1341.0</ele><time>2026-04-28T13:08:06Z</time></trkpt><trkpt lat="43.71432292459533" lon="11.594070630688822"><ele>1341.0</ele><time>2026-04-28T13:08:08Z</time></trkpt><trkpt lat="43.71445160854831" lon="11.59400949789576"><ele>1341.0</ele><time>2026-04-28T13:08:10Z</time></trkpt><trkpt lat="43.71452419431266" lon="11.593949320461528"><ele>1341.0</ele><time>2026-04-28T13:08:11Z</time></trkpt><trkpt lat="43.7145876082857" lon="11.593883947070502"><ele>1341.0</ele><time>2026-04-28T13:08:12Z</time></trkpt><trkpt lat="43.71465541595579" lon="11.593817708377895"><ele>1342.3333333333333</ele><time>2026-04-28T13:08:13Z</time></trkpt><trkpt lat="43.7147418692746" lon="11.593760445709513"><ele>1343.6666666666667</ele><time>2026-04-28T13:08:14Z</time></trkpt><trkpt lat="43.71483647159394" lon="11.593710688101082"><ele>1345.0</ele><time>2026-04-28T13:08:15Z</time></trkpt><trkpt lat="43.71491967651555" lon="11.593670262651866"><ele>1346.3333333333335</ele><time>2026-04-28T13:08:16Z</time></trkpt><trkpt lat="43.7149811303744" lon="11.593642231393869"><ele>1347.6666666666667</ele><time>2026-04-28T13:08:17Z</time></trkpt><trkpt lat="43.71503686375035" lon="11.593572130267612"><ele>1349.0</ele><time>2026-04-28T13:08:21Z</time></trkpt><trkpt lat="43.71504882752554" lon="11.593430537594378"><ele>1349.0</ele><time>2026-04-28T13:08:27Z</time></trkpt><trkpt lat="43.71507324705574" lon="11.593309829393121"><ele>1349.0</ele><time>2026-04-28T13:08:28Z</time></trkpt><trkpt lat="43.7150871092883" lon="11.593168103199162"><ele>1349.0</ele><time>2026-04-28T13:08:29Z</time></trkpt><trkpt lat="43.71509098715851" lon="11.592990984205056"><ele>1349.0</ele><time>2026-04-28T13:08:30Z</time></trkpt><trkpt lat="43.71510443138107" lon="11.592829063407027"><ele>1349.0</ele><time>2026-04-28T13:08:31Z</time></trkpt><trkpt lat="43.715147914089854" lon="11.592702142058384"><ele>1346.8000000000002</ele><time>2026-04-28T13:08:32Z</time></trkpt><trkpt lat="43.71516155717358" lon="11.592598055287587"><ele>1344.6000000000001</ele><time>2026-04-28T13:08:33Z</time></trkpt><trkpt lat="43.7152145930494" lon="11.592494730894323"><ele>1342.4</ele><time>2026-04-28T13:08:34Z</time></trkpt><trkpt lat="43.71528393516332" lon="11.592380486490882"><ele>1340.2</ele><time>2026-04-28T13:08:35Z</time></trkpt><trkpt lat="43.71533208716285" lon="11.592268350280237"><ele>1338.0</ele><time>2026-04-28T13:08:36Z</time></trkpt><trkpt lat="43.715368338363966" lon="11.59214495954972"><ele>1344.8333333333333</ele><time>2026-04-28T13:08:37Z</time></trkpt><trkpt lat="43.71539977966306" lon="11.59200606042846"><ele>1351.6666666666667</ele><time>2026-04-28T13:08:38Z</time></trkpt><trkpt lat="43.715412993089544" lon="11.5918916112376"><ele>1358.5</ele><time>2026-04-28T13:08:39Z</time></trkpt><trkpt lat="43.7154060712574" lon="11.591768077773821"><ele>1365.3333333333335</ele><time>2026-04-28T13:08:40Z</time></trkpt><trkpt lat="43.7153851410523" lon="11.591658305422607"><ele>1372.1666666666667</ele><time>2026-04-28T13:08:40.999Z</time></trkpt><trkpt lat="43.71536650980885" lon="11.59155499562613"><ele>1379.0</ele><time>2026-04-28T13:08:41.999Z</time></trkpt><trkpt lat="43.715378306842325" lon="11.591388397417523"><ele>1379.0</ele><time>2026-04-28T13:08:43.999Z</time></trkpt><trkpt lat="43.715421312021476" lon="11.591258100937855"><ele>1379.0</ele><time>2026-04-28T13:08:44.999Z</time></trkpt><trkpt lat="43.715428160088905" lon="11.591151485970794"><ele>1379.0</ele><time>2026-04-28T13:08:45.999Z</time></trkpt><trkpt lat="43.715470048809465" lon="11.591049192203705"><ele>1379.0</ele><time>2026-04-28T13:08:46.999Z</time></trkpt><trkpt lat="43.7155330880461" lon="11.590917491476468"><ele>1379.0</ele><time>2026-04-28T13:08:48.999Z</time></trkpt><trkpt lat="43.71559331439126" lon="11.590867012344896"><ele>1376.2</ele><time>2026-04-28T13:08:49.999Z</time></trkpt><trkpt lat="43.71565813031872" lon="11.590820043088726"><ele>1373.4</ele><time>2026-04-28T13:08:50.999Z</time></trkpt><trkpt lat="43.71573878204003" lon="11.590752507835436"><ele>1370.6</ele><time>2026-04-28T13:08:51.999Z</time></trkpt><trkpt lat="43.71589566057247" lon="11.590628873411227"><ele>1367.8</ele><time>2026-04-28T13:08:53.999Z</time></trkpt><trkpt lat="43.71596591216234" lon="11.590558282832575"><ele>1365.0</ele><time>2026-04-28T13:08:54.999Z</time></trkpt><trkpt lat="43.71602505752243" lon="11.590473725136551"><ele>1368.5</ele><time>2026-04-28T13:08:55.999Z</time></trkpt><trkpt lat="43.71608474499088" lon="11.590429519740297"><ele>1372.0</ele><time>2026-04-28T13:08:56.999Z</time></trkpt><trkpt lat="43.71610603833544" lon="11.590325399780445"><ele>1375.5</ele><time>2026-04-28T13:08:57.999Z</time></trkpt><trkpt lat="43.71612156395127" lon="11.59023337068297"><ele>1379.0</ele><time>2026-04-28T13:08:58.999Z</time></trkpt><trkpt lat="43.716163092242475" lon="11.590103303706615"><ele>1382.5</ele><time>2026-04-28T13:08:59.999Z</time></trkpt><trkpt lat="43.716196505503675" lon="11.589959449066729"><ele>1386.0</ele><time>2026-04-28T13:09:00.999Z</time></trkpt><trkpt lat="43.716236626021434" lon="11.589855313818937"><ele>1386.0</ele><time>2026-04-28T13:09:01.999Z</time></trkpt><trkpt lat="43.71625720727685" lon="11.589742389120113"><ele>1386.0</ele><time>2026-04-28T13:09:02.999Z</time></trkpt><trkpt lat="43.71622043642231" lon="11.589638988048202"><ele>1386.0</ele><time>2026-04-28T13:09:03.999Z</time></trkpt><trkpt lat="43.71620153648801" lon="11.589504257383366"><ele>1386.0</ele><time>2026-04-28T13:09:04.999Z</time></trkpt><trkpt lat="43.71615195270643" lon="11.589351367597613"><ele>1386.0</ele><time>2026-04-28T13:09:05.999Z</time></trkpt><trkpt lat="43.71609806155481" lon="11.589185869270088"><ele>1375.75</ele><time>2026-04-28T13:09:06.999Z</time></trkpt><trkpt lat="43.71601942334705" lon="11.589042436860975"><ele>1365.5</ele><time>2026-04-28T13:09:07.999Z</time></trkpt><trkpt lat="43.71595418156678" lon="11.588884046168273"><ele>1355.25</ele><time>2026-04-28T13:09:08.999Z</time></trkpt><trkpt lat="43.715907712455405" lon="11.58873910486674"><ele>1345.0</ele><time>2026-04-28T13:09:09.999Z</time></trkpt><trkpt lat="43.71587143774729" lon="11.588588820176728"><ele>1345.0</ele><time>2026-04-28T13:09:11.999Z</time></trkpt><trkpt lat="43.71585911003288" lon="11.588440369016714"><ele>1345.0</ele><time>2026-04-28T13:09:13.999Z</time></trkpt><trkpt lat="43.715867076317814" lon="11.588346812384549"><ele>1345.0</ele><time>2026-04-28T13:09:14.999Z</time></trkpt><trkpt lat="43.71589824573232" lon="11.588234041510612"><ele>1345.0</ele><time>2026-04-28T13:09:15.999Z</time></trkpt><trkpt lat="43.71589775292769" lon="11.588097159946146"><ele>1345.0</ele><time>2026-04-28T13:09:16.999Z</time></trkpt><trkpt lat="43.71592962799979" lon="11.58798832817732"><ele>1345.0</ele><time>2026-04-28T13:09:17.999Z</time></trkpt><trkpt lat="43.71594676767075" lon="11.58784468084956"><ele>1344.6666666666665</ele><time>2026-04-28T13:09:18.999Z</time></trkpt><trkpt lat="43.71595460644185" lon="11.58772554863458"><ele>1344.3333333333333</ele><time>2026-04-28T13:09:19.999Z</time></trkpt><trkpt lat="43.716008656769105" lon="11.587634949844304"><ele>1344.0</ele><time>2026-04-28T13:09:20.999Z</time></trkpt><trkpt lat="43.71603059130021" lon="11.587504423336023"><ele>1343.6666666666667</ele><time>2026-04-28T13:09:22.999Z</time></trkpt><trkpt lat="43.71599797729596" lon="11.587398648463905"><ele>1343.3333333333335</ele><time>2026-04-28T13:09:23.999Z</time></trkpt><trkpt lat="43.71596164345784" lon="11.587287922214841"><ele>1343.0</ele><time>2026-04-28T13:09:24.999Z</time></trkpt><trkpt lat="43.71595743784841" lon="11.587179135928379"><ele>1343.0</ele><time>2026-04-28T13:09:25.999Z</time></trkpt><trkpt lat="43.71592476149009" lon="11.587039622179466"><ele>1343.0</ele><time>2026-04-28T13:09:26.999Z</time></trkpt><trkpt lat="43.71588443735146" lon="11.586912579087794"><ele>1343.0</ele><time>2026-04-28T13:09:27.999Z</time></trkpt><trkpt lat="43.71587771708425" lon="11.586814487661535"><ele>1343.0</ele><time>2026-04-28T13:09:28.999Z</time></trkpt><trkpt lat="43.71587818988764" lon="11.586710598663839"><ele>1343.0</ele><time>2026-04-28T13:09:29.999Z</time></trkpt><trkpt lat="43.71587591589112" lon="11.586603916383018"><ele>1343.0</ele><time>2026-04-28T13:09:30.999Z</time></trkpt><trkpt lat="43.71585561348244" lon="11.586485897234125"><ele>1344.5</ele><time>2026-04-28T13:09:31.999Z</time></trkpt><trkpt lat="43.71583392769046" lon="11.586370110659583"><ele>1346.0</ele><time>2026-04-28T13:09:32.999Z</time></trkpt><trkpt lat="43.71585734188631" lon="11.586246659919597"><ele>1347.5</ele><time>2026-04-28T13:09:34.999Z</time></trkpt><trkpt lat="43.7159099038043" lon="11.586142883506271"><ele>1349.0</ele><time>2026-04-28T13:09:35.999Z</time></trkpt><trkpt lat="43.71595037801049" lon="11.586041852767341"><ele>1350.5</ele><time>2026-04-28T13:09:36.999Z</time></trkpt><trkpt lat="43.71596686581926" lon="11.585946714108584"><ele>1352.0</ele><time>2026-04-28T13:09:37.999Z</time></trkpt><trkpt lat="43.71597058572583" lon="11.585823012808332"><ele>1352.0</ele><time>2026-04-28T13:09:38.999Z</time></trkpt><trkpt lat="43.71598426650695" lon="11.58564874830902"><ele>1352.0</ele><time>2026-04-28T13:09:39.999Z</time></trkpt><trkpt lat="43.71600286507022" lon="11.5855100714524"><ele>1352.0</ele><time>2026-04-28T13:09:40.999Z</time></trkpt><trkpt lat="43.71598599025648" lon="11.585319421660941"><ele>1352.0</ele><time>2026-04-28T13:09:42.999Z</time></trkpt><trkpt lat="43.71597491757308" lon="11.585168551626541"><ele>1352.1999999999998</ele><time>2026-04-28T13:09:43.999Z</time></trkpt><trkpt lat="43.716007579539664" lon="11.585022462898502"><ele>1352.4</ele><time>2026-04-28T13:09:45.999Z</time></trkpt><trkpt lat="43.715949207007036" lon="11.584888332260945"><ele>1352.6</ele><time>2026-04-28T13:09:47.999Z</time></trkpt><trkpt lat="43.7158792579658" lon="11.584841841380962"><ele>1352.8000000000002</ele><time>2026-04-28T13:09:48.999Z</time></trkpt><trkpt lat="43.71578312612644" lon="11.58474497028785"><ele>1353.0</ele><time>2026-04-28T13:09:50.999Z</time></trkpt><trkpt lat="43.71575005123608" lon="11.584643402576761"><ele>1353.0</ele><time>2026-04-28T13:09:52.999Z</time></trkpt><trkpt lat="43.71568881375986" lon="11.584581919572766"><ele>1353.0</ele><time>2026-04-28T13:09:55.999Z</time></trkpt><trkpt lat="43.71555558149047" lon="11.584537091671129"><ele>1353.0</ele><time>2026-04-28T13:09:57.999Z</time></trkpt><trkpt lat="43.71547453834309" lon="11.584511676761615"><ele>1353.0</ele><time>2026-04-28T13:09:58.999Z</time></trkpt><trkpt lat="43.7153935487514" lon="11.584474005014187"><ele>1353.0</ele><time>2026-04-28T13:09:59.999Z</time></trkpt><trkpt lat="43.71534239583573" lon="11.584395328197408"><ele>1352.3333333333333</ele><time>2026-04-28T13:10:00.999Z</time></trkpt><trkpt lat="43.71528469736275" lon="11.584321505184258"><ele>1351.6666666666667</ele><time>2026-04-28T13:10:01.999Z</time></trkpt><trkpt lat="43.71521162563732" lon="11.584251902151404"><ele>1351.0</ele><time>2026-04-28T13:10:02.998Z</time></trkpt><trkpt lat="43.71514090636495" lon="11.584160658784288"><ele>1350.3333333333335</ele><time>2026-04-28T13:10:04Z</time></trkpt><trkpt lat="43.71507683892939" lon="11.584103261568037"><ele>1349.6666666666667</ele><time>2026-04-28T13:10:05Z</time></trkpt><trkpt lat="43.71499269116434" lon="11.584038182629845"><ele>1349.0</ele><time>2026-04-28T13:10:06Z</time></trkpt><trkpt lat="43.714913872036675" lon="11.583963929538417"><ele>1349.0</ele><time>2026-04-28T13:10:07Z</time></trkpt><trkpt lat="43.71482595099413" lon="11.58391200004297"><ele>1349.0</ele><time>2026-04-28T13:10:08Z</time></trkpt><trkpt lat="43.714722515330934" lon="11.583864142892807"><ele>1349.0</ele><time>2026-04-28T13:10:09Z</time></trkpt><trkpt lat="43.714647021233304" lon="11.5837930498329"><ele>1349.0</ele><time>2026-04-28T13:10:10Z</time></trkpt><trkpt lat="43.71458407913389" lon="11.583715264757814"><ele>1349.0</ele><time>2026-04-28T13:10:11Z</time></trkpt><trkpt lat="43.71452625200959" lon="11.5836123831044"><ele>1348.6</ele><time>2026-04-28T13:10:12Z</time></trkpt><trkpt lat="43.7144800456791" lon="11.583513687979286"><ele>1348.2</ele><time>2026-04-28T13:10:13Z</time></trkpt><trkpt lat="43.71443165872045" lon="11.583395446328854"><ele>1347.8</ele><time>2026-04-28T13:10:14Z</time></trkpt><trkpt lat="43.714402895006195" lon="11.583257070733401"><ele>1347.3999999999999</ele><time>2026-04-28T13:10:15Z</time></trkpt><trkpt lat="43.71436168970474" lon="11.583157434562947"><ele>1347.0</ele><time>2026-04-28T13:10:16Z</time></trkpt><trkpt lat="43.71430367122997" lon="11.583079820496915"><ele>1347.0</ele><time>2026-04-28T13:10:17Z</time></trkpt><trkpt lat="43.71420137020116" lon="11.583010036317177"><ele>1347.0</ele><time>2026-04-28T13:10:18Z</time></trkpt><trkpt lat="43.714090723348875" lon="11.582911055581846"><ele>1347.0</ele><time>2026-04-28T13:10:19Z</time></trkpt><trkpt lat="43.71399734185094" lon="11.582740282604204"><ele>1347.0</ele><time>2026-04-28T13:10:20Z</time></trkpt><trkpt lat="43.713917335136344" lon="11.582596641856842"><ele>1344.75</ele><time>2026-04-28T13:10:21Z</time></trkpt><trkpt lat="43.713830801040075" lon="11.582480658455745"><ele>1342.5</ele><time>2026-04-28T13:10:22Z</time></trkpt><trkpt lat="43.71372948896514" lon="11.582382390716491"><ele>1340.25</ele><time>2026-04-28T13:10:23Z</time></trkpt><trkpt lat="43.71364605628619" lon="11.582288306977073"><ele>1338.0</ele><time>2026-04-28T13:10:24Z</time></trkpt><trkpt lat="43.713566193212" lon="11.582167477538528"><ele>1338.0</ele><time>2026-04-28T13:10:25Z</time></trkpt><trkpt lat="43.713514476874636" lon="11.582061519048192"><ele>1338.0</ele><time>2026-04-28T13:10:26Z</time></trkpt><trkpt lat="43.713449161993" lon="11.58198083408735"><ele>1338.0</ele><time>2026-04-28T13:10:27Z</time></trkpt><trkpt lat="43.71341159060063" lon="11.581839018089973"><ele>1338.0</ele><time>2026-04-28T13:10:28Z</time></trkpt><trkpt lat="43.71336126159685" lon="11.581752070012529"><ele>1338.0</ele><time>2026-04-28T13:10:29Z</time></trkpt><trkpt lat="43.71331226904525" lon="11.581657338717605"><ele>1339.8333333333333</ele><time>2026-04-28T13:10:30Z</time></trkpt><trkpt lat="43.71325359127701" lon="11.581590779220798"><ele>1341.6666666666667</ele><time>2026-04-28T13:10:31Z</time></trkpt><trkpt lat="43.71320765184569" lon="11.581476737431364"><ele>1343.5</ele><time>2026-04-28T13:10:32Z</time></trkpt><trkpt lat="43.71316679205962" lon="11.5813607655758"><ele>1345.3333333333335</ele><time>2026-04-28T13:10:33Z</time></trkpt><trkpt lat="43.71313208850917" lon="11.58126392514963"><ele>1347.1666666666667</ele><time>2026-04-28T13:10:34Z</time></trkpt><trkpt lat="43.71313235525693" lon="11.581172081853227"><ele>1349.0</ele><time>2026-04-28T13:10:35Z</time></trkpt><trkpt lat="43.71309811217368" lon="11.581066254735353"><ele>1349.4285714285713</ele><time>2026-04-28T13:10:37Z</time></trkpt><trkpt lat="43.713048450830684" lon="11.580996156555997"><ele>1349.857142857143</ele><time>2026-04-28T13:11:23.999Z</time></trkpt><trkpt lat="43.71299526897775" lon="11.580933401771661"><ele>1350.2857142857142</ele><time>2026-04-28T13:11:32.999Z</time></trkpt><trkpt lat="43.71297148152545" lon="11.58085166580254"><ele>1350.7142857142858</ele><time>2026-04-28T13:11:39.999Z</time></trkpt><trkpt lat="43.71294966265342" lon="11.580759591248462"><ele>1351.142857142857</ele><time>2026-04-28T13:11:46.999Z</time></trkpt><trkpt lat="43.71295132431876" lon="11.580670599549187"><ele>1351.5714285714287</ele><time>2026-04-28T13:11:53.999Z</time></trkpt><trkpt lat="43.71299957456534" lon="11.580612639138156"><ele>1352.0</ele><time>2026-04-28T13:11:59.999Z</time></trkpt><trkpt lat="43.713032839947395" lon="11.58052511854009"><ele>1352.0</ele><time>2026-04-28T13:14:32.997Z</time></trkpt><trkpt lat="43.7129448994031" lon="11.580485798420574"><ele>1352.0</ele><time>2026-04-28T13:14:59.998Z</time></trkpt><trkpt lat="43.71300074034464" lon="11.580534788704485"><ele>1352.0</ele><time>2026-04-28T13:15:17.998Z</time></trkpt><trkpt lat="43.71296482222183" lon="11.580607071391915"><ele>1352.0</ele><time>2026-04-28T13:16:12.998Z</time></trkpt><trkpt lat="43.712938146047804" lon="11.5806875746324"><ele>1352.0</ele><time>2026-04-28T13:17:08.999Z</time></trkpt><trkpt lat="43.71295298459199" lon="11.580776462937271"><ele>1352.0</ele><time>2026-04-28T13:17:16.999Z</time></trkpt><trkpt lat="43.71299899407957" lon="11.58070282885662"><ele>1352.0</ele><time>2026-04-28T13:17:27.999Z</time></trkpt><trkpt lat="43.71296764562314" lon="11.580786349783667"><ele>1352.0</ele><time>2026-04-28T13:18:37.998Z</time></trkpt><trkpt lat="43.71298553626217" lon="11.580878984233182"><ele>1352.0</ele><time>2026-04-28T13:18:50.999Z</time></trkpt><trkpt lat="43.71303371281471" lon="11.580941683603902"><ele>1352.0</ele><time>2026-04-28T13:19:02.999Z</time></trkpt><trkpt lat="43.713086352858674" lon="11.580992643188846"><ele>1352.0</ele><time>2026-04-28T13:19:09.999Z</time></trkpt><trkpt lat="43.71314156689997" lon="11.581046781185348"><ele>1352.0</ele><time>2026-04-28T13:19:18Z</time></trkpt><trkpt lat="43.71314899718492" lon="11.581137043227917"><ele>1352.0</ele><time>2026-04-28T13:19:33Z</time></trkpt><trkpt lat="43.7131465366492" lon="11.581230281141893"><ele>1352.0</ele><time>2026-04-28T13:24:24.002Z</time></trkpt><trkpt lat="43.71314260079861" lon="11.581323852448854"><ele>1352.0</ele><time>2026-04-28T13:24:34.002Z</time></trkpt><trkpt lat="43.71310279641623" lon="11.58124656100951"><ele>1352.0</ele><time>2026-04-28T13:24:41.002Z</time></trkpt><trkpt lat="43.713075287388016" lon="11.58116190378325"><ele>1352.0</ele><time>2026-04-28T13:24:45.999Z</time></trkpt><trkpt lat="43.713045080613504" lon="11.581070459836807"><ele>1352.0</ele><time>2026-04-28T13:24:51.999Z</time></trkpt><trkpt lat="43.713048933209706" lon="11.58097424045752"><ele>1352.0</ele><time>2026-04-28T13:26:11.002Z</time></trkpt><trkpt lat="43.71308098030137" lon="11.581142338698502"><ele>1352.0</ele><time>2026-04-28T13:26:36.003Z</time></trkpt><trkpt lat="43.71310326611491" lon="11.581282035007046"><ele>1351.5</ele><time>2026-04-28T13:26:37.003Z</time></trkpt><trkpt lat="43.71314652647142" lon="11.581373536928664"><ele>1351.0</ele><time>2026-04-28T13:26:38.003Z</time></trkpt><trkpt lat="43.71317289777569" lon="11.581459873252976"><ele>1350.5</ele><time>2026-04-28T13:26:39.003Z</time></trkpt><trkpt lat="43.71324033983105" lon="11.58158624079293"><ele>1350.0</ele><time>2026-04-28T13:26:41.003Z</time></trkpt><trkpt lat="43.71332995132306" lon="11.581661238369541"><ele>1349.5</ele><time>2026-04-28T13:26:44.003Z</time></trkpt><trkpt lat="43.71336721044673" lon="11.58173351837385"><ele>1349.0</ele><time>2026-04-28T13:26:46.003Z</time></trkpt><trkpt lat="43.71331617658586" lon="11.58166228112094"><ele>1349.0</ele><time>2026-04-28T13:26:59.002Z</time></trkpt><trkpt lat="43.71323381917935" lon="11.581557999064895"><ele>1349.0</ele><time>2026-04-28T13:27:01.002Z</time></trkpt><trkpt lat="43.71317937426396" lon="11.5814798094436"><ele>1349.0</ele><time>2026-04-28T13:27:03.002Z</time></trkpt><trkpt lat="43.71313549654182" lon="11.58138959093223"><ele>1349.0</ele><time>2026-04-28T13:27:05.002Z</time></trkpt><trkpt lat="43.71311782427543" lon="11.581305452713805"><ele>1349.0</ele><time>2026-04-28T13:27:07.002Z</time></trkpt><trkpt lat="43.71308918938668" lon="11.581220061617513"><ele>1349.0</ele><time>2026-04-28T13:27:09.001Z</time></trkpt><trkpt lat="43.71305460026223" lon="11.581077061097988"><ele>1349.5</ele><time>2026-04-28T13:27:15.001Z</time></trkpt><trkpt lat="43.71300164101566" lon="11.580960987582179"><ele>1350.0</ele><time>2026-04-28T13:27:17.001Z</time></trkpt><trkpt lat="43.712936212517185" lon="11.580853995334953"><ele>1350.5</ele><time>2026-04-28T13:27:19.001Z</time></trkpt><trkpt lat="43.71292391511332" lon="11.580749228976712"><ele>1351.0</ele><time>2026-04-28T13:27:22.001Z</time></trkpt><trkpt lat="43.712950738741924" lon="11.580652760556408"><ele>1351.5</ele><time>2026-04-28T13:27:24.001Z</time></trkpt><trkpt lat="43.71292572983541" lon="11.580739009954936"><ele>1352.0</ele><time>2026-04-28T13:28:14Z</time></trkpt><trkpt lat="43.71299989603409" lon="11.580687049440563"><ele>1352.0</ele><time>2026-04-28T13:28:24Z</time></trkpt><trkpt lat="43.71308610201567" lon="11.580688849343776"><ele>1352.0</ele><time>2026-04-28T13:28:28Z</time></trkpt><trkpt lat="43.713116230862724" lon="11.580605446606311"><ele>1352.0</ele><time>2026-04-28T13:28:32Z</time></trkpt><trkpt lat="43.71320808003212" lon="11.580580784670333"><ele>1352.0</ele><time>2026-04-28T13:28:36Z</time></trkpt><trkpt lat="43.7132758140171" lon="11.580510957338237"><ele>1352.0</ele><time>2026-04-28T13:28:40Z</time></trkpt><trkpt lat="43.713365451490105" lon="11.58047467005109"><ele>1352.0</ele><time>2026-04-28T13:28:43Z</time></trkpt><trkpt lat="43.71341991748279" lon="11.580532470008652"><ele>1352.0</ele><time>2026-04-28T13:28:47Z</time></trkpt><trkpt lat="43.71348462657621" lon="11.58052029928756"><ele>1352.0</ele><time>2026-04-28T13:28:49Z</time></trkpt><trkpt lat="43.71358854738733" lon="11.580510343418817"><ele>1352.0</ele><time>2026-04-28T13:28:52Z</time></trkpt><trkpt lat="43.713650802029456" lon="11.580547102981916"><ele>1352.0</ele><time>2026-04-28T13:28:55Z</time></trkpt><trkpt lat="43.71376142336466" lon="11.580546659038868"><ele>1352.0</ele><time>2026-04-28T13:28:58.001Z</time></trkpt><trkpt lat="43.713841181293354" lon="11.580546972576267"><ele>1352.0</ele><time>2026-04-28T13:29:00.001Z</time></trkpt><trkpt lat="43.713904441753115" lon="11.580556473564585"><ele>1356.0</ele><time>2026-04-28T13:29:02.001Z</time></trkpt><trkpt lat="43.71400919027763" lon="11.580549626902863"><ele>1360.0</ele><time>2026-04-28T13:29:48Z</time></trkpt><trkpt lat="43.71404511380954" lon="11.580625768216114"><ele>1364.0</ele><time>2026-04-28T13:32:09Z</time></trkpt><trkpt lat="43.71411275483054" lon="11.580662468722206"><ele>1368.0</ele><time>2026-04-28T13:32:31Z</time></trkpt><trkpt lat="43.714177640119935" lon="11.580710350858919"><ele>1372.0</ele><time>2026-04-28T13:32:40Z</time></trkpt><trkpt lat="43.71422732176477" lon="11.580766264641737"><ele>1376.0</ele><time>2026-04-28T13:32:52Z</time></trkpt><trkpt lat="43.71432222055846" lon="11.580802528013548"><ele>1376.0</ele><time>2026-04-28T13:33:16Z</time></trkpt><trkpt lat="43.714404153741505" lon="11.58080356441975"><ele>1376.0</ele><time>2026-04-28T13:33:19Z</time></trkpt><trkpt lat="43.7144925039946" lon="11.580778322027681"><ele>1376.0</ele><time>2026-04-28T13:33:22Z</time></trkpt><trkpt lat="43.714607298972595" lon="11.580811055493777"><ele>1376.0</ele><time>2026-04-28T13:33:24Z</time></trkpt><trkpt lat="43.71469632295233" lon="11.580815777278856"><ele>1376.0</ele><time>2026-04-28T13:33:26Z</time></trkpt><trkpt lat="43.714769341075986" lon="11.58078991352975"><ele>1378.1666666666667</ele><time>2026-04-28T13:33:28Z</time></trkpt><trkpt lat="43.71484338954487" lon="11.580827334631357"><ele>1380.3333333333335</ele><time>2026-04-28T13:33:31Z</time></trkpt><trkpt lat="43.71477627845186" lon="11.580838969042038"><ele>1382.5</ele><time>2026-04-28T13:34:50.999Z</time></trkpt><trkpt lat="43.71466748672049" lon="11.580868248644425"><ele>1384.6666666666667</ele><time>2026-04-28T13:34:53.999Z</time></trkpt><trkpt lat="43.714602668215676" lon="11.580858292095481"><ele>1386.8333333333333</ele><time>2026-04-28T13:34:55.999Z</time></trkpt><trkpt lat="43.714511366159286" lon="11.580818906730023"><ele>1389.0</ele><time>2026-04-28T13:35:00.999Z</time></trkpt><trkpt lat="43.71442041345003" lon="11.58080373330532"><ele>1386.8333333333333</ele><time>2026-04-28T13:35:02.999Z</time></trkpt><trkpt lat="43.71433016582111" lon="11.580827868190136"><ele>1384.6666666666667</ele><time>2026-04-28T13:35:04.999Z</time></trkpt><trkpt lat="43.71425034847091" lon="11.580786814830885"><ele>1382.5</ele><time>2026-04-28T13:35:07.999Z</time></trkpt><trkpt lat="43.71416485588606" lon="11.58070885715163"><ele>1380.3333333333335</ele><time>2026-04-28T13:35:10.999Z</time></trkpt><trkpt lat="43.714087841924496" lon="11.580668200378016"><ele>1378.1666666666667</ele><time>2026-04-28T13:35:12.999Z</time></trkpt><trkpt lat="43.71401935891137" lon="11.580639624000163"><ele>1376.0</ele><time>2026-04-28T13:35:14.999Z</time></trkpt><trkpt lat="43.71394938372234" lon="11.580617622273678"><ele>1376.0</ele><time>2026-04-28T13:35:17Z</time></trkpt><trkpt lat="43.71385733109807" lon="11.580625127958163"><ele>1376.0</ele><time>2026-04-28T13:35:19Z</time></trkpt><trkpt lat="43.71376738622306" lon="11.580641948736506"><ele>1376.0</ele><time>2026-04-28T13:35:21Z</time></trkpt><trkpt lat="43.71369128967961" lon="11.580557487306747"><ele>1376.0</ele><time>2026-04-28T13:35:24Z</time></trkpt><trkpt lat="43.71361354452056" lon="11.580532089123391"><ele>1376.0</ele><time>2026-04-28T13:35:27Z</time></trkpt><trkpt lat="43.71353699919148" lon="11.580501158616324"><ele>1376.0</ele><time>2026-04-28T13:35:30Z</time></trkpt><trkpt lat="43.71346529946722" lon="11.58048868224829"><ele>1372.5714285714287</ele><time>2026-04-28T13:35:32Z</time></trkpt><trkpt lat="43.713388293746284" lon="11.58049021274979"><ele>1369.142857142857</ele><time>2026-04-28T13:35:34Z</time></trkpt><trkpt lat="43.71333454137266" lon="11.580557369378926"><ele>1365.7142857142858</ele><time>2026-04-28T13:35:38Z</time></trkpt><trkpt lat="43.71326926376801" lon="11.580613626493557"><ele>1362.2857142857142</ele><time>2026-04-28T13:35:42Z</time></trkpt><trkpt lat="43.713197584610526" lon="11.58065113251038"><ele>1358.857142857143</ele><time>2026-04-28T13:35:44Z</time></trkpt><trkpt lat="43.71312885389735" lon="11.58068087010507"><ele>1355.4285714285716</ele><time>2026-04-28T13:35:46Z</time></trkpt><trkpt lat="43.71306253844832" lon="11.58068697256445"><ele>1352.0</ele><time>2026-04-28T13:35:48Z</time></trkpt><trkpt lat="43.71300396623845" lon="11.580745126260144"><ele>1352.0</ele><time>2026-04-28T13:35:52Z</time></trkpt><trkpt lat="43.71293764743453" lon="11.580750828426725"><ele>1352.0</ele><time>2026-04-28T13:36:04Z</time></trkpt><trkpt lat="43.71297066110403" lon="11.580872496978312"><ele>1352.0</ele><time>2026-04-28T13:36:17Z</time></trkpt><trkpt lat="43.713018152038835" lon="11.580950882494543"><ele>1352.0</ele><time>2026-04-28T13:36:19Z</time></trkpt><trkpt lat="43.71304036737552" lon="11.5810588869607"><ele>1352.0</ele><time>2026-04-28T13:36:45.999Z</time></trkpt><trkpt lat="43.713069903583296" lon="11.581198681220613"><ele>1352.0</ele><time>2026-04-28T13:36:47.999Z</time></trkpt><trkpt lat="43.713097552727454" lon="11.581281493125848"><ele>1351.5714285714287</ele><time>2026-04-28T13:36:48.999Z</time></trkpt><trkpt lat="43.71312380347702" lon="11.581361987334892"><ele>1351.142857142857</ele><time>2026-04-28T13:36:52.999Z</time></trkpt><trkpt lat="43.71316472115065" lon="11.581431943096264"><ele>1350.7142857142858</ele><time>2026-04-28T13:37:02.999Z</time></trkpt><trkpt lat="43.7132040455301" lon="11.58152107248877"><ele>1350.2857142857142</ele><time>2026-04-28T13:37:04.999Z</time></trkpt><trkpt lat="43.71323529582958" lon="11.581598005708912"><ele>1349.857142857143</ele><time>2026-04-28T13:37:06.999Z</time></trkpt><trkpt lat="43.71329025024752" lon="11.581651204586734"><ele>1349.4285714285713</ele><time>2026-04-28T13:37:08.999Z</time></trkpt><trkpt lat="43.71330876084337" lon="11.581748735051915"><ele>1349.0</ele><time>2026-04-28T13:37:10.999Z</time></trkpt><trkpt lat="43.71333750276679" lon="11.581837109478284"><ele>1349.0</ele><time>2026-04-28T13:37:11.999Z</time></trkpt><trkpt lat="43.713385875836195" lon="11.581908749249667"><ele>1349.0</ele><time>2026-04-28T13:37:12.999Z</time></trkpt><trkpt lat="43.7134274971822" lon="11.582006609143084"><ele>1349.0</ele><time>2026-04-28T13:37:13.999Z</time></trkpt><trkpt lat="43.71347968523379" lon="11.582098490930523"><ele>1349.0</ele><time>2026-04-28T13:37:14.999Z</time></trkpt><trkpt lat="43.71354568428346" lon="11.582193862815108"><ele>1349.0</ele><time>2026-04-28T13:37:15.999Z</time></trkpt><trkpt lat="43.71364413569437" lon="11.582289586505604"><ele>1351.6</ele><time>2026-04-28T13:37:16.999Z</time></trkpt><trkpt lat="43.71372751912983" lon="11.582375088171405"><ele>1354.2</ele><time>2026-04-28T13:37:17.999Z</time></trkpt><trkpt lat="43.713805837840134" lon="11.58246235599717"><ele>1356.8</ele><time>2026-04-28T13:37:18.999Z</time></trkpt><trkpt lat="43.71387094331696" lon="11.582543324555228"><ele>1359.3999999999999</ele><time>2026-04-28T13:37:19.999Z</time></trkpt><trkpt lat="43.71393807572832" lon="11.582640162906493"><ele>1362.0</ele><time>2026-04-28T13:37:22Z</time></trkpt><trkpt lat="43.71399847462023" lon="11.582720725153926"><ele>1362.0</ele><time>2026-04-28T13:37:23Z</time></trkpt><trkpt lat="43.714065591553954" lon="11.582815144869077"><ele>1362.0</ele><time>2026-04-28T13:37:24Z</time></trkpt><trkpt lat="43.71415116618544" lon="11.582911394520877"><ele>1362.0</ele><time>2026-04-28T13:37:25Z</time></trkpt><trkpt lat="43.714241214004694" lon="11.582984685453598"><ele>1362.0</ele><time>2026-04-28T13:37:26Z</time></trkpt><trkpt lat="43.71429046604208" lon="11.583056139433209"><ele>1362.0</ele><time>2026-04-28T13:37:27Z</time></trkpt><trkpt lat="43.714328682250695" lon="11.583140592016699"><ele>1363.6666666666667</ele><time>2026-04-28T13:37:28Z</time></trkpt><trkpt lat="43.71436480408495" lon="11.583260453129828"><ele>1365.3333333333333</ele><time>2026-04-28T13:37:29Z</time></trkpt><trkpt lat="43.71440516570613" lon="11.583381378828037"><ele>1367.0</ele><time>2026-04-28T13:37:30Z</time></trkpt><trkpt lat="43.71444912274838" lon="11.583455701582977"><ele>1368.6666666666665</ele><time>2026-04-28T13:37:31Z</time></trkpt><trkpt lat="43.71450225557308" lon="11.5835390923408"><ele>1370.3333333333333</ele><time>2026-04-28T13:37:32Z</time></trkpt><trkpt lat="43.714570470697886" lon="11.58362762746724"><ele>1372.0</ele><time>2026-04-28T13:37:33Z</time></trkpt><trkpt lat="43.71463852202749" lon="11.583693733203098"><ele>1367.3999999999999</ele><time>2026-04-28T13:37:34Z</time></trkpt><trkpt lat="43.71471454968299" lon="11.58374460177794"><ele>1362.8</ele><time>2026-04-28T13:37:35Z</time></trkpt><trkpt lat="43.714805808546515" lon="11.583791476312422"><ele>1358.2</ele><time>2026-04-28T13:37:36Z</time></trkpt><trkpt lat="43.714885388590574" lon="11.583854067309893"><ele>1353.6</ele><time>2026-04-28T13:37:37Z</time></trkpt><trkpt lat="43.71496922058021" lon="11.583908455981978"><ele>1349.0</ele><time>2026-04-28T13:37:38Z</time></trkpt><trkpt lat="43.715053064590485" lon="11.583937776992858"><ele>1349.0</ele><time>2026-04-28T13:37:39Z</time></trkpt><trkpt lat="43.715114679341625" lon="11.584009916244852"><ele>1349.0</ele><time>2026-04-28T13:37:40Z</time></trkpt><trkpt lat="43.71520823479478" lon="11.584093466143173"><ele>1349.0</ele><time>2026-04-28T13:37:42Z</time></trkpt><trkpt lat="43.71526105456974" lon="11.584199433690102"><ele>1349.0</ele><time>2026-04-28T13:37:44Z</time></trkpt><trkpt lat="43.715315048383225" lon="11.584273366847341"><ele>1349.0</ele><time>2026-04-28T13:37:45Z</time></trkpt><trkpt lat="43.715376052086405" lon="11.58436515454024"><ele>1349.8000000000002</ele><time>2026-04-28T13:37:47Z</time></trkpt><trkpt lat="43.71546516459056" lon="11.584388259399523"><ele>1350.6000000000001</ele><time>2026-04-28T13:37:48Z</time></trkpt><trkpt lat="43.71555742622587" lon="11.584406604735243"><ele>1351.4</ele><time>2026-04-28T13:37:50Z</time></trkpt><trkpt lat="43.71564918292337" lon="11.584426192190874"><ele>1352.2</ele><time>2026-04-28T13:37:52Z</time></trkpt><trkpt lat="43.71570074427861" lon="11.584529546108971"><ele>1353.0</ele><time>2026-04-28T13:37:58Z</time></trkpt><trkpt lat="43.71577163611544" lon="11.584606543222993"><ele>1353.0</ele><time>2026-04-28T13:37:59Z</time></trkpt><trkpt lat="43.71583388457904" lon="11.584672442516927"><ele>1353.0</ele><time>2026-04-28T13:38:00Z</time></trkpt><trkpt lat="43.71582692485713" lon="11.58478263895254"><ele>1353.0</ele><time>2026-04-28T13:38:02Z</time></trkpt><trkpt lat="43.71581649090231" lon="11.584916046033696"><ele>1353.0</ele><time>2026-04-28T13:38:03Z</time></trkpt><trkpt lat="43.715831119556164" lon="11.585028653018517"><ele>1353.0</ele><time>2026-04-28T13:38:04Z</time></trkpt><trkpt lat="43.715837617139435" lon="11.585143091853054"><ele>1353.0</ele><time>2026-04-28T13:38:05Z</time></trkpt><trkpt lat="43.71585848890466" lon="11.585237406238269"><ele>1353.0</ele><time>2026-04-28T13:38:06Z</time></trkpt><trkpt lat="43.71586627719968" lon="11.585332788072323"><ele>1353.0</ele><time>2026-04-28T13:38:07Z</time></trkpt><trkpt lat="43.715871572137324" lon="11.58547190586535"><ele>1353.0</ele><time>2026-04-28T13:38:08Z</time></trkpt><trkpt lat="43.71586763412904" lon="11.585567546634255"><ele>1353.0</ele><time>2026-04-28T13:38:09Z</time></trkpt><trkpt lat="43.71585190643829" lon="11.58568294372474"><ele>1353.0</ele><time>2026-04-28T13:38:10Z</time></trkpt><trkpt lat="43.71583207654652" lon="11.585821046525231"><ele>1353.0</ele><time>2026-04-28T13:38:11Z</time></trkpt><trkpt lat="43.71580249321518" lon="11.585941940750095"><ele>1352.8000000000002</ele><time>2026-04-28T13:38:12Z</time></trkpt><trkpt lat="43.71575903340173" lon="11.586026017613115"><ele>1352.6</ele><time>2026-04-28T13:38:13Z</time></trkpt><trkpt lat="43.715738464624074" lon="11.586113063586915"><ele>1352.4</ele><time>2026-04-28T13:38:14Z</time></trkpt><trkpt lat="43.71576699355092" lon="11.586247299256256"><ele>1352.1999999999998</ele><time>2026-04-28T13:38:16Z</time></trkpt><trkpt lat="43.71577547022668" lon="11.586458820471577"><ele>1352.0</ele><time>2026-04-28T13:38:18Z</time></trkpt><trkpt lat="43.71578700391131" lon="11.586576787594376"><ele>1352.0</ele><time>2026-04-28T13:38:19Z</time></trkpt><trkpt lat="43.71578645190891" lon="11.586688082675725"><ele>1352.0</ele><time>2026-04-28T13:38:20Z</time></trkpt><trkpt lat="43.715828013809734" lon="11.586885225087979"><ele>1352.0</ele><time>2026-04-28T13:38:21Z</time></trkpt><trkpt lat="43.71588372207069" lon="11.587083025272722"><ele>1352.0</ele><time>2026-04-28T13:38:22Z</time></trkpt><trkpt lat="43.715934458079055" lon="11.587237374663024"><ele>1350.8333333333335</ele><time>2026-04-28T13:38:23Z</time></trkpt><trkpt lat="43.71599150288908" lon="11.587394989096865"><ele>1349.6666666666667</ele><time>2026-04-28T13:38:24Z</time></trkpt><trkpt lat="43.7160265126992" lon="11.587511086136608"><ele>1348.5</ele><time>2026-04-28T13:38:25Z</time></trkpt><trkpt lat="43.716005778183515" lon="11.587597230059357"><ele>1347.3333333333333</ele><time>2026-04-28T13:38:26Z</time></trkpt><trkpt lat="43.715978856319985" lon="11.587677455556399"><ele>1346.1666666666665</ele><time>2026-04-28T13:38:27Z</time></trkpt><trkpt lat="43.715931847163276" lon="11.5877990728896"><ele>1345.0</ele><time>2026-04-28T13:38:27.999Z</time></trkpt><trkpt lat="43.71590700582238" lon="11.58792624381846"><ele>1345.0</ele><time>2026-04-28T13:38:28.999Z</time></trkpt><trkpt lat="43.715898566918675" lon="11.588073882411548"><ele>1345.0</ele><time>2026-04-28T13:38:29.999Z</time></trkpt><trkpt lat="43.7159172516456" lon="11.588224174653293"><ele>1345.0</ele><time>2026-04-28T13:38:30.999Z</time></trkpt><trkpt lat="43.71592718506392" lon="11.588337836645227"><ele>1345.0</ele><time>2026-04-28T13:38:31.999Z</time></trkpt><trkpt lat="43.715926285629244" lon="11.588441075764226"><ele>1345.0</ele><time>2026-04-28T13:38:32.999Z</time></trkpt><trkpt lat="43.71591476876872" lon="11.58854883786468"><ele>1345.0</ele><time>2026-04-28T13:38:33.999Z</time></trkpt><trkpt lat="43.71590331149039" lon="11.588656711072684"><ele>1345.0</ele><time>2026-04-28T13:38:34.999Z</time></trkpt><trkpt lat="43.715901013010935" lon="11.588751921991886"><ele>1345.0</ele><time>2026-04-28T13:38:35.999Z</time></trkpt><trkpt lat="43.71596933182031" lon="11.588860098989624"><ele>1345.0</ele><time>2026-04-28T13:38:36.999Z</time></trkpt><trkpt lat="43.716014330185054" lon="11.588976220252537"><ele>1345.0</ele><time>2026-04-28T13:38:37.999Z</time></trkpt><trkpt lat="43.71608039509221" lon="11.58908182409902"><ele>1345.0</ele><time>2026-04-28T13:38:38.999Z</time></trkpt><trkpt lat="43.71616338978793" lon="11.58922998091077"><ele>1353.2</ele><time>2026-04-28T13:38:39.999Z</time></trkpt><trkpt lat="43.716215766715656" lon="11.589422715537927"><ele>1361.4</ele><time>2026-04-28T13:38:40.999Z</time></trkpt><trkpt lat="43.716263243201986" lon="11.589555450730264"><ele>1369.6</ele><time>2026-04-28T13:38:41.999Z</time></trkpt><trkpt lat="43.71627871110506" lon="11.589662936439295"><ele>1377.8</ele><time>2026-04-28T13:38:42.999Z</time></trkpt><trkpt lat="43.7162892115475" lon="11.589764627991462"><ele>1386.0</ele><time>2026-04-28T13:38:43.999Z</time></trkpt><trkpt lat="43.7162609807578" lon="11.589856454559634"><ele>1386.0</ele><time>2026-04-28T13:38:44.999Z</time></trkpt><trkpt lat="43.71624163236377" lon="11.589944023314075"><ele>1386.0</ele><time>2026-04-28T13:38:45.999Z</time></trkpt><trkpt lat="43.71621682169417" lon="11.590059888123575"><ele>1386.0</ele><time>2026-04-28T13:38:46.999Z</time></trkpt><trkpt lat="43.716174562878756" lon="11.590193483115003"><ele>1386.0</ele><time>2026-04-28T13:38:47.999Z</time></trkpt><trkpt lat="43.71611919677663" lon="11.590370908860578"><ele>1386.0</ele><time>2026-04-28T13:38:48.999Z</time></trkpt><trkpt lat="43.71608031187074" lon="11.59046514677493"><ele>1380.75</ele><time>2026-04-28T13:38:49.999Z</time></trkpt><trkpt lat="43.715934871444595" lon="11.590569903332927"><ele>1375.5</ele><time>2026-04-28T13:38:51.999Z</time></trkpt><trkpt lat="43.71582884246905" lon="11.59066248686519"><ele>1370.25</ele><time>2026-04-28T13:38:52.999Z</time></trkpt><trkpt lat="43.7157463467105" lon="11.590725690984131"><ele>1365.0</ele><time>2026-04-28T13:38:53.999Z</time></trkpt><trkpt lat="43.71566308737954" lon="11.590779734650901"><ele>1365.0</ele><time>2026-04-28T13:38:54.999Z</time></trkpt><trkpt lat="43.71560895062293" lon="11.590838573919141"><ele>1365.0</ele><time>2026-04-28T13:38:55.999Z</time></trkpt><trkpt lat="43.71551371077554" lon="11.590951881440384"><ele>1365.0</ele><time>2026-04-28T13:38:57.999Z</time></trkpt><trkpt lat="43.71545426348748" lon="11.591146753832154"><ele>1365.0</ele><time>2026-04-28T13:38:59.999Z</time></trkpt><trkpt lat="43.715446313172286" lon="11.591294351960336"><ele>1367.8</ele><time>2026-04-28T13:39:00.999Z</time></trkpt><trkpt lat="43.715422045061715" lon="11.591415821962347"><ele>1370.6</ele><time>2026-04-28T13:39:01.999Z</time></trkpt><trkpt lat="43.7154140832284" lon="11.591595597612582"><ele>1373.4</ele><time>2026-04-28T13:39:03.999Z</time></trkpt><trkpt lat="43.71541662457264" lon="11.591707464426724"><ele>1376.2</ele><time>2026-04-28T13:39:04.999Z</time></trkpt><trkpt lat="43.715398704009004" lon="11.591795389320648"><ele>1379.0</ele><time>2026-04-28T13:39:05.999Z</time></trkpt><trkpt lat="43.71536376234457" lon="11.59194032221248"><ele>1379.75</ele><time>2026-04-28T13:39:06.999Z</time></trkpt><trkpt lat="43.715326506597876" lon="11.592179568999553"><ele>1380.5</ele><time>2026-04-28T13:39:07.999Z</time></trkpt><trkpt lat="43.715308053547936" lon="11.592303701489342"><ele>1381.25</ele><time>2026-04-28T13:39:08.999Z</time></trkpt><trkpt lat="43.7152658000045" lon="11.59242919280814"><ele>1382.0</ele><time>2026-04-28T13:39:09.999Z</time></trkpt><trkpt lat="43.71520325354146" lon="11.592567123276572"><ele>1373.75</ele><time>2026-04-28T13:39:10.999Z</time></trkpt><trkpt lat="43.71516253606514" lon="11.592695258877857"><ele>1365.5</ele><time>2026-04-28T13:39:11.999Z</time></trkpt><trkpt lat="43.71513865506003" lon="11.592829266314274"><ele>1357.25</ele><time>2026-04-28T13:39:12.999Z</time></trkpt><trkpt lat="43.71511627631385" lon="11.59299177140055"><ele>1349.0</ele><time>2026-04-28T13:39:13.999Z</time></trkpt><trkpt lat="43.71509250349755" lon="11.59319094760084"><ele>1349.0</ele><time>2026-04-28T13:39:14.999Z</time></trkpt><trkpt lat="43.71507128046268" lon="11.5933402298888"><ele>1349.0</ele><time>2026-04-28T13:39:15.999Z</time></trkpt><trkpt lat="43.715069154988456" lon="11.593443488534417"><ele>1349.0</ele><time>2026-04-28T13:39:16.999Z</time></trkpt><trkpt lat="43.71505107969736" lon="11.593529571121806"><ele>1349.0</ele><time>2026-04-28T13:39:19.999Z</time></trkpt><trkpt lat="43.71502221866573" lon="11.593622983545592"><ele>1349.0</ele><time>2026-04-28T13:39:21.999Z</time></trkpt><trkpt lat="43.71496134886369" lon="11.59365518414669"><ele>1349.0</ele><time>2026-04-28T13:39:22.999Z</time></trkpt><trkpt lat="43.714869276685434" lon="11.593688951973684"><ele>1349.1666666666667</ele><time>2026-04-28T13:39:23.999Z</time></trkpt><trkpt lat="43.71475241560593" lon="11.593745614941424"><ele>1349.3333333333335</ele><time>2026-04-28T13:39:24.999Z</time></trkpt><trkpt lat="43.714669822303854" lon="11.593788697234006"><ele>1349.5</ele><time>2026-04-28T13:39:25.999Z</time></trkpt><trkpt lat="43.714598075037195" lon="11.593840843573139"><ele>1349.6666666666667</ele><time>2026-04-28T13:39:26.999Z</time></trkpt><trkpt lat="43.71454486629675" lon="11.593889045657312"><ele>1349.8333333333333</ele><time>2026-04-28T13:39:28Z</time></trkpt><trkpt lat="43.71448537930521" lon="11.593941729618157"><ele>1350.0</ele><time>2026-04-28T13:39:30Z</time></trkpt><trkpt lat="43.71462023889306" lon="11.593929997702793"><ele>1350.0</ele><time>2026-04-28T13:39:49Z</time></trkpt><trkpt lat="43.71471228491266" lon="11.593903258227387"><ele>1350.0</ele><time>2026-04-28T13:39:50Z</time></trkpt><trkpt lat="43.71480860278439" lon="11.593884511862314"><ele>1350.0</ele><time>2026-04-28T13:39:51Z</time></trkpt><trkpt lat="43.71489343682493" lon="11.593887508204574"><ele>1350.0</ele><time>2026-04-28T13:39:52Z</time></trkpt><trkpt lat="43.715003888472225" lon="11.59389405763537"><ele>1350.0</ele><time>2026-04-28T13:39:54Z</time></trkpt><trkpt lat="43.715098657747234" lon="11.593836860014273"><ele>1350.0</ele><time>2026-04-28T13:39:56Z</time></trkpt><trkpt lat="43.71522521665259" lon="11.593762302786027"><ele>1350.0</ele><time>2026-04-28T13:39:58Z</time></trkpt><trkpt lat="43.71529271538003" lon="11.593733836226999"><ele>1350.0</ele><time>2026-04-28T13:39:59Z</time></trkpt><trkpt lat="43.71538689580204" lon="11.593757768823854"><ele>1350.0</ele><time>2026-04-28T13:40:01Z</time></trkpt><trkpt lat="43.71547598322444" lon="11.593785330966014"><ele>1350.0</ele><time>2026-04-28T13:40:03Z</time></trkpt><trkpt lat="43.71555612545882" lon="11.593764604215261"><ele>1354.6</ele><time>2026-04-28T13:40:05Z</time></trkpt><trkpt lat="43.71559680653183" lon="11.593647659917835"><ele>1359.2</ele><time>2026-04-28T13:40:07Z</time></trkpt><trkpt lat="43.7156553713639" lon="11.593561901658125"><ele>1363.8000000000002</ele><time>2026-04-28T13:40:10Z</time></trkpt><trkpt lat="43.71576019142904" lon="11.593533359626312"><ele>1368.4</ele><time>2026-04-28T13:40:12Z</time></trkpt><trkpt lat="43.715852040661225" lon="11.593427644929966"><ele>1373.0</ele><time>2026-04-28T13:40:14Z</time></trkpt><trkpt lat="43.71592235682812" lon="11.593304852877711"><ele>1373.0</ele><time>2026-04-28T13:40:16Z</time></trkpt><trkpt lat="43.71600192403949" lon="11.593206956640696"><ele>1373.0</ele><time>2026-04-28T13:40:18Z</time></trkpt><trkpt lat="43.71605983650441" lon="11.593145661877971"><ele>1373.0</ele><time>2026-04-28T13:40:20Z</time></trkpt><trkpt lat="43.71605043137052" lon="11.593053917264974"><ele>1373.0</ele><time>2026-04-28T13:40:23Z</time></trkpt><trkpt lat="43.716048557427314" lon="11.593212418619155"><ele>1373.0</ele><time>2026-04-28T13:43:20.999Z</time></trkpt><trkpt lat="43.71599599746665" lon="11.593270610417148"><ele>1373.0</ele><time>2026-04-28T13:43:22.999Z</time></trkpt><trkpt lat="43.715923568879674" lon="11.593332255552241"><ele>1373.0</ele><time>2026-04-28T13:43:24.999Z</time></trkpt><trkpt lat="43.71586141126074" lon="11.593407018341063"><ele>1373.0</ele><time>2026-04-28T13:43:27.999Z</time></trkpt><trkpt lat="43.71579099586531" lon="11.593491159347426"><ele>1373.0</ele><time>2026-04-28T13:43:30.999Z</time></trkpt><trkpt lat="43.715728121157625" lon="11.593576844517582"><ele>1373.0</ele><time>2026-04-28T13:43:33.999Z</time></trkpt><trkpt lat="43.7157385125204" lon="11.5936825104306"><ele>1373.0</ele><time>2026-04-28T13:43:36.999Z</time></trkpt><trkpt lat="43.71579330398182" lon="11.593741817874388"><ele>1373.0</ele><time>2026-04-28T13:43:38.999Z</time></trkpt><trkpt lat="43.7158590413938" lon="11.593792065185255"><ele>1373.0</ele><time>2026-04-28T13:43:41Z</time></trkpt><trkpt lat="43.71593234670464" lon="11.593826109239073"><ele>1373.0</ele><time>2026-04-28T13:43:43Z</time></trkpt><trkpt lat="43.71600299309305" lon="11.59381756658963"><ele>1373.0</ele><time>2026-04-28T13:43:46Z</time></trkpt><trkpt lat="43.7159143341755" lon="11.593820397147068"><ele>1373.0</ele><time>2026-04-28T13:44:39Z</time></trkpt><trkpt lat="43.71582951644152" lon="11.593747169112381"><ele>1373.0</ele><time>2026-04-28T13:44:41Z</time></trkpt><trkpt lat="43.71577418679478" lon="11.59366063515926"><ele>1373.0</ele><time>2026-04-28T13:44:43Z</time></trkpt><trkpt lat="43.715716652234214" lon="11.593616909994848"><ele>1373.0</ele><time>2026-04-28T13:44:46Z</time></trkpt><trkpt lat="43.71565104796593" lon="11.593604650463849"><ele>1373.0</ele><time>2026-04-28T13:44:51Z</time></trkpt><trkpt lat="43.71558775789686" lon="11.59367726515963"><ele>1373.0</ele><time>2026-04-28T13:44:56Z</time></trkpt><trkpt lat="43.71554537464454" lon="11.59378696586092"><ele>1373.0</ele><time>2026-04-28T13:44:58Z</time></trkpt><trkpt lat="43.71546927425127" lon="11.593786863555096"><ele>1373.0</ele><time>2026-04-28T13:45:01.999Z</time></trkpt><trkpt lat="43.71540676252408" lon="11.593756106271645"><ele>1373.0</ele><time>2026-04-28T13:45:03.999Z</time></trkpt><trkpt lat="43.715327377030505" lon="11.593735459332038"><ele>1369.1666666666667</ele><time>2026-04-28T13:45:05.999Z</time></trkpt><trkpt lat="43.715237222540566" lon="11.593731814303117"><ele>1365.3333333333335</ele><time>2026-04-28T13:45:07.999Z</time></trkpt><trkpt lat="43.71515838142686" lon="11.593807822315782"><ele>1361.5</ele><time>2026-04-28T13:45:09.999Z</time></trkpt><trkpt lat="43.715066187047974" lon="11.593859034614002"><ele>1357.6666666666667</ele><time>2026-04-28T13:45:11.999Z</time></trkpt><trkpt lat="43.714986819136826" lon="11.593893496176413"><ele>1353.8333333333333</ele><time>2026-04-28T13:45:13.999Z</time></trkpt><trkpt lat="43.71491299743568" lon="11.593910180104134"><ele>1350.0</ele><time>2026-04-28T13:45:16.999Z</time></trkpt><trkpt lat="43.71483298457832" lon="11.593900602153804"><ele>1350.0</ele><time>2026-04-28T13:45:17.999Z</time></trkpt><trkpt lat="43.71475191081527" lon="11.593923353367094"><ele>1350.0</ele><time>2026-04-28T13:45:19.999Z</time></trkpt><trkpt lat="43.71466878782803" lon="11.593924627516218"><ele>1350.0</ele><time>2026-04-28T13:45:21.999Z</time></trkpt><trkpt lat="43.71460436783776" lon="11.593952963720886"><ele>1350.0</ele><time>2026-04-28T13:45:23.999Z</time></trkpt><trkpt lat="43.71451761608412" lon="11.593967390486613"><ele>1350.0</ele><time>2026-04-28T13:45:25.999Z</time></trkpt><trkpt lat="43.71445163534573" lon="11.594019462402406"><ele>1350.0</ele><time>2026-04-28T13:45:27.999Z</time></trkpt><trkpt lat="43.71438434593434" lon="11.594050075841965"><ele>1350.0</ele><time>2026-04-28T13:45:29.999Z</time></trkpt><trkpt lat="43.714426448596114" lon="11.594170227661346"><ele>1350.0</ele><time>2026-04-28T13:45:32.999Z</time></trkpt><trkpt lat="43.714468359288034" lon="11.594236857983356"><ele>1350.0</ele><time>2026-04-28T13:45:34.999Z</time></trkpt><trkpt lat="43.71453542708072" lon="11.59418099460064"><ele>1350.0</ele><time>2026-04-28T13:45:35.999Z</time></trkpt><trkpt lat="43.71460297688038" lon="11.594169047153416"><ele>1350.0</ele><time>2026-04-28T13:45:38.999Z</time></trkpt><trkpt lat="43.71467299027503" lon="11.594230973963795"><ele>1350.0</ele><time>2026-04-28T13:45:40.999Z</time></trkpt><trkpt lat="43.71475179506637" lon="11.594281396351732"><ele>1350.0</ele><time>2026-04-28T13:45:42.999Z</time></trkpt><trkpt lat="43.71484626706124" lon="11.594295055702602"><ele>1350.0</ele><time>2026-04-28T13:45:47Z</time></trkpt><trkpt lat="43.7149097426486" lon="11.594311742368669"><ele>1350.0</ele><time>2026-04-28T13:45:48Z</time></trkpt><trkpt lat="43.71499237683454" lon="11.594314820820545"><ele>1350.0</ele><time>2026-04-28T13:45:49Z</time></trkpt><trkpt lat="43.71507972110589" lon="11.594317441681829"><ele>1350.0</ele><time>2026-04-28T13:45:50Z</time></trkpt><trkpt lat="43.71516055392337" lon="11.594321916052277"><ele>1350.0</ele><time>2026-04-28T13:45:51Z</time></trkpt><trkpt lat="43.715238615182095" lon="11.59431629670984"><ele>1351.5</ele><time>2026-04-28T13:45:52Z</time></trkpt><trkpt lat="43.71531739611722" lon="11.594309034764871"><ele>1353.0</ele><time>2026-04-28T13:45:53Z</time></trkpt><trkpt lat="43.71540016010546" lon="11.594314842451578"><ele>1354.5</ele><time>2026-04-28T13:45:54Z</time></trkpt><trkpt lat="43.71547854027807" lon="11.594327734117359"><ele>1356.0</ele><time>2026-04-28T13:45:55Z</time></trkpt><trkpt lat="43.71556713694435" lon="11.594339314216985"><ele>1357.5</ele><time>2026-04-28T13:45:56Z</time></trkpt><trkpt lat="43.71565292077343" lon="11.594345341622406"><ele>1359.0</ele><time>2026-04-28T13:45:57Z</time></trkpt><trkpt lat="43.715738928023214" lon="11.594342834659184"><ele>1359.0</ele><time>2026-04-28T13:45:58Z</time></trkpt><trkpt lat="43.71581935755336" lon="11.594328877876512"><ele>1359.0</ele><time>2026-04-28T13:45:59Z</time></trkpt><trkpt lat="43.71589424295408" lon="11.594306116194483"><ele>1359.0</ele><time>2026-04-28T13:46:00Z</time></trkpt><trkpt lat="43.71598101634056" lon="11.594271959572078"><ele>1359.0</ele><time>2026-04-28T13:46:01Z</time></trkpt><trkpt lat="43.71608142460225" lon="11.59421750717176"><ele>1359.0</ele><time>2026-04-28T13:46:02Z</time></trkpt><trkpt lat="43.71619869801157" lon="11.594150763239387"><ele>1359.0</ele><time>2026-04-28T13:46:03Z</time></trkpt><trkpt lat="43.716325953748246" lon="11.594071822170312"><ele>1359.0</ele><time>2026-04-28T13:46:04Z</time></trkpt><trkpt lat="43.71646033747048" lon="11.593983619278761"><ele>1359.0</ele><time>2026-04-28T13:46:05Z</time></trkpt><trkpt lat="43.71658220544239" lon="11.593911802187925"><ele>1359.0</ele><time>2026-04-28T13:46:06Z</time></trkpt><trkpt lat="43.71667856968398" lon="11.593870374012862"><ele>1359.0</ele><time>2026-04-28T13:46:07Z</time></trkpt><trkpt lat="43.71675612281778" lon="11.593834607968196"><ele>1359.0</ele><time>2026-04-28T13:46:08Z</time></trkpt><trkpt lat="43.7168381078918" lon="11.593773610446"><ele>1359.0</ele><time>2026-04-28T13:46:09Z</time></trkpt><trkpt lat="43.71693754396225" lon="11.593761032818836"><ele>1359.0</ele><time>2026-04-28T13:46:10Z</time></trkpt><trkpt lat="43.717021972759284" lon="11.593664299026424"><ele>1359.0</ele><time>2026-04-28T13:46:11Z</time></trkpt><trkpt lat="43.71711965707858" lon="11.593641409867388"><ele>1358.2</ele><time>2026-04-28T13:46:12Z</time></trkpt><trkpt lat="43.71722176881553" lon="11.593674074984682"><ele>1357.4</ele><time>2026-04-28T13:46:13Z</time></trkpt><trkpt lat="43.717313377310575" lon="11.593640015041126"><ele>1356.6</ele><time>2026-04-28T13:46:14Z</time></trkpt><trkpt lat="43.71740542724743" lon="11.593592503696613"><ele>1355.8</ele><time>2026-04-28T13:46:15Z</time></trkpt><trkpt lat="43.71748023580381" lon="11.593508272798799"><ele>1355.0</ele><time>2026-04-28T13:46:16Z</time></trkpt><trkpt lat="43.71755280444042" lon="11.593448555897693"><ele>1358.75</ele><time>2026-04-28T13:46:17Z</time></trkpt><trkpt lat="43.71764643912366" lon="11.593389107717861"><ele>1362.5</ele><time>2026-04-28T13:46:18Z</time></trkpt><trkpt lat="43.7177365713145" lon="11.5932866652079"><ele>1366.25</ele><time>2026-04-28T13:46:19Z</time></trkpt><trkpt lat="43.71781418686488" lon="11.593161607220159"><ele>1370.0</ele><time>2026-04-28T13:46:20Z</time></trkpt><trkpt lat="43.71789837487627" lon="11.593045019612381"><ele>1370.0</ele><time>2026-04-28T13:46:21Z</time></trkpt><trkpt lat="43.717979127680294" lon="11.592933068415906"><ele>1370.0</ele><time>2026-04-28T13:46:22Z</time></trkpt><trkpt lat="43.71805650327102" lon="11.592831929322735"><ele>1370.0</ele><time>2026-04-28T13:46:23Z</time></trkpt><trkpt lat="43.718127028147684" lon="11.592759283755546"><ele>1370.0</ele><time>2026-04-28T13:46:24Z</time></trkpt><trkpt lat="43.71820260835092" lon="11.592696477169415"><ele>1370.0</ele><time>2026-04-28T13:46:25Z</time></trkpt><trkpt lat="43.718285525080056" lon="11.59264104697152"><ele>1374.0</ele><time>2026-04-28T13:46:26Z</time></trkpt><trkpt lat="43.718386921753805" lon="11.5926139563906"><ele>1378.0</ele><time>2026-04-28T13:46:27Z</time></trkpt><trkpt lat="43.71849309646273" lon="11.59259701134352"><ele>1382.0</ele><time>2026-04-28T13:46:28Z</time></trkpt><trkpt lat="43.71858197432744" lon="11.592578226325713"><ele>1386.0</ele><time>2026-04-28T13:46:29Z</time></trkpt><trkpt lat="43.718664234849236" lon="11.592580553206185"><ele>1390.0</ele><time>2026-04-28T13:46:30Z</time></trkpt><trkpt lat="43.718750540920325" lon="11.592561686002828"><ele>1390.0</ele><time>2026-04-28T13:46:31Z</time></trkpt><trkpt lat="43.71884638482507" lon="11.592547244369504"><ele>1390.0</ele><time>2026-04-28T13:46:32Z</time></trkpt><trkpt lat="43.718935379009395" lon="11.592553426094621"><ele>1390.0</ele><time>2026-04-28T13:46:33Z</time></trkpt><trkpt lat="43.719024165744294" lon="11.5925457630518"><ele>1390.0</ele><time>2026-04-28T13:46:34Z</time></trkpt><trkpt lat="43.719097342392985" lon="11.592530934869108"><ele>1390.0</ele><time>2026-04-28T13:46:35Z</time></trkpt><trkpt lat="43.71915859616322" lon="11.592556895032565"><ele>1390.0</ele><time>2026-04-28T13:46:36Z</time></trkpt><trkpt lat="43.71928316177549" lon="11.592545151703561"><ele>1390.0</ele><time>2026-04-28T13:46:38Z</time></trkpt><trkpt lat="43.71935876574566" lon="11.592517567411178"><ele>1390.0</ele><time>2026-04-28T13:46:39Z</time></trkpt><trkpt lat="43.71942220351864" lon="11.592482982099614"><ele>1390.0</ele><time>2026-04-28T13:46:40Z</time></trkpt><trkpt lat="43.71949341745853" lon="11.592439175557837"><ele>1390.0</ele><time>2026-04-28T13:46:42Z</time></trkpt><trkpt lat="43.719559153385475" lon="11.592503801816783"><ele>1390.0</ele><time>2026-04-28T13:46:53Z</time></trkpt><trkpt lat="43.719663478927174" lon="11.592557885451495"><ele>1390.0</ele><time>2026-04-28T13:46:55Z</time></trkpt><trkpt lat="43.71973059236883" lon="11.592579295112028"><ele>1389.4</ele><time>2026-04-28T13:46:56Z</time></trkpt><trkpt lat="43.719828617669116" lon="11.592613366175838"><ele>1388.8</ele><time>2026-04-28T13:46:58Z</time></trkpt><trkpt lat="43.71992843806959" lon="11.592631768129998"><ele>1388.1999999999998</ele><time>2026-04-28T13:47:01Z</time></trkpt><trkpt lat="43.72002067619792" lon="11.59258416592292"><ele>1387.6</ele><time>2026-04-28T13:47:03Z</time></trkpt><trkpt lat="43.71994596951458" lon="11.59259930443964"><ele>1387.0</ele><time>2026-04-28T13:47:11.999Z</time></trkpt><trkpt lat="43.719909947100106" lon="11.592707093507487"><ele>1387.0</ele><time>2026-04-28T13:47:13.999Z</time></trkpt><trkpt lat="43.7199153631777" lon="11.592799903947204"><ele>1387.0</ele><time>2026-04-28T13:47:15.999Z</time></trkpt><trkpt lat="43.720002988220386" lon="11.592918056526461"><ele>1387.0</ele><time>2026-04-28T13:47:17.999Z</time></trkpt><trkpt lat="43.72010506522068" lon="11.59296605002908"><ele>1387.0</ele><time>2026-04-28T13:47:19.999Z</time></trkpt><trkpt lat="43.72018335456441" lon="11.592945122626455"><ele>1387.0</ele><time>2026-04-28T13:47:21.999Z</time></trkpt><trkpt lat="43.72027904614691" lon="11.592918434933289"><ele>1383.8</ele><time>2026-04-28T13:47:24.999Z</time></trkpt><trkpt lat="43.72037400081587" lon="11.592933714108314"><ele>1380.6</ele><time>2026-04-28T13:47:26.999Z</time></trkpt><trkpt lat="43.72045981626247" lon="11.5930155034096"><ele>1377.3999999999999</ele><time>2026-04-28T13:47:28.999Z</time></trkpt><trkpt lat="43.720533316754874" lon="11.593155015480605"><ele>1374.1999999999998</ele><time>2026-04-28T13:47:30.999Z</time></trkpt><trkpt lat="43.72054883218986" lon="11.593247053907453"><ele>1371.0</ele><time>2026-04-28T13:47:31.999Z</time></trkpt><trkpt lat="43.720551479159646" lon="11.593381850732532"><ele>1371.0</ele><time>2026-04-28T13:47:33.999Z</time></trkpt><trkpt lat="43.7205817753036" lon="11.593462264510643"><ele>1371.0</ele><time>2026-04-28T13:47:35.999Z</time></trkpt><trkpt lat="43.72063453996209" lon="11.593552272025406"><ele>1371.0</ele><time>2026-04-28T13:47:37.999Z</time></trkpt><trkpt lat="43.72070370925955" lon="11.593663646379262"><ele>1371.0</ele><time>2026-04-28T13:47:39.999Z</time></trkpt><trkpt lat="43.72076030199984" lon="11.593771913105892"><ele>1371.0</ele><time>2026-04-28T13:47:41.999Z</time></trkpt><trkpt lat="43.72081932493919" lon="11.593823210443942"><ele>1371.0</ele><time>2026-04-28T13:47:44.999Z</time></trkpt><trkpt lat="43.720835927676" lon="11.59390732260048"><ele>1371.0</ele><time>2026-04-28T13:47:47.999Z</time></trkpt><trkpt lat="43.720803866935135" lon="11.59381756049829"><ele>1371.0</ele><time>2026-04-28T13:48:42Z</time></trkpt><trkpt lat="43.72074838853523" lon="11.59371048228082"><ele>1371.0</ele><time>2026-04-28T13:48:44Z</time></trkpt><trkpt lat="43.72067269808607" lon="11.593594568066035"><ele>1371.0</ele><time>2026-04-28T13:48:46Z</time></trkpt><trkpt lat="43.72059404119091" lon="11.593453300790054"><ele>1371.0</ele><time>2026-04-28T13:48:48Z</time></trkpt><trkpt lat="43.72056417364125" lon="11.593271348829012"><ele>1371.0</ele><time>2026-04-28T13:48:50Z</time></trkpt><trkpt lat="43.72054869381079" lon="11.593170464651465"><ele>1371.0</ele><time>2026-04-28T13:48:51Z</time></trkpt><trkpt lat="43.720520328216296" lon="11.593075173762811"><ele>1371.0</ele><time>2026-04-28T13:48:52Z</time></trkpt><trkpt lat="43.720469116797794" lon="11.592991610734122"><ele>1371.0</ele><time>2026-04-28T13:48:53Z</time></trkpt><trkpt lat="43.720404900657904" lon="11.59293746830245"><ele>1371.0</ele><time>2026-04-28T13:48:54Z</time></trkpt><trkpt lat="43.720332862934384" lon="11.592923766552254"><ele>1371.0</ele><time>2026-04-28T13:48:55Z</time></trkpt><trkpt lat="43.72025170527369" lon="11.592936255212374"><ele>1371.6666666666667</ele><time>2026-04-28T13:48:56Z</time></trkpt><trkpt lat="43.72016551564153" lon="11.592954891521362"><ele>1372.3333333333333</ele><time>2026-04-28T13:48:57Z</time></trkpt><trkpt lat="43.72009317980145" lon="11.592963078453167"><ele>1373.0</ele><time>2026-04-28T13:48:58Z</time></trkpt><trkpt lat="43.71998043861637" lon="11.592880465850838"><ele>1373.6666666666665</ele><time>2026-04-28T13:49:00Z</time></trkpt><trkpt lat="43.719929658783414" lon="11.592824012441962"><ele>1374.3333333333333</ele><time>2026-04-28T13:49:01Z</time></trkpt><trkpt lat="43.71990023199848" lon="11.592741768416516"><ele>1375.0</ele><time>2026-04-28T13:49:02Z</time></trkpt><trkpt lat="43.719851951480656" lon="11.59261606572652"><ele>1377.4</ele><time>2026-04-28T13:49:04Z</time></trkpt><trkpt lat="43.719732709795245" lon="11.592584636103142"><ele>1379.8</ele><time>2026-04-28T13:49:06Z</time></trkpt><trkpt lat="43.71966259896872" lon="11.592571886350067"><ele>1382.1999999999998</ele><time>2026-04-28T13:49:07Z</time></trkpt><trkpt lat="43.71959717908553" lon="11.592542044698236"><ele>1384.6</ele><time>2026-04-28T13:49:08Z</time></trkpt><trkpt lat="43.719511370217745" lon="11.592467072116447"><ele>1387.0</ele><time>2026-04-28T13:49:09.999Z</time></trkpt><trkpt lat="43.71954233087146" lon="11.592327875742283"><ele>1387.0</ele><time>2026-04-28T13:49:12.999Z</time></trkpt><trkpt lat="43.71959485743679" lon="11.592257683834744"><ele>1387.0</ele><time>2026-04-28T13:49:13.999Z</time></trkpt><trkpt lat="43.71964437146986" lon="11.592158939616446"><ele>1387.0</ele><time>2026-04-28T13:49:14.999Z</time></trkpt><trkpt lat="43.71965583099335" lon="11.592061371217858"><ele>1387.0</ele><time>2026-04-28T13:49:15.999Z</time></trkpt><trkpt lat="43.71964988937215" lon="11.591949638040145"><ele>1387.0</ele><time>2026-04-28T13:49:16.999Z</time></trkpt><trkpt lat="43.7196317450789" lon="11.591821468482594"><ele>1387.0</ele><time>2026-04-28T13:49:17.999Z</time></trkpt><trkpt lat="43.71961608709169" lon="11.591680387640048"><ele>1386.6</ele><time>2026-04-28T13:49:18.999Z</time></trkpt><trkpt lat="43.71960059350459" lon="11.59155619912559"><ele>1386.1999999999998</ele><time>2026-04-28T13:49:19.999Z</time></trkpt><trkpt lat="43.71956546758728" lon="11.591421573303387"><ele>1385.8</ele><time>2026-04-28T13:49:20.999Z</time></trkpt><trkpt lat="43.719525986228284" lon="11.591286563011575"><ele>1385.4</ele><time>2026-04-28T13:49:21.999Z</time></trkpt><trkpt lat="43.71949412150792" lon="11.591164473336368"><ele>1385.0</ele><time>2026-04-28T13:49:22.999Z</time></trkpt><trkpt lat="43.71948890442615" lon="11.59103443219181"><ele>1384.4</ele><time>2026-04-28T13:49:23.999Z</time></trkpt><trkpt lat="43.71943713231405" lon="11.590912351944652"><ele>1383.8</ele><time>2026-04-28T13:49:24.999Z</time></trkpt><trkpt lat="43.719407237234805" lon="11.590784854278803"><ele>1383.1999999999998</ele><time>2026-04-28T13:49:25.999Z</time></trkpt><trkpt lat="43.71941467358659" lon="11.590644404264697"><ele>1382.6</ele><time>2026-04-28T13:49:26.999Z</time></trkpt><trkpt lat="43.71938794603864" lon="11.590519969866467"><ele>1382.0</ele><time>2026-04-28T13:49:27.999Z</time></trkpt><trkpt lat="43.71935961831454" lon="11.590395543510583"><ele>1388.3999999999999</ele><time>2026-04-28T13:49:28.999Z</time></trkpt><trkpt lat="43.719324756211115" lon="11.59025463196897"><ele>1394.8</ele><time>2026-04-28T13:49:29.999Z</time></trkpt><trkpt lat="43.71928774345468" lon="11.590113751235998"><ele>1401.2</ele><time>2026-04-28T13:49:30.999Z</time></trkpt><trkpt lat="43.7192528314887" lon="11.589989322053277"><ele>1407.6</ele><time>2026-04-28T13:49:31.999Z</time></trkpt><trkpt lat="43.71921683306414" lon="11.589870883186355"><ele>1414.0</ele><time>2026-04-28T13:49:32.999Z</time></trkpt><trkpt lat="43.719174416355806" lon="11.589743848952324"><ele>1414.0</ele><time>2026-04-28T13:49:33.999Z</time></trkpt><trkpt lat="43.7191221808727" lon="11.589605488148324"><ele>1414.0</ele><time>2026-04-28T13:49:34.999Z</time></trkpt><trkpt lat="43.719066393404866" lon="11.589462712608022"><ele>1414.0</ele><time>2026-04-28T13:49:35.999Z</time></trkpt><trkpt lat="43.71898782733027" lon="11.589350032654128"><ele>1414.0</ele><time>2026-04-28T13:49:36.999Z</time></trkpt><trkpt lat="43.71893689160735" lon="11.589228588734354"><ele>1414.0</ele><time>2026-04-28T13:49:37.999Z</time></trkpt><trkpt lat="43.7188843150844" lon="11.58910587220528"><ele>1414.4</ele><time>2026-04-28T13:49:38.999Z</time></trkpt><trkpt lat="43.71885689978517" lon="11.58895925671907"><ele>1414.8000000000002</ele><time>2026-04-28T13:49:39.999Z</time></trkpt><trkpt lat="43.718824517118776" lon="11.588838615460414"><ele>1415.1999999999998</ele><time>2026-04-28T13:49:40.999Z</time></trkpt><trkpt lat="43.718817056215485" lon="11.588736235350131"><ele>1415.6</ele><time>2026-04-28T13:49:41.999Z</time></trkpt><trkpt lat="43.71882453642703" lon="11.58861733329415"><ele>1416.0</ele><time>2026-04-28T13:49:42.999Z</time></trkpt><trkpt lat="43.71885697018946" lon="11.588500287455481"><ele>1416.0</ele><time>2026-04-28T13:49:43.999Z</time></trkpt><trkpt lat="43.71888766967022" lon="11.588378281198818"><ele>1416.0</ele><time>2026-04-28T13:49:44.999Z</time></trkpt><trkpt lat="43.7189555597843" lon="11.588263773696578"><ele>1416.0</ele><time>2026-04-28T13:49:45.999Z</time></trkpt><trkpt lat="43.71900777753294" lon="11.588124410565317"><ele>1416.0</ele><time>2026-04-28T13:49:46.999Z</time></trkpt><trkpt lat="43.71904874237672" lon="11.58799777747393"><ele>1416.0</ele><time>2026-04-28T13:49:47.999Z</time></trkpt><trkpt lat="43.719059741495755" lon="11.587880630687621"><ele>1417.0</ele><time>2026-04-28T13:49:48.999Z</time></trkpt><trkpt lat="43.71907756238058" lon="11.587765239870496"><ele>1418.0</ele><time>2026-04-28T13:49:49.999Z</time></trkpt><trkpt lat="43.71905497260902" lon="11.587628519950023"><ele>1419.0</ele><time>2026-04-28T13:49:50.999Z</time></trkpt><trkpt lat="43.71900957389752" lon="11.58747599740062"><ele>1420.0</ele><time>2026-04-28T13:49:51.999Z</time></trkpt><trkpt lat="43.71895403114038" lon="11.58730696743031"><ele>1421.0</ele><time>2026-04-28T13:49:52.999Z</time></trkpt><trkpt lat="43.71889972333613" lon="11.587151646803234"><ele>1421.0</ele><time>2026-04-28T13:49:53.999Z</time></trkpt><trkpt lat="43.7188482985491" lon="11.58702624355295"><ele>1421.0</ele><time>2026-04-28T13:49:54.999Z</time></trkpt><trkpt lat="43.71882488082587" lon="11.586898812240523"><ele>1421.0</ele><time>2026-04-28T13:49:56Z</time></trkpt><trkpt lat="43.718795969731595" lon="11.586780647172809"><ele>1421.0</ele><time>2026-04-28T13:49:57Z</time></trkpt><trkpt lat="43.71877636801862" lon="11.586672194286852"><ele>1421.0</ele><time>2026-04-28T13:49:58Z</time></trkpt><trkpt lat="43.7187712191249" lon="11.586553762365016"><ele>1422.4</ele><time>2026-04-28T13:49:59Z</time></trkpt><trkpt lat="43.71879222293234" lon="11.58642347738633"><ele>1423.8</ele><time>2026-04-28T13:50:00Z</time></trkpt><trkpt lat="43.7188447482282" lon="11.586300917295363"><ele>1425.2</ele><time>2026-04-28T13:50:01Z</time></trkpt><trkpt lat="43.718924793265955" lon="11.586200655478637"><ele>1426.6000000000001</ele><time>2026-04-28T13:50:02Z</time></trkpt><trkpt lat="43.71901423637727" lon="11.586114990900946"><ele>1428.0</ele><time>2026-04-28T13:50:03Z</time></trkpt><trkpt lat="43.71909815129512" lon="11.586052314276305"><ele>1431.0</ele><time>2026-04-28T13:50:04Z</time></trkpt><trkpt lat="43.719180519466235" lon="11.585992629005512"><ele>1434.0</ele><time>2026-04-28T13:50:05Z</time></trkpt><trkpt lat="43.71929857513604" lon="11.58594385102188"><ele>1437.0</ele><time>2026-04-28T13:50:06Z</time></trkpt><trkpt lat="43.719417017326585" lon="11.58586973205664"><ele>1440.0</ele><time>2026-04-28T13:50:07Z</time></trkpt><trkpt lat="43.71950843871774" lon="11.585785857907155"><ele>1440.0</ele><time>2026-04-28T13:50:08Z</time></trkpt><trkpt lat="43.719611294832234" lon="11.585752397686603"><ele>1440.0</ele><time>2026-04-28T13:50:09Z</time></trkpt><trkpt lat="43.719717211226396" lon="11.585711769305298"><ele>1440.0</ele><time>2026-04-28T13:50:10Z</time></trkpt><trkpt lat="43.7198317771706" lon="11.58567870300414"><ele>1440.0</ele><time>2026-04-28T13:50:11Z</time></trkpt><trkpt lat="43.71994216526776" lon="11.58565954197378"><ele>1440.0</ele><time>2026-04-28T13:50:12Z</time></trkpt><trkpt lat="43.72004267731696" lon="11.585640982850109"><ele>1440.0</ele><time>2026-04-28T13:50:13Z</time></trkpt><trkpt lat="43.720124759139836" lon="11.585591507689404"><ele>1440.0</ele><time>2026-04-28T13:50:14Z</time></trkpt><trkpt lat="43.720204509997636" lon="11.58554317340819"><ele>1440.0</ele><time>2026-04-28T13:50:15Z</time></trkpt><trkpt lat="43.72025776889104" lon="11.585436815518596"><ele>1440.0</ele><time>2026-04-28T13:50:16Z</time></trkpt><trkpt lat="43.72030091612632" lon="11.585311969075496"><ele>1440.0</ele><time>2026-04-28T13:50:17Z</time></trkpt><trkpt lat="43.72031679261685" lon="11.585175776132445"><ele>1438.25</ele><time>2026-04-28T13:50:18Z</time></trkpt><trkpt lat="43.72031735720519" lon="11.585034493366665"><ele>1436.5</ele><time>2026-04-28T13:50:19Z</time></trkpt><trkpt lat="43.72030173835071" lon="11.584876957869882"><ele>1434.75</ele><time>2026-04-28T13:50:20Z</time></trkpt><trkpt lat="43.72027926291018" lon="11.584703029327716"><ele>1433.0</ele><time>2026-04-28T13:50:21Z</time></trkpt><trkpt lat="43.720276588748256" lon="11.584551470700697"><ele>1436.5</ele><time>2026-04-28T13:50:22Z</time></trkpt><trkpt lat="43.720305607258084" lon="11.584415935916189"><ele>1440.0</ele><time>2026-04-28T13:50:23Z</time></trkpt><trkpt lat="43.720366147231466" lon="11.584283306950999"><ele>1443.5</ele><time>2026-04-28T13:50:24Z</time></trkpt><trkpt lat="43.72045677682159" lon="11.58415466923451"><ele>1447.0</ele><time>2026-04-28T13:50:25Z</time></trkpt><trkpt lat="43.720553607232816" lon="11.584045699210971"><ele>1447.0</ele><time>2026-04-28T13:50:26Z</time></trkpt><trkpt lat="43.72064040553761" lon="11.583967427307211"><ele>1447.0</ele><time>2026-04-28T13:50:27Z</time></trkpt><trkpt lat="43.7207114052424" lon="11.58389144671465"><ele>1447.0</ele><time>2026-04-28T13:50:28Z</time></trkpt><trkpt lat="43.72077089438381" lon="11.583806710807352"><ele>1447.0</ele><time>2026-04-28T13:50:29Z</time></trkpt><trkpt lat="43.72081926461198" lon="11.583711319994434"><ele>1447.0</ele><time>2026-04-28T13:50:30Z</time></trkpt><trkpt lat="43.72084870191606" lon="11.583596530191297"><ele>1447.1666666666665</ele><time>2026-04-28T13:50:31Z</time></trkpt><trkpt lat="43.72084798088718" lon="11.583466538084782"><ele>1447.3333333333333</ele><time>2026-04-28T13:50:32Z</time></trkpt><trkpt lat="43.72082654699591" lon="11.583346740249887"><ele>1447.5</ele><time>2026-04-28T13:50:33Z</time></trkpt><trkpt lat="43.720795002599196" lon="11.5832595021736"><ele>1447.6666666666667</ele><time>2026-04-28T13:50:34Z</time></trkpt><trkpt lat="43.720725023183064" lon="11.583153166544363"><ele>1447.8333333333335</ele><time>2026-04-28T13:50:36Z</time></trkpt><trkpt lat="43.72064727102584" lon="11.583094656170706"><ele>1448.0</ele><time>2026-04-28T13:50:38Z</time></trkpt><trkpt lat="43.720562360349405" lon="11.58305248660438"><ele>1448.0</ele><time>2026-04-28T13:50:46Z</time></trkpt><trkpt lat="43.72050088954684" lon="11.583032327283124"><ele>1448.0</ele><time>2026-04-28T13:50:47Z</time></trkpt><trkpt lat="43.72042948994847" lon="11.583012488050102"><ele>1448.0</ele><time>2026-04-28T13:50:48Z</time></trkpt><trkpt lat="43.720350488937626" lon="11.582994133220613"><ele>1448.0</ele><time>2026-04-28T13:50:49Z</time></trkpt><trkpt lat="43.72025271018553" lon="11.582977880340845"><ele>1448.0</ele><time>2026-04-28T13:50:50Z</time></trkpt><trkpt lat="43.72012698834577" lon="11.582967178272565"><ele>1448.0</ele><time>2026-04-28T13:50:51Z</time></trkpt><trkpt lat="43.720000766304054" lon="11.582959149033115"><ele>1450.0</ele><time>2026-04-28T13:50:52Z</time></trkpt><trkpt lat="43.71987074386171" lon="11.58294620307367"><ele>1452.0</ele><time>2026-04-28T13:50:53Z</time></trkpt><trkpt lat="43.71973998396381" lon="11.582928228027333"><ele>1454.0</ele><time>2026-04-28T13:50:54Z</time></trkpt><trkpt lat="43.71961078472957" lon="11.582905127878142"><ele>1456.0</ele><time>2026-04-28T13:50:55Z</time></trkpt><trkpt lat="43.719486132312596" lon="11.58288412303589"><ele>1457.5</ele><time>2026-04-28T13:50:56Z</time></trkpt><trkpt lat="43.71936800961213" lon="11.582862815765408"><ele>1459.0</ele><time>2026-04-28T13:50:57Z</time></trkpt><trkpt lat="43.71925434575597" lon="11.58282655248907"><ele>1460.5</ele><time>2026-04-28T13:50:58Z</time></trkpt><trkpt lat="43.71914172424848" lon="11.582773394293842"><ele>1462.0</ele><time>2026-04-28T13:50:59Z</time></trkpt><trkpt lat="43.719027449684425" lon="11.582695577969046"><ele>1458.75</ele><time>2026-04-28T13:51:00Z</time></trkpt><trkpt lat="43.7189039495774" lon="11.582601902155758"><ele>1455.5</ele><time>2026-04-28T13:51:01Z</time></trkpt><trkpt lat="43.7187791376528" lon="11.582506183327142"><ele>1452.25</ele><time>2026-04-28T13:51:02Z</time></trkpt><trkpt lat="43.71866750530255" lon="11.58240947436503"><ele>1449.0</ele><time>2026-04-28T13:51:03Z</time></trkpt><trkpt lat="43.7185599014554" lon="11.582335653055104"><ele>1449.0</ele><time>2026-04-28T13:51:04Z</time></trkpt><trkpt lat="43.71846272143803" lon="11.582281620112603"><ele>1449.0</ele><time>2026-04-28T13:51:05Z</time></trkpt><trkpt lat="43.71837454538706" lon="11.582211228063333"><ele>1449.0</ele><time>2026-04-28T13:51:06Z</time></trkpt><trkpt lat="43.71830141584362" lon="11.582131149109774"><ele>1449.0</ele><time>2026-04-28T13:51:07Z</time></trkpt><trkpt lat="43.718247303777446" lon="11.582053925710268"><ele>1449.0</ele><time>2026-04-28T13:51:07.999Z</time></trkpt><trkpt lat="43.718184502839755" lon="11.581914095124365"><ele>1447.0</ele><time>2026-04-28T13:51:09.999Z</time></trkpt><trkpt lat="43.718179861090135" lon="11.581773085212792"><ele>1445.0</ele><time>2026-04-28T13:51:11.999Z</time></trkpt><trkpt lat="43.71820837777796" lon="11.581647744745911"><ele>1443.0</ele><time>2026-04-28T13:51:13.999Z</time></trkpt><trkpt lat="43.71825184523809" lon="11.58153863964415"><ele>1441.0</ele><time>2026-04-28T13:51:15.999Z</time></trkpt><trkpt lat="43.71829870926906" lon="11.58144306458037"><ele>1439.0</ele><time>2026-04-28T13:51:17.999Z</time></trkpt><trkpt lat="43.71836141010698" lon="11.581325968914104"><ele>1439.0</ele><time>2026-04-28T13:51:19.999Z</time></trkpt><trkpt lat="43.718441103142965" lon="11.581264072687523"><ele>1439.0</ele><time>2026-04-28T13:51:21.999Z</time></trkpt><trkpt lat="43.71851582587111" lon="11.581227227846489"><ele>1439.0</ele><time>2026-04-28T13:51:23.999Z</time></trkpt><trkpt lat="43.7185752963239" lon="11.581149351355023"><ele>1439.0</ele><time>2026-04-28T13:51:25.999Z</time></trkpt><trkpt lat="43.718645412271414" lon="11.581087700296065"><ele>1439.0</ele><time>2026-04-28T13:51:27.999Z</time></trkpt><trkpt lat="43.71873174409201" lon="11.581079679197176"><ele>1439.0</ele><time>2026-04-28T13:51:29.999Z</time></trkpt><trkpt lat="43.71881313045113" lon="11.581039940173218"><ele>1440.25</ele><time>2026-04-28T13:51:30.999Z</time></trkpt><trkpt lat="43.718927737518946" lon="11.580981703334588"><ele>1441.5</ele><time>2026-04-28T13:51:31.999Z</time></trkpt><trkpt lat="43.719068201433544" lon="11.580928613360483"><ele>1442.75</ele><time>2026-04-28T13:51:32.999Z</time></trkpt><trkpt lat="43.71921223646952" lon="11.580878365845631"><ele>1444.0</ele><time>2026-04-28T13:51:33.999Z</time></trkpt><trkpt lat="43.719363344833845" lon="11.580817115283475"><ele>1441.0</ele><time>2026-04-28T13:51:34.999Z</time></trkpt><trkpt lat="43.71950066864057" lon="11.58073611024319"><ele>1438.0</ele><time>2026-04-28T13:51:35.999Z</time></trkpt><trkpt lat="43.71964390206121" lon="11.580632964331905"><ele>1435.0</ele><time>2026-04-28T13:51:36.999Z</time></trkpt><trkpt lat="43.719781847210015" lon="11.580530766997475"><ele>1435.0</ele><time>2026-04-28T13:51:37.999Z</time></trkpt><trkpt lat="43.719925134987946" lon="11.580431722623983"><ele>1435.0</ele><time>2026-04-28T13:51:38.999Z</time></trkpt><trkpt lat="43.72006047815546" lon="11.580339700574317"><ele>1435.0</ele><time>2026-04-28T13:51:39.999Z</time></trkpt><trkpt lat="43.72018068253983" lon="11.580248845708711"><ele>1435.0</ele><time>2026-04-28T13:51:40.999Z</time></trkpt><trkpt lat="43.72028342054693" lon="11.580165679770696"><ele>1434.8</ele><time>2026-04-28T13:51:41.999Z</time></trkpt><trkpt lat="43.720374602902424" lon="11.580091534848876"><ele>1434.6</ele><time>2026-04-28T13:51:42.999Z</time></trkpt><trkpt lat="43.720460223894484" lon="11.580026176503498"><ele>1434.4</ele><time>2026-04-28T13:51:43.999Z</time></trkpt><trkpt lat="43.72054721677644" lon="11.57997386726115"><ele>1434.2</ele><time>2026-04-28T13:51:44.999Z</time></trkpt><trkpt lat="43.72064251268417" lon="11.579921876192474"><ele>1434.0</ele><time>2026-04-28T13:51:45.999Z</time></trkpt><trkpt lat="43.720740612668806" lon="11.579846783493814"><ele>1434.0</ele><time>2026-04-28T13:51:46.999Z</time></trkpt><trkpt lat="43.72084485326032" lon="11.579748577102656"><ele>1434.0</ele><time>2026-04-28T13:51:47.999Z</time></trkpt><trkpt lat="43.720947119656664" lon="11.5796350509254"><ele>1434.0</ele><time>2026-04-28T13:51:48.999Z</time></trkpt><trkpt lat="43.72103399245259" lon="11.579518985434676"><ele>1434.0</ele><time>2026-04-28T13:51:49.999Z</time></trkpt><trkpt lat="43.72111284356128" lon="11.579398097375599"><ele>1431.75</ele><time>2026-04-28T13:51:50.999Z</time></trkpt><trkpt lat="43.72118565315779" lon="11.579267800366765"><ele>1429.5</ele><time>2026-04-28T13:51:51.999Z</time></trkpt><trkpt lat="43.721257441393874" lon="11.57913084425657"><ele>1427.25</ele><time>2026-04-28T13:51:52.999Z</time></trkpt><trkpt lat="43.72133381000969" lon="11.578982433587145"><ele>1425.0</ele><time>2026-04-28T13:51:53.999Z</time></trkpt><trkpt lat="43.721411223971224" lon="11.578832965026535"><ele>1425.0</ele><time>2026-04-28T13:51:54.999Z</time></trkpt><trkpt lat="43.72148980837333" lon="11.578693131754807"><ele>1425.0</ele><time>2026-04-28T13:51:55.999Z</time></trkpt><trkpt lat="43.721560119255095" lon="11.578565769630012"><ele>1425.0</ele><time>2026-04-28T13:51:56.999Z</time></trkpt><trkpt lat="43.72164091629874" lon="11.578462919520373"><ele>1425.0</ele><time>2026-04-28T13:51:57.999Z</time></trkpt><trkpt lat="43.72173157455401" lon="11.578387070055287"><ele>1425.4</ele><time>2026-04-28T13:51:58.999Z</time></trkpt><trkpt lat="43.721829243564144" lon="11.578329041124567"><ele>1425.8</ele><time>2026-04-28T13:51:59.999Z</time></trkpt><trkpt lat="43.72192762876955" lon="11.578279988864782"><ele>1426.1999999999998</ele><time>2026-04-28T13:52:00.999Z</time></trkpt><trkpt lat="43.72202615162336" lon="11.578228088591313"><ele>1426.6</ele><time>2026-04-28T13:52:02Z</time></trkpt><trkpt lat="43.72211318394023" lon="11.578177848881973"><ele>1427.0</ele><time>2026-04-28T13:52:03Z</time></trkpt><trkpt lat="43.7221959352029" lon="11.578151160473757"><ele>1427.0</ele><time>2026-04-28T13:52:04Z</time></trkpt><trkpt lat="43.72226745842819" lon="11.5781218544392"><ele>1427.0</ele><time>2026-04-28T13:52:05Z</time></trkpt><trkpt lat="43.722344349296066" lon="11.578093948714578"><ele>1427.0</ele><time>2026-04-28T13:52:06Z</time></trkpt><trkpt lat="43.722420681325204" lon="11.578069037493028"><ele>1427.0</ele><time>2026-04-28T13:52:07Z</time></trkpt><trkpt lat="43.72248253096137" lon="11.578048869333571"><ele>1427.0</ele><time>2026-04-28T13:52:08Z</time></trkpt><trkpt lat="43.72252251406832" lon="11.577718004586155"><ele>1428.6</ele><time>2026-04-28T13:52:19Z</time></trkpt><trkpt lat="43.72260923024369" lon="11.577711656736412"><ele>1430.1999999999998</ele><time>2026-04-28T14:02:22.999Z</time></trkpt><trkpt lat="43.72273026930199" lon="11.577682824396382"><ele>1431.8</ele><time>2026-04-28T14:02:24.999Z</time></trkpt><trkpt lat="43.722800282994136" lon="11.577646465703832"><ele>1433.4</ele><time>2026-04-28T14:02:25.999Z</time></trkpt><trkpt lat="43.72290567418035" lon="11.577571746823349"><ele>1435.0</ele><time>2026-04-28T14:02:27.999Z</time></trkpt><trkpt lat="43.722961188278326" lon="11.577524390085989"><ele>1435.0</ele><time>2026-04-28T14:02:28.999Z</time></trkpt><trkpt lat="43.72306053241059" lon="11.577449987508652"><ele>1435.0</ele><time>2026-04-28T14:02:30.999Z</time></trkpt><trkpt lat="43.72316300062808" lon="11.577412583141678"><ele>1435.0</ele><time>2026-04-28T14:02:33Z</time></trkpt><trkpt lat="43.72323457396474" lon="11.577405541668016"><ele>1435.0</ele><time>2026-04-28T14:02:34Z</time></trkpt><trkpt lat="43.72333469653026" lon="11.577400836417537"><ele>1435.0</ele><time>2026-04-28T14:02:35Z</time></trkpt><trkpt lat="43.7234311983727" lon="11.57739943130672"><ele>1435.0</ele><time>2026-04-28T14:02:36Z</time></trkpt><trkpt lat="43.72350500231428" lon="11.577403745048324"><ele>1435.0</ele><time>2026-04-28T14:02:37Z</time></trkpt><trkpt lat="43.723626839687725" lon="11.57742902491422"><ele>1435.0</ele><time>2026-04-28T14:02:39Z</time></trkpt><trkpt lat="43.72373805873535" lon="11.577458723130535"><ele>1435.0</ele><time>2026-04-28T14:02:41Z</time></trkpt><trkpt lat="43.72382785129985" lon="11.577488173985914"><ele>1435.0</ele><time>2026-04-28T14:02:43Z</time></trkpt><trkpt lat="43.72388971567191" lon="11.577514852811667"><ele>1435.3333333333333</ele><time>2026-04-28T14:02:47Z</time></trkpt><trkpt lat="43.72393989180003" lon="11.577592642379228"><ele>1435.6666666666665</ele><time>2026-04-28T14:02:50Z</time></trkpt><trkpt lat="43.7239803911728" lon="11.577713899617885"><ele>1436.0</ele><time>2026-04-28T14:02:52Z</time></trkpt><trkpt lat="43.72406132392273" lon="11.577840729430992"><ele>1436.3333333333333</ele><time>2026-04-28T14:02:54Z</time></trkpt><trkpt lat="43.7241104758887" lon="11.577903706964534"><ele>1436.6666666666667</ele><time>2026-04-28T14:02:55Z</time></trkpt><trkpt lat="43.724158281922584" lon="11.577971936444293"><ele>1437.0</ele><time>2026-04-28T14:02:56Z</time></trkpt><trkpt lat="43.72420933032365" lon="11.578039983258973"><ele>1435.7142857142858</ele><time>2026-04-28T14:02:57Z</time></trkpt><trkpt lat="43.72426148592621" lon="11.578106300733278"><ele>1434.4285714285713</ele><time>2026-04-28T14:02:58Z</time></trkpt><trkpt lat="43.724317407036295" lon="11.578170940831786"><ele>1433.142857142857</ele><time>2026-04-28T14:02:59Z</time></trkpt><trkpt lat="43.72436148022396" lon="11.578250044516222"><ele>1431.857142857143</ele><time>2026-04-28T14:03:00Z</time></trkpt><trkpt lat="43.724438764840436" lon="11.57826543770393"><ele>1430.5714285714284</ele><time>2026-04-28T14:03:01Z</time></trkpt><trkpt lat="43.72451170828468" lon="11.578283652629047"><ele>1429.2857142857142</ele><time>2026-04-28T14:03:02Z</time></trkpt><trkpt lat="43.72459025181684" lon="11.578298341892843"><ele>1428.0</ele><time>2026-04-28T14:03:03Z</time></trkpt><trkpt lat="43.724669998668084" lon="11.578328932969484"><ele>1428.0</ele><time>2026-04-28T14:03:04Z</time></trkpt><trkpt lat="43.72475132038518" lon="11.578351621589608"><ele>1428.0</ele><time>2026-04-28T14:03:05Z</time></trkpt><trkpt lat="43.724824949099556" lon="11.578368330840823"><ele>1428.0</ele><time>2026-04-28T14:03:06Z</time></trkpt><trkpt lat="43.72489031876555" lon="11.578386549801552"><ele>1428.0</ele><time>2026-04-28T14:03:07Z</time></trkpt><trkpt lat="43.725011487669775" lon="11.578371400921908"><ele>1428.0</ele><time>2026-04-28T14:03:09Z</time></trkpt><trkpt lat="43.72507402659315" lon="11.57833731819255"><ele>1428.0</ele><time>2026-04-28T14:03:10Z</time></trkpt><trkpt lat="43.725137500806845" lon="11.578281649325959"><ele>1428.0</ele><time>2026-04-28T14:03:11Z</time></trkpt><trkpt lat="43.72520369798982" lon="11.578217567548519"><ele>1428.0</ele><time>2026-04-28T14:03:12Z</time></trkpt><trkpt lat="43.72528174816419" lon="11.578156359586185"><ele>1428.0</ele><time>2026-04-28T14:03:13Z</time></trkpt><trkpt lat="43.725372598299565" lon="11.578096496921363"><ele>1428.0</ele><time>2026-04-28T14:03:14Z</time></trkpt><trkpt lat="43.7254661094923" lon="11.578025985536875"><ele>1428.0</ele><time>2026-04-28T14:03:15Z</time></trkpt><trkpt lat="43.72553723725867" lon="11.577959329808376"><ele>1426.8000000000002</ele><time>2026-04-28T14:03:16Z</time></trkpt><trkpt lat="43.72559178627757" lon="11.57789003868039"><ele>1425.6</ele><time>2026-04-28T14:03:18Z</time></trkpt><trkpt lat="43.72568282225525" lon="11.577822460662004"><ele>1424.4</ele><time>2026-04-28T14:03:58.999Z</time></trkpt><trkpt lat="43.72576303142061" lon="11.577754433185065"><ele>1423.1999999999998</ele><time>2026-04-28T14:03:59.999Z</time></trkpt><trkpt lat="43.72585179145097" lon="11.5776607519683"><ele>1422.0</ele><time>2026-04-28T14:04:00.999Z</time></trkpt><trkpt lat="43.72596406210085" lon="11.57758309620453"><ele>1422.0</ele><time>2026-04-28T14:04:01.999Z</time></trkpt><trkpt lat="43.72606760709546" lon="11.577471735740474"><ele>1422.0</ele><time>2026-04-28T14:04:02.999Z</time></trkpt><trkpt lat="43.72613796923686" lon="11.577317611001162"><ele>1422.0</ele><time>2026-04-28T14:04:03.999Z</time></trkpt><trkpt lat="43.726214397854044" lon="11.577223938095658"><ele>1422.0</ele><time>2026-04-28T14:04:04.999Z</time></trkpt><trkpt lat="43.72629120565684" lon="11.577134358741239"><ele>1422.0</ele><time>2026-04-28T14:04:05.999Z</time></trkpt><trkpt lat="43.726372935698485" lon="11.577039776227892"><ele>1422.0</ele><time>2026-04-28T14:04:06.999Z</time></trkpt><trkpt lat="43.72645467384959" lon="11.576935562918198"><ele>1422.0</ele><time>2026-04-28T14:04:07.999Z</time></trkpt><trkpt lat="43.72653498808441" lon="11.57683315167657"><ele>1422.0</ele><time>2026-04-28T14:04:08.999Z</time></trkpt><trkpt lat="43.72661565398829" lon="11.576727344943894"><ele>1422.0</ele><time>2026-04-28T14:04:09.999Z</time></trkpt><trkpt lat="43.726698998316834" lon="11.576627027940697"><ele>1422.6</ele><time>2026-04-28T14:04:10.999Z</time></trkpt><trkpt lat="43.726782379094594" lon="11.57652370755977"><ele>1423.1999999999998</ele><time>2026-04-28T14:04:11.999Z</time></trkpt><trkpt lat="43.72686727179841" lon="11.57642881050139"><ele>1423.8</ele><time>2026-04-28T14:04:12.999Z</time></trkpt><trkpt lat="43.726947927616614" lon="11.576333311763758"><ele>1424.4</ele><time>2026-04-28T14:04:13.999Z</time></trkpt><trkpt lat="43.72703558070249" lon="11.576257734620812"><ele>1425.0</ele><time>2026-04-28T14:04:14.999Z</time></trkpt><trkpt lat="43.72711455932351" lon="11.57617272111219"><ele>1425.0</ele><time>2026-04-28T14:04:15.999Z</time></trkpt><trkpt lat="43.727193136212" lon="11.576091943930441"><ele>1425.0</ele><time>2026-04-28T14:04:16.999Z</time></trkpt><trkpt lat="43.727263306970364" lon="11.575989914651023"><ele>1425.0</ele><time>2026-04-28T14:04:17.999Z</time></trkpt><trkpt lat="43.72733391127309" lon="11.57590817922553"><ele>1425.0</ele><time>2026-04-28T14:04:18.999Z</time></trkpt><trkpt lat="43.7274047713002" lon="11.575829096063865"><ele>1425.0</ele><time>2026-04-28T14:04:19.999Z</time></trkpt><trkpt lat="43.72747687459047" lon="11.57574740333425"><ele>1425.0</ele><time>2026-04-28T14:04:20.999Z</time></trkpt><trkpt lat="43.727550895229335" lon="11.575669702305436"><ele>1425.0</ele><time>2026-04-28T14:04:21.999Z</time></trkpt><trkpt lat="43.72762207507594" lon="11.575584900578349"><ele>1425.0</ele><time>2026-04-28T14:04:22.999Z</time></trkpt><trkpt lat="43.727693843966456" lon="11.575505176607729"><ele>1425.0</ele><time>2026-04-28T14:04:23.999Z</time></trkpt><trkpt lat="43.72776895304659" lon="11.575437003183739"><ele>1425.0</ele><time>2026-04-28T14:04:24.999Z</time></trkpt><trkpt lat="43.727851553071226" lon="11.575372849814652"><ele>1423.8333333333333</ele><time>2026-04-28T14:04:25.999Z</time></trkpt><trkpt lat="43.72793862418979" lon="11.575321082778311"><ele>1422.6666666666667</ele><time>2026-04-28T14:04:26.999Z</time></trkpt><trkpt lat="43.728021405116706" lon="11.575273032279753"><ele>1421.5</ele><time>2026-04-28T14:04:27.999Z</time></trkpt><trkpt lat="43.728095525988756" lon="11.575230394777714"><ele>1420.3333333333335</ele><time>2026-04-28T14:04:28.999Z</time></trkpt><trkpt lat="43.72816609634351" lon="11.57519487888756"><ele>1419.1666666666667</ele><time>2026-04-28T14:04:29.999Z</time></trkpt><trkpt lat="43.7282362393151" lon="11.575170557508885"><ele>1418.0</ele><time>2026-04-28T14:04:30.999Z</time></trkpt><trkpt lat="43.72830928158347" lon="11.57514191902491"><ele>1418.0</ele><time>2026-04-28T14:04:31.999Z</time></trkpt><trkpt lat="43.728387557245746" lon="11.575110006168563"><ele>1418.0</ele><time>2026-04-28T14:04:32.999Z</time></trkpt><trkpt lat="43.72846997341703" lon="11.575082027259706"><ele>1418.0</ele><time>2026-04-28T14:04:33.999Z</time></trkpt><trkpt lat="43.72855641635294" lon="11.575057275065085"><ele>1418.0</ele><time>2026-04-28T14:04:34.999Z</time></trkpt><trkpt lat="43.728642607241824" lon="11.575038184434478"><ele>1418.0</ele><time>2026-04-28T14:04:35.999Z</time></trkpt><trkpt lat="43.728722980082544" lon="11.57502042981818"><ele>1418.0</ele><time>2026-04-28T14:04:36.999Z</time></trkpt><trkpt lat="43.72880513749466" lon="11.575000028272814"><ele>1417.6666666666667</ele><time>2026-04-28T14:04:38Z</time></trkpt><trkpt lat="43.72888160482688" lon="11.574980645005663"><ele>1417.3333333333335</ele><time>2026-04-28T14:04:39Z</time></trkpt><trkpt lat="43.72895215603077" lon="11.574956489870353"><ele>1417.0</ele><time>2026-04-28T14:04:40Z</time></trkpt><trkpt lat="43.729039962551795" lon="11.574941661284448"><ele>1416.6666666666667</ele><time>2026-04-28T14:04:42Z</time></trkpt><trkpt lat="43.72913391570328" lon="11.574914146193597"><ele>1416.3333333333333</ele><time>2026-04-28T14:04:44Z</time></trkpt><trkpt lat="43.72908268705421" lon="11.57480104972007"><ele>1416.0</ele><time>2026-04-28T14:04:48Z</time></trkpt><trkpt lat="43.72903916157094" lon="11.574727768911366"><ele>1416.0</ele><time>2026-04-28T14:05:41.999Z</time></trkpt><trkpt lat="43.72908309461908" lon="11.574796862110972"><ele>1416.0</ele><time>2026-04-28T14:08:28.999Z</time></trkpt><trkpt lat="43.72909711429831" lon="11.574882835492982"><ele>1416.0</ele><time>2026-04-28T14:08:44.999Z</time></trkpt><trkpt lat="43.729019777925764" lon="11.57487780734275"><ele>1416.0</ele><time>2026-04-28T14:08:46.998Z</time></trkpt><trkpt lat="43.72902239837728" lon="11.574790234373157"><ele>1416.0</ele><time>2026-04-28T14:08:49.998Z</time></trkpt><trkpt lat="43.729057213874945" lon="11.574700655355056"><ele>1416.0</ele><time>2026-04-28T14:08:52.998Z</time></trkpt><trkpt lat="43.729128004581526" lon="11.574608426160841"><ele>1416.0</ele><time>2026-04-28T14:08:55.999Z</time></trkpt><trkpt lat="43.72920541093005" lon="11.574530617712995"><ele>1415.6</ele><time>2026-04-28T14:08:58.999Z</time></trkpt><trkpt lat="43.72927655483473" lon="11.574416343472814"><ele>1415.1999999999998</ele><time>2026-04-28T14:09:01.999Z</time></trkpt><trkpt lat="43.7293204336195" lon="11.574297210635956"><ele>1414.8000000000002</ele><time>2026-04-28T14:09:03.999Z</time></trkpt><trkpt lat="43.729325930513106" lon="11.57418613818782"><ele>1414.4</ele><time>2026-04-28T14:09:06.999Z</time></trkpt><trkpt lat="43.729362353932835" lon="11.574083637724014"><ele>1414.0</ele><time>2026-04-28T14:09:08.999Z</time></trkpt><trkpt lat="43.72936134398489" lon="11.573961201845696"><ele>1414.0</ele><time>2026-04-28T14:09:11.999Z</time></trkpt><trkpt lat="43.72932558761271" lon="11.57386591973356"><ele>1414.0</ele><time>2026-04-28T14:10:20.999Z</time></trkpt><trkpt lat="43.72935371950561" lon="11.573981387799584"><ele>1414.0</ele><time>2026-04-28T14:11:18Z</time></trkpt><trkpt lat="43.7293463735709" lon="11.57411510739272"><ele>1414.0</ele><time>2026-04-28T14:11:20Z</time></trkpt><trkpt lat="43.72934351638814" lon="11.574215564653041"><ele>1414.0</ele><time>2026-04-28T14:11:22Z</time></trkpt><trkpt lat="43.72927217364341" lon="11.574376808363702"><ele>1414.0</ele><time>2026-04-28T14:11:24Z</time></trkpt><trkpt lat="43.72920774201946" lon="11.574501485162118"><ele>1414.0</ele><time>2026-04-28T14:11:26Z</time></trkpt><trkpt lat="43.729129741469166" lon="11.57457854776759"><ele>1414.0</ele><time>2026-04-28T14:11:28Z</time></trkpt><trkpt lat="43.72908163665898" lon="11.574643421945355"><ele>1414.0</ele><time>2026-04-28T14:11:29Z</time></trkpt><trkpt lat="43.72905353504985" lon="11.574748794630297"><ele>1414.0</ele><time>2026-04-28T14:11:31Z</time></trkpt><trkpt lat="43.7290849032351" lon="11.574846892610081"><ele>1414.0</ele><time>2026-04-28T14:11:34Z</time></trkpt><trkpt lat="43.72922258761196" lon="11.57488972008034"><ele>1414.4</ele><time>2026-04-28T14:11:36Z</time></trkpt><trkpt lat="43.729329442451906" lon="11.574874619543928"><ele>1414.8000000000002</ele><time>2026-04-28T14:11:37Z</time></trkpt><trkpt lat="43.729442534074394" lon="11.57485433296454"><ele>1415.1999999999998</ele><time>2026-04-28T14:11:38Z</time></trkpt><trkpt lat="43.72955263397849" lon="11.574843810870348"><ele>1415.6</ele><time>2026-04-28T14:11:39Z</time></trkpt><trkpt lat="43.72966515828149" lon="11.574852467393573"><ele>1416.0</ele><time>2026-04-28T14:11:40Z</time></trkpt><trkpt lat="43.72978242673056" lon="11.57491244242586"><ele>1416.25</ele><time>2026-04-28T14:11:41Z</time></trkpt><trkpt lat="43.729921216004676" lon="11.574950625359719"><ele>1416.5</ele><time>2026-04-28T14:11:42Z</time></trkpt><trkpt lat="43.730057954454665" lon="11.575026176751392"><ele>1416.75</ele><time>2026-04-28T14:11:43Z</time></trkpt><trkpt lat="43.73018586226084" lon="11.575103665026269"><ele>1417.0</ele><time>2026-04-28T14:11:44Z</time></trkpt><trkpt lat="43.73029984102327" lon="11.575186027583687"><ele>1415.75</ele><time>2026-04-28T14:11:45Z</time></trkpt><trkpt lat="43.730408727074106" lon="11.575257688018679"><ele>1414.5</ele><time>2026-04-28T14:11:46Z</time></trkpt><trkpt lat="43.73051698564757" lon="11.575350784574148"><ele>1413.25</ele><time>2026-04-28T14:11:47Z</time></trkpt><trkpt lat="43.73061779325852" lon="11.575464205749908"><ele>1412.0</ele><time>2026-04-28T14:11:48Z</time></trkpt><trkpt lat="43.73070862103973" lon="11.575570745358027"><ele>1412.0</ele><time>2026-04-28T14:11:49Z</time></trkpt><trkpt lat="43.73079850947323" lon="11.575649348072881"><ele>1412.0</ele><time>2026-04-28T14:11:50Z</time></trkpt><trkpt lat="43.73089601891152" lon="11.575693031154845"><ele>1412.0</ele><time>2026-04-28T14:11:51Z</time></trkpt><trkpt lat="43.73100283600561" lon="11.575713806357179"><ele>1412.0</ele><time>2026-04-28T14:11:52Z</time></trkpt><trkpt lat="43.73110672590502" lon="11.575727064998077"><ele>1412.0</ele><time>2026-04-28T14:11:53Z</time></trkpt><trkpt lat="43.73120622518157" lon="11.575733282666752"><ele>1411.0</ele><time>2026-04-28T14:11:54Z</time></trkpt><trkpt lat="43.731296240758205" lon="11.575729109659093"><ele>1410.0</ele><time>2026-04-28T14:11:55Z</time></trkpt><trkpt lat="43.73138559874093" lon="11.575723676253268"><ele>1409.0</ele><time>2026-04-28T14:11:56Z</time></trkpt><trkpt lat="43.731469568054685" lon="11.57570903628642"><ele>1408.0</ele><time>2026-04-28T14:11:57Z</time></trkpt><trkpt lat="43.73154865207774" lon="11.575674095480759"><ele>1407.0</ele><time>2026-04-28T14:11:58Z</time></trkpt><trkpt lat="43.731621039050395" lon="11.57563479917002"><ele>1406.0</ele><time>2026-04-28T14:11:59Z</time></trkpt><trkpt lat="43.73168979609379" lon="11.575586544689854"><ele>1406.0</ele><time>2026-04-28T14:12:00Z</time></trkpt><trkpt lat="43.73174967917961" lon="11.575546698545535"><ele>1406.0</ele><time>2026-04-28T14:12:01Z</time></trkpt><trkpt lat="43.73181371352616" lon="11.575516932903197"><ele>1406.0</ele><time>2026-04-28T14:12:02Z</time></trkpt><trkpt lat="43.73193413458422" lon="11.575454139863867"><ele>1406.0</ele><time>2026-04-28T14:12:04Z</time></trkpt><trkpt lat="43.73199844322396" lon="11.575412696650009"><ele>1406.0</ele><time>2026-04-28T14:12:05Z</time></trkpt><trkpt lat="43.732067247038685" lon="11.575375261687006"><ele>1406.0</ele><time>2026-04-28T14:12:06Z</time></trkpt><trkpt lat="43.732126093796936" lon="11.575329796290129"><ele>1406.1999999999998</ele><time>2026-04-28T14:12:07Z</time></trkpt><trkpt lat="43.73220929501773" lon="11.575181192564164"><ele>1406.3999999999999</ele><time>2026-04-28T14:12:09Z</time></trkpt><trkpt lat="43.732250223444005" lon="11.57506241504331"><ele>1406.6</ele><time>2026-04-28T14:12:10Z</time></trkpt><trkpt lat="43.73230164663247" lon="11.574949754755275"><ele>1406.8</ele><time>2026-04-28T14:12:11Z</time></trkpt><trkpt lat="43.732354714782" lon="11.574846584359918"><ele>1407.0</ele><time>2026-04-28T14:12:12Z</time></trkpt><trkpt lat="43.73241179023424" lon="11.574738187341104"><ele>1407.0</ele><time>2026-04-28T14:12:13Z</time></trkpt><trkpt lat="43.73247341148958" lon="11.574624412342267"><ele>1407.0</ele><time>2026-04-28T14:12:14Z</time></trkpt><trkpt lat="43.732536998356146" lon="11.57450419962244"><ele>1407.0</ele><time>2026-04-28T14:12:15Z</time></trkpt><trkpt lat="43.7325962145808" lon="11.574396524600157"><ele>1407.0</ele><time>2026-04-28T14:12:16Z</time></trkpt><trkpt lat="43.73265415471043" lon="11.574299589881551"><ele>1407.0</ele><time>2026-04-28T14:12:17Z</time></trkpt><trkpt lat="43.73271155803884" lon="11.574209723696567"><ele>1406.8</ele><time>2026-04-28T14:12:18Z</time></trkpt><trkpt lat="43.732784147942944" lon="11.57413841945811"><ele>1406.6</ele><time>2026-04-28T14:12:19Z</time></trkpt><trkpt lat="43.732859850717176" lon="11.574078868434944"><ele>1406.3999999999999</ele><time>2026-04-28T14:12:20Z</time></trkpt><trkpt lat="43.732943765714865" lon="11.574026534793612"><ele>1406.1999999999998</ele><time>2026-04-28T14:12:21Z</time></trkpt><trkpt lat="43.73303549569918" lon="11.573959638319915"><ele>1406.0</ele><time>2026-04-28T14:12:22Z</time></trkpt><trkpt lat="43.733136572772324" lon="11.573884387434276"><ele>1406.0</ele><time>2026-04-28T14:12:23Z</time></trkpt><trkpt lat="43.73323198869717" lon="11.573790795366753"><ele>1406.0</ele><time>2026-04-28T14:12:24Z</time></trkpt><trkpt lat="43.73331787765216" lon="11.573691598224132"><ele>1406.0</ele><time>2026-04-28T14:12:25Z</time></trkpt><trkpt lat="43.73340214390244" lon="11.573595636257098"><ele>1406.0</ele><time>2026-04-28T14:12:26Z</time></trkpt><trkpt lat="43.733500756533" lon="11.573550552936668"><ele>1406.0</ele><time>2026-04-28T14:12:26.999Z</time></trkpt><trkpt lat="43.733578145563044" lon="11.573495811854833"><ele>1407.8</ele><time>2026-04-28T14:12:27.999Z</time></trkpt><trkpt lat="43.7336630438114" lon="11.573442962051743"><ele>1409.6</ele><time>2026-04-28T14:12:28.999Z</time></trkpt><trkpt lat="43.73374509464801" lon="11.57339396334384"><ele>1411.4</ele><time>2026-04-28T14:12:29.999Z</time></trkpt><trkpt lat="43.733829180626664" lon="11.573343749518578"><ele>1413.2</ele><time>2026-04-28T14:12:30.999Z</time></trkpt><trkpt lat="43.73393756074852" lon="11.573275886101026"><ele>1415.0</ele><time>2026-04-28T14:12:31.999Z</time></trkpt><trkpt lat="43.73404454287325" lon="11.573207460193066"><ele>1415.0</ele><time>2026-04-28T14:12:32.999Z</time></trkpt><trkpt lat="43.73416520815389" lon="11.573120242985908"><ele>1415.0</ele><time>2026-04-28T14:12:33.999Z</time></trkpt><trkpt lat="43.734262341713155" lon="11.573044085975567"><ele>1415.0</ele><time>2026-04-28T14:12:34.999Z</time></trkpt><trkpt lat="43.73434037125228" lon="11.572989596722765"><ele>1415.0</ele><time>2026-04-28T14:12:35.999Z</time></trkpt><trkpt lat="43.734403915670505" lon="11.572943941011491"><ele>1415.0</ele><time>2026-04-28T14:12:36.999Z</time></trkpt><trkpt lat="43.73445794319884" lon="11.572888268553582"><ele>1416.4</ele><time>2026-04-28T14:12:37.999Z</time></trkpt><trkpt lat="43.734514012322755" lon="11.572754131254682"><ele>1417.8</ele><time>2026-04-28T14:12:39.999Z</time></trkpt><trkpt lat="43.734586115113174" lon="11.572730144875043"><ele>1419.1999999999998</ele><time>2026-04-28T14:12:42.999Z</time></trkpt><trkpt lat="43.7346941800513" lon="11.572757737642366"><ele>1420.6</ele><time>2026-04-28T14:12:44.999Z</time></trkpt><trkpt lat="43.73475705687889" lon="11.572763632850698"><ele>1422.0</ele><time>2026-04-28T14:12:45.999Z</time></trkpt><trkpt lat="43.73486486204268" lon="11.572833722534485"><ele>1419.8</ele><time>2026-04-28T14:12:47.999Z</time></trkpt><trkpt lat="43.73497525383132" lon="11.572931729464269"><ele>1417.6</ele><time>2026-04-28T14:12:49.999Z</time></trkpt><trkpt lat="43.73503341791043" lon="11.572983001254885"><ele>1415.3999999999999</ele><time>2026-04-28T14:12:50.999Z</time></trkpt><trkpt lat="43.735131587736404" lon="11.57309453811866"><ele>1413.1999999999998</ele><time>2026-04-28T14:12:52.999Z</time></trkpt><trkpt lat="43.73517577655736" lon="11.5731640243433"><ele>1411.0</ele><time>2026-04-28T14:12:53.999Z</time></trkpt><trkpt lat="43.735233089000616" lon="11.573279281790716"><ele>1410.0</ele><time>2026-04-28T14:12:55.999Z</time></trkpt><trkpt lat="43.73527166148067" lon="11.57336626258378"><ele>1409.0</ele><time>2026-04-28T14:12:57.999Z</time></trkpt><trkpt lat="43.73532294505715" lon="11.573441265295303"><ele>1408.0</ele><time>2026-04-28T14:12:59.999Z</time></trkpt><trkpt lat="43.735371063360915" lon="11.573510950956333"><ele>1407.0</ele><time>2026-04-28T14:13:02.001Z</time></trkpt><trkpt lat="43.735418923065566" lon="11.573577401672043"><ele>1406.0</ele><time>2026-04-28T14:13:04.001Z</time></trkpt><trkpt lat="43.73549252051672" lon="11.573645922598622"><ele>1405.0</ele><time>2026-04-28T14:13:06.001Z</time></trkpt><trkpt lat="43.735542369934066" lon="11.57373694146497"><ele>1402.3333333333333</ele><time>2026-04-28T14:13:08.001Z</time></trkpt><trkpt lat="43.73559982263218" lon="11.573811070584178"><ele>1399.6666666666665</ele><time>2026-04-28T14:13:10.001Z</time></trkpt><trkpt lat="43.73563742499006" lon="11.573885188219737"><ele>1397.0</ele><time>2026-04-28T14:13:13.001Z</time></trkpt><trkpt lat="43.735688689574054" lon="11.573977257575875"><ele>1394.3333333333333</ele><time>2026-04-28T14:13:15.001Z</time></trkpt><trkpt lat="43.73574471771862" lon="11.57409032971248"><ele>1391.6666666666667</ele><time>2026-04-28T14:13:17.001Z</time></trkpt><trkpt lat="43.73581078780511" lon="11.574205023853512"><ele>1389.0</ele><time>2026-04-28T14:13:19Z</time></trkpt><trkpt lat="43.73587496789395" lon="11.574323636722548"><ele>1389.0</ele><time>2026-04-28T14:13:21Z</time></trkpt><trkpt lat="43.73593445079356" lon="11.574361695665427"><ele>1389.0</ele><time>2026-04-28T14:13:22Z</time></trkpt><trkpt lat="43.73603358292686" lon="11.57444280691587"><ele>1389.0</ele><time>2026-04-28T14:13:24Z</time></trkpt><trkpt lat="43.73607463780063" lon="11.574511183581068"><ele>1389.0</ele><time>2026-04-28T14:13:25Z</time></trkpt><trkpt lat="43.73612662589124" lon="11.574575269243583"><ele>1389.0</ele><time>2026-04-28T14:13:26Z</time></trkpt><trkpt lat="43.736184100277484" lon="11.574614678873314"><ele>1389.0</ele><time>2026-04-28T14:13:27Z</time></trkpt><trkpt lat="43.7362873290876" lon="11.574769032601088"><ele>1385.6666666666667</ele><time>2026-04-28T14:13:29Z</time></trkpt><trkpt lat="43.73635778290704" lon="11.574829412165137"><ele>1382.3333333333333</ele><time>2026-04-28T14:13:30Z</time></trkpt><trkpt lat="43.73642397626725" lon="11.574924191237885"><ele>1379.0</ele><time>2026-04-28T14:13:31Z</time></trkpt><trkpt lat="43.73647910562821" lon="11.57501183641309"><ele>1375.6666666666665</ele><time>2026-04-28T14:13:32Z</time></trkpt><trkpt lat="43.73651523233203" lon="11.575088354756987"><ele>1372.3333333333333</ele><time>2026-04-28T14:13:33Z</time></trkpt><trkpt lat="43.73657842366323" lon="11.575196384887102"><ele>1369.0</ele><time>2026-04-28T14:13:35Z</time></trkpt><trkpt lat="43.73663452042475" lon="11.57528072163829"><ele>1369.0</ele><time>2026-04-28T14:13:37Z</time></trkpt><trkpt lat="43.7366793252371" lon="11.575346523241928"><ele>1369.0</ele><time>2026-04-28T14:13:39Z</time></trkpt><trkpt lat="43.7367273070269" lon="11.575411169971378"><ele>1369.0</ele><time>2026-04-28T14:13:42Z</time></trkpt><trkpt lat="43.73680432833305" lon="11.575366073057843"><ele>1369.0</ele><time>2026-04-28T14:13:44Z</time></trkpt><trkpt lat="43.73684252909555" lon="11.575232270086987"><ele>1369.0</ele><time>2026-04-28T14:13:45Z</time></trkpt><trkpt lat="43.73683302746964" lon="11.575118577289237"><ele>1369.0</ele><time>2026-04-28T14:13:46Z</time></trkpt><trkpt lat="43.73689587657435" lon="11.575216221632488"><ele>1366.8000000000002</ele><time>2026-04-28T14:13:53Z</time></trkpt><trkpt lat="43.73691576569955" lon="11.57534760380718"><ele>1364.6000000000001</ele><time>2026-04-28T14:13:55Z</time></trkpt><trkpt lat="43.73693843314971" lon="11.575482587956373"><ele>1362.4</ele><time>2026-04-28T14:13:57Z</time></trkpt><trkpt lat="43.736979192154216" lon="11.575606510112973"><ele>1360.2</ele><time>2026-04-28T14:13:59Z</time></trkpt><trkpt lat="43.73704031712727" lon="11.575718624073914"><ele>1358.0</ele><time>2026-04-28T14:14:01Z</time></trkpt><trkpt lat="43.737104190338236" lon="11.575838482416676"><ele>1358.0</ele><time>2026-04-28T14:14:03Z</time></trkpt><trkpt lat="43.73716506142278" lon="11.575951014595127"><ele>1358.0</ele><time>2026-04-28T14:14:05Z</time></trkpt><trkpt lat="43.737215826917314" lon="11.576054041522235"><ele>1358.0</ele><time>2026-04-28T14:14:07Z</time></trkpt><trkpt lat="43.73728262053009" lon="11.576146048970916"><ele>1358.0</ele><time>2026-04-28T14:14:09Z</time></trkpt><trkpt lat="43.73734519867028" lon="11.576232399442977"><ele>1358.0</ele><time>2026-04-28T14:14:11Z</time></trkpt><trkpt lat="43.737402300394294" lon="11.57629709493377"><ele>1358.0</ele><time>2026-04-28T14:14:13Z</time></trkpt><trkpt lat="43.737473496289674" lon="11.576368401947404"><ele>1356.6666666666667</ele><time>2026-04-28T14:14:15Z</time></trkpt><trkpt lat="43.73752546726932" lon="11.576462584092992"><ele>1355.3333333333335</ele><time>2026-04-28T14:14:17Z</time></trkpt><trkpt lat="43.73760496122376" lon="11.57651822653651"><ele>1354.0</ele><time>2026-04-28T14:14:19Z</time></trkpt><trkpt lat="43.73767327702068" lon="11.576558015461188"><ele>1352.6666666666667</ele><time>2026-04-28T14:14:28Z</time></trkpt><trkpt lat="43.73773513576574" lon="11.576584223551581"><ele>1351.3333333333333</ele><time>2026-04-28T14:14:34Z</time></trkpt><trkpt lat="43.73780541758667" lon="11.576635614897974"><ele>1350.0</ele><time>2026-04-28T14:15:08.001Z</time></trkpt><trkpt lat="43.73790868067252" lon="11.576610762742645"><ele>1349.1666666666667</ele><time>2026-04-28T14:15:11.001Z</time></trkpt><trkpt lat="43.73800837017313" lon="11.576573828409684"><ele>1348.3333333333333</ele><time>2026-04-28T14:15:13.001Z</time></trkpt><trkpt lat="43.73809057804902" lon="11.576582608828057"><ele>1347.5</ele><time>2026-04-28T14:15:15.001Z</time></trkpt><trkpt lat="43.73816180287893" lon="11.576600300450698"><ele>1346.6666666666665</ele><time>2026-04-28T14:15:17.001Z</time></trkpt><trkpt lat="43.73824849545631" lon="11.576614112359769"><ele>1345.8333333333333</ele><time>2026-04-28T14:15:19.001Z</time></trkpt><trkpt lat="43.73831908235148" lon="11.576609333285111"><ele>1345.0</ele><time>2026-04-28T14:15:21.001Z</time></trkpt><trkpt lat="43.73839271236788" lon="11.576673296365497"><ele>1345.0</ele><time>2026-04-28T14:15:23.001Z</time></trkpt><trkpt lat="43.738468438399245" lon="11.576668581085311"><ele>1345.0</ele><time>2026-04-28T14:15:25Z</time></trkpt><trkpt lat="43.738540024329296" lon="11.576646926287266"><ele>1345.0</ele><time>2026-04-28T14:15:27Z</time></trkpt><trkpt lat="43.73862491121513" lon="11.576629799990151"><ele>1345.0</ele><time>2026-04-28T14:15:30Z</time></trkpt><trkpt lat="43.73869577086632" lon="11.576631887997818"><ele>1345.0</ele><time>2026-04-28T14:15:32Z</time></trkpt><trkpt lat="43.7387607664045" lon="11.576618920153459"><ele>1345.0</ele><time>2026-04-28T14:15:34Z</time></trkpt><trkpt lat="43.738863933985854" lon="11.57663097380985"><ele>1342.4</ele><time>2026-04-28T14:15:37Z</time></trkpt><trkpt lat="43.73895457762813" lon="11.576654526427477"><ele>1339.8</ele><time>2026-04-28T14:15:39Z</time></trkpt><trkpt lat="43.739029344845584" lon="11.576709665162578"><ele>1337.1999999999998</ele><time>2026-04-28T14:15:41Z</time></trkpt><trkpt lat="43.739096980618704" lon="11.57680368090944"><ele>1334.6</ele><time>2026-04-28T14:15:43Z</time></trkpt><trkpt lat="43.73914597773869" lon="11.576882049182895"><ele>1332.0</ele><time>2026-04-28T14:15:44Z</time></trkpt><trkpt lat="43.73924984129299" lon="11.576964006365271"><ele>1332.0</ele><time>2026-04-28T14:15:46Z</time></trkpt><trkpt lat="43.73932515140741" lon="11.576946953220917"><ele>1332.0</ele><time>2026-04-28T14:15:48Z</time></trkpt><trkpt lat="43.73941788384467" lon="11.576934042485282"><ele>1332.0</ele><time>2026-04-28T14:15:50Z</time></trkpt><trkpt lat="43.73950107064447" lon="11.576921441135498"><ele>1332.0</ele><time>2026-04-28T14:15:52Z</time></trkpt><trkpt lat="43.73957728919992" lon="11.57696560790799"><ele>1332.0</ele><time>2026-04-28T14:15:54Z</time></trkpt><trkpt lat="43.739648044582765" lon="11.576972050154172"><ele>1332.0</ele><time>2026-04-28T14:15:56Z</time></trkpt><trkpt lat="43.739719578582594" lon="11.576985510297483"><ele>1327.5</ele><time>2026-04-28T14:15:57Z</time></trkpt><trkpt lat="43.739803573926096" lon="11.577046953536756"><ele>1323.0</ele><time>2026-04-28T14:15:59Z</time></trkpt><trkpt lat="43.739890830794266" lon="11.577083428050601"><ele>1318.5</ele><time>2026-04-28T14:16:01Z</time></trkpt><trkpt lat="43.73993973461018" lon="11.577150538707393"><ele>1314.0</ele><time>2026-04-28T14:16:13Z</time></trkpt><trkpt lat="43.74003187103038" lon="11.57718864050535"><ele>1309.5</ele><time>2026-04-28T14:16:16Z</time></trkpt><trkpt lat="43.74009862278318" lon="11.577236520031919"><ele>1305.0</ele><time>2026-04-28T14:16:18Z</time></trkpt><trkpt lat="43.74020212260914" lon="11.577306399953704"><ele>1302.6666666666667</ele><time>2026-04-28T14:16:20Z</time></trkpt><trkpt lat="43.74029693524413" lon="11.577348885537184"><ele>1300.3333333333333</ele><time>2026-04-28T14:16:22Z</time></trkpt><trkpt lat="43.74039228916935" lon="11.57741980046126"><ele>1298.0</ele><time>2026-04-28T14:16:24Z</time></trkpt><trkpt lat="43.74043681622631" lon="11.577515220308221"><ele>1295.6666666666665</ele><time>2026-04-28T14:16:27Z</time></trkpt><trkpt lat="43.74048993943228" lon="11.577588716741086"><ele>1293.3333333333333</ele><time>2026-04-28T14:16:30Z</time></trkpt><trkpt lat="43.74052702014131" lon="11.577676104465514"><ele>1291.0</ele><time>2026-04-28T14:16:42.999Z</time></trkpt><trkpt lat="43.740575255138744" lon="11.577776331105861"><ele>1291.0</ele><time>2026-04-28T14:16:46.999Z</time></trkpt><trkpt lat="43.740670432022014" lon="11.57782600967697"><ele>1291.0</ele><time>2026-04-28T14:16:49.999Z</time></trkpt><trkpt lat="43.74072432447312" lon="11.577874520257687"><ele>1291.0</ele><time>2026-04-28T14:16:50.999Z</time></trkpt><trkpt lat="43.740782058194675" lon="11.577957142902585"><ele>1291.0</ele><time>2026-04-28T14:16:52.999Z</time></trkpt><trkpt lat="43.74083273516651" lon="11.578066461032366"><ele>1291.0</ele><time>2026-04-28T14:16:54.999Z</time></trkpt><trkpt lat="43.740902017131866" lon="11.578143510704548"><ele>1291.0</ele><time>2026-04-28T14:16:56.999Z</time></trkpt><trkpt lat="43.740970689858024" lon="11.578228673155879"><ele>1287.0</ele><time>2026-04-28T14:16:58.999Z</time></trkpt><trkpt lat="43.741050743802994" lon="11.57829520935919"><ele>1283.0</ele><time>2026-04-28T14:17:00.999Z</time></trkpt><trkpt lat="43.74111142291522" lon="11.578386076642436"><ele>1279.0</ele><time>2026-04-28T14:17:02.999Z</time></trkpt><trkpt lat="43.74112777613958" lon="11.57847262019265"><ele>1275.0</ele><time>2026-04-28T14:17:04.999Z</time></trkpt><trkpt lat="43.7411511868904" lon="11.578616457728963"><ele>1271.0</ele><time>2026-04-28T14:17:06.999Z</time></trkpt><trkpt lat="43.74118963258835" lon="11.578715779122192"><ele>1267.0</ele><time>2026-04-28T14:17:08.999Z</time></trkpt><trkpt lat="43.74127177916315" lon="11.578759088432152"><ele>1265.6666666666665</ele><time>2026-04-28T14:17:10.999Z</time></trkpt><trkpt lat="43.74130431089032" lon="11.578902114883993"><ele>1264.3333333333333</ele><time>2026-04-28T14:17:12.999Z</time></trkpt><trkpt lat="43.741364749275924" lon="11.5789781678957"><ele>1263.0</ele><time>2026-04-28T14:17:15.001Z</time></trkpt><trkpt lat="43.741430000752096" lon="11.579081438245726"><ele>1261.6666666666667</ele><time>2026-04-28T14:17:17Z</time></trkpt><trkpt lat="43.74149198892639" lon="11.579126986379322"><ele>1260.3333333333335</ele><time>2026-04-28T14:17:18.001Z</time></trkpt><trkpt lat="43.74154455912642" lon="11.579182824984166"><ele>1259.0</ele><time>2026-04-28T14:17:19Z</time></trkpt><trkpt lat="43.74162392329273" lon="11.57928105538059"><ele>1259.0</ele><time>2026-04-28T14:17:21Z</time></trkpt><trkpt lat="43.7416905635079" lon="11.579416855991665"><ele>1259.0</ele><time>2026-04-28T14:17:23Z</time></trkpt><trkpt lat="43.741712660547925" lon="11.579525802718342"><ele>1259.0</ele><time>2026-04-28T14:17:24Z</time></trkpt><trkpt lat="43.74177720199381" lon="11.579541532966319"><ele>1259.0</ele><time>2026-04-28T14:17:25Z</time></trkpt><trkpt lat="43.7418416256372" lon="11.579597901673813"><ele>1259.0</ele><time>2026-04-28T14:17:26Z</time></trkpt><trkpt lat="43.7419168561437" lon="11.579653614568798"><ele>1259.0</ele><time>2026-04-28T14:17:27Z</time></trkpt><trkpt lat="43.74199617863451" lon="11.579694206744884"><ele>1258.0</ele><time>2026-04-28T14:17:28Z</time></trkpt><trkpt lat="43.74206461983695" lon="11.5797300930141"><ele>1257.0</ele><time>2026-04-28T14:17:29Z</time></trkpt><trkpt lat="43.742178447811185" lon="11.57981633789581"><ele>1256.0</ele><time>2026-04-28T14:17:31Z</time></trkpt><trkpt lat="43.74224457563598" lon="11.579879944310754"><ele>1255.0</ele><time>2026-04-28T14:17:32Z</time></trkpt><trkpt lat="43.74230473813764" lon="11.579948873196747"><ele>1254.0</ele><time>2026-04-28T14:17:33Z</time></trkpt><trkpt lat="43.74235225232987" lon="11.580008385376203"><ele>1253.0</ele><time>2026-04-28T14:17:34Z</time></trkpt><trkpt lat="43.74240127177809" lon="11.580066389245774"><ele>1253.0</ele><time>2026-04-28T14:17:35Z</time></trkpt><trkpt lat="43.74248133920726" lon="11.580190488668437"><ele>1253.0</ele><time>2026-04-28T14:17:37Z</time></trkpt><trkpt lat="43.7425871142376" lon="11.580257494257378"><ele>1253.0</ele><time>2026-04-28T14:17:39Z</time></trkpt><trkpt lat="43.74266131943246" lon="11.580331404591657"><ele>1253.0</ele><time>2026-04-28T14:17:40Z</time></trkpt><trkpt lat="43.74271866639384" lon="11.580404316578356"><ele>1253.0</ele><time>2026-04-28T14:17:41Z</time></trkpt><trkpt lat="43.74277634911069" lon="11.580465984007597"><ele>1251.8</ele><time>2026-04-28T14:17:42Z</time></trkpt><trkpt lat="43.74289054606043" lon="11.58053961098409"><ele>1250.6</ele><time>2026-04-28T14:17:44Z</time></trkpt><trkpt lat="43.74298930332789" lon="11.580648274159953"><ele>1249.4</ele><time>2026-04-28T14:17:46Z</time></trkpt><trkpt lat="43.743033479492155" lon="11.58072031640106"><ele>1248.2</ele><time>2026-04-28T14:17:47Z</time></trkpt><trkpt lat="43.74306386629787" lon="11.580797226348926"><ele>1247.0</ele><time>2026-04-28T14:17:48Z</time></trkpt><trkpt lat="43.74314964300971" lon="11.5809650654978"><ele>1247.0</ele><time>2026-04-28T14:17:50Z</time></trkpt><trkpt lat="43.74320114361021" lon="11.581030984386896"><ele>1247.0</ele><time>2026-04-28T14:17:51Z</time></trkpt><trkpt lat="43.74328811475122" lon="11.581161853737264"><ele>1247.0</ele><time>2026-04-28T14:17:53Z</time></trkpt><trkpt lat="43.74335608564172" lon="11.5813069755557"><ele>1247.0</ele><time>2026-04-28T14:17:55Z</time></trkpt><trkpt lat="43.743396950522865" lon="11.581389954749747"><ele>1247.0</ele><time>2026-04-28T14:17:56Z</time></trkpt><trkpt lat="43.74344477699843" lon="11.581464211481876"><ele>1244.2</ele><time>2026-04-28T14:17:57Z</time></trkpt><trkpt lat="43.7434747530943" lon="11.581545295504426"><ele>1241.4</ele><time>2026-04-28T14:17:58Z</time></trkpt><trkpt lat="43.743546352206245" lon="11.581668264327035"><ele>1238.6</ele><time>2026-04-28T14:18:00Z</time></trkpt><trkpt lat="43.74362160533976" lon="11.581747697355981"><ele>1235.8</ele><time>2026-04-28T14:18:02Z</time></trkpt><trkpt lat="43.743661903065906" lon="11.581909258620316"><ele>1233.0</ele><time>2026-04-28T14:18:04Z</time></trkpt><trkpt lat="43.74367718851613" lon="11.582050643202315"><ele>1231.1666666666667</ele><time>2026-04-28T14:18:06Z</time></trkpt><trkpt lat="43.74371912535412" lon="11.582145656321076"><ele>1229.3333333333333</ele><time>2026-04-28T14:18:08Z</time></trkpt><trkpt lat="43.743698603545994" lon="11.582282226040126"><ele>1227.5</ele><time>2026-04-28T14:18:10Z</time></trkpt><trkpt lat="43.74367060292045" lon="11.582393246461102"><ele>1225.6666666666665</ele><time>2026-04-28T14:18:12Z</time></trkpt><trkpt lat="43.74365951519539" lon="11.582505104298072"><ele>1223.8333333333333</ele><time>2026-04-28T14:18:14Z</time></trkpt><trkpt lat="43.7436890506429" lon="11.582623802022486"><ele>1222.0</ele><time>2026-04-28T14:18:16Z</time></trkpt><trkpt lat="43.743706553978065" lon="11.582763157297727"><ele>1220.1666666666665</ele><time>2026-04-28T14:18:18Z</time></trkpt><trkpt lat="43.743697346819225" lon="11.582858368562968"><ele>1218.3333333333333</ele><time>2026-04-28T14:18:19Z</time></trkpt><trkpt lat="43.74369480621257" lon="11.582953550978944"><ele>1216.5</ele><time>2026-04-28T14:18:20Z</time></trkpt><trkpt lat="43.74370310103785" lon="11.58306180240743"><ele>1214.6666666666667</ele><time>2026-04-28T14:18:21Z</time></trkpt><trkpt lat="43.743685747349915" lon="11.583177225968923"><ele>1212.8333333333335</ele><time>2026-04-28T14:18:22Z</time></trkpt><trkpt lat="43.74367039393284" lon="11.583317375916785"><ele>1211.0</ele><time>2026-04-28T14:18:23Z</time></trkpt><trkpt lat="43.74365279879179" lon="11.583407380090124"><ele>1211.0</ele><time>2026-04-28T14:18:24Z</time></trkpt><trkpt lat="43.743658098118765" lon="11.583509607744551"><ele>1211.0</ele><time>2026-04-28T14:18:25Z</time></trkpt><trkpt lat="43.74365357697625" lon="11.583667611313762"><ele>1211.0</ele><time>2026-04-28T14:18:26.999Z</time></trkpt><trkpt lat="43.743700183361724" lon="11.583755912742882"><ele>1211.0</ele><time>2026-04-28T14:18:29.999Z</time></trkpt><trkpt lat="43.743746456978116" lon="11.583840252139273"><ele>1211.0</ele><time>2026-04-28T14:18:31.999Z</time></trkpt><trkpt lat="43.74377693691094" lon="11.583972129173338"><ele>1211.0</ele><time>2026-04-28T14:18:33.999Z</time></trkpt><trkpt lat="43.743794499071186" lon="11.584142782787644"><ele>1211.0</ele><time>2026-04-28T14:18:35.999Z</time></trkpt><trkpt lat="43.74380789085377" lon="11.584228651628695"><ele>1211.0</ele><time>2026-04-28T14:18:36.999Z</time></trkpt><trkpt lat="43.74387493864553" lon="11.584392331382976"><ele>1211.0</ele><time>2026-04-28T14:18:38.999Z</time></trkpt><trkpt lat="43.74392336519436" lon="11.584522775298778"><ele>1211.0</ele><time>2026-04-28T14:18:40.999Z</time></trkpt><trkpt lat="43.74395446297397" lon="11.584612158735588"><ele>1211.0</ele><time>2026-04-28T14:18:41.999Z</time></trkpt><trkpt lat="43.74399859106687" lon="11.584703377971602"><ele>1211.5</ele><time>2026-04-28T14:18:42.999Z</time></trkpt><trkpt lat="43.74404210677393" lon="11.58477572709802"><ele>1212.0</ele><time>2026-04-28T14:18:43.999Z</time></trkpt><trkpt lat="43.744070201307785" lon="11.584931280631093"><ele>1212.5</ele><time>2026-04-28T14:18:45.999Z</time></trkpt><trkpt lat="43.74408124810396" lon="11.585048682416359"><ele>1213.0</ele><time>2026-04-28T14:18:46.999Z</time></trkpt><trkpt lat="43.744080761906154" lon="11.585161124117965"><ele>1213.5</ele><time>2026-04-28T14:18:47.999Z</time></trkpt><trkpt lat="43.74407941817519" lon="11.58525233042731"><ele>1214.0</ele><time>2026-04-28T14:18:48.999Z</time></trkpt><trkpt lat="43.74411756438221" lon="11.585428091421061"><ele>1214.6666666666667</ele><time>2026-04-28T14:18:50.999Z</time></trkpt><trkpt lat="43.74414885365383" lon="11.585536868834764"><ele>1215.3333333333335</ele><time>2026-04-28T14:18:51.999Z</time></trkpt><trkpt lat="43.74418530530001" lon="11.585649625281384"><ele>1216.0</ele><time>2026-04-28T14:18:52.999Z</time></trkpt><trkpt lat="43.744215123682174" lon="11.58575053753301"><ele>1216.6666666666667</ele><time>2026-04-28T14:18:53.999Z</time></trkpt><trkpt lat="43.74427133251637" lon="11.585820523028492"><ele>1217.3333333333333</ele><time>2026-04-28T14:18:54.999Z</time></trkpt><trkpt lat="43.744308829493725" lon="11.585916477675056"><ele>1218.0</ele><time>2026-04-28T14:18:55.999Z</time></trkpt><trkpt lat="43.74434957304517" lon="11.58599374654329"><ele>1219.6</ele><time>2026-04-28T14:18:56.999Z</time></trkpt><trkpt lat="43.74441244037384" lon="11.58608155814282"><ele>1221.1999999999998</ele><time>2026-04-28T14:18:57.999Z</time></trkpt><trkpt lat="43.74447249583297" lon="11.586149667605556"><ele>1222.8</ele><time>2026-04-28T14:18:58.999Z</time></trkpt><trkpt lat="43.74458485682358" lon="11.586254171123844"><ele>1224.3999999999999</ele><time>2026-04-28T14:19:00.999Z</time></trkpt><trkpt lat="43.74470085478992" lon="11.586362208289652"><ele>1226.0</ele><time>2026-04-28T14:19:02.999Z</time></trkpt><trkpt lat="43.74476835544916" lon="11.586426327116003"><ele>1228.3333333333335</ele><time>2026-04-28T14:19:03.999Z</time></trkpt><trkpt lat="43.744840487714534" lon="11.58649362961671"><ele>1230.6666666666667</ele><time>2026-04-28T14:19:04.999Z</time></trkpt><trkpt lat="43.74490718138687" lon="11.586553041153909"><ele>1233.0</ele><time>2026-04-28T14:19:05.999Z</time></trkpt><trkpt lat="43.74497198274759" lon="11.586587567125198"><ele>1235.3333333333333</ele><time>2026-04-28T14:19:06.999Z</time></trkpt><trkpt lat="43.745072455247815" lon="11.586688256613261"><ele>1237.6666666666665</ele><time>2026-04-28T14:19:08.999Z</time></trkpt><trkpt lat="43.745123827367195" lon="11.586749058174396"><ele>1240.0</ele><time>2026-04-28T14:19:09.999Z</time></trkpt><trkpt lat="43.74520742971926" lon="11.586887297087495"><ele>1240.8333333333333</ele><time>2026-04-28T14:19:11.999Z</time></trkpt><trkpt lat="43.74524233985093" lon="11.586991690194312"><ele>1241.6666666666665</ele><time>2026-04-28T14:19:12.999Z</time></trkpt><trkpt lat="43.74525346234735" lon="11.587106095735015"><ele>1242.5</ele><time>2026-04-28T14:19:13.999Z</time></trkpt><trkpt lat="43.74525952728547" lon="11.587218388007392"><ele>1243.3333333333333</ele><time>2026-04-28T14:19:14.999Z</time></trkpt><trkpt lat="43.745272544815336" lon="11.58731958474718"><ele>1244.1666666666667</ele><time>2026-04-28T14:19:15.999Z</time></trkpt><trkpt lat="43.74527331585858" lon="11.587422014027705"><ele>1245.0</ele><time>2026-04-28T14:19:16.999Z</time></trkpt><trkpt lat="43.74527661202089" lon="11.587516893891046"><ele>1245.0</ele><time>2026-04-28T14:19:17.999Z</time></trkpt><trkpt lat="43.74534079655362" lon="11.587624245391483"><ele>1245.0</ele><time>2026-04-28T14:19:18.999Z</time></trkpt><trkpt lat="43.74535955929879" lon="11.587748382230378"><ele>1245.0</ele><time>2026-04-28T14:19:20Z</time></trkpt><trkpt lat="43.74547410377796" lon="11.587849822917166"><ele>1245.0</ele><time>2026-04-28T14:19:22Z</time></trkpt><trkpt lat="43.74550382220824" lon="11.587954205014906"><ele>1245.0</ele><time>2026-04-28T14:19:23Z</time></trkpt><trkpt lat="43.745574643226135" lon="11.588073077831716"><ele>1246.3333333333333</ele><time>2026-04-28T14:19:24Z</time></trkpt><trkpt lat="43.74563513758535" lon="11.588224784417784"><ele>1247.6666666666667</ele><time>2026-04-28T14:19:25Z</time></trkpt><trkpt lat="43.745706848866874" lon="11.588326756423536"><ele>1249.0</ele><time>2026-04-28T14:19:26Z</time></trkpt><trkpt lat="43.74574636979722" lon="11.588424279905889"><ele>1250.3333333333335</ele><time>2026-04-28T14:19:27Z</time></trkpt><trkpt lat="43.74578169081617" lon="11.588504540176507"><ele>1251.6666666666667</ele><time>2026-04-28T14:19:28Z</time></trkpt><trkpt lat="43.74581685034338" lon="11.588586583590203"><ele>1253.0</ele><time>2026-04-28T14:19:29Z</time></trkpt><trkpt lat="43.74586820540836" lon="11.588718043993287"><ele>1253.2</ele><time>2026-04-28T14:19:31Z</time></trkpt><trkpt lat="43.745906999791366" lon="11.588820172044333"><ele>1253.4</ele><time>2026-04-28T14:19:33Z</time></trkpt><trkpt lat="43.745947465729095" lon="11.58892455357983"><ele>1253.6000000000001</ele><time>2026-04-28T14:19:35Z</time></trkpt><trkpt lat="43.74604173605378" lon="11.58898246480826"><ele>1253.8</ele><time>2026-04-28T14:19:38Z</time></trkpt><trkpt lat="43.74613237454389" lon="11.589012228069887"><ele>1254.0</ele><time>2026-04-28T14:19:41Z</time></trkpt><trkpt lat="43.74636647780735" lon="11.589176417022488"><ele>1253.8333333333333</ele><time>2026-04-28T14:19:43Z</time></trkpt><trkpt lat="43.746443112798914" lon="11.589220658003928"><ele>1253.6666666666667</ele><time>2026-04-28T14:19:45Z</time></trkpt><trkpt lat="43.74650969507039" lon="11.589298768674539"><ele>1253.5</ele><time>2026-04-28T14:19:47Z</time></trkpt><trkpt lat="43.74656859009701" lon="11.589367019857013"><ele>1253.3333333333335</ele><time>2026-04-28T14:19:48Z</time></trkpt><trkpt lat="43.74666349884922" lon="11.589468735031147"><ele>1253.1666666666667</ele><time>2026-04-28T14:19:50Z</time></trkpt><trkpt lat="43.746718600686556" lon="11.589525504636823"><ele>1253.0</ele><time>2026-04-28T14:19:51Z</time></trkpt><trkpt lat="43.74678490829943" lon="11.589600111423932"><ele>1253.6</ele><time>2026-04-28T14:19:52Z</time></trkpt><trkpt lat="43.7469190932061" lon="11.589757296539712"><ele>1254.1999999999998</ele><time>2026-04-28T14:19:53Z</time></trkpt><trkpt lat="43.74700107525782" lon="11.58980991270237"><ele>1254.8</ele><time>2026-04-28T14:19:54Z</time></trkpt><trkpt lat="43.74707315393212" lon="11.589852736264678"><ele>1255.3999999999999</ele><time>2026-04-28T14:19:55Z</time></trkpt><trkpt lat="43.74714686872971" lon="11.589894552282308"><ele>1256.0</ele><time>2026-04-28T14:19:56Z</time></trkpt><trkpt lat="43.747230741689044" lon="11.589893968261013"><ele>1256.0</ele><time>2026-04-28T14:19:57Z</time></trkpt><trkpt lat="43.74735473034568" lon="11.589868882236313"><ele>1256.0</ele><time>2026-04-28T14:19:59Z</time></trkpt><trkpt lat="43.74745997654624" lon="11.589840189306537"><ele>1256.0</ele><time>2026-04-28T14:20:01Z</time></trkpt><trkpt lat="43.74753379921764" lon="11.589763594741935"><ele>1256.0</ele><time>2026-04-28T14:20:05Z</time></trkpt><trkpt lat="43.74762627219213" lon="11.589668595731995"><ele>1256.0</ele><time>2026-04-28T14:20:07Z</time></trkpt><trkpt lat="43.74767674959102" lon="11.589590810922612"><ele>1255.8</ele><time>2026-04-28T14:20:08Z</time></trkpt><trkpt lat="43.747729287411154" lon="11.589534067526698"><ele>1255.6</ele><time>2026-04-28T14:20:09Z</time></trkpt><trkpt lat="43.74779079275197" lon="11.589477040419137"><ele>1255.4</ele><time>2026-04-28T14:20:10Z</time></trkpt><trkpt lat="43.74791807806907" lon="11.589357247026145"><ele>1255.2</ele><time>2026-04-28T14:20:12Z</time></trkpt><trkpt lat="43.74799623367317" lon="11.589329097323773"><ele>1255.0</ele><time>2026-04-28T14:20:13Z</time></trkpt><trkpt lat="43.74809443098062" lon="11.589287166519926"><ele>1252.8</ele><time>2026-04-28T14:20:15Z</time></trkpt><trkpt lat="43.74820859705113" lon="11.58918877239354"><ele>1250.6</ele><time>2026-04-28T14:20:17Z</time></trkpt><trkpt lat="43.74826067519636" lon="11.58910031441223"><ele>1248.4</ele><time>2026-04-28T14:20:18Z</time></trkpt><trkpt lat="43.74829435460791" lon="11.588995729693758"><ele>1246.2</ele><time>2026-04-28T14:20:19Z</time></trkpt><trkpt lat="43.74833002640841" lon="11.588913919271489"><ele>1244.0</ele><time>2026-04-28T14:20:20Z</time></trkpt><trkpt lat="43.74836419481505" lon="11.58881029856685"><ele>1244.0</ele><time>2026-04-28T14:20:21.999Z</time></trkpt><trkpt lat="43.748389858415194" lon="11.588712361991686"><ele>1244.0</ele><time>2026-04-28T14:20:31.999Z</time></trkpt><trkpt lat="43.748428504349256" lon="11.588607122448954"><ele>1244.0</ele><time>2026-04-28T14:20:32.999Z</time></trkpt><trkpt lat="43.748508859938134" lon="11.588526432890964"><ele>1244.0</ele><time>2026-04-28T14:20:33.999Z</time></trkpt><trkpt lat="43.748558563560685" lon="11.588447640006406"><ele>1244.0</ele><time>2026-04-28T14:20:34.999Z</time></trkpt><trkpt lat="43.74865344775673" lon="11.58833580689563"><ele>1242.0</ele><time>2026-04-28T14:20:36.999Z</time></trkpt><trkpt lat="43.748688513829734" lon="11.588262486852194"><ele>1240.0</ele><time>2026-04-28T14:20:37.999Z</time></trkpt><trkpt lat="43.74873754486959" lon="11.588189013907522"><ele>1238.0</ele><time>2026-04-28T14:20:38.999Z</time></trkpt><trkpt lat="43.74879412625519" lon="11.588127588102896"><ele>1236.0</ele><time>2026-04-28T14:20:39.999Z</time></trkpt><trkpt lat="43.74884580380561" lon="11.588065136774079"><ele>1234.0</ele><time>2026-04-28T14:20:40.999Z</time></trkpt><trkpt lat="43.74892449969516" lon="11.588022371503486"><ele>1232.0</ele><time>2026-04-28T14:20:41.999Z</time></trkpt><trkpt lat="43.74902801164668" lon="11.5879186806028"><ele>1232.0</ele><time>2026-04-28T14:20:43.999Z</time></trkpt><trkpt lat="43.74910023321993" lon="11.587863405573447"><ele>1232.0</ele><time>2026-04-28T14:20:44.999Z</time></trkpt><trkpt lat="43.74917770210413" lon="11.587810310830625"><ele>1232.0</ele><time>2026-04-28T14:20:45.999Z</time></trkpt><trkpt lat="43.74923624618058" lon="11.58775925758067"><ele>1232.0</ele><time>2026-04-28T14:20:46.999Z</time></trkpt><trkpt lat="43.74929874572427" lon="11.587717528601296"><ele>1232.0</ele><time>2026-04-28T14:20:47.999Z</time></trkpt><trkpt lat="43.74935218013727" lon="11.587640939196358"><ele>1232.0</ele><time>2026-04-28T14:20:48.999Z</time></trkpt><trkpt lat="43.74938790665905" lon="11.587563901198296"><ele>1231.5</ele><time>2026-04-28T14:20:49.999Z</time></trkpt><trkpt lat="43.749448094561444" lon="11.587494629796712"><ele>1231.0</ele><time>2026-04-28T14:20:50.999Z</time></trkpt><trkpt lat="43.74952392352184" lon="11.587459690580717"><ele>1230.5</ele><time>2026-04-28T14:20:51.999Z</time></trkpt><trkpt lat="43.749602620911055" lon="11.587445840334855"><ele>1230.0</ele><time>2026-04-28T14:20:52.999Z</time></trkpt><trkpt lat="43.749675663629596" lon="11.587382013295594"><ele>1229.5</ele><time>2026-04-28T14:20:53.999Z</time></trkpt><trkpt lat="43.74973308360387" lon="11.587308740067066"><ele>1229.0</ele><time>2026-04-28T14:20:54.999Z</time></trkpt><trkpt lat="43.74980520984424" lon="11.587233801590383"><ele>1229.0</ele><time>2026-04-28T14:20:55.999Z</time></trkpt><trkpt lat="43.74987406163601" lon="11.58717874378236"><ele>1229.0</ele><time>2026-04-28T14:20:56.999Z</time></trkpt><trkpt lat="43.74994363904255" lon="11.587121847858523"><ele>1229.0</ele><time>2026-04-28T14:20:57.999Z</time></trkpt><trkpt lat="43.74998447523643" lon="11.58701661034027"><ele>1229.0</ele><time>2026-04-28T14:20:58.999Z</time></trkpt><trkpt lat="43.75006527372243" lon="11.58693560140344"><ele>1229.0</ele><time>2026-04-28T14:20:59.999Z</time></trkpt><trkpt lat="43.75013141049872" lon="11.58683078733255"><ele>1229.0</ele><time>2026-04-28T14:21:00.999Z</time></trkpt><trkpt lat="43.750197507335216" lon="11.586720411248603"><ele>1229.0</ele><time>2026-04-28T14:21:01.999Z</time></trkpt><trkpt lat="43.75027521441028" lon="11.586616451634077"><ele>1229.0</ele><time>2026-04-28T14:21:02.999Z</time></trkpt><trkpt lat="43.750334207821126" lon="11.586539226522877"><ele>1229.0</ele><time>2026-04-28T14:21:03.999Z</time></trkpt><trkpt lat="43.75037602956249" lon="11.586453291418554"><ele>1229.0</ele><time>2026-04-28T14:21:04.999Z</time></trkpt><trkpt lat="43.75043553939225" lon="11.586387807220273"><ele>1229.0</ele><time>2026-04-28T14:21:05.999Z</time></trkpt><trkpt lat="43.75049830751359" lon="11.586271346538954"><ele>1229.0</ele><time>2026-04-28T14:21:07.999Z</time></trkpt><trkpt lat="43.750534605435966" lon="11.586132594524674"><ele>1230.2</ele><time>2026-04-28T14:21:09.999Z</time></trkpt><trkpt lat="43.75054716540661" lon="11.585997114826332"><ele>1231.4</ele><time>2026-04-28T14:21:11.999Z</time></trkpt><trkpt lat="43.750507595242716" lon="11.585864669021753"><ele>1232.6</ele><time>2026-04-28T14:21:13.999Z</time></trkpt><trkpt lat="43.75051165361076" lon="11.585749680546686"><ele>1233.8</ele><time>2026-04-28T14:21:14.999Z</time></trkpt><trkpt lat="43.75047221921707" lon="11.585614766864365"><ele>1235.0</ele><time>2026-04-28T14:21:16.999Z</time></trkpt><trkpt lat="43.750462850753365" lon="11.585441694442244"><ele>1235.0</ele><time>2026-04-28T14:21:18.999Z</time></trkpt><trkpt lat="43.75046169899929" lon="11.585349116677751"><ele>1235.0</ele><time>2026-04-28T14:21:19.999Z</time></trkpt><trkpt lat="43.7504503015452" lon="11.58518762169946"><ele>1235.0</ele><time>2026-04-28T14:21:21.999Z</time></trkpt><trkpt lat="43.75043813080492" lon="11.585101089249203"><ele>1235.0</ele><time>2026-04-28T14:21:22.999Z</time></trkpt><trkpt lat="43.75044314348223" lon="11.584937166686256"><ele>1235.0</ele><time>2026-04-28T14:21:24.999Z</time></trkpt><trkpt lat="43.750443627405446" lon="11.584794827128116"><ele>1235.0</ele><time>2026-04-28T14:21:27Z</time></trkpt><trkpt lat="43.750422307730524" lon="11.58471275949344"><ele>1235.0</ele><time>2026-04-28T14:21:28Z</time></trkpt><trkpt lat="43.7504048510882" lon="11.584614281891362"><ele>1235.0</ele><time>2026-04-28T14:21:29Z</time></trkpt><trkpt lat="43.75041185027377" lon="11.584514529135086"><ele>1235.0</ele><time>2026-04-28T14:21:30Z</time></trkpt><trkpt lat="43.75042167260474" lon="11.584358649070738"><ele>1235.0</ele><time>2026-04-28T14:21:32Z</time></trkpt><trkpt lat="43.750411560225594" lon="11.58420231705114"><ele>1235.0</ele><time>2026-04-28T14:21:34Z</time></trkpt><trkpt lat="43.750440210516416" lon="11.584037111876222"><ele>1233.2</ele><time>2026-04-28T14:21:36Z</time></trkpt><trkpt lat="43.750476543096255" lon="11.583958654178804"><ele>1231.4</ele><time>2026-04-28T14:21:37Z</time></trkpt><trkpt lat="43.75051497695884" lon="11.583876790513116"><ele>1229.6</ele><time>2026-04-28T14:21:38Z</time></trkpt><trkpt lat="43.75055822384027" lon="11.583811741691813"><ele>1227.8</ele><time>2026-04-28T14:21:39Z</time></trkpt><trkpt lat="43.75067770199281" lon="11.58371981055876"><ele>1226.0</ele><time>2026-04-28T14:21:41Z</time></trkpt><trkpt lat="43.75079257811303" lon="11.583703544863583"><ele>1226.0</ele><time>2026-04-28T14:21:43Z</time></trkpt><trkpt lat="43.75089601808536" lon="11.583725734852031"><ele>1226.0</ele><time>2026-04-28T14:21:45Z</time></trkpt><trkpt lat="43.75096630972119" lon="11.583786104916763"><ele>1226.0</ele><time>2026-04-28T14:21:46Z</time></trkpt><trkpt lat="43.751030397651625" lon="11.583848114330745"><ele>1226.0</ele><time>2026-04-28T14:21:47Z</time></trkpt><trkpt lat="43.751111429291775" lon="11.583932579878743"><ele>1226.0</ele><time>2026-04-28T14:21:48Z</time></trkpt><trkpt lat="43.75118486113069" lon="11.584015679594684"><ele>1223.0</ele><time>2026-04-28T14:21:49Z</time></trkpt><trkpt lat="43.75124203901138" lon="11.584087876308148"><ele>1220.0</ele><time>2026-04-28T14:21:50Z</time></trkpt><trkpt lat="43.7513016812448" lon="11.584158145017057"><ele>1217.0</ele><time>2026-04-28T14:21:51Z</time></trkpt><trkpt lat="43.751358567313574" lon="11.58421656656946"><ele>1214.0</ele><time>2026-04-28T14:21:52Z</time></trkpt><trkpt lat="43.75142919212589" lon="11.584291314809434"><ele>1211.0</ele><time>2026-04-28T14:21:53Z</time></trkpt><trkpt lat="43.751490115459006" lon="11.584353825849405"><ele>1208.0</ele><time>2026-04-28T14:21:54Z</time></trkpt><trkpt lat="43.75151525685356" lon="11.584434395045378"><ele>1208.0</ele><time>2026-04-28T14:21:55Z</time></trkpt><trkpt lat="43.751573686011234" lon="11.584497424776865"><ele>1208.0</ele><time>2026-04-28T14:21:56Z</time></trkpt><trkpt lat="43.751652772993715" lon="11.584541479031907"><ele>1208.0</ele><time>2026-04-28T14:21:57Z</time></trkpt><trkpt lat="43.75174222106848" lon="11.584572016447346"><ele>1208.0</ele><time>2026-04-28T14:21:58Z</time></trkpt><trkpt lat="43.75183273555146" lon="11.58460884511323"><ele>1208.0</ele><time>2026-04-28T14:21:59Z</time></trkpt><trkpt lat="43.75191002252649" lon="11.58464857422593"><ele>1208.0</ele><time>2026-04-28T14:22:00Z</time></trkpt><trkpt lat="43.7520324549315" lon="11.584694286453978"><ele>1208.6</ele><time>2026-04-28T14:22:01Z</time></trkpt><trkpt lat="43.752113906820064" lon="11.58473979318712"><ele>1209.1999999999998</ele><time>2026-04-28T14:22:02Z</time></trkpt><trkpt lat="43.752223226222156" lon="11.584773764774488"><ele>1209.8</ele><time>2026-04-28T14:22:03Z</time></trkpt><trkpt lat="43.75235258582162" lon="11.584780436351515"><ele>1210.3999999999999</ele><time>2026-04-28T14:22:05Z</time></trkpt><trkpt lat="43.75245201790575" lon="11.584833557812468"><ele>1211.0</ele><time>2026-04-28T14:22:07Z</time></trkpt><trkpt lat="43.752510959154236" lon="11.584881566899067"><ele>1211.0</ele><time>2026-04-28T14:22:08Z</time></trkpt><trkpt lat="43.75256852554415" lon="11.584925384844182"><ele>1211.0</ele><time>2026-04-28T14:22:09Z</time></trkpt><trkpt lat="43.75263393436658" lon="11.58495582369455"><ele>1211.0</ele><time>2026-04-28T14:22:10Z</time></trkpt><trkpt lat="43.75271531916989" lon="11.584965523944811"><ele>1211.0</ele><time>2026-04-28T14:22:11Z</time></trkpt><trkpt lat="43.75279692948134" lon="11.584986457771524"><ele>1211.0</ele><time>2026-04-28T14:22:12Z</time></trkpt><trkpt lat="43.752935714178655" lon="11.5849591041225"><ele>1211.0</ele><time>2026-04-28T14:22:14Z</time></trkpt><trkpt lat="43.753009758411444" lon="11.584972238612025"><ele>1209.8</ele><time>2026-04-28T14:22:15Z</time></trkpt><trkpt lat="43.753120480827604" lon="11.585007628754356"><ele>1208.6</ele><time>2026-04-28T14:22:17Z</time></trkpt><trkpt lat="43.753210475331585" lon="11.58508429385307"><ele>1207.4</ele><time>2026-04-28T14:22:19Z</time></trkpt><trkpt lat="43.753288125496645" lon="11.585169140300016"><ele>1206.2</ele><time>2026-04-28T14:22:21Z</time></trkpt><trkpt lat="43.75335655490422" lon="11.585264976841533"><ele>1205.0</ele><time>2026-04-28T14:22:22.999Z</time></trkpt><trkpt lat="43.753425453888106" lon="11.58537195200453"><ele>1204.0</ele><time>2026-04-28T14:22:24.999Z</time></trkpt><trkpt lat="43.753485425217605" lon="11.585412974956503"><ele>1203.0</ele><time>2026-04-28T14:22:25.999Z</time></trkpt><trkpt lat="43.753534005996315" lon="11.585470738718618"><ele>1202.0</ele><time>2026-04-28T14:22:26.999Z</time></trkpt><trkpt lat="43.75361513121057" lon="11.585529580559879"><ele>1201.0</ele><time>2026-04-28T14:22:27.999Z</time></trkpt><trkpt lat="43.753703649595295" lon="11.58559948374232"><ele>1200.0</ele><time>2026-04-28T14:22:28.999Z</time></trkpt><trkpt lat="43.753802195620295" lon="11.58567237071112"><ele>1199.0</ele><time>2026-04-28T14:22:29.999Z</time></trkpt><trkpt lat="43.75387634013666" lon="11.585708005844586"><ele>1199.0</ele><time>2026-04-28T14:22:30.999Z</time></trkpt><trkpt lat="43.75393226259885" lon="11.585768480963221"><ele>1199.0</ele><time>2026-04-28T14:22:31.999Z</time></trkpt><trkpt lat="43.75400754702116" lon="11.585840007467203"><ele>1199.0</ele><time>2026-04-28T14:22:32.999Z</time></trkpt><trkpt lat="43.75408813934234" lon="11.585896023599503"><ele>1199.0</ele><time>2026-04-28T14:22:33.999Z</time></trkpt><trkpt lat="43.754163373554654" lon="11.585933012094028"><ele>1199.0</ele><time>2026-04-28T14:22:34.999Z</time></trkpt><trkpt lat="43.754221218546064" lon="11.585978701633154"><ele>1199.0</ele><time>2026-04-28T14:22:35.999Z</time></trkpt><trkpt lat="43.75433026367118" lon="11.586006188524681"><ele>1198.0</ele><time>2026-04-28T14:22:37.999Z</time></trkpt><trkpt lat="43.75440697341852" lon="11.586019533780368"><ele>1197.0</ele><time>2026-04-28T14:22:38.999Z</time></trkpt><trkpt lat="43.75450767059014" lon="11.586025311895286"><ele>1196.0</ele><time>2026-04-28T14:22:40.999Z</time></trkpt><trkpt lat="43.754579830707904" lon="11.58596421992301"><ele>1195.0</ele><time>2026-04-28T14:22:42.999Z</time></trkpt><trkpt lat="43.75468669557667" lon="11.585939907188228"><ele>1194.0</ele><time>2026-04-28T14:22:44.999Z</time></trkpt><trkpt lat="43.7548071935385" lon="11.585937901938225"><ele>1194.0</ele><time>2026-04-28T14:22:46.999Z</time></trkpt><trkpt lat="43.75492798664593" lon="11.585920871496176"><ele>1194.0</ele><time>2026-04-28T14:22:48.999Z</time></trkpt><trkpt lat="43.75503939739899" lon="11.585940407002994"><ele>1194.0</ele><time>2026-04-28T14:22:50.999Z</time></trkpt><trkpt lat="43.755147464972445" lon="11.585963926704796"><ele>1194.0</ele><time>2026-04-28T14:22:53.999Z</time></trkpt><trkpt lat="43.755228997103245" lon="11.586020656381246"><ele>1194.0</ele><time>2026-04-28T14:22:55.999Z</time></trkpt><trkpt lat="43.75529260426395" lon="11.586062108723729"><ele>1192.4</ele><time>2026-04-28T14:22:56.999Z</time></trkpt><trkpt lat="43.75539767802383" lon="11.586127730063563"><ele>1190.8000000000002</ele><time>2026-04-28T14:22:57.999Z</time></trkpt><trkpt lat="43.75549966915484" lon="11.586172441094584"><ele>1189.1999999999998</ele><time>2026-04-28T14:22:59.999Z</time></trkpt><trkpt lat="43.755600620275025" lon="11.586197580970897"><ele>1187.6</ele><time>2026-04-28T14:23:01.999Z</time></trkpt><trkpt lat="43.7556645137236" lon="11.58621270460828"><ele>1186.0</ele><time>2026-04-28T14:23:02.999Z</time></trkpt><trkpt lat="43.75577103819836" lon="11.58623315313477"><ele>1185.1666666666665</ele><time>2026-04-28T14:23:04.999Z</time></trkpt><trkpt lat="43.75582030041583" lon="11.586291225189514"><ele>1184.3333333333333</ele><time>2026-04-28T14:23:05.999Z</time></trkpt><trkpt lat="43.75588202485429" lon="11.586401439147304"><ele>1183.5</ele><time>2026-04-28T14:23:06.999Z</time></trkpt><trkpt lat="43.75593829608289" lon="11.58651129173906"><ele>1182.6666666666667</ele><time>2026-04-28T14:23:07.999Z</time></trkpt><trkpt lat="43.75598130404075" lon="11.586615411287795"><ele>1181.8333333333335</ele><time>2026-04-28T14:23:08.999Z</time></trkpt><trkpt lat="43.756011129627105" lon="11.586708363116523"><ele>1181.0</ele><time>2026-04-28T14:23:09.999Z</time></trkpt><trkpt lat="43.7560576603878" lon="11.586842619739466"><ele>1179.2</ele><time>2026-04-28T14:23:11.999Z</time></trkpt><trkpt lat="43.75608745511861" lon="11.586984340858777"><ele>1177.3999999999999</ele><time>2026-04-28T14:23:13.999Z</time></trkpt><trkpt lat="43.75602978419099" lon="11.587162363656104"><ele>1175.6</ele><time>2026-04-28T14:23:15.999Z</time></trkpt><trkpt lat="43.75603473657458" lon="11.587314736900234"><ele>1173.8</ele><time>2026-04-28T14:23:17.999Z</time></trkpt><trkpt lat="43.7560683882499" lon="11.587401670352767"><ele>1172.0</ele><time>2026-04-28T14:23:18.999Z</time></trkpt><trkpt lat="43.75612098991178" lon="11.58746357403547"><ele>1170.6</ele><time>2026-04-28T14:23:19.999Z</time></trkpt><trkpt lat="43.75622952199781" lon="11.587521780684337"><ele>1169.2</ele><time>2026-04-28T14:23:21.999Z</time></trkpt><trkpt lat="43.756344513946054" lon="11.587559797896718"><ele>1167.8</ele><time>2026-04-28T14:23:23.999Z</time></trkpt><trkpt lat="43.7564132427694" lon="11.587597683857267"><ele>1166.4</ele><time>2026-04-28T14:23:24.999Z</time></trkpt><trkpt lat="43.75648615208265" lon="11.587647911627748"><ele>1165.0</ele><time>2026-04-28T14:23:25.999Z</time></trkpt><trkpt lat="43.7566005186273" lon="11.58769945365652"><ele>1165.0</ele><time>2026-04-28T14:23:27.999Z</time></trkpt><trkpt lat="43.75673178941198" lon="11.587711999487674"><ele>1165.0</ele><time>2026-04-28T14:23:29.999Z</time></trkpt><trkpt lat="43.75679796914082" lon="11.587686635750677"><ele>1165.0</ele><time>2026-04-28T14:23:30.999Z</time></trkpt><trkpt lat="43.75686587439367" lon="11.587667251584444"><ele>1165.0</ele><time>2026-04-28T14:23:32Z</time></trkpt><trkpt lat="43.75693159812667" lon="11.587637968088888"><ele>1165.0</ele><time>2026-04-28T14:23:33Z</time></trkpt><trkpt lat="43.75703867274993" lon="11.587571617054905"><ele>1162.6</ele><time>2026-04-28T14:23:35Z</time></trkpt><trkpt lat="43.75709927945786" lon="11.587523812805848"><ele>1160.2</ele><time>2026-04-28T14:23:36Z</time></trkpt><trkpt lat="43.757206351997" lon="11.587412616031369"><ele>1157.8</ele><time>2026-04-28T14:23:38Z</time></trkpt><trkpt lat="43.757290215481824" lon="11.587349875732425"><ele>1155.4</ele><time>2026-04-28T14:23:39Z</time></trkpt><trkpt lat="43.757369209223384" lon="11.587289602276883"><ele>1153.0</ele><time>2026-04-28T14:23:40Z</time></trkpt><trkpt lat="43.75744975235927" lon="11.587275357451603"><ele>1153.0</ele><time>2026-04-28T14:23:41Z</time></trkpt><trkpt lat="43.75751942358379" lon="11.587241966112481"><ele>1153.0</ele><time>2026-04-28T14:23:43Z</time></trkpt><trkpt lat="43.75755182610801" lon="11.587331457501762"><ele>1153.0</ele><time>2026-04-28T14:23:45Z</time></trkpt><trkpt lat="43.75754493034102" lon="11.58741894648068"><ele>1153.0</ele><time>2026-04-28T14:23:46Z</time></trkpt><trkpt lat="43.75748976891373" lon="11.58746988963326"><ele>1153.0</ele><time>2026-04-28T14:23:48Z</time></trkpt><trkpt lat="43.75745262945732" lon="11.58758407701745"><ele>1153.0</ele><time>2026-04-28T14:23:51Z</time></trkpt><trkpt lat="43.757493689465804" lon="11.587671100822792"><ele>1153.0</ele><time>2026-04-28T14:23:54Z</time></trkpt><trkpt lat="43.75756105644966" lon="11.587674312606799"><ele>1153.0</ele><time>2026-04-28T14:23:56Z</time></trkpt><trkpt lat="43.75767414155423" lon="11.587697303519292"><ele>1153.0</ele><time>2026-04-28T14:23:58Z</time></trkpt><trkpt lat="43.75786516738936" lon="11.587803160745977"><ele>1153.0</ele><time>2026-04-28T14:24:00Z</time></trkpt><trkpt lat="43.75798072205814" lon="11.587749459074894"><ele>1153.0</ele><time>2026-04-28T14:24:02Z</time></trkpt><trkpt lat="43.7580387390808" lon="11.587689457857055"><ele>1150.6</ele><time>2026-04-28T14:24:03Z</time></trkpt><trkpt lat="43.758087647000266" lon="11.587622365470619"><ele>1148.1999999999998</ele><time>2026-04-28T14:24:04Z</time></trkpt><trkpt lat="43.75815166622696" lon="11.587488804242303"><ele>1145.8</ele><time>2026-04-28T14:24:06Z</time></trkpt><trkpt lat="43.75821950929309" lon="11.587357517821575"><ele>1143.3999999999999</ele><time>2026-04-28T14:24:08Z</time></trkpt><trkpt lat="43.75833478050947" lon="11.587308869084216"><ele>1141.0</ele><time>2026-04-28T14:24:10Z</time></trkpt><trkpt lat="43.75842271543198" lon="11.58733002206444"><ele>1141.0</ele><time>2026-04-28T14:24:11Z</time></trkpt><trkpt lat="43.758500556095406" lon="11.587368381201447"><ele>1141.0</ele><time>2026-04-28T14:24:12Z</time></trkpt><trkpt lat="43.7585729703182" lon="11.587410474451396"><ele>1141.0</ele><time>2026-04-28T14:24:13Z</time></trkpt><trkpt lat="43.75863197454588" lon="11.587533489781311"><ele>1141.0</ele><time>2026-04-28T14:24:14Z</time></trkpt><trkpt lat="43.75870805530727" lon="11.587647135280932"><ele>1141.0</ele><time>2026-04-28T14:24:16Z</time></trkpt><trkpt lat="43.75877897444542" lon="11.58764438215645"><ele>1139.5</ele><time>2026-04-28T14:24:21Z</time></trkpt><trkpt lat="43.758849593990504" lon="11.587616339121311"><ele>1138.0</ele><time>2026-04-28T14:26:22Z</time></trkpt><trkpt lat="43.75893802382979" lon="11.587637617362596"><ele>1136.5</ele><time>2026-04-28T14:26:26Z</time></trkpt><trkpt lat="43.75900250342948" lon="11.58763555738526"><ele>1135.0</ele><time>2026-04-28T14:26:28.999Z</time></trkpt><trkpt lat="43.75906950129768" lon="11.587591887148749"><ele>1133.5</ele><time>2026-04-28T14:26:30.999Z</time></trkpt><trkpt lat="43.759155069363075" lon="11.587573583699628"><ele>1132.0</ele><time>2026-04-28T14:26:31.999Z</time></trkpt><trkpt lat="43.75922574888671" lon="11.587550279661718"><ele>1132.0</ele><time>2026-04-28T14:26:32.999Z</time></trkpt><trkpt lat="43.75932798814778" lon="11.587492112332134"><ele>1132.0</ele><time>2026-04-28T14:26:34.999Z</time></trkpt><trkpt lat="43.75937682367125" lon="11.587425019907757"><ele>1132.0</ele><time>2026-04-28T14:26:35.999Z</time></trkpt><trkpt lat="43.75941531185716" lon="11.58733789916329"><ele>1132.0</ele><time>2026-04-28T14:26:36.999Z</time></trkpt><trkpt lat="43.759457773678854" lon="11.58724630687716"><ele>1132.0</ele><time>2026-04-28T14:26:37.999Z</time></trkpt><trkpt lat="43.759486711320456" lon="11.587159339469343"><ele>1132.0</ele><time>2026-04-28T14:26:38.999Z</time></trkpt><trkpt lat="43.759525883377314" lon="11.587087319940748"><ele>1130.6</ele><time>2026-04-28T14:26:39.999Z</time></trkpt><trkpt lat="43.75957413789852" lon="11.586999220530819"><ele>1129.2</ele><time>2026-04-28T14:26:40.999Z</time></trkpt><trkpt lat="43.75962663295386" lon="11.586862204899504"><ele>1127.8</ele><time>2026-04-28T14:26:42.999Z</time></trkpt><trkpt lat="43.75970416472666" lon="11.586740357881501"><ele>1126.4</ele><time>2026-04-28T14:26:44.999Z</time></trkpt><trkpt lat="43.7597113871382" lon="11.586613801731662"><ele>1125.0</ele><time>2026-04-28T14:26:46.999Z</time></trkpt><trkpt lat="43.75966409717709" lon="11.586534627527488"><ele>1125.0</ele><time>2026-04-28T14:26:47.999Z</time></trkpt><trkpt lat="43.75962620872998" lon="11.586463987910353"><ele>1125.0</ele><time>2026-04-28T14:26:48.999Z</time></trkpt><trkpt lat="43.75957129492959" lon="11.586406257797686"><ele>1125.0</ele><time>2026-04-28T14:26:49.999Z</time></trkpt><trkpt lat="43.759464177327935" lon="11.58634750368536"><ele>1125.0</ele><time>2026-04-28T14:26:51.999Z</time></trkpt><trkpt lat="43.75936127037393" lon="11.586329496201795"><ele>1125.0</ele><time>2026-04-28T14:26:53.999Z</time></trkpt><trkpt lat="43.7592403982661" lon="11.586321523535624"><ele>1125.8333333333333</ele><time>2026-04-28T14:26:55.999Z</time></trkpt><trkpt lat="43.759126965626955" lon="11.586296952624503"><ele>1126.6666666666667</ele><time>2026-04-28T14:26:57.999Z</time></trkpt><trkpt lat="43.75902944839313" lon="11.586264398064571"><ele>1127.5</ele><time>2026-04-28T14:26:59.999Z</time></trkpt><trkpt lat="43.758960568447954" lon="11.586212438401429"><ele>1128.3333333333335</ele><time>2026-04-28T14:27:01.999Z</time></trkpt><trkpt lat="43.758945348869766" lon="11.586109896085883"><ele>1129.1666666666667</ele><time>2026-04-28T14:27:03.999Z</time></trkpt><trkpt lat="43.75897565214551" lon="11.58602659431823"><ele>1130.0</ele><time>2026-04-28T14:27:05.999Z</time></trkpt><trkpt lat="43.75897043804906" lon="11.585939535751983"><ele>1126.3333333333335</ele><time>2026-04-28T14:27:07.999Z</time></trkpt><trkpt lat="43.75895423511368" lon="11.58583141930215"><ele>1122.6666666666667</ele><time>2026-04-28T14:27:09.999Z</time></trkpt><trkpt lat="43.75909193574884" lon="11.585467196487077"><ele>1119.0</ele><time>2026-04-28T14:27:10.999Z</time></trkpt><trkpt lat="43.75907890158053" lon="11.5852791370333"><ele>1117.8333333333333</ele><time>2026-04-28T14:27:12.999Z</time></trkpt><trkpt lat="43.7590368048359" lon="11.585138914967645"><ele>1116.6666666666667</ele><time>2026-04-28T14:27:13.999Z</time></trkpt><trkpt lat="43.75901616028105" lon="11.58502605853263"><ele>1115.5</ele><time>2026-04-28T14:27:14.999Z</time></trkpt><trkpt lat="43.75899646408883" lon="11.584919155857454"><ele>1114.3333333333335</ele><time>2026-04-28T14:27:15.999Z</time></trkpt><trkpt lat="43.75898388499776" lon="11.584823230405043"><ele>1113.1666666666667</ele><time>2026-04-28T14:27:16.999Z</time></trkpt><trkpt lat="43.75900297633738" lon="11.58471458652558"><ele>1112.0</ele><time>2026-04-28T14:27:17.999Z</time></trkpt><trkpt lat="43.75898832603182" lon="11.584592705501535"><ele>1111.6666666666667</ele><time>2026-04-28T14:27:18.999Z</time></trkpt><trkpt lat="43.758949866349184" lon="11.58444904922473"><ele>1111.3333333333335</ele><time>2026-04-28T14:27:19.999Z</time></trkpt><trkpt lat="43.75891151052353" lon="11.58434707194423"><ele>1111.0</ele><time>2026-04-28T14:27:20.999Z</time></trkpt><trkpt lat="43.75888326587323" lon="11.58423783916966"><ele>1110.6666666666667</ele><time>2026-04-28T14:27:21.999Z</time></trkpt><trkpt lat="43.758895754824294" lon="11.584144212064794"><ele>1110.3333333333333</ele><time>2026-04-28T14:27:22.999Z</time></trkpt><trkpt lat="43.75889751704234" lon="11.584055710574754"><ele>1110.0</ele><time>2026-04-28T14:27:24.999Z</time></trkpt><trkpt lat="43.75894803825222" lon="11.583923624919638"><ele>1110.0</ele><time>2026-04-28T14:27:27.999Z</time></trkpt><trkpt lat="43.75901856895952" lon="11.583861764824077"><ele>1110.0</ele><time>2026-04-28T14:27:28.999Z</time></trkpt><trkpt lat="43.75909028728648" lon="11.583782905783504"><ele>1110.0</ele><time>2026-04-28T14:27:29.999Z</time></trkpt><trkpt lat="43.75915361366329" lon="11.583702440519627"><ele>1110.0</ele><time>2026-04-28T14:27:30.999Z</time></trkpt><trkpt lat="43.759211629317136" lon="11.583630177995213"><ele>1110.0</ele><time>2026-04-28T14:27:31.999Z</time></trkpt><trkpt lat="43.75929843849489" lon="11.583574176386511"><ele>1110.0</ele><time>2026-04-28T14:27:32.999Z</time></trkpt><trkpt lat="43.759362413270495" lon="11.583556286526461"><ele>1109.2</ele><time>2026-04-28T14:27:33.999Z</time></trkpt><trkpt lat="43.75942565107051" lon="11.583501665760743"><ele>1108.4</ele><time>2026-04-28T14:27:34.999Z</time></trkpt><trkpt lat="43.759477346401766" lon="11.583450797445831"><ele>1107.6</ele><time>2026-04-28T14:27:35.999Z</time></trkpt><trkpt lat="43.75955308207625" lon="11.583347159008094"><ele>1106.8</ele><time>2026-04-28T14:27:37.999Z</time></trkpt><trkpt lat="43.75962362748546" lon="11.58329826136331"><ele>1106.0</ele><time>2026-04-28T14:27:39.999Z</time></trkpt><trkpt lat="43.75976748059611" lon="11.583272330483195"><ele>1106.0</ele><time>2026-04-28T14:27:41.998Z</time></trkpt><trkpt lat="43.759815148843686" lon="11.583215084436391"><ele>1106.0</ele><time>2026-04-28T14:27:43Z</time></trkpt><trkpt lat="43.75985193718983" lon="11.583122706260056"><ele>1106.0</ele><time>2026-04-28T14:27:44Z</time></trkpt><trkpt lat="43.759956446987864" lon="11.583031298354804"><ele>1106.0</ele><time>2026-04-28T14:27:45Z</time></trkpt><trkpt lat="43.760027871017705" lon="11.582967266179633"><ele>1106.0</ele><time>2026-04-28T14:27:46Z</time></trkpt><trkpt lat="43.76008295122525" lon="11.582911842713449"><ele>1106.0</ele><time>2026-04-28T14:27:47Z</time></trkpt><trkpt lat="43.760139538370886" lon="11.582861197440256"><ele>1107.2</ele><time>2026-04-28T14:27:48Z</time></trkpt><trkpt lat="43.760214266710435" lon="11.582775653962743"><ele>1108.3999999999999</ele><time>2026-04-28T14:27:49Z</time></trkpt><trkpt lat="43.760296208212914" lon="11.582694190029752"><ele>1109.6</ele><time>2026-04-28T14:27:50Z</time></trkpt><trkpt lat="43.76038826742856" lon="11.582617568587308"><ele>1110.8</ele><time>2026-04-28T14:27:51Z</time></trkpt><trkpt lat="43.76047457589559" lon="11.582544267211425"><ele>1112.0</ele><time>2026-04-28T14:27:52Z</time></trkpt><trkpt lat="43.76056650771533" lon="11.582484374448024"><ele>1112.0</ele><time>2026-04-28T14:27:53Z</time></trkpt><trkpt lat="43.76064793825365" lon="11.582446801131603"><ele>1112.0</ele><time>2026-04-28T14:27:54Z</time></trkpt><trkpt lat="43.76070999958865" lon="11.582423585282454"><ele>1112.0</ele><time>2026-04-28T14:27:55Z</time></trkpt><trkpt lat="43.76084095965159" lon="11.582427340422932"><ele>1112.0</ele><time>2026-04-28T14:27:57Z</time></trkpt><trkpt lat="43.76092968772244" lon="11.582480227124089"><ele>1112.0</ele><time>2026-04-28T14:27:58Z</time></trkpt><trkpt lat="43.76103581924552" lon="11.582552313936912"><ele>1112.6</ele><time>2026-04-28T14:27:59Z</time></trkpt><trkpt lat="43.761133100228435" lon="11.582621882981806"><ele>1113.2</ele><time>2026-04-28T14:28:00Z</time></trkpt><trkpt lat="43.76122313848203" lon="11.582677107645038"><ele>1113.8</ele><time>2026-04-28T14:28:01Z</time></trkpt><trkpt lat="43.76131799860292" lon="11.58272089282796"><ele>1114.4</ele><time>2026-04-28T14:28:02Z</time></trkpt><trkpt lat="43.761412912739125" lon="11.582754214454637"><ele>1115.0</ele><time>2026-04-28T14:28:03Z</time></trkpt><trkpt lat="43.76150088370782" lon="11.582782324535632"><ele>1115.0</ele><time>2026-04-28T14:28:04Z</time></trkpt><trkpt lat="43.761593838673036" lon="11.582819273787512"><ele>1115.0</ele><time>2026-04-28T14:28:05Z</time></trkpt><trkpt lat="43.761682875204095" lon="11.582855925132188"><ele>1115.0</ele><time>2026-04-28T14:28:06Z</time></trkpt><trkpt lat="43.76177304175598" lon="11.582875022715209"><ele>1115.0</ele><time>2026-04-28T14:28:07Z</time></trkpt><trkpt lat="43.76186293342396" lon="11.582894375172279"><ele>1115.0</ele><time>2026-04-28T14:28:08Z</time></trkpt><trkpt lat="43.76196347374013" lon="11.582906853549115"><ele>1114.3333333333335</ele><time>2026-04-28T14:28:09Z</time></trkpt><trkpt lat="43.762065039019994" lon="11.582910391544678"><ele>1113.6666666666667</ele><time>2026-04-28T14:28:10Z</time></trkpt><trkpt lat="43.76213958494869" lon="11.582914002960464"><ele>1113.0</ele><time>2026-04-28T14:28:11Z</time></trkpt><trkpt lat="43.76220288044451" lon="11.582934151159465"><ele>1112.3333333333333</ele><time>2026-04-28T14:28:12Z</time></trkpt><trkpt lat="43.76228505731826" lon="11.58293438213387"><ele>1111.6666666666665</ele><time>2026-04-28T14:28:13Z</time></trkpt><trkpt lat="43.76240235979629" lon="11.582892117669267"><ele>1111.0</ele><time>2026-04-28T14:28:15Z</time></trkpt><trkpt lat="43.7624698347411" lon="11.58284194641569"><ele>1111.0</ele><time>2026-04-28T14:28:16Z</time></trkpt><trkpt lat="43.76252699880736" lon="11.582794760001198"><ele>1111.0</ele><time>2026-04-28T14:28:17Z</time></trkpt><trkpt lat="43.762591283167026" lon="11.582725864698455"><ele>1111.0</ele><time>2026-04-28T14:28:18Z</time></trkpt><trkpt lat="43.76267362079406" lon="11.58269838800199"><ele>1111.0</ele><time>2026-04-28T14:28:19Z</time></trkpt><trkpt lat="43.76273928066488" lon="11.582660898363962"><ele>1111.0</ele><time>2026-04-28T14:28:20Z</time></trkpt><trkpt lat="43.762805642606885" lon="11.582616496789626"><ele>1111.0</ele><time>2026-04-28T14:28:21Z</time></trkpt><trkpt lat="43.76288273937922" lon="11.582597932201391"><ele>1109.3999999999999</ele><time>2026-04-28T14:28:22Z</time></trkpt><trkpt lat="43.762965537967936" lon="11.582589861026118"><ele>1107.8</ele><time>2026-04-28T14:28:23Z</time></trkpt><trkpt lat="43.76303824864784" lon="11.582573292608526"><ele>1106.1999999999998</ele><time>2026-04-28T14:28:24Z</time></trkpt><trkpt lat="43.76317386679624" lon="11.582523049279239"><ele>1104.6</ele><time>2026-04-28T14:28:26Z</time></trkpt><trkpt lat="43.76325589624001" lon="11.582497738793785"><ele>1103.0</ele><time>2026-04-28T14:28:27Z</time></trkpt><trkpt lat="43.763350973624185" lon="11.582476104455194"><ele>1103.0</ele><time>2026-04-28T14:28:28Z</time></trkpt><trkpt lat="43.76343224171048" lon="11.582427095770107"><ele>1103.0</ele><time>2026-04-28T14:28:29Z</time></trkpt><trkpt lat="43.76352451872783" lon="11.582408546394829"><ele>1103.0</ele><time>2026-04-28T14:28:30Z</time></trkpt><trkpt lat="43.76363928880107" lon="11.582370072220975"><ele>1103.0</ele><time>2026-04-28T14:28:31Z</time></trkpt><trkpt lat="43.763730192526" lon="11.58234079962209"><ele>1103.0</ele><time>2026-04-28T14:28:31.999Z</time></trkpt><trkpt lat="43.763841188898766" lon="11.582316103885187"><ele>1101.4</ele><time>2026-04-28T14:28:32.999Z</time></trkpt><trkpt lat="43.763946477176695" lon="11.582292432116502"><ele>1099.8</ele><time>2026-04-28T14:28:33.999Z</time></trkpt><trkpt lat="43.764044210151226" lon="11.582261793181376"><ele>1098.2</ele><time>2026-04-28T14:28:34.999Z</time></trkpt><trkpt lat="43.764139067903635" lon="11.582246336042438"><ele>1096.6</ele><time>2026-04-28T14:28:35.999Z</time></trkpt><trkpt lat="43.764226678229996" lon="11.582222158409374"><ele>1095.0</ele><time>2026-04-28T14:28:36.999Z</time></trkpt><trkpt lat="43.76429538657057" lon="11.582200307251469"><ele>1092.8</ele><time>2026-04-28T14:28:37.999Z</time></trkpt><trkpt lat="43.764414986432605" lon="11.58213045559788"><ele>1090.6</ele><time>2026-04-28T14:28:39.999Z</time></trkpt><trkpt lat="43.76449970156106" lon="11.58209719823944"><ele>1088.4</ele><time>2026-04-28T14:28:40.999Z</time></trkpt><trkpt lat="43.76458265044517" lon="11.58206953142504"><ele>1086.2</ele><time>2026-04-28T14:28:41.999Z</time></trkpt><trkpt lat="43.76466763855462" lon="11.58203910544738"><ele>1084.0</ele><time>2026-04-28T14:28:42.999Z</time></trkpt><trkpt lat="43.76476605084645" lon="11.582037143292174"><ele>1084.0</ele><time>2026-04-28T14:28:43.999Z</time></trkpt><trkpt lat="43.764852865373896" lon="11.582044537164714"><ele>1084.0</ele><time>2026-04-28T14:28:44.999Z</time></trkpt><trkpt lat="43.76495052442393" lon="11.58203561935216"><ele>1084.0</ele><time>2026-04-28T14:28:45.999Z</time></trkpt><trkpt lat="43.76505144014984" lon="11.582001165990135"><ele>1084.0</ele><time>2026-04-28T14:28:46.999Z</time></trkpt><trkpt lat="43.76516181932098" lon="11.581955943717587"><ele>1084.0</ele><time>2026-04-28T14:28:47.999Z</time></trkpt><trkpt lat="43.76525834463367" lon="11.58191794190296"><ele>1084.2</ele><time>2026-04-28T14:28:48.999Z</time></trkpt><trkpt lat="43.76536259716648" lon="11.581890663144716"><ele>1084.4</ele><time>2026-04-28T14:28:49.999Z</time></trkpt><trkpt lat="43.76545498724081" lon="11.581885771278687"><ele>1084.6</ele><time>2026-04-28T14:28:50.999Z</time></trkpt><trkpt lat="43.765532414638386" lon="11.581874418479542"><ele>1084.8</ele><time>2026-04-28T14:28:51.999Z</time></trkpt><trkpt lat="43.765641863986914" lon="11.581872106113773"><ele>1085.0</ele><time>2026-04-28T14:28:52.999Z</time></trkpt><trkpt lat="43.7657323402284" lon="11.58188111996445"><ele>1085.0</ele><time>2026-04-28T14:28:53.999Z</time></trkpt><trkpt lat="43.765844216177825" lon="11.581893183106724"><ele>1085.0</ele><time>2026-04-28T14:28:54.999Z</time></trkpt><trkpt lat="43.76592052476048" lon="11.58193114282746"><ele>1085.0</ele><time>2026-04-28T14:28:55.999Z</time></trkpt><trkpt lat="43.76598822215389" lon="11.581995532341372"><ele>1085.0</ele><time>2026-04-28T14:28:56.999Z</time></trkpt><trkpt lat="43.766056928095054" lon="11.582094552263875"><ele>1085.0</ele><time>2026-04-28T14:28:57.999Z</time></trkpt><trkpt lat="43.76611564646202" lon="11.582196778769893"><ele>1088.0</ele><time>2026-04-28T14:28:58.999Z</time></trkpt><trkpt lat="43.766171857055845" lon="11.582302487183123"><ele>1091.0</ele><time>2026-04-28T14:28:59.999Z</time></trkpt><trkpt lat="43.766205666684165" lon="11.582423658443364"><ele>1094.0</ele><time>2026-04-28T14:29:00.999Z</time></trkpt><trkpt lat="43.76623891291339" lon="11.582566282189221"><ele>1097.0</ele><time>2026-04-28T14:29:01.999Z</time></trkpt><trkpt lat="43.766258011142185" lon="11.582698676023753"><ele>1100.0</ele><time>2026-04-28T14:29:02.999Z</time></trkpt><trkpt lat="43.76629293717841" lon="11.58282465280988"><ele>1098.5</ele><time>2026-04-28T14:29:03.999Z</time></trkpt><trkpt lat="43.766331113519804" lon="11.582944486588744"><ele>1097.0</ele><time>2026-04-28T14:29:04.999Z</time></trkpt><trkpt lat="43.76638415272151" lon="11.583045972937226"><ele>1095.5</ele><time>2026-04-28T14:29:05.999Z</time></trkpt><trkpt lat="43.7664454053145" lon="11.58315147874336"><ele>1094.0</ele><time>2026-04-28T14:29:06.999Z</time></trkpt><trkpt lat="43.76651003317845" lon="11.583219008465061"><ele>1092.5</ele><time>2026-04-28T14:29:07.999Z</time></trkpt><trkpt lat="43.766575940915594" lon="11.583260233405188"><ele>1091.0</ele><time>2026-04-28T14:29:08.999Z</time></trkpt><trkpt lat="43.76671192675803" lon="11.583231404684353"><ele>1091.0</ele><time>2026-04-28T14:29:10.999Z</time></trkpt><trkpt lat="43.766776098177964" lon="11.583199482483659"><ele>1091.0</ele><time>2026-04-28T14:29:11.999Z</time></trkpt><trkpt lat="43.76687857633677" lon="11.583169372647044"><ele>1091.0</ele><time>2026-04-28T14:29:12.999Z</time></trkpt><trkpt lat="43.766984258633116" lon="11.583185558398608"><ele>1091.0</ele><time>2026-04-28T14:29:13.999Z</time></trkpt><trkpt lat="43.76708763047816" lon="11.583225841960667"><ele>1091.0</ele><time>2026-04-28T14:29:14.999Z</time></trkpt><trkpt lat="43.76716310508129" lon="11.583264571561482"><ele>1092.8</ele><time>2026-04-28T14:29:15.999Z</time></trkpt><trkpt lat="43.76722856798746" lon="11.583316929534039"><ele>1094.6</ele><time>2026-04-28T14:29:16.999Z</time></trkpt><trkpt lat="43.76728987838011" lon="11.583406078753827"><ele>1096.4</ele><time>2026-04-28T14:29:17.999Z</time></trkpt><trkpt lat="43.767361481028324" lon="11.5834759449572"><ele>1098.2</ele><time>2026-04-28T14:29:18.999Z</time></trkpt><trkpt lat="43.76744436082632" lon="11.583480706912136"><ele>1100.0</ele><time>2026-04-28T14:29:19.999Z</time></trkpt><trkpt lat="43.767583395853656" lon="11.583417176220705"><ele>1100.0</ele><time>2026-04-28T14:29:21.999Z</time></trkpt><trkpt lat="43.767677913286114" lon="11.58333969683722"><ele>1100.0</ele><time>2026-04-28T14:29:22.999Z</time></trkpt><trkpt lat="43.76777153406737" lon="11.583253089270867"><ele>1100.0</ele><time>2026-04-28T14:29:23.999Z</time></trkpt><trkpt lat="43.767847830669496" lon="11.583187223091373"><ele>1100.0</ele><time>2026-04-28T14:29:24.999Z</time></trkpt><trkpt lat="43.76793166389494" lon="11.58312734091185"><ele>1100.0</ele><time>2026-04-28T14:29:25.999Z</time></trkpt><trkpt lat="43.76799771457652" lon="11.583064984138566"><ele>1101.0</ele><time>2026-04-28T14:29:26.999Z</time></trkpt><trkpt lat="43.768080323103895" lon="11.583034704522856"><ele>1102.0</ele><time>2026-04-28T14:29:27.999Z</time></trkpt><trkpt lat="43.76814068423174" lon="11.582988385160627"><ele>1103.0</ele><time>2026-04-28T14:29:28.999Z</time></trkpt><trkpt lat="43.76820413706085" lon="11.582941806827534"><ele>1104.0</ele><time>2026-04-28T14:29:30.999Z</time></trkpt><trkpt lat="43.76831091940361" lon="11.58305348013939"><ele>1105.0</ele><time>2026-04-28T14:29:57Z</time></trkpt><trkpt lat="43.76837240835623" lon="11.583153120258972"><ele>1105.0</ele><time>2026-04-28T14:29:58Z</time></trkpt><trkpt lat="43.76844619304928" lon="11.583250173747663"><ele>1105.0</ele><time>2026-04-28T14:29:59Z</time></trkpt><trkpt lat="43.768527105706305" lon="11.583317395618081"><ele>1105.0</ele><time>2026-04-28T14:30:00Z</time></trkpt><trkpt lat="43.76859890564806" lon="11.583386650809587"><ele>1105.0</ele><time>2026-04-28T14:30:01Z</time></trkpt><trkpt lat="43.7686667728442" lon="11.583458190618776"><ele>1105.0</ele><time>2026-04-28T14:30:02Z</time></trkpt><trkpt lat="43.768748712006065" lon="11.583492530236017"><ele>1106.0</ele><time>2026-04-28T14:30:03Z</time></trkpt><trkpt lat="43.76880667291138" lon="11.583562035188601"><ele>1107.0</ele><time>2026-04-28T14:30:04Z</time></trkpt><trkpt lat="43.76885931434756" lon="11.583643520319104"><ele>1108.0</ele><time>2026-04-28T14:30:05Z</time></trkpt><trkpt lat="43.768926052285956" lon="11.583775122168896"><ele>1109.0</ele><time>2026-04-28T14:30:07Z</time></trkpt><trkpt lat="43.76895784987128" lon="11.583882993995445"><ele>1110.0</ele><time>2026-04-28T14:30:08Z</time></trkpt><trkpt lat="43.76895039492211" lon="11.583987924704601"><ele>1111.0</ele><time>2026-04-28T14:30:09Z</time></trkpt><trkpt lat="43.76893337755998" lon="11.584104143611883"><ele>1113.0</ele><time>2026-04-28T14:30:10Z</time></trkpt><trkpt lat="43.768913281075285" lon="11.58421174322235"><ele>1115.0</ele><time>2026-04-28T14:30:11Z</time></trkpt><trkpt lat="43.76889319413065" lon="11.584376281052185"><ele>1117.0</ele><time>2026-04-28T14:30:12Z</time></trkpt><trkpt lat="43.768839457072716" lon="11.584546711142988"><ele>1119.0</ele><time>2026-04-28T14:30:13Z</time></trkpt><trkpt lat="43.76878573961164" lon="11.584676419867582"><ele>1121.0</ele><time>2026-04-28T14:30:14Z</time></trkpt><trkpt lat="43.76872727169258" lon="11.58481904976395"><ele>1123.0</ele><time>2026-04-28T14:30:15Z</time></trkpt><trkpt lat="43.76868106651173" lon="11.584947034115523"><ele>1125.0</ele><time>2026-04-28T14:30:16Z</time></trkpt><trkpt lat="43.768637140393636" lon="11.585077976827304"><ele>1127.0</ele><time>2026-04-28T14:30:17Z</time></trkpt><trkpt lat="43.768599117388106" lon="11.58519807345538"><ele>1129.0</ele><time>2026-04-28T14:30:18Z</time></trkpt><trkpt lat="43.76856853285971" lon="11.585307861335611"><ele>1131.0</ele><time>2026-04-28T14:30:19Z</time></trkpt><trkpt lat="43.76856252081821" lon="11.585411918739354"><ele>1131.6</ele><time>2026-04-28T14:30:20Z</time></trkpt><trkpt lat="43.76854441265288" lon="11.585534645542232"><ele>1132.1999999999998</ele><time>2026-04-28T14:30:21Z</time></trkpt><trkpt lat="43.76855453704498" lon="11.585649706842855"><ele>1132.8000000000002</ele><time>2026-04-28T14:30:22Z</time></trkpt><trkpt lat="43.768613816099936" lon="11.585768370784997"><ele>1133.4</ele><time>2026-04-28T14:30:23Z</time></trkpt><trkpt lat="43.76870905230355" lon="11.585820196678224"><ele>1134.0</ele><time>2026-04-28T14:30:24Z</time></trkpt><trkpt lat="43.76878414501178" lon="11.58589667199348"><ele>1134.0</ele><time>2026-04-28T14:30:25Z</time></trkpt><trkpt lat="43.76887823751893" lon="11.586006740447873"><ele>1134.0</ele><time>2026-04-28T14:30:26Z</time></trkpt><trkpt lat="43.768951460748035" lon="11.586102410851714"><ele>1134.0</ele><time>2026-04-28T14:30:27Z</time></trkpt><trkpt lat="43.76904759140966" lon="11.586167076046006"><ele>1134.0</ele><time>2026-04-28T14:30:28Z</time></trkpt><trkpt lat="43.76914199718131" lon="11.586282615024995"><ele>1133.2</ele><time>2026-04-28T14:30:29Z</time></trkpt><trkpt lat="43.76921471935472" lon="11.586365253851664"><ele>1132.4</ele><time>2026-04-28T14:30:30Z</time></trkpt><trkpt lat="43.76929315431018" lon="11.586458455449582"><ele>1131.6</ele><time>2026-04-28T14:30:31Z</time></trkpt><trkpt lat="43.76937947489736" lon="11.586551623662478"><ele>1130.8</ele><time>2026-04-28T14:30:32Z</time></trkpt><trkpt lat="43.76944201647535" lon="11.586667564197278"><ele>1130.0</ele><time>2026-04-28T14:30:33Z</time></trkpt><trkpt lat="43.76947997373162" lon="11.586767521750861"><ele>1129.8</ele><time>2026-04-28T14:30:34Z</time></trkpt><trkpt lat="43.76952126855121" lon="11.586855494695676"><ele>1129.6</ele><time>2026-04-28T14:30:34.999Z</time></trkpt><trkpt lat="43.76955972219554" lon="11.586973452307305"><ele>1129.4</ele><time>2026-04-28T14:30:35.999Z</time></trkpt><trkpt lat="43.769587634017036" lon="11.587118054759122"><ele>1129.2</ele><time>2026-04-28T14:30:36.999Z</time></trkpt><trkpt lat="43.76960328945685" lon="11.58727739089589"><ele>1129.0</ele><time>2026-04-28T14:30:37.999Z</time></trkpt><trkpt lat="43.76962149442876" lon="11.58743653255178"><ele>1129.0</ele><time>2026-04-28T14:30:38.999Z</time></trkpt><trkpt lat="43.76963850199004" lon="11.587561813643704"><ele>1129.0</ele><time>2026-04-28T14:30:39.999Z</time></trkpt><trkpt lat="43.76966927748461" lon="11.587651077377346"><ele>1129.0</ele><time>2026-04-28T14:30:40.999Z</time></trkpt><trkpt lat="43.769682039559655" lon="11.587737435985039"><ele>1129.0</ele><time>2026-04-28T14:30:41.999Z</time></trkpt><trkpt lat="43.76970558211739" lon="11.587855400680917"><ele>1129.0</ele><time>2026-04-28T14:30:42.999Z</time></trkpt><trkpt lat="43.76971977071573" lon="11.587989922417952"><ele>1129.0</ele><time>2026-04-28T14:30:43.999Z</time></trkpt><trkpt lat="43.76977200843955" lon="11.588166810145852"><ele>1129.5</ele><time>2026-04-28T14:30:44.999Z</time></trkpt><trkpt lat="43.76983324478368" lon="11.588309748375048"><ele>1130.0</ele><time>2026-04-28T14:30:45.999Z</time></trkpt><trkpt lat="43.76986125548694" lon="11.588463918242095"><ele>1130.5</ele><time>2026-04-28T14:30:46.999Z</time></trkpt><trkpt lat="43.76991020163257" lon="11.588627706778611"><ele>1131.0</ele><time>2026-04-28T14:30:47.999Z</time></trkpt><trkpt lat="43.76996648293428" lon="11.588793195122719"><ele>1131.0</ele><time>2026-04-28T14:30:48.999Z</time></trkpt><trkpt lat="43.77002061656546" lon="11.588942887325361"><ele>1131.0</ele><time>2026-04-28T14:30:49.999Z</time></trkpt><trkpt lat="43.7700700260963" lon="11.589090842450098"><ele>1131.0</ele><time>2026-04-28T14:30:50.999Z</time></trkpt><trkpt lat="43.77011034672812" lon="11.58922369652547"><ele>1131.0</ele><time>2026-04-28T14:30:51.999Z</time></trkpt><trkpt lat="43.77015509551167" lon="11.589370608280491"><ele>1129.75</ele><time>2026-04-28T14:30:52.999Z</time></trkpt><trkpt lat="43.77020093676499" lon="11.589521761810577"><ele>1128.5</ele><time>2026-04-28T14:30:53.999Z</time></trkpt><trkpt lat="43.7702481331691" lon="11.589683111266178"><ele>1127.25</ele><time>2026-04-28T14:30:54.999Z</time></trkpt><trkpt lat="43.77029280922147" lon="11.589837330379112"><ele>1126.0</ele><time>2026-04-28T14:30:55.999Z</time></trkpt><trkpt lat="43.77033095582914" lon="11.589977476628885"><ele>1126.0</ele><time>2026-04-28T14:30:56.999Z</time></trkpt><trkpt lat="43.77036471955498" lon="11.590101520689363"><ele>1126.0</ele><time>2026-04-28T14:30:57.999Z</time></trkpt><trkpt lat="43.770402540637654" lon="11.590255868644986"><ele>1126.0</ele><time>2026-04-28T14:30:58.999Z</time></trkpt><trkpt lat="43.7704316518475" lon="11.590395614490992"><ele>1126.0</ele><time>2026-04-28T14:30:59.999Z</time></trkpt><trkpt lat="43.77046512643113" lon="11.590546496945501"><ele>1126.0</ele><time>2026-04-28T14:31:00.999Z</time></trkpt><trkpt lat="43.770478076857586" lon="11.590706098232403"><ele>1126.0</ele><time>2026-04-28T14:31:01.999Z</time></trkpt><trkpt lat="43.77046985243713" lon="11.59086823783858"><ele>1126.0</ele><time>2026-04-28T14:31:02.999Z</time></trkpt><trkpt lat="43.770463040948776" lon="11.591029095827997"><ele>1126.0</ele><time>2026-04-28T14:31:03.999Z</time></trkpt><trkpt lat="43.77045612940438" lon="11.591192817639238"><ele>1126.0</ele><time>2026-04-28T14:31:04.999Z</time></trkpt><trkpt lat="43.770448752163105" lon="11.59135403585354"><ele>1126.0</ele><time>2026-04-28T14:31:05.999Z</time></trkpt><trkpt lat="43.77044131521524" lon="11.591523042219698"><ele>1126.0</ele><time>2026-04-28T14:31:06.999Z</time></trkpt><trkpt lat="43.77043535862262" lon="11.591669384855916"><ele>1126.0</ele><time>2026-04-28T14:31:07.999Z</time></trkpt><trkpt lat="43.770430197273996" lon="11.591804279195836"><ele>1126.0</ele><time>2026-04-28T14:31:08.999Z</time></trkpt><trkpt lat="43.77042452926503" lon="11.591952415371747"><ele>1126.0</ele><time>2026-04-28T14:31:09.999Z</time></trkpt><trkpt lat="43.770417955499575" lon="11.592107465317776"><ele>1126.75</ele><time>2026-04-28T14:31:10.999Z</time></trkpt><trkpt lat="43.770414235212975" lon="11.592258801314399"><ele>1127.5</ele><time>2026-04-28T14:31:11.999Z</time></trkpt><trkpt lat="43.77042645680352" lon="11.592401821933104"><ele>1128.25</ele><time>2026-04-28T14:31:12.999Z</time></trkpt><trkpt lat="43.770430007206926" lon="11.592568745876752"><ele>1129.0</ele><time>2026-04-28T14:31:13.999Z</time></trkpt><trkpt lat="43.770437031846036" lon="11.592753350571602"><ele>1129.8</ele><time>2026-04-28T14:31:14.999Z</time></trkpt><trkpt lat="43.770448263482635" lon="11.592907110179063"><ele>1130.6000000000001</ele><time>2026-04-28T14:31:15.999Z</time></trkpt><trkpt lat="43.77046228216862" lon="11.593044383572272"><ele>1131.4</ele><time>2026-04-28T14:31:16.999Z</time></trkpt><trkpt lat="43.770477300537976" lon="11.59317291256707"><ele>1132.2</ele><time>2026-04-28T14:31:17.999Z</time></trkpt><trkpt lat="43.77050680604058" lon="11.593305250519983"><ele>1133.0</ele><time>2026-04-28T14:31:18.999Z</time></trkpt><trkpt lat="43.77052307671945" lon="11.593431456934887"><ele>1133.0</ele><time>2026-04-28T14:31:19.999Z</time></trkpt><trkpt lat="43.77054191181182" lon="11.593525345899902"><ele>1133.0</ele><time>2026-04-28T14:31:20.999Z</time></trkpt><trkpt lat="43.77056264711985" lon="11.59362762331341"><ele>1133.0</ele><time>2026-04-28T14:31:21.999Z</time></trkpt><trkpt lat="43.7705933747292" lon="11.593726244645271"><ele>1133.0</ele><time>2026-04-28T14:31:22.999Z</time></trkpt><trkpt lat="43.77063483622356" lon="11.593861698478676"><ele>1133.0</ele><time>2026-04-28T14:31:24.999Z</time></trkpt><trkpt lat="43.77059946835842" lon="11.594023276033557"><ele>1134.6</ele><time>2026-04-28T14:31:26.999Z</time></trkpt><trkpt lat="43.77055998852965" lon="11.594104627076884"><ele>1136.1999999999998</ele><time>2026-04-28T14:31:27.999Z</time></trkpt><trkpt lat="43.77049309172956" lon="11.59423088200027"><ele>1137.8</ele><time>2026-04-28T14:31:29.999Z</time></trkpt><trkpt lat="43.77043974301917" lon="11.594345693446725"><ele>1139.3999999999999</ele><time>2026-04-28T14:31:31.999Z</time></trkpt><trkpt lat="43.77039627189242" lon="11.594461206937432"><ele>1141.0</ele><time>2026-04-28T14:31:33.999Z</time></trkpt><trkpt lat="43.77033542059819" lon="11.594641130777806"><ele>1139.2</ele><time>2026-04-28T14:31:35.999Z</time></trkpt><trkpt lat="43.77029172951298" lon="11.594742779672572"><ele>1137.3999999999999</ele><time>2026-04-28T14:31:36.999Z</time></trkpt><trkpt lat="43.77026899330656" lon="11.594931076529544"><ele>1135.6</ele><time>2026-04-28T14:31:38.999Z</time></trkpt><trkpt lat="43.77024544129969" lon="11.595031572701371"><ele>1133.8</ele><time>2026-04-28T14:31:39.999Z</time></trkpt><trkpt lat="43.77020720806742" lon="11.595136780937636"><ele>1132.0</ele><time>2026-04-28T14:31:40.999Z</time></trkpt><trkpt lat="43.770145217261735" lon="11.595236559917542"><ele>1132.0</ele><time>2026-04-28T14:31:42.999Z</time></trkpt><trkpt lat="43.77002815696955" lon="11.595271472566326"><ele>1132.0</ele><time>2026-04-28T14:31:44.999Z</time></trkpt><trkpt lat="43.76996255498971" lon="11.595291567064299"><ele>1132.0</ele><time>2026-04-28T14:31:45.999Z</time></trkpt><trkpt lat="43.76989533559503" lon="11.595316239298553"><ele>1132.0</ele><time>2026-04-28T14:31:46.999Z</time></trkpt><trkpt lat="43.76979708000783" lon="11.595400585673891"><ele>1132.0</ele><time>2026-04-28T14:31:48.998Z</time></trkpt><trkpt lat="43.76970500580985" lon="11.595463351606448"><ele>1135.2</ele><time>2026-04-28T14:31:51.998Z</time></trkpt><trkpt lat="43.769642759982524" lon="11.595502828409256"><ele>1138.4</ele><time>2026-04-28T14:31:55Z</time></trkpt><trkpt lat="43.769576026751565" lon="11.595555894277576"><ele>1141.6</ele><time>2026-04-28T14:31:59Z</time></trkpt><trkpt lat="43.76948226509843" lon="11.595701383070441"><ele>1144.8</ele><time>2026-04-28T14:32:02Z</time></trkpt><trkpt lat="43.76943731192543" lon="11.595830113423828"><ele>1148.0</ele><time>2026-04-28T14:32:03Z</time></trkpt><trkpt lat="43.76939314172809" lon="11.595942843056608"><ele>1145.0</ele><time>2026-04-28T14:32:04Z</time></trkpt><trkpt lat="43.769347461838635" lon="11.596046238808697"><ele>1142.0</ele><time>2026-04-28T14:32:05Z</time></trkpt><trkpt lat="43.769302589102665" lon="11.596140621325487"><ele>1139.0</ele><time>2026-04-28T14:32:06Z</time></trkpt><trkpt lat="43.76926599253426" lon="11.596219444455183"><ele>1136.0</ele><time>2026-04-28T14:32:07Z</time></trkpt><trkpt lat="43.76913654713452" lon="11.596343499367544"><ele>1133.0</ele><time>2026-04-28T14:32:09Z</time></trkpt><trkpt lat="43.7690207600081" lon="11.596437274436221"><ele>1133.0</ele><time>2026-04-28T14:32:11Z</time></trkpt><trkpt lat="43.76892542474285" lon="11.596447935927035"><ele>1133.0</ele><time>2026-04-28T14:32:12Z</time></trkpt><trkpt lat="43.76880410775631" lon="11.596496181459655"><ele>1133.0</ele><time>2026-04-28T14:32:14Z</time></trkpt><trkpt lat="43.768711239454916" lon="11.596562431463775"><ele>1133.0</ele><time>2026-04-28T14:32:16Z</time></trkpt><trkpt lat="43.76867521626445" lon="11.59664187353777"><ele>1133.0</ele><time>2026-04-28T14:32:17Z</time></trkpt><trkpt lat="43.76864739243775" lon="11.596760253643575"><ele>1133.0</ele><time>2026-04-28T14:32:18Z</time></trkpt><trkpt lat="43.76861937943828" lon="11.596878433778386"><ele>1133.0</ele><time>2026-04-28T14:32:19Z</time></trkpt><trkpt lat="43.76863791912616" lon="11.596995276217724"><ele>1133.0</ele><time>2026-04-28T14:32:20Z</time></trkpt><trkpt lat="43.768701371519235" lon="11.597124492742216"><ele>1133.0</ele><time>2026-04-28T14:32:21Z</time></trkpt><trkpt lat="43.76867126990279" lon="11.597220949396924"><ele>1133.0</ele><time>2026-04-28T14:32:22Z</time></trkpt><trkpt lat="43.76867828836891" lon="11.597316153416507"><ele>1133.0</ele><time>2026-04-28T14:32:23Z</time></trkpt><trkpt lat="43.76868295622333" lon="11.597492117831143"><ele>1131.8</ele><time>2026-04-28T14:32:25Z</time></trkpt><trkpt lat="43.768721081497034" lon="11.597647097149546"><ele>1130.6</ele><time>2026-04-28T14:32:27Z</time></trkpt><trkpt lat="43.76875625675919" lon="11.597730076219424"><ele>1129.4</ele><time>2026-04-28T14:32:28Z</time></trkpt><trkpt lat="43.76878193192626" lon="11.597815988569774"><ele>1128.2</ele><time>2026-04-28T14:32:29Z</time></trkpt><trkpt lat="43.768847177021776" lon="11.59794846898792"><ele>1127.0</ele><time>2026-04-28T14:32:31Z</time></trkpt><trkpt lat="43.768918128373535" lon="11.598054614804862"><ele>1123.6666666666667</ele><time>2026-04-28T14:32:33Z</time></trkpt><trkpt lat="43.7689716781962" lon="11.598115763132617"><ele>1120.3333333333335</ele><time>2026-04-28T14:32:50.999Z</time></trkpt><trkpt lat="43.769049211176174" lon="11.598127376587755"><ele>1117.0</ele><time>2026-04-28T14:32:51.999Z</time></trkpt><trkpt lat="43.76913900443502" lon="11.598120283484105"><ele>1113.6666666666667</ele><time>2026-04-28T14:32:52.999Z</time></trkpt><trkpt lat="43.769220488834854" lon="11.598136969735782"><ele>1110.3333333333333</ele><time>2026-04-28T14:32:53.999Z</time></trkpt><trkpt lat="43.76929540015685" lon="11.598141058008544"><ele>1107.0</ele><time>2026-04-28T14:32:54.999Z</time></trkpt><trkpt lat="43.76937849610825" lon="11.598174074534157"><ele>1107.0</ele><time>2026-04-28T14:32:55.999Z</time></trkpt><trkpt lat="43.76947099338636" lon="11.598215108257433"><ele>1107.0</ele><time>2026-04-28T14:32:57.999Z</time></trkpt><trkpt lat="43.769593101082144" lon="11.598244131370956"><ele>1107.0</ele><time>2026-04-28T14:32:59.999Z</time></trkpt><trkpt lat="43.76970048795296" lon="11.598263712413036"><ele>1107.0</ele><time>2026-04-28T14:33:00.999Z</time></trkpt><trkpt lat="43.769778056755726" lon="11.598316604182324"><ele>1107.0</ele><time>2026-04-28T14:33:01.999Z</time></trkpt><trkpt lat="43.76985820950287" lon="11.598308337244866"><ele>1107.0</ele><time>2026-04-28T14:33:02.999Z</time></trkpt><trkpt lat="43.76992913551727" lon="11.598352280048456"><ele>1107.0</ele><time>2026-04-28T14:33:03.999Z</time></trkpt><trkpt lat="43.77001217387562" lon="11.598396971448652"><ele>1107.0</ele><time>2026-04-28T14:33:04.999Z</time></trkpt><trkpt lat="43.77008034373191" lon="11.598440487609771"><ele>1107.0</ele><time>2026-04-28T14:33:05.999Z</time></trkpt><trkpt lat="43.770150944072086" lon="11.598460054167887"><ele>1107.0</ele><time>2026-04-28T14:33:06.999Z</time></trkpt><trkpt lat="43.77021415642705" lon="11.598453609203931"><ele>1107.0</ele><time>2026-04-28T14:33:07.999Z</time></trkpt><trkpt lat="43.770341196960445" lon="11.598461730782807"><ele>1105.6666666666667</ele><time>2026-04-28T14:33:09.999Z</time></trkpt><trkpt lat="43.77039660424196" lon="11.598404711584857"><ele>1104.3333333333333</ele><time>2026-04-28T14:33:10.999Z</time></trkpt><trkpt lat="43.770451887522555" lon="11.598338554490953"><ele>1103.0</ele><time>2026-04-28T14:33:11.999Z</time></trkpt><trkpt lat="43.770512892182325" lon="11.598266813582534"><ele>1101.6666666666665</ele><time>2026-04-28T14:33:12.999Z</time></trkpt><trkpt lat="43.77058215130893" lon="11.598197758853535"><ele>1100.3333333333333</ele><time>2026-04-28T14:33:13.999Z</time></trkpt><trkpt lat="43.770644435733495" lon="11.598140707662075"><ele>1099.0</ele><time>2026-04-28T14:33:14.999Z</time></trkpt><trkpt lat="43.77071471816122" lon="11.598076134682804"><ele>1099.0</ele><time>2026-04-28T14:33:15.999Z</time></trkpt><trkpt lat="43.77078984724077" lon="11.597994574086387"><ele>1099.0</ele><time>2026-04-28T14:33:16.999Z</time></trkpt><trkpt lat="43.77086858048081" lon="11.597937107678499"><ele>1099.0</ele><time>2026-04-28T14:33:17.999Z</time></trkpt><trkpt lat="43.77093274122758" lon="11.597865830462815"><ele>1099.0</ele><time>2026-04-28T14:33:18.999Z</time></trkpt><trkpt lat="43.770994651023535" lon="11.597791119753188"><ele>1099.0</ele><time>2026-04-28T14:33:19.999Z</time></trkpt><trkpt lat="43.77105670584909" lon="11.597712162979485"><ele>1099.0</ele><time>2026-04-28T14:33:20.999Z</time></trkpt><trkpt lat="43.77112277579339" lon="11.597637229956604"><ele>1098.8333333333333</ele><time>2026-04-28T14:33:21.999Z</time></trkpt><trkpt lat="43.77118215491615" lon="11.59758137420017"><ele>1098.6666666666665</ele><time>2026-04-28T14:33:22.999Z</time></trkpt><trkpt lat="43.771269246395505" lon="11.59758876202823"><ele>1098.5</ele><time>2026-04-28T14:33:23.999Z</time></trkpt><trkpt lat="43.771357575738136" lon="11.597600339557001"><ele>1098.3333333333333</ele><time>2026-04-28T14:33:24.999Z</time></trkpt><trkpt lat="43.77143520379207" lon="11.597588769879621"><ele>1098.1666666666667</ele><time>2026-04-28T14:33:25.999Z</time></trkpt><trkpt lat="43.77151918145127" lon="11.597604654739486"><ele>1098.0</ele><time>2026-04-28T14:33:26.999Z</time></trkpt><trkpt lat="43.77162481592727" lon="11.597567098180924"><ele>1098.0</ele><time>2026-04-28T14:33:27.999Z</time></trkpt><trkpt lat="43.77170348981933" lon="11.597559669196366"><ele>1098.0</ele><time>2026-04-28T14:33:28.999Z</time></trkpt><trkpt lat="43.77178218625827" lon="11.597572049564326"><ele>1098.0</ele><time>2026-04-28T14:33:29.999Z</time></trkpt><trkpt lat="43.771847939466454" lon="11.597617376503317"><ele>1098.0</ele><time>2026-04-28T14:33:30.999Z</time></trkpt><trkpt lat="43.771919856747346" lon="11.597639261987005"><ele>1098.0</ele><time>2026-04-28T14:33:31.999Z</time></trkpt><trkpt lat="43.77200954376707" lon="11.597660407089974"><ele>1098.0</ele><time>2026-04-28T14:33:32.999Z</time></trkpt><trkpt lat="43.77212707062591" lon="11.597728538188107"><ele>1096.6</ele><time>2026-04-28T14:33:33.999Z</time></trkpt><trkpt lat="43.77220321515959" lon="11.59769191839142"><ele>1095.1999999999998</ele><time>2026-04-28T14:33:34.999Z</time></trkpt><trkpt lat="43.772294122319906" lon="11.597682195613608"><ele>1093.8</ele><time>2026-04-28T14:33:35.999Z</time></trkpt><trkpt lat="43.772379274230715" lon="11.59767856851517"><ele>1092.3999999999999</ele><time>2026-04-28T14:33:36.999Z</time></trkpt><trkpt lat="43.772474133523865" lon="11.597602414327918"><ele>1091.0</ele><time>2026-04-28T14:33:38.999Z</time></trkpt><trkpt lat="43.77255623825291" lon="11.597538253723423"><ele>1091.0</ele><time>2026-04-28T14:33:39.999Z</time></trkpt><trkpt lat="43.772621694110406" lon="11.597482422848548"><ele>1091.0</ele><time>2026-04-28T14:33:40.999Z</time></trkpt><trkpt lat="43.772705165722826" lon="11.597489351091914"><ele>1091.0</ele><time>2026-04-28T14:33:41.999Z</time></trkpt><trkpt lat="43.772788251163185" lon="11.597509064434243"><ele>1091.0</ele><time>2026-04-28T14:33:42.999Z</time></trkpt><trkpt lat="43.772887211730016" lon="11.597530992419786"><ele>1091.0</ele><time>2026-04-28T14:33:43.999Z</time></trkpt><trkpt lat="43.77303275699099" lon="11.597524914153832"><ele>1089.8</ele><time>2026-04-28T14:33:44.999Z</time></trkpt><trkpt lat="43.77316436419138" lon="11.597528986778629"><ele>1088.6</ele><time>2026-04-28T14:33:45.999Z</time></trkpt><trkpt lat="43.77326136373443" lon="11.597567724085485"><ele>1087.4</ele><time>2026-04-28T14:33:46.999Z</time></trkpt><trkpt lat="43.77333239400926" lon="11.597637099293056"><ele>1086.2</ele><time>2026-04-28T14:33:47.999Z</time></trkpt><trkpt lat="43.7734055778264" lon="11.59766916873623"><ele>1085.0</ele><time>2026-04-28T14:33:48.999Z</time></trkpt><trkpt lat="43.77348099936671" lon="11.597686897982376"><ele>1082.6</ele><time>2026-04-28T14:33:49.999Z</time></trkpt><trkpt lat="43.773571119053834" lon="11.597679897820536"><ele>1080.2</ele><time>2026-04-28T14:33:50.999Z</time></trkpt><trkpt lat="43.77367546669746" lon="11.5976598022904"><ele>1077.8</ele><time>2026-04-28T14:33:51.999Z</time></trkpt><trkpt lat="43.77374874031832" lon="11.597642844023959"><ele>1075.4</ele><time>2026-04-28T14:33:52.999Z</time></trkpt><trkpt lat="43.77382952250934" lon="11.597644011811342"><ele>1073.0</ele><time>2026-04-28T14:33:53.999Z</time></trkpt><trkpt lat="43.773932044351945" lon="11.59757460508127"><ele>1073.0</ele><time>2026-04-28T14:33:55.999Z</time></trkpt><trkpt lat="43.77398827384457" lon="11.597495719288114"><ele>1073.0</ele><time>2026-04-28T14:33:56.999Z</time></trkpt><trkpt lat="43.7740570936175" lon="11.597418576215551"><ele>1073.0</ele><time>2026-04-28T14:33:57.999Z</time></trkpt><trkpt lat="43.774121765661384" lon="11.597346887688081"><ele>1073.0</ele><time>2026-04-28T14:33:58.999Z</time></trkpt><trkpt lat="43.77419792572213" lon="11.597270500118135"><ele>1073.0</ele><time>2026-04-28T14:33:59.999Z</time></trkpt><trkpt lat="43.77427585108391" lon="11.597200720015893"><ele>1073.0</ele><time>2026-04-28T14:34:01Z</time></trkpt><trkpt lat="43.77436260385042" lon="11.597139296615705"><ele>1071.8</ele><time>2026-04-28T14:34:02Z</time></trkpt><trkpt lat="43.77445008578936" lon="11.59708739601171"><ele>1070.6</ele><time>2026-04-28T14:34:03Z</time></trkpt><trkpt lat="43.77453288230423" lon="11.597007174993742"><ele>1069.4</ele><time>2026-04-28T14:34:04Z</time></trkpt><trkpt lat="43.77462342156906" lon="11.596955613950202"><ele>1068.2</ele><time>2026-04-28T14:34:05Z</time></trkpt><trkpt lat="43.77471747655563" lon="11.59689972808649"><ele>1067.0</ele><time>2026-04-28T14:34:06Z</time></trkpt><trkpt lat="43.77481461333821" lon="11.59684118205418"><ele>1067.0</ele><time>2026-04-28T14:34:07Z</time></trkpt><trkpt lat="43.77491180421359" lon="11.596783113411279"><ele>1067.0</ele><time>2026-04-28T14:34:08Z</time></trkpt><trkpt lat="43.77500422534096" lon="11.596722942264742"><ele>1067.0</ele><time>2026-04-28T14:34:09Z</time></trkpt><trkpt lat="43.77509160582767" lon="11.596658878306796"><ele>1067.0</ele><time>2026-04-28T14:34:10Z</time></trkpt><trkpt lat="43.77517444425416" lon="11.59659617001204"><ele>1067.0</ele><time>2026-04-28T14:34:11Z</time></trkpt><trkpt lat="43.77525680356955" lon="11.596538893473825"><ele>1064.0</ele><time>2026-04-28T14:34:12Z</time></trkpt><trkpt lat="43.775337586022054" lon="11.596477116902731"><ele>1061.0</ele><time>2026-04-28T14:34:13Z</time></trkpt><trkpt lat="43.775424035515755" lon="11.596421880085181"><ele>1058.0</ele><time>2026-04-28T14:34:14Z</time></trkpt><trkpt lat="43.77550957888581" lon="11.596359168071517"><ele>1055.0</ele><time>2026-04-28T14:34:15Z</time></trkpt><trkpt lat="43.77559198456515" lon="11.596290619461268"><ele>1052.0</ele><time>2026-04-28T14:34:16Z</time></trkpt><trkpt lat="43.775676318346186" lon="11.596233839032298"><ele>1052.0</ele><time>2026-04-28T14:34:17Z</time></trkpt><trkpt lat="43.77576339917017" lon="11.596170269186107"><ele>1052.0</ele><time>2026-04-28T14:34:18Z</time></trkpt><trkpt lat="43.77585141946224" lon="11.596097057075822"><ele>1052.0</ele><time>2026-04-28T14:34:19Z</time></trkpt><trkpt lat="43.77593713564001" lon="11.596011601481532"><ele>1052.0</ele><time>2026-04-28T14:34:20Z</time></trkpt><trkpt lat="43.77601236859592" lon="11.59592176503625"><ele>1052.0</ele><time>2026-04-28T14:34:21Z</time></trkpt><trkpt lat="43.77608585711104" lon="11.595813122036022"><ele>1052.0</ele><time>2026-04-28T14:34:22Z</time></trkpt><trkpt lat="43.776149343393925" lon="11.595694579327299"><ele>1052.0</ele><time>2026-04-28T14:34:23Z</time></trkpt><trkpt lat="43.7762123741729" lon="11.5955832651435"><ele>1052.0</ele><time>2026-04-28T14:34:24Z</time></trkpt><trkpt lat="43.77627111829088" lon="11.595478254828429"><ele>1052.0</ele><time>2026-04-28T14:34:25Z</time></trkpt><trkpt lat="43.77633346365226" lon="11.595395436326108"><ele>1052.0</ele><time>2026-04-28T14:34:26Z</time></trkpt><trkpt lat="43.77640713937548" lon="11.595319019454697"><ele>1051.8</ele><time>2026-04-28T14:34:27Z</time></trkpt><trkpt lat="43.77649138377797" lon="11.595249341239912"><ele>1051.6</ele><time>2026-04-28T14:34:28Z</time></trkpt><trkpt lat="43.776575351701595" lon="11.595170405676079"><ele>1051.3999999999999</ele><time>2026-04-28T14:34:29Z</time></trkpt><trkpt lat="43.77666417227532" lon="11.595091292974828"><ele>1051.2</ele><time>2026-04-28T14:34:30Z</time></trkpt><trkpt lat="43.776756483511825" lon="11.595015947852858"><ele>1051.0</ele><time>2026-04-28T14:34:31Z</time></trkpt><trkpt lat="43.77684598878973" lon="11.594947983600967"><ele>1051.1666666666665</ele><time>2026-04-28T14:34:32Z</time></trkpt><trkpt lat="43.77693100070012" lon="11.594889310834267"><ele>1051.3333333333333</ele><time>2026-04-28T14:34:33Z</time></trkpt><trkpt lat="43.77702158837678" lon="11.594854032002704"><ele>1051.5</ele><time>2026-04-28T14:34:34Z</time></trkpt><trkpt lat="43.777104715216105" lon="11.594843777772615"><ele>1051.6666666666667</ele><time>2026-04-28T14:34:35Z</time></trkpt><trkpt lat="43.77717648670972" lon="11.594851858134076"><ele>1051.8333333333335</ele><time>2026-04-28T14:34:36Z</time></trkpt><trkpt lat="43.77724973268201" lon="11.594883982886063"><ele>1052.0</ele><time>2026-04-28T14:34:37Z</time></trkpt><trkpt lat="43.777323785186006" lon="11.594927697811217"><ele>1052.0</ele><time>2026-04-28T14:34:38Z</time></trkpt><trkpt lat="43.77739812916932" lon="11.594976853407367"><ele>1052.0</ele><time>2026-04-28T14:34:39Z</time></trkpt><trkpt lat="43.777463837971005" lon="11.5950195131595"><ele>1052.0</ele><time>2026-04-28T14:34:40Z</time></trkpt><trkpt lat="43.777527313227225" lon="11.595057426654712"><ele>1052.0</ele><time>2026-04-28T14:34:41Z</time></trkpt><trkpt lat="43.77759696063436" lon="11.595099899583936"><ele>1052.0</ele><time>2026-04-28T14:34:42Z</time></trkpt><trkpt lat="43.77765759432401" lon="11.595141261558007"><ele>1052.0</ele><time>2026-04-28T14:34:43Z</time></trkpt><trkpt lat="43.777738881905655" lon="11.59520527517612"><ele>1051.2</ele><time>2026-04-28T14:34:45Z</time></trkpt><trkpt lat="43.777814620781136" lon="11.595261711703445"><ele>1050.4</ele><time>2026-04-28T14:34:47Z</time></trkpt><trkpt lat="43.77788439264982" lon="11.595323720017479"><ele>1049.6</ele><time>2026-04-28T14:34:49Z</time></trkpt><trkpt lat="43.777999215985744" lon="11.595399732086229"><ele>1048.8</ele><time>2026-04-28T14:34:50.999Z</time></trkpt><trkpt lat="43.778084951874796" lon="11.595471259909951"><ele>1048.0</ele><time>2026-04-28T14:34:51.999Z</time></trkpt><trkpt lat="43.778192551484324" lon="11.595505632671145"><ele>1047.3333333333333</ele><time>2026-04-28T14:34:52.999Z</time></trkpt><trkpt lat="43.77827722387367" lon="11.595569102246197"><ele>1046.6666666666665</ele><time>2026-04-28T14:34:53.999Z</time></trkpt><trkpt lat="43.778352986637586" lon="11.595630526620521"><ele>1046.0</ele><time>2026-04-28T14:34:54.999Z</time></trkpt><trkpt lat="43.77842019967043" lon="11.595728537595098"><ele>1045.3333333333333</ele><time>2026-04-28T14:34:55.999Z</time></trkpt><trkpt lat="43.77846712544268" lon="11.595802561183582"><ele>1044.6666666666667</ele><time>2026-04-28T14:34:56.999Z</time></trkpt><trkpt lat="43.778530328903784" lon="11.595895767119643"><ele>1044.0</ele><time>2026-04-28T14:34:57.999Z</time></trkpt><trkpt lat="43.77858241592769" lon="11.59598356389032"><ele>1043.6000000000001</ele><time>2026-04-28T14:34:58.999Z</time></trkpt><trkpt lat="43.77864693962191" lon="11.59606830906763"><ele>1043.2</ele><time>2026-04-28T14:34:59.999Z</time></trkpt><trkpt lat="43.77872448752452" lon="11.596140819515497"><ele>1042.8000000000002</ele><time>2026-04-28T14:35:00.999Z</time></trkpt><trkpt lat="43.77880577128358" lon="11.59621159523372"><ele>1042.4</ele><time>2026-04-28T14:35:01.999Z</time></trkpt><trkpt lat="43.77889643687063" lon="11.596279453132116"><ele>1042.0</ele><time>2026-04-28T14:35:02.999Z</time></trkpt><trkpt lat="43.7789884442439" lon="11.596349886465203"><ele>1042.0</ele><time>2026-04-28T14:35:03.999Z</time></trkpt><trkpt lat="43.779084920741084" lon="11.596430480234492"><ele>1042.0</ele><time>2026-04-28T14:35:04.999Z</time></trkpt><trkpt lat="43.77918089514286" lon="11.596510855533438"><ele>1042.0</ele><time>2026-04-28T14:35:05.999Z</time></trkpt><trkpt lat="43.77927317685578" lon="11.596598032014647"><ele>1042.0</ele><time>2026-04-28T14:35:06.999Z</time></trkpt><trkpt lat="43.77936999741551" lon="11.59667128406312"><ele>1042.0</ele><time>2026-04-28T14:35:07.999Z</time></trkpt><trkpt lat="43.7794605487729" lon="11.596724456018736"><ele>1040.6</ele><time>2026-04-28T14:35:08.999Z</time></trkpt><trkpt lat="43.77957624224744" lon="11.596761052083142"><ele>1039.2</ele><time>2026-04-28T14:35:09.999Z</time></trkpt><trkpt lat="43.77967352799999" lon="11.596785537717615"><ele>1037.8</ele><time>2026-04-28T14:35:10.999Z</time></trkpt><trkpt lat="43.77976962764636" lon="11.596821710113998"><ele>1036.4</ele><time>2026-04-28T14:35:11.999Z</time></trkpt><trkpt lat="43.77986588985005" lon="11.59687111072268"><ele>1035.0</ele><time>2026-04-28T14:35:12.999Z</time></trkpt><trkpt lat="43.779963092365065" lon="11.596903774704565"><ele>1035.0</ele><time>2026-04-28T14:35:13.999Z</time></trkpt><trkpt lat="43.78005504666203" lon="11.596971260218641"><ele>1035.0</ele><time>2026-04-28T14:35:14.999Z</time></trkpt><trkpt lat="43.78014992448108" lon="11.597035366740586"><ele>1035.0</ele><time>2026-04-28T14:35:15.999Z</time></trkpt><trkpt lat="43.78025158857847" lon="11.597081280471143"><ele>1035.0</ele><time>2026-04-28T14:35:16.999Z</time></trkpt><trkpt lat="43.78032863415041" lon="11.597124946407254"><ele>1035.0</ele><time>2026-04-28T14:35:17.999Z</time></trkpt><trkpt lat="43.78038947721916" lon="11.597156754845019"><ele>1031.8</ele><time>2026-04-28T14:35:18.999Z</time></trkpt><trkpt lat="43.78049661035603" lon="11.597191529129505"><ele>1028.6</ele><time>2026-04-28T14:35:20.999Z</time></trkpt><trkpt lat="43.78060571327219" lon="11.597166595048938"><ele>1025.4</ele><time>2026-04-28T14:35:22.999Z</time></trkpt><trkpt lat="43.780703017716235" lon="11.597115881810401"><ele>1022.2</ele><time>2026-04-28T14:35:24.999Z</time></trkpt><trkpt lat="43.780804349646566" lon="11.597105923144047"><ele>1019.0</ele><time>2026-04-28T14:35:26.999Z</time></trkpt><trkpt lat="43.78087520645161" lon="11.597048572156647"><ele>1019.0000000000001</ele><time>2026-04-28T14:35:28.999Z</time></trkpt><trkpt lat="43.78096924367885" lon="11.597053207964228"><ele>1019.0</ele><time>2026-04-28T14:35:30.999Z</time></trkpt><trkpt lat="43.78106397408506" lon="11.597075493519533"><ele>1019.0</ele><time>2026-04-28T14:35:32.999Z</time></trkpt><trkpt lat="43.781155719783705" lon="11.597040533550357"><ele>1019.0</ele><time>2026-04-28T14:35:34.999Z</time></trkpt><trkpt lat="43.78122179855178" lon="11.597032246368713"><ele>1019.0000000000001</ele><time>2026-04-28T14:35:36.999Z</time></trkpt><trkpt lat="43.78129213455596" lon="11.59708688994614"><ele>1019.0</ele><time>2026-04-28T14:35:38.999Z</time></trkpt><trkpt lat="43.78134219858539" lon="11.59717098742633"><ele>1020.5</ele><time>2026-04-28T14:35:39.999Z</time></trkpt><trkpt lat="43.781406574593845" lon="11.597283122764217"><ele>1022.0</ele><time>2026-04-28T14:35:40.999Z</time></trkpt><trkpt lat="43.781492316014656" lon="11.597380561641462"><ele>1023.5</ele><time>2026-04-28T14:35:41.999Z</time></trkpt><trkpt lat="43.78160030339244" lon="11.597483007890135"><ele>1025.0</ele><time>2026-04-28T14:35:42.999Z</time></trkpt><trkpt lat="43.78171404664225" lon="11.597563647899317"><ele>1025.0</ele><time>2026-04-28T14:35:43.999Z</time></trkpt><trkpt lat="43.78184566398069" lon="11.597648370532813"><ele>1025.0</ele><time>2026-04-28T14:35:44.999Z</time></trkpt><trkpt lat="43.78196472301408" lon="11.597735774591529"><ele>1025.0</ele><time>2026-04-28T14:35:45.999Z</time></trkpt><trkpt lat="43.78208821600613" lon="11.5978128278057"><ele>1025.0</ele><time>2026-04-28T14:35:46.999Z</time></trkpt><trkpt lat="43.78220306720211" lon="11.597884831082554"><ele>1028.25</ele><time>2026-04-28T14:35:47.999Z</time></trkpt><trkpt lat="43.782310698519666" lon="11.597963246531329"><ele>1031.5</ele><time>2026-04-28T14:35:48.999Z</time></trkpt><trkpt lat="43.782420872940826" lon="11.59805276699129"><ele>1034.75</ele><time>2026-04-28T14:35:49.999Z</time></trkpt><trkpt lat="43.782517881595886" lon="11.59816517112325"><ele>1038.0</ele><time>2026-04-28T14:35:50.999Z</time></trkpt><trkpt lat="43.782601373245726" lon="11.598293092039109"><ele>1038.0</ele><time>2026-04-28T14:35:51.999Z</time></trkpt><trkpt lat="43.7826634449754" lon="11.598439277668605"><ele>1038.0</ele><time>2026-04-28T14:35:52.999Z</time></trkpt><trkpt lat="43.78271899720013" lon="11.598584568484812"><ele>1038.0</ele><time>2026-04-28T14:35:53.999Z</time></trkpt><trkpt lat="43.78277121831933" lon="11.598723794157305"><ele>1038.0</ele><time>2026-04-28T14:35:54.999Z</time></trkpt><trkpt lat="43.78281589845081" lon="11.598861020286206"><ele>1041.25</ele><time>2026-04-28T14:35:55.999Z</time></trkpt><trkpt lat="43.78285064560812" lon="11.599007636816982"><ele>1044.5</ele><time>2026-04-28T14:35:56.999Z</time></trkpt><trkpt lat="43.78287550198044" lon="11.599164503060793"><ele>1047.75</ele><time>2026-04-28T14:35:57.999Z</time></trkpt><trkpt lat="43.78288968099896" lon="11.599332377458776"><ele>1051.0</ele><time>2026-04-28T14:35:58.999Z</time></trkpt><trkpt lat="43.78289942899898" lon="11.59948914125124"><ele>1052.25</ele><time>2026-04-28T14:35:59.999Z</time></trkpt><trkpt lat="43.782905992694864" lon="11.599662776725449"><ele>1053.5</ele><time>2026-04-28T14:36:00.999Z</time></trkpt><trkpt lat="43.782923200222946" lon="11.599822184166921"><ele>1054.75</ele><time>2026-04-28T14:36:01.999Z</time></trkpt><trkpt lat="43.78293085648496" lon="11.599979521649313"><ele>1056.0</ele><time>2026-04-28T14:36:02.998Z</time></trkpt><trkpt lat="43.78294089628642" lon="11.60012756894933"><ele>1056.0</ele><time>2026-04-28T14:36:03.998Z</time></trkpt><trkpt lat="43.78294866350004" lon="11.600244369593552"><ele>1056.0</ele><time>2026-04-28T14:36:04.998Z</time></trkpt><trkpt lat="43.78293466958872" lon="11.60036509974204"><ele>1056.0</ele><time>2026-04-28T14:36:05.998Z</time></trkpt><trkpt lat="43.78287736221136" lon="11.600479874331668"><ele>1056.0</ele><time>2026-04-28T14:36:07Z</time></trkpt><trkpt lat="43.78286864575837" lon="11.600623977960918"><ele>1056.0</ele><time>2026-04-28T14:36:08Z</time></trkpt><trkpt lat="43.78284992122439" lon="11.600762668397799"><ele>1054.5</ele><time>2026-04-28T14:36:09Z</time></trkpt><trkpt lat="43.78284107242765" lon="11.60089641130198"><ele>1053.0</ele><time>2026-04-28T14:36:10Z</time></trkpt><trkpt lat="43.782831218629255" lon="11.601001368179487"><ele>1051.5</ele><time>2026-04-28T14:36:11Z</time></trkpt><trkpt lat="43.78281248223801" lon="11.601085272061718"><ele>1050.0</ele><time>2026-04-28T14:36:12Z</time></trkpt><trkpt lat="43.78278333105452" lon="11.601190330772651"><ele>1048.5</ele><time>2026-04-28T14:36:14Z</time></trkpt><trkpt lat="43.782721212868736" lon="11.601243859195751"><ele>1047.0</ele><time>2026-04-28T14:36:17Z</time></trkpt><trkpt lat="43.78265415886894" lon="11.601266017907138"><ele>1047.0</ele><time>2026-04-28T14:37:00.999Z</time></trkpt><trkpt lat="43.78265415886894" lon="11.601266017907138"><ele>1047.0</ele><time>2026-04-28T14:37:00.999Z</time></trkpt><trkpt lat="43.78265415886894" lon="11.601266017907138"><ele>1047.0</ele><time>2026-04-28T14:37:00.999Z</time></trkpt><trkpt lat="43.78265415886894" lon="11.601266017907138"><ele>1047.0</ele><time>2026-04-28T14:37:00.999Z</time></trkpt></trkseg></trk></gpx>